<?xml version="1.0" encoding="UTF-8" standalone="no" ?>
<gpx xmlns="http://www.topografix.com/GPX/1/1" xmlns:xsi="http://www.w3.org/2001/XMLSchema-instance" xsi:schemaLocation="http://www.topografix.com/GPX/1/1 http://www.topografix.com/GPX/1/1/gpx.xsd" version="1.1" creator="VisuGPX - https://www.visugpx.com">
  <metadata>
    <name>Les Chemins du Soleil 2013 - Etape 2</name>
    <desc><![CDATA[La Motte-Chalancon/Serre. Moins physique et plus ludique que la première étape.]]></desc>
  </metadata>
  <trk>
    <name><![CDATA[Raid Les Chemins du Soleil]]></name>
    <trkseg>
      <trkpt lat="44.48592" lon="5.38078">
        <ele>535</ele>
        <time>2013-05-11T06:42:38Z</time>
      </trkpt>
      <trkpt lat="44.48584" lon="5.38079">
        <ele>535</ele>
        <time>2013-05-11T06:42:45Z</time>
      </trkpt>
      <trkpt lat="44.48577" lon="5.3808">
        <ele>534.59997558594</ele>
        <time>2013-05-11T06:42:47Z</time>
      </trkpt>
      <trkpt lat="44.48565" lon="5.38075">
        <ele>534.59997558594</ele>
        <time>2013-05-11T06:42:51Z</time>
      </trkpt>
      <trkpt lat="44.48558" lon="5.38073">
        <ele>534.59997558594</ele>
        <time>2013-05-11T06:42:53Z</time>
      </trkpt>
      <trkpt lat="44.48529" lon="5.38065">
        <ele>534.59997558594</ele>
        <time>2013-05-11T06:43:00Z</time>
      </trkpt>
      <trkpt lat="44.48513" lon="5.38051">
        <ele>534.59997558594</ele>
        <time>2013-05-11T06:43:04Z</time>
      </trkpt>
      <trkpt lat="44.48495" lon="5.38042">
        <ele>534.59997558594</ele>
        <time>2013-05-11T06:43:09Z</time>
      </trkpt>
      <trkpt lat="44.48484" lon="5.38057">
        <ele>534.20001220703</ele>
        <time>2013-05-11T06:43:12Z</time>
      </trkpt>
      <trkpt lat="44.48482" lon="5.38066">
        <ele>533.59997558594</ele>
        <time>2013-05-11T06:43:13Z</time>
      </trkpt>
      <trkpt lat="44.48478" lon="5.38071">
        <ele>533.20001220703</ele>
        <time>2013-05-11T06:43:14Z</time>
      </trkpt>
      <trkpt lat="44.48463" lon="5.38083">
        <ele>532.20001220703</ele>
        <time>2013-05-11T06:43:16Z</time>
      </trkpt>
      <trkpt lat="44.48457" lon="5.38091">
        <ele>531.59997558594</ele>
        <time>2013-05-11T06:43:17Z</time>
      </trkpt>
      <trkpt lat="44.48445" lon="5.38108">
        <ele>530.59997558594</ele>
        <time>2013-05-11T06:43:19Z</time>
      </trkpt>
      <trkpt lat="44.48437" lon="5.38115">
        <ele>530</ele>
        <time>2013-05-11T06:43:20Z</time>
      </trkpt>
      <trkpt lat="44.48428" lon="5.38121">
        <ele>529.40002441406</ele>
        <time>2013-05-11T06:43:21Z</time>
      </trkpt>
      <trkpt lat="44.48419" lon="5.38124">
        <ele>529</ele>
        <time>2013-05-11T06:43:22Z</time>
      </trkpt>
      <trkpt lat="44.4841" lon="5.38127">
        <ele>528.40002441406</ele>
        <time>2013-05-11T06:43:23Z</time>
      </trkpt>
      <trkpt lat="44.484" lon="5.38128">
        <ele>527.79998779297</ele>
        <time>2013-05-11T06:43:24Z</time>
      </trkpt>
      <trkpt lat="44.48383" lon="5.38128">
        <ele>527.40002441406</ele>
        <time>2013-05-11T06:43:26Z</time>
      </trkpt>
      <trkpt lat="44.48375" lon="5.38129">
        <ele>527</ele>
        <time>2013-05-11T06:43:27Z</time>
      </trkpt>
      <trkpt lat="44.48368" lon="5.38131">
        <ele>526.59997558594</ele>
        <time>2013-05-11T06:43:28Z</time>
      </trkpt>
      <trkpt lat="44.48353" lon="5.38138">
        <ele>525.59997558594</ele>
        <time>2013-05-11T06:43:30Z</time>
      </trkpt>
      <trkpt lat="44.48338" lon="5.38147">
        <ele>525.59997558594</ele>
        <time>2013-05-11T06:43:32Z</time>
      </trkpt>
      <trkpt lat="44.48331" lon="5.38151">
        <ele>525.59997558594</ele>
        <time>2013-05-11T06:43:33Z</time>
      </trkpt>
      <trkpt lat="44.48312" lon="5.38164">
        <ele>525.59997558594</ele>
        <time>2013-05-11T06:43:36Z</time>
      </trkpt>
      <trkpt lat="44.48293" lon="5.38174">
        <ele>525.20001220703</ele>
        <time>2013-05-11T06:43:39Z</time>
      </trkpt>
      <trkpt lat="44.48286" lon="5.38177">
        <ele>524.79998779297</ele>
        <time>2013-05-11T06:43:40Z</time>
      </trkpt>
      <trkpt lat="44.4828" lon="5.3818">
        <ele>524.40002441406</ele>
        <time>2013-05-11T06:43:41Z</time>
      </trkpt>
      <trkpt lat="44.48275" lon="5.38184">
        <ele>524</ele>
        <time>2013-05-11T06:43:42Z</time>
      </trkpt>
      <trkpt lat="44.48269" lon="5.38187">
        <ele>523.59997558594</ele>
        <time>2013-05-11T06:43:43Z</time>
      </trkpt>
      <trkpt lat="44.48263" lon="5.38191">
        <ele>523.59997558594</ele>
        <time>2013-05-11T06:43:44Z</time>
      </trkpt>
      <trkpt lat="44.48246" lon="5.38203">
        <ele>523.59997558594</ele>
        <time>2013-05-11T06:43:47Z</time>
      </trkpt>
      <trkpt lat="44.48229" lon="5.38204">
        <ele>523.59997558594</ele>
        <time>2013-05-11T06:43:50Z</time>
      </trkpt>
      <trkpt lat="44.48215" lon="5.38188">
        <ele>523.59997558594</ele>
        <time>2013-05-11T06:43:53Z</time>
      </trkpt>
      <trkpt lat="44.48188" lon="5.38151">
        <ele>523.59997558594</ele>
        <time>2013-05-11T06:44:01Z</time>
      </trkpt>
      <trkpt lat="44.48179" lon="5.38155">
        <ele>523.59997558594</ele>
        <time>2013-05-11T06:44:04Z</time>
      </trkpt>
      <trkpt lat="44.48159" lon="5.38161">
        <ele>523.59997558594</ele>
        <time>2013-05-11T06:44:09Z</time>
      </trkpt>
      <trkpt lat="44.48156" lon="5.38157">
        <ele>523.59997558594</ele>
        <time>2013-05-11T06:44:10Z</time>
      </trkpt>
      <trkpt lat="44.48151" lon="5.38147">
        <ele>523.59997558594</ele>
        <time>2013-05-11T06:44:12Z</time>
      </trkpt>
      <trkpt lat="44.4814" lon="5.38127">
        <ele>523.59997558594</ele>
        <time>2013-05-11T06:44:17Z</time>
      </trkpt>
      <trkpt lat="44.48123" lon="5.381">
        <ele>523.59997558594</ele>
        <time>2013-05-11T06:44:22Z</time>
      </trkpt>
      <trkpt lat="44.48108" lon="5.38068">
        <ele>523.59997558594</ele>
        <time>2013-05-11T06:44:27Z</time>
      </trkpt>
      <trkpt lat="44.48102" lon="5.38054">
        <ele>523.59997558594</ele>
        <time>2013-05-11T06:44:29Z</time>
      </trkpt>
      <trkpt lat="44.4809" lon="5.38027">
        <ele>523.20001220703</ele>
        <time>2013-05-11T06:44:33Z</time>
      </trkpt>
      <trkpt lat="44.48082" lon="5.38014">
        <ele>522.20001220703</ele>
        <time>2013-05-11T06:44:35Z</time>
      </trkpt>
      <trkpt lat="44.48078" lon="5.38008">
        <ele>521.79998779297</ele>
        <time>2013-05-11T06:44:36Z</time>
      </trkpt>
      <trkpt lat="44.48064" lon="5.37985">
        <ele>521.40002441406</ele>
        <time>2013-05-11T06:44:40Z</time>
      </trkpt>
      <trkpt lat="44.48053" lon="5.37969">
        <ele>521.40002441406</ele>
        <time>2013-05-11T06:44:43Z</time>
      </trkpt>
      <trkpt lat="44.4804" lon="5.37963">
        <ele>521.40002441406</ele>
        <time>2013-05-11T06:44:46Z</time>
      </trkpt>
      <trkpt lat="44.48034" lon="5.37964">
        <ele>521.79998779297</ele>
        <time>2013-05-11T06:44:49Z</time>
      </trkpt>
      <trkpt lat="44.48029" lon="5.37966">
        <ele>522.59997558594</ele>
        <time>2013-05-11T06:44:51Z</time>
      </trkpt>
      <trkpt lat="44.48018" lon="5.37962">
        <ele>523.40002441406</ele>
        <time>2013-05-11T06:44:57Z</time>
      </trkpt>
      <trkpt lat="44.48014" lon="5.37957">
        <ele>524</ele>
        <time>2013-05-11T06:45:02Z</time>
      </trkpt>
      <trkpt lat="44.48019" lon="5.37926">
        <ele>528</ele>
        <time>2013-05-11T06:47:13Z</time>
      </trkpt>
      <trkpt lat="44.48021" lon="5.3792">
        <ele>528</ele>
        <time>2013-05-11T06:47:27Z</time>
      </trkpt>
      <trkpt lat="44.4802" lon="5.37916">
        <ele>528</ele>
        <time>2013-05-11T06:47:30Z</time>
      </trkpt>
      <trkpt lat="44.48021" lon="5.3791">
        <ele>528</ele>
        <time>2013-05-11T06:47:44Z</time>
      </trkpt>
      <trkpt lat="44.48021" lon="5.37907">
        <ele>528</ele>
        <time>2013-05-11T06:47:48Z</time>
      </trkpt>
      <trkpt lat="44.48019" lon="5.379">
        <ele>528</ele>
        <time>2013-05-11T06:48:06Z</time>
      </trkpt>
      <trkpt lat="44.4802" lon="5.37897">
        <ele>528</ele>
        <time>2013-05-11T06:48:11Z</time>
      </trkpt>
      <trkpt lat="44.48021" lon="5.37895">
        <ele>528</ele>
        <time>2013-05-11T06:48:14Z</time>
      </trkpt>
      <trkpt lat="44.48019" lon="5.3789">
        <ele>527.59997558594</ele>
        <time>2013-05-11T06:48:29Z</time>
      </trkpt>
      <trkpt lat="44.48019" lon="5.37889">
        <ele>526.79998779297</ele>
        <time>2013-05-11T06:48:31Z</time>
      </trkpt>
      <trkpt lat="44.48019" lon="5.37877">
        <ele>526</ele>
        <time>2013-05-11T06:49:04Z</time>
      </trkpt>
      <trkpt lat="44.48021" lon="5.37867">
        <ele>526</ele>
        <time>2013-05-11T06:49:17Z</time>
      </trkpt>
      <trkpt lat="44.4802" lon="5.3786">
        <ele>526</ele>
        <time>2013-05-11T06:49:40Z</time>
      </trkpt>
      <trkpt lat="44.48018" lon="5.37856">
        <ele>526</ele>
        <time>2013-05-11T06:49:44Z</time>
      </trkpt>
      <trkpt lat="44.48015" lon="5.37848">
        <ele>526</ele>
        <time>2013-05-11T06:49:54Z</time>
      </trkpt>
      <trkpt lat="44.48014" lon="5.3784">
        <ele>526</ele>
        <time>2013-05-11T06:50:00Z</time>
      </trkpt>
      <trkpt lat="44.4801" lon="5.37824">
        <ele>526</ele>
        <time>2013-05-11T06:50:11Z</time>
      </trkpt>
      <trkpt lat="44.48006" lon="5.37807">
        <ele>526</ele>
        <time>2013-05-11T06:50:17Z</time>
      </trkpt>
      <trkpt lat="44.47993" lon="5.37774">
        <ele>526</ele>
        <time>2013-05-11T06:50:26Z</time>
      </trkpt>
      <trkpt lat="44.47982" lon="5.37756">
        <ele>526</ele>
        <time>2013-05-11T06:50:31Z</time>
      </trkpt>
      <trkpt lat="44.4798" lon="5.37753">
        <ele>526</ele>
        <time>2013-05-11T06:50:32Z</time>
      </trkpt>
      <trkpt lat="44.47965" lon="5.37729">
        <ele>526</ele>
        <time>2013-05-11T06:50:39Z</time>
      </trkpt>
      <trkpt lat="44.47955" lon="5.37711">
        <ele>526</ele>
        <time>2013-05-11T06:50:44Z</time>
      </trkpt>
      <trkpt lat="44.47955" lon="5.37708">
        <ele>526</ele>
        <time>2013-05-11T06:50:45Z</time>
      </trkpt>
      <trkpt lat="44.47954" lon="5.37683">
        <ele>526</ele>
        <time>2013-05-11T06:50:51Z</time>
      </trkpt>
      <trkpt lat="44.47953" lon="5.37678">
        <ele>525.59997558594</ele>
        <time>2013-05-11T06:50:52Z</time>
      </trkpt>
      <trkpt lat="44.47952" lon="5.37665">
        <ele>524.79998779297</ele>
        <time>2013-05-11T06:50:54Z</time>
      </trkpt>
      <trkpt lat="44.4795" lon="5.3766">
        <ele>524.20001220703</ele>
        <time>2013-05-11T06:50:55Z</time>
      </trkpt>
      <trkpt lat="44.47949" lon="5.37652">
        <ele>523.79998779297</ele>
        <time>2013-05-11T06:50:56Z</time>
      </trkpt>
      <trkpt lat="44.47948" lon="5.37645">
        <ele>523.40002441406</ele>
        <time>2013-05-11T06:50:57Z</time>
      </trkpt>
      <trkpt lat="44.47947" lon="5.37638">
        <ele>523</ele>
        <time>2013-05-11T06:50:58Z</time>
      </trkpt>
      <trkpt lat="44.47945" lon="5.37628">
        <ele>522.20001220703</ele>
        <time>2013-05-11T06:51:00Z</time>
      </trkpt>
      <trkpt lat="44.47945" lon="5.37618">
        <ele>521.20001220703</ele>
        <time>2013-05-11T06:51:02Z</time>
      </trkpt>
      <trkpt lat="44.47942" lon="5.37604">
        <ele>520.20001220703</ele>
        <time>2013-05-11T06:51:04Z</time>
      </trkpt>
      <trkpt lat="44.4794" lon="5.37598">
        <ele>519.79998779297</ele>
        <time>2013-05-11T06:51:05Z</time>
      </trkpt>
      <trkpt lat="44.47939" lon="5.37593">
        <ele>519.79998779297</ele>
        <time>2013-05-11T06:51:06Z</time>
      </trkpt>
      <trkpt lat="44.47929" lon="5.37559">
        <ele>519.79998779297</ele>
        <time>2013-05-11T06:51:12Z</time>
      </trkpt>
      <trkpt lat="44.47923" lon="5.37549">
        <ele>519.40002441406</ele>
        <time>2013-05-11T06:51:14Z</time>
      </trkpt>
      <trkpt lat="44.47919" lon="5.3754">
        <ele>518.40002441406</ele>
        <time>2013-05-11T06:51:16Z</time>
      </trkpt>
      <trkpt lat="44.47915" lon="5.37529">
        <ele>517.59997558594</ele>
        <time>2013-05-11T06:51:18Z</time>
      </trkpt>
      <trkpt lat="44.47894" lon="5.37497">
        <ele>517.59997558594</ele>
        <time>2013-05-11T06:51:25Z</time>
      </trkpt>
      <trkpt lat="44.47876" lon="5.37484">
        <ele>517.59997558594</ele>
        <time>2013-05-11T06:51:29Z</time>
      </trkpt>
      <trkpt lat="44.47865" lon="5.37477">
        <ele>517.59997558594</ele>
        <time>2013-05-11T06:51:31Z</time>
      </trkpt>
      <trkpt lat="44.47852" lon="5.37466">
        <ele>517.59997558594</ele>
        <time>2013-05-11T06:51:34Z</time>
      </trkpt>
      <trkpt lat="44.47844" lon="5.37459">
        <ele>517.59997558594</ele>
        <time>2013-05-11T06:51:36Z</time>
      </trkpt>
      <trkpt lat="44.47817" lon="5.37451">
        <ele>517.59997558594</ele>
        <time>2013-05-11T06:51:41Z</time>
      </trkpt>
      <trkpt lat="44.47801" lon="5.37453">
        <ele>517.59997558594</ele>
        <time>2013-05-11T06:51:44Z</time>
      </trkpt>
      <trkpt lat="44.4779" lon="5.37451">
        <ele>517.59997558594</ele>
        <time>2013-05-11T06:51:46Z</time>
      </trkpt>
      <trkpt lat="44.47768" lon="5.37449">
        <ele>517.59997558594</ele>
        <time>2013-05-11T06:51:50Z</time>
      </trkpt>
      <trkpt lat="44.47726" lon="5.37448">
        <ele>517.59997558594</ele>
        <time>2013-05-11T06:51:58Z</time>
      </trkpt>
      <trkpt lat="44.47715" lon="5.37447">
        <ele>516.59997558594</ele>
        <time>2013-05-11T06:52:00Z</time>
      </trkpt>
      <trkpt lat="44.47704" lon="5.37446">
        <ele>515.79998779297</ele>
        <time>2013-05-11T06:52:02Z</time>
      </trkpt>
      <trkpt lat="44.47699" lon="5.37446">
        <ele>515.40002441406</ele>
        <time>2013-05-11T06:52:03Z</time>
      </trkpt>
      <trkpt lat="44.47688" lon="5.37446">
        <ele>515.40002441406</ele>
        <time>2013-05-11T06:52:05Z</time>
      </trkpt>
      <trkpt lat="44.47632" lon="5.37446">
        <ele>515.40002441406</ele>
        <time>2013-05-11T06:52:15Z</time>
      </trkpt>
      <trkpt lat="44.47626" lon="5.37448">
        <ele>515.40002441406</ele>
        <time>2013-05-11T06:52:16Z</time>
      </trkpt>
      <trkpt lat="44.47601" lon="5.37458">
        <ele>515.40002441406</ele>
        <time>2013-05-11T06:52:21Z</time>
      </trkpt>
      <trkpt lat="44.47571" lon="5.37476">
        <ele>515.40002441406</ele>
        <time>2013-05-11T06:52:27Z</time>
      </trkpt>
      <trkpt lat="44.47556" lon="5.37498">
        <ele>515.40002441406</ele>
        <time>2013-05-11T06:52:31Z</time>
      </trkpt>
      <trkpt lat="44.47548" lon="5.3751">
        <ele>515.40002441406</ele>
        <time>2013-05-11T06:52:33Z</time>
      </trkpt>
      <trkpt lat="44.47541" lon="5.37519">
        <ele>515.40002441406</ele>
        <time>2013-05-11T06:52:35Z</time>
      </trkpt>
      <trkpt lat="44.47527" lon="5.37521">
        <ele>515.40002441406</ele>
        <time>2013-05-11T06:52:38Z</time>
      </trkpt>
      <trkpt lat="44.47514" lon="5.37518">
        <ele>515.40002441406</ele>
        <time>2013-05-11T06:52:41Z</time>
      </trkpt>
      <trkpt lat="44.47506" lon="5.37511">
        <ele>515.40002441406</ele>
        <time>2013-05-11T06:52:43Z</time>
      </trkpt>
      <trkpt lat="44.47503" lon="5.3751">
        <ele>515.40002441406</ele>
        <time>2013-05-11T06:52:44Z</time>
      </trkpt>
      <trkpt lat="44.47499" lon="5.37507">
        <ele>515.40002441406</ele>
        <time>2013-05-11T06:52:45Z</time>
      </trkpt>
      <trkpt lat="44.47477" lon="5.37499">
        <ele>515.40002441406</ele>
        <time>2013-05-11T06:52:50Z</time>
      </trkpt>
      <trkpt lat="44.47464" lon="5.37496">
        <ele>515.40002441406</ele>
        <time>2013-05-11T06:52:53Z</time>
      </trkpt>
      <trkpt lat="44.47454" lon="5.37493">
        <ele>515.40002441406</ele>
        <time>2013-05-11T06:52:55Z</time>
      </trkpt>
      <trkpt lat="44.47449" lon="5.3749">
        <ele>515.40002441406</ele>
        <time>2013-05-11T06:52:56Z</time>
      </trkpt>
      <trkpt lat="44.47435" lon="5.3748">
        <ele>515.40002441406</ele>
        <time>2013-05-11T06:53:01Z</time>
      </trkpt>
      <trkpt lat="44.47428" lon="5.37472">
        <ele>517.59997558594</ele>
        <time>2013-05-11T06:53:06Z</time>
      </trkpt>
      <trkpt lat="44.47425" lon="5.37467">
        <ele>517.59997558594</ele>
        <time>2013-05-11T06:53:08Z</time>
      </trkpt>
      <trkpt lat="44.47419" lon="5.3745">
        <ele>517.59997558594</ele>
        <time>2013-05-11T06:53:12Z</time>
      </trkpt>
      <trkpt lat="44.47416" lon="5.3743">
        <ele>517.59997558594</ele>
        <time>2013-05-11T06:53:17Z</time>
      </trkpt>
      <trkpt lat="44.47414" lon="5.37408">
        <ele>517.20001220703</ele>
        <time>2013-05-11T06:53:21Z</time>
      </trkpt>
      <trkpt lat="44.47412" lon="5.37398">
        <ele>516.20001220703</ele>
        <time>2013-05-11T06:53:23Z</time>
      </trkpt>
      <trkpt lat="44.4741" lon="5.37388">
        <ele>515.40002441406</ele>
        <time>2013-05-11T06:53:25Z</time>
      </trkpt>
      <trkpt lat="44.47405" lon="5.37378">
        <ele>515.40002441406</ele>
        <time>2013-05-11T06:53:28Z</time>
      </trkpt>
      <trkpt lat="44.474" lon="5.37373">
        <ele>515.40002441406</ele>
        <time>2013-05-11T06:53:31Z</time>
      </trkpt>
      <trkpt lat="44.47385" lon="5.37362">
        <ele>515.40002441406</ele>
        <time>2013-05-11T06:53:47Z</time>
      </trkpt>
      <trkpt lat="44.47371" lon="5.37355">
        <ele>515.40002441406</ele>
        <time>2013-05-11T06:53:52Z</time>
      </trkpt>
      <trkpt lat="44.47355" lon="5.37345">
        <ele>515.40002441406</ele>
        <time>2013-05-11T06:53:56Z</time>
      </trkpt>
      <trkpt lat="44.47349" lon="5.37344">
        <ele>514.59997558594</ele>
        <time>2013-05-11T06:53:58Z</time>
      </trkpt>
      <trkpt lat="44.47332" lon="5.37343">
        <ele>513.40002441406</ele>
        <time>2013-05-11T06:54:05Z</time>
      </trkpt>
      <trkpt lat="44.47329" lon="5.37345">
        <ele>513.79998779297</ele>
        <time>2013-05-11T06:54:08Z</time>
      </trkpt>
      <trkpt lat="44.47319" lon="5.3735">
        <ele>516.20001220703</ele>
        <time>2013-05-11T06:54:15Z</time>
      </trkpt>
      <trkpt lat="44.4731" lon="5.37352">
        <ele>518</ele>
        <time>2013-05-11T06:54:20Z</time>
      </trkpt>
      <trkpt lat="44.473" lon="5.37345">
        <ele>518.40002441406</ele>
        <time>2013-05-11T06:54:25Z</time>
      </trkpt>
      <trkpt lat="44.47298" lon="5.37344">
        <ele>518.79998779297</ele>
        <time>2013-05-11T06:54:26Z</time>
      </trkpt>
      <trkpt lat="44.47272" lon="5.37335">
        <ele>520</ele>
        <time>2013-05-11T06:54:36Z</time>
      </trkpt>
      <trkpt lat="44.47252" lon="5.37316">
        <ele>520</ele>
        <time>2013-05-11T06:54:40Z</time>
      </trkpt>
      <trkpt lat="44.47246" lon="5.37309">
        <ele>519.40002441406</ele>
        <time>2013-05-11T06:54:41Z</time>
      </trkpt>
      <trkpt lat="44.47235" lon="5.37293">
        <ele>518</ele>
        <time>2013-05-11T06:54:43Z</time>
      </trkpt>
      <trkpt lat="44.47228" lon="5.37286">
        <ele>517.20001220703</ele>
        <time>2013-05-11T06:54:44Z</time>
      </trkpt>
      <trkpt lat="44.47219" lon="5.37281">
        <ele>516.20001220703</ele>
        <time>2013-05-11T06:54:45Z</time>
      </trkpt>
      <trkpt lat="44.47211" lon="5.37277">
        <ele>515.20001220703</ele>
        <time>2013-05-11T06:54:46Z</time>
      </trkpt>
      <trkpt lat="44.47194" lon="5.3727">
        <ele>513.20001220703</ele>
        <time>2013-05-11T06:54:48Z</time>
      </trkpt>
      <trkpt lat="44.47186" lon="5.37266">
        <ele>512.20001220703</ele>
        <time>2013-05-11T06:54:49Z</time>
      </trkpt>
      <trkpt lat="44.4717" lon="5.37258">
        <ele>511.79998779297</ele>
        <time>2013-05-11T06:54:51Z</time>
      </trkpt>
      <trkpt lat="44.47163" lon="5.37254">
        <ele>511.39999389648</ele>
        <time>2013-05-11T06:54:52Z</time>
      </trkpt>
      <trkpt lat="44.47155" lon="5.3725">
        <ele>511</ele>
        <time>2013-05-11T06:54:53Z</time>
      </trkpt>
      <trkpt lat="44.47148" lon="5.37247">
        <ele>510.60000610352</ele>
        <time>2013-05-11T06:54:54Z</time>
      </trkpt>
      <trkpt lat="44.47116" lon="5.37227">
        <ele>510.20001220703</ele>
        <time>2013-05-11T06:54:59Z</time>
      </trkpt>
      <trkpt lat="44.4711" lon="5.37221">
        <ele>510.20001220703</ele>
        <time>2013-05-11T06:55:00Z</time>
      </trkpt>
      <trkpt lat="44.47094" lon="5.37205">
        <ele>510.20001220703</ele>
        <time>2013-05-11T06:55:03Z</time>
      </trkpt>
      <trkpt lat="44.47089" lon="5.372">
        <ele>510.20001220703</ele>
        <time>2013-05-11T06:55:04Z</time>
      </trkpt>
      <trkpt lat="44.47077" lon="5.37192">
        <ele>510.20001220703</ele>
        <time>2013-05-11T06:55:06Z</time>
      </trkpt>
      <trkpt lat="44.47066" lon="5.37188">
        <ele>510.20001220703</ele>
        <time>2013-05-11T06:55:08Z</time>
      </trkpt>
      <trkpt lat="44.47058" lon="5.37185">
        <ele>510.20001220703</ele>
        <time>2013-05-11T06:55:10Z</time>
      </trkpt>
      <trkpt lat="44.4705" lon="5.37176">
        <ele>510.20001220703</ele>
        <time>2013-05-11T06:55:12Z</time>
      </trkpt>
      <trkpt lat="44.47017" lon="5.37155">
        <ele>510.20001220703</ele>
        <time>2013-05-11T06:55:18Z</time>
      </trkpt>
      <trkpt lat="44.46992" lon="5.37149">
        <ele>510.20001220703</ele>
        <time>2013-05-11T06:55:22Z</time>
      </trkpt>
      <trkpt lat="44.46987" lon="5.37146">
        <ele>510.20001220703</ele>
        <time>2013-05-11T06:55:23Z</time>
      </trkpt>
      <trkpt lat="44.46973" lon="5.37131">
        <ele>510.20001220703</ele>
        <time>2013-05-11T06:55:26Z</time>
      </trkpt>
      <trkpt lat="44.46968" lon="5.37125">
        <ele>510.20001220703</ele>
        <time>2013-05-11T06:55:27Z</time>
      </trkpt>
      <trkpt lat="44.46958" lon="5.37112">
        <ele>510.20001220703</ele>
        <time>2013-05-11T06:55:29Z</time>
      </trkpt>
      <trkpt lat="44.46944" lon="5.37103">
        <ele>510.20001220703</ele>
        <time>2013-05-11T06:55:31Z</time>
      </trkpt>
      <trkpt lat="44.46925" lon="5.3709">
        <ele>509.79998779297</ele>
        <time>2013-05-11T06:55:34Z</time>
      </trkpt>
      <trkpt lat="44.46918" lon="5.37086">
        <ele>509.39999389648</ele>
        <time>2013-05-11T06:55:35Z</time>
      </trkpt>
      <trkpt lat="44.46905" lon="5.37077">
        <ele>508.39999389648</ele>
        <time>2013-05-11T06:55:37Z</time>
      </trkpt>
      <trkpt lat="44.46898" lon="5.37072">
        <ele>508</ele>
        <time>2013-05-11T06:55:38Z</time>
      </trkpt>
      <trkpt lat="44.46852" lon="5.37044">
        <ele>508</ele>
        <time>2013-05-11T06:55:45Z</time>
      </trkpt>
      <trkpt lat="44.46812" lon="5.37019">
        <ele>508</ele>
        <time>2013-05-11T06:55:51Z</time>
      </trkpt>
      <trkpt lat="44.46778" lon="5.37004">
        <ele>507.60000610352</ele>
        <time>2013-05-11T06:55:56Z</time>
      </trkpt>
      <trkpt lat="44.46763" lon="5.36998">
        <ele>506.79998779297</ele>
        <time>2013-05-11T06:55:58Z</time>
      </trkpt>
      <trkpt lat="44.46756" lon="5.36996">
        <ele>506.39999389648</ele>
        <time>2013-05-11T06:55:59Z</time>
      </trkpt>
      <trkpt lat="44.4675" lon="5.36993">
        <ele>506</ele>
        <time>2013-05-11T06:56:00Z</time>
      </trkpt>
      <trkpt lat="44.46718" lon="5.36977">
        <ele>506</ele>
        <time>2013-05-11T06:56:05Z</time>
      </trkpt>
      <trkpt lat="44.46696" lon="5.36956">
        <ele>506</ele>
        <time>2013-05-11T06:56:09Z</time>
      </trkpt>
      <trkpt lat="44.46676" lon="5.36955">
        <ele>506</ele>
        <time>2013-05-11T06:56:12Z</time>
      </trkpt>
      <trkpt lat="44.46669" lon="5.36958">
        <ele>506</ele>
        <time>2013-05-11T06:56:13Z</time>
      </trkpt>
      <trkpt lat="44.46656" lon="5.36957">
        <ele>506</ele>
        <time>2013-05-11T06:56:15Z</time>
      </trkpt>
      <trkpt lat="44.46649" lon="5.36952">
        <ele>506</ele>
        <time>2013-05-11T06:56:16Z</time>
      </trkpt>
      <trkpt lat="44.46632" lon="5.36934">
        <ele>506</ele>
        <time>2013-05-11T06:56:19Z</time>
      </trkpt>
      <trkpt lat="44.46627" lon="5.36929">
        <ele>506</ele>
        <time>2013-05-11T06:56:20Z</time>
      </trkpt>
      <trkpt lat="44.46616" lon="5.36918">
        <ele>505.60000610352</ele>
        <time>2013-05-11T06:56:22Z</time>
      </trkpt>
      <trkpt lat="44.46609" lon="5.36914">
        <ele>505.20001220703</ele>
        <time>2013-05-11T06:56:23Z</time>
      </trkpt>
      <trkpt lat="44.46597" lon="5.36908">
        <ele>504.39999389648</ele>
        <time>2013-05-11T06:56:25Z</time>
      </trkpt>
      <trkpt lat="44.46566" lon="5.36895">
        <ele>503.79998779297</ele>
        <time>2013-05-11T06:56:30Z</time>
      </trkpt>
      <trkpt lat="44.4655" lon="5.36886">
        <ele>503.79998779297</ele>
        <time>2013-05-11T06:56:33Z</time>
      </trkpt>
      <trkpt lat="44.46539" lon="5.36879">
        <ele>503.79998779297</ele>
        <time>2013-05-11T06:56:35Z</time>
      </trkpt>
      <trkpt lat="44.46524" lon="5.36871">
        <ele>503.79998779297</ele>
        <time>2013-05-11T06:56:38Z</time>
      </trkpt>
      <trkpt lat="44.46514" lon="5.36872">
        <ele>504.20001220703</ele>
        <time>2013-05-11T06:56:40Z</time>
      </trkpt>
      <trkpt lat="44.4651" lon="5.36873">
        <ele>504.79998779297</ele>
        <time>2013-05-11T06:56:41Z</time>
      </trkpt>
      <trkpt lat="44.46498" lon="5.36874">
        <ele>506</ele>
        <time>2013-05-11T06:56:44Z</time>
      </trkpt>
      <trkpt lat="44.4649" lon="5.36875">
        <ele>507</ele>
        <time>2013-05-11T06:56:46Z</time>
      </trkpt>
      <trkpt lat="44.4648" lon="5.3688">
        <ele>507.79998779297</ele>
        <time>2013-05-11T06:56:48Z</time>
      </trkpt>
      <trkpt lat="44.46476" lon="5.36882">
        <ele>508.39999389648</ele>
        <time>2013-05-11T06:56:49Z</time>
      </trkpt>
      <trkpt lat="44.46452" lon="5.36899">
        <ele>508.39999389648</ele>
        <time>2013-05-11T06:56:55Z</time>
      </trkpt>
      <trkpt lat="44.46448" lon="5.369">
        <ele>508.39999389648</ele>
        <time>2013-05-11T06:56:56Z</time>
      </trkpt>
      <trkpt lat="44.4644" lon="5.36901">
        <ele>509.20001220703</ele>
        <time>2013-05-11T06:56:58Z</time>
      </trkpt>
      <trkpt lat="44.46429" lon="5.36901">
        <ele>510.39999389648</ele>
        <time>2013-05-11T06:57:01Z</time>
      </trkpt>
      <trkpt lat="44.46415" lon="5.36898">
        <ele>510.79998779297</ele>
        <time>2013-05-11T06:57:05Z</time>
      </trkpt>
      <trkpt lat="44.46408" lon="5.36897">
        <ele>511.60000610352</ele>
        <time>2013-05-11T06:57:07Z</time>
      </trkpt>
      <trkpt lat="44.46399" lon="5.36894">
        <ele>512.40002441406</ele>
        <time>2013-05-11T06:57:10Z</time>
      </trkpt>
      <trkpt lat="44.46374" lon="5.36887">
        <ele>512.79998779297</ele>
        <time>2013-05-11T06:57:18Z</time>
      </trkpt>
      <trkpt lat="44.46368" lon="5.36885">
        <ele>513.79998779297</ele>
        <time>2013-05-11T06:57:20Z</time>
      </trkpt>
      <trkpt lat="44.46342" lon="5.3688">
        <ele>514.59997558594</ele>
        <time>2013-05-11T06:57:28Z</time>
      </trkpt>
      <trkpt lat="44.46339" lon="5.3688">
        <ele>515</ele>
        <time>2013-05-11T06:57:29Z</time>
      </trkpt>
      <trkpt lat="44.46336" lon="5.3688">
        <ele>515.40002441406</ele>
        <time>2013-05-11T06:57:30Z</time>
      </trkpt>
      <trkpt lat="44.4633" lon="5.36879">
        <ele>516.40002441406</ele>
        <time>2013-05-11T06:57:32Z</time>
      </trkpt>
      <trkpt lat="44.46317" lon="5.36879">
        <ele>516.79998779297</ele>
        <time>2013-05-11T06:57:36Z</time>
      </trkpt>
      <trkpt lat="44.46296" lon="5.36879">
        <ele>517.20001220703</ele>
        <time>2013-05-11T06:57:43Z</time>
      </trkpt>
      <trkpt lat="44.46288" lon="5.36879">
        <ele>518.59997558594</ele>
        <time>2013-05-11T06:57:46Z</time>
      </trkpt>
      <trkpt lat="44.46273" lon="5.36877">
        <ele>519</ele>
        <time>2013-05-11T06:57:51Z</time>
      </trkpt>
      <trkpt lat="44.46249" lon="5.3687">
        <ele>519.59997558594</ele>
        <time>2013-05-11T06:57:59Z</time>
      </trkpt>
      <trkpt lat="44.46238" lon="5.36864">
        <ele>521.59997558594</ele>
        <time>2013-05-11T06:58:03Z</time>
      </trkpt>
      <trkpt lat="44.46222" lon="5.36853">
        <ele>521.59997558594</ele>
        <time>2013-05-11T06:58:09Z</time>
      </trkpt>
      <trkpt lat="44.46204" lon="5.3684">
        <ele>522</ele>
        <time>2013-05-11T06:58:16Z</time>
      </trkpt>
      <trkpt lat="44.46199" lon="5.36836">
        <ele>522.79998779297</ele>
        <time>2013-05-11T06:58:18Z</time>
      </trkpt>
      <trkpt lat="44.4618" lon="5.36816">
        <ele>523.59997558594</ele>
        <time>2013-05-11T06:58:26Z</time>
      </trkpt>
      <trkpt lat="44.4617" lon="5.36802">
        <ele>523.59997558594</ele>
        <time>2013-05-11T06:58:31Z</time>
      </trkpt>
      <trkpt lat="44.46168" lon="5.36799">
        <ele>524.20001220703</ele>
        <time>2013-05-11T06:58:32Z</time>
      </trkpt>
      <trkpt lat="44.46163" lon="5.36788">
        <ele>525.40002441406</ele>
        <time>2013-05-11T06:58:35Z</time>
      </trkpt>
      <trkpt lat="44.46146" lon="5.36755">
        <ele>525.79998779297</ele>
        <time>2013-05-11T06:58:44Z</time>
      </trkpt>
      <trkpt lat="44.46142" lon="5.36748">
        <ele>526.59997558594</ele>
        <time>2013-05-11T06:58:46Z</time>
      </trkpt>
      <trkpt lat="44.46138" lon="5.36742">
        <ele>527.59997558594</ele>
        <time>2013-05-11T06:58:48Z</time>
      </trkpt>
      <trkpt lat="44.46136" lon="5.3674">
        <ele>528</ele>
        <time>2013-05-11T06:58:49Z</time>
      </trkpt>
      <trkpt lat="44.46118" lon="5.36725">
        <ele>528</ele>
        <time>2013-05-11T06:58:56Z</time>
      </trkpt>
      <trkpt lat="44.4611" lon="5.36722">
        <ele>529.40002441406</ele>
        <time>2013-05-11T06:58:59Z</time>
      </trkpt>
      <trkpt lat="44.46096" lon="5.36721">
        <ele>530.40002441406</ele>
        <time>2013-05-11T06:59:04Z</time>
      </trkpt>
      <trkpt lat="44.46076" lon="5.36718">
        <ele>530.79998779297</ele>
        <time>2013-05-11T06:59:11Z</time>
      </trkpt>
      <trkpt lat="44.46067" lon="5.36716">
        <ele>532</ele>
        <time>2013-05-11T06:59:14Z</time>
      </trkpt>
      <trkpt lat="44.46037" lon="5.36707">
        <ele>532.40002441406</ele>
        <time>2013-05-11T06:59:24Z</time>
      </trkpt>
      <trkpt lat="44.46016" lon="5.36697">
        <ele>532.79998779297</ele>
        <time>2013-05-11T06:59:31Z</time>
      </trkpt>
      <trkpt lat="44.46008" lon="5.36693">
        <ele>534</ele>
        <time>2013-05-11T06:59:34Z</time>
      </trkpt>
      <trkpt lat="44.45984" lon="5.36682">
        <ele>534.59997558594</ele>
        <time>2013-05-11T06:59:42Z</time>
      </trkpt>
      <trkpt lat="44.45973" lon="5.36678">
        <ele>535</ele>
        <time>2013-05-11T06:59:46Z</time>
      </trkpt>
      <trkpt lat="44.45969" lon="5.36676">
        <ele>535.40002441406</ele>
        <time>2013-05-11T06:59:47Z</time>
      </trkpt>
      <trkpt lat="44.4596" lon="5.36673">
        <ele>536.59997558594</ele>
        <time>2013-05-11T06:59:50Z</time>
      </trkpt>
      <trkpt lat="44.45936" lon="5.36668">
        <ele>537</ele>
        <time>2013-05-11T06:59:58Z</time>
      </trkpt>
      <trkpt lat="44.45928" lon="5.36667">
        <ele>538.40002441406</ele>
        <time>2013-05-11T07:00:01Z</time>
      </trkpt>
      <trkpt lat="44.45916" lon="5.36671">
        <ele>538.79998779297</ele>
        <time>2013-05-11T07:00:05Z</time>
      </trkpt>
      <trkpt lat="44.45897" lon="5.36689">
        <ele>538.79998779297</ele>
        <time>2013-05-11T07:00:10Z</time>
      </trkpt>
      <trkpt lat="44.45874" lon="5.36712">
        <ele>538.40002441406</ele>
        <time>2013-05-11T07:00:15Z</time>
      </trkpt>
      <trkpt lat="44.45869" lon="5.36716">
        <ele>538</ele>
        <time>2013-05-11T07:00:16Z</time>
      </trkpt>
      <trkpt lat="44.45864" lon="5.36721">
        <ele>537.59997558594</ele>
        <time>2013-05-11T07:00:17Z</time>
      </trkpt>
      <trkpt lat="44.45858" lon="5.36725">
        <ele>537.20001220703</ele>
        <time>2013-05-11T07:00:18Z</time>
      </trkpt>
      <trkpt lat="44.45853" lon="5.36731">
        <ele>536.79998779297</ele>
        <time>2013-05-11T07:00:19Z</time>
      </trkpt>
      <trkpt lat="44.45831" lon="5.36752">
        <ele>536.20001220703</ele>
        <time>2013-05-11T07:00:23Z</time>
      </trkpt>
      <trkpt lat="44.45826" lon="5.36757">
        <ele>535.59997558594</ele>
        <time>2013-05-11T07:00:24Z</time>
      </trkpt>
      <trkpt lat="44.45822" lon="5.36764">
        <ele>535.20001220703</ele>
        <time>2013-05-11T07:00:25Z</time>
      </trkpt>
      <trkpt lat="44.45819" lon="5.3677">
        <ele>534.59997558594</ele>
        <time>2013-05-11T07:00:26Z</time>
      </trkpt>
      <trkpt lat="44.45819" lon="5.36797">
        <ele>534.20001220703</ele>
        <time>2013-05-11T07:00:29Z</time>
      </trkpt>
      <trkpt lat="44.45821" lon="5.36805">
        <ele>534.20001220703</ele>
        <time>2013-05-11T07:00:30Z</time>
      </trkpt>
      <trkpt lat="44.45821" lon="5.36831">
        <ele>534.20001220703</ele>
        <time>2013-05-11T07:00:34Z</time>
      </trkpt>
      <trkpt lat="44.45823" lon="5.36854">
        <ele>534.59997558594</ele>
        <time>2013-05-11T07:00:39Z</time>
      </trkpt>
      <trkpt lat="44.45824" lon="5.36861">
        <ele>535.40002441406</ele>
        <time>2013-05-11T07:00:41Z</time>
      </trkpt>
      <trkpt lat="44.45828" lon="5.36882">
        <ele>536.20001220703</ele>
        <time>2013-05-11T07:00:47Z</time>
      </trkpt>
      <trkpt lat="44.45837" lon="5.36897">
        <ele>536.59997558594</ele>
        <time>2013-05-11T07:00:53Z</time>
      </trkpt>
      <trkpt lat="44.45839" lon="5.36902">
        <ele>537.40002441406</ele>
        <time>2013-05-11T07:00:55Z</time>
      </trkpt>
      <trkpt lat="44.45841" lon="5.36905">
        <ele>537.79998779297</ele>
        <time>2013-05-11T07:00:56Z</time>
      </trkpt>
      <trkpt lat="44.45845" lon="5.36913">
        <ele>538.20001220703</ele>
        <time>2013-05-11T07:00:59Z</time>
      </trkpt>
      <trkpt lat="44.45848" lon="5.36921">
        <ele>539.40002441406</ele>
        <time>2013-05-11T07:01:02Z</time>
      </trkpt>
      <trkpt lat="44.4585" lon="5.36925">
        <ele>540.40002441406</ele>
        <time>2013-05-11T07:01:04Z</time>
      </trkpt>
      <trkpt lat="44.45855" lon="5.36931">
        <ele>540.79998779297</ele>
        <time>2013-05-11T07:01:07Z</time>
      </trkpt>
      <trkpt lat="44.45862" lon="5.36937">
        <ele>542.40002441406</ele>
        <time>2013-05-11T07:01:11Z</time>
      </trkpt>
      <trkpt lat="44.45869" lon="5.36944">
        <ele>542.40002441406</ele>
        <time>2013-05-11T07:01:15Z</time>
      </trkpt>
      <trkpt lat="44.45875" lon="5.36949">
        <ele>542.79998779297</ele>
        <time>2013-05-11T07:01:19Z</time>
      </trkpt>
      <trkpt lat="44.45877" lon="5.3695">
        <ele>543.20001220703</ele>
        <time>2013-05-11T07:01:20Z</time>
      </trkpt>
      <trkpt lat="44.45881" lon="5.36953">
        <ele>544</ele>
        <time>2013-05-11T07:01:22Z</time>
      </trkpt>
      <trkpt lat="44.45891" lon="5.36963">
        <ele>544.40002441406</ele>
        <time>2013-05-11T07:01:28Z</time>
      </trkpt>
      <trkpt lat="44.45897" lon="5.36971">
        <ele>546.20001220703</ele>
        <time>2013-05-11T07:01:33Z</time>
      </trkpt>
      <trkpt lat="44.45914" lon="5.3699">
        <ele>546.59997558594</ele>
        <time>2013-05-11T07:01:43Z</time>
      </trkpt>
      <trkpt lat="44.45921" lon="5.36996">
        <ele>548.20001220703</ele>
        <time>2013-05-11T07:01:47Z</time>
      </trkpt>
      <trkpt lat="44.45925" lon="5.37001">
        <ele>548.59997558594</ele>
        <time>2013-05-11T07:01:50Z</time>
      </trkpt>
      <trkpt lat="44.45932" lon="5.37009">
        <ele>549</ele>
        <time>2013-05-11T07:01:55Z</time>
      </trkpt>
      <trkpt lat="44.45933" lon="5.37011">
        <ele>549.40002441406</ele>
        <time>2013-05-11T07:01:56Z</time>
      </trkpt>
      <trkpt lat="44.45944" lon="5.3703">
        <ele>551</ele>
        <time>2013-05-11T07:02:06Z</time>
      </trkpt>
      <trkpt lat="44.45944" lon="5.37032">
        <ele>551.59997558594</ele>
        <time>2013-05-11T07:02:07Z</time>
      </trkpt>
      <trkpt lat="44.45953" lon="5.37045">
        <ele>552.79998779297</ele>
        <time>2013-05-11T07:02:14Z</time>
      </trkpt>
      <trkpt lat="44.45957" lon="5.37051">
        <ele>554.59997558594</ele>
        <time>2013-05-11T07:02:18Z</time>
      </trkpt>
      <trkpt lat="44.45962" lon="5.37059">
        <ele>555</ele>
        <time>2013-05-11T07:02:23Z</time>
      </trkpt>
      <trkpt lat="44.45966" lon="5.37065">
        <ele>555.40002441406</ele>
        <time>2013-05-11T07:02:27Z</time>
      </trkpt>
      <trkpt lat="44.45971" lon="5.37069">
        <ele>556.59997558594</ele>
        <time>2013-05-11T07:02:30Z</time>
      </trkpt>
      <trkpt lat="44.45971" lon="5.37071">
        <ele>557</ele>
        <time>2013-05-11T07:02:31Z</time>
      </trkpt>
      <trkpt lat="44.45977" lon="5.37081">
        <ele>557.40002441406</ele>
        <time>2013-05-11T07:02:37Z</time>
      </trkpt>
      <trkpt lat="44.45979" lon="5.37104">
        <ele>559.20001220703</ele>
        <time>2013-05-11T07:02:49Z</time>
      </trkpt>
      <trkpt lat="44.45978" lon="5.37111">
        <ele>560.79998779297</ele>
        <time>2013-05-11T07:02:53Z</time>
      </trkpt>
      <trkpt lat="44.45976" lon="5.3712">
        <ele>561.20001220703</ele>
        <time>2013-05-11T07:02:58Z</time>
      </trkpt>
      <trkpt lat="44.45973" lon="5.37135">
        <ele>563.40002441406</ele>
        <time>2013-05-11T07:03:07Z</time>
      </trkpt>
      <trkpt lat="44.45971" lon="5.37142">
        <ele>564.20001220703</ele>
        <time>2013-05-11T07:03:10Z</time>
      </trkpt>
      <trkpt lat="44.4597" lon="5.37145">
        <ele>565</ele>
        <time>2013-05-11T07:03:12Z</time>
      </trkpt>
      <trkpt lat="44.45966" lon="5.37152">
        <ele>565.79998779297</ele>
        <time>2013-05-11T07:03:18Z</time>
      </trkpt>
      <trkpt lat="44.4596" lon="5.37164">
        <ele>568</ele>
        <time>2013-05-11T07:03:28Z</time>
      </trkpt>
      <trkpt lat="44.45956" lon="5.37172">
        <ele>569.59997558594</ele>
        <time>2013-05-11T07:03:33Z</time>
      </trkpt>
      <trkpt lat="44.45952" lon="5.37182">
        <ele>571</ele>
        <time>2013-05-11T07:03:39Z</time>
      </trkpt>
      <trkpt lat="44.45943" lon="5.37199">
        <ele>572.40002441406</ele>
        <time>2013-05-11T07:03:48Z</time>
      </trkpt>
      <trkpt lat="44.45942" lon="5.37201">
        <ele>572.79998779297</ele>
        <time>2013-05-11T07:03:49Z</time>
      </trkpt>
      <trkpt lat="44.45939" lon="5.37206">
        <ele>574</ele>
        <time>2013-05-11T07:03:53Z</time>
      </trkpt>
      <trkpt lat="44.45937" lon="5.37211">
        <ele>574</ele>
        <time>2013-05-11T07:03:56Z</time>
      </trkpt>
      <trkpt lat="44.45929" lon="5.37219">
        <ele>575.59997558594</ele>
        <time>2013-05-11T07:04:05Z</time>
      </trkpt>
      <trkpt lat="44.45928" lon="5.37222">
        <ele>576</ele>
        <time>2013-05-11T07:04:07Z</time>
      </trkpt>
      <trkpt lat="44.45921" lon="5.3723">
        <ele>577</ele>
        <time>2013-05-11T07:04:14Z</time>
      </trkpt>
      <trkpt lat="44.45919" lon="5.37231">
        <ele>577.79998779297</ele>
        <time>2013-05-11T07:04:16Z</time>
      </trkpt>
      <trkpt lat="44.45907" lon="5.37236">
        <ele>578.59997558594</ele>
        <time>2013-05-11T07:04:25Z</time>
      </trkpt>
      <trkpt lat="44.45898" lon="5.37241">
        <ele>580.20001220703</ele>
        <time>2013-05-11T07:04:32Z</time>
      </trkpt>
      <trkpt lat="44.459" lon="5.3725">
        <ele>580.20001220703</ele>
        <time>2013-05-11T07:04:37Z</time>
      </trkpt>
      <trkpt lat="44.45901" lon="5.37251">
        <ele>580.20001220703</ele>
        <time>2013-05-11T07:04:38Z</time>
      </trkpt>
      <trkpt lat="44.45911" lon="5.37253">
        <ele>582</ele>
        <time>2013-05-11T07:04:46Z</time>
      </trkpt>
      <trkpt lat="44.45921" lon="5.37253">
        <ele>582.40002441406</ele>
        <time>2013-05-11T07:04:54Z</time>
      </trkpt>
      <trkpt lat="44.4593" lon="5.37253">
        <ele>583.20001220703</ele>
        <time>2013-05-11T07:05:00Z</time>
      </trkpt>
      <trkpt lat="44.45943" lon="5.37252">
        <ele>584.79998779297</ele>
        <time>2013-05-11T07:05:08Z</time>
      </trkpt>
      <trkpt lat="44.45957" lon="5.37251">
        <ele>586.59997558594</ele>
        <time>2013-05-11T07:05:17Z</time>
      </trkpt>
      <trkpt lat="44.45961" lon="5.37251">
        <ele>587.40002441406</ele>
        <time>2013-05-11T07:05:20Z</time>
      </trkpt>
      <trkpt lat="44.45981" lon="5.37249">
        <ele>589</ele>
        <time>2013-05-11T07:05:33Z</time>
      </trkpt>
      <trkpt lat="44.45992" lon="5.37248">
        <ele>590.79998779297</ele>
        <time>2013-05-11T07:05:40Z</time>
      </trkpt>
      <trkpt lat="44.45993" lon="5.37251">
        <ele>591.79998779297</ele>
        <time>2013-05-11T07:05:42Z</time>
      </trkpt>
      <trkpt lat="44.4599" lon="5.3726">
        <ele>593.20001220703</ele>
        <time>2013-05-11T07:05:47Z</time>
      </trkpt>
      <trkpt lat="44.45974" lon="5.37266">
        <ele>593.59997558594</ele>
        <time>2013-05-11T07:05:56Z</time>
      </trkpt>
      <trkpt lat="44.45969" lon="5.37269">
        <ele>594.79998779297</ele>
        <time>2013-05-11T07:05:59Z</time>
      </trkpt>
      <trkpt lat="44.45962" lon="5.37273">
        <ele>595.20001220703</ele>
        <time>2013-05-11T07:06:04Z</time>
      </trkpt>
      <trkpt lat="44.45948" lon="5.37284">
        <ele>595.59997558594</ele>
        <time>2013-05-11T07:06:13Z</time>
      </trkpt>
      <trkpt lat="44.45943" lon="5.37291">
        <ele>597.20001220703</ele>
        <time>2013-05-11T07:06:17Z</time>
      </trkpt>
      <trkpt lat="44.45927" lon="5.37311">
        <ele>597.20001220703</ele>
        <time>2013-05-11T07:06:30Z</time>
      </trkpt>
      <trkpt lat="44.45919" lon="5.37317">
        <ele>599.40002441406</ele>
        <time>2013-05-11T07:06:35Z</time>
      </trkpt>
      <trkpt lat="44.45912" lon="5.37322">
        <ele>599.40002441406</ele>
        <time>2013-05-11T07:06:40Z</time>
      </trkpt>
      <trkpt lat="44.4591" lon="5.37325">
        <ele>599.79998779297</ele>
        <time>2013-05-11T07:06:42Z</time>
      </trkpt>
      <trkpt lat="44.45905" lon="5.37331">
        <ele>601.79998779297</ele>
        <time>2013-05-11T07:06:46Z</time>
      </trkpt>
      <trkpt lat="44.45897" lon="5.37347">
        <ele>602.20001220703</ele>
        <time>2013-05-11T07:06:56Z</time>
      </trkpt>
      <trkpt lat="44.45895" lon="5.37351">
        <ele>603</ele>
        <time>2013-05-11T07:06:58Z</time>
      </trkpt>
      <trkpt lat="44.45887" lon="5.3737">
        <ele>604</ele>
        <time>2013-05-11T07:07:07Z</time>
      </trkpt>
      <trkpt lat="44.45883" lon="5.37377">
        <ele>604.40002441406</ele>
        <time>2013-05-11T07:07:11Z</time>
      </trkpt>
      <trkpt lat="44.45881" lon="5.37381">
        <ele>605.20001220703</ele>
        <time>2013-05-11T07:07:13Z</time>
      </trkpt>
      <trkpt lat="44.4588" lon="5.37383">
        <ele>605.79998779297</ele>
        <time>2013-05-11T07:07:14Z</time>
      </trkpt>
      <trkpt lat="44.45871" lon="5.37399">
        <ele>606.20001220703</ele>
        <time>2013-05-11T07:07:23Z</time>
      </trkpt>
      <trkpt lat="44.4587" lon="5.374">
        <ele>606.59997558594</ele>
        <time>2013-05-11T07:07:24Z</time>
      </trkpt>
      <trkpt lat="44.45868" lon="5.374">
        <ele>607</ele>
        <time>2013-05-11T07:07:25Z</time>
      </trkpt>
      <trkpt lat="44.45849" lon="5.37404">
        <ele>608.59997558594</ele>
        <time>2013-05-11T07:07:36Z</time>
      </trkpt>
      <trkpt lat="44.45834" lon="5.37409">
        <ele>610.40002441406</ele>
        <time>2013-05-11T07:07:46Z</time>
      </trkpt>
      <trkpt lat="44.45829" lon="5.3741">
        <ele>610.79998779297</ele>
        <time>2013-05-11T07:07:50Z</time>
      </trkpt>
      <trkpt lat="44.45816" lon="5.37416">
        <ele>613</ele>
        <time>2013-05-11T07:07:59Z</time>
      </trkpt>
      <trkpt lat="44.45809" lon="5.37417">
        <ele>615</ele>
        <time>2013-05-11T07:08:03Z</time>
      </trkpt>
      <trkpt lat="44.45798" lon="5.37417">
        <ele>616.20001220703</ele>
        <time>2013-05-11T07:08:10Z</time>
      </trkpt>
      <trkpt lat="44.45789" lon="5.37413">
        <ele>618</ele>
        <time>2013-05-11T07:08:17Z</time>
      </trkpt>
      <trkpt lat="44.45785" lon="5.3741">
        <ele>619.20001220703</ele>
        <time>2013-05-11T07:08:20Z</time>
      </trkpt>
      <trkpt lat="44.45779" lon="5.37404">
        <ele>619.20001220703</ele>
        <time>2013-05-11T07:08:26Z</time>
      </trkpt>
      <trkpt lat="44.45768" lon="5.37404">
        <ele>621.59997558594</ele>
        <time>2013-05-11T07:08:34Z</time>
      </trkpt>
      <trkpt lat="44.45767" lon="5.37412">
        <ele>623.40002441406</ele>
        <time>2013-05-11T07:08:38Z</time>
      </trkpt>
      <trkpt lat="44.45776" lon="5.37428">
        <ele>623.40002441406</ele>
        <time>2013-05-11T07:08:49Z</time>
      </trkpt>
      <trkpt lat="44.45779" lon="5.37431">
        <ele>624.20001220703</ele>
        <time>2013-05-11T07:08:51Z</time>
      </trkpt>
      <trkpt lat="44.45781" lon="5.37432">
        <ele>624.59997558594</ele>
        <time>2013-05-11T07:08:52Z</time>
      </trkpt>
      <trkpt lat="44.45791" lon="5.37443">
        <ele>626</ele>
        <time>2013-05-11T07:09:01Z</time>
      </trkpt>
      <trkpt lat="44.45802" lon="5.37454">
        <ele>628</ele>
        <time>2013-05-11T07:09:12Z</time>
      </trkpt>
      <trkpt lat="44.45818" lon="5.37463">
        <ele>629.79998779297</ele>
        <time>2013-05-11T07:09:24Z</time>
      </trkpt>
      <trkpt lat="44.45821" lon="5.37465">
        <ele>630.59997558594</ele>
        <time>2013-05-11T07:09:26Z</time>
      </trkpt>
      <trkpt lat="44.45831" lon="5.37469">
        <ele>632.59997558594</ele>
        <time>2013-05-11T07:09:34Z</time>
      </trkpt>
      <trkpt lat="44.45834" lon="5.3747">
        <ele>633.79998779297</ele>
        <time>2013-05-11T07:09:37Z</time>
      </trkpt>
      <trkpt lat="44.45847" lon="5.37474">
        <ele>633.79998779297</ele>
        <time>2013-05-11T07:09:46Z</time>
      </trkpt>
      <trkpt lat="44.45851" lon="5.37477">
        <ele>634.79998779297</ele>
        <time>2013-05-11T07:09:49Z</time>
      </trkpt>
      <trkpt lat="44.4585" lon="5.3748">
        <ele>635.59997558594</ele>
        <time>2013-05-11T07:09:51Z</time>
      </trkpt>
      <trkpt lat="44.45842" lon="5.3748">
        <ele>636</ele>
        <time>2013-05-11T07:09:58Z</time>
      </trkpt>
      <trkpt lat="44.45837" lon="5.37478">
        <ele>636.40002441406</ele>
        <time>2013-05-11T07:10:01Z</time>
      </trkpt>
      <trkpt lat="44.45829" lon="5.37476">
        <ele>638</ele>
        <time>2013-05-11T07:10:07Z</time>
      </trkpt>
      <trkpt lat="44.45818" lon="5.37475">
        <ele>640</ele>
        <time>2013-05-11T07:10:15Z</time>
      </trkpt>
      <trkpt lat="44.4581" lon="5.37477">
        <ele>640</ele>
        <time>2013-05-11T07:10:21Z</time>
      </trkpt>
      <trkpt lat="44.45802" lon="5.37481">
        <ele>642.20001220703</ele>
        <time>2013-05-11T07:10:26Z</time>
      </trkpt>
      <trkpt lat="44.45797" lon="5.37483">
        <ele>642.20001220703</ele>
        <time>2013-05-11T07:10:29Z</time>
      </trkpt>
      <trkpt lat="44.45788" lon="5.37486">
        <ele>642.20001220703</ele>
        <time>2013-05-11T07:10:35Z</time>
      </trkpt>
      <trkpt lat="44.45782" lon="5.3749">
        <ele>643.79998779297</ele>
        <time>2013-05-11T07:10:39Z</time>
      </trkpt>
      <trkpt lat="44.45778" lon="5.37494">
        <ele>644.59997558594</ele>
        <time>2013-05-11T07:10:43Z</time>
      </trkpt>
      <trkpt lat="44.4577" lon="5.37499">
        <ele>645.59997558594</ele>
        <time>2013-05-11T07:10:49Z</time>
      </trkpt>
      <trkpt lat="44.45766" lon="5.375">
        <ele>647</ele>
        <time>2013-05-11T07:10:52Z</time>
      </trkpt>
      <trkpt lat="44.45753" lon="5.37504">
        <ele>647.40002441406</ele>
        <time>2013-05-11T07:11:00Z</time>
      </trkpt>
      <trkpt lat="44.4575" lon="5.37508">
        <ele>648.79998779297</ele>
        <time>2013-05-11T07:11:03Z</time>
      </trkpt>
      <trkpt lat="44.45742" lon="5.37513">
        <ele>649.59997558594</ele>
        <time>2013-05-11T07:11:08Z</time>
      </trkpt>
      <trkpt lat="44.45739" lon="5.37515">
        <ele>650.59997558594</ele>
        <time>2013-05-11T07:11:10Z</time>
      </trkpt>
      <trkpt lat="44.45732" lon="5.3752">
        <ele>651.40002441406</ele>
        <time>2013-05-11T07:11:15Z</time>
      </trkpt>
      <trkpt lat="44.45721" lon="5.37528">
        <ele>651.79998779297</ele>
        <time>2013-05-11T07:11:22Z</time>
      </trkpt>
      <trkpt lat="44.4572" lon="5.3753">
        <ele>652.40002441406</ele>
        <time>2013-05-11T07:11:23Z</time>
      </trkpt>
      <trkpt lat="44.45718" lon="5.37531">
        <ele>652.79998779297</ele>
        <time>2013-05-11T07:11:24Z</time>
      </trkpt>
      <trkpt lat="44.45704" lon="5.37537">
        <ele>653.59997558594</ele>
        <time>2013-05-11T07:11:33Z</time>
      </trkpt>
      <trkpt lat="44.45699" lon="5.3754">
        <ele>654</ele>
        <time>2013-05-11T07:11:36Z</time>
      </trkpt>
      <trkpt lat="44.45687" lon="5.37549">
        <ele>655.59997558594</ele>
        <time>2013-05-11T07:11:44Z</time>
      </trkpt>
      <trkpt lat="44.45683" lon="5.37551">
        <ele>656.20001220703</ele>
        <time>2013-05-11T07:11:47Z</time>
      </trkpt>
      <trkpt lat="44.45679" lon="5.37552">
        <ele>657</ele>
        <time>2013-05-11T07:11:49Z</time>
      </trkpt>
      <trkpt lat="44.45665" lon="5.3756">
        <ele>658.40002441406</ele>
        <time>2013-05-11T07:11:59Z</time>
      </trkpt>
      <trkpt lat="44.45659" lon="5.37565">
        <ele>660.59997558594</ele>
        <time>2013-05-11T07:12:04Z</time>
      </trkpt>
      <trkpt lat="44.4565" lon="5.37574">
        <ele>662.20001220703</ele>
        <time>2013-05-11T07:12:12Z</time>
      </trkpt>
      <trkpt lat="44.45649" lon="5.37578">
        <ele>662.20001220703</ele>
        <time>2013-05-11T07:12:14Z</time>
      </trkpt>
      <trkpt lat="44.45649" lon="5.37587">
        <ele>662.59997558594</ele>
        <time>2013-05-11T07:12:19Z</time>
      </trkpt>
      <trkpt lat="44.4565" lon="5.37588">
        <ele>663.20001220703</ele>
        <time>2013-05-11T07:12:20Z</time>
      </trkpt>
      <trkpt lat="44.45653" lon="5.3759">
        <ele>664</ele>
        <time>2013-05-11T07:12:22Z</time>
      </trkpt>
      <trkpt lat="44.4566" lon="5.37591">
        <ele>664.40002441406</ele>
        <time>2013-05-11T07:12:27Z</time>
      </trkpt>
      <trkpt lat="44.45672" lon="5.37592">
        <ele>664.79998779297</ele>
        <time>2013-05-11T07:12:35Z</time>
      </trkpt>
      <trkpt lat="44.45686" lon="5.37597">
        <ele>667</ele>
        <time>2013-05-11T07:12:45Z</time>
      </trkpt>
      <trkpt lat="44.45691" lon="5.37598">
        <ele>668.20001220703</ele>
        <time>2013-05-11T07:12:48Z</time>
      </trkpt>
      <trkpt lat="44.45701" lon="5.37599">
        <ele>670</ele>
        <time>2013-05-11T07:12:55Z</time>
      </trkpt>
      <trkpt lat="44.45714" lon="5.37594">
        <ele>670.79998779297</ele>
        <time>2013-05-11T07:13:05Z</time>
      </trkpt>
      <trkpt lat="44.45718" lon="5.37602">
        <ele>672.79998779297</ele>
        <time>2013-05-11T07:13:10Z</time>
      </trkpt>
      <trkpt lat="44.45694" lon="5.37624">
        <ele>675.59997558594</ele>
        <time>2013-05-11T07:13:29Z</time>
      </trkpt>
      <trkpt lat="44.4569" lon="5.37627">
        <ele>676.79998779297</ele>
        <time>2013-05-11T07:13:32Z</time>
      </trkpt>
      <trkpt lat="44.45684" lon="5.37633">
        <ele>677.20001220703</ele>
        <time>2013-05-11T07:13:37Z</time>
      </trkpt>
      <trkpt lat="44.45675" lon="5.37643">
        <ele>677.59997558594</ele>
        <time>2013-05-11T07:13:44Z</time>
      </trkpt>
      <trkpt lat="44.45665" lon="5.37654">
        <ele>679.79998779297</ele>
        <time>2013-05-11T07:13:54Z</time>
      </trkpt>
      <trkpt lat="44.4566" lon="5.37661">
        <ele>681.40002441406</ele>
        <time>2013-05-11T07:13:59Z</time>
      </trkpt>
      <trkpt lat="44.45656" lon="5.37667">
        <ele>681.79998779297</ele>
        <time>2013-05-11T07:14:03Z</time>
      </trkpt>
      <trkpt lat="44.45653" lon="5.37671">
        <ele>683</ele>
        <time>2013-05-11T07:14:06Z</time>
      </trkpt>
      <trkpt lat="44.45644" lon="5.37686">
        <ele>683.79998779297</ele>
        <time>2013-05-11T07:14:16Z</time>
      </trkpt>
      <trkpt lat="44.45641" lon="5.3769">
        <ele>685.20001220703</ele>
        <time>2013-05-11T07:14:19Z</time>
      </trkpt>
      <trkpt lat="44.45638" lon="5.37699">
        <ele>685.59997558594</ele>
        <time>2013-05-11T07:14:24Z</time>
      </trkpt>
      <trkpt lat="44.45636" lon="5.3771">
        <ele>686.20001220703</ele>
        <time>2013-05-11T07:14:30Z</time>
      </trkpt>
      <trkpt lat="44.45631" lon="5.37733">
        <ele>688</ele>
        <time>2013-05-11T07:14:42Z</time>
      </trkpt>
      <trkpt lat="44.4563" lon="5.37739">
        <ele>689.20001220703</ele>
        <time>2013-05-11T07:14:45Z</time>
      </trkpt>
      <trkpt lat="44.45629" lon="5.3774">
        <ele>689.79998779297</ele>
        <time>2013-05-11T07:14:46Z</time>
      </trkpt>
      <trkpt lat="44.45624" lon="5.37755">
        <ele>690.59997558594</ele>
        <time>2013-05-11T07:14:54Z</time>
      </trkpt>
      <trkpt lat="44.45623" lon="5.3776">
        <ele>692</ele>
        <time>2013-05-11T07:14:57Z</time>
      </trkpt>
      <trkpt lat="44.4562" lon="5.37773">
        <ele>692.40002441406</ele>
        <time>2013-05-11T07:15:04Z</time>
      </trkpt>
      <trkpt lat="44.45616" lon="5.3779">
        <ele>692.79998779297</ele>
        <time>2013-05-11T07:15:12Z</time>
      </trkpt>
      <trkpt lat="44.45616" lon="5.37793">
        <ele>693.20001220703</ele>
        <time>2013-05-11T07:15:13Z</time>
      </trkpt>
      <trkpt lat="44.45611" lon="5.37815">
        <ele>694.59997558594</ele>
        <time>2013-05-11T07:15:23Z</time>
      </trkpt>
      <trkpt lat="44.45607" lon="5.37833">
        <ele>695</ele>
        <time>2013-05-11T07:15:31Z</time>
      </trkpt>
      <trkpt lat="44.45605" lon="5.37841">
        <ele>696.20001220703</ele>
        <time>2013-05-11T07:15:34Z</time>
      </trkpt>
      <trkpt lat="44.45602" lon="5.37854">
        <ele>696.59997558594</ele>
        <time>2013-05-11T07:15:41Z</time>
      </trkpt>
      <trkpt lat="44.45597" lon="5.37864">
        <ele>697</ele>
        <time>2013-05-11T07:15:47Z</time>
      </trkpt>
      <trkpt lat="44.45588" lon="5.37877">
        <ele>699.20001220703</ele>
        <time>2013-05-11T07:15:57Z</time>
      </trkpt>
      <trkpt lat="44.45585" lon="5.3788">
        <ele>700.59997558594</ele>
        <time>2013-05-11T07:16:00Z</time>
      </trkpt>
      <trkpt lat="44.45575" lon="5.37886">
        <ele>701</ele>
        <time>2013-05-11T07:16:08Z</time>
      </trkpt>
      <trkpt lat="44.45573" lon="5.37891">
        <ele>701.40002441406</ele>
        <time>2013-05-11T07:16:11Z</time>
      </trkpt>
      <trkpt lat="44.45584" lon="5.37892">
        <ele>703.20001220703</ele>
        <time>2013-05-11T07:16:21Z</time>
      </trkpt>
      <trkpt lat="44.45595" lon="5.37884">
        <ele>703.20001220703</ele>
        <time>2013-05-11T07:16:29Z</time>
      </trkpt>
      <trkpt lat="44.45602" lon="5.3788">
        <ele>705.59997558594</ele>
        <time>2013-05-11T07:16:34Z</time>
      </trkpt>
      <trkpt lat="44.45608" lon="5.37876">
        <ele>705.59997558594</ele>
        <time>2013-05-11T07:16:40Z</time>
      </trkpt>
      <trkpt lat="44.4562" lon="5.37869">
        <ele>705.59997558594</ele>
        <time>2013-05-11T07:16:49Z</time>
      </trkpt>
      <trkpt lat="44.45624" lon="5.37867">
        <ele>706.40002441406</ele>
        <time>2013-05-11T07:16:52Z</time>
      </trkpt>
      <trkpt lat="44.45633" lon="5.37866">
        <ele>706.40002441406</ele>
        <time>2013-05-11T07:16:58Z</time>
      </trkpt>
      <trkpt lat="44.45642" lon="5.3786">
        <ele>707.79998779297</ele>
        <time>2013-05-11T07:17:06Z</time>
      </trkpt>
      <trkpt lat="44.45649" lon="5.37852">
        <ele>708.40002441406</ele>
        <time>2013-05-11T07:17:13Z</time>
      </trkpt>
      <trkpt lat="44.4565" lon="5.3785">
        <ele>708.40002441406</ele>
        <time>2013-05-11T07:17:15Z</time>
      </trkpt>
      <trkpt lat="44.45656" lon="5.37844">
        <ele>710.59997558594</ele>
        <time>2013-05-11T07:17:20Z</time>
      </trkpt>
      <trkpt lat="44.45665" lon="5.37835">
        <ele>711.59997558594</ele>
        <time>2013-05-11T07:17:27Z</time>
      </trkpt>
      <trkpt lat="44.45673" lon="5.37831">
        <ele>711.59997558594</ele>
        <time>2013-05-11T07:17:32Z</time>
      </trkpt>
      <trkpt lat="44.45675" lon="5.37829">
        <ele>712.59997558594</ele>
        <time>2013-05-11T07:17:34Z</time>
      </trkpt>
      <trkpt lat="44.45682" lon="5.37824">
        <ele>712.59997558594</ele>
        <time>2013-05-11T07:17:40Z</time>
      </trkpt>
      <trkpt lat="44.45693" lon="5.3782">
        <ele>714</ele>
        <time>2013-05-11T07:17:51Z</time>
      </trkpt>
      <trkpt lat="44.45692" lon="5.37826">
        <ele>714</ele>
        <time>2013-05-11T07:17:54Z</time>
      </trkpt>
      <trkpt lat="44.45684" lon="5.37835">
        <ele>714.59997558594</ele>
        <time>2013-05-11T07:18:01Z</time>
      </trkpt>
      <trkpt lat="44.45676" lon="5.37847">
        <ele>716.20001220703</ele>
        <time>2013-05-11T07:18:09Z</time>
      </trkpt>
      <trkpt lat="44.45669" lon="5.37859">
        <ele>717</ele>
        <time>2013-05-11T07:18:16Z</time>
      </trkpt>
      <trkpt lat="44.45666" lon="5.37867">
        <ele>717</ele>
        <time>2013-05-11T07:18:20Z</time>
      </trkpt>
      <trkpt lat="44.45665" lon="5.37872">
        <ele>717.59997558594</ele>
        <time>2013-05-11T07:18:23Z</time>
      </trkpt>
      <trkpt lat="44.4566" lon="5.37883">
        <ele>718.40002441406</ele>
        <time>2013-05-11T07:18:30Z</time>
      </trkpt>
      <trkpt lat="44.4566" lon="5.37885">
        <ele>718.40002441406</ele>
        <time>2013-05-11T07:18:31Z</time>
      </trkpt>
      <trkpt lat="44.45656" lon="5.37895">
        <ele>719.40002441406</ele>
        <time>2013-05-11T07:18:37Z</time>
      </trkpt>
      <trkpt lat="44.45645" lon="5.37912">
        <ele>719.40002441406</ele>
        <time>2013-05-11T07:18:48Z</time>
      </trkpt>
      <trkpt lat="44.4564" lon="5.3792">
        <ele>720.20001220703</ele>
        <time>2013-05-11T07:18:54Z</time>
      </trkpt>
      <trkpt lat="44.45638" lon="5.37924">
        <ele>720.20001220703</ele>
        <time>2013-05-11T07:18:57Z</time>
      </trkpt>
      <trkpt lat="44.45635" lon="5.3793">
        <ele>721.20001220703</ele>
        <time>2013-05-11T07:19:01Z</time>
      </trkpt>
      <trkpt lat="44.45631" lon="5.37947">
        <ele>723.40002441406</ele>
        <time>2013-05-11T07:19:14Z</time>
      </trkpt>
      <trkpt lat="44.4563" lon="5.37951">
        <ele>723.40002441406</ele>
        <time>2013-05-11T07:19:16Z</time>
      </trkpt>
      <trkpt lat="44.45623" lon="5.37962">
        <ele>723.40002441406</ele>
        <time>2013-05-11T07:19:21Z</time>
      </trkpt>
      <trkpt lat="44.45619" lon="5.37968">
        <ele>724.40002441406</ele>
        <time>2013-05-11T07:19:23Z</time>
      </trkpt>
      <trkpt lat="44.45607" lon="5.37979">
        <ele>725.59997558594</ele>
        <time>2013-05-11T07:19:29Z</time>
      </trkpt>
      <trkpt lat="44.45597" lon="5.37985">
        <ele>725.59997558594</ele>
        <time>2013-05-11T07:19:34Z</time>
      </trkpt>
      <trkpt lat="44.45588" lon="5.37993">
        <ele>725.59997558594</ele>
        <time>2013-05-11T07:19:38Z</time>
      </trkpt>
      <trkpt lat="44.4558" lon="5.38007">
        <ele>725.59997558594</ele>
        <time>2013-05-11T07:19:47Z</time>
      </trkpt>
      <trkpt lat="44.4557" lon="5.38021">
        <ele>725.59997558594</ele>
        <time>2013-05-11T07:19:56Z</time>
      </trkpt>
      <trkpt lat="44.4556" lon="5.38037">
        <ele>725.59997558594</ele>
        <time>2013-05-11T07:20:07Z</time>
      </trkpt>
      <trkpt lat="44.45554" lon="5.38047">
        <ele>726</ele>
        <time>2013-05-11T07:20:15Z</time>
      </trkpt>
      <trkpt lat="44.4555" lon="5.38053">
        <ele>726</ele>
        <time>2013-05-11T07:20:20Z</time>
      </trkpt>
      <trkpt lat="44.45544" lon="5.38061">
        <ele>728</ele>
        <time>2013-05-11T07:20:30Z</time>
      </trkpt>
      <trkpt lat="44.45536" lon="5.38073">
        <ele>728.79998779297</ele>
        <time>2013-05-11T07:20:42Z</time>
      </trkpt>
      <trkpt lat="44.4553" lon="5.38081">
        <ele>733.79998779297</ele>
        <time>2013-05-11T07:20:49Z</time>
      </trkpt>
      <trkpt lat="44.45529" lon="5.38082">
        <ele>734.59997558594</ele>
        <time>2013-05-11T07:20:50Z</time>
      </trkpt>
      <trkpt lat="44.45521" lon="5.38091">
        <ele>735.79998779297</ele>
        <time>2013-05-11T07:21:01Z</time>
      </trkpt>
      <trkpt lat="44.45519" lon="5.38093">
        <ele>736.59997558594</ele>
        <time>2013-05-11T07:21:03Z</time>
      </trkpt>
      <trkpt lat="44.45511" lon="5.38106">
        <ele>737.59997558594</ele>
        <time>2013-05-11T07:21:17Z</time>
      </trkpt>
      <trkpt lat="44.45509" lon="5.38111">
        <ele>739.59997558594</ele>
        <time>2013-05-11T07:21:25Z</time>
      </trkpt>
      <trkpt lat="44.45506" lon="5.3812">
        <ele>740</ele>
        <time>2013-05-11T07:21:39Z</time>
      </trkpt>
      <trkpt lat="44.45502" lon="5.38142">
        <ele>741.79998779297</ele>
        <time>2013-05-11T07:22:48Z</time>
      </trkpt>
      <trkpt lat="44.45501" lon="5.3815">
        <ele>742.59997558594</ele>
        <time>2013-05-11T07:22:55Z</time>
      </trkpt>
      <trkpt lat="44.45499" lon="5.38159">
        <ele>744.20001220703</ele>
        <time>2013-05-11T07:23:07Z</time>
      </trkpt>
      <trkpt lat="44.45499" lon="5.3816">
        <ele>744.59997558594</ele>
        <time>2013-05-11T07:23:08Z</time>
      </trkpt>
      <trkpt lat="44.45496" lon="5.38171">
        <ele>746.20001220703</ele>
        <time>2013-05-11T07:23:21Z</time>
      </trkpt>
      <trkpt lat="44.45494" lon="5.38181">
        <ele>748.40002441406</ele>
        <time>2013-05-11T07:23:37Z</time>
      </trkpt>
      <trkpt lat="44.45493" lon="5.38195">
        <ele>750.20001220703</ele>
        <time>2013-05-11T07:23:48Z</time>
      </trkpt>
      <trkpt lat="44.45491" lon="5.38201">
        <ele>750.59997558594</ele>
        <time>2013-05-11T07:23:54Z</time>
      </trkpt>
      <trkpt lat="44.4549" lon="5.38202">
        <ele>751.40002441406</ele>
        <time>2013-05-11T07:23:56Z</time>
      </trkpt>
      <trkpt lat="44.45484" lon="5.38211">
        <ele>752.20001220703</ele>
        <time>2013-05-11T07:24:05Z</time>
      </trkpt>
      <trkpt lat="44.4548" lon="5.38216">
        <ele>752.59997558594</ele>
        <time>2013-05-11T07:24:12Z</time>
      </trkpt>
      <trkpt lat="44.45478" lon="5.38221">
        <ele>754.40002441406</ele>
        <time>2013-05-11T07:24:18Z</time>
      </trkpt>
      <trkpt lat="44.45472" lon="5.38233">
        <ele>756.40002441406</ele>
        <time>2013-05-11T07:24:32Z</time>
      </trkpt>
      <trkpt lat="44.4547" lon="5.38239">
        <ele>758</ele>
        <time>2013-05-11T07:24:39Z</time>
      </trkpt>
      <trkpt lat="44.45469" lon="5.38243">
        <ele>758.40002441406</ele>
        <time>2013-05-11T07:24:45Z</time>
      </trkpt>
      <trkpt lat="44.45461" lon="5.3825">
        <ele>761.40002441406</ele>
        <time>2013-05-11T07:25:00Z</time>
      </trkpt>
      <trkpt lat="44.45459" lon="5.38252">
        <ele>762.59997558594</ele>
        <time>2013-05-11T07:25:04Z</time>
      </trkpt>
      <trkpt lat="44.45452" lon="5.38262">
        <ele>764.79998779297</ele>
        <time>2013-05-11T07:25:20Z</time>
      </trkpt>
      <trkpt lat="44.45449" lon="5.38264">
        <ele>764.79998779297</ele>
        <time>2013-05-11T07:25:26Z</time>
      </trkpt>
      <trkpt lat="44.4544" lon="5.38266">
        <ele>767</ele>
        <time>2013-05-11T07:25:36Z</time>
      </trkpt>
      <trkpt lat="44.45435" lon="5.38274">
        <ele>767</ele>
        <time>2013-05-11T07:25:43Z</time>
      </trkpt>
      <trkpt lat="44.45433" lon="5.3828">
        <ele>768.59997558594</ele>
        <time>2013-05-11T07:25:49Z</time>
      </trkpt>
      <trkpt lat="44.45437" lon="5.3829">
        <ele>770</ele>
        <time>2013-05-11T07:26:02Z</time>
      </trkpt>
      <trkpt lat="44.45439" lon="5.38309">
        <ele>771.40002441406</ele>
        <time>2013-05-11T07:26:21Z</time>
      </trkpt>
      <trkpt lat="44.45439" lon="5.3831">
        <ele>772.20001220703</ele>
        <time>2013-05-11T07:26:23Z</time>
      </trkpt>
      <trkpt lat="44.45441" lon="5.38314">
        <ele>773.40002441406</ele>
        <time>2013-05-11T07:26:30Z</time>
      </trkpt>
      <trkpt lat="44.45446" lon="5.38328">
        <ele>776.40002441406</ele>
        <time>2013-05-11T07:27:11Z</time>
      </trkpt>
      <trkpt lat="44.45446" lon="5.38332">
        <ele>778.20001220703</ele>
        <time>2013-05-11T07:27:21Z</time>
      </trkpt>
      <trkpt lat="44.45452" lon="5.38345">
        <ele>780</ele>
        <time>2013-05-11T07:27:33Z</time>
      </trkpt>
      <trkpt lat="44.45455" lon="5.38351">
        <ele>781</ele>
        <time>2013-05-11T07:27:40Z</time>
      </trkpt>
      <trkpt lat="44.45463" lon="5.3836">
        <ele>784.79998779297</ele>
        <time>2013-05-11T07:28:07Z</time>
      </trkpt>
      <trkpt lat="44.4547" lon="5.38367">
        <ele>786.40002441406</ele>
        <time>2013-05-11T07:28:17Z</time>
      </trkpt>
      <trkpt lat="44.45472" lon="5.38374">
        <ele>786.79998779297</ele>
        <time>2013-05-11T07:28:42Z</time>
      </trkpt>
      <trkpt lat="44.45481" lon="5.38386">
        <ele>788.79998779297</ele>
        <time>2013-05-11T07:28:57Z</time>
      </trkpt>
      <trkpt lat="44.45487" lon="5.38391">
        <ele>791</ele>
        <time>2013-05-11T07:29:05Z</time>
      </trkpt>
      <trkpt lat="44.45492" lon="5.38395">
        <ele>793</ele>
        <time>2013-05-11T07:29:14Z</time>
      </trkpt>
      <trkpt lat="44.45494" lon="5.38402">
        <ele>795</ele>
        <time>2013-05-11T07:29:26Z</time>
      </trkpt>
      <trkpt lat="44.45497" lon="5.38411">
        <ele>798.59997558594</ele>
        <time>2013-05-11T07:29:40Z</time>
      </trkpt>
      <trkpt lat="44.45504" lon="5.3842">
        <ele>798.59997558594</ele>
        <time>2013-05-11T07:29:53Z</time>
      </trkpt>
      <trkpt lat="44.45506" lon="5.38421">
        <ele>799.40002441406</ele>
        <time>2013-05-11T07:29:57Z</time>
      </trkpt>
      <trkpt lat="44.45513" lon="5.38421">
        <ele>801.20001220703</ele>
        <time>2013-05-11T07:30:08Z</time>
      </trkpt>
      <trkpt lat="44.45522" lon="5.38424">
        <ele>803</ele>
        <time>2013-05-11T07:30:25Z</time>
      </trkpt>
      <trkpt lat="44.4553" lon="5.38436">
        <ele>805.59997558594</ele>
        <time>2013-05-11T07:30:48Z</time>
      </trkpt>
      <trkpt lat="44.4553" lon="5.38442">
        <ele>807.40002441406</ele>
        <time>2013-05-11T07:30:56Z</time>
      </trkpt>
      <trkpt lat="44.45535" lon="5.38457">
        <ele>812</ele>
        <time>2013-05-11T07:31:37Z</time>
      </trkpt>
      <trkpt lat="44.45535" lon="5.38462">
        <ele>813.59997558594</ele>
        <time>2013-05-11T07:31:42Z</time>
      </trkpt>
      <trkpt lat="44.45533" lon="5.38471">
        <ele>813.59997558594</ele>
        <time>2013-05-11T07:31:49Z</time>
      </trkpt>
      <trkpt lat="44.45537" lon="5.38493">
        <ele>815.59997558594</ele>
        <time>2013-05-11T07:32:10Z</time>
      </trkpt>
      <trkpt lat="44.45537" lon="5.38504">
        <ele>817.79998779297</ele>
        <time>2013-05-11T07:32:17Z</time>
      </trkpt>
      <trkpt lat="44.45536" lon="5.38514">
        <ele>817.79998779297</ele>
        <time>2013-05-11T07:32:22Z</time>
      </trkpt>
      <trkpt lat="44.45533" lon="5.38528">
        <ele>818.20001220703</ele>
        <time>2013-05-11T07:32:31Z</time>
      </trkpt>
      <trkpt lat="44.45533" lon="5.38534">
        <ele>819.40002441406</ele>
        <time>2013-05-11T07:32:34Z</time>
      </trkpt>
      <trkpt lat="44.45529" lon="5.38556">
        <ele>819.79998779297</ele>
        <time>2013-05-11T07:32:46Z</time>
      </trkpt>
      <trkpt lat="44.4553" lon="5.38565">
        <ele>820.40002441406</ele>
        <time>2013-05-11T07:32:50Z</time>
      </trkpt>
      <trkpt lat="44.45527" lon="5.3857">
        <ele>821.79998779297</ele>
        <time>2013-05-11T07:32:53Z</time>
      </trkpt>
      <trkpt lat="44.45522" lon="5.3858">
        <ele>823.20001220703</ele>
        <time>2013-05-11T07:33:01Z</time>
      </trkpt>
      <trkpt lat="44.4552" lon="5.38588">
        <ele>824.59997558594</ele>
        <time>2013-05-11T07:33:07Z</time>
      </trkpt>
      <trkpt lat="44.45518" lon="5.38599">
        <ele>825.20001220703</ele>
        <time>2013-05-11T07:33:15Z</time>
      </trkpt>
      <trkpt lat="44.45517" lon="5.38601">
        <ele>826</ele>
        <time>2013-05-11T07:33:16Z</time>
      </trkpt>
      <trkpt lat="44.4552" lon="5.38609">
        <ele>827.20001220703</ele>
        <time>2013-05-11T07:33:22Z</time>
      </trkpt>
      <trkpt lat="44.4552" lon="5.38611">
        <ele>827.79998779297</ele>
        <time>2013-05-11T07:33:23Z</time>
      </trkpt>
      <trkpt lat="44.4552" lon="5.38613">
        <ele>828.20001220703</ele>
        <time>2013-05-11T07:33:25Z</time>
      </trkpt>
      <trkpt lat="44.45515" lon="5.38629">
        <ele>829</ele>
        <time>2013-05-11T07:33:35Z</time>
      </trkpt>
      <trkpt lat="44.45516" lon="5.38635">
        <ele>829</ele>
        <time>2013-05-11T07:33:38Z</time>
      </trkpt>
      <trkpt lat="44.45515" lon="5.38651">
        <ele>829.59997558594</ele>
        <time>2013-05-11T07:33:45Z</time>
      </trkpt>
      <trkpt lat="44.45513" lon="5.38666">
        <ele>831.20001220703</ele>
        <time>2013-05-11T07:33:55Z</time>
      </trkpt>
      <trkpt lat="44.45514" lon="5.38671">
        <ele>832.20001220703</ele>
        <time>2013-05-11T07:33:59Z</time>
      </trkpt>
      <trkpt lat="44.45515" lon="5.38684">
        <ele>833.79998779297</ele>
        <time>2013-05-11T07:34:05Z</time>
      </trkpt>
      <trkpt lat="44.45514" lon="5.38691">
        <ele>835.79998779297</ele>
        <time>2013-05-11T07:34:10Z</time>
      </trkpt>
      <trkpt lat="44.45513" lon="5.38707">
        <ele>836.59997558594</ele>
        <time>2013-05-11T07:34:19Z</time>
      </trkpt>
      <trkpt lat="44.45513" lon="5.38711">
        <ele>837.59997558594</ele>
        <time>2013-05-11T07:34:21Z</time>
      </trkpt>
      <trkpt lat="44.45512" lon="5.38732">
        <ele>838</ele>
        <time>2013-05-11T07:34:32Z</time>
      </trkpt>
      <trkpt lat="44.45513" lon="5.38748">
        <ele>838.40002441406</ele>
        <time>2013-05-11T07:34:41Z</time>
      </trkpt>
      <trkpt lat="44.45514" lon="5.38751">
        <ele>839</ele>
        <time>2013-05-11T07:34:43Z</time>
      </trkpt>
      <trkpt lat="44.45517" lon="5.38766">
        <ele>840.79998779297</ele>
        <time>2013-05-11T07:34:50Z</time>
      </trkpt>
      <trkpt lat="44.4552" lon="5.3877">
        <ele>841.59997558594</ele>
        <time>2013-05-11T07:34:53Z</time>
      </trkpt>
      <trkpt lat="44.4552" lon="5.38772">
        <ele>842.59997558594</ele>
        <time>2013-05-11T07:34:54Z</time>
      </trkpt>
      <trkpt lat="44.45526" lon="5.38786">
        <ele>843.40002441406</ele>
        <time>2013-05-11T07:35:03Z</time>
      </trkpt>
      <trkpt lat="44.45529" lon="5.3879">
        <ele>844.59997558594</ele>
        <time>2013-05-11T07:35:07Z</time>
      </trkpt>
      <trkpt lat="44.45531" lon="5.38796">
        <ele>845.20001220703</ele>
        <time>2013-05-11T07:35:14Z</time>
      </trkpt>
      <trkpt lat="44.45533" lon="5.388">
        <ele>846.79998779297</ele>
        <time>2013-05-11T07:35:18Z</time>
      </trkpt>
      <trkpt lat="44.45538" lon="5.3881">
        <ele>848.59997558594</ele>
        <time>2013-05-11T07:35:26Z</time>
      </trkpt>
      <trkpt lat="44.45541" lon="5.38824">
        <ele>849.40002441406</ele>
        <time>2013-05-11T07:35:33Z</time>
      </trkpt>
      <trkpt lat="44.45542" lon="5.3883">
        <ele>850.20001220703</ele>
        <time>2013-05-11T07:35:36Z</time>
      </trkpt>
      <trkpt lat="44.45544" lon="5.38849">
        <ele>851</ele>
        <time>2013-05-11T07:35:47Z</time>
      </trkpt>
      <trkpt lat="44.45549" lon="5.38863">
        <ele>851</ele>
        <time>2013-05-11T07:35:54Z</time>
      </trkpt>
      <trkpt lat="44.45557" lon="5.38877">
        <ele>851.40002441406</ele>
        <time>2013-05-11T07:36:02Z</time>
      </trkpt>
      <trkpt lat="44.45561" lon="5.38882">
        <ele>852.40002441406</ele>
        <time>2013-05-11T07:36:05Z</time>
      </trkpt>
      <trkpt lat="44.45568" lon="5.3889">
        <ele>853.59997558594</ele>
        <time>2013-05-11T07:36:26Z</time>
      </trkpt>
      <trkpt lat="44.4557" lon="5.38892">
        <ele>855.20001220703</ele>
        <time>2013-05-11T07:36:30Z</time>
      </trkpt>
      <trkpt lat="44.45582" lon="5.38896">
        <ele>857.79998779297</ele>
        <time>2013-05-11T07:36:51Z</time>
      </trkpt>
      <trkpt lat="44.45589" lon="5.389">
        <ele>861.59997558594</ele>
        <time>2013-05-11T07:37:07Z</time>
      </trkpt>
      <trkpt lat="44.45594" lon="5.38905">
        <ele>861.59997558594</ele>
        <time>2013-05-11T07:37:14Z</time>
      </trkpt>
      <trkpt lat="44.456" lon="5.38913">
        <ele>864</ele>
        <time>2013-05-11T07:37:28Z</time>
      </trkpt>
      <trkpt lat="44.45604" lon="5.38921">
        <ele>865.79998779297</ele>
        <time>2013-05-11T07:37:39Z</time>
      </trkpt>
      <trkpt lat="44.45604" lon="5.38932">
        <ele>868.59997558594</ele>
        <time>2013-05-11T07:37:55Z</time>
      </trkpt>
      <trkpt lat="44.45608" lon="5.38942">
        <ele>870</ele>
        <time>2013-05-11T07:38:06Z</time>
      </trkpt>
      <trkpt lat="44.4561" lon="5.38945">
        <ele>870.40002441406</ele>
        <time>2013-05-11T07:38:09Z</time>
      </trkpt>
      <trkpt lat="44.45613" lon="5.38951">
        <ele>872.20001220703</ele>
        <time>2013-05-11T07:38:16Z</time>
      </trkpt>
      <trkpt lat="44.45615" lon="5.38969">
        <ele>874.79998779297</ele>
        <time>2013-05-11T07:38:40Z</time>
      </trkpt>
      <trkpt lat="44.45615" lon="5.38971">
        <ele>875.20001220703</ele>
        <time>2013-05-11T07:38:42Z</time>
      </trkpt>
      <trkpt lat="44.45615" lon="5.38981">
        <ele>876.79998779297</ele>
        <time>2013-05-11T07:38:53Z</time>
      </trkpt>
      <trkpt lat="44.45617" lon="5.38991">
        <ele>880.20001220703</ele>
        <time>2013-05-11T07:39:09Z</time>
      </trkpt>
      <trkpt lat="44.45618" lon="5.39006">
        <ele>880.79998779297</ele>
        <time>2013-05-11T07:39:20Z</time>
      </trkpt>
      <trkpt lat="44.45618" lon="5.39017">
        <ele>880.79998779297</ele>
        <time>2013-05-11T07:39:29Z</time>
      </trkpt>
      <trkpt lat="44.45618" lon="5.3903">
        <ele>880.79998779297</ele>
        <time>2013-05-11T07:39:38Z</time>
      </trkpt>
      <trkpt lat="44.45619" lon="5.39044">
        <ele>881.20001220703</ele>
        <time>2013-05-11T07:39:50Z</time>
      </trkpt>
      <trkpt lat="44.45621" lon="5.39055">
        <ele>882.79998779297</ele>
        <time>2013-05-11T07:40:00Z</time>
      </trkpt>
      <trkpt lat="44.45621" lon="5.39061">
        <ele>883.20001220703</ele>
        <time>2013-05-11T07:40:05Z</time>
      </trkpt>
      <trkpt lat="44.45623" lon="5.39071">
        <ele>885.40002441406</ele>
        <time>2013-05-11T07:40:15Z</time>
      </trkpt>
      <trkpt lat="44.45627" lon="5.39081">
        <ele>887.20001220703</ele>
        <time>2013-05-11T07:40:26Z</time>
      </trkpt>
      <trkpt lat="44.45628" lon="5.39108">
        <ele>887.20001220703</ele>
        <time>2013-05-11T07:40:33Z</time>
      </trkpt>
      <trkpt lat="44.45623" lon="5.39118">
        <ele>886.79998779297</ele>
        <time>2013-05-11T07:40:37Z</time>
      </trkpt>
      <trkpt lat="44.45622" lon="5.39122">
        <ele>886.20001220703</ele>
        <time>2013-05-11T07:40:39Z</time>
      </trkpt>
      <trkpt lat="44.4562" lon="5.39127">
        <ele>885</ele>
        <time>2013-05-11T07:40:44Z</time>
      </trkpt>
      <trkpt lat="44.45619" lon="5.39143">
        <ele>885</ele>
        <time>2013-05-11T07:41:33Z</time>
      </trkpt>
      <trkpt lat="44.45621" lon="5.39158">
        <ele>884.20001220703</ele>
        <time>2013-05-11T07:41:38Z</time>
      </trkpt>
      <trkpt lat="44.45621" lon="5.39162">
        <ele>883.79998779297</ele>
        <time>2013-05-11T07:41:39Z</time>
      </trkpt>
      <trkpt lat="44.45619" lon="5.39167">
        <ele>883.40002441406</ele>
        <time>2013-05-11T07:41:41Z</time>
      </trkpt>
      <trkpt lat="44.45615" lon="5.39175">
        <ele>882</ele>
        <time>2013-05-11T07:41:44Z</time>
      </trkpt>
      <trkpt lat="44.4562" lon="5.39193">
        <ele>880.59997558594</ele>
        <time>2013-05-11T07:42:09Z</time>
      </trkpt>
      <trkpt lat="44.45625" lon="5.39212">
        <ele>880.59997558594</ele>
        <time>2013-05-11T07:42:15Z</time>
      </trkpt>
      <trkpt lat="44.45631" lon="5.39217">
        <ele>880.20001220703</ele>
        <time>2013-05-11T07:42:25Z</time>
      </trkpt>
      <trkpt lat="44.45636" lon="5.39225">
        <ele>879.40002441406</ele>
        <time>2013-05-11T07:42:28Z</time>
      </trkpt>
      <trkpt lat="44.45637" lon="5.39232">
        <ele>878.59997558594</ele>
        <time>2013-05-11T07:42:31Z</time>
      </trkpt>
      <trkpt lat="44.45638" lon="5.39247">
        <ele>878.59997558594</ele>
        <time>2013-05-11T07:42:55Z</time>
      </trkpt>
      <trkpt lat="44.4564" lon="5.39253">
        <ele>878.20001220703</ele>
        <time>2013-05-11T07:43:09Z</time>
      </trkpt>
      <trkpt lat="44.4564" lon="5.39253">
        <ele>877.79998779297</ele>
        <time>2013-05-11T07:43:11Z</time>
      </trkpt>
      <trkpt lat="44.4564" lon="5.39254">
        <ele>876.40002441406</ele>
        <time>2013-05-11T07:43:13Z</time>
      </trkpt>
      <trkpt lat="44.45638" lon="5.39262">
        <ele>876.40002441406</ele>
        <time>2013-05-11T07:43:23Z</time>
      </trkpt>
      <trkpt lat="44.45629" lon="5.39271">
        <ele>876.40002441406</ele>
        <time>2013-05-11T07:43:47Z</time>
      </trkpt>
      <trkpt lat="44.4562" lon="5.39284">
        <ele>875.59997558594</ele>
        <time>2013-05-11T07:43:54Z</time>
      </trkpt>
      <trkpt lat="44.45619" lon="5.39288">
        <ele>875.20001220703</ele>
        <time>2013-05-11T07:43:55Z</time>
      </trkpt>
      <trkpt lat="44.45618" lon="5.39293">
        <ele>874.20001220703</ele>
        <time>2013-05-11T07:43:57Z</time>
      </trkpt>
      <trkpt lat="44.45619" lon="5.3931">
        <ele>872.20001220703</ele>
        <time>2013-05-11T07:44:21Z</time>
      </trkpt>
      <trkpt lat="44.4562" lon="5.39315">
        <ele>872.20001220703</ele>
        <time>2013-05-11T07:44:31Z</time>
      </trkpt>
      <trkpt lat="44.4562" lon="5.39322">
        <ele>872.79998779297</ele>
        <time>2013-05-11T07:44:40Z</time>
      </trkpt>
      <trkpt lat="44.45616" lon="5.39334">
        <ele>874.40002441406</ele>
        <time>2013-05-11T07:44:57Z</time>
      </trkpt>
      <trkpt lat="44.45616" lon="5.39341">
        <ele>874</ele>
        <time>2013-05-11T07:45:11Z</time>
      </trkpt>
      <trkpt lat="44.45605" lon="5.39357">
        <ele>871.59997558594</ele>
        <time>2013-05-11T07:45:23Z</time>
      </trkpt>
      <trkpt lat="44.45604" lon="5.39361">
        <ele>871.20001220703</ele>
        <time>2013-05-11T07:45:24Z</time>
      </trkpt>
      <trkpt lat="44.45603" lon="5.39371">
        <ele>869.79998779297</ele>
        <time>2013-05-11T07:45:27Z</time>
      </trkpt>
      <trkpt lat="44.45598" lon="5.39391">
        <ele>869.79998779297</ele>
        <time>2013-05-11T07:45:34Z</time>
      </trkpt>
      <trkpt lat="44.45599" lon="5.39412">
        <ele>869.79998779297</ele>
        <time>2013-05-11T07:45:41Z</time>
      </trkpt>
      <trkpt lat="44.45602" lon="5.3943">
        <ele>869.40002441406</ele>
        <time>2013-05-11T07:45:47Z</time>
      </trkpt>
      <trkpt lat="44.45603" lon="5.39431">
        <ele>869</ele>
        <time>2013-05-11T07:45:48Z</time>
      </trkpt>
      <trkpt lat="44.45599" lon="5.39436">
        <ele>867.59997558594</ele>
        <time>2013-05-11T07:45:53Z</time>
      </trkpt>
      <trkpt lat="44.45582" lon="5.39434">
        <ele>867.59997558594</ele>
        <time>2013-05-11T07:46:05Z</time>
      </trkpt>
      <trkpt lat="44.45565" lon="5.39438">
        <ele>867.20001220703</ele>
        <time>2013-05-11T07:46:11Z</time>
      </trkpt>
      <trkpt lat="44.45562" lon="5.3944">
        <ele>866.79998779297</ele>
        <time>2013-05-11T07:46:12Z</time>
      </trkpt>
      <trkpt lat="44.45557" lon="5.39447">
        <ele>866.40002441406</ele>
        <time>2013-05-11T07:46:14Z</time>
      </trkpt>
      <trkpt lat="44.45551" lon="5.39453">
        <ele>865.59997558594</ele>
        <time>2013-05-11T07:46:16Z</time>
      </trkpt>
      <trkpt lat="44.45549" lon="5.39455">
        <ele>865.59997558594</ele>
        <time>2013-05-11T07:46:17Z</time>
      </trkpt>
      <trkpt lat="44.45545" lon="5.39463">
        <ele>865.59997558594</ele>
        <time>2013-05-11T07:46:21Z</time>
      </trkpt>
      <trkpt lat="44.45539" lon="5.39478">
        <ele>865.59997558594</ele>
        <time>2013-05-11T07:46:27Z</time>
      </trkpt>
      <trkpt lat="44.45533" lon="5.39497">
        <ele>865.59997558594</ele>
        <time>2013-05-11T07:46:35Z</time>
      </trkpt>
      <trkpt lat="44.45527" lon="5.395">
        <ele>865.59997558594</ele>
        <time>2013-05-11T07:46:38Z</time>
      </trkpt>
      <trkpt lat="44.4552" lon="5.39501">
        <ele>865</ele>
        <time>2013-05-11T07:46:40Z</time>
      </trkpt>
      <trkpt lat="44.45515" lon="5.39502">
        <ele>864.59997558594</ele>
        <time>2013-05-11T07:46:41Z</time>
      </trkpt>
      <trkpt lat="44.45509" lon="5.39507">
        <ele>864.59997558594</ele>
        <time>2013-05-11T07:46:42Z</time>
      </trkpt>
      <trkpt lat="44.45503" lon="5.39511">
        <ele>864.20001220703</ele>
        <time>2013-05-11T07:46:43Z</time>
      </trkpt>
      <trkpt lat="44.45498" lon="5.39513">
        <ele>863.79998779297</ele>
        <time>2013-05-11T07:46:44Z</time>
      </trkpt>
      <trkpt lat="44.45487" lon="5.39515">
        <ele>862</ele>
        <time>2013-05-11T07:46:46Z</time>
      </trkpt>
      <trkpt lat="44.45475" lon="5.39518">
        <ele>861.40002441406</ele>
        <time>2013-05-11T07:46:48Z</time>
      </trkpt>
      <trkpt lat="44.45471" lon="5.39521">
        <ele>861</ele>
        <time>2013-05-11T07:46:49Z</time>
      </trkpt>
      <trkpt lat="44.45469" lon="5.39525">
        <ele>860</ele>
        <time>2013-05-11T07:46:50Z</time>
      </trkpt>
      <trkpt lat="44.45457" lon="5.39532">
        <ele>859.20001220703</ele>
        <time>2013-05-11T07:46:53Z</time>
      </trkpt>
      <trkpt lat="44.45448" lon="5.39538">
        <ele>858</ele>
        <time>2013-05-11T07:46:55Z</time>
      </trkpt>
      <trkpt lat="44.45444" lon="5.39541">
        <ele>857.40002441406</ele>
        <time>2013-05-11T07:46:56Z</time>
      </trkpt>
      <trkpt lat="44.45439" lon="5.39546">
        <ele>856.79998779297</ele>
        <time>2013-05-11T07:46:58Z</time>
      </trkpt>
      <trkpt lat="44.45432" lon="5.3955">
        <ele>854</ele>
        <time>2013-05-11T07:47:01Z</time>
      </trkpt>
      <trkpt lat="44.45428" lon="5.3955">
        <ele>853.20001220703</ele>
        <time>2013-05-11T07:47:03Z</time>
      </trkpt>
      <trkpt lat="44.45419" lon="5.39553">
        <ele>851.59997558594</ele>
        <time>2013-05-11T07:47:05Z</time>
      </trkpt>
      <trkpt lat="44.45405" lon="5.39558">
        <ele>848.40002441406</ele>
        <time>2013-05-11T07:47:08Z</time>
      </trkpt>
      <trkpt lat="44.45402" lon="5.39562">
        <ele>846</ele>
        <time>2013-05-11T07:47:10Z</time>
      </trkpt>
      <trkpt lat="44.45399" lon="5.3957">
        <ele>843.40002441406</ele>
        <time>2013-05-11T07:47:13Z</time>
      </trkpt>
      <trkpt lat="44.45388" lon="5.39573">
        <ele>840.79998779297</ele>
        <time>2013-05-11T07:47:18Z</time>
      </trkpt>
      <trkpt lat="44.4538" lon="5.39569">
        <ele>839.59997558594</ele>
        <time>2013-05-11T07:47:21Z</time>
      </trkpt>
      <trkpt lat="44.45377" lon="5.39569">
        <ele>839.59997558594</ele>
        <time>2013-05-11T07:47:22Z</time>
      </trkpt>
      <trkpt lat="44.45374" lon="5.39571">
        <ele>838.59997558594</ele>
        <time>2013-05-11T07:47:24Z</time>
      </trkpt>
      <trkpt lat="44.45369" lon="5.39572">
        <ele>837.20001220703</ele>
        <time>2013-05-11T07:47:27Z</time>
      </trkpt>
      <trkpt lat="44.45357" lon="5.39567">
        <ele>837.20001220703</ele>
        <time>2013-05-11T07:47:32Z</time>
      </trkpt>
      <trkpt lat="44.45345" lon="5.39558">
        <ele>837.20001220703</ele>
        <time>2013-05-11T07:47:36Z</time>
      </trkpt>
      <trkpt lat="44.45332" lon="5.39553">
        <ele>837.20001220703</ele>
        <time>2013-05-11T07:47:42Z</time>
      </trkpt>
      <trkpt lat="44.45325" lon="5.39531">
        <ele>836.79998779297</ele>
        <time>2013-05-11T07:47:46Z</time>
      </trkpt>
      <trkpt lat="44.45324" lon="5.39523">
        <ele>836.40002441406</ele>
        <time>2013-05-11T07:47:47Z</time>
      </trkpt>
      <trkpt lat="44.45321" lon="5.39516">
        <ele>836</ele>
        <time>2013-05-11T07:47:48Z</time>
      </trkpt>
      <trkpt lat="44.45317" lon="5.39508">
        <ele>835.59997558594</ele>
        <time>2013-05-11T07:47:49Z</time>
      </trkpt>
      <trkpt lat="44.45313" lon="5.39499">
        <ele>835.20001220703</ele>
        <time>2013-05-11T07:47:50Z</time>
      </trkpt>
      <trkpt lat="44.45305" lon="5.39494">
        <ele>834.79998779297</ele>
        <time>2013-05-11T07:47:52Z</time>
      </trkpt>
      <trkpt lat="44.453" lon="5.39493">
        <ele>834.40002441406</ele>
        <time>2013-05-11T07:47:53Z</time>
      </trkpt>
      <trkpt lat="44.4529" lon="5.39496">
        <ele>834</ele>
        <time>2013-05-11T07:47:54Z</time>
      </trkpt>
      <trkpt lat="44.45277" lon="5.39498">
        <ele>832.40002441406</ele>
        <time>2013-05-11T07:47:57Z</time>
      </trkpt>
      <trkpt lat="44.45269" lon="5.395">
        <ele>831.20001220703</ele>
        <time>2013-05-11T07:47:59Z</time>
      </trkpt>
      <trkpt lat="44.45259" lon="5.39507">
        <ele>829.59997558594</ele>
        <time>2013-05-11T07:48:01Z</time>
      </trkpt>
      <trkpt lat="44.45256" lon="5.39512">
        <ele>828.79998779297</ele>
        <time>2013-05-11T07:48:02Z</time>
      </trkpt>
      <trkpt lat="44.4525" lon="5.39522">
        <ele>827</ele>
        <time>2013-05-11T07:48:04Z</time>
      </trkpt>
      <trkpt lat="44.45243" lon="5.39531">
        <ele>825</ele>
        <time>2013-05-11T07:48:07Z</time>
      </trkpt>
      <trkpt lat="44.45242" lon="5.39526">
        <ele>824.59997558594</ele>
        <time>2013-05-11T07:48:08Z</time>
      </trkpt>
      <trkpt lat="44.4524" lon="5.39521">
        <ele>824.20001220703</ele>
        <time>2013-05-11T07:48:10Z</time>
      </trkpt>
      <trkpt lat="44.45237" lon="5.39515">
        <ele>823.79998779297</ele>
        <time>2013-05-11T07:48:12Z</time>
      </trkpt>
      <trkpt lat="44.45229" lon="5.39523">
        <ele>821.59997558594</ele>
        <time>2013-05-11T07:48:15Z</time>
      </trkpt>
      <trkpt lat="44.45223" lon="5.39531">
        <ele>820.40002441406</ele>
        <time>2013-05-11T07:48:17Z</time>
      </trkpt>
      <trkpt lat="44.45214" lon="5.39548">
        <ele>819.59997558594</ele>
        <time>2013-05-11T07:48:20Z</time>
      </trkpt>
      <trkpt lat="44.45211" lon="5.39554">
        <ele>819</ele>
        <time>2013-05-11T07:48:21Z</time>
      </trkpt>
      <trkpt lat="44.45209" lon="5.39562">
        <ele>818.20001220703</ele>
        <time>2013-05-11T07:48:22Z</time>
      </trkpt>
      <trkpt lat="44.45203" lon="5.3958">
        <ele>817.40002441406</ele>
        <time>2013-05-11T07:48:24Z</time>
      </trkpt>
      <trkpt lat="44.45197" lon="5.39598">
        <ele>815.79998779297</ele>
        <time>2013-05-11T07:48:26Z</time>
      </trkpt>
      <trkpt lat="44.45194" lon="5.39604">
        <ele>814.79998779297</ele>
        <time>2013-05-11T07:48:27Z</time>
      </trkpt>
      <trkpt lat="44.45187" lon="5.39615">
        <ele>813</ele>
        <time>2013-05-11T07:48:30Z</time>
      </trkpt>
      <trkpt lat="44.45183" lon="5.3962">
        <ele>812.20001220703</ele>
        <time>2013-05-11T07:48:32Z</time>
      </trkpt>
      <trkpt lat="44.45174" lon="5.3963">
        <ele>811.40002441406</ele>
        <time>2013-05-11T07:48:35Z</time>
      </trkpt>
      <trkpt lat="44.45171" lon="5.3964">
        <ele>811.40002441406</ele>
        <time>2013-05-11T07:48:37Z</time>
      </trkpt>
      <trkpt lat="44.45169" lon="5.39645">
        <ele>810.79998779297</ele>
        <time>2013-05-11T07:48:38Z</time>
      </trkpt>
      <trkpt lat="44.45166" lon="5.39655">
        <ele>809.59997558594</ele>
        <time>2013-05-11T07:48:40Z</time>
      </trkpt>
      <trkpt lat="44.45163" lon="5.39667">
        <ele>808.59997558594</ele>
        <time>2013-05-11T07:48:42Z</time>
      </trkpt>
      <trkpt lat="44.45159" lon="5.39671">
        <ele>808</ele>
        <time>2013-05-11T07:48:43Z</time>
      </trkpt>
      <trkpt lat="44.45145" lon="5.39687">
        <ele>806.79998779297</ele>
        <time>2013-05-11T07:48:48Z</time>
      </trkpt>
      <trkpt lat="44.45138" lon="5.39697">
        <ele>806.40002441406</ele>
        <time>2013-05-11T07:48:51Z</time>
      </trkpt>
      <trkpt lat="44.45135" lon="5.397">
        <ele>806</ele>
        <time>2013-05-11T07:48:52Z</time>
      </trkpt>
      <trkpt lat="44.45129" lon="5.39706">
        <ele>805.20001220703</ele>
        <time>2013-05-11T07:48:54Z</time>
      </trkpt>
      <trkpt lat="44.45121" lon="5.39712">
        <ele>804.79998779297</ele>
        <time>2013-05-11T07:48:56Z</time>
      </trkpt>
      <trkpt lat="44.45113" lon="5.39719">
        <ele>804.20001220703</ele>
        <time>2013-05-11T07:48:58Z</time>
      </trkpt>
      <trkpt lat="44.45108" lon="5.39723">
        <ele>803.79998779297</ele>
        <time>2013-05-11T07:48:59Z</time>
      </trkpt>
      <trkpt lat="44.45098" lon="5.39731">
        <ele>803.40002441406</ele>
        <time>2013-05-11T07:49:01Z</time>
      </trkpt>
      <trkpt lat="44.45086" lon="5.3974">
        <ele>801.79998779297</ele>
        <time>2013-05-11T07:49:03Z</time>
      </trkpt>
      <trkpt lat="44.45079" lon="5.39744">
        <ele>801.20001220703</ele>
        <time>2013-05-11T07:49:04Z</time>
      </trkpt>
      <trkpt lat="44.4506" lon="5.39755">
        <ele>798.59997558594</ele>
        <time>2013-05-11T07:49:07Z</time>
      </trkpt>
      <trkpt lat="44.45055" lon="5.3976">
        <ele>797.59997558594</ele>
        <time>2013-05-11T07:49:08Z</time>
      </trkpt>
      <trkpt lat="44.4505" lon="5.39767">
        <ele>796.79998779297</ele>
        <time>2013-05-11T07:49:09Z</time>
      </trkpt>
      <trkpt lat="44.45045" lon="5.39775">
        <ele>796</ele>
        <time>2013-05-11T07:49:10Z</time>
      </trkpt>
      <trkpt lat="44.45041" lon="5.39782">
        <ele>796</ele>
        <time>2013-05-11T07:49:11Z</time>
      </trkpt>
      <trkpt lat="44.45039" lon="5.39789">
        <ele>794.40002441406</ele>
        <time>2013-05-11T07:49:12Z</time>
      </trkpt>
      <trkpt lat="44.45036" lon="5.39795">
        <ele>793.59997558594</ele>
        <time>2013-05-11T07:49:13Z</time>
      </trkpt>
      <trkpt lat="44.45036" lon="5.39804">
        <ele>793</ele>
        <time>2013-05-11T07:49:14Z</time>
      </trkpt>
      <trkpt lat="44.45033" lon="5.39813">
        <ele>792.40002441406</ele>
        <time>2013-05-11T07:49:15Z</time>
      </trkpt>
      <trkpt lat="44.45026" lon="5.39829">
        <ele>791.20001220703</ele>
        <time>2013-05-11T07:49:17Z</time>
      </trkpt>
      <trkpt lat="44.4502" lon="5.39839">
        <ele>790.59997558594</ele>
        <time>2013-05-11T07:49:18Z</time>
      </trkpt>
      <trkpt lat="44.45015" lon="5.39846">
        <ele>789.79998779297</ele>
        <time>2013-05-11T07:49:19Z</time>
      </trkpt>
      <trkpt lat="44.45009" lon="5.39853">
        <ele>789.20001220703</ele>
        <time>2013-05-11T07:49:20Z</time>
      </trkpt>
      <trkpt lat="44.44998" lon="5.39868">
        <ele>788</ele>
        <time>2013-05-11T07:49:22Z</time>
      </trkpt>
      <trkpt lat="44.44994" lon="5.39877">
        <ele>787.59997558594</ele>
        <time>2013-05-11T07:49:23Z</time>
      </trkpt>
      <trkpt lat="44.44991" lon="5.39884">
        <ele>787</ele>
        <time>2013-05-11T07:49:24Z</time>
      </trkpt>
      <trkpt lat="44.44987" lon="5.39894">
        <ele>786.40002441406</ele>
        <time>2013-05-11T07:49:25Z</time>
      </trkpt>
      <trkpt lat="44.44986" lon="5.39911">
        <ele>785.20001220703</ele>
        <time>2013-05-11T07:49:27Z</time>
      </trkpt>
      <trkpt lat="44.44988" lon="5.3992">
        <ele>784.59997558594</ele>
        <time>2013-05-11T07:49:28Z</time>
      </trkpt>
      <trkpt lat="44.4499" lon="5.3993">
        <ele>784</ele>
        <time>2013-05-11T07:49:29Z</time>
      </trkpt>
      <trkpt lat="44.44992" lon="5.39937">
        <ele>783.40002441406</ele>
        <time>2013-05-11T07:49:30Z</time>
      </trkpt>
      <trkpt lat="44.44993" lon="5.39946">
        <ele>782.79998779297</ele>
        <time>2013-05-11T07:49:31Z</time>
      </trkpt>
      <trkpt lat="44.44993" lon="5.39955">
        <ele>782.40002441406</ele>
        <time>2013-05-11T07:49:32Z</time>
      </trkpt>
      <trkpt lat="44.44992" lon="5.39964">
        <ele>781.79998779297</ele>
        <time>2013-05-11T07:49:33Z</time>
      </trkpt>
      <trkpt lat="44.4499" lon="5.39972">
        <ele>781.79998779297</ele>
        <time>2013-05-11T07:49:34Z</time>
      </trkpt>
      <trkpt lat="44.44985" lon="5.39985">
        <ele>781.79998779297</ele>
        <time>2013-05-11T07:49:36Z</time>
      </trkpt>
      <trkpt lat="44.44982" lon="5.39995">
        <ele>782.20001220703</ele>
        <time>2013-05-11T07:49:38Z</time>
      </trkpt>
      <trkpt lat="44.44981" lon="5.40004">
        <ele>783.20001220703</ele>
        <time>2013-05-11T07:49:40Z</time>
      </trkpt>
      <trkpt lat="44.44982" lon="5.40012">
        <ele>784</ele>
        <time>2013-05-11T07:49:42Z</time>
      </trkpt>
      <trkpt lat="44.44995" lon="5.40029">
        <ele>784</ele>
        <time>2013-05-11T07:49:48Z</time>
      </trkpt>
      <trkpt lat="44.45004" lon="5.40034">
        <ele>784</ele>
        <time>2013-05-11T07:49:50Z</time>
      </trkpt>
      <trkpt lat="44.45015" lon="5.4004">
        <ele>784</ele>
        <time>2013-05-11T07:49:52Z</time>
      </trkpt>
      <trkpt lat="44.45033" lon="5.40055">
        <ele>784</ele>
        <time>2013-05-11T07:49:56Z</time>
      </trkpt>
      <trkpt lat="44.45026" lon="5.40064">
        <ele>782.79998779297</ele>
        <time>2013-05-11T07:49:58Z</time>
      </trkpt>
      <trkpt lat="44.45017" lon="5.40073">
        <ele>782</ele>
        <time>2013-05-11T07:50:00Z</time>
      </trkpt>
      <trkpt lat="44.45003" lon="5.40078">
        <ele>782</ele>
        <time>2013-05-11T07:50:03Z</time>
      </trkpt>
      <trkpt lat="44.44997" lon="5.40077">
        <ele>781.59997558594</ele>
        <time>2013-05-11T07:50:04Z</time>
      </trkpt>
      <trkpt lat="44.44987" lon="5.40078">
        <ele>780.59997558594</ele>
        <time>2013-05-11T07:50:06Z</time>
      </trkpt>
      <trkpt lat="44.44983" lon="5.4008">
        <ele>780.20001220703</ele>
        <time>2013-05-11T07:50:07Z</time>
      </trkpt>
      <trkpt lat="44.44979" lon="5.40082">
        <ele>779.79998779297</ele>
        <time>2013-05-11T07:50:08Z</time>
      </trkpt>
      <trkpt lat="44.44972" lon="5.4009">
        <ele>779.40002441406</ele>
        <time>2013-05-11T07:50:10Z</time>
      </trkpt>
      <trkpt lat="44.4497" lon="5.40096">
        <ele>779</ele>
        <time>2013-05-11T07:50:11Z</time>
      </trkpt>
      <trkpt lat="44.44967" lon="5.40103">
        <ele>778.59997558594</ele>
        <time>2013-05-11T07:50:12Z</time>
      </trkpt>
      <trkpt lat="44.4496" lon="5.40115">
        <ele>777.79998779297</ele>
        <time>2013-05-11T07:50:14Z</time>
      </trkpt>
      <trkpt lat="44.44956" lon="5.40119">
        <ele>777.20001220703</ele>
        <time>2013-05-11T07:50:15Z</time>
      </trkpt>
      <trkpt lat="44.44944" lon="5.4012">
        <ele>776</ele>
        <time>2013-05-11T07:50:17Z</time>
      </trkpt>
      <trkpt lat="44.44937" lon="5.40118">
        <ele>775.40002441406</ele>
        <time>2013-05-11T07:50:18Z</time>
      </trkpt>
      <trkpt lat="44.44924" lon="5.40112">
        <ele>773.59997558594</ele>
        <time>2013-05-11T07:50:20Z</time>
      </trkpt>
      <trkpt lat="44.44914" lon="5.40114">
        <ele>771.79998779297</ele>
        <time>2013-05-11T07:50:22Z</time>
      </trkpt>
      <trkpt lat="44.44909" lon="5.40123">
        <ele>769.59997558594</ele>
        <time>2013-05-11T07:50:24Z</time>
      </trkpt>
      <trkpt lat="44.4491" lon="5.40131">
        <ele>768.79998779297</ele>
        <time>2013-05-11T07:50:25Z</time>
      </trkpt>
      <trkpt lat="44.4491" lon="5.40137">
        <ele>768.79998779297</ele>
        <time>2013-05-11T07:50:26Z</time>
      </trkpt>
      <trkpt lat="44.44912" lon="5.40141">
        <ele>766.79998779297</ele>
        <time>2013-05-11T07:50:27Z</time>
      </trkpt>
      <trkpt lat="44.44915" lon="5.40151">
        <ele>765</ele>
        <time>2013-05-11T07:50:29Z</time>
      </trkpt>
      <trkpt lat="44.44909" lon="5.40183">
        <ele>764.59997558594</ele>
        <time>2013-05-11T07:50:34Z</time>
      </trkpt>
      <trkpt lat="44.44894" lon="5.40197">
        <ele>763.59997558594</ele>
        <time>2013-05-11T07:50:37Z</time>
      </trkpt>
      <trkpt lat="44.44889" lon="5.40201">
        <ele>762.40002441406</ele>
        <time>2013-05-11T07:50:38Z</time>
      </trkpt>
      <trkpt lat="44.44875" lon="5.40206">
        <ele>760.40002441406</ele>
        <time>2013-05-11T07:50:40Z</time>
      </trkpt>
      <trkpt lat="44.44859" lon="5.40219">
        <ele>759.40002441406</ele>
        <time>2013-05-11T07:50:42Z</time>
      </trkpt>
      <trkpt lat="44.44851" lon="5.40227">
        <ele>757</ele>
        <time>2013-05-11T07:50:43Z</time>
      </trkpt>
      <trkpt lat="44.44837" lon="5.40237">
        <ele>754.40002441406</ele>
        <time>2013-05-11T07:50:45Z</time>
      </trkpt>
      <trkpt lat="44.44826" lon="5.40241">
        <ele>753.20001220703</ele>
        <time>2013-05-11T07:50:47Z</time>
      </trkpt>
      <trkpt lat="44.44825" lon="5.4025">
        <ele>746.79998779297</ele>
        <time>2013-05-11T07:51:10Z</time>
      </trkpt>
      <trkpt lat="44.44825" lon="5.40263">
        <ele>746.79998779297</ele>
        <time>2013-05-11T07:51:14Z</time>
      </trkpt>
      <trkpt lat="44.44823" lon="5.40271">
        <ele>747.20001220703</ele>
        <time>2013-05-11T07:51:17Z</time>
      </trkpt>
      <trkpt lat="44.4482" lon="5.40282">
        <ele>749.20001220703</ele>
        <time>2013-05-11T07:51:21Z</time>
      </trkpt>
      <trkpt lat="44.4482" lon="5.40288">
        <ele>749.20001220703</ele>
        <time>2013-05-11T07:51:23Z</time>
      </trkpt>
      <trkpt lat="44.44818" lon="5.40293">
        <ele>749.20001220703</ele>
        <time>2013-05-11T07:51:25Z</time>
      </trkpt>
      <trkpt lat="44.44817" lon="5.40302">
        <ele>749.20001220703</ele>
        <time>2013-05-11T07:51:28Z</time>
      </trkpt>
      <trkpt lat="44.44815" lon="5.40313">
        <ele>750.40002441406</ele>
        <time>2013-05-11T07:51:32Z</time>
      </trkpt>
      <trkpt lat="44.44813" lon="5.40337">
        <ele>751.20001220703</ele>
        <time>2013-05-11T07:51:41Z</time>
      </trkpt>
      <trkpt lat="44.44812" lon="5.40343">
        <ele>751.20001220703</ele>
        <time>2013-05-11T07:51:43Z</time>
      </trkpt>
      <trkpt lat="44.44811" lon="5.40353">
        <ele>751.20001220703</ele>
        <time>2013-05-11T07:51:47Z</time>
      </trkpt>
      <trkpt lat="44.44809" lon="5.40361">
        <ele>752.20001220703</ele>
        <time>2013-05-11T07:51:50Z</time>
      </trkpt>
      <trkpt lat="44.44806" lon="5.4038">
        <ele>753.79998779297</ele>
        <time>2013-05-11T07:51:57Z</time>
      </trkpt>
      <trkpt lat="44.44805" lon="5.40391">
        <ele>755.59997558594</ele>
        <time>2013-05-11T07:52:01Z</time>
      </trkpt>
      <trkpt lat="44.44805" lon="5.4041">
        <ele>755.59997558594</ele>
        <time>2013-05-11T07:52:08Z</time>
      </trkpt>
      <trkpt lat="44.44806" lon="5.40437">
        <ele>755.59997558594</ele>
        <time>2013-05-11T07:52:16Z</time>
      </trkpt>
      <trkpt lat="44.44806" lon="5.40441">
        <ele>756.40002441406</ele>
        <time>2013-05-11T07:52:18Z</time>
      </trkpt>
      <trkpt lat="44.44804" lon="5.4045">
        <ele>757.59997558594</ele>
        <time>2013-05-11T07:52:22Z</time>
      </trkpt>
      <trkpt lat="44.44801" lon="5.40462">
        <ele>758.20001220703</ele>
        <time>2013-05-11T07:52:27Z</time>
      </trkpt>
      <trkpt lat="44.44799" lon="5.40464">
        <ele>758.59997558594</ele>
        <time>2013-05-11T07:52:28Z</time>
      </trkpt>
      <trkpt lat="44.44797" lon="5.4047">
        <ele>759.79998779297</ele>
        <time>2013-05-11T07:52:31Z</time>
      </trkpt>
      <trkpt lat="44.44792" lon="5.40482">
        <ele>759.79998779297</ele>
        <time>2013-05-11T07:52:36Z</time>
      </trkpt>
      <trkpt lat="44.44788" lon="5.40496">
        <ele>760.20001220703</ele>
        <time>2013-05-11T07:52:42Z</time>
      </trkpt>
      <trkpt lat="44.44788" lon="5.40503">
        <ele>761.59997558594</ele>
        <time>2013-05-11T07:52:45Z</time>
      </trkpt>
      <trkpt lat="44.44787" lon="5.40519">
        <ele>762</ele>
        <time>2013-05-11T07:52:51Z</time>
      </trkpt>
      <trkpt lat="44.44787" lon="5.40521">
        <ele>762.40002441406</ele>
        <time>2013-05-11T07:52:52Z</time>
      </trkpt>
      <trkpt lat="44.44777" lon="5.40535">
        <ele>764.59997558594</ele>
        <time>2013-05-11T07:53:03Z</time>
      </trkpt>
      <trkpt lat="44.44773" lon="5.40542">
        <ele>765.40002441406</ele>
        <time>2013-05-11T07:53:06Z</time>
      </trkpt>
      <trkpt lat="44.44771" lon="5.40555">
        <ele>766.40002441406</ele>
        <time>2013-05-11T07:53:11Z</time>
      </trkpt>
      <trkpt lat="44.4477" lon="5.40561">
        <ele>766.79998779297</ele>
        <time>2013-05-11T07:53:14Z</time>
      </trkpt>
      <trkpt lat="44.4477" lon="5.40563">
        <ele>767.20001220703</ele>
        <time>2013-05-11T07:53:15Z</time>
      </trkpt>
      <trkpt lat="44.44769" lon="5.40571">
        <ele>768</ele>
        <time>2013-05-11T07:53:18Z</time>
      </trkpt>
      <trkpt lat="44.44769" lon="5.40581">
        <ele>768.40002441406</ele>
        <time>2013-05-11T07:53:23Z</time>
      </trkpt>
      <trkpt lat="44.44769" lon="5.40591">
        <ele>769.20001220703</ele>
        <time>2013-05-11T07:53:28Z</time>
      </trkpt>
      <trkpt lat="44.44771" lon="5.40615">
        <ele>770.59997558594</ele>
        <time>2013-05-11T07:53:37Z</time>
      </trkpt>
      <trkpt lat="44.44771" lon="5.40622">
        <ele>771</ele>
        <time>2013-05-11T07:53:40Z</time>
      </trkpt>
      <trkpt lat="44.4477" lon="5.40629">
        <ele>772</ele>
        <time>2013-05-11T07:53:42Z</time>
      </trkpt>
      <trkpt lat="44.44769" lon="5.40631">
        <ele>772.40002441406</ele>
        <time>2013-05-11T07:53:43Z</time>
      </trkpt>
      <trkpt lat="44.44762" lon="5.40657">
        <ele>772.79998779297</ele>
        <time>2013-05-11T07:53:53Z</time>
      </trkpt>
      <trkpt lat="44.44756" lon="5.40668">
        <ele>772.79998779297</ele>
        <time>2013-05-11T07:54:00Z</time>
      </trkpt>
      <trkpt lat="44.44751" lon="5.40676">
        <ele>773.20001220703</ele>
        <time>2013-05-11T07:54:04Z</time>
      </trkpt>
      <trkpt lat="44.44749" lon="5.40676">
        <ele>773.79998779297</ele>
        <time>2013-05-11T07:54:05Z</time>
      </trkpt>
      <trkpt lat="44.44745" lon="5.40681">
        <ele>775.20001220703</ele>
        <time>2013-05-11T07:54:09Z</time>
      </trkpt>
      <trkpt lat="44.44738" lon="5.40693">
        <ele>775.20001220703</ele>
        <time>2013-05-11T07:54:15Z</time>
      </trkpt>
      <trkpt lat="44.44728" lon="5.40707">
        <ele>776</ele>
        <time>2013-05-11T07:54:20Z</time>
      </trkpt>
      <trkpt lat="44.44724" lon="5.40711">
        <ele>776.79998779297</ele>
        <time>2013-05-11T07:54:22Z</time>
      </trkpt>
      <trkpt lat="44.44708" lon="5.40723">
        <ele>777.20001220703</ele>
        <time>2013-05-11T07:54:30Z</time>
      </trkpt>
      <trkpt lat="44.44688" lon="5.40731">
        <ele>777.20001220703</ele>
        <time>2013-05-11T07:54:38Z</time>
      </trkpt>
      <trkpt lat="44.44677" lon="5.40734">
        <ele>777.59997558594</ele>
        <time>2013-05-11T07:54:43Z</time>
      </trkpt>
      <trkpt lat="44.4467" lon="5.40741">
        <ele>779.20001220703</ele>
        <time>2013-05-11T07:54:47Z</time>
      </trkpt>
      <trkpt lat="44.44664" lon="5.40762">
        <ele>779.20001220703</ele>
        <time>2013-05-11T07:54:53Z</time>
      </trkpt>
      <trkpt lat="44.44664" lon="5.40773">
        <ele>779.20001220703</ele>
        <time>2013-05-11T07:54:55Z</time>
      </trkpt>
      <trkpt lat="44.44675" lon="5.40799">
        <ele>779.20001220703</ele>
        <time>2013-05-11T07:55:01Z</time>
      </trkpt>
      <trkpt lat="44.4469" lon="5.40819">
        <ele>779.20001220703</ele>
        <time>2013-05-11T07:55:07Z</time>
      </trkpt>
      <trkpt lat="44.44705" lon="5.40835">
        <ele>779.79998779297</ele>
        <time>2013-05-11T07:55:14Z</time>
      </trkpt>
      <trkpt lat="44.44709" lon="5.40841">
        <ele>781</ele>
        <time>2013-05-11T07:55:17Z</time>
      </trkpt>
      <trkpt lat="44.44712" lon="5.40843">
        <ele>781.40002441406</ele>
        <time>2013-05-11T07:55:18Z</time>
      </trkpt>
      <trkpt lat="44.44729" lon="5.4085">
        <ele>781.79998779297</ele>
        <time>2013-05-11T07:55:25Z</time>
      </trkpt>
      <trkpt lat="44.44732" lon="5.4085">
        <ele>782.20001220703</ele>
        <time>2013-05-11T07:55:26Z</time>
      </trkpt>
      <trkpt lat="44.44736" lon="5.40852">
        <ele>782.59997558594</ele>
        <time>2013-05-11T07:55:28Z</time>
      </trkpt>
      <trkpt lat="44.44747" lon="5.40854">
        <ele>783.40002441406</ele>
        <time>2013-05-11T07:55:33Z</time>
      </trkpt>
      <trkpt lat="44.44753" lon="5.40855">
        <ele>783.79998779297</ele>
        <time>2013-05-11T07:55:35Z</time>
      </trkpt>
      <trkpt lat="44.44762" lon="5.40861">
        <ele>785</ele>
        <time>2013-05-11T07:55:39Z</time>
      </trkpt>
      <trkpt lat="44.44784" lon="5.40879">
        <ele>785.40002441406</ele>
        <time>2013-05-11T07:55:48Z</time>
      </trkpt>
      <trkpt lat="44.44788" lon="5.40887">
        <ele>785.40002441406</ele>
        <time>2013-05-11T07:55:50Z</time>
      </trkpt>
      <trkpt lat="44.44792" lon="5.40897">
        <ele>785.40002441406</ele>
        <time>2013-05-11T07:55:53Z</time>
      </trkpt>
      <trkpt lat="44.44797" lon="5.4091">
        <ele>785.79998779297</ele>
        <time>2013-05-11T07:55:57Z</time>
      </trkpt>
      <trkpt lat="44.44801" lon="5.40921">
        <ele>787</ele>
        <time>2013-05-11T07:56:00Z</time>
      </trkpt>
      <trkpt lat="44.44812" lon="5.40948">
        <ele>787.40002441406</ele>
        <time>2013-05-11T07:56:08Z</time>
      </trkpt>
      <trkpt lat="44.44828" lon="5.40976">
        <ele>787.40002441406</ele>
        <time>2013-05-11T07:56:17Z</time>
      </trkpt>
      <trkpt lat="44.4484" lon="5.4099">
        <ele>787.79998779297</ele>
        <time>2013-05-11T07:56:23Z</time>
      </trkpt>
      <trkpt lat="44.44855" lon="5.41001">
        <ele>789.59997558594</ele>
        <time>2013-05-11T07:56:28Z</time>
      </trkpt>
      <trkpt lat="44.44863" lon="5.41005">
        <ele>789.59997558594</ele>
        <time>2013-05-11T07:56:30Z</time>
      </trkpt>
      <trkpt lat="44.44886" lon="5.41025">
        <ele>789.59997558594</ele>
        <time>2013-05-11T07:56:35Z</time>
      </trkpt>
      <trkpt lat="44.44889" lon="5.41032">
        <ele>788.40002441406</ele>
        <time>2013-05-11T07:56:36Z</time>
      </trkpt>
      <trkpt lat="44.44891" lon="5.41039">
        <ele>787.79998779297</ele>
        <time>2013-05-11T07:56:37Z</time>
      </trkpt>
      <trkpt lat="44.44893" lon="5.41045">
        <ele>787.20001220703</ele>
        <time>2013-05-11T07:56:38Z</time>
      </trkpt>
      <trkpt lat="44.44896" lon="5.41051">
        <ele>786.79998779297</ele>
        <time>2013-05-11T07:56:39Z</time>
      </trkpt>
      <trkpt lat="44.44903" lon="5.41075">
        <ele>786.79998779297</ele>
        <time>2013-05-11T07:56:43Z</time>
      </trkpt>
      <trkpt lat="44.44904" lon="5.41081">
        <ele>786.79998779297</ele>
        <time>2013-05-11T07:56:44Z</time>
      </trkpt>
      <trkpt lat="44.44903" lon="5.41109">
        <ele>786.79998779297</ele>
        <time>2013-05-11T07:56:49Z</time>
      </trkpt>
      <trkpt lat="44.44899" lon="5.41139">
        <ele>787.59997558594</ele>
        <time>2013-05-11T07:56:55Z</time>
      </trkpt>
      <trkpt lat="44.44898" lon="5.41143">
        <ele>788</ele>
        <time>2013-05-11T07:56:56Z</time>
      </trkpt>
      <trkpt lat="44.44899" lon="5.41153">
        <ele>788.79998779297</ele>
        <time>2013-05-11T07:56:59Z</time>
      </trkpt>
      <trkpt lat="44.44898" lon="5.41165">
        <ele>788.79998779297</ele>
        <time>2013-05-11T07:57:02Z</time>
      </trkpt>
      <trkpt lat="44.44898" lon="5.41172">
        <ele>789.59997558594</ele>
        <time>2013-05-11T07:57:04Z</time>
      </trkpt>
      <trkpt lat="44.44898" lon="5.41181">
        <ele>790.40002441406</ele>
        <time>2013-05-11T07:57:06Z</time>
      </trkpt>
      <trkpt lat="44.44901" lon="5.41213">
        <ele>790.79998779297</ele>
        <time>2013-05-11T07:57:14Z</time>
      </trkpt>
      <trkpt lat="44.44906" lon="5.41244">
        <ele>790.79998779297</ele>
        <time>2013-05-11T07:57:21Z</time>
      </trkpt>
      <trkpt lat="44.44908" lon="5.41251">
        <ele>791.79998779297</ele>
        <time>2013-05-11T07:57:23Z</time>
      </trkpt>
      <trkpt lat="44.44911" lon="5.41259">
        <ele>792.79998779297</ele>
        <time>2013-05-11T07:57:26Z</time>
      </trkpt>
      <trkpt lat="44.44912" lon="5.41262">
        <ele>793.20001220703</ele>
        <time>2013-05-11T07:57:27Z</time>
      </trkpt>
      <trkpt lat="44.44917" lon="5.41278">
        <ele>793.20001220703</ele>
        <time>2013-05-11T07:57:31Z</time>
      </trkpt>
      <trkpt lat="44.4492" lon="5.41307">
        <ele>793.20001220703</ele>
        <time>2013-05-11T07:57:37Z</time>
      </trkpt>
      <trkpt lat="44.44925" lon="5.41342">
        <ele>793.20001220703</ele>
        <time>2013-05-11T07:57:45Z</time>
      </trkpt>
      <trkpt lat="44.44934" lon="5.41366">
        <ele>793.20001220703</ele>
        <time>2013-05-11T07:57:51Z</time>
      </trkpt>
      <trkpt lat="44.44949" lon="5.41403">
        <ele>793.20001220703</ele>
        <time>2013-05-11T07:57:59Z</time>
      </trkpt>
      <trkpt lat="44.44963" lon="5.4143">
        <ele>793.20001220703</ele>
        <time>2013-05-11T07:58:05Z</time>
      </trkpt>
      <trkpt lat="44.44979" lon="5.41463">
        <ele>793.20001220703</ele>
        <time>2013-05-11T07:58:13Z</time>
      </trkpt>
      <trkpt lat="44.44981" lon="5.41471">
        <ele>793.59997558594</ele>
        <time>2013-05-11T07:58:15Z</time>
      </trkpt>
      <trkpt lat="44.44981" lon="5.4148">
        <ele>794.40002441406</ele>
        <time>2013-05-11T07:58:17Z</time>
      </trkpt>
      <trkpt lat="44.44983" lon="5.4149">
        <ele>794.79998779297</ele>
        <time>2013-05-11T07:58:19Z</time>
      </trkpt>
      <trkpt lat="44.44983" lon="5.41508">
        <ele>795.20001220703</ele>
        <time>2013-05-11T07:58:23Z</time>
      </trkpt>
      <trkpt lat="44.44986" lon="5.41546">
        <ele>795.59997558594</ele>
        <time>2013-05-11T07:58:31Z</time>
      </trkpt>
      <trkpt lat="44.44986" lon="5.41551">
        <ele>796</ele>
        <time>2013-05-11T07:58:32Z</time>
      </trkpt>
      <trkpt lat="44.44986" lon="5.41565">
        <ele>797.20001220703</ele>
        <time>2013-05-11T07:58:35Z</time>
      </trkpt>
      <trkpt lat="44.44985" lon="5.4157">
        <ele>797.20001220703</ele>
        <time>2013-05-11T07:58:36Z</time>
      </trkpt>
      <trkpt lat="44.44982" lon="5.41598">
        <ele>797.20001220703</ele>
        <time>2013-05-11T07:58:42Z</time>
      </trkpt>
      <trkpt lat="44.44975" lon="5.41618">
        <ele>797.20001220703</ele>
        <time>2013-05-11T07:58:47Z</time>
      </trkpt>
      <trkpt lat="44.44968" lon="5.41637">
        <ele>797.20001220703</ele>
        <time>2013-05-11T07:58:54Z</time>
      </trkpt>
      <trkpt lat="44.44964" lon="5.41652">
        <ele>797.20001220703</ele>
        <time>2013-05-11T07:59:00Z</time>
      </trkpt>
      <trkpt lat="44.44961" lon="5.41662">
        <ele>799</ele>
        <time>2013-05-11T07:59:04Z</time>
      </trkpt>
      <trkpt lat="44.44958" lon="5.41679">
        <ele>800</ele>
        <time>2013-05-11T07:59:11Z</time>
      </trkpt>
      <trkpt lat="44.44958" lon="5.41681">
        <ele>800.79998779297</ele>
        <time>2013-05-11T07:59:12Z</time>
      </trkpt>
      <trkpt lat="44.44953" lon="5.41698">
        <ele>801.59997558594</ele>
        <time>2013-05-11T07:59:21Z</time>
      </trkpt>
      <trkpt lat="44.44952" lon="5.41702">
        <ele>802</ele>
        <time>2013-05-11T07:59:23Z</time>
      </trkpt>
      <trkpt lat="44.44951" lon="5.4171">
        <ele>803.59997558594</ele>
        <time>2013-05-11T07:59:27Z</time>
      </trkpt>
      <trkpt lat="44.44949" lon="5.41717">
        <ele>803.59997558594</ele>
        <time>2013-05-11T07:59:30Z</time>
      </trkpt>
      <trkpt lat="44.44946" lon="5.41731">
        <ele>804</ele>
        <time>2013-05-11T07:59:37Z</time>
      </trkpt>
      <trkpt lat="44.44945" lon="5.41744">
        <ele>806.20001220703</ele>
        <time>2013-05-11T07:59:44Z</time>
      </trkpt>
      <trkpt lat="44.44943" lon="5.4175">
        <ele>807.79998779297</ele>
        <time>2013-05-11T07:59:48Z</time>
      </trkpt>
      <trkpt lat="44.44941" lon="5.41762">
        <ele>808.20001220703</ele>
        <time>2013-05-11T07:59:54Z</time>
      </trkpt>
      <trkpt lat="44.4494" lon="5.41767">
        <ele>809</ele>
        <time>2013-05-11T07:59:57Z</time>
      </trkpt>
      <trkpt lat="44.44939" lon="5.4177">
        <ele>809.79998779297</ele>
        <time>2013-05-11T07:59:59Z</time>
      </trkpt>
      <trkpt lat="44.44936" lon="5.41783">
        <ele>810.20001220703</ele>
        <time>2013-05-11T08:00:07Z</time>
      </trkpt>
      <trkpt lat="44.44931" lon="5.41794">
        <ele>811.79998779297</ele>
        <time>2013-05-11T08:00:13Z</time>
      </trkpt>
      <trkpt lat="44.44928" lon="5.41802">
        <ele>811.79998779297</ele>
        <time>2013-05-11T08:00:17Z</time>
      </trkpt>
      <trkpt lat="44.44922" lon="5.41811">
        <ele>813.79998779297</ele>
        <time>2013-05-11T08:00:23Z</time>
      </trkpt>
      <trkpt lat="44.44913" lon="5.41832">
        <ele>814.20001220703</ele>
        <time>2013-05-11T08:00:36Z</time>
      </trkpt>
      <trkpt lat="44.4491" lon="5.41845">
        <ele>816</ele>
        <time>2013-05-11T08:00:44Z</time>
      </trkpt>
      <trkpt lat="44.44909" lon="5.41851">
        <ele>816.40002441406</ele>
        <time>2013-05-11T08:00:48Z</time>
      </trkpt>
      <trkpt lat="44.44909" lon="5.4186">
        <ele>818.40002441406</ele>
        <time>2013-05-11T08:00:53Z</time>
      </trkpt>
      <trkpt lat="44.44909" lon="5.41874">
        <ele>818.79998779297</ele>
        <time>2013-05-11T08:01:01Z</time>
      </trkpt>
      <trkpt lat="44.44909" lon="5.41882">
        <ele>820.40002441406</ele>
        <time>2013-05-11T08:01:05Z</time>
      </trkpt>
      <trkpt lat="44.44911" lon="5.4189">
        <ele>820.40002441406</ele>
        <time>2013-05-11T08:01:10Z</time>
      </trkpt>
      <trkpt lat="44.44912" lon="5.41898">
        <ele>820.79998779297</ele>
        <time>2013-05-11T08:01:15Z</time>
      </trkpt>
      <trkpt lat="44.44913" lon="5.41901">
        <ele>821.59997558594</ele>
        <time>2013-05-11T08:01:17Z</time>
      </trkpt>
      <trkpt lat="44.44917" lon="5.41913">
        <ele>823</ele>
        <time>2013-05-11T08:01:24Z</time>
      </trkpt>
      <trkpt lat="44.44921" lon="5.41917">
        <ele>824.79998779297</ele>
        <time>2013-05-11T08:01:28Z</time>
      </trkpt>
      <trkpt lat="44.44925" lon="5.41923">
        <ele>824.79998779297</ele>
        <time>2013-05-11T08:01:32Z</time>
      </trkpt>
      <trkpt lat="44.44927" lon="5.41931">
        <ele>825.59997558594</ele>
        <time>2013-05-11T08:01:37Z</time>
      </trkpt>
      <trkpt lat="44.44923" lon="5.41948">
        <ele>827.40002441406</ele>
        <time>2013-05-11T08:01:47Z</time>
      </trkpt>
      <trkpt lat="44.44922" lon="5.41951">
        <ele>828.20001220703</ele>
        <time>2013-05-11T08:01:49Z</time>
      </trkpt>
      <trkpt lat="44.44916" lon="5.41964">
        <ele>829</ele>
        <time>2013-05-11T08:01:58Z</time>
      </trkpt>
      <trkpt lat="44.44909" lon="5.41972">
        <ele>829.40002441406</ele>
        <time>2013-05-11T08:02:05Z</time>
      </trkpt>
      <trkpt lat="44.44898" lon="5.41982">
        <ele>831.40002441406</ele>
        <time>2013-05-11T08:02:15Z</time>
      </trkpt>
      <trkpt lat="44.44891" lon="5.41991">
        <ele>832.59997558594</ele>
        <time>2013-05-11T08:02:23Z</time>
      </trkpt>
      <trkpt lat="44.4489" lon="5.41991">
        <ele>833.20001220703</ele>
        <time>2013-05-11T08:02:24Z</time>
      </trkpt>
      <trkpt lat="44.44881" lon="5.42003">
        <ele>834</ele>
        <time>2013-05-11T08:02:34Z</time>
      </trkpt>
      <trkpt lat="44.44879" lon="5.42006">
        <ele>834.40002441406</ele>
        <time>2013-05-11T08:02:36Z</time>
      </trkpt>
      <trkpt lat="44.4487" lon="5.42018">
        <ele>836</ele>
        <time>2013-05-11T08:02:48Z</time>
      </trkpt>
      <trkpt lat="44.44868" lon="5.4202">
        <ele>837</ele>
        <time>2013-05-11T08:02:50Z</time>
      </trkpt>
      <trkpt lat="44.4486" lon="5.42031">
        <ele>838.20001220703</ele>
        <time>2013-05-11T08:02:58Z</time>
      </trkpt>
      <trkpt lat="44.44852" lon="5.42044">
        <ele>839.79998779297</ele>
        <time>2013-05-11T08:03:07Z</time>
      </trkpt>
      <trkpt lat="44.44849" lon="5.42048">
        <ele>840.20001220703</ele>
        <time>2013-05-11T08:03:10Z</time>
      </trkpt>
      <trkpt lat="44.44847" lon="5.42051">
        <ele>841</ele>
        <time>2013-05-11T08:03:12Z</time>
      </trkpt>
      <trkpt lat="44.44834" lon="5.42066">
        <ele>842</ele>
        <time>2013-05-11T08:03:24Z</time>
      </trkpt>
      <trkpt lat="44.44831" lon="5.42071">
        <ele>842.40002441406</ele>
        <time>2013-05-11T08:03:28Z</time>
      </trkpt>
      <trkpt lat="44.4483" lon="5.42072">
        <ele>843.20001220703</ele>
        <time>2013-05-11T08:03:29Z</time>
      </trkpt>
      <trkpt lat="44.44817" lon="5.42089">
        <ele>844.20001220703</ele>
        <time>2013-05-11T08:03:41Z</time>
      </trkpt>
      <trkpt lat="44.44816" lon="5.42091">
        <ele>845</ele>
        <time>2013-05-11T08:03:42Z</time>
      </trkpt>
      <trkpt lat="44.4481" lon="5.42098">
        <ele>846.40002441406</ele>
        <time>2013-05-11T08:03:46Z</time>
      </trkpt>
      <trkpt lat="44.44805" lon="5.42103">
        <ele>846.40002441406</ele>
        <time>2013-05-11T08:03:49Z</time>
      </trkpt>
      <trkpt lat="44.4479" lon="5.4212">
        <ele>846.40002441406</ele>
        <time>2013-05-11T08:03:56Z</time>
      </trkpt>
      <trkpt lat="44.44777" lon="5.42133">
        <ele>846.40002441406</ele>
        <time>2013-05-11T08:04:00Z</time>
      </trkpt>
      <trkpt lat="44.44769" lon="5.42139">
        <ele>846.40002441406</ele>
        <time>2013-05-11T08:04:02Z</time>
      </trkpt>
      <trkpt lat="44.44748" lon="5.42167">
        <ele>846.40002441406</ele>
        <time>2013-05-11T08:04:09Z</time>
      </trkpt>
      <trkpt lat="44.44736" lon="5.42191">
        <ele>846.40002441406</ele>
        <time>2013-05-11T08:04:16Z</time>
      </trkpt>
      <trkpt lat="44.4473" lon="5.42213">
        <ele>846.40002441406</ele>
        <time>2013-05-11T08:04:23Z</time>
      </trkpt>
      <trkpt lat="44.44728" lon="5.42222">
        <ele>846.79998779297</ele>
        <time>2013-05-11T08:04:26Z</time>
      </trkpt>
      <trkpt lat="44.44726" lon="5.4223">
        <ele>848</ele>
        <time>2013-05-11T08:04:29Z</time>
      </trkpt>
      <trkpt lat="44.44719" lon="5.42247">
        <ele>849</ele>
        <time>2013-05-11T08:04:36Z</time>
      </trkpt>
      <trkpt lat="44.44716" lon="5.42254">
        <ele>849.40002441406</ele>
        <time>2013-05-11T08:04:39Z</time>
      </trkpt>
      <trkpt lat="44.44713" lon="5.42264">
        <ele>850.79998779297</ele>
        <time>2013-05-11T08:04:44Z</time>
      </trkpt>
      <trkpt lat="44.44711" lon="5.42275">
        <ele>851.20001220703</ele>
        <time>2013-05-11T08:04:49Z</time>
      </trkpt>
      <trkpt lat="44.4471" lon="5.42283">
        <ele>852.79998779297</ele>
        <time>2013-05-11T08:04:53Z</time>
      </trkpt>
      <trkpt lat="44.44708" lon="5.42297">
        <ele>853.20001220703</ele>
        <time>2013-05-11T08:04:59Z</time>
      </trkpt>
      <trkpt lat="44.44707" lon="5.42304">
        <ele>854.20001220703</ele>
        <time>2013-05-11T08:05:02Z</time>
      </trkpt>
      <trkpt lat="44.44706" lon="5.42313">
        <ele>855</ele>
        <time>2013-05-11T08:05:06Z</time>
      </trkpt>
      <trkpt lat="44.44701" lon="5.42324">
        <ele>855</ele>
        <time>2013-05-11T08:05:11Z</time>
      </trkpt>
      <trkpt lat="44.44697" lon="5.42329">
        <ele>855</ele>
        <time>2013-05-11T08:05:14Z</time>
      </trkpt>
      <trkpt lat="44.44694" lon="5.42331">
        <ele>855.40002441406</ele>
        <time>2013-05-11T08:05:16Z</time>
      </trkpt>
      <trkpt lat="44.4469" lon="5.42332">
        <ele>856.79998779297</ele>
        <time>2013-05-11T08:05:19Z</time>
      </trkpt>
      <trkpt lat="44.44679" lon="5.42333">
        <ele>857.79998779297</ele>
        <time>2013-05-11T08:05:27Z</time>
      </trkpt>
      <trkpt lat="44.4467" lon="5.42333">
        <ele>859.59997558594</ele>
        <time>2013-05-11T08:05:34Z</time>
      </trkpt>
      <trkpt lat="44.44659" lon="5.42338">
        <ele>861.59997558594</ele>
        <time>2013-05-11T08:05:42Z</time>
      </trkpt>
      <trkpt lat="44.44651" lon="5.42349">
        <ele>861.59997558594</ele>
        <time>2013-05-11T08:05:49Z</time>
      </trkpt>
      <trkpt lat="44.44646" lon="5.42361">
        <ele>861.59997558594</ele>
        <time>2013-05-11T08:05:55Z</time>
      </trkpt>
      <trkpt lat="44.44645" lon="5.42374">
        <ele>863.20001220703</ele>
        <time>2013-05-11T08:06:00Z</time>
      </trkpt>
      <trkpt lat="44.44644" lon="5.42385">
        <ele>863.59997558594</ele>
        <time>2013-05-11T08:06:05Z</time>
      </trkpt>
      <trkpt lat="44.44641" lon="5.42397">
        <ele>864.40002441406</ele>
        <time>2013-05-11T08:06:11Z</time>
      </trkpt>
      <trkpt lat="44.4464" lon="5.42402">
        <ele>865.59997558594</ele>
        <time>2013-05-11T08:06:14Z</time>
      </trkpt>
      <trkpt lat="44.44635" lon="5.42413">
        <ele>866.20001220703</ele>
        <time>2013-05-11T08:06:22Z</time>
      </trkpt>
      <trkpt lat="44.44629" lon="5.42426">
        <ele>868</ele>
        <time>2013-05-11T08:06:30Z</time>
      </trkpt>
      <trkpt lat="44.44627" lon="5.42432">
        <ele>869.59997558594</ele>
        <time>2013-05-11T08:06:33Z</time>
      </trkpt>
      <trkpt lat="44.44621" lon="5.42448">
        <ele>870.79998779297</ele>
        <time>2013-05-11T08:06:43Z</time>
      </trkpt>
      <trkpt lat="44.44619" lon="5.42452">
        <ele>871.79998779297</ele>
        <time>2013-05-11T08:06:46Z</time>
      </trkpt>
      <trkpt lat="44.44611" lon="5.42464">
        <ele>872.79998779297</ele>
        <time>2013-05-11T08:06:56Z</time>
      </trkpt>
      <trkpt lat="44.4461" lon="5.42465">
        <ele>873.79998779297</ele>
        <time>2013-05-11T08:06:57Z</time>
      </trkpt>
      <trkpt lat="44.44604" lon="5.42471">
        <ele>875.79998779297</ele>
        <time>2013-05-11T08:07:03Z</time>
      </trkpt>
      <trkpt lat="44.44598" lon="5.42481">
        <ele>876.59997558594</ele>
        <time>2013-05-11T08:07:11Z</time>
      </trkpt>
      <trkpt lat="44.44595" lon="5.42491">
        <ele>878</ele>
        <time>2013-05-11T08:07:16Z</time>
      </trkpt>
      <trkpt lat="44.44588" lon="5.42508">
        <ele>879.20001220703</ele>
        <time>2013-05-11T08:07:27Z</time>
      </trkpt>
      <trkpt lat="44.44585" lon="5.4251">
        <ele>879.59997558594</ele>
        <time>2013-05-11T08:07:29Z</time>
      </trkpt>
      <trkpt lat="44.4458" lon="5.42515">
        <ele>880.79998779297</ele>
        <time>2013-05-11T08:07:35Z</time>
      </trkpt>
      <trkpt lat="44.44577" lon="5.4252">
        <ele>881.79998779297</ele>
        <time>2013-05-11T08:07:39Z</time>
      </trkpt>
      <trkpt lat="44.44568" lon="5.42536">
        <ele>883.59997558594</ele>
        <time>2013-05-11T08:07:51Z</time>
      </trkpt>
      <trkpt lat="44.44565" lon="5.42541">
        <ele>884.79998779297</ele>
        <time>2013-05-11T08:07:55Z</time>
      </trkpt>
      <trkpt lat="44.44557" lon="5.4255">
        <ele>885.79998779297</ele>
        <time>2013-05-11T08:08:05Z</time>
      </trkpt>
      <trkpt lat="44.44549" lon="5.42562">
        <ele>888</ele>
        <time>2013-05-11T08:08:15Z</time>
      </trkpt>
      <trkpt lat="44.44544" lon="5.42576">
        <ele>889.79998779297</ele>
        <time>2013-05-11T08:08:25Z</time>
      </trkpt>
      <trkpt lat="44.44543" lon="5.42581">
        <ele>890.79998779297</ele>
        <time>2013-05-11T08:08:29Z</time>
      </trkpt>
      <trkpt lat="44.44535" lon="5.42595">
        <ele>892.59997558594</ele>
        <time>2013-05-11T08:08:40Z</time>
      </trkpt>
      <trkpt lat="44.44524" lon="5.42607">
        <ele>894.40002441406</ele>
        <time>2013-05-11T08:08:52Z</time>
      </trkpt>
      <trkpt lat="44.44521" lon="5.42612">
        <ele>895.20001220703</ele>
        <time>2013-05-11T08:08:56Z</time>
      </trkpt>
      <trkpt lat="44.44519" lon="5.4262">
        <ele>896.59997558594</ele>
        <time>2013-05-11T08:09:03Z</time>
      </trkpt>
      <trkpt lat="44.44516" lon="5.42631">
        <ele>897.79998779297</ele>
        <time>2013-05-11T08:09:09Z</time>
      </trkpt>
      <trkpt lat="44.44508" lon="5.42643">
        <ele>898.79998779297</ele>
        <time>2013-05-11T08:09:19Z</time>
      </trkpt>
      <trkpt lat="44.445" lon="5.4265">
        <ele>899.20001220703</ele>
        <time>2013-05-11T08:09:25Z</time>
      </trkpt>
      <trkpt lat="44.44494" lon="5.42661">
        <ele>900.79998779297</ele>
        <time>2013-05-11T08:09:31Z</time>
      </trkpt>
      <trkpt lat="44.44483" lon="5.42679">
        <ele>900.79998779297</ele>
        <time>2013-05-11T08:09:41Z</time>
      </trkpt>
      <trkpt lat="44.44473" lon="5.42697">
        <ele>900.79998779297</ele>
        <time>2013-05-11T08:09:48Z</time>
      </trkpt>
      <trkpt lat="44.44461" lon="5.42726">
        <ele>900.79998779297</ele>
        <time>2013-05-11T08:09:56Z</time>
      </trkpt>
      <trkpt lat="44.44455" lon="5.42734">
        <ele>901.20001220703</ele>
        <time>2013-05-11T08:09:59Z</time>
      </trkpt>
      <trkpt lat="44.4445" lon="5.42742">
        <ele>902.79998779297</ele>
        <time>2013-05-11T08:10:02Z</time>
      </trkpt>
      <trkpt lat="44.44444" lon="5.42752">
        <ele>903.20001220703</ele>
        <time>2013-05-11T08:10:06Z</time>
      </trkpt>
      <trkpt lat="44.44439" lon="5.42761">
        <ele>904.40002441406</ele>
        <time>2013-05-11T08:10:09Z</time>
      </trkpt>
      <trkpt lat="44.44427" lon="5.42778">
        <ele>904.79998779297</ele>
        <time>2013-05-11T08:10:16Z</time>
      </trkpt>
      <trkpt lat="44.4441" lon="5.42794">
        <ele>904.79998779297</ele>
        <time>2013-05-11T08:10:24Z</time>
      </trkpt>
      <trkpt lat="44.444" lon="5.42807">
        <ele>904.79998779297</ele>
        <time>2013-05-11T08:10:30Z</time>
      </trkpt>
      <trkpt lat="44.44398" lon="5.42812">
        <ele>905.40002441406</ele>
        <time>2013-05-11T08:10:32Z</time>
      </trkpt>
      <trkpt lat="44.44395" lon="5.42822">
        <ele>906.59997558594</ele>
        <time>2013-05-11T08:10:35Z</time>
      </trkpt>
      <trkpt lat="44.44392" lon="5.4285">
        <ele>907</ele>
        <time>2013-05-11T08:10:43Z</time>
      </trkpt>
      <trkpt lat="44.44387" lon="5.42872">
        <ele>907</ele>
        <time>2013-05-11T08:10:48Z</time>
      </trkpt>
      <trkpt lat="44.44382" lon="5.42885">
        <ele>907.40002441406</ele>
        <time>2013-05-11T08:10:51Z</time>
      </trkpt>
      <trkpt lat="44.44379" lon="5.42893">
        <ele>908.20001220703</ele>
        <time>2013-05-11T08:10:53Z</time>
      </trkpt>
      <trkpt lat="44.44374" lon="5.42904">
        <ele>909.20001220703</ele>
        <time>2013-05-11T08:10:56Z</time>
      </trkpt>
      <trkpt lat="44.44362" lon="5.42921">
        <ele>909.20001220703</ele>
        <time>2013-05-11T08:11:00Z</time>
      </trkpt>
      <trkpt lat="44.44343" lon="5.42939">
        <ele>909.20001220703</ele>
        <time>2013-05-11T08:11:04Z</time>
      </trkpt>
      <trkpt lat="44.44326" lon="5.42947">
        <ele>909.20001220703</ele>
        <time>2013-05-11T08:11:07Z</time>
      </trkpt>
      <trkpt lat="44.44316" lon="5.42953">
        <ele>908.59997558594</ele>
        <time>2013-05-11T08:11:09Z</time>
      </trkpt>
      <trkpt lat="44.44308" lon="5.42958">
        <ele>907.79998779297</ele>
        <time>2013-05-11T08:11:11Z</time>
      </trkpt>
      <trkpt lat="44.44305" lon="5.42961">
        <ele>907.40002441406</ele>
        <time>2013-05-11T08:11:12Z</time>
      </trkpt>
      <trkpt lat="44.44297" lon="5.42964">
        <ele>906.79998779297</ele>
        <time>2013-05-11T08:11:15Z</time>
      </trkpt>
      <trkpt lat="44.44284" lon="5.42971">
        <ele>907.40002441406</ele>
        <time>2013-05-11T08:11:21Z</time>
      </trkpt>
      <trkpt lat="44.4428" lon="5.42973">
        <ele>908.20001220703</ele>
        <time>2013-05-11T08:11:23Z</time>
      </trkpt>
      <trkpt lat="44.44264" lon="5.42987">
        <ele>909</ele>
        <time>2013-05-11T08:11:31Z</time>
      </trkpt>
      <trkpt lat="44.44255" lon="5.42992">
        <ele>910.20001220703</ele>
        <time>2013-05-11T08:11:35Z</time>
      </trkpt>
      <trkpt lat="44.44235" lon="5.42994">
        <ele>911.20001220703</ele>
        <time>2013-05-11T08:11:45Z</time>
      </trkpt>
      <trkpt lat="44.44228" lon="5.42994">
        <ele>912.40002441406</ele>
        <time>2013-05-11T08:11:49Z</time>
      </trkpt>
      <trkpt lat="44.44218" lon="5.42989">
        <ele>913.20001220703</ele>
        <time>2013-05-11T08:11:55Z</time>
      </trkpt>
      <trkpt lat="44.44208" lon="5.42983">
        <ele>913.20001220703</ele>
        <time>2013-05-11T08:12:01Z</time>
      </trkpt>
      <trkpt lat="44.442" lon="5.42982">
        <ele>914.40002441406</ele>
        <time>2013-05-11T08:12:07Z</time>
      </trkpt>
      <trkpt lat="44.44195" lon="5.42993">
        <ele>915.40002441406</ele>
        <time>2013-05-11T08:12:14Z</time>
      </trkpt>
      <trkpt lat="44.44199" lon="5.43001">
        <ele>916.20001220703</ele>
        <time>2013-05-11T08:12:20Z</time>
      </trkpt>
      <trkpt lat="44.44204" lon="5.43007">
        <ele>917.40002441406</ele>
        <time>2013-05-11T08:12:27Z</time>
      </trkpt>
      <trkpt lat="44.44207" lon="5.43011">
        <ele>918.20001220703</ele>
        <time>2013-05-11T08:12:31Z</time>
      </trkpt>
      <trkpt lat="44.4421" lon="5.43015">
        <ele>919.40002441406</ele>
        <time>2013-05-11T08:12:35Z</time>
      </trkpt>
      <trkpt lat="44.44216" lon="5.43021">
        <ele>920</ele>
        <time>2013-05-11T08:12:40Z</time>
      </trkpt>
      <trkpt lat="44.4422" lon="5.43025">
        <ele>921.59997558594</ele>
        <time>2013-05-11T08:12:44Z</time>
      </trkpt>
      <trkpt lat="44.44225" lon="5.43031">
        <ele>921.59997558594</ele>
        <time>2013-05-11T08:12:49Z</time>
      </trkpt>
      <trkpt lat="44.44231" lon="5.43042">
        <ele>923.59997558594</ele>
        <time>2013-05-11T08:12:55Z</time>
      </trkpt>
      <trkpt lat="44.44236" lon="5.43056">
        <ele>923.59997558594</ele>
        <time>2013-05-11T08:13:02Z</time>
      </trkpt>
      <trkpt lat="44.4424" lon="5.43068">
        <ele>924</ele>
        <time>2013-05-11T08:13:08Z</time>
      </trkpt>
      <trkpt lat="44.44241" lon="5.43071">
        <ele>925.40002441406</ele>
        <time>2013-05-11T08:13:10Z</time>
      </trkpt>
      <trkpt lat="44.44245" lon="5.43082">
        <ele>925.79998779297</ele>
        <time>2013-05-11T08:13:16Z</time>
      </trkpt>
      <trkpt lat="44.44246" lon="5.4309">
        <ele>926.59997558594</ele>
        <time>2013-05-11T08:13:22Z</time>
      </trkpt>
      <trkpt lat="44.44247" lon="5.43106">
        <ele>928.40002441406</ele>
        <time>2013-05-11T08:13:33Z</time>
      </trkpt>
      <trkpt lat="44.44247" lon="5.43111">
        <ele>929.59997558594</ele>
        <time>2013-05-11T08:13:36Z</time>
      </trkpt>
      <trkpt lat="44.4425" lon="5.43121">
        <ele>930</ele>
        <time>2013-05-11T08:13:43Z</time>
      </trkpt>
      <trkpt lat="44.44253" lon="5.43129">
        <ele>931</ele>
        <time>2013-05-11T08:13:48Z</time>
      </trkpt>
      <trkpt lat="44.44254" lon="5.43132">
        <ele>931.40002441406</ele>
        <time>2013-05-11T08:13:50Z</time>
      </trkpt>
      <trkpt lat="44.44263" lon="5.4315">
        <ele>932.59997558594</ele>
        <time>2013-05-11T08:14:02Z</time>
      </trkpt>
      <trkpt lat="44.44263" lon="5.43152">
        <ele>933.20001220703</ele>
        <time>2013-05-11T08:14:03Z</time>
      </trkpt>
      <trkpt lat="44.44262" lon="5.43166">
        <ele>934.40002441406</ele>
        <time>2013-05-11T08:14:13Z</time>
      </trkpt>
      <trkpt lat="44.44261" lon="5.43188">
        <ele>935</ele>
        <time>2013-05-11T08:14:23Z</time>
      </trkpt>
      <trkpt lat="44.4426" lon="5.43191">
        <ele>935.40002441406</ele>
        <time>2013-05-11T08:14:25Z</time>
      </trkpt>
      <trkpt lat="44.44262" lon="5.43211">
        <ele>936.59997558594</ele>
        <time>2013-05-11T08:14:34Z</time>
      </trkpt>
      <trkpt lat="44.44263" lon="5.43221">
        <ele>938.59997558594</ele>
        <time>2013-05-11T08:14:40Z</time>
      </trkpt>
      <trkpt lat="44.44262" lon="5.43236">
        <ele>939.20001220703</ele>
        <time>2013-05-11T08:14:48Z</time>
      </trkpt>
      <trkpt lat="44.44262" lon="5.43241">
        <ele>940</ele>
        <time>2013-05-11T08:14:51Z</time>
      </trkpt>
      <trkpt lat="44.44263" lon="5.43258">
        <ele>941.40002441406</ele>
        <time>2013-05-11T08:15:00Z</time>
      </trkpt>
      <trkpt lat="44.44263" lon="5.43261">
        <ele>942.59997558594</ele>
        <time>2013-05-11T08:15:02Z</time>
      </trkpt>
      <trkpt lat="44.44262" lon="5.4328">
        <ele>943.40002441406</ele>
        <time>2013-05-11T08:15:13Z</time>
      </trkpt>
      <trkpt lat="44.44261" lon="5.43281">
        <ele>943.79998779297</ele>
        <time>2013-05-11T08:15:14Z</time>
      </trkpt>
      <trkpt lat="44.44262" lon="5.43292">
        <ele>945.59997558594</ele>
        <time>2013-05-11T08:15:23Z</time>
      </trkpt>
      <trkpt lat="44.44268" lon="5.43302">
        <ele>947.20001220703</ele>
        <time>2013-05-11T08:15:30Z</time>
      </trkpt>
      <trkpt lat="44.44273" lon="5.43303">
        <ele>947.20001220703</ele>
        <time>2013-05-11T08:15:33Z</time>
      </trkpt>
      <trkpt lat="44.44276" lon="5.43312">
        <ele>947.59997558594</ele>
        <time>2013-05-11T08:15:38Z</time>
      </trkpt>
      <trkpt lat="44.4428" lon="5.43323">
        <ele>949.40002441406</ele>
        <time>2013-05-11T08:15:46Z</time>
      </trkpt>
      <trkpt lat="44.44281" lon="5.43331">
        <ele>950</ele>
        <time>2013-05-11T08:15:50Z</time>
      </trkpt>
      <trkpt lat="44.44281" lon="5.43346">
        <ele>951.79998779297</ele>
        <time>2013-05-11T08:15:58Z</time>
      </trkpt>
      <trkpt lat="44.44283" lon="5.43356">
        <ele>952.20001220703</ele>
        <time>2013-05-11T08:16:04Z</time>
      </trkpt>
      <trkpt lat="44.44282" lon="5.4336">
        <ele>953.59997558594</ele>
        <time>2013-05-11T08:16:07Z</time>
      </trkpt>
      <trkpt lat="44.44281" lon="5.43375">
        <ele>954.40002441406</ele>
        <time>2013-05-11T08:16:15Z</time>
      </trkpt>
      <trkpt lat="44.44281" lon="5.43382">
        <ele>955.59997558594</ele>
        <time>2013-05-11T08:16:18Z</time>
      </trkpt>
      <trkpt lat="44.44285" lon="5.43397">
        <ele>956.20001220703</ele>
        <time>2013-05-11T08:16:26Z</time>
      </trkpt>
      <trkpt lat="44.44287" lon="5.43403">
        <ele>956.59997558594</ele>
        <time>2013-05-11T08:16:29Z</time>
      </trkpt>
      <trkpt lat="44.4429" lon="5.43411">
        <ele>958</ele>
        <time>2013-05-11T08:16:34Z</time>
      </trkpt>
      <trkpt lat="44.44291" lon="5.43412">
        <ele>958.40002441406</ele>
        <time>2013-05-11T08:16:35Z</time>
      </trkpt>
      <trkpt lat="44.44292" lon="5.43424">
        <ele>959</ele>
        <time>2013-05-11T08:16:44Z</time>
      </trkpt>
      <trkpt lat="44.44292" lon="5.43431">
        <ele>960.79998779297</ele>
        <time>2013-05-11T08:16:48Z</time>
      </trkpt>
      <trkpt lat="44.44293" lon="5.43441">
        <ele>961.20001220703</ele>
        <time>2013-05-11T08:16:54Z</time>
      </trkpt>
      <trkpt lat="44.44295" lon="5.43456">
        <ele>963</ele>
        <time>2013-05-11T08:17:02Z</time>
      </trkpt>
      <trkpt lat="44.44294" lon="5.43463">
        <ele>963.40002441406</ele>
        <time>2013-05-11T08:17:05Z</time>
      </trkpt>
      <trkpt lat="44.44294" lon="5.43471">
        <ele>964.59997558594</ele>
        <time>2013-05-11T08:17:09Z</time>
      </trkpt>
      <trkpt lat="44.44292" lon="5.43488">
        <ele>965.59997558594</ele>
        <time>2013-05-11T08:17:19Z</time>
      </trkpt>
      <trkpt lat="44.44291" lon="5.4349">
        <ele>966</ele>
        <time>2013-05-11T08:17:20Z</time>
      </trkpt>
      <trkpt lat="44.44291" lon="5.43504">
        <ele>967.20001220703</ele>
        <time>2013-05-11T08:17:28Z</time>
      </trkpt>
      <trkpt lat="44.44291" lon="5.43513">
        <ele>967.59997558594</ele>
        <time>2013-05-11T08:17:33Z</time>
      </trkpt>
      <trkpt lat="44.44291" lon="5.43521">
        <ele>969</ele>
        <time>2013-05-11T08:17:37Z</time>
      </trkpt>
      <trkpt lat="44.44293" lon="5.43534">
        <ele>969.40002441406</ele>
        <time>2013-05-11T08:17:43Z</time>
      </trkpt>
      <trkpt lat="44.44292" lon="5.4354">
        <ele>970.79998779297</ele>
        <time>2013-05-11T08:17:47Z</time>
      </trkpt>
      <trkpt lat="44.44291" lon="5.43562">
        <ele>971.79998779297</ele>
        <time>2013-05-11T08:17:59Z</time>
      </trkpt>
      <trkpt lat="44.4429" lon="5.43566">
        <ele>972.20001220703</ele>
        <time>2013-05-11T08:18:02Z</time>
      </trkpt>
      <trkpt lat="44.44288" lon="5.43571">
        <ele>973.40002441406</ele>
        <time>2013-05-11T08:18:05Z</time>
      </trkpt>
      <trkpt lat="44.44293" lon="5.43595">
        <ele>974.59997558594</ele>
        <time>2013-05-11T08:18:19Z</time>
      </trkpt>
      <trkpt lat="44.44301" lon="5.43592">
        <ele>976</ele>
        <time>2013-05-11T08:18:24Z</time>
      </trkpt>
      <trkpt lat="44.44311" lon="5.43594">
        <ele>976.79998779297</ele>
        <time>2013-05-11T08:18:33Z</time>
      </trkpt>
      <trkpt lat="44.44327" lon="5.43612">
        <ele>978.20001220703</ele>
        <time>2013-05-11T08:18:47Z</time>
      </trkpt>
      <trkpt lat="44.44328" lon="5.43624">
        <ele>980</ele>
        <time>2013-05-11T08:18:53Z</time>
      </trkpt>
      <trkpt lat="44.44323" lon="5.43645">
        <ele>980.40002441406</ele>
        <time>2013-05-11T08:19:05Z</time>
      </trkpt>
      <trkpt lat="44.4432" lon="5.43649">
        <ele>982</ele>
        <time>2013-05-11T08:19:09Z</time>
      </trkpt>
      <trkpt lat="44.4432" lon="5.4365">
        <ele>982.40002441406</ele>
        <time>2013-05-11T08:19:10Z</time>
      </trkpt>
      <trkpt lat="44.44312" lon="5.43661">
        <ele>983.20001220703</ele>
        <time>2013-05-11T08:19:18Z</time>
      </trkpt>
      <trkpt lat="44.4431" lon="5.43664">
        <ele>984</ele>
        <time>2013-05-11T08:19:20Z</time>
      </trkpt>
      <trkpt lat="44.44301" lon="5.4368">
        <ele>985</ele>
        <time>2013-05-11T08:19:30Z</time>
      </trkpt>
      <trkpt lat="44.443" lon="5.43684">
        <ele>986</ele>
        <time>2013-05-11T08:19:32Z</time>
      </trkpt>
      <trkpt lat="44.44299" lon="5.437">
        <ele>986.79998779297</ele>
        <time>2013-05-11T08:19:42Z</time>
      </trkpt>
      <trkpt lat="44.44302" lon="5.43702">
        <ele>986.79998779297</ele>
        <time>2013-05-11T08:19:43Z</time>
      </trkpt>
      <trkpt lat="44.44321" lon="5.43701">
        <ele>987.79998779297</ele>
        <time>2013-05-11T08:19:55Z</time>
      </trkpt>
      <trkpt lat="44.44326" lon="5.43699">
        <ele>989</ele>
        <time>2013-05-11T08:19:58Z</time>
      </trkpt>
      <trkpt lat="44.44334" lon="5.43693">
        <ele>989</ele>
        <time>2013-05-11T08:20:04Z</time>
      </trkpt>
      <trkpt lat="44.44339" lon="5.43689">
        <ele>989</ele>
        <time>2013-05-11T08:20:08Z</time>
      </trkpt>
      <trkpt lat="44.44343" lon="5.43686">
        <ele>989</ele>
        <time>2013-05-11T08:20:11Z</time>
      </trkpt>
      <trkpt lat="44.44352" lon="5.43677">
        <ele>991.40002441406</ele>
        <time>2013-05-11T08:20:19Z</time>
      </trkpt>
      <trkpt lat="44.44358" lon="5.43667">
        <ele>992.40002441406</ele>
        <time>2013-05-11T08:20:26Z</time>
      </trkpt>
      <trkpt lat="44.44361" lon="5.43664">
        <ele>993.20001220703</ele>
        <time>2013-05-11T08:20:28Z</time>
      </trkpt>
      <trkpt lat="44.44368" lon="5.43656">
        <ele>993.79998779297</ele>
        <time>2013-05-11T08:20:35Z</time>
      </trkpt>
      <trkpt lat="44.44374" lon="5.43648">
        <ele>993.79998779297</ele>
        <time>2013-05-11T08:20:41Z</time>
      </trkpt>
      <trkpt lat="44.44382" lon="5.43638">
        <ele>993.79998779297</ele>
        <time>2013-05-11T08:20:48Z</time>
      </trkpt>
      <trkpt lat="44.44388" lon="5.4363">
        <ele>996</ele>
        <time>2013-05-11T08:20:53Z</time>
      </trkpt>
      <trkpt lat="44.44391" lon="5.43626">
        <ele>996</ele>
        <time>2013-05-11T08:20:56Z</time>
      </trkpt>
      <trkpt lat="44.44398" lon="5.43618">
        <ele>998.40002441406</ele>
        <time>2013-05-11T08:21:03Z</time>
      </trkpt>
      <trkpt lat="44.44409" lon="5.43604">
        <ele>998.40002441406</ele>
        <time>2013-05-11T08:21:12Z</time>
      </trkpt>
      <trkpt lat="44.44419" lon="5.43595">
        <ele>998.79998779297</ele>
        <time>2013-05-11T08:21:19Z</time>
      </trkpt>
      <trkpt lat="44.44421" lon="5.43594">
        <ele>999.40002441406</ele>
        <time>2013-05-11T08:21:20Z</time>
      </trkpt>
      <trkpt lat="44.44435" lon="5.43584">
        <ele>1000.5999755859</ele>
        <time>2013-05-11T08:21:32Z</time>
      </trkpt>
      <trkpt lat="44.44437" lon="5.43579">
        <ele>1000.5999755859</ele>
        <time>2013-05-11T08:21:34Z</time>
      </trkpt>
      <trkpt lat="44.4444" lon="5.43576">
        <ele>1001.200012207</ele>
        <time>2013-05-11T08:21:36Z</time>
      </trkpt>
      <trkpt lat="44.44445" lon="5.43568">
        <ele>1003</ele>
        <time>2013-05-11T08:21:40Z</time>
      </trkpt>
      <trkpt lat="44.44458" lon="5.43562">
        <ele>1003</ele>
        <time>2013-05-11T08:21:49Z</time>
      </trkpt>
      <trkpt lat="44.44472" lon="5.43549">
        <ele>1003</ele>
        <time>2013-05-11T08:21:58Z</time>
      </trkpt>
      <trkpt lat="44.44482" lon="5.4354">
        <ele>1003</ele>
        <time>2013-05-11T08:22:04Z</time>
      </trkpt>
      <trkpt lat="44.44496" lon="5.4353">
        <ele>1005</ele>
        <time>2013-05-11T08:22:12Z</time>
      </trkpt>
      <trkpt lat="44.44508" lon="5.43522">
        <ele>1005</ele>
        <time>2013-05-11T08:22:18Z</time>
      </trkpt>
      <trkpt lat="44.44514" lon="5.43519">
        <ele>1005.4000244141</ele>
        <time>2013-05-11T08:22:21Z</time>
      </trkpt>
      <trkpt lat="44.44521" lon="5.43519">
        <ele>1007.200012207</ele>
        <time>2013-05-11T08:22:25Z</time>
      </trkpt>
      <trkpt lat="44.44522" lon="5.4352">
        <ele>1007.200012207</ele>
        <time>2013-05-11T08:22:26Z</time>
      </trkpt>
      <trkpt lat="44.4453" lon="5.43519">
        <ele>1007.200012207</ele>
        <time>2013-05-11T08:22:34Z</time>
      </trkpt>
      <trkpt lat="44.4453" lon="5.43521">
        <ele>1007.200012207</ele>
        <time>2013-05-11T08:22:44Z</time>
      </trkpt>
      <trkpt lat="44.4453" lon="5.4352">
        <ele>1007.200012207</ele>
        <time>2013-05-11T08:23:03Z</time>
      </trkpt>
      <trkpt lat="44.44529" lon="5.43521">
        <ele>1007.200012207</ele>
        <time>2013-05-11T08:23:30Z</time>
      </trkpt>
      <trkpt lat="44.44528" lon="5.43532">
        <ele>1007.200012207</ele>
        <time>2013-05-11T08:24:26Z</time>
      </trkpt>
      <trkpt lat="44.44527" lon="5.43529">
        <ele>1007.200012207</ele>
        <time>2013-05-11T08:25:10Z</time>
      </trkpt>
      <trkpt lat="44.44528" lon="5.43532">
        <ele>1007.200012207</ele>
        <time>2013-05-11T08:25:18Z</time>
      </trkpt>
      <trkpt lat="44.44511" lon="5.43547">
        <ele>1009.200012207</ele>
        <time>2013-05-11T08:25:40Z</time>
      </trkpt>
      <trkpt lat="44.44503" lon="5.43555">
        <ele>1010</ele>
        <time>2013-05-11T08:25:46Z</time>
      </trkpt>
      <trkpt lat="44.445" lon="5.43558">
        <ele>1011.4000244141</ele>
        <time>2013-05-11T08:25:49Z</time>
      </trkpt>
      <trkpt lat="44.44494" lon="5.43566">
        <ele>1011.4000244141</ele>
        <time>2013-05-11T08:25:54Z</time>
      </trkpt>
      <trkpt lat="44.4449" lon="5.43572">
        <ele>1013.200012207</ele>
        <time>2013-05-11T08:25:58Z</time>
      </trkpt>
      <trkpt lat="44.44485" lon="5.43582">
        <ele>1014</ele>
        <time>2013-05-11T08:26:05Z</time>
      </trkpt>
      <trkpt lat="44.44478" lon="5.43604">
        <ele>1016</ele>
        <time>2013-05-11T08:26:19Z</time>
      </trkpt>
      <trkpt lat="44.44471" lon="5.43614">
        <ele>1017.5999755859</ele>
        <time>2013-05-11T08:26:27Z</time>
      </trkpt>
      <trkpt lat="44.44468" lon="5.4362">
        <ele>1018</ele>
        <time>2013-05-11T08:26:31Z</time>
      </trkpt>
      <trkpt lat="44.44467" lon="5.43621">
        <ele>1018.799987793</ele>
        <time>2013-05-11T08:26:32Z</time>
      </trkpt>
      <trkpt lat="44.44456" lon="5.4363">
        <ele>1020.5999755859</ele>
        <time>2013-05-11T08:26:42Z</time>
      </trkpt>
      <trkpt lat="44.44455" lon="5.43631">
        <ele>1021</ele>
        <time>2013-05-11T08:26:43Z</time>
      </trkpt>
      <trkpt lat="44.44444" lon="5.43642">
        <ele>1021.799987793</ele>
        <time>2013-05-11T08:26:54Z</time>
      </trkpt>
      <trkpt lat="44.4444" lon="5.43645">
        <ele>1023.200012207</ele>
        <time>2013-05-11T08:26:57Z</time>
      </trkpt>
      <trkpt lat="44.44432" lon="5.43654">
        <ele>1024</ele>
        <time>2013-05-11T08:27:05Z</time>
      </trkpt>
      <trkpt lat="44.44427" lon="5.43659">
        <ele>1024.4000244141</ele>
        <time>2013-05-11T08:27:11Z</time>
      </trkpt>
      <trkpt lat="44.44426" lon="5.43661">
        <ele>1024.8000488281</ele>
        <time>2013-05-11T08:27:12Z</time>
      </trkpt>
      <trkpt lat="44.44412" lon="5.43669">
        <ele>1026.4000244141</ele>
        <time>2013-05-11T08:27:24Z</time>
      </trkpt>
      <trkpt lat="44.44411" lon="5.4367">
        <ele>1027</ele>
        <time>2013-05-11T08:27:25Z</time>
      </trkpt>
      <trkpt lat="44.4441" lon="5.43673">
        <ele>1027.8000488281</ele>
        <time>2013-05-11T08:27:27Z</time>
      </trkpt>
      <trkpt lat="44.44404" lon="5.4368">
        <ele>1028.5999755859</ele>
        <time>2013-05-11T08:27:34Z</time>
      </trkpt>
      <trkpt lat="44.44397" lon="5.43695">
        <ele>1030.5999755859</ele>
        <time>2013-05-11T08:27:45Z</time>
      </trkpt>
      <trkpt lat="44.44395" lon="5.437">
        <ele>1031.5999755859</ele>
        <time>2013-05-11T08:27:48Z</time>
      </trkpt>
      <trkpt lat="44.44389" lon="5.43709">
        <ele>1032.4000244141</ele>
        <time>2013-05-11T08:27:56Z</time>
      </trkpt>
      <trkpt lat="44.44387" lon="5.43713">
        <ele>1032.8000488281</ele>
        <time>2013-05-11T08:27:59Z</time>
      </trkpt>
      <trkpt lat="44.44383" lon="5.4372">
        <ele>1034.4000244141</ele>
        <time>2013-05-11T08:28:05Z</time>
      </trkpt>
      <trkpt lat="44.4438" lon="5.43726">
        <ele>1034.4000244141</ele>
        <time>2013-05-11T08:28:10Z</time>
      </trkpt>
      <trkpt lat="44.44375" lon="5.43736">
        <ele>1034.8000488281</ele>
        <time>2013-05-11T08:28:16Z</time>
      </trkpt>
      <trkpt lat="44.44373" lon="5.43741">
        <ele>1035.5999755859</ele>
        <time>2013-05-11T08:28:18Z</time>
      </trkpt>
      <trkpt lat="44.44371" lon="5.4375">
        <ele>1036.5999755859</ele>
        <time>2013-05-11T08:28:22Z</time>
      </trkpt>
      <trkpt lat="44.44371" lon="5.43764">
        <ele>1036.5999755859</ele>
        <time>2013-05-11T08:28:28Z</time>
      </trkpt>
      <trkpt lat="44.44371" lon="5.43772">
        <ele>1037.4000244141</ele>
        <time>2013-05-11T08:28:32Z</time>
      </trkpt>
      <trkpt lat="44.44369" lon="5.43788">
        <ele>1039.1999511719</ele>
        <time>2013-05-11T08:28:42Z</time>
      </trkpt>
      <trkpt lat="44.44369" lon="5.4379">
        <ele>1039.5999755859</ele>
        <time>2013-05-11T08:28:43Z</time>
      </trkpt>
      <trkpt lat="44.44363" lon="5.43821">
        <ele>1041</ele>
        <time>2013-05-11T08:28:52Z</time>
      </trkpt>
      <trkpt lat="44.44358" lon="5.43831">
        <ele>1041.4000244141</ele>
        <time>2013-05-11T08:28:56Z</time>
      </trkpt>
      <trkpt lat="44.44353" lon="5.43841">
        <ele>1043</ele>
        <time>2013-05-11T08:29:01Z</time>
      </trkpt>
      <trkpt lat="44.44348" lon="5.43852">
        <ele>1043</ele>
        <time>2013-05-11T08:29:06Z</time>
      </trkpt>
      <trkpt lat="44.44342" lon="5.43869">
        <ele>1043</ele>
        <time>2013-05-11T08:29:13Z</time>
      </trkpt>
      <trkpt lat="44.44338" lon="5.43882">
        <ele>1043</ele>
        <time>2013-05-11T08:29:19Z</time>
      </trkpt>
      <trkpt lat="44.44336" lon="5.43892">
        <ele>1043.5999755859</ele>
        <time>2013-05-11T08:29:23Z</time>
      </trkpt>
      <trkpt lat="44.44334" lon="5.43901">
        <ele>1044.8000488281</ele>
        <time>2013-05-11T08:29:27Z</time>
      </trkpt>
      <trkpt lat="44.44331" lon="5.43917">
        <ele>1045.8000488281</ele>
        <time>2013-05-11T08:29:35Z</time>
      </trkpt>
      <trkpt lat="44.44331" lon="5.43921">
        <ele>1046.1999511719</ele>
        <time>2013-05-11T08:29:37Z</time>
      </trkpt>
      <trkpt lat="44.44328" lon="5.43938">
        <ele>1047.8000488281</ele>
        <time>2013-05-11T08:29:45Z</time>
      </trkpt>
      <trkpt lat="44.44327" lon="5.43943">
        <ele>1048.1999511719</ele>
        <time>2013-05-11T08:29:47Z</time>
      </trkpt>
      <trkpt lat="44.44324" lon="5.43951">
        <ele>1049.5999755859</ele>
        <time>2013-05-11T08:29:51Z</time>
      </trkpt>
      <trkpt lat="44.44315" lon="5.43973">
        <ele>1050</ele>
        <time>2013-05-11T08:30:02Z</time>
      </trkpt>
      <trkpt lat="44.44312" lon="5.43981">
        <ele>1050.8000488281</ele>
        <time>2013-05-11T08:30:06Z</time>
      </trkpt>
      <trkpt lat="44.4431" lon="5.43985">
        <ele>1051.5999755859</ele>
        <time>2013-05-11T08:30:08Z</time>
      </trkpt>
      <trkpt lat="44.44302" lon="5.44003">
        <ele>1052</ele>
        <time>2013-05-11T08:30:17Z</time>
      </trkpt>
      <trkpt lat="44.44296" lon="5.44017">
        <ele>1052.4000244141</ele>
        <time>2013-05-11T08:30:24Z</time>
      </trkpt>
      <trkpt lat="44.44291" lon="5.44023">
        <ele>1053.8000488281</ele>
        <time>2013-05-11T08:30:27Z</time>
      </trkpt>
      <trkpt lat="44.44289" lon="5.44028">
        <ele>1054.1999511719</ele>
        <time>2013-05-11T08:30:30Z</time>
      </trkpt>
      <trkpt lat="44.44284" lon="5.44042">
        <ele>1055</ele>
        <time>2013-05-11T08:30:37Z</time>
      </trkpt>
      <trkpt lat="44.4428" lon="5.44052">
        <ele>1056.4000244141</ele>
        <time>2013-05-11T08:30:42Z</time>
      </trkpt>
      <trkpt lat="44.44273" lon="5.44069">
        <ele>1056.4000244141</ele>
        <time>2013-05-11T08:30:51Z</time>
      </trkpt>
      <trkpt lat="44.44267" lon="5.44079">
        <ele>1056.8000488281</ele>
        <time>2013-05-11T08:30:55Z</time>
      </trkpt>
      <trkpt lat="44.44266" lon="5.44081">
        <ele>1057.1999511719</ele>
        <time>2013-05-11T08:30:56Z</time>
      </trkpt>
      <trkpt lat="44.44254" lon="5.44099">
        <ele>1058.4000244141</ele>
        <time>2013-05-11T08:31:07Z</time>
      </trkpt>
      <trkpt lat="44.44252" lon="5.44102">
        <ele>1058.8000488281</ele>
        <time>2013-05-11T08:31:09Z</time>
      </trkpt>
      <trkpt lat="44.44249" lon="5.44106">
        <ele>1060.1999511719</ele>
        <time>2013-05-11T08:31:12Z</time>
      </trkpt>
      <trkpt lat="44.44243" lon="5.44114">
        <ele>1060.5999755859</ele>
        <time>2013-05-11T08:31:16Z</time>
      </trkpt>
      <trkpt lat="44.44234" lon="5.44124">
        <ele>1060.5999755859</ele>
        <time>2013-05-11T08:31:24Z</time>
      </trkpt>
      <trkpt lat="44.44228" lon="5.44126">
        <ele>1061</ele>
        <time>2013-05-11T08:31:27Z</time>
      </trkpt>
      <trkpt lat="44.4422" lon="5.4413">
        <ele>1062.5999755859</ele>
        <time>2013-05-11T08:31:31Z</time>
      </trkpt>
      <trkpt lat="44.44207" lon="5.44136">
        <ele>1062.5999755859</ele>
        <time>2013-05-11T08:31:37Z</time>
      </trkpt>
      <trkpt lat="44.44186" lon="5.44145">
        <ele>1062.5999755859</ele>
        <time>2013-05-11T08:31:44Z</time>
      </trkpt>
      <trkpt lat="44.4417" lon="5.44161">
        <ele>1062.5999755859</ele>
        <time>2013-05-11T08:31:50Z</time>
      </trkpt>
      <trkpt lat="44.44152" lon="5.44179">
        <ele>1062.5999755859</ele>
        <time>2013-05-11T08:31:57Z</time>
      </trkpt>
      <trkpt lat="44.44131" lon="5.44196">
        <ele>1062.5999755859</ele>
        <time>2013-05-11T08:32:03Z</time>
      </trkpt>
      <trkpt lat="44.44123" lon="5.44202">
        <ele>1062.5999755859</ele>
        <time>2013-05-11T08:32:05Z</time>
      </trkpt>
      <trkpt lat="44.44112" lon="5.44213">
        <ele>1062.5999755859</ele>
        <time>2013-05-11T08:32:08Z</time>
      </trkpt>
      <trkpt lat="44.44097" lon="5.44233">
        <ele>1062.5999755859</ele>
        <time>2013-05-11T08:32:12Z</time>
      </trkpt>
      <trkpt lat="44.44083" lon="5.44269">
        <ele>1062.5999755859</ele>
        <time>2013-05-11T08:32:19Z</time>
      </trkpt>
      <trkpt lat="44.4408" lon="5.44292">
        <ele>1062.5999755859</ele>
        <time>2013-05-11T08:32:24Z</time>
      </trkpt>
      <trkpt lat="44.44083" lon="5.44317">
        <ele>1063</ele>
        <time>2013-05-11T08:32:29Z</time>
      </trkpt>
      <trkpt lat="44.44081" lon="5.44323">
        <ele>1063.4000244141</ele>
        <time>2013-05-11T08:32:30Z</time>
      </trkpt>
      <trkpt lat="44.4408" lon="5.44332">
        <ele>1064.1999511719</ele>
        <time>2013-05-11T08:32:32Z</time>
      </trkpt>
      <trkpt lat="44.44077" lon="5.44347">
        <ele>1064.5999755859</ele>
        <time>2013-05-11T08:32:35Z</time>
      </trkpt>
      <trkpt lat="44.44067" lon="5.44384">
        <ele>1064.5999755859</ele>
        <time>2013-05-11T08:32:40Z</time>
      </trkpt>
      <trkpt lat="44.44062" lon="5.44404">
        <ele>1064.1999511719</ele>
        <time>2013-05-11T08:32:42Z</time>
      </trkpt>
      <trkpt lat="44.44061" lon="5.44414">
        <ele>1063.8000488281</ele>
        <time>2013-05-11T08:32:43Z</time>
      </trkpt>
      <trkpt lat="44.44061" lon="5.44426">
        <ele>1063.1999511719</ele>
        <time>2013-05-11T08:32:44Z</time>
      </trkpt>
      <trkpt lat="44.4406" lon="5.44437">
        <ele>1062.8000488281</ele>
        <time>2013-05-11T08:32:45Z</time>
      </trkpt>
      <trkpt lat="44.44059" lon="5.44447">
        <ele>1062.4000244141</ele>
        <time>2013-05-11T08:32:46Z</time>
      </trkpt>
      <trkpt lat="44.44053" lon="5.44468">
        <ele>1062.4000244141</ele>
        <time>2013-05-11T08:32:48Z</time>
      </trkpt>
      <trkpt lat="44.44049" lon="5.44478">
        <ele>1061.8000488281</ele>
        <time>2013-05-11T08:32:49Z</time>
      </trkpt>
      <trkpt lat="44.44038" lon="5.44495">
        <ele>1061.4000244141</ele>
        <time>2013-05-11T08:32:51Z</time>
      </trkpt>
      <trkpt lat="44.44033" lon="5.44501">
        <ele>1061</ele>
        <time>2013-05-11T08:32:52Z</time>
      </trkpt>
      <trkpt lat="44.44028" lon="5.44507">
        <ele>1060.5999755859</ele>
        <time>2013-05-11T08:32:53Z</time>
      </trkpt>
      <trkpt lat="44.44023" lon="5.44513">
        <ele>1060</ele>
        <time>2013-05-11T08:32:54Z</time>
      </trkpt>
      <trkpt lat="44.44018" lon="5.4452">
        <ele>1060</ele>
        <time>2013-05-11T08:32:55Z</time>
      </trkpt>
      <trkpt lat="44.44014" lon="5.44528">
        <ele>1060</ele>
        <time>2013-05-11T08:32:56Z</time>
      </trkpt>
      <trkpt lat="44.44008" lon="5.44543">
        <ele>1060</ele>
        <time>2013-05-11T08:32:58Z</time>
      </trkpt>
      <trkpt lat="44.44003" lon="5.44554">
        <ele>1060</ele>
        <time>2013-05-11T08:33:00Z</time>
      </trkpt>
      <trkpt lat="44.43995" lon="5.44577">
        <ele>1060</ele>
        <time>2013-05-11T08:33:05Z</time>
      </trkpt>
      <trkpt lat="44.43995" lon="5.44591">
        <ele>1060.4000244141</ele>
        <time>2013-05-11T08:33:08Z</time>
      </trkpt>
      <trkpt lat="44.43996" lon="5.44603">
        <ele>1061.4000244141</ele>
        <time>2013-05-11T08:33:11Z</time>
      </trkpt>
      <trkpt lat="44.43998" lon="5.4461">
        <ele>1062.1999511719</ele>
        <time>2013-05-11T08:33:13Z</time>
      </trkpt>
      <trkpt lat="44.43999" lon="5.44622">
        <ele>1062.5999755859</ele>
        <time>2013-05-11T08:33:17Z</time>
      </trkpt>
      <trkpt lat="44.44" lon="5.44628">
        <ele>1063.4000244141</ele>
        <time>2013-05-11T08:33:19Z</time>
      </trkpt>
      <trkpt lat="44.44" lon="5.44635">
        <ele>1063.8000488281</ele>
        <time>2013-05-11T08:33:21Z</time>
      </trkpt>
      <trkpt lat="44.44001" lon="5.4465">
        <ele>1064.1999511719</ele>
        <time>2013-05-11T08:33:25Z</time>
      </trkpt>
      <trkpt lat="44.44004" lon="5.44674">
        <ele>1064.1999511719</ele>
        <time>2013-05-11T08:33:32Z</time>
      </trkpt>
      <trkpt lat="44.44006" lon="5.44681">
        <ele>1065.1999511719</ele>
        <time>2013-05-11T08:33:34Z</time>
      </trkpt>
      <trkpt lat="44.4401" lon="5.44691">
        <ele>1066.1999511719</ele>
        <time>2013-05-11T08:33:38Z</time>
      </trkpt>
      <trkpt lat="44.44017" lon="5.44707">
        <ele>1067.1999511719</ele>
        <time>2013-05-11T08:33:44Z</time>
      </trkpt>
      <trkpt lat="44.4402" lon="5.44711">
        <ele>1068</ele>
        <time>2013-05-11T08:33:46Z</time>
      </trkpt>
      <trkpt lat="44.44022" lon="5.44712">
        <ele>1068.4000244141</ele>
        <time>2013-05-11T08:33:47Z</time>
      </trkpt>
      <trkpt lat="44.4404" lon="5.44737">
        <ele>1068.8000488281</ele>
        <time>2013-05-11T08:33:58Z</time>
      </trkpt>
      <trkpt lat="44.44044" lon="5.44744">
        <ele>1069.4000244141</ele>
        <time>2013-05-11T08:34:01Z</time>
      </trkpt>
      <trkpt lat="44.44057" lon="5.44761">
        <ele>1070.5999755859</ele>
        <time>2013-05-11T08:34:08Z</time>
      </trkpt>
      <trkpt lat="44.44069" lon="5.44782">
        <ele>1071</ele>
        <time>2013-05-11T08:34:15Z</time>
      </trkpt>
      <trkpt lat="44.44072" lon="5.44805">
        <ele>1071</ele>
        <time>2013-05-11T08:34:21Z</time>
      </trkpt>
      <trkpt lat="44.44069" lon="5.44836">
        <ele>1071</ele>
        <time>2013-05-11T08:34:27Z</time>
      </trkpt>
      <trkpt lat="44.44068" lon="5.44842">
        <ele>1071</ele>
        <time>2013-05-11T08:34:28Z</time>
      </trkpt>
      <trkpt lat="44.44047" lon="5.44878">
        <ele>1071</ele>
        <time>2013-05-11T08:34:34Z</time>
      </trkpt>
      <trkpt lat="44.44033" lon="5.44894">
        <ele>1071</ele>
        <time>2013-05-11T08:34:37Z</time>
      </trkpt>
      <trkpt lat="44.44027" lon="5.44899">
        <ele>1071</ele>
        <time>2013-05-11T08:34:38Z</time>
      </trkpt>
      <trkpt lat="44.44017" lon="5.44907">
        <ele>1070.1999511719</ele>
        <time>2013-05-11T08:34:40Z</time>
      </trkpt>
      <trkpt lat="44.44011" lon="5.44911">
        <ele>1069.8000488281</ele>
        <time>2013-05-11T08:34:41Z</time>
      </trkpt>
      <trkpt lat="44.44006" lon="5.44916">
        <ele>1069.4000244141</ele>
        <time>2013-05-11T08:34:42Z</time>
      </trkpt>
      <trkpt lat="44.43996" lon="5.44927">
        <ele>1068.8000488281</ele>
        <time>2013-05-11T08:34:44Z</time>
      </trkpt>
      <trkpt lat="44.43991" lon="5.44933">
        <ele>1068.8000488281</ele>
        <time>2013-05-11T08:34:45Z</time>
      </trkpt>
      <trkpt lat="44.43969" lon="5.44958">
        <ele>1068.8000488281</ele>
        <time>2013-05-11T08:34:49Z</time>
      </trkpt>
      <trkpt lat="44.43964" lon="5.44965">
        <ele>1068.4000244141</ele>
        <time>2013-05-11T08:34:50Z</time>
      </trkpt>
      <trkpt lat="44.43959" lon="5.44973">
        <ele>1067.8000488281</ele>
        <time>2013-05-11T08:34:51Z</time>
      </trkpt>
      <trkpt lat="44.43956" lon="5.44992">
        <ele>1067.4000244141</ele>
        <time>2013-05-11T08:34:53Z</time>
      </trkpt>
      <trkpt lat="44.43956" lon="5.45001">
        <ele>1066.4000244141</ele>
        <time>2013-05-11T08:34:54Z</time>
      </trkpt>
      <trkpt lat="44.43958" lon="5.45021">
        <ele>1066.4000244141</ele>
        <time>2013-05-11T08:34:56Z</time>
      </trkpt>
      <trkpt lat="44.43959" lon="5.4503">
        <ele>1066.4000244141</ele>
        <time>2013-05-11T08:34:57Z</time>
      </trkpt>
      <trkpt lat="44.43961" lon="5.4505">
        <ele>1066.4000244141</ele>
        <time>2013-05-11T08:34:59Z</time>
      </trkpt>
      <trkpt lat="44.43963" lon="5.4509">
        <ele>1066</ele>
        <time>2013-05-11T08:35:03Z</time>
      </trkpt>
      <trkpt lat="44.43963" lon="5.451">
        <ele>1065.1999511719</ele>
        <time>2013-05-11T08:35:04Z</time>
      </trkpt>
      <trkpt lat="44.43962" lon="5.45109">
        <ele>1064.5999755859</ele>
        <time>2013-05-11T08:35:05Z</time>
      </trkpt>
      <trkpt lat="44.43957" lon="5.45128">
        <ele>1064.1999511719</ele>
        <time>2013-05-11T08:35:07Z</time>
      </trkpt>
      <trkpt lat="44.4394" lon="5.45145">
        <ele>1064.1999511719</ele>
        <time>2013-05-11T08:35:10Z</time>
      </trkpt>
      <trkpt lat="44.4392" lon="5.45149">
        <ele>1064.1999511719</ele>
        <time>2013-05-11T08:35:13Z</time>
      </trkpt>
      <trkpt lat="44.439" lon="5.45139">
        <ele>1063.5999755859</ele>
        <time>2013-05-11T08:35:16Z</time>
      </trkpt>
      <trkpt lat="44.4388" lon="5.45132">
        <ele>1063.1999511719</ele>
        <time>2013-05-11T08:35:19Z</time>
      </trkpt>
      <trkpt lat="44.43874" lon="5.45134">
        <ele>1061.8000488281</ele>
        <time>2013-05-11T08:35:20Z</time>
      </trkpt>
      <trkpt lat="44.43861" lon="5.45143">
        <ele>1061</ele>
        <time>2013-05-11T08:35:22Z</time>
      </trkpt>
      <trkpt lat="44.43854" lon="5.4515">
        <ele>1060.4000244141</ele>
        <time>2013-05-11T08:35:23Z</time>
      </trkpt>
      <trkpt lat="44.43847" lon="5.45157">
        <ele>1058.8000488281</ele>
        <time>2013-05-11T08:35:24Z</time>
      </trkpt>
      <trkpt lat="44.43841" lon="5.45165">
        <ele>1058</ele>
        <time>2013-05-11T08:35:25Z</time>
      </trkpt>
      <trkpt lat="44.43835" lon="5.45187">
        <ele>1057.1999511719</ele>
        <time>2013-05-11T08:35:27Z</time>
      </trkpt>
      <trkpt lat="44.43834" lon="5.45209">
        <ele>1056</ele>
        <time>2013-05-11T08:35:29Z</time>
      </trkpt>
      <trkpt lat="44.43833" lon="5.4523">
        <ele>1055.5999755859</ele>
        <time>2013-05-11T08:35:31Z</time>
      </trkpt>
      <trkpt lat="44.43832" lon="5.4524">
        <ele>1055</ele>
        <time>2013-05-11T08:35:32Z</time>
      </trkpt>
      <trkpt lat="44.43829" lon="5.45259">
        <ele>1053.5999755859</ele>
        <time>2013-05-11T08:35:34Z</time>
      </trkpt>
      <trkpt lat="44.43826" lon="5.45286">
        <ele>1053.5999755859</ele>
        <time>2013-05-11T08:35:37Z</time>
      </trkpt>
      <trkpt lat="44.43821" lon="5.45302">
        <ele>1053.1999511719</ele>
        <time>2013-05-11T08:35:39Z</time>
      </trkpt>
      <trkpt lat="44.43818" lon="5.4531">
        <ele>1052.4000244141</ele>
        <time>2013-05-11T08:35:40Z</time>
      </trkpt>
      <trkpt lat="44.43806" lon="5.45342">
        <ele>1052.4000244141</ele>
        <time>2013-05-11T08:35:44Z</time>
      </trkpt>
      <trkpt lat="44.43793" lon="5.45383">
        <ele>1052.4000244141</ele>
        <time>2013-05-11T08:35:49Z</time>
      </trkpt>
      <trkpt lat="44.43787" lon="5.45398">
        <ele>1052.4000244141</ele>
        <time>2013-05-11T08:35:51Z</time>
      </trkpt>
      <trkpt lat="44.43776" lon="5.45421">
        <ele>1052.4000244141</ele>
        <time>2013-05-11T08:35:54Z</time>
      </trkpt>
      <trkpt lat="44.43767" lon="5.45447">
        <ele>1052.4000244141</ele>
        <time>2013-05-11T08:35:57Z</time>
      </trkpt>
      <trkpt lat="44.43763" lon="5.45456">
        <ele>1052.4000244141</ele>
        <time>2013-05-11T08:35:58Z</time>
      </trkpt>
      <trkpt lat="44.43751" lon="5.45472">
        <ele>1052.4000244141</ele>
        <time>2013-05-11T08:36:00Z</time>
      </trkpt>
      <trkpt lat="44.43729" lon="5.45488">
        <ele>1052.4000244141</ele>
        <time>2013-05-11T08:36:03Z</time>
      </trkpt>
      <trkpt lat="44.43722" lon="5.45494">
        <ele>1052.4000244141</ele>
        <time>2013-05-11T08:36:04Z</time>
      </trkpt>
      <trkpt lat="44.43704" lon="5.45514">
        <ele>1051.8000488281</ele>
        <time>2013-05-11T08:36:07Z</time>
      </trkpt>
      <trkpt lat="44.43699" lon="5.45521">
        <ele>1051.4000244141</ele>
        <time>2013-05-11T08:36:08Z</time>
      </trkpt>
      <trkpt lat="44.43679" lon="5.45535">
        <ele>1050.5999755859</ele>
        <time>2013-05-11T08:36:11Z</time>
      </trkpt>
      <trkpt lat="44.43662" lon="5.45547">
        <ele>1050.1999511719</ele>
        <time>2013-05-11T08:36:14Z</time>
      </trkpt>
      <trkpt lat="44.43641" lon="5.45572">
        <ele>1050.1999511719</ele>
        <time>2013-05-11T08:36:19Z</time>
      </trkpt>
      <trkpt lat="44.43618" lon="5.45581">
        <ele>1050.1999511719</ele>
        <time>2013-05-11T08:36:23Z</time>
      </trkpt>
      <trkpt lat="44.43583" lon="5.45594">
        <ele>1050.1999511719</ele>
        <time>2013-05-11T08:36:30Z</time>
      </trkpt>
      <trkpt lat="44.43578" lon="5.45596">
        <ele>1050.1999511719</ele>
        <time>2013-05-11T08:36:31Z</time>
      </trkpt>
      <trkpt lat="44.43563" lon="5.45594">
        <ele>1050.1999511719</ele>
        <time>2013-05-11T08:36:34Z</time>
      </trkpt>
      <trkpt lat="44.43555" lon="5.45586">
        <ele>1050.1999511719</ele>
        <time>2013-05-11T08:36:36Z</time>
      </trkpt>
      <trkpt lat="44.43542" lon="5.45573">
        <ele>1050.1999511719</ele>
        <time>2013-05-11T08:36:39Z</time>
      </trkpt>
      <trkpt lat="44.43538" lon="5.4557">
        <ele>1050.1999511719</ele>
        <time>2013-05-11T08:36:40Z</time>
      </trkpt>
      <trkpt lat="44.43522" lon="5.45566">
        <ele>1050.1999511719</ele>
        <time>2013-05-11T08:36:43Z</time>
      </trkpt>
      <trkpt lat="44.4351" lon="5.45575">
        <ele>1050.1999511719</ele>
        <time>2013-05-11T08:36:46Z</time>
      </trkpt>
      <trkpt lat="44.43504" lon="5.45593">
        <ele>1050.1999511719</ele>
        <time>2013-05-11T08:36:48Z</time>
      </trkpt>
      <trkpt lat="44.43502" lon="5.45603">
        <ele>1050.1999511719</ele>
        <time>2013-05-11T08:36:49Z</time>
      </trkpt>
      <trkpt lat="44.43494" lon="5.45631">
        <ele>1049.1999511719</ele>
        <time>2013-05-11T08:36:52Z</time>
      </trkpt>
      <trkpt lat="44.4349" lon="5.4564">
        <ele>1049.1999511719</ele>
        <time>2013-05-11T08:36:53Z</time>
      </trkpt>
      <trkpt lat="44.4348" lon="5.4566">
        <ele>1048.4000244141</ele>
        <time>2013-05-11T08:36:55Z</time>
      </trkpt>
      <trkpt lat="44.43474" lon="5.45669">
        <ele>1048.4000244141</ele>
        <time>2013-05-11T08:36:56Z</time>
      </trkpt>
      <trkpt lat="44.43467" lon="5.45676">
        <ele>1047</ele>
        <time>2013-05-11T08:36:57Z</time>
      </trkpt>
      <trkpt lat="44.43459" lon="5.45683">
        <ele>1047</ele>
        <time>2013-05-11T08:36:58Z</time>
      </trkpt>
      <trkpt lat="44.43442" lon="5.45693">
        <ele>1045.8000488281</ele>
        <time>2013-05-11T08:37:00Z</time>
      </trkpt>
      <trkpt lat="44.43435" lon="5.45698">
        <ele>1045.8000488281</ele>
        <time>2013-05-11T08:37:01Z</time>
      </trkpt>
      <trkpt lat="44.43429" lon="5.45704">
        <ele>1044.1999511719</ele>
        <time>2013-05-11T08:37:02Z</time>
      </trkpt>
      <trkpt lat="44.43426" lon="5.45714">
        <ele>1044.1999511719</ele>
        <time>2013-05-11T08:37:03Z</time>
      </trkpt>
      <trkpt lat="44.43423" lon="5.45724">
        <ele>1042.8000488281</ele>
        <time>2013-05-11T08:37:04Z</time>
      </trkpt>
      <trkpt lat="44.43408" lon="5.45758">
        <ele>1042.1999511719</ele>
        <time>2013-05-11T08:37:07Z</time>
      </trkpt>
      <trkpt lat="44.43393" lon="5.45774">
        <ele>1041.4000244141</ele>
        <time>2013-05-11T08:37:09Z</time>
      </trkpt>
      <trkpt lat="44.43385" lon="5.45778">
        <ele>1040.5999755859</ele>
        <time>2013-05-11T08:37:10Z</time>
      </trkpt>
      <trkpt lat="44.43368" lon="5.45784">
        <ele>1039.1999511719</ele>
        <time>2013-05-11T08:37:12Z</time>
      </trkpt>
      <trkpt lat="44.43355" lon="5.45795">
        <ele>1037.5999755859</ele>
        <time>2013-05-11T08:37:14Z</time>
      </trkpt>
      <trkpt lat="44.43349" lon="5.45803">
        <ele>1036.8000488281</ele>
        <time>2013-05-11T08:37:15Z</time>
      </trkpt>
      <trkpt lat="44.43341" lon="5.45812">
        <ele>1036</ele>
        <time>2013-05-11T08:37:16Z</time>
      </trkpt>
      <trkpt lat="44.43336" lon="5.45823">
        <ele>1036</ele>
        <time>2013-05-11T08:37:17Z</time>
      </trkpt>
      <trkpt lat="44.43324" lon="5.45854">
        <ele>1035.5999755859</ele>
        <time>2013-05-11T08:37:20Z</time>
      </trkpt>
      <trkpt lat="44.43323" lon="5.45866">
        <ele>1035.1999511719</ele>
        <time>2013-05-11T08:37:21Z</time>
      </trkpt>
      <trkpt lat="44.43321" lon="5.45878">
        <ele>1034.8000488281</ele>
        <time>2013-05-11T08:37:22Z</time>
      </trkpt>
      <trkpt lat="44.43319" lon="5.45891">
        <ele>1034.1999511719</ele>
        <time>2013-05-11T08:37:23Z</time>
      </trkpt>
      <trkpt lat="44.43316" lon="5.45902">
        <ele>1033.8000488281</ele>
        <time>2013-05-11T08:37:24Z</time>
      </trkpt>
      <trkpt lat="44.43314" lon="5.45914">
        <ele>1033.4000244141</ele>
        <time>2013-05-11T08:37:25Z</time>
      </trkpt>
      <trkpt lat="44.43311" lon="5.45928">
        <ele>1032.8000488281</ele>
        <time>2013-05-11T08:37:26Z</time>
      </trkpt>
      <trkpt lat="44.43307" lon="5.45941">
        <ele>1032.4000244141</ele>
        <time>2013-05-11T08:37:27Z</time>
      </trkpt>
      <trkpt lat="44.43303" lon="5.45954">
        <ele>1031.8000488281</ele>
        <time>2013-05-11T08:37:28Z</time>
      </trkpt>
      <trkpt lat="44.43297" lon="5.45965">
        <ele>1031</ele>
        <time>2013-05-11T08:37:29Z</time>
      </trkpt>
      <trkpt lat="44.4329" lon="5.45975">
        <ele>1030.1999511719</ele>
        <time>2013-05-11T08:37:30Z</time>
      </trkpt>
      <trkpt lat="44.43277" lon="5.45993">
        <ele>1028.8000488281</ele>
        <time>2013-05-11T08:37:32Z</time>
      </trkpt>
      <trkpt lat="44.43269" lon="5.46037">
        <ele>1028.8000488281</ele>
        <time>2013-05-11T08:37:36Z</time>
      </trkpt>
      <trkpt lat="44.43265" lon="5.46059">
        <ele>1028.4000244141</ele>
        <time>2013-05-11T08:37:38Z</time>
      </trkpt>
      <trkpt lat="44.43262" lon="5.46069">
        <ele>1028</ele>
        <time>2013-05-11T08:37:39Z</time>
      </trkpt>
      <trkpt lat="44.43259" lon="5.4608">
        <ele>1027.5999755859</ele>
        <time>2013-05-11T08:37:40Z</time>
      </trkpt>
      <trkpt lat="44.43255" lon="5.46089">
        <ele>1027</ele>
        <time>2013-05-11T08:37:41Z</time>
      </trkpt>
      <trkpt lat="44.43251" lon="5.46097">
        <ele>1026.5999755859</ele>
        <time>2013-05-11T08:37:42Z</time>
      </trkpt>
      <trkpt lat="44.43246" lon="5.46103">
        <ele>1027.1999511719</ele>
        <time>2013-05-11T08:37:43Z</time>
      </trkpt>
      <trkpt lat="44.4324" lon="5.46108">
        <ele>1027.5999755859</ele>
        <time>2013-05-11T08:37:44Z</time>
      </trkpt>
      <trkpt lat="44.43233" lon="5.46112">
        <ele>1028</ele>
        <time>2013-05-11T08:37:45Z</time>
      </trkpt>
      <trkpt lat="44.43219" lon="5.46115">
        <ele>1028.5999755859</ele>
        <time>2013-05-11T08:37:47Z</time>
      </trkpt>
      <trkpt lat="44.43203" lon="5.46118">
        <ele>1029</ele>
        <time>2013-05-11T08:37:49Z</time>
      </trkpt>
      <trkpt lat="44.43169" lon="5.46131">
        <ele>1029</ele>
        <time>2013-05-11T08:37:54Z</time>
      </trkpt>
      <trkpt lat="44.43147" lon="5.46134">
        <ele>1029</ele>
        <time>2013-05-11T08:37:57Z</time>
      </trkpt>
      <trkpt lat="44.43107" lon="5.46141">
        <ele>1029</ele>
        <time>2013-05-11T08:38:02Z</time>
      </trkpt>
      <trkpt lat="44.43084" lon="5.46157">
        <ele>1029</ele>
        <time>2013-05-11T08:38:05Z</time>
      </trkpt>
      <trkpt lat="44.4306" lon="5.46167">
        <ele>1029</ele>
        <time>2013-05-11T08:38:08Z</time>
      </trkpt>
      <trkpt lat="44.43043" lon="5.46175">
        <ele>1028.5999755859</ele>
        <time>2013-05-11T08:38:10Z</time>
      </trkpt>
      <trkpt lat="44.43036" lon="5.4618">
        <ele>1028</ele>
        <time>2013-05-11T08:38:11Z</time>
      </trkpt>
      <trkpt lat="44.43027" lon="5.46184">
        <ele>1028</ele>
        <time>2013-05-11T08:38:12Z</time>
      </trkpt>
      <trkpt lat="44.43014" lon="5.46188">
        <ele>1027</ele>
        <time>2013-05-11T08:38:14Z</time>
      </trkpt>
      <trkpt lat="44.43002" lon="5.46193">
        <ele>1026.4000244141</ele>
        <time>2013-05-11T08:38:16Z</time>
      </trkpt>
      <trkpt lat="44.42992" lon="5.46198">
        <ele>1027</ele>
        <time>2013-05-11T08:38:18Z</time>
      </trkpt>
      <trkpt lat="44.42989" lon="5.46201">
        <ele>1027.4000244141</ele>
        <time>2013-05-11T08:38:19Z</time>
      </trkpt>
      <trkpt lat="44.42979" lon="5.46207">
        <ele>1029</ele>
        <time>2013-05-11T08:38:22Z</time>
      </trkpt>
      <trkpt lat="44.42971" lon="5.46213">
        <ele>1030.1999511719</ele>
        <time>2013-05-11T08:38:25Z</time>
      </trkpt>
      <trkpt lat="44.42969" lon="5.46215">
        <ele>1030.5999755859</ele>
        <time>2013-05-11T08:38:26Z</time>
      </trkpt>
      <trkpt lat="44.4296" lon="5.46221">
        <ele>1031</ele>
        <time>2013-05-11T08:38:30Z</time>
      </trkpt>
      <trkpt lat="44.42958" lon="5.46222">
        <ele>1031.5999755859</ele>
        <time>2013-05-11T08:38:31Z</time>
      </trkpt>
      <trkpt lat="44.42947" lon="5.46227">
        <ele>1033.1999511719</ele>
        <time>2013-05-11T08:38:37Z</time>
      </trkpt>
      <trkpt lat="44.42939" lon="5.46228">
        <ele>1035.1999511719</ele>
        <time>2013-05-11T08:38:41Z</time>
      </trkpt>
      <trkpt lat="44.42922" lon="5.46227">
        <ele>1035.5999755859</ele>
        <time>2013-05-11T08:38:50Z</time>
      </trkpt>
      <trkpt lat="44.4292" lon="5.46227">
        <ele>1036</ele>
        <time>2013-05-11T08:38:51Z</time>
      </trkpt>
      <trkpt lat="44.42909" lon="5.46224">
        <ele>1037.4000244141</ele>
        <time>2013-05-11T08:38:58Z</time>
      </trkpt>
      <trkpt lat="44.42897" lon="5.46219">
        <ele>1039.4000244141</ele>
        <time>2013-05-11T08:39:06Z</time>
      </trkpt>
      <trkpt lat="44.42889" lon="5.46216">
        <ele>1040.5999755859</ele>
        <time>2013-05-11T08:39:10Z</time>
      </trkpt>
      <trkpt lat="44.42874" lon="5.46209">
        <ele>1041.8000488281</ele>
        <time>2013-05-11T08:39:19Z</time>
      </trkpt>
      <trkpt lat="44.4287" lon="5.46208">
        <ele>1042.1999511719</ele>
        <time>2013-05-11T08:39:21Z</time>
      </trkpt>
      <trkpt lat="44.42856" lon="5.46204">
        <ele>1043.4000244141</ele>
        <time>2013-05-11T08:39:29Z</time>
      </trkpt>
      <trkpt lat="44.42847" lon="5.462">
        <ele>1043.8000488281</ele>
        <time>2013-05-11T08:39:34Z</time>
      </trkpt>
      <trkpt lat="44.42839" lon="5.46194">
        <ele>1046</ele>
        <time>2013-05-11T08:39:41Z</time>
      </trkpt>
      <trkpt lat="44.42821" lon="5.46189">
        <ele>1047.8000488281</ele>
        <time>2013-05-11T08:39:52Z</time>
      </trkpt>
      <trkpt lat="44.42815" lon="5.46188">
        <ele>1048.5999755859</ele>
        <time>2013-05-11T08:39:55Z</time>
      </trkpt>
      <trkpt lat="44.4281" lon="5.46187">
        <ele>1049.8000488281</ele>
        <time>2013-05-11T08:39:58Z</time>
      </trkpt>
      <trkpt lat="44.42794" lon="5.46186">
        <ele>1050.5999755859</ele>
        <time>2013-05-11T08:40:06Z</time>
      </trkpt>
      <trkpt lat="44.4279" lon="5.46187">
        <ele>1051.4000244141</ele>
        <time>2013-05-11T08:40:08Z</time>
      </trkpt>
      <trkpt lat="44.42774" lon="5.46194">
        <ele>1052</ele>
        <time>2013-05-11T08:40:16Z</time>
      </trkpt>
      <trkpt lat="44.4277" lon="5.46195">
        <ele>1052.4000244141</ele>
        <time>2013-05-11T08:40:19Z</time>
      </trkpt>
      <trkpt lat="44.42759" lon="5.46199">
        <ele>1054</ele>
        <time>2013-05-11T08:40:24Z</time>
      </trkpt>
      <trkpt lat="44.42757" lon="5.462">
        <ele>1054</ele>
        <time>2013-05-11T08:40:25Z</time>
      </trkpt>
      <trkpt lat="44.4275" lon="5.46204">
        <ele>1054.8000488281</ele>
        <time>2013-05-11T08:40:29Z</time>
      </trkpt>
      <trkpt lat="44.42739" lon="5.46209">
        <ele>1056.8000488281</ele>
        <time>2013-05-11T08:40:37Z</time>
      </trkpt>
      <trkpt lat="44.42732" lon="5.46211">
        <ele>1058.1999511719</ele>
        <time>2013-05-11T08:40:41Z</time>
      </trkpt>
      <trkpt lat="44.42729" lon="5.46211">
        <ele>1058.5999755859</ele>
        <time>2013-05-11T08:40:43Z</time>
      </trkpt>
      <trkpt lat="44.42719" lon="5.46213">
        <ele>1060.5999755859</ele>
        <time>2013-05-11T08:40:51Z</time>
      </trkpt>
      <trkpt lat="44.42709" lon="5.46216">
        <ele>1062.1999511719</ele>
        <time>2013-05-11T08:40:56Z</time>
      </trkpt>
      <trkpt lat="44.42698" lon="5.46217">
        <ele>1063.5999755859</ele>
        <time>2013-05-11T08:41:02Z</time>
      </trkpt>
      <trkpt lat="44.42692" lon="5.46225">
        <ele>1065</ele>
        <time>2013-05-11T08:41:09Z</time>
      </trkpt>
      <trkpt lat="44.4269" lon="5.46227">
        <ele>1066.1999511719</ele>
        <time>2013-05-11T08:41:11Z</time>
      </trkpt>
      <trkpt lat="44.42687" lon="5.4623">
        <ele>1066.8000488281</ele>
        <time>2013-05-11T08:41:13Z</time>
      </trkpt>
      <trkpt lat="44.42667" lon="5.46242">
        <ele>1067.1999511719</ele>
        <time>2013-05-11T08:41:24Z</time>
      </trkpt>
      <trkpt lat="44.42659" lon="5.46244">
        <ele>1068.4000244141</ele>
        <time>2013-05-11T08:41:28Z</time>
      </trkpt>
      <trkpt lat="44.42645" lon="5.46247">
        <ele>1068.8000488281</ele>
        <time>2013-05-11T08:41:34Z</time>
      </trkpt>
      <trkpt lat="44.42625" lon="5.46254">
        <ele>1068.8000488281</ele>
        <time>2013-05-11T08:41:40Z</time>
      </trkpt>
      <trkpt lat="44.42591" lon="5.46258">
        <ele>1068.8000488281</ele>
        <time>2013-05-11T08:41:46Z</time>
      </trkpt>
      <trkpt lat="44.42578" lon="5.46255">
        <ele>1068.8000488281</ele>
        <time>2013-05-11T08:41:48Z</time>
      </trkpt>
      <trkpt lat="44.42566" lon="5.46251">
        <ele>1068.8000488281</ele>
        <time>2013-05-11T08:41:50Z</time>
      </trkpt>
      <trkpt lat="44.42561" lon="5.46249">
        <ele>1067.8000488281</ele>
        <time>2013-05-11T08:41:51Z</time>
      </trkpt>
      <trkpt lat="44.42557" lon="5.46249">
        <ele>1067.1999511719</ele>
        <time>2013-05-11T08:41:52Z</time>
      </trkpt>
      <trkpt lat="44.42548" lon="5.46246">
        <ele>1066.1999511719</ele>
        <time>2013-05-11T08:41:57Z</time>
      </trkpt>
      <trkpt lat="44.42538" lon="5.46246">
        <ele>1066.1999511719</ele>
        <time>2013-05-11T08:42:03Z</time>
      </trkpt>
      <trkpt lat="44.42529" lon="5.46243">
        <ele>1067.1999511719</ele>
        <time>2013-05-11T08:42:09Z</time>
      </trkpt>
      <trkpt lat="44.42516" lon="5.46243">
        <ele>1069</ele>
        <time>2013-05-11T08:42:18Z</time>
      </trkpt>
      <trkpt lat="44.42503" lon="5.46245">
        <ele>1070.8000488281</ele>
        <time>2013-05-11T08:42:28Z</time>
      </trkpt>
      <trkpt lat="44.42493" lon="5.46243">
        <ele>1071.1999511719</ele>
        <time>2013-05-11T08:42:34Z</time>
      </trkpt>
      <trkpt lat="44.42488" lon="5.46242">
        <ele>1072.5999755859</ele>
        <time>2013-05-11T08:42:37Z</time>
      </trkpt>
      <trkpt lat="44.42477" lon="5.46239">
        <ele>1073</ele>
        <time>2013-05-11T08:42:42Z</time>
      </trkpt>
      <trkpt lat="44.42461" lon="5.46233">
        <ele>1073</ele>
        <time>2013-05-11T08:42:48Z</time>
      </trkpt>
      <trkpt lat="44.42438" lon="5.46223">
        <ele>1073</ele>
        <time>2013-05-11T08:42:55Z</time>
      </trkpt>
      <trkpt lat="44.4242" lon="5.46218">
        <ele>1073</ele>
        <time>2013-05-11T08:43:03Z</time>
      </trkpt>
      <trkpt lat="44.42419" lon="5.46219">
        <ele>1073.5999755859</ele>
        <time>2013-05-11T08:43:04Z</time>
      </trkpt>
      <trkpt lat="44.4241" lon="5.46214">
        <ele>1075.1999511719</ele>
        <time>2013-05-11T08:43:10Z</time>
      </trkpt>
      <trkpt lat="44.42404" lon="5.46209">
        <ele>1075.1999511719</ele>
        <time>2013-05-11T08:43:16Z</time>
      </trkpt>
      <trkpt lat="44.424" lon="5.46206">
        <ele>1077.4000244141</ele>
        <time>2013-05-11T08:43:20Z</time>
      </trkpt>
      <trkpt lat="44.42389" lon="5.46201">
        <ele>1078.1999511719</ele>
        <time>2013-05-11T08:43:33Z</time>
      </trkpt>
      <trkpt lat="44.42371" lon="5.46202">
        <ele>1080</ele>
        <time>2013-05-11T08:43:43Z</time>
      </trkpt>
      <trkpt lat="44.42364" lon="5.46207">
        <ele>1080.4000244141</ele>
        <time>2013-05-11T08:43:47Z</time>
      </trkpt>
      <trkpt lat="44.42358" lon="5.46211">
        <ele>1081.5999755859</ele>
        <time>2013-05-11T08:43:50Z</time>
      </trkpt>
      <trkpt lat="44.42352" lon="5.4623">
        <ele>1082</ele>
        <time>2013-05-11T08:43:56Z</time>
      </trkpt>
      <trkpt lat="44.42352" lon="5.46233">
        <ele>1082</ele>
        <time>2013-05-11T08:43:57Z</time>
      </trkpt>
      <trkpt lat="44.42352" lon="5.46243">
        <ele>1082</ele>
        <time>2013-05-11T08:44:02Z</time>
      </trkpt>
      <trkpt lat="44.42351" lon="5.46252">
        <ele>1082</ele>
        <time>2013-05-11T08:44:08Z</time>
      </trkpt>
      <trkpt lat="44.4235" lon="5.46258">
        <ele>1082</ele>
        <time>2013-05-11T08:44:12Z</time>
      </trkpt>
      <trkpt lat="44.42345" lon="5.46268">
        <ele>1082</ele>
        <time>2013-05-11T08:44:20Z</time>
      </trkpt>
      <trkpt lat="44.42339" lon="5.46282">
        <ele>1082</ele>
        <time>2013-05-11T08:44:24Z</time>
      </trkpt>
      <trkpt lat="44.42334" lon="5.46293">
        <ele>1081.5999755859</ele>
        <time>2013-05-11T08:44:27Z</time>
      </trkpt>
      <trkpt lat="44.4233" lon="5.46304">
        <ele>1080.4000244141</ele>
        <time>2013-05-11T08:44:30Z</time>
      </trkpt>
      <trkpt lat="44.42316" lon="5.4633">
        <ele>1079</ele>
        <time>2013-05-11T08:44:35Z</time>
      </trkpt>
      <trkpt lat="44.4231" lon="5.46342">
        <ele>1077.8000488281</ele>
        <time>2013-05-11T08:44:39Z</time>
      </trkpt>
      <trkpt lat="44.42308" lon="5.46348">
        <ele>1078.5999755859</ele>
        <time>2013-05-11T08:44:54Z</time>
      </trkpt>
      <trkpt lat="44.42295" lon="5.46375">
        <ele>1079.8000488281</ele>
        <time>2013-05-11T08:45:15Z</time>
      </trkpt>
      <trkpt lat="44.42279" lon="5.46394">
        <ele>1079.8000488281</ele>
        <time>2013-05-11T08:45:21Z</time>
      </trkpt>
      <trkpt lat="44.42262" lon="5.4641">
        <ele>1079.4000244141</ele>
        <time>2013-05-11T08:45:25Z</time>
      </trkpt>
      <trkpt lat="44.42258" lon="5.46413">
        <ele>1079</ele>
        <time>2013-05-11T08:45:26Z</time>
      </trkpt>
      <trkpt lat="44.4225" lon="5.46425">
        <ele>1077.8000488281</ele>
        <time>2013-05-11T08:45:29Z</time>
      </trkpt>
      <trkpt lat="44.42238" lon="5.46437">
        <ele>1077</ele>
        <time>2013-05-11T08:45:34Z</time>
      </trkpt>
      <trkpt lat="44.42237" lon="5.46441">
        <ele>1076.5999755859</ele>
        <time>2013-05-11T08:45:35Z</time>
      </trkpt>
      <trkpt lat="44.42233" lon="5.46451">
        <ele>1075.8000488281</ele>
        <time>2013-05-11T08:45:38Z</time>
      </trkpt>
      <trkpt lat="44.42222" lon="5.46483">
        <ele>1075.8000488281</ele>
        <time>2013-05-11T08:45:46Z</time>
      </trkpt>
      <trkpt lat="44.42213" lon="5.46506">
        <ele>1075.8000488281</ele>
        <time>2013-05-11T08:45:51Z</time>
      </trkpt>
      <trkpt lat="44.42203" lon="5.46523">
        <ele>1075.8000488281</ele>
        <time>2013-05-11T08:45:56Z</time>
      </trkpt>
      <trkpt lat="44.42197" lon="5.46522">
        <ele>1077</ele>
        <time>2013-05-11T08:45:58Z</time>
      </trkpt>
      <trkpt lat="44.42189" lon="5.46519">
        <ele>1077.8000488281</ele>
        <time>2013-05-11T08:46:01Z</time>
      </trkpt>
      <trkpt lat="44.42178" lon="5.46518">
        <ele>1079.5999755859</ele>
        <time>2013-05-11T08:46:06Z</time>
      </trkpt>
      <trkpt lat="44.42171" lon="5.46521">
        <ele>1080</ele>
        <time>2013-05-11T08:46:09Z</time>
      </trkpt>
      <trkpt lat="44.42159" lon="5.46539">
        <ele>1080.4000244141</ele>
        <time>2013-05-11T08:46:15Z</time>
      </trkpt>
      <trkpt lat="44.42158" lon="5.46542">
        <ele>1081</ele>
        <time>2013-05-11T08:46:16Z</time>
      </trkpt>
      <trkpt lat="44.4215" lon="5.46552">
        <ele>1082.4000244141</ele>
        <time>2013-05-11T08:46:20Z</time>
      </trkpt>
      <trkpt lat="44.42139" lon="5.46566">
        <ele>1081.8000488281</ele>
        <time>2013-05-11T08:46:24Z</time>
      </trkpt>
      <trkpt lat="44.42133" lon="5.46573">
        <ele>1080.4000244141</ele>
        <time>2013-05-11T08:46:26Z</time>
      </trkpt>
      <trkpt lat="44.42126" lon="5.46586">
        <ele>1079</ele>
        <time>2013-05-11T08:46:30Z</time>
      </trkpt>
      <trkpt lat="44.42119" lon="5.46597">
        <ele>1078</ele>
        <time>2013-05-11T08:46:33Z</time>
      </trkpt>
      <trkpt lat="44.42117" lon="5.46601">
        <ele>1077.5999755859</ele>
        <time>2013-05-11T08:46:34Z</time>
      </trkpt>
      <trkpt lat="44.42098" lon="5.46622">
        <ele>1077.5999755859</ele>
        <time>2013-05-11T08:46:41Z</time>
      </trkpt>
      <trkpt lat="44.42086" lon="5.46634">
        <ele>1077.1999511719</ele>
        <time>2013-05-11T08:46:45Z</time>
      </trkpt>
      <trkpt lat="44.4208" lon="5.46641">
        <ele>1076.8000488281</ele>
        <time>2013-05-11T08:46:47Z</time>
      </trkpt>
      <trkpt lat="44.4207" lon="5.46654">
        <ele>1075</ele>
        <time>2013-05-11T08:46:50Z</time>
      </trkpt>
      <trkpt lat="44.42068" lon="5.46658">
        <ele>1074.4000244141</ele>
        <time>2013-05-11T08:46:51Z</time>
      </trkpt>
      <trkpt lat="44.42062" lon="5.46665">
        <ele>1073.4000244141</ele>
        <time>2013-05-11T08:46:53Z</time>
      </trkpt>
      <trkpt lat="44.42056" lon="5.46673">
        <ele>1073.4000244141</ele>
        <time>2013-05-11T08:46:55Z</time>
      </trkpt>
      <trkpt lat="44.42048" lon="5.46688">
        <ele>1073.4000244141</ele>
        <time>2013-05-11T08:46:59Z</time>
      </trkpt>
      <trkpt lat="44.4204" lon="5.46699">
        <ele>1073.4000244141</ele>
        <time>2013-05-11T08:47:04Z</time>
      </trkpt>
      <trkpt lat="44.42038" lon="5.46701">
        <ele>1073.4000244141</ele>
        <time>2013-05-11T08:47:05Z</time>
      </trkpt>
      <trkpt lat="44.42025" lon="5.46715">
        <ele>1073.4000244141</ele>
        <time>2013-05-11T08:47:10Z</time>
      </trkpt>
      <trkpt lat="44.42017" lon="5.46729">
        <ele>1073.8000488281</ele>
        <time>2013-05-11T08:47:13Z</time>
      </trkpt>
      <trkpt lat="44.42014" lon="5.46733">
        <ele>1074.1999511719</ele>
        <time>2013-05-11T08:47:14Z</time>
      </trkpt>
      <trkpt lat="44.4201" lon="5.46741">
        <ele>1074.5999755859</ele>
        <time>2013-05-11T08:47:16Z</time>
      </trkpt>
      <trkpt lat="44.41986" lon="5.46727">
        <ele>1075.4000244141</ele>
        <time>2013-05-11T08:48:42Z</time>
      </trkpt>
      <trkpt lat="44.41969" lon="5.46707">
        <ele>1074.4000244141</ele>
        <time>2013-05-11T08:48:46Z</time>
      </trkpt>
      <trkpt lat="44.41963" lon="5.46699">
        <ele>1073.1999511719</ele>
        <time>2013-05-11T08:48:48Z</time>
      </trkpt>
      <trkpt lat="44.41959" lon="5.46694">
        <ele>1072.8000488281</ele>
        <time>2013-05-11T08:48:50Z</time>
      </trkpt>
      <trkpt lat="44.41956" lon="5.46683">
        <ele>1072.8000488281</ele>
        <time>2013-05-11T08:48:55Z</time>
      </trkpt>
      <trkpt lat="44.41952" lon="5.46677">
        <ele>1072.8000488281</ele>
        <time>2013-05-11T08:48:58Z</time>
      </trkpt>
      <trkpt lat="44.41946" lon="5.46667">
        <ele>1072.8000488281</ele>
        <time>2013-05-11T08:49:02Z</time>
      </trkpt>
      <trkpt lat="44.4194" lon="5.46657">
        <ele>1072.8000488281</ele>
        <time>2013-05-11T08:49:06Z</time>
      </trkpt>
      <trkpt lat="44.41931" lon="5.46643">
        <ele>1072.8000488281</ele>
        <time>2013-05-11T08:49:10Z</time>
      </trkpt>
      <trkpt lat="44.41924" lon="5.46634">
        <ele>1072.8000488281</ele>
        <time>2013-05-11T08:49:13Z</time>
      </trkpt>
      <trkpt lat="44.41916" lon="5.4662">
        <ele>1072.8000488281</ele>
        <time>2013-05-11T08:49:18Z</time>
      </trkpt>
      <trkpt lat="44.41904" lon="5.46596">
        <ele>1072.8000488281</ele>
        <time>2013-05-11T08:49:25Z</time>
      </trkpt>
      <trkpt lat="44.41895" lon="5.46579">
        <ele>1072.8000488281</ele>
        <time>2013-05-11T08:49:31Z</time>
      </trkpt>
      <trkpt lat="44.41889" lon="5.46564">
        <ele>1072.8000488281</ele>
        <time>2013-05-11T08:49:37Z</time>
      </trkpt>
      <trkpt lat="44.41877" lon="5.46548">
        <ele>1072.8000488281</ele>
        <time>2013-05-11T08:49:43Z</time>
      </trkpt>
      <trkpt lat="44.41869" lon="5.46537">
        <ele>1074.8000488281</ele>
        <time>2013-05-11T08:49:55Z</time>
      </trkpt>
      <trkpt lat="44.41861" lon="5.46523">
        <ele>1074.8000488281</ele>
        <time>2013-05-11T08:50:01Z</time>
      </trkpt>
      <trkpt lat="44.41853" lon="5.46503">
        <ele>1074.8000488281</ele>
        <time>2013-05-11T08:50:07Z</time>
      </trkpt>
      <trkpt lat="44.41843" lon="5.46481">
        <ele>1074.8000488281</ele>
        <time>2013-05-11T08:50:12Z</time>
      </trkpt>
      <trkpt lat="44.41827" lon="5.46451">
        <ele>1074.8000488281</ele>
        <time>2013-05-11T08:50:18Z</time>
      </trkpt>
      <trkpt lat="44.41821" lon="5.46435">
        <ele>1074.8000488281</ele>
        <time>2013-05-11T08:50:23Z</time>
      </trkpt>
      <trkpt lat="44.41814" lon="5.46415">
        <ele>1074.8000488281</ele>
        <time>2013-05-11T08:50:29Z</time>
      </trkpt>
      <trkpt lat="44.41806" lon="5.46395">
        <ele>1074.8000488281</ele>
        <time>2013-05-11T08:50:34Z</time>
      </trkpt>
      <trkpt lat="44.4179" lon="5.46352">
        <ele>1074.8000488281</ele>
        <time>2013-05-11T08:50:44Z</time>
      </trkpt>
      <trkpt lat="44.41775" lon="5.46324">
        <ele>1075.1999511719</ele>
        <time>2013-05-11T08:50:52Z</time>
      </trkpt>
      <trkpt lat="44.41775" lon="5.46319">
        <ele>1076.4000244141</ele>
        <time>2013-05-11T08:50:54Z</time>
      </trkpt>
      <trkpt lat="44.41774" lon="5.46308">
        <ele>1076.8000488281</ele>
        <time>2013-05-11T08:50:58Z</time>
      </trkpt>
      <trkpt lat="44.41771" lon="5.46289">
        <ele>1076.8000488281</ele>
        <time>2013-05-11T08:51:05Z</time>
      </trkpt>
      <trkpt lat="44.41769" lon="5.46285">
        <ele>1077.1999511719</ele>
        <time>2013-05-11T08:51:06Z</time>
      </trkpt>
      <trkpt lat="44.41765" lon="5.46275">
        <ele>1078.8000488281</ele>
        <time>2013-05-11T08:51:11Z</time>
      </trkpt>
      <trkpt lat="44.41762" lon="5.46267">
        <ele>1078.8000488281</ele>
        <time>2013-05-11T08:51:13Z</time>
      </trkpt>
      <trkpt lat="44.41758" lon="5.46258">
        <ele>1078.8000488281</ele>
        <time>2013-05-11T08:51:19Z</time>
      </trkpt>
      <trkpt lat="44.41755" lon="5.46249">
        <ele>1088.1999511719</ele>
        <time>2013-05-11T08:52:15Z</time>
      </trkpt>
      <trkpt lat="44.41733" lon="5.46186">
        <ele>1095.8000488281</ele>
        <time>2013-05-11T08:53:07Z</time>
      </trkpt>
      <trkpt lat="44.41723" lon="5.46165">
        <ele>1096.1999511719</ele>
        <time>2013-05-11T08:53:09Z</time>
      </trkpt>
      <trkpt lat="44.41708" lon="5.46131">
        <ele>1096.1999511719</ele>
        <time>2013-05-11T08:53:15Z</time>
      </trkpt>
      <trkpt lat="44.417" lon="5.46123">
        <ele>1096.1999511719</ele>
        <time>2013-05-11T08:53:17Z</time>
      </trkpt>
      <trkpt lat="44.4169" lon="5.46105">
        <ele>1096.5999755859</ele>
        <time>2013-05-11T08:53:24Z</time>
      </trkpt>
      <trkpt lat="44.41689" lon="5.46103">
        <ele>1097</ele>
        <time>2013-05-11T08:53:25Z</time>
      </trkpt>
      <trkpt lat="44.41684" lon="5.461">
        <ele>1097.8000488281</ele>
        <time>2013-05-11T08:53:28Z</time>
      </trkpt>
      <trkpt lat="44.41675" lon="5.46096">
        <ele>1098.1999511719</ele>
        <time>2013-05-11T08:53:32Z</time>
      </trkpt>
      <trkpt lat="44.41666" lon="5.461">
        <ele>1098.1999511719</ele>
        <time>2013-05-11T08:53:38Z</time>
      </trkpt>
      <trkpt lat="44.4166" lon="5.46102">
        <ele>1097.8000488281</ele>
        <time>2013-05-11T08:53:40Z</time>
      </trkpt>
      <trkpt lat="44.41649" lon="5.46105">
        <ele>1095.4000244141</ele>
        <time>2013-05-11T08:53:44Z</time>
      </trkpt>
      <trkpt lat="44.41638" lon="5.46109">
        <ele>1092.1999511719</ele>
        <time>2013-05-11T08:53:50Z</time>
      </trkpt>
      <trkpt lat="44.41628" lon="5.46109">
        <ele>1088.5999755859</ele>
        <time>2013-05-11T08:53:55Z</time>
      </trkpt>
      <trkpt lat="44.41624" lon="5.4611">
        <ele>1088</ele>
        <time>2013-05-11T08:53:57Z</time>
      </trkpt>
      <trkpt lat="44.4162" lon="5.4611">
        <ele>1086</ele>
        <time>2013-05-11T08:53:59Z</time>
      </trkpt>
      <trkpt lat="44.4161" lon="5.46114">
        <ele>1082.1999511719</ele>
        <time>2013-05-11T08:54:04Z</time>
      </trkpt>
      <trkpt lat="44.41599" lon="5.46117">
        <ele>1079.1999511719</ele>
        <time>2013-05-11T08:54:08Z</time>
      </trkpt>
      <trkpt lat="44.4159" lon="5.46112">
        <ele>1077.1999511719</ele>
        <time>2013-05-11T08:54:12Z</time>
      </trkpt>
      <trkpt lat="44.4158" lon="5.46114">
        <ele>1072.8000488281</ele>
        <time>2013-05-11T08:54:30Z</time>
      </trkpt>
      <trkpt lat="44.41576" lon="5.46109">
        <ele>1070.5999755859</ele>
        <time>2013-05-11T08:54:45Z</time>
      </trkpt>
      <trkpt lat="44.41573" lon="5.4611">
        <ele>1067.5999755859</ele>
        <time>2013-05-11T08:55:06Z</time>
      </trkpt>
      <trkpt lat="44.4157" lon="5.46115">
        <ele>1065.5999755859</ele>
        <time>2013-05-11T08:55:11Z</time>
      </trkpt>
      <trkpt lat="44.41565" lon="5.46123">
        <ele>1064.4000244141</ele>
        <time>2013-05-11T08:55:14Z</time>
      </trkpt>
      <trkpt lat="44.41559" lon="5.46133">
        <ele>1063</ele>
        <time>2013-05-11T08:55:16Z</time>
      </trkpt>
      <trkpt lat="44.4155" lon="5.46134">
        <ele>1061.1999511719</ele>
        <time>2013-05-11T08:55:19Z</time>
      </trkpt>
      <trkpt lat="44.41539" lon="5.46136">
        <ele>1056.8000488281</ele>
        <time>2013-05-11T08:55:24Z</time>
      </trkpt>
      <trkpt lat="44.41526" lon="5.4614">
        <ele>1052.1999511719</ele>
        <time>2013-05-11T08:55:29Z</time>
      </trkpt>
      <trkpt lat="44.41511" lon="5.46147">
        <ele>1048.8000488281</ele>
        <time>2013-05-11T08:55:33Z</time>
      </trkpt>
      <trkpt lat="44.41503" lon="5.46151">
        <ele>1048.8000488281</ele>
        <time>2013-05-11T08:55:35Z</time>
      </trkpt>
      <trkpt lat="44.41499" lon="5.46153">
        <ele>1046.4000244141</ele>
        <time>2013-05-11T08:55:36Z</time>
      </trkpt>
      <trkpt lat="44.41488" lon="5.46162">
        <ele>1042.5999755859</ele>
        <time>2013-05-11T08:55:41Z</time>
      </trkpt>
      <trkpt lat="44.41478" lon="5.46173">
        <ele>1037.8000488281</ele>
        <time>2013-05-11T08:55:46Z</time>
      </trkpt>
      <trkpt lat="44.41475" lon="5.4618">
        <ele>1036.1999511719</ele>
        <time>2013-05-11T08:55:49Z</time>
      </trkpt>
      <trkpt lat="44.41464" lon="5.46188">
        <ele>1033.8000488281</ele>
        <time>2013-05-11T08:55:53Z</time>
      </trkpt>
      <trkpt lat="44.41459" lon="5.46188">
        <ele>1032.1999511719</ele>
        <time>2013-05-11T08:55:56Z</time>
      </trkpt>
      <trkpt lat="44.4145" lon="5.46193">
        <ele>1029</ele>
        <time>2013-05-11T08:56:01Z</time>
      </trkpt>
      <trkpt lat="44.41448" lon="5.46195">
        <ele>1029</ele>
        <time>2013-05-11T08:56:02Z</time>
      </trkpt>
      <trkpt lat="44.41438" lon="5.46202">
        <ele>1026.1999511719</ele>
        <time>2013-05-11T08:56:06Z</time>
      </trkpt>
      <trkpt lat="44.41423" lon="5.46208">
        <ele>1023.799987793</ele>
        <time>2013-05-11T08:56:11Z</time>
      </trkpt>
      <trkpt lat="44.41419" lon="5.4621">
        <ele>1022.4000244141</ele>
        <time>2013-05-11T08:56:13Z</time>
      </trkpt>
      <trkpt lat="44.41407" lon="5.46218">
        <ele>1021.200012207</ele>
        <time>2013-05-11T08:56:17Z</time>
      </trkpt>
      <trkpt lat="44.41395" lon="5.46216">
        <ele>1019.200012207</ele>
        <time>2013-05-11T08:56:21Z</time>
      </trkpt>
      <trkpt lat="44.41388" lon="5.46207">
        <ele>1018.5999755859</ele>
        <time>2013-05-11T08:56:24Z</time>
      </trkpt>
      <trkpt lat="44.41376" lon="5.46199">
        <ele>1016.4000244141</ele>
        <time>2013-05-11T08:56:28Z</time>
      </trkpt>
      <trkpt lat="44.41364" lon="5.46197">
        <ele>1015.200012207</ele>
        <time>2013-05-11T08:56:31Z</time>
      </trkpt>
      <trkpt lat="44.41357" lon="5.46196">
        <ele>1014</ele>
        <time>2013-05-11T08:56:33Z</time>
      </trkpt>
      <trkpt lat="44.41345" lon="5.46192">
        <ele>1013.200012207</ele>
        <time>2013-05-11T08:56:36Z</time>
      </trkpt>
      <trkpt lat="44.41337" lon="5.46189">
        <ele>1013.200012207</ele>
        <time>2013-05-11T08:56:38Z</time>
      </trkpt>
      <trkpt lat="44.41324" lon="5.46182">
        <ele>1011</ele>
        <time>2013-05-11T08:56:41Z</time>
      </trkpt>
      <trkpt lat="44.41317" lon="5.46177">
        <ele>1010</ele>
        <time>2013-05-11T08:56:43Z</time>
      </trkpt>
      <trkpt lat="44.41307" lon="5.46169">
        <ele>1007.200012207</ele>
        <time>2013-05-11T08:56:46Z</time>
      </trkpt>
      <trkpt lat="44.41292" lon="5.46157">
        <ele>1004.5999755859</ele>
        <time>2013-05-11T08:56:51Z</time>
      </trkpt>
      <trkpt lat="44.41288" lon="5.46153">
        <ele>1002.799987793</ele>
        <time>2013-05-11T08:56:53Z</time>
      </trkpt>
      <trkpt lat="44.41275" lon="5.46147">
        <ele>999.79998779297</ele>
        <time>2013-05-11T08:56:58Z</time>
      </trkpt>
      <trkpt lat="44.41268" lon="5.46145">
        <ele>997.79998779297</ele>
        <time>2013-05-11T08:57:01Z</time>
      </trkpt>
      <trkpt lat="44.41252" lon="5.46142">
        <ele>995</ele>
        <time>2013-05-11T08:57:05Z</time>
      </trkpt>
      <trkpt lat="44.41248" lon="5.46143">
        <ele>995</ele>
        <time>2013-05-11T08:57:06Z</time>
      </trkpt>
      <trkpt lat="44.41238" lon="5.46144">
        <ele>993.40002441406</ele>
        <time>2013-05-11T08:57:08Z</time>
      </trkpt>
      <trkpt lat="44.41227" lon="5.46144">
        <ele>991.79998779297</ele>
        <time>2013-05-11T08:57:11Z</time>
      </trkpt>
      <trkpt lat="44.41211" lon="5.46145">
        <ele>989.40002441406</ele>
        <time>2013-05-11T08:57:15Z</time>
      </trkpt>
      <trkpt lat="44.41205" lon="5.46147">
        <ele>988.40002441406</ele>
        <time>2013-05-11T08:57:17Z</time>
      </trkpt>
      <trkpt lat="44.41198" lon="5.46149">
        <ele>986.40002441406</ele>
        <time>2013-05-11T08:57:19Z</time>
      </trkpt>
      <trkpt lat="44.41195" lon="5.4615">
        <ele>985.59997558594</ele>
        <time>2013-05-11T08:57:20Z</time>
      </trkpt>
      <trkpt lat="44.4119" lon="5.46153">
        <ele>984</ele>
        <time>2013-05-11T08:57:22Z</time>
      </trkpt>
      <trkpt lat="44.41174" lon="5.46159">
        <ele>981.40002441406</ele>
        <time>2013-05-11T08:57:28Z</time>
      </trkpt>
      <trkpt lat="44.41165" lon="5.46156">
        <ele>979.40002441406</ele>
        <time>2013-05-11T08:57:31Z</time>
      </trkpt>
      <trkpt lat="44.4116" lon="5.46152">
        <ele>978.79998779297</ele>
        <time>2013-05-11T08:57:33Z</time>
      </trkpt>
      <trkpt lat="44.41154" lon="5.4615">
        <ele>977.40002441406</ele>
        <time>2013-05-11T08:57:35Z</time>
      </trkpt>
      <trkpt lat="44.4115" lon="5.46152">
        <ele>976</ele>
        <time>2013-05-11T08:57:37Z</time>
      </trkpt>
      <trkpt lat="44.41147" lon="5.46152">
        <ele>975.40002441406</ele>
        <time>2013-05-11T08:57:38Z</time>
      </trkpt>
      <trkpt lat="44.41139" lon="5.46155">
        <ele>973.59997558594</ele>
        <time>2013-05-11T08:57:41Z</time>
      </trkpt>
      <trkpt lat="44.41131" lon="5.4616">
        <ele>971.20001220703</ele>
        <time>2013-05-11T08:57:45Z</time>
      </trkpt>
      <trkpt lat="44.41128" lon="5.46161">
        <ele>970.59997558594</ele>
        <time>2013-05-11T08:57:46Z</time>
      </trkpt>
      <trkpt lat="44.41116" lon="5.46161">
        <ele>968.79998779297</ele>
        <time>2013-05-11T08:57:50Z</time>
      </trkpt>
      <trkpt lat="44.41108" lon="5.46163">
        <ele>967.40002441406</ele>
        <time>2013-05-11T08:57:52Z</time>
      </trkpt>
      <trkpt lat="44.41099" lon="5.46164">
        <ele>965.40002441406</ele>
        <time>2013-05-11T08:57:55Z</time>
      </trkpt>
      <trkpt lat="44.41088" lon="5.46164">
        <ele>963.59997558594</ele>
        <time>2013-05-11T08:57:58Z</time>
      </trkpt>
      <trkpt lat="44.41077" lon="5.46167">
        <ele>962.20001220703</ele>
        <time>2013-05-11T08:58:02Z</time>
      </trkpt>
      <trkpt lat="44.41069" lon="5.4617">
        <ele>961</ele>
        <time>2013-05-11T08:58:04Z</time>
      </trkpt>
      <trkpt lat="44.41058" lon="5.46177">
        <ele>959</ele>
        <time>2013-05-11T08:58:07Z</time>
      </trkpt>
      <trkpt lat="44.41048" lon="5.46183">
        <ele>957.59997558594</ele>
        <time>2013-05-11T08:58:09Z</time>
      </trkpt>
      <trkpt lat="44.41038" lon="5.46188">
        <ele>956.40002441406</ele>
        <time>2013-05-11T08:58:11Z</time>
      </trkpt>
      <trkpt lat="44.41034" lon="5.46192">
        <ele>956</ele>
        <time>2013-05-11T08:58:12Z</time>
      </trkpt>
      <trkpt lat="44.41027" lon="5.46198">
        <ele>954.79998779297</ele>
        <time>2013-05-11T08:58:14Z</time>
      </trkpt>
      <trkpt lat="44.41021" lon="5.46204">
        <ele>953.79998779297</ele>
        <time>2013-05-11T08:58:16Z</time>
      </trkpt>
      <trkpt lat="44.41019" lon="5.46207">
        <ele>953.40002441406</ele>
        <time>2013-05-11T08:58:17Z</time>
      </trkpt>
      <trkpt lat="44.41017" lon="5.46211">
        <ele>953</ele>
        <time>2013-05-11T08:58:18Z</time>
      </trkpt>
      <trkpt lat="44.41006" lon="5.46235">
        <ele>951.20001220703</ele>
        <time>2013-05-11T08:58:24Z</time>
      </trkpt>
      <trkpt lat="44.41005" lon="5.46243">
        <ele>950.40002441406</ele>
        <time>2013-05-11T08:58:26Z</time>
      </trkpt>
      <trkpt lat="44.41007" lon="5.46255">
        <ele>948.79998779297</ele>
        <time>2013-05-11T08:58:29Z</time>
      </trkpt>
      <trkpt lat="44.4101" lon="5.46264">
        <ele>947.79998779297</ele>
        <time>2013-05-11T08:58:31Z</time>
      </trkpt>
      <trkpt lat="44.41011" lon="5.46271">
        <ele>946.79998779297</ele>
        <time>2013-05-11T08:58:33Z</time>
      </trkpt>
      <trkpt lat="44.41014" lon="5.46284">
        <ele>944</ele>
        <time>2013-05-11T08:58:38Z</time>
      </trkpt>
      <trkpt lat="44.41019" lon="5.46296">
        <ele>942.20001220703</ele>
        <time>2013-05-11T08:58:43Z</time>
      </trkpt>
      <trkpt lat="44.41021" lon="5.46303">
        <ele>940.79998779297</ele>
        <time>2013-05-11T08:58:45Z</time>
      </trkpt>
      <trkpt lat="44.41021" lon="5.46311">
        <ele>937.40002441406</ele>
        <time>2013-05-11T08:58:51Z</time>
      </trkpt>
      <trkpt lat="44.41027" lon="5.46321">
        <ele>933.59997558594</ele>
        <time>2013-05-11T08:59:13Z</time>
      </trkpt>
      <trkpt lat="44.41022" lon="5.46332">
        <ele>933.20001220703</ele>
        <time>2013-05-11T08:59:17Z</time>
      </trkpt>
      <trkpt lat="44.41014" lon="5.46347">
        <ele>932.59997558594</ele>
        <time>2013-05-11T08:59:21Z</time>
      </trkpt>
      <trkpt lat="44.41008" lon="5.46355">
        <ele>932</ele>
        <time>2013-05-11T08:59:23Z</time>
      </trkpt>
      <trkpt lat="44.41003" lon="5.46364">
        <ele>929.59997558594</ele>
        <time>2013-05-11T08:59:25Z</time>
      </trkpt>
      <trkpt lat="44.41" lon="5.46369">
        <ele>929.59997558594</ele>
        <time>2013-05-11T08:59:26Z</time>
      </trkpt>
      <trkpt lat="44.40997" lon="5.46375">
        <ele>928.79998779297</ele>
        <time>2013-05-11T08:59:27Z</time>
      </trkpt>
      <trkpt lat="44.40995" lon="5.4638">
        <ele>928</ele>
        <time>2013-05-11T08:59:28Z</time>
      </trkpt>
      <trkpt lat="44.40984" lon="5.464">
        <ele>925.20001220703</ele>
        <time>2013-05-11T08:59:32Z</time>
      </trkpt>
      <trkpt lat="44.40978" lon="5.46413">
        <ele>923.40002441406</ele>
        <time>2013-05-11T08:59:34Z</time>
      </trkpt>
      <trkpt lat="44.40976" lon="5.46425">
        <ele>923.40002441406</ele>
        <time>2013-05-11T08:59:36Z</time>
      </trkpt>
      <trkpt lat="44.40974" lon="5.46432">
        <ele>923</ele>
        <time>2013-05-11T08:59:37Z</time>
      </trkpt>
      <trkpt lat="44.40973" lon="5.46442">
        <ele>922.59997558594</ele>
        <time>2013-05-11T08:59:38Z</time>
      </trkpt>
      <trkpt lat="44.40973" lon="5.46451">
        <ele>921.79998779297</ele>
        <time>2013-05-11T08:59:39Z</time>
      </trkpt>
      <trkpt lat="44.40975" lon="5.46464">
        <ele>921.40002441406</ele>
        <time>2013-05-11T08:59:41Z</time>
      </trkpt>
      <trkpt lat="44.40975" lon="5.46489">
        <ele>920.40002441406</ele>
        <time>2013-05-11T08:59:44Z</time>
      </trkpt>
      <trkpt lat="44.40974" lon="5.46496">
        <ele>919.79998779297</ele>
        <time>2013-05-11T08:59:45Z</time>
      </trkpt>
      <trkpt lat="44.40971" lon="5.46513">
        <ele>919.40002441406</ele>
        <time>2013-05-11T08:59:47Z</time>
      </trkpt>
      <trkpt lat="44.40971" lon="5.4652">
        <ele>919</ele>
        <time>2013-05-11T08:59:48Z</time>
      </trkpt>
      <trkpt lat="44.40977" lon="5.46542">
        <ele>917.20001220703</ele>
        <time>2013-05-11T08:59:51Z</time>
      </trkpt>
      <trkpt lat="44.40977" lon="5.46555">
        <ele>916</ele>
        <time>2013-05-11T08:59:53Z</time>
      </trkpt>
      <trkpt lat="44.40963" lon="5.46579">
        <ele>916</ele>
        <time>2013-05-11T08:59:59Z</time>
      </trkpt>
      <trkpt lat="44.40953" lon="5.46585">
        <ele>916</ele>
        <time>2013-05-11T09:00:03Z</time>
      </trkpt>
      <trkpt lat="44.40947" lon="5.46586">
        <ele>916</ele>
        <time>2013-05-11T09:00:05Z</time>
      </trkpt>
      <trkpt lat="44.40935" lon="5.46592">
        <ele>916.59997558594</ele>
        <time>2013-05-11T09:00:10Z</time>
      </trkpt>
      <trkpt lat="44.40928" lon="5.466">
        <ele>917.79998779297</ele>
        <time>2013-05-11T09:00:14Z</time>
      </trkpt>
      <trkpt lat="44.40926" lon="5.46601">
        <ele>918.20001220703</ele>
        <time>2013-05-11T09:00:15Z</time>
      </trkpt>
      <trkpt lat="44.40911" lon="5.46602">
        <ele>918.20001220703</ele>
        <time>2013-05-11T09:00:20Z</time>
      </trkpt>
      <trkpt lat="44.40906" lon="5.466">
        <ele>918.20001220703</ele>
        <time>2013-05-11T09:00:22Z</time>
      </trkpt>
      <trkpt lat="44.40898" lon="5.46598">
        <ele>918.20001220703</ele>
        <time>2013-05-11T09:00:25Z</time>
      </trkpt>
      <trkpt lat="44.40883" lon="5.46598">
        <ele>918.59997558594</ele>
        <time>2013-05-11T09:00:31Z</time>
      </trkpt>
      <trkpt lat="44.40879" lon="5.46598">
        <ele>919.79998779297</ele>
        <time>2013-05-11T09:00:34Z</time>
      </trkpt>
      <trkpt lat="44.40865" lon="5.46602">
        <ele>920.20001220703</ele>
        <time>2013-05-11T09:00:42Z</time>
      </trkpt>
      <trkpt lat="44.40855" lon="5.46598">
        <ele>920.20001220703</ele>
        <time>2013-05-11T09:00:47Z</time>
      </trkpt>
      <trkpt lat="44.40845" lon="5.46587">
        <ele>920.59997558594</ele>
        <time>2013-05-11T09:00:53Z</time>
      </trkpt>
      <trkpt lat="44.40839" lon="5.46583">
        <ele>922.20001220703</ele>
        <time>2013-05-11T09:00:57Z</time>
      </trkpt>
      <trkpt lat="44.40834" lon="5.46575">
        <ele>922.20001220703</ele>
        <time>2013-05-11T09:01:03Z</time>
      </trkpt>
      <trkpt lat="44.40818" lon="5.4657">
        <ele>922.20001220703</ele>
        <time>2013-05-11T09:01:09Z</time>
      </trkpt>
      <trkpt lat="44.40803" lon="5.46582">
        <ele>922.20001220703</ele>
        <time>2013-05-11T09:01:14Z</time>
      </trkpt>
      <trkpt lat="44.40792" lon="5.46589">
        <ele>922.20001220703</ele>
        <time>2013-05-11T09:01:18Z</time>
      </trkpt>
      <trkpt lat="44.4078" lon="5.46594">
        <ele>922.59997558594</ele>
        <time>2013-05-11T09:01:24Z</time>
      </trkpt>
      <trkpt lat="44.40778" lon="5.46594">
        <ele>923.20001220703</ele>
        <time>2013-05-11T09:01:25Z</time>
      </trkpt>
      <trkpt lat="44.4077" lon="5.46594">
        <ele>924.40002441406</ele>
        <time>2013-05-11T09:01:30Z</time>
      </trkpt>
      <trkpt lat="44.40758" lon="5.46585">
        <ele>924.79998779297</ele>
        <time>2013-05-11T09:01:38Z</time>
      </trkpt>
      <trkpt lat="44.40752" lon="5.4658">
        <ele>926.59997558594</ele>
        <time>2013-05-11T09:01:42Z</time>
      </trkpt>
      <trkpt lat="44.40747" lon="5.46574">
        <ele>926.59997558594</ele>
        <time>2013-05-11T09:01:46Z</time>
      </trkpt>
      <trkpt lat="44.40742" lon="5.46568">
        <ele>927</ele>
        <time>2013-05-11T09:01:50Z</time>
      </trkpt>
      <trkpt lat="44.4074" lon="5.46563">
        <ele>928.40002441406</ele>
        <time>2013-05-11T09:01:53Z</time>
      </trkpt>
      <trkpt lat="44.40731" lon="5.46545">
        <ele>928.79998779297</ele>
        <time>2013-05-11T09:02:03Z</time>
      </trkpt>
      <trkpt lat="44.4073" lon="5.46543">
        <ele>929.20001220703</ele>
        <time>2013-05-11T09:02:04Z</time>
      </trkpt>
      <trkpt lat="44.40726" lon="5.46538">
        <ele>930</ele>
        <time>2013-05-11T09:02:07Z</time>
      </trkpt>
      <trkpt lat="44.40711" lon="5.46519">
        <ele>931</ele>
        <time>2013-05-11T09:02:16Z</time>
      </trkpt>
      <trkpt lat="44.40697" lon="5.46503">
        <ele>931</ele>
        <time>2013-05-11T09:02:22Z</time>
      </trkpt>
      <trkpt lat="44.40692" lon="5.46494">
        <ele>931</ele>
        <time>2013-05-11T09:02:24Z</time>
      </trkpt>
      <trkpt lat="44.40685" lon="5.4649">
        <ele>931</ele>
        <time>2013-05-11T09:02:26Z</time>
      </trkpt>
      <trkpt lat="44.40676" lon="5.46488">
        <ele>930.40002441406</ele>
        <time>2013-05-11T09:02:28Z</time>
      </trkpt>
      <trkpt lat="44.40664" lon="5.46486">
        <ele>929.40002441406</ele>
        <time>2013-05-11T09:02:30Z</time>
      </trkpt>
      <trkpt lat="44.40657" lon="5.46485">
        <ele>928.59997558594</ele>
        <time>2013-05-11T09:02:31Z</time>
      </trkpt>
      <trkpt lat="44.40643" lon="5.46486">
        <ele>927.20001220703</ele>
        <time>2013-05-11T09:02:33Z</time>
      </trkpt>
      <trkpt lat="44.40637" lon="5.46486">
        <ele>927.20001220703</ele>
        <time>2013-05-11T09:02:34Z</time>
      </trkpt>
      <trkpt lat="44.40623" lon="5.46485">
        <ele>924.59997558594</ele>
        <time>2013-05-11T09:02:36Z</time>
      </trkpt>
      <trkpt lat="44.40615" lon="5.46483">
        <ele>923.40002441406</ele>
        <time>2013-05-11T09:02:37Z</time>
      </trkpt>
      <trkpt lat="44.40607" lon="5.4648">
        <ele>922.40002441406</ele>
        <time>2013-05-11T09:02:38Z</time>
      </trkpt>
      <trkpt lat="44.406" lon="5.46477">
        <ele>921.40002441406</ele>
        <time>2013-05-11T09:02:39Z</time>
      </trkpt>
      <trkpt lat="44.40594" lon="5.46473">
        <ele>920.40002441406</ele>
        <time>2013-05-11T09:02:40Z</time>
      </trkpt>
      <trkpt lat="44.40588" lon="5.46467">
        <ele>919.40002441406</ele>
        <time>2013-05-11T09:02:41Z</time>
      </trkpt>
      <trkpt lat="44.40576" lon="5.46457">
        <ele>917.40002441406</ele>
        <time>2013-05-11T09:02:43Z</time>
      </trkpt>
      <trkpt lat="44.40569" lon="5.46453">
        <ele>916.59997558594</ele>
        <time>2013-05-11T09:02:44Z</time>
      </trkpt>
      <trkpt lat="44.40562" lon="5.46449">
        <ele>915.59997558594</ele>
        <time>2013-05-11T09:02:45Z</time>
      </trkpt>
      <trkpt lat="44.40557" lon="5.46446">
        <ele>914.59997558594</ele>
        <time>2013-05-11T09:02:46Z</time>
      </trkpt>
      <trkpt lat="44.40543" lon="5.46437">
        <ele>913.79998779297</ele>
        <time>2013-05-11T09:02:48Z</time>
      </trkpt>
      <trkpt lat="44.40538" lon="5.46431">
        <ele>911.79998779297</ele>
        <time>2013-05-11T09:02:49Z</time>
      </trkpt>
      <trkpt lat="44.40533" lon="5.46425">
        <ele>910.79998779297</ele>
        <time>2013-05-11T09:02:50Z</time>
      </trkpt>
      <trkpt lat="44.40528" lon="5.4642">
        <ele>910</ele>
        <time>2013-05-11T09:02:51Z</time>
      </trkpt>
      <trkpt lat="44.40523" lon="5.46417">
        <ele>909.20001220703</ele>
        <time>2013-05-11T09:02:52Z</time>
      </trkpt>
      <trkpt lat="44.40519" lon="5.46412">
        <ele>908.40002441406</ele>
        <time>2013-05-11T09:02:53Z</time>
      </trkpt>
      <trkpt lat="44.40514" lon="5.46408">
        <ele>907.40002441406</ele>
        <time>2013-05-11T09:02:54Z</time>
      </trkpt>
      <trkpt lat="44.40505" lon="5.464">
        <ele>905.59997558594</ele>
        <time>2013-05-11T09:02:56Z</time>
      </trkpt>
      <trkpt lat="44.405" lon="5.46393">
        <ele>904.59997558594</ele>
        <time>2013-05-11T09:02:57Z</time>
      </trkpt>
      <trkpt lat="44.40495" lon="5.46389">
        <ele>903.79998779297</ele>
        <time>2013-05-11T09:02:58Z</time>
      </trkpt>
      <trkpt lat="44.4049" lon="5.46384">
        <ele>902.79998779297</ele>
        <time>2013-05-11T09:02:59Z</time>
      </trkpt>
      <trkpt lat="44.40483" lon="5.4638">
        <ele>900.79998779297</ele>
        <time>2013-05-11T09:03:01Z</time>
      </trkpt>
      <trkpt lat="44.40479" lon="5.46373">
        <ele>900</ele>
        <time>2013-05-11T09:03:02Z</time>
      </trkpt>
      <trkpt lat="44.40476" lon="5.46368">
        <ele>899.20001220703</ele>
        <time>2013-05-11T09:03:03Z</time>
      </trkpt>
      <trkpt lat="44.4047" lon="5.46361">
        <ele>897.59997558594</ele>
        <time>2013-05-11T09:03:05Z</time>
      </trkpt>
      <trkpt lat="44.40466" lon="5.46356">
        <ele>896.79998779297</ele>
        <time>2013-05-11T09:03:06Z</time>
      </trkpt>
      <trkpt lat="44.40458" lon="5.46348">
        <ele>895.20001220703</ele>
        <time>2013-05-11T09:03:08Z</time>
      </trkpt>
      <trkpt lat="44.40448" lon="5.46339">
        <ele>893.40002441406</ele>
        <time>2013-05-11T09:03:10Z</time>
      </trkpt>
      <trkpt lat="44.40435" lon="5.46322">
        <ele>890.40002441406</ele>
        <time>2013-05-11T09:03:13Z</time>
      </trkpt>
      <trkpt lat="44.4043" lon="5.46319">
        <ele>889.40002441406</ele>
        <time>2013-05-11T09:03:14Z</time>
      </trkpt>
      <trkpt lat="44.40419" lon="5.46315">
        <ele>887.20001220703</ele>
        <time>2013-05-11T09:03:16Z</time>
      </trkpt>
      <trkpt lat="44.40409" lon="5.46318">
        <ele>885</ele>
        <time>2013-05-11T09:03:18Z</time>
      </trkpt>
      <trkpt lat="44.40406" lon="5.46323">
        <ele>884</ele>
        <time>2013-05-11T09:03:19Z</time>
      </trkpt>
      <trkpt lat="44.40397" lon="5.46332">
        <ele>882.40002441406</ele>
        <time>2013-05-11T09:03:21Z</time>
      </trkpt>
      <trkpt lat="44.40394" lon="5.46346">
        <ele>880.79998779297</ele>
        <time>2013-05-11T09:03:23Z</time>
      </trkpt>
      <trkpt lat="44.40393" lon="5.46353">
        <ele>879.79998779297</ele>
        <time>2013-05-11T09:03:24Z</time>
      </trkpt>
      <trkpt lat="44.40395" lon="5.46368">
        <ele>878.20001220703</ele>
        <time>2013-05-11T09:03:26Z</time>
      </trkpt>
      <trkpt lat="44.40397" lon="5.46374">
        <ele>878.20001220703</ele>
        <time>2013-05-11T09:03:27Z</time>
      </trkpt>
      <trkpt lat="44.40399" lon="5.46383">
        <ele>876</ele>
        <time>2013-05-11T09:03:29Z</time>
      </trkpt>
      <trkpt lat="44.404" lon="5.46386">
        <ele>875.59997558594</ele>
        <time>2013-05-11T09:03:30Z</time>
      </trkpt>
      <trkpt lat="44.40406" lon="5.46394">
        <ele>874.79998779297</ele>
        <time>2013-05-11T09:03:32Z</time>
      </trkpt>
      <trkpt lat="44.4042" lon="5.4642">
        <ele>873.40002441406</ele>
        <time>2013-05-11T09:03:37Z</time>
      </trkpt>
      <trkpt lat="44.40425" lon="5.46437">
        <ele>872.40002441406</ele>
        <time>2013-05-11T09:03:39Z</time>
      </trkpt>
      <trkpt lat="44.40429" lon="5.46447">
        <ele>871.79998779297</ele>
        <time>2013-05-11T09:03:40Z</time>
      </trkpt>
      <trkpt lat="44.4043" lon="5.46457">
        <ele>871.79998779297</ele>
        <time>2013-05-11T09:03:41Z</time>
      </trkpt>
      <trkpt lat="44.40431" lon="5.46466">
        <ele>870.59997558594</ele>
        <time>2013-05-11T09:03:42Z</time>
      </trkpt>
      <trkpt lat="44.4043" lon="5.46473">
        <ele>870.20001220703</ele>
        <time>2013-05-11T09:03:43Z</time>
      </trkpt>
      <trkpt lat="44.40429" lon="5.46478">
        <ele>869.59997558594</ele>
        <time>2013-05-11T09:03:44Z</time>
      </trkpt>
      <trkpt lat="44.40426" lon="5.46481">
        <ele>869</ele>
        <time>2013-05-11T09:03:45Z</time>
      </trkpt>
      <trkpt lat="44.4042" lon="5.46495">
        <ele>867.59997558594</ele>
        <time>2013-05-11T09:03:48Z</time>
      </trkpt>
      <trkpt lat="44.4041" lon="5.46522">
        <ele>867</ele>
        <time>2013-05-11T09:03:52Z</time>
      </trkpt>
      <trkpt lat="44.40408" lon="5.4653">
        <ele>866.59997558594</ele>
        <time>2013-05-11T09:03:53Z</time>
      </trkpt>
      <trkpt lat="44.40403" lon="5.46542">
        <ele>865.59997558594</ele>
        <time>2013-05-11T09:03:55Z</time>
      </trkpt>
      <trkpt lat="44.40394" lon="5.46549">
        <ele>865.59997558594</ele>
        <time>2013-05-11T09:03:57Z</time>
      </trkpt>
      <trkpt lat="44.40389" lon="5.46553">
        <ele>865</ele>
        <time>2013-05-11T09:03:58Z</time>
      </trkpt>
      <trkpt lat="44.40379" lon="5.46561">
        <ele>863.79998779297</ele>
        <time>2013-05-11T09:04:00Z</time>
      </trkpt>
      <trkpt lat="44.40366" lon="5.46571">
        <ele>863</ele>
        <time>2013-05-11T09:04:02Z</time>
      </trkpt>
      <trkpt lat="44.4036" lon="5.46575">
        <ele>862</ele>
        <time>2013-05-11T09:04:03Z</time>
      </trkpt>
      <trkpt lat="44.40354" lon="5.46582">
        <ele>860</ele>
        <time>2013-05-11T09:04:05Z</time>
      </trkpt>
      <trkpt lat="44.40349" lon="5.46583">
        <ele>859</ele>
        <time>2013-05-11T09:04:06Z</time>
      </trkpt>
      <trkpt lat="44.4034" lon="5.4658">
        <ele>857.79998779297</ele>
        <time>2013-05-11T09:04:08Z</time>
      </trkpt>
      <trkpt lat="44.40329" lon="5.46579">
        <ele>855.59997558594</ele>
        <time>2013-05-11T09:04:10Z</time>
      </trkpt>
      <trkpt lat="44.4032" lon="5.46581">
        <ele>854.20001220703</ele>
        <time>2013-05-11T09:04:12Z</time>
      </trkpt>
      <trkpt lat="44.40318" lon="5.46582">
        <ele>854.20001220703</ele>
        <time>2013-05-11T09:04:13Z</time>
      </trkpt>
      <trkpt lat="44.40307" lon="5.46586">
        <ele>851.40002441406</ele>
        <time>2013-05-11T09:04:16Z</time>
      </trkpt>
      <trkpt lat="44.40297" lon="5.46592">
        <ele>851</ele>
        <time>2013-05-11T09:04:18Z</time>
      </trkpt>
      <trkpt lat="44.40288" lon="5.46602">
        <ele>849.79998779297</ele>
        <time>2013-05-11T09:04:20Z</time>
      </trkpt>
      <trkpt lat="44.40279" lon="5.46609">
        <ele>848.20001220703</ele>
        <time>2013-05-11T09:04:23Z</time>
      </trkpt>
      <trkpt lat="44.40274" lon="5.46611">
        <ele>847.79998779297</ele>
        <time>2013-05-11T09:04:24Z</time>
      </trkpt>
      <trkpt lat="44.40269" lon="5.46613">
        <ele>847.20001220703</ele>
        <time>2013-05-11T09:04:25Z</time>
      </trkpt>
      <trkpt lat="44.40258" lon="5.46617">
        <ele>847.20001220703</ele>
        <time>2013-05-11T09:04:27Z</time>
      </trkpt>
      <trkpt lat="44.40255" lon="5.46621">
        <ele>846.79998779297</ele>
        <time>2013-05-11T09:04:28Z</time>
      </trkpt>
      <trkpt lat="44.40247" lon="5.46629">
        <ele>846</ele>
        <time>2013-05-11T09:04:30Z</time>
      </trkpt>
      <trkpt lat="44.40242" lon="5.46632">
        <ele>845.59997558594</ele>
        <time>2013-05-11T09:04:31Z</time>
      </trkpt>
      <trkpt lat="44.40234" lon="5.46636">
        <ele>844.59997558594</ele>
        <time>2013-05-11T09:04:33Z</time>
      </trkpt>
      <trkpt lat="44.40229" lon="5.46638">
        <ele>844</ele>
        <time>2013-05-11T09:04:34Z</time>
      </trkpt>
      <trkpt lat="44.40218" lon="5.46641">
        <ele>842.79998779297</ele>
        <time>2013-05-11T09:04:36Z</time>
      </trkpt>
      <trkpt lat="44.40206" lon="5.46651">
        <ele>841.40002441406</ele>
        <time>2013-05-11T09:04:38Z</time>
      </trkpt>
      <trkpt lat="44.40195" lon="5.46661">
        <ele>840</ele>
        <time>2013-05-11T09:04:40Z</time>
      </trkpt>
      <trkpt lat="44.40184" lon="5.46668">
        <ele>840</ele>
        <time>2013-05-11T09:04:42Z</time>
      </trkpt>
      <trkpt lat="44.40178" lon="5.46669">
        <ele>839.20001220703</ele>
        <time>2013-05-11T09:04:43Z</time>
      </trkpt>
      <trkpt lat="44.40173" lon="5.4667">
        <ele>838.40002441406</ele>
        <time>2013-05-11T09:04:44Z</time>
      </trkpt>
      <trkpt lat="44.40167" lon="5.46672">
        <ele>837.79998779297</ele>
        <time>2013-05-11T09:04:45Z</time>
      </trkpt>
      <trkpt lat="44.40156" lon="5.46678">
        <ele>837</ele>
        <time>2013-05-11T09:04:47Z</time>
      </trkpt>
      <trkpt lat="44.40149" lon="5.46682">
        <ele>836.40002441406</ele>
        <time>2013-05-11T09:04:48Z</time>
      </trkpt>
      <trkpt lat="44.40134" lon="5.46687">
        <ele>834.79998779297</ele>
        <time>2013-05-11T09:04:50Z</time>
      </trkpt>
      <trkpt lat="44.40118" lon="5.4669">
        <ele>833</ele>
        <time>2013-05-11T09:04:52Z</time>
      </trkpt>
      <trkpt lat="44.40104" lon="5.4669">
        <ele>831</ele>
        <time>2013-05-11T09:04:54Z</time>
      </trkpt>
      <trkpt lat="44.40092" lon="5.4669">
        <ele>830.20001220703</ele>
        <time>2013-05-11T09:04:56Z</time>
      </trkpt>
      <trkpt lat="44.40085" lon="5.46692">
        <ele>828.40002441406</ele>
        <time>2013-05-11T09:04:57Z</time>
      </trkpt>
      <trkpt lat="44.40079" lon="5.46694">
        <ele>827.40002441406</ele>
        <time>2013-05-11T09:04:58Z</time>
      </trkpt>
      <trkpt lat="44.40069" lon="5.46698">
        <ele>826.40002441406</ele>
        <time>2013-05-11T09:05:00Z</time>
      </trkpt>
      <trkpt lat="44.40065" lon="5.46701">
        <ele>825</ele>
        <time>2013-05-11T09:05:01Z</time>
      </trkpt>
      <trkpt lat="44.4006" lon="5.46703">
        <ele>824.40002441406</ele>
        <time>2013-05-11T09:05:02Z</time>
      </trkpt>
      <trkpt lat="44.40049" lon="5.46705">
        <ele>823.40002441406</ele>
        <time>2013-05-11T09:05:04Z</time>
      </trkpt>
      <trkpt lat="44.40036" lon="5.46706">
        <ele>822.40002441406</ele>
        <time>2013-05-11T09:05:06Z</time>
      </trkpt>
      <trkpt lat="44.40029" lon="5.46707">
        <ele>821.79998779297</ele>
        <time>2013-05-11T09:05:07Z</time>
      </trkpt>
      <trkpt lat="44.40011" lon="5.46703">
        <ele>820.59997558594</ele>
        <time>2013-05-11T09:05:10Z</time>
      </trkpt>
      <trkpt lat="44.40005" lon="5.46702">
        <ele>819.40002441406</ele>
        <time>2013-05-11T09:05:11Z</time>
      </trkpt>
      <trkpt lat="44.39997" lon="5.46701">
        <ele>818.59997558594</ele>
        <time>2013-05-11T09:05:12Z</time>
      </trkpt>
      <trkpt lat="44.39984" lon="5.46703">
        <ele>818</ele>
        <time>2013-05-11T09:05:14Z</time>
      </trkpt>
      <trkpt lat="44.39978" lon="5.46706">
        <ele>817.20001220703</ele>
        <time>2013-05-11T09:05:15Z</time>
      </trkpt>
      <trkpt lat="44.39967" lon="5.46712">
        <ele>815.79998779297</ele>
        <time>2013-05-11T09:05:17Z</time>
      </trkpt>
      <trkpt lat="44.39946" lon="5.46725">
        <ele>813.59997558594</ele>
        <time>2013-05-11T09:05:20Z</time>
      </trkpt>
      <trkpt lat="44.39936" lon="5.46732">
        <ele>812</ele>
        <time>2013-05-11T09:05:22Z</time>
      </trkpt>
      <trkpt lat="44.3993" lon="5.46739">
        <ele>811.20001220703</ele>
        <time>2013-05-11T09:05:24Z</time>
      </trkpt>
      <trkpt lat="44.39925" lon="5.46741">
        <ele>809.79998779297</ele>
        <time>2013-05-11T09:05:25Z</time>
      </trkpt>
      <trkpt lat="44.39917" lon="5.46748">
        <ele>808.59997558594</ele>
        <time>2013-05-11T09:05:27Z</time>
      </trkpt>
      <trkpt lat="44.39909" lon="5.46754">
        <ele>808.20001220703</ele>
        <time>2013-05-11T09:05:29Z</time>
      </trkpt>
      <trkpt lat="44.39896" lon="5.46758">
        <ele>805.79998779297</ele>
        <time>2013-05-11T09:05:32Z</time>
      </trkpt>
      <trkpt lat="44.39886" lon="5.46762">
        <ele>805.20001220703</ele>
        <time>2013-05-11T09:05:34Z</time>
      </trkpt>
      <trkpt lat="44.39878" lon="5.46767">
        <ele>803</ele>
        <time>2013-05-11T09:05:36Z</time>
      </trkpt>
      <trkpt lat="44.39865" lon="5.46768">
        <ele>800.59997558594</ele>
        <time>2013-05-11T09:05:39Z</time>
      </trkpt>
      <trkpt lat="44.39858" lon="5.46771">
        <ele>799.20001220703</ele>
        <time>2013-05-11T09:05:41Z</time>
      </trkpt>
      <trkpt lat="44.39851" lon="5.46784">
        <ele>797.40002441406</ele>
        <time>2013-05-11T09:05:44Z</time>
      </trkpt>
      <trkpt lat="44.3985" lon="5.46787">
        <ele>796.59997558594</ele>
        <time>2013-05-11T09:05:45Z</time>
      </trkpt>
      <trkpt lat="44.39849" lon="5.46792">
        <ele>796</ele>
        <time>2013-05-11T09:05:47Z</time>
      </trkpt>
      <trkpt lat="44.39837" lon="5.46799">
        <ele>793</ele>
        <time>2013-05-11T09:05:51Z</time>
      </trkpt>
      <trkpt lat="44.39825" lon="5.46802">
        <ele>792.59997558594</ele>
        <time>2013-05-11T09:05:54Z</time>
      </trkpt>
      <trkpt lat="44.39817" lon="5.46804">
        <ele>791.40002441406</ele>
        <time>2013-05-11T09:05:56Z</time>
      </trkpt>
      <trkpt lat="44.39809" lon="5.46808">
        <ele>790</ele>
        <time>2013-05-11T09:05:58Z</time>
      </trkpt>
      <trkpt lat="44.39804" lon="5.46812">
        <ele>789.20001220703</ele>
        <time>2013-05-11T09:05:59Z</time>
      </trkpt>
      <trkpt lat="44.39799" lon="5.46817">
        <ele>788.40002441406</ele>
        <time>2013-05-11T09:06:00Z</time>
      </trkpt>
      <trkpt lat="44.39796" lon="5.46821">
        <ele>788.40002441406</ele>
        <time>2013-05-11T09:06:01Z</time>
      </trkpt>
      <trkpt lat="44.3979" lon="5.46828">
        <ele>785.79998779297</ele>
        <time>2013-05-11T09:06:03Z</time>
      </trkpt>
      <trkpt lat="44.39787" lon="5.46831">
        <ele>785</ele>
        <time>2013-05-11T09:06:04Z</time>
      </trkpt>
      <trkpt lat="44.39777" lon="5.46841">
        <ele>784</ele>
        <time>2013-05-11T09:06:07Z</time>
      </trkpt>
      <trkpt lat="44.39769" lon="5.46848">
        <ele>782.79998779297</ele>
        <time>2013-05-11T09:06:09Z</time>
      </trkpt>
      <trkpt lat="44.39765" lon="5.46851">
        <ele>782.20001220703</ele>
        <time>2013-05-11T09:06:10Z</time>
      </trkpt>
      <trkpt lat="44.39756" lon="5.46859">
        <ele>781.59997558594</ele>
        <time>2013-05-11T09:06:12Z</time>
      </trkpt>
      <trkpt lat="44.39748" lon="5.46865">
        <ele>781</ele>
        <time>2013-05-11T09:06:13Z</time>
      </trkpt>
      <trkpt lat="44.3974" lon="5.46871">
        <ele>779.59997558594</ele>
        <time>2013-05-11T09:06:15Z</time>
      </trkpt>
      <trkpt lat="44.39737" lon="5.46875">
        <ele>779.59997558594</ele>
        <time>2013-05-11T09:06:16Z</time>
      </trkpt>
      <trkpt lat="44.39726" lon="5.46884">
        <ele>778.20001220703</ele>
        <time>2013-05-11T09:06:18Z</time>
      </trkpt>
      <trkpt lat="44.39712" lon="5.4689">
        <ele>776</ele>
        <time>2013-05-11T09:06:21Z</time>
      </trkpt>
      <trkpt lat="44.39708" lon="5.46891">
        <ele>775.40002441406</ele>
        <time>2013-05-11T09:06:22Z</time>
      </trkpt>
      <trkpt lat="44.39695" lon="5.46891">
        <ele>773.40002441406</ele>
        <time>2013-05-11T09:06:25Z</time>
      </trkpt>
      <trkpt lat="44.39682" lon="5.46895">
        <ele>771.79998779297</ele>
        <time>2013-05-11T09:06:28Z</time>
      </trkpt>
      <trkpt lat="44.39679" lon="5.46896">
        <ele>771.20001220703</ele>
        <time>2013-05-11T09:06:29Z</time>
      </trkpt>
      <trkpt lat="44.39669" lon="5.469">
        <ele>769</ele>
        <time>2013-05-11T09:06:32Z</time>
      </trkpt>
      <trkpt lat="44.39658" lon="5.46904">
        <ele>766</ele>
        <time>2013-05-11T09:06:35Z</time>
      </trkpt>
      <trkpt lat="44.39649" lon="5.46908">
        <ele>765.40002441406</ele>
        <time>2013-05-11T09:06:37Z</time>
      </trkpt>
      <trkpt lat="44.39645" lon="5.4691">
        <ele>764.20001220703</ele>
        <time>2013-05-11T09:06:38Z</time>
      </trkpt>
      <trkpt lat="44.39632" lon="5.46919">
        <ele>763</ele>
        <time>2013-05-11T09:06:41Z</time>
      </trkpt>
      <trkpt lat="44.39627" lon="5.46922">
        <ele>762.40002441406</ele>
        <time>2013-05-11T09:06:42Z</time>
      </trkpt>
      <trkpt lat="44.39618" lon="5.46931">
        <ele>760.79998779297</ele>
        <time>2013-05-11T09:06:44Z</time>
      </trkpt>
      <trkpt lat="44.3961" lon="5.46941">
        <ele>760.20001220703</ele>
        <time>2013-05-11T09:06:46Z</time>
      </trkpt>
      <trkpt lat="44.39595" lon="5.46956">
        <ele>758.20001220703</ele>
        <time>2013-05-11T09:06:50Z</time>
      </trkpt>
      <trkpt lat="44.39589" lon="5.46962">
        <ele>756.59997558594</ele>
        <time>2013-05-11T09:06:52Z</time>
      </trkpt>
      <trkpt lat="44.39579" lon="5.46972">
        <ele>756.20001220703</ele>
        <time>2013-05-11T09:06:55Z</time>
      </trkpt>
      <trkpt lat="44.39568" lon="5.46985">
        <ele>754.20001220703</ele>
        <time>2013-05-11T09:06:59Z</time>
      </trkpt>
      <trkpt lat="44.39562" lon="5.46991">
        <ele>753</ele>
        <time>2013-05-11T09:07:01Z</time>
      </trkpt>
      <trkpt lat="44.39555" lon="5.46995">
        <ele>752.59997558594</ele>
        <time>2013-05-11T09:07:03Z</time>
      </trkpt>
      <trkpt lat="44.39548" lon="5.47001">
        <ele>751.59997558594</ele>
        <time>2013-05-11T09:07:05Z</time>
      </trkpt>
      <trkpt lat="44.39539" lon="5.4701">
        <ele>750.20001220703</ele>
        <time>2013-05-11T09:07:08Z</time>
      </trkpt>
      <trkpt lat="44.39528" lon="5.4702">
        <ele>747.79998779297</ele>
        <time>2013-05-11T09:07:12Z</time>
      </trkpt>
      <trkpt lat="44.39525" lon="5.47022">
        <ele>747.20001220703</ele>
        <time>2013-05-11T09:07:13Z</time>
      </trkpt>
      <trkpt lat="44.39512" lon="5.47035">
        <ele>746.79998779297</ele>
        <time>2013-05-11T09:07:17Z</time>
      </trkpt>
      <trkpt lat="44.3951" lon="5.47037">
        <ele>745.79998779297</ele>
        <time>2013-05-11T09:07:19Z</time>
      </trkpt>
      <trkpt lat="44.39507" lon="5.4704">
        <ele>744.79998779297</ele>
        <time>2013-05-11T09:07:21Z</time>
      </trkpt>
      <trkpt lat="44.39496" lon="5.47047">
        <ele>744.40002441406</ele>
        <time>2013-05-11T09:07:26Z</time>
      </trkpt>
      <trkpt lat="44.39491" lon="5.47051">
        <ele>743.59997558594</ele>
        <time>2013-05-11T09:07:28Z</time>
      </trkpt>
      <trkpt lat="44.39489" lon="5.47054">
        <ele>743.20001220703</ele>
        <time>2013-05-11T09:07:29Z</time>
      </trkpt>
      <trkpt lat="44.39479" lon="5.4706">
        <ele>742</ele>
        <time>2013-05-11T09:07:33Z</time>
      </trkpt>
      <trkpt lat="44.39468" lon="5.47067">
        <ele>740.20001220703</ele>
        <time>2013-05-11T09:07:37Z</time>
      </trkpt>
      <trkpt lat="44.39463" lon="5.47072">
        <ele>739.40002441406</ele>
        <time>2013-05-11T09:07:39Z</time>
      </trkpt>
      <trkpt lat="44.3946" lon="5.47074">
        <ele>739</ele>
        <time>2013-05-11T09:07:40Z</time>
      </trkpt>
      <trkpt lat="44.39447" lon="5.47079">
        <ele>737</ele>
        <time>2013-05-11T09:07:45Z</time>
      </trkpt>
      <trkpt lat="44.39445" lon="5.47081">
        <ele>736.40002441406</ele>
        <time>2013-05-11T09:07:46Z</time>
      </trkpt>
      <trkpt lat="44.39437" lon="5.47084">
        <ele>735</ele>
        <time>2013-05-11T09:07:49Z</time>
      </trkpt>
      <trkpt lat="44.3943" lon="5.47087">
        <ele>734</ele>
        <time>2013-05-11T09:07:51Z</time>
      </trkpt>
      <trkpt lat="44.39419" lon="5.47091">
        <ele>732</ele>
        <time>2013-05-11T09:07:54Z</time>
      </trkpt>
      <trkpt lat="44.39408" lon="5.47095">
        <ele>729.79998779297</ele>
        <time>2013-05-11T09:07:57Z</time>
      </trkpt>
      <trkpt lat="44.39399" lon="5.47091">
        <ele>728.40002441406</ele>
        <time>2013-05-11T09:07:59Z</time>
      </trkpt>
      <trkpt lat="44.39394" lon="5.47088">
        <ele>727.79998779297</ele>
        <time>2013-05-11T09:08:00Z</time>
      </trkpt>
      <trkpt lat="44.39389" lon="5.47087">
        <ele>727.20001220703</ele>
        <time>2013-05-11T09:08:01Z</time>
      </trkpt>
      <trkpt lat="44.39374" lon="5.47092">
        <ele>725.59997558594</ele>
        <time>2013-05-11T09:08:03Z</time>
      </trkpt>
      <trkpt lat="44.39355" lon="5.47097">
        <ele>723.79998779297</ele>
        <time>2013-05-11T09:08:05Z</time>
      </trkpt>
      <trkpt lat="44.39346" lon="5.47097">
        <ele>722.20001220703</ele>
        <time>2013-05-11T09:08:06Z</time>
      </trkpt>
      <trkpt lat="44.39338" lon="5.47096">
        <ele>720.59997558594</ele>
        <time>2013-05-11T09:08:07Z</time>
      </trkpt>
      <trkpt lat="44.39326" lon="5.47085">
        <ele>717.59997558594</ele>
        <time>2013-05-11T09:08:09Z</time>
      </trkpt>
      <trkpt lat="44.39323" lon="5.47077">
        <ele>716.20001220703</ele>
        <time>2013-05-11T09:08:10Z</time>
      </trkpt>
      <trkpt lat="44.39323" lon="5.47069">
        <ele>714.59997558594</ele>
        <time>2013-05-11T09:08:11Z</time>
      </trkpt>
      <trkpt lat="44.39328" lon="5.47054">
        <ele>712.40002441406</ele>
        <time>2013-05-11T09:08:13Z</time>
      </trkpt>
      <trkpt lat="44.3933" lon="5.47048">
        <ele>711.59997558594</ele>
        <time>2013-05-11T09:08:14Z</time>
      </trkpt>
      <trkpt lat="44.39326" lon="5.47038">
        <ele>709.79998779297</ele>
        <time>2013-05-11T09:08:16Z</time>
      </trkpt>
      <trkpt lat="44.39315" lon="5.47038">
        <ele>709</ele>
        <time>2013-05-11T09:08:18Z</time>
      </trkpt>
      <trkpt lat="44.39309" lon="5.47041">
        <ele>707.20001220703</ele>
        <time>2013-05-11T09:08:19Z</time>
      </trkpt>
      <trkpt lat="44.39299" lon="5.47051">
        <ele>705.40002441406</ele>
        <time>2013-05-11T09:08:21Z</time>
      </trkpt>
      <trkpt lat="44.39283" lon="5.47071">
        <ele>704</ele>
        <time>2013-05-11T09:08:24Z</time>
      </trkpt>
      <trkpt lat="44.39278" lon="5.47077">
        <ele>703.40002441406</ele>
        <time>2013-05-11T09:08:25Z</time>
      </trkpt>
      <trkpt lat="44.39273" lon="5.47084">
        <ele>703</ele>
        <time>2013-05-11T09:08:27Z</time>
      </trkpt>
      <trkpt lat="44.39276" lon="5.47091">
        <ele>699.79998779297</ele>
        <time>2013-05-11T09:08:41Z</time>
      </trkpt>
      <trkpt lat="44.39283" lon="5.47113">
        <ele>698.59997558594</ele>
        <time>2013-05-11T09:27:37Z</time>
      </trkpt>
      <trkpt lat="44.39289" lon="5.47109">
        <ele>698.59997558594</ele>
        <time>2013-05-11T09:27:42Z</time>
      </trkpt>
      <trkpt lat="44.39291" lon="5.47108">
        <ele>698.59997558594</ele>
        <time>2013-05-11T09:27:43Z</time>
      </trkpt>
      <trkpt lat="44.39297" lon="5.47111">
        <ele>699.40002441406</ele>
        <time>2013-05-11T09:27:48Z</time>
      </trkpt>
      <trkpt lat="44.393" lon="5.47115">
        <ele>700.59997558594</ele>
        <time>2013-05-11T09:27:51Z</time>
      </trkpt>
      <trkpt lat="44.39302" lon="5.47122">
        <ele>701</ele>
        <time>2013-05-11T09:27:55Z</time>
      </trkpt>
      <trkpt lat="44.39315" lon="5.47137">
        <ele>702.59997558594</ele>
        <time>2013-05-11T09:28:04Z</time>
      </trkpt>
      <trkpt lat="44.39332" lon="5.47149">
        <ele>703.20001220703</ele>
        <time>2013-05-11T09:28:16Z</time>
      </trkpt>
      <trkpt lat="44.39333" lon="5.4715">
        <ele>703.59997558594</ele>
        <time>2013-05-11T09:28:17Z</time>
      </trkpt>
      <trkpt lat="44.39344" lon="5.47169">
        <ele>704.79998779297</ele>
        <time>2013-05-11T09:28:27Z</time>
      </trkpt>
      <trkpt lat="44.39355" lon="5.47181">
        <ele>704.79998779297</ele>
        <time>2013-05-11T09:28:34Z</time>
      </trkpt>
      <trkpt lat="44.3936" lon="5.47197">
        <ele>704.79998779297</ele>
        <time>2013-05-11T09:28:40Z</time>
      </trkpt>
      <trkpt lat="44.39365" lon="5.47213">
        <ele>705.20001220703</ele>
        <time>2013-05-11T09:28:46Z</time>
      </trkpt>
      <trkpt lat="44.39368" lon="5.4722">
        <ele>706.40002441406</ele>
        <time>2013-05-11T09:28:49Z</time>
      </trkpt>
      <trkpt lat="44.39378" lon="5.47253">
        <ele>706.79998779297</ele>
        <time>2013-05-11T09:29:01Z</time>
      </trkpt>
      <trkpt lat="44.39381" lon="5.47261">
        <ele>706.79998779297</ele>
        <time>2013-05-11T09:29:04Z</time>
      </trkpt>
      <trkpt lat="44.39386" lon="5.47271">
        <ele>708.20001220703</ele>
        <time>2013-05-11T09:29:08Z</time>
      </trkpt>
      <trkpt lat="44.39405" lon="5.47281">
        <ele>709</ele>
        <time>2013-05-11T09:29:17Z</time>
      </trkpt>
      <trkpt lat="44.39413" lon="5.47284">
        <ele>709.40002441406</ele>
        <time>2013-05-11T09:29:22Z</time>
      </trkpt>
      <trkpt lat="44.39421" lon="5.47287">
        <ele>710.79998779297</ele>
        <time>2013-05-11T09:29:26Z</time>
      </trkpt>
      <trkpt lat="44.39437" lon="5.47292">
        <ele>711.20001220703</ele>
        <time>2013-05-11T09:29:34Z</time>
      </trkpt>
      <trkpt lat="44.39457" lon="5.47297">
        <ele>711.59997558594</ele>
        <time>2013-05-11T09:29:43Z</time>
      </trkpt>
      <trkpt lat="44.3946" lon="5.47299">
        <ele>712.59997558594</ele>
        <time>2013-05-11T09:29:45Z</time>
      </trkpt>
      <trkpt lat="44.39465" lon="5.473">
        <ele>713.40002441406</ele>
        <time>2013-05-11T09:29:47Z</time>
      </trkpt>
      <trkpt lat="44.39477" lon="5.47304">
        <ele>713.40002441406</ele>
        <time>2013-05-11T09:29:52Z</time>
      </trkpt>
      <trkpt lat="44.39491" lon="5.47307">
        <ele>713.40002441406</ele>
        <time>2013-05-11T09:29:58Z</time>
      </trkpt>
      <trkpt lat="44.39515" lon="5.47313">
        <ele>713.40002441406</ele>
        <time>2013-05-11T09:30:09Z</time>
      </trkpt>
      <trkpt lat="44.39521" lon="5.47314">
        <ele>714.40002441406</ele>
        <time>2013-05-11T09:30:12Z</time>
      </trkpt>
      <trkpt lat="44.39537" lon="5.47318">
        <ele>715.59997558594</ele>
        <time>2013-05-11T09:30:21Z</time>
      </trkpt>
      <trkpt lat="44.3954" lon="5.47318">
        <ele>715.59997558594</ele>
        <time>2013-05-11T09:30:23Z</time>
      </trkpt>
      <trkpt lat="44.3955" lon="5.47317">
        <ele>716.40002441406</ele>
        <time>2013-05-11T09:30:28Z</time>
      </trkpt>
      <trkpt lat="44.39566" lon="5.47314">
        <ele>717.59997558594</ele>
        <time>2013-05-11T09:30:38Z</time>
      </trkpt>
      <trkpt lat="44.39571" lon="5.47314">
        <ele>718.40002441406</ele>
        <time>2013-05-11T09:30:41Z</time>
      </trkpt>
      <trkpt lat="44.3958" lon="5.47314">
        <ele>719.79998779297</ele>
        <time>2013-05-11T09:30:48Z</time>
      </trkpt>
      <trkpt lat="44.39591" lon="5.47316">
        <ele>721.79998779297</ele>
        <time>2013-05-11T09:30:55Z</time>
      </trkpt>
      <trkpt lat="44.39605" lon="5.47316">
        <ele>724</ele>
        <time>2013-05-11T09:31:04Z</time>
      </trkpt>
      <trkpt lat="44.39611" lon="5.47315">
        <ele>724.40002441406</ele>
        <time>2013-05-11T09:31:08Z</time>
      </trkpt>
      <trkpt lat="44.3963" lon="5.47312">
        <ele>726</ele>
        <time>2013-05-11T09:31:22Z</time>
      </trkpt>
      <trkpt lat="44.39632" lon="5.47312">
        <ele>726.40002441406</ele>
        <time>2013-05-11T09:31:23Z</time>
      </trkpt>
      <trkpt lat="44.39642" lon="5.47309">
        <ele>728</ele>
        <time>2013-05-11T09:31:31Z</time>
      </trkpt>
      <trkpt lat="44.39651" lon="5.47309">
        <ele>730.40002441406</ele>
        <time>2013-05-11T09:31:38Z</time>
      </trkpt>
      <trkpt lat="44.3966" lon="5.47311">
        <ele>731.20001220703</ele>
        <time>2013-05-11T09:31:45Z</time>
      </trkpt>
      <trkpt lat="44.39673" lon="5.47313">
        <ele>732.40002441406</ele>
        <time>2013-05-11T09:31:55Z</time>
      </trkpt>
      <trkpt lat="44.39683" lon="5.47326">
        <ele>734.59997558594</ele>
        <time>2013-05-11T09:32:06Z</time>
      </trkpt>
      <trkpt lat="44.39684" lon="5.47332">
        <ele>735.79998779297</ele>
        <time>2013-05-11T09:32:09Z</time>
      </trkpt>
      <trkpt lat="44.39684" lon="5.4734">
        <ele>736.59997558594</ele>
        <time>2013-05-11T09:32:13Z</time>
      </trkpt>
      <trkpt lat="44.39684" lon="5.47351">
        <ele>736.59997558594</ele>
        <time>2013-05-11T09:32:19Z</time>
      </trkpt>
      <trkpt lat="44.39681" lon="5.47361">
        <ele>738.79998779297</ele>
        <time>2013-05-11T09:32:25Z</time>
      </trkpt>
      <trkpt lat="44.39679" lon="5.47371">
        <ele>738.79998779297</ele>
        <time>2013-05-11T09:32:31Z</time>
      </trkpt>
      <trkpt lat="44.39679" lon="5.47385">
        <ele>740.79998779297</ele>
        <time>2013-05-11T09:32:39Z</time>
      </trkpt>
      <trkpt lat="44.39679" lon="5.47403">
        <ele>741.40002441406</ele>
        <time>2013-05-11T09:32:49Z</time>
      </trkpt>
      <trkpt lat="44.3968" lon="5.47411">
        <ele>743</ele>
        <time>2013-05-11T09:32:53Z</time>
      </trkpt>
      <trkpt lat="44.39687" lon="5.47423">
        <ele>743</ele>
        <time>2013-05-11T09:33:01Z</time>
      </trkpt>
      <trkpt lat="44.39692" lon="5.47427">
        <ele>743.40002441406</ele>
        <time>2013-05-11T09:33:05Z</time>
      </trkpt>
      <trkpt lat="44.397" lon="5.47431">
        <ele>745.20001220703</ele>
        <time>2013-05-11T09:33:11Z</time>
      </trkpt>
      <trkpt lat="44.39711" lon="5.47437">
        <ele>745.20001220703</ele>
        <time>2013-05-11T09:33:19Z</time>
      </trkpt>
      <trkpt lat="44.39715" lon="5.4744">
        <ele>746.40002441406</ele>
        <time>2013-05-11T09:33:22Z</time>
      </trkpt>
      <trkpt lat="44.39724" lon="5.47448">
        <ele>747.20001220703</ele>
        <time>2013-05-11T09:33:29Z</time>
      </trkpt>
      <trkpt lat="44.39732" lon="5.47456">
        <ele>747.59997558594</ele>
        <time>2013-05-11T09:33:36Z</time>
      </trkpt>
      <trkpt lat="44.39735" lon="5.4746">
        <ele>749</ele>
        <time>2013-05-11T09:33:39Z</time>
      </trkpt>
      <trkpt lat="44.3974" lon="5.47472">
        <ele>749.79998779297</ele>
        <time>2013-05-11T09:33:47Z</time>
      </trkpt>
      <trkpt lat="44.39756" lon="5.47478">
        <ele>751.79998779297</ele>
        <time>2013-05-11T09:33:58Z</time>
      </trkpt>
      <trkpt lat="44.3976" lon="5.47474">
        <ele>753.59997558594</ele>
        <time>2013-05-11T09:34:02Z</time>
      </trkpt>
      <trkpt lat="44.39762" lon="5.47464">
        <ele>753.59997558594</ele>
        <time>2013-05-11T09:34:07Z</time>
      </trkpt>
      <trkpt lat="44.39757" lon="5.4745">
        <ele>753.59997558594</ele>
        <time>2013-05-11T09:34:14Z</time>
      </trkpt>
      <trkpt lat="44.39754" lon="5.47445">
        <ele>754</ele>
        <time>2013-05-11T09:34:17Z</time>
      </trkpt>
      <trkpt lat="44.39748" lon="5.47438">
        <ele>755.79998779297</ele>
        <time>2013-05-11T09:34:23Z</time>
      </trkpt>
      <trkpt lat="44.39742" lon="5.47424">
        <ele>755.79998779297</ele>
        <time>2013-05-11T09:34:31Z</time>
      </trkpt>
      <trkpt lat="44.39742" lon="5.47419">
        <ele>756.20001220703</ele>
        <time>2013-05-11T09:34:33Z</time>
      </trkpt>
      <trkpt lat="44.39742" lon="5.4741">
        <ele>758.20001220703</ele>
        <time>2013-05-11T09:34:37Z</time>
      </trkpt>
      <trkpt lat="44.39753" lon="5.47393">
        <ele>758.59997558594</ele>
        <time>2013-05-11T09:34:47Z</time>
      </trkpt>
      <trkpt lat="44.39759" lon="5.47389">
        <ele>760.20001220703</ele>
        <time>2013-05-11T09:34:51Z</time>
      </trkpt>
      <trkpt lat="44.39761" lon="5.47389">
        <ele>760.20001220703</ele>
        <time>2013-05-11T09:34:52Z</time>
      </trkpt>
      <trkpt lat="44.39779" lon="5.47386">
        <ele>760.59997558594</ele>
        <time>2013-05-11T09:35:03Z</time>
      </trkpt>
      <trkpt lat="44.39781" lon="5.47385">
        <ele>761</ele>
        <time>2013-05-11T09:35:04Z</time>
      </trkpt>
      <trkpt lat="44.39795" lon="5.47384">
        <ele>762.20001220703</ele>
        <time>2013-05-11T09:35:12Z</time>
      </trkpt>
      <trkpt lat="44.39801" lon="5.47382">
        <ele>762.59997558594</ele>
        <time>2013-05-11T09:35:16Z</time>
      </trkpt>
      <trkpt lat="44.39804" lon="5.4738">
        <ele>763.40002441406</ele>
        <time>2013-05-11T09:35:18Z</time>
      </trkpt>
      <trkpt lat="44.39819" lon="5.47375">
        <ele>764.40002441406</ele>
        <time>2013-05-11T09:35:27Z</time>
      </trkpt>
      <trkpt lat="44.3983" lon="5.47375">
        <ele>764.40002441406</ele>
        <time>2013-05-11T09:35:34Z</time>
      </trkpt>
      <trkpt lat="44.39841" lon="5.47381">
        <ele>766.59997558594</ele>
        <time>2013-05-11T09:35:42Z</time>
      </trkpt>
      <trkpt lat="44.39847" lon="5.47392">
        <ele>766.59997558594</ele>
        <time>2013-05-11T09:35:49Z</time>
      </trkpt>
      <trkpt lat="44.3985" lon="5.47398">
        <ele>767.79998779297</ele>
        <time>2013-05-11T09:35:52Z</time>
      </trkpt>
      <trkpt lat="44.39851" lon="5.474">
        <ele>768.20001220703</ele>
        <time>2013-05-11T09:35:53Z</time>
      </trkpt>
      <trkpt lat="44.39859" lon="5.47424">
        <ele>768.59997558594</ele>
        <time>2013-05-11T09:36:05Z</time>
      </trkpt>
      <trkpt lat="44.3986" lon="5.47431">
        <ele>769</ele>
        <time>2013-05-11T09:36:08Z</time>
      </trkpt>
      <trkpt lat="44.39861" lon="5.47442">
        <ele>770.79998779297</ele>
        <time>2013-05-11T09:36:13Z</time>
      </trkpt>
      <trkpt lat="44.39859" lon="5.47457">
        <ele>771.20001220703</ele>
        <time>2013-05-11T09:36:20Z</time>
      </trkpt>
      <trkpt lat="44.39859" lon="5.47461">
        <ele>772</ele>
        <time>2013-05-11T09:36:22Z</time>
      </trkpt>
      <trkpt lat="44.39862" lon="5.47475">
        <ele>772.79998779297</ele>
        <time>2013-05-11T09:36:29Z</time>
      </trkpt>
      <trkpt lat="44.39866" lon="5.47481">
        <ele>772.79998779297</ele>
        <time>2013-05-11T09:36:33Z</time>
      </trkpt>
      <trkpt lat="44.39871" lon="5.47485">
        <ele>773.59997558594</ele>
        <time>2013-05-11T09:36:36Z</time>
      </trkpt>
      <trkpt lat="44.39885" lon="5.47489">
        <ele>774.79998779297</ele>
        <time>2013-05-11T09:36:46Z</time>
      </trkpt>
      <trkpt lat="44.39896" lon="5.47492">
        <ele>775.40002441406</ele>
        <time>2013-05-11T09:36:53Z</time>
      </trkpt>
      <trkpt lat="44.39901" lon="5.47495">
        <ele>777</ele>
        <time>2013-05-11T09:36:57Z</time>
      </trkpt>
      <trkpt lat="44.39907" lon="5.47501">
        <ele>777</ele>
        <time>2013-05-11T09:37:02Z</time>
      </trkpt>
      <trkpt lat="44.39912" lon="5.47507">
        <ele>777.40002441406</ele>
        <time>2013-05-11T09:37:06Z</time>
      </trkpt>
      <trkpt lat="44.39914" lon="5.4751">
        <ele>778.20001220703</ele>
        <time>2013-05-11T09:37:08Z</time>
      </trkpt>
      <trkpt lat="44.3992" lon="5.47516">
        <ele>779</ele>
        <time>2013-05-11T09:37:13Z</time>
      </trkpt>
      <trkpt lat="44.39926" lon="5.4752">
        <ele>780</ele>
        <time>2013-05-11T09:37:17Z</time>
      </trkpt>
      <trkpt lat="44.39931" lon="5.47523">
        <ele>781.79998779297</ele>
        <time>2013-05-11T09:37:22Z</time>
      </trkpt>
      <trkpt lat="44.39944" lon="5.47525">
        <ele>781.79998779297</ele>
        <time>2013-05-11T09:37:30Z</time>
      </trkpt>
      <trkpt lat="44.39951" lon="5.4752">
        <ele>782.20001220703</ele>
        <time>2013-05-11T09:37:35Z</time>
      </trkpt>
      <trkpt lat="44.39952" lon="5.47519">
        <ele>782.59997558594</ele>
        <time>2013-05-11T09:37:36Z</time>
      </trkpt>
      <trkpt lat="44.39952" lon="5.47499">
        <ele>784</ele>
        <time>2013-05-11T09:37:46Z</time>
      </trkpt>
      <trkpt lat="44.3994" lon="5.47488">
        <ele>784</ele>
        <time>2013-05-11T09:37:53Z</time>
      </trkpt>
      <trkpt lat="44.39935" lon="5.47483">
        <ele>784.40002441406</ele>
        <time>2013-05-11T09:37:57Z</time>
      </trkpt>
      <trkpt lat="44.39931" lon="5.4748">
        <ele>785.79998779297</ele>
        <time>2013-05-11T09:38:00Z</time>
      </trkpt>
      <trkpt lat="44.39929" lon="5.47478">
        <ele>786.20001220703</ele>
        <time>2013-05-11T09:38:01Z</time>
      </trkpt>
      <trkpt lat="44.39917" lon="5.47468">
        <ele>786.59997558594</ele>
        <time>2013-05-11T09:38:09Z</time>
      </trkpt>
      <trkpt lat="44.3991" lon="5.47458">
        <ele>788.20001220703</ele>
        <time>2013-05-11T09:38:16Z</time>
      </trkpt>
      <trkpt lat="44.3991" lon="5.47445">
        <ele>788.59997558594</ele>
        <time>2013-05-11T09:38:21Z</time>
      </trkpt>
      <trkpt lat="44.39913" lon="5.47439">
        <ele>790</ele>
        <time>2013-05-11T09:38:24Z</time>
      </trkpt>
      <trkpt lat="44.39926" lon="5.47416">
        <ele>790.79998779297</ele>
        <time>2013-05-11T09:38:36Z</time>
      </trkpt>
      <trkpt lat="44.39929" lon="5.47409">
        <ele>792.40002441406</ele>
        <time>2013-05-11T09:38:40Z</time>
      </trkpt>
      <trkpt lat="44.39933" lon="5.47401">
        <ele>792.40002441406</ele>
        <time>2013-05-11T09:38:44Z</time>
      </trkpt>
      <trkpt lat="44.39939" lon="5.47388">
        <ele>792.79998779297</ele>
        <time>2013-05-11T09:38:51Z</time>
      </trkpt>
      <trkpt lat="44.39941" lon="5.47386">
        <ele>793.20001220703</ele>
        <time>2013-05-11T09:38:52Z</time>
      </trkpt>
      <trkpt lat="44.39947" lon="5.47376">
        <ele>794.40002441406</ele>
        <time>2013-05-11T09:38:59Z</time>
      </trkpt>
      <trkpt lat="44.39956" lon="5.47367">
        <ele>794.79998779297</ele>
        <time>2013-05-11T09:39:06Z</time>
      </trkpt>
      <trkpt lat="44.3996" lon="5.47361">
        <ele>796.59997558594</ele>
        <time>2013-05-11T09:39:10Z</time>
      </trkpt>
      <trkpt lat="44.39968" lon="5.47352">
        <ele>796.59997558594</ele>
        <time>2013-05-11T09:39:16Z</time>
      </trkpt>
      <trkpt lat="44.39975" lon="5.47348">
        <ele>797</ele>
        <time>2013-05-11T09:39:21Z</time>
      </trkpt>
      <trkpt lat="44.39981" lon="5.47351">
        <ele>798.59997558594</ele>
        <time>2013-05-11T09:39:25Z</time>
      </trkpt>
      <trkpt lat="44.39985" lon="5.47363">
        <ele>798.59997558594</ele>
        <time>2013-05-11T09:39:31Z</time>
      </trkpt>
      <trkpt lat="44.39977" lon="5.47378">
        <ele>799</ele>
        <time>2013-05-11T09:39:38Z</time>
      </trkpt>
      <trkpt lat="44.39972" lon="5.47381">
        <ele>800.20001220703</ele>
        <time>2013-05-11T09:39:41Z</time>
      </trkpt>
      <trkpt lat="44.39968" lon="5.47382">
        <ele>800.59997558594</ele>
        <time>2013-05-11T09:39:43Z</time>
      </trkpt>
      <trkpt lat="44.39958" lon="5.47394">
        <ele>800.59997558594</ele>
        <time>2013-05-11T09:39:50Z</time>
      </trkpt>
      <trkpt lat="44.39958" lon="5.47403">
        <ele>800.59997558594</ele>
        <time>2013-05-11T09:39:53Z</time>
      </trkpt>
      <trkpt lat="44.39962" lon="5.47413">
        <ele>801</ele>
        <time>2013-05-11T09:39:58Z</time>
      </trkpt>
      <trkpt lat="44.39977" lon="5.47418">
        <ele>803.20001220703</ele>
        <time>2013-05-11T09:40:07Z</time>
      </trkpt>
      <trkpt lat="44.3998" lon="5.47418">
        <ele>804.20001220703</ele>
        <time>2013-05-11T09:40:09Z</time>
      </trkpt>
      <trkpt lat="44.39996" lon="5.47411">
        <ele>805</ele>
        <time>2013-05-11T09:40:19Z</time>
      </trkpt>
      <trkpt lat="44.40003" lon="5.47408">
        <ele>805.59997558594</ele>
        <time>2013-05-11T09:40:23Z</time>
      </trkpt>
      <trkpt lat="44.4001" lon="5.47404">
        <ele>807.20001220703</ele>
        <time>2013-05-11T09:40:28Z</time>
      </trkpt>
      <trkpt lat="44.4002" lon="5.47403">
        <ele>807.79998779297</ele>
        <time>2013-05-11T09:40:33Z</time>
      </trkpt>
      <trkpt lat="44.40031" lon="5.47404">
        <ele>809.40002441406</ele>
        <time>2013-05-11T09:40:39Z</time>
      </trkpt>
      <trkpt lat="44.40042" lon="5.47409">
        <ele>809.40002441406</ele>
        <time>2013-05-11T09:40:46Z</time>
      </trkpt>
      <trkpt lat="44.40046" lon="5.4741">
        <ele>809.79998779297</ele>
        <time>2013-05-11T09:40:49Z</time>
      </trkpt>
      <trkpt lat="44.40051" lon="5.47411">
        <ele>811</ele>
        <time>2013-05-11T09:40:52Z</time>
      </trkpt>
      <trkpt lat="44.40068" lon="5.4741">
        <ele>811.40002441406</ele>
        <time>2013-05-11T09:41:03Z</time>
      </trkpt>
      <trkpt lat="44.40073" lon="5.47411">
        <ele>812</ele>
        <time>2013-05-11T09:41:06Z</time>
      </trkpt>
      <trkpt lat="44.40082" lon="5.47412">
        <ele>813.59997558594</ele>
        <time>2013-05-11T09:41:12Z</time>
      </trkpt>
      <trkpt lat="44.40095" lon="5.47416">
        <ele>813.59997558594</ele>
        <time>2013-05-11T09:41:21Z</time>
      </trkpt>
      <trkpt lat="44.401" lon="5.47418">
        <ele>815.40002441406</ele>
        <time>2013-05-11T09:41:25Z</time>
      </trkpt>
      <trkpt lat="44.40105" lon="5.47421">
        <ele>815.79998779297</ele>
        <time>2013-05-11T09:41:28Z</time>
      </trkpt>
      <trkpt lat="44.40114" lon="5.47428">
        <ele>816.20001220703</ele>
        <time>2013-05-11T09:41:34Z</time>
      </trkpt>
      <trkpt lat="44.40117" lon="5.47431">
        <ele>817</ele>
        <time>2013-05-11T09:41:36Z</time>
      </trkpt>
      <trkpt lat="44.40127" lon="5.47453">
        <ele>817.79998779297</ele>
        <time>2013-05-11T09:41:45Z</time>
      </trkpt>
      <trkpt lat="44.40125" lon="5.47477">
        <ele>817.79998779297</ele>
        <time>2013-05-11T09:41:53Z</time>
      </trkpt>
      <trkpt lat="44.40121" lon="5.47499">
        <ele>817.79998779297</ele>
        <time>2013-05-11T09:42:01Z</time>
      </trkpt>
      <trkpt lat="44.40123" lon="5.47507">
        <ele>818.20001220703</ele>
        <time>2013-05-11T09:42:04Z</time>
      </trkpt>
      <trkpt lat="44.40124" lon="5.47512">
        <ele>819.20001220703</ele>
        <time>2013-05-11T09:42:06Z</time>
      </trkpt>
      <trkpt lat="44.40138" lon="5.47528">
        <ele>820.40002441406</ele>
        <time>2013-05-11T09:42:16Z</time>
      </trkpt>
      <trkpt lat="44.40141" lon="5.47531">
        <ele>821.40002441406</ele>
        <time>2013-05-11T09:42:18Z</time>
      </trkpt>
      <trkpt lat="44.40153" lon="5.47538">
        <ele>822.20001220703</ele>
        <time>2013-05-11T09:42:25Z</time>
      </trkpt>
      <trkpt lat="44.40155" lon="5.4754">
        <ele>822.59997558594</ele>
        <time>2013-05-11T09:42:27Z</time>
      </trkpt>
      <trkpt lat="44.40161" lon="5.47544">
        <ele>823.79998779297</ele>
        <time>2013-05-11T09:42:30Z</time>
      </trkpt>
      <trkpt lat="44.40169" lon="5.4755">
        <ele>824.20001220703</ele>
        <time>2013-05-11T09:42:35Z</time>
      </trkpt>
      <trkpt lat="44.40179" lon="5.47559">
        <ele>824.79998779297</ele>
        <time>2013-05-11T09:42:42Z</time>
      </trkpt>
      <trkpt lat="44.40182" lon="5.4756">
        <ele>825.59997558594</ele>
        <time>2013-05-11T09:42:44Z</time>
      </trkpt>
      <trkpt lat="44.40197" lon="5.47568">
        <ele>826.59997558594</ele>
        <time>2013-05-11T09:42:53Z</time>
      </trkpt>
      <trkpt lat="44.402" lon="5.4757">
        <ele>827.40002441406</ele>
        <time>2013-05-11T09:42:55Z</time>
      </trkpt>
      <trkpt lat="44.40221" lon="5.47581">
        <ele>829.20001220703</ele>
        <time>2013-05-11T09:43:08Z</time>
      </trkpt>
      <trkpt lat="44.40236" lon="5.47587">
        <ele>831.59997558594</ele>
        <time>2013-05-11T09:43:17Z</time>
      </trkpt>
      <trkpt lat="44.40241" lon="5.47589">
        <ele>832.79998779297</ele>
        <time>2013-05-11T09:43:20Z</time>
      </trkpt>
      <trkpt lat="44.40248" lon="5.47591">
        <ele>833.40002441406</ele>
        <time>2013-05-11T09:43:24Z</time>
      </trkpt>
      <trkpt lat="44.40262" lon="5.47598">
        <ele>833.79998779297</ele>
        <time>2013-05-11T09:43:33Z</time>
      </trkpt>
      <trkpt lat="44.40269" lon="5.476">
        <ele>835.59997558594</ele>
        <time>2013-05-11T09:43:37Z</time>
      </trkpt>
      <trkpt lat="44.40274" lon="5.47603">
        <ele>836</ele>
        <time>2013-05-11T09:43:40Z</time>
      </trkpt>
      <trkpt lat="44.40281" lon="5.47605">
        <ele>837.59997558594</ele>
        <time>2013-05-11T09:43:44Z</time>
      </trkpt>
      <trkpt lat="44.40298" lon="5.47613">
        <ele>837.59997558594</ele>
        <time>2013-05-11T09:43:54Z</time>
      </trkpt>
      <trkpt lat="44.403" lon="5.47613">
        <ele>838</ele>
        <time>2013-05-11T09:43:55Z</time>
      </trkpt>
      <trkpt lat="44.40313" lon="5.47617">
        <ele>839.59997558594</ele>
        <time>2013-05-11T09:44:02Z</time>
      </trkpt>
      <trkpt lat="44.40324" lon="5.4762">
        <ele>840</ele>
        <time>2013-05-11T09:44:08Z</time>
      </trkpt>
      <trkpt lat="44.40326" lon="5.4762">
        <ele>840.40002441406</ele>
        <time>2013-05-11T09:44:09Z</time>
      </trkpt>
      <trkpt lat="44.40331" lon="5.47622">
        <ele>841.59997558594</ele>
        <time>2013-05-11T09:44:12Z</time>
      </trkpt>
      <trkpt lat="44.40342" lon="5.47623">
        <ele>842</ele>
        <time>2013-05-11T09:44:18Z</time>
      </trkpt>
      <trkpt lat="44.40358" lon="5.47633">
        <ele>843.79998779297</ele>
        <time>2013-05-11T09:44:28Z</time>
      </trkpt>
      <trkpt lat="44.40368" lon="5.47641">
        <ele>843.79998779297</ele>
        <time>2013-05-11T09:44:34Z</time>
      </trkpt>
      <trkpt lat="44.40375" lon="5.47644">
        <ele>844.20001220703</ele>
        <time>2013-05-11T09:44:38Z</time>
      </trkpt>
      <trkpt lat="44.40381" lon="5.47646">
        <ele>845.40002441406</ele>
        <time>2013-05-11T09:44:41Z</time>
      </trkpt>
      <trkpt lat="44.40398" lon="5.47654">
        <ele>846</ele>
        <time>2013-05-11T09:44:51Z</time>
      </trkpt>
      <trkpt lat="44.40416" lon="5.4766">
        <ele>846.40002441406</ele>
        <time>2013-05-11T09:45:01Z</time>
      </trkpt>
      <trkpt lat="44.40417" lon="5.47661">
        <ele>846.79998779297</ele>
        <time>2013-05-11T09:45:02Z</time>
      </trkpt>
      <trkpt lat="44.40421" lon="5.47663">
        <ele>847.79998779297</ele>
        <time>2013-05-11T09:45:04Z</time>
      </trkpt>
      <trkpt lat="44.40434" lon="5.4767">
        <ele>848.20001220703</ele>
        <time>2013-05-11T09:45:12Z</time>
      </trkpt>
      <trkpt lat="44.40444" lon="5.4768">
        <ele>848.59997558594</ele>
        <time>2013-05-11T09:45:18Z</time>
      </trkpt>
      <trkpt lat="44.40446" lon="5.47682">
        <ele>849</ele>
        <time>2013-05-11T09:45:19Z</time>
      </trkpt>
      <trkpt lat="44.40459" lon="5.47698">
        <ele>850.20001220703</ele>
        <time>2013-05-11T09:45:28Z</time>
      </trkpt>
      <trkpt lat="44.40474" lon="5.47701">
        <ele>850.20001220703</ele>
        <time>2013-05-11T09:45:38Z</time>
      </trkpt>
      <trkpt lat="44.40479" lon="5.477">
        <ele>851</ele>
        <time>2013-05-11T09:45:41Z</time>
      </trkpt>
      <trkpt lat="44.4048" lon="5.477">
        <ele>851.59997558594</ele>
        <time>2013-05-11T09:45:42Z</time>
      </trkpt>
      <trkpt lat="44.4049" lon="5.477">
        <ele>852.40002441406</ele>
        <time>2013-05-11T09:45:49Z</time>
      </trkpt>
      <trkpt lat="44.40492" lon="5.477">
        <ele>852.79998779297</ele>
        <time>2013-05-11T09:45:51Z</time>
      </trkpt>
      <trkpt lat="44.40512" lon="5.47699">
        <ele>854.40002441406</ele>
        <time>2013-05-11T09:46:05Z</time>
      </trkpt>
      <trkpt lat="44.40521" lon="5.477">
        <ele>854.79998779297</ele>
        <time>2013-05-11T09:46:11Z</time>
      </trkpt>
      <trkpt lat="44.40538" lon="5.47697">
        <ele>856.40002441406</ele>
        <time>2013-05-11T09:46:21Z</time>
      </trkpt>
      <trkpt lat="44.40541" lon="5.47695">
        <ele>857</ele>
        <time>2013-05-11T09:46:23Z</time>
      </trkpt>
      <trkpt lat="44.40554" lon="5.47689">
        <ele>858.59997558594</ele>
        <time>2013-05-11T09:46:31Z</time>
      </trkpt>
      <trkpt lat="44.40564" lon="5.47688">
        <ele>859</ele>
        <time>2013-05-11T09:46:38Z</time>
      </trkpt>
      <trkpt lat="44.40575" lon="5.47685">
        <ele>860.79998779297</ele>
        <time>2013-05-11T09:46:46Z</time>
      </trkpt>
      <trkpt lat="44.40586" lon="5.47681">
        <ele>860.79998779297</ele>
        <time>2013-05-11T09:46:52Z</time>
      </trkpt>
      <trkpt lat="44.40598" lon="5.47681">
        <ele>861.20001220703</ele>
        <time>2013-05-11T09:46:59Z</time>
      </trkpt>
      <trkpt lat="44.40601" lon="5.47681">
        <ele>862</ele>
        <time>2013-05-11T09:47:01Z</time>
      </trkpt>
      <trkpt lat="44.40612" lon="5.47684">
        <ele>863.20001220703</ele>
        <time>2013-05-11T09:47:09Z</time>
      </trkpt>
      <trkpt lat="44.40623" lon="5.47693">
        <ele>864.79998779297</ele>
        <time>2013-05-11T09:47:17Z</time>
      </trkpt>
      <trkpt lat="44.40631" lon="5.477">
        <ele>866.20001220703</ele>
        <time>2013-05-11T09:47:24Z</time>
      </trkpt>
      <trkpt lat="44.40632" lon="5.477">
        <ele>866.59997558594</ele>
        <time>2013-05-11T09:47:25Z</time>
      </trkpt>
      <trkpt lat="44.40642" lon="5.47706">
        <ele>867.40002441406</ele>
        <time>2013-05-11T09:47:32Z</time>
      </trkpt>
      <trkpt lat="44.4066" lon="5.47708">
        <ele>869.20001220703</ele>
        <time>2013-05-11T09:47:43Z</time>
      </trkpt>
      <trkpt lat="44.40673" lon="5.47712">
        <ele>869.20001220703</ele>
        <time>2013-05-11T09:47:51Z</time>
      </trkpt>
      <trkpt lat="44.40682" lon="5.47715">
        <ele>870</ele>
        <time>2013-05-11T09:47:57Z</time>
      </trkpt>
      <trkpt lat="44.40694" lon="5.4772">
        <ele>871.59997558594</ele>
        <time>2013-05-11T09:48:06Z</time>
      </trkpt>
      <trkpt lat="44.40704" lon="5.47724">
        <ele>873.79998779297</ele>
        <time>2013-05-11T09:48:14Z</time>
      </trkpt>
      <trkpt lat="44.40715" lon="5.47734">
        <ele>875.79998779297</ele>
        <time>2013-05-11T09:48:27Z</time>
      </trkpt>
      <trkpt lat="44.4072" lon="5.47745">
        <ele>877.59997558594</ele>
        <time>2013-05-11T09:48:34Z</time>
      </trkpt>
      <trkpt lat="44.4072" lon="5.47748">
        <ele>877.59997558594</ele>
        <time>2013-05-11T09:48:36Z</time>
      </trkpt>
      <trkpt lat="44.40722" lon="5.47754">
        <ele>878</ele>
        <time>2013-05-11T09:48:39Z</time>
      </trkpt>
      <trkpt lat="44.40725" lon="5.47762">
        <ele>879.59997558594</ele>
        <time>2013-05-11T09:48:43Z</time>
      </trkpt>
      <trkpt lat="44.40737" lon="5.47777">
        <ele>879.59997558594</ele>
        <time>2013-05-11T09:48:54Z</time>
      </trkpt>
      <trkpt lat="44.4074" lon="5.47781">
        <ele>880</ele>
        <time>2013-05-11T09:48:57Z</time>
      </trkpt>
      <trkpt lat="44.40754" lon="5.47798">
        <ele>882</ele>
        <time>2013-05-11T09:49:11Z</time>
      </trkpt>
      <trkpt lat="44.40755" lon="5.47801">
        <ele>882.40002441406</ele>
        <time>2013-05-11T09:49:13Z</time>
      </trkpt>
      <trkpt lat="44.40766" lon="5.47817">
        <ele>884.20001220703</ele>
        <time>2013-05-11T09:49:24Z</time>
      </trkpt>
      <trkpt lat="44.40769" lon="5.47823">
        <ele>884.59997558594</ele>
        <time>2013-05-11T09:49:28Z</time>
      </trkpt>
      <trkpt lat="44.40771" lon="5.47826">
        <ele>885.40002441406</ele>
        <time>2013-05-11T09:49:30Z</time>
      </trkpt>
      <trkpt lat="44.40773" lon="5.47833">
        <ele>886.40002441406</ele>
        <time>2013-05-11T09:49:34Z</time>
      </trkpt>
      <trkpt lat="44.40777" lon="5.47847">
        <ele>886.79998779297</ele>
        <time>2013-05-11T09:49:41Z</time>
      </trkpt>
      <trkpt lat="44.40779" lon="5.47852">
        <ele>888</ele>
        <time>2013-05-11T09:49:44Z</time>
      </trkpt>
      <trkpt lat="44.4078" lon="5.47854">
        <ele>888.40002441406</ele>
        <time>2013-05-11T09:49:45Z</time>
      </trkpt>
      <trkpt lat="44.40783" lon="5.4786">
        <ele>888.40002441406</ele>
        <time>2013-05-11T09:49:49Z</time>
      </trkpt>
      <trkpt lat="44.40789" lon="5.47873">
        <ele>888.79998779297</ele>
        <time>2013-05-11T09:49:57Z</time>
      </trkpt>
      <trkpt lat="44.40791" lon="5.47879">
        <ele>890.20001220703</ele>
        <time>2013-05-11T09:50:00Z</time>
      </trkpt>
      <trkpt lat="44.40795" lon="5.47886">
        <ele>890.79998779297</ele>
        <time>2013-05-11T09:50:05Z</time>
      </trkpt>
      <trkpt lat="44.408" lon="5.47898">
        <ele>891.20001220703</ele>
        <time>2013-05-11T09:50:12Z</time>
      </trkpt>
      <trkpt lat="44.40802" lon="5.47901">
        <ele>892</ele>
        <time>2013-05-11T09:50:14Z</time>
      </trkpt>
      <trkpt lat="44.4081" lon="5.47916">
        <ele>892.79998779297</ele>
        <time>2013-05-11T09:50:24Z</time>
      </trkpt>
      <trkpt lat="44.40813" lon="5.47925">
        <ele>893.20001220703</ele>
        <time>2013-05-11T09:50:30Z</time>
      </trkpt>
      <trkpt lat="44.40817" lon="5.47931">
        <ele>895</ele>
        <time>2013-05-11T09:50:36Z</time>
      </trkpt>
      <trkpt lat="44.40824" lon="5.47936">
        <ele>895</ele>
        <time>2013-05-11T09:50:42Z</time>
      </trkpt>
      <trkpt lat="44.40831" lon="5.47932">
        <ele>895.79998779297</ele>
        <time>2013-05-11T09:50:48Z</time>
      </trkpt>
      <trkpt lat="44.40833" lon="5.47929">
        <ele>896.59997558594</ele>
        <time>2013-05-11T09:50:50Z</time>
      </trkpt>
      <trkpt lat="44.40833" lon="5.4792">
        <ele>897</ele>
        <time>2013-05-11T09:50:55Z</time>
      </trkpt>
      <trkpt lat="44.40829" lon="5.47908">
        <ele>897.59997558594</ele>
        <time>2013-05-11T09:51:03Z</time>
      </trkpt>
      <trkpt lat="44.40821" lon="5.47896">
        <ele>899.20001220703</ele>
        <time>2013-05-11T09:51:12Z</time>
      </trkpt>
      <trkpt lat="44.40816" lon="5.47881">
        <ele>899.20001220703</ele>
        <time>2013-05-11T09:51:21Z</time>
      </trkpt>
      <trkpt lat="44.40815" lon="5.47877">
        <ele>899.59997558594</ele>
        <time>2013-05-11T09:51:23Z</time>
      </trkpt>
      <trkpt lat="44.40814" lon="5.4787">
        <ele>901.20001220703</ele>
        <time>2013-05-11T09:51:27Z</time>
      </trkpt>
      <trkpt lat="44.40814" lon="5.47841">
        <ele>901.20001220703</ele>
        <time>2013-05-11T09:51:42Z</time>
      </trkpt>
      <trkpt lat="44.40814" lon="5.47839">
        <ele>901.59997558594</ele>
        <time>2013-05-11T09:51:43Z</time>
      </trkpt>
      <trkpt lat="44.40815" lon="5.4781">
        <ele>903.79998779297</ele>
        <time>2013-05-11T09:51:59Z</time>
      </trkpt>
      <trkpt lat="44.40816" lon="5.4779">
        <ele>905.59997558594</ele>
        <time>2013-05-11T09:52:10Z</time>
      </trkpt>
      <trkpt lat="44.40817" lon="5.47779">
        <ele>906</ele>
        <time>2013-05-11T09:52:16Z</time>
      </trkpt>
      <trkpt lat="44.40816" lon="5.47769">
        <ele>907.59997558594</ele>
        <time>2013-05-11T09:52:21Z</time>
      </trkpt>
      <trkpt lat="44.40815" lon="5.47748">
        <ele>907.59997558594</ele>
        <time>2013-05-11T09:52:32Z</time>
      </trkpt>
      <trkpt lat="44.40813" lon="5.4774">
        <ele>909.20001220703</ele>
        <time>2013-05-11T09:52:36Z</time>
      </trkpt>
      <trkpt lat="44.40812" lon="5.47728">
        <ele>909.59997558594</ele>
        <time>2013-05-11T09:52:42Z</time>
      </trkpt>
      <trkpt lat="44.40812" lon="5.47712">
        <ele>910</ele>
        <time>2013-05-11T09:52:50Z</time>
      </trkpt>
      <trkpt lat="44.40813" lon="5.47708">
        <ele>910.79998779297</ele>
        <time>2013-05-11T09:52:52Z</time>
      </trkpt>
      <trkpt lat="44.40818" lon="5.47696">
        <ele>911.79998779297</ele>
        <time>2013-05-11T09:52:59Z</time>
      </trkpt>
      <trkpt lat="44.4082" lon="5.47694">
        <ele>911.79998779297</ele>
        <time>2013-05-11T09:53:01Z</time>
      </trkpt>
      <trkpt lat="44.4083" lon="5.4769">
        <ele>911.79998779297</ele>
        <time>2013-05-11T09:53:08Z</time>
      </trkpt>
      <trkpt lat="44.40834" lon="5.4769">
        <ele>912.20001220703</ele>
        <time>2013-05-11T09:53:10Z</time>
      </trkpt>
      <trkpt lat="44.40838" lon="5.4769">
        <ele>913.59997558594</ele>
        <time>2013-05-11T09:53:13Z</time>
      </trkpt>
      <trkpt lat="44.40844" lon="5.47697">
        <ele>914</ele>
        <time>2013-05-11T09:53:18Z</time>
      </trkpt>
      <trkpt lat="44.40847" lon="5.47714">
        <ele>914</ele>
        <time>2013-05-11T09:53:27Z</time>
      </trkpt>
      <trkpt lat="44.40848" lon="5.47722">
        <ele>914.79998779297</ele>
        <time>2013-05-11T09:53:31Z</time>
      </trkpt>
      <trkpt lat="44.40849" lon="5.47731">
        <ele>915.59997558594</ele>
        <time>2013-05-11T09:53:36Z</time>
      </trkpt>
      <trkpt lat="44.4085" lon="5.47735">
        <ele>916</ele>
        <time>2013-05-11T09:53:38Z</time>
      </trkpt>
      <trkpt lat="44.40853" lon="5.4775">
        <ele>916.59997558594</ele>
        <time>2013-05-11T09:53:45Z</time>
      </trkpt>
      <trkpt lat="44.40854" lon="5.47754">
        <ele>917</ele>
        <time>2013-05-11T09:53:47Z</time>
      </trkpt>
      <trkpt lat="44.40855" lon="5.4776">
        <ele>918.40002441406</ele>
        <time>2013-05-11T09:53:50Z</time>
      </trkpt>
      <trkpt lat="44.40856" lon="5.47776">
        <ele>918.40002441406</ele>
        <time>2013-05-11T09:53:57Z</time>
      </trkpt>
      <trkpt lat="44.40859" lon="5.47797">
        <ele>918.79998779297</ele>
        <time>2013-05-11T09:54:07Z</time>
      </trkpt>
      <trkpt lat="44.4086" lon="5.47801">
        <ele>919.20001220703</ele>
        <time>2013-05-11T09:54:09Z</time>
      </trkpt>
      <trkpt lat="44.40861" lon="5.47806">
        <ele>920</ele>
        <time>2013-05-11T09:54:12Z</time>
      </trkpt>
      <trkpt lat="44.40862" lon="5.47816">
        <ele>920.40002441406</ele>
        <time>2013-05-11T09:54:17Z</time>
      </trkpt>
      <trkpt lat="44.40869" lon="5.47829">
        <ele>920.40002441406</ele>
        <time>2013-05-11T09:54:26Z</time>
      </trkpt>
      <trkpt lat="44.40875" lon="5.47834">
        <ele>921.40002441406</ele>
        <time>2013-05-11T09:54:31Z</time>
      </trkpt>
      <trkpt lat="44.40881" lon="5.47837">
        <ele>922.20001220703</ele>
        <time>2013-05-11T09:54:35Z</time>
      </trkpt>
      <trkpt lat="44.40892" lon="5.4784">
        <ele>923</ele>
        <time>2013-05-11T09:54:43Z</time>
      </trkpt>
      <trkpt lat="44.40895" lon="5.4784">
        <ele>923.40002441406</ele>
        <time>2013-05-11T09:54:45Z</time>
      </trkpt>
      <trkpt lat="44.40902" lon="5.47844">
        <ele>924.79998779297</ele>
        <time>2013-05-11T09:54:50Z</time>
      </trkpt>
      <trkpt lat="44.40922" lon="5.47859">
        <ele>925.59997558594</ele>
        <time>2013-05-11T09:55:04Z</time>
      </trkpt>
      <trkpt lat="44.40923" lon="5.4786">
        <ele>925.59997558594</ele>
        <time>2013-05-11T09:55:05Z</time>
      </trkpt>
      <trkpt lat="44.40942" lon="5.47879">
        <ele>926.79998779297</ele>
        <time>2013-05-11T09:55:18Z</time>
      </trkpt>
      <trkpt lat="44.40954" lon="5.47892">
        <ele>926.79998779297</ele>
        <time>2013-05-11T09:55:26Z</time>
      </trkpt>
      <trkpt lat="44.40966" lon="5.47908">
        <ele>926.79998779297</ele>
        <time>2013-05-11T09:55:33Z</time>
      </trkpt>
      <trkpt lat="44.40973" lon="5.4792">
        <ele>927.79998779297</ele>
        <time>2013-05-11T09:55:38Z</time>
      </trkpt>
      <trkpt lat="44.40976" lon="5.47929">
        <ele>928.20001220703</ele>
        <time>2013-05-11T09:55:41Z</time>
      </trkpt>
      <trkpt lat="44.40977" lon="5.47932">
        <ele>928.20001220703</ele>
        <time>2013-05-11T09:55:42Z</time>
      </trkpt>
      <trkpt lat="44.40977" lon="5.47947">
        <ele>929</ele>
        <time>2013-05-11T09:55:48Z</time>
      </trkpt>
      <trkpt lat="44.40976" lon="5.47958">
        <ele>929.59997558594</ele>
        <time>2013-05-11T09:55:53Z</time>
      </trkpt>
      <trkpt lat="44.40976" lon="5.47964">
        <ele>930</ele>
        <time>2013-05-11T09:55:55Z</time>
      </trkpt>
      <trkpt lat="44.40974" lon="5.47972">
        <ele>931.20001220703</ele>
        <time>2013-05-11T09:55:58Z</time>
      </trkpt>
      <trkpt lat="44.40976" lon="5.4799">
        <ele>931.20001220703</ele>
        <time>2013-05-11T09:56:04Z</time>
      </trkpt>
      <trkpt lat="44.40976" lon="5.47993">
        <ele>931.20001220703</ele>
        <time>2013-05-11T09:56:05Z</time>
      </trkpt>
      <trkpt lat="44.40977" lon="5.48003">
        <ele>932.59997558594</ele>
        <time>2013-05-11T09:56:08Z</time>
      </trkpt>
      <trkpt lat="44.40979" lon="5.48012">
        <ele>933.40002441406</ele>
        <time>2013-05-11T09:56:11Z</time>
      </trkpt>
      <trkpt lat="44.40983" lon="5.48023">
        <ele>933.79998779297</ele>
        <time>2013-05-11T09:56:15Z</time>
      </trkpt>
      <trkpt lat="44.40987" lon="5.48033">
        <ele>935.40002441406</ele>
        <time>2013-05-11T09:56:20Z</time>
      </trkpt>
      <trkpt lat="44.40995" lon="5.48047">
        <ele>935.40002441406</ele>
        <time>2013-05-11T09:56:27Z</time>
      </trkpt>
      <trkpt lat="44.41001" lon="5.48055">
        <ele>935.79998779297</ele>
        <time>2013-05-11T09:56:32Z</time>
      </trkpt>
      <trkpt lat="44.41004" lon="5.48061">
        <ele>936.59997558594</ele>
        <time>2013-05-11T09:56:35Z</time>
      </trkpt>
      <trkpt lat="44.41007" lon="5.48071">
        <ele>937.59997558594</ele>
        <time>2013-05-11T09:56:41Z</time>
      </trkpt>
      <trkpt lat="44.4101" lon="5.48075">
        <ele>938</ele>
        <time>2013-05-11T09:56:44Z</time>
      </trkpt>
      <trkpt lat="44.41013" lon="5.4808">
        <ele>939</ele>
        <time>2013-05-11T09:56:47Z</time>
      </trkpt>
      <trkpt lat="44.41018" lon="5.48097">
        <ele>939.79998779297</ele>
        <time>2013-05-11T09:56:55Z</time>
      </trkpt>
      <trkpt lat="44.4102" lon="5.481">
        <ele>940.40002441406</ele>
        <time>2013-05-11T09:56:57Z</time>
      </trkpt>
      <trkpt lat="44.41022" lon="5.48103">
        <ele>941.20001220703</ele>
        <time>2013-05-11T09:56:59Z</time>
      </trkpt>
      <trkpt lat="44.41028" lon="5.48123">
        <ele>942</ele>
        <time>2013-05-11T09:57:11Z</time>
      </trkpt>
      <trkpt lat="44.41032" lon="5.48129">
        <ele>942.59997558594</ele>
        <time>2013-05-11T09:57:16Z</time>
      </trkpt>
      <trkpt lat="44.41033" lon="5.48132">
        <ele>943</ele>
        <time>2013-05-11T09:57:18Z</time>
      </trkpt>
      <trkpt lat="44.41042" lon="5.48146">
        <ele>944.20001220703</ele>
        <time>2013-05-11T09:57:29Z</time>
      </trkpt>
      <trkpt lat="44.41044" lon="5.4815">
        <ele>945</ele>
        <time>2013-05-11T09:57:32Z</time>
      </trkpt>
      <trkpt lat="44.41053" lon="5.48165">
        <ele>946.79998779297</ele>
        <time>2013-05-11T09:57:44Z</time>
      </trkpt>
      <trkpt lat="44.41058" lon="5.48171">
        <ele>948</ele>
        <time>2013-05-11T09:57:49Z</time>
      </trkpt>
      <trkpt lat="44.41066" lon="5.48181">
        <ele>948.40002441406</ele>
        <time>2013-05-11T09:57:58Z</time>
      </trkpt>
      <trkpt lat="44.41073" lon="5.48192">
        <ele>950.20001220703</ele>
        <time>2013-05-11T09:58:06Z</time>
      </trkpt>
      <trkpt lat="44.41081" lon="5.4819">
        <ele>951</ele>
        <time>2013-05-11T09:58:13Z</time>
      </trkpt>
      <trkpt lat="44.41083" lon="5.48185">
        <ele>951.59997558594</ele>
        <time>2013-05-11T09:58:15Z</time>
      </trkpt>
      <trkpt lat="44.41082" lon="5.48179">
        <ele>952.40002441406</ele>
        <time>2013-05-11T09:58:18Z</time>
      </trkpt>
      <trkpt lat="44.4108" lon="5.48175">
        <ele>952.79998779297</ele>
        <time>2013-05-11T09:58:20Z</time>
      </trkpt>
      <trkpt lat="44.41075" lon="5.48169">
        <ele>952.79998779297</ele>
        <time>2013-05-11T09:58:24Z</time>
      </trkpt>
      <trkpt lat="44.4107" lon="5.48151">
        <ele>952.79998779297</ele>
        <time>2013-05-11T09:58:33Z</time>
      </trkpt>
      <trkpt lat="44.4107" lon="5.48149">
        <ele>953.20001220703</ele>
        <time>2013-05-11T09:58:34Z</time>
      </trkpt>
      <trkpt lat="44.41071" lon="5.48139">
        <ele>954.79998779297</ele>
        <time>2013-05-11T09:58:39Z</time>
      </trkpt>
      <trkpt lat="44.41072" lon="5.48129">
        <ele>955.79998779297</ele>
        <time>2013-05-11T09:58:44Z</time>
      </trkpt>
      <trkpt lat="44.41074" lon="5.4812">
        <ele>957</ele>
        <time>2013-05-11T09:58:49Z</time>
      </trkpt>
      <trkpt lat="44.4108" lon="5.48103">
        <ele>957</ele>
        <time>2013-05-11T09:58:57Z</time>
      </trkpt>
      <trkpt lat="44.41086" lon="5.48082">
        <ele>957</ele>
        <time>2013-05-11T09:59:05Z</time>
      </trkpt>
      <trkpt lat="44.41085" lon="5.48074">
        <ele>957.79998779297</ele>
        <time>2013-05-11T09:59:08Z</time>
      </trkpt>
      <trkpt lat="44.41085" lon="5.48069">
        <ele>958.40002441406</ele>
        <time>2013-05-11T09:59:10Z</time>
      </trkpt>
      <trkpt lat="44.41084" lon="5.4806">
        <ele>959.20001220703</ele>
        <time>2013-05-11T09:59:16Z</time>
      </trkpt>
      <trkpt lat="44.41082" lon="5.48039">
        <ele>959.20001220703</ele>
        <time>2013-05-11T09:59:28Z</time>
      </trkpt>
      <trkpt lat="44.41079" lon="5.4803">
        <ele>961.59997558594</ele>
        <time>2013-05-11T09:59:35Z</time>
      </trkpt>
      <trkpt lat="44.41077" lon="5.48007">
        <ele>962</ele>
        <time>2013-05-11T09:59:50Z</time>
      </trkpt>
      <trkpt lat="44.41076" lon="5.48">
        <ele>962.79998779297</ele>
        <time>2013-05-11T09:59:53Z</time>
      </trkpt>
      <trkpt lat="44.41072" lon="5.47976">
        <ele>963.59997558594</ele>
        <time>2013-05-11T10:00:06Z</time>
      </trkpt>
      <trkpt lat="44.4107" lon="5.47964">
        <ele>964</ele>
        <time>2013-05-11T10:00:14Z</time>
      </trkpt>
      <trkpt lat="44.4107" lon="5.47963">
        <ele>964.40002441406</ele>
        <time>2013-05-11T10:00:15Z</time>
      </trkpt>
      <trkpt lat="44.41071" lon="5.47958">
        <ele>965.20001220703</ele>
        <time>2013-05-11T10:00:19Z</time>
      </trkpt>
      <trkpt lat="44.41067" lon="5.47943">
        <ele>966</ele>
        <time>2013-05-11T10:00:29Z</time>
      </trkpt>
      <trkpt lat="44.41065" lon="5.47939">
        <ele>966.40002441406</ele>
        <time>2013-05-11T10:00:31Z</time>
      </trkpt>
      <trkpt lat="44.41055" lon="5.47919">
        <ele>967.59997558594</ele>
        <time>2013-05-11T10:00:43Z</time>
      </trkpt>
      <trkpt lat="44.4105" lon="5.47909">
        <ele>969.40002441406</ele>
        <time>2013-05-11T10:00:51Z</time>
      </trkpt>
      <trkpt lat="44.41045" lon="5.47898">
        <ele>969.79998779297</ele>
        <time>2013-05-11T10:00:58Z</time>
      </trkpt>
      <trkpt lat="44.4104" lon="5.47889">
        <ele>970.40002441406</ele>
        <time>2013-05-11T10:01:03Z</time>
      </trkpt>
      <trkpt lat="44.41036" lon="5.47879">
        <ele>972</ele>
        <time>2013-05-11T10:01:08Z</time>
      </trkpt>
      <trkpt lat="44.41034" lon="5.47862">
        <ele>972</ele>
        <time>2013-05-11T10:01:16Z</time>
      </trkpt>
      <trkpt lat="44.41034" lon="5.4786">
        <ele>972</ele>
        <time>2013-05-11T10:01:17Z</time>
      </trkpt>
      <trkpt lat="44.41033" lon="5.4785">
        <ele>972.40002441406</ele>
        <time>2013-05-11T10:01:24Z</time>
      </trkpt>
      <trkpt lat="44.41032" lon="5.47839">
        <ele>974.20001220703</ele>
        <time>2013-05-11T10:01:30Z</time>
      </trkpt>
      <trkpt lat="44.41032" lon="5.47829">
        <ele>974.20001220703</ele>
        <time>2013-05-11T10:01:34Z</time>
      </trkpt>
      <trkpt lat="44.41028" lon="5.47813">
        <ele>974.59997558594</ele>
        <time>2013-05-11T10:01:42Z</time>
      </trkpt>
      <trkpt lat="44.41027" lon="5.47809">
        <ele>975.20001220703</ele>
        <time>2013-05-11T10:01:44Z</time>
      </trkpt>
      <trkpt lat="44.41026" lon="5.47786">
        <ele>976.40002441406</ele>
        <time>2013-05-11T10:01:55Z</time>
      </trkpt>
      <trkpt lat="44.41024" lon="5.47776">
        <ele>977</ele>
        <time>2013-05-11T10:02:01Z</time>
      </trkpt>
      <trkpt lat="44.41021" lon="5.47766">
        <ele>978.20001220703</ele>
        <time>2013-05-11T10:02:06Z</time>
      </trkpt>
      <trkpt lat="44.4102" lon="5.47756">
        <ele>978.79998779297</ele>
        <time>2013-05-11T10:02:11Z</time>
      </trkpt>
      <trkpt lat="44.41018" lon="5.47746">
        <ele>979.20001220703</ele>
        <time>2013-05-11T10:02:16Z</time>
      </trkpt>
      <trkpt lat="44.41016" lon="5.47738">
        <ele>981</ele>
        <time>2013-05-11T10:02:21Z</time>
      </trkpt>
      <trkpt lat="44.41011" lon="5.47728">
        <ele>981</ele>
        <time>2013-05-11T10:02:29Z</time>
      </trkpt>
      <trkpt lat="44.4101" lon="5.4772">
        <ele>981.59997558594</ele>
        <time>2013-05-11T10:02:35Z</time>
      </trkpt>
      <trkpt lat="44.4101" lon="5.47716">
        <ele>981.59997558594</ele>
        <time>2013-05-11T10:02:37Z</time>
      </trkpt>
      <trkpt lat="44.41008" lon="5.47706">
        <ele>982.79998779297</ele>
        <time>2013-05-11T10:02:40Z</time>
      </trkpt>
      <trkpt lat="44.41008" lon="5.477">
        <ele>983.20001220703</ele>
        <time>2013-05-11T10:02:42Z</time>
      </trkpt>
      <trkpt lat="44.41013" lon="5.47679">
        <ele>983.20001220703</ele>
        <time>2013-05-11T10:02:55Z</time>
      </trkpt>
      <trkpt lat="44.41021" lon="5.47681">
        <ele>985.40002441406</ele>
        <time>2013-05-11T10:03:01Z</time>
      </trkpt>
      <trkpt lat="44.4103" lon="5.47695">
        <ele>985.79998779297</ele>
        <time>2013-05-11T10:03:12Z</time>
      </trkpt>
      <trkpt lat="44.41032" lon="5.47701">
        <ele>987</ele>
        <time>2013-05-11T10:03:16Z</time>
      </trkpt>
      <trkpt lat="44.41042" lon="5.47717">
        <ele>987.40002441406</ele>
        <time>2013-05-11T10:03:27Z</time>
      </trkpt>
      <trkpt lat="44.41044" lon="5.47721">
        <ele>988.20001220703</ele>
        <time>2013-05-11T10:03:31Z</time>
      </trkpt>
      <trkpt lat="44.41059" lon="5.47736">
        <ele>989.59997558594</ele>
        <time>2013-05-11T10:03:44Z</time>
      </trkpt>
      <trkpt lat="44.4106" lon="5.47737">
        <ele>990</ele>
        <time>2013-05-11T10:03:45Z</time>
      </trkpt>
      <trkpt lat="44.41067" lon="5.47741">
        <ele>991.59997558594</ele>
        <time>2013-05-11T10:03:50Z</time>
      </trkpt>
      <trkpt lat="44.41081" lon="5.47752">
        <ele>992</ele>
        <time>2013-05-11T10:04:00Z</time>
      </trkpt>
      <trkpt lat="44.41089" lon="5.47762">
        <ele>993.79998779297</ele>
        <time>2013-05-11T10:04:07Z</time>
      </trkpt>
      <trkpt lat="44.41092" lon="5.47764">
        <ele>993.79998779297</ele>
        <time>2013-05-11T10:04:09Z</time>
      </trkpt>
      <trkpt lat="44.41098" lon="5.4777">
        <ele>994.20001220703</ele>
        <time>2013-05-11T10:04:14Z</time>
      </trkpt>
      <trkpt lat="44.41103" lon="5.47777">
        <ele>995.40002441406</ele>
        <time>2013-05-11T10:04:19Z</time>
      </trkpt>
      <trkpt lat="44.41108" lon="5.47785">
        <ele>996</ele>
        <time>2013-05-11T10:04:25Z</time>
      </trkpt>
      <trkpt lat="44.41115" lon="5.47796">
        <ele>996.79998779297</ele>
        <time>2013-05-11T10:04:33Z</time>
      </trkpt>
      <trkpt lat="44.41119" lon="5.47802">
        <ele>998</ele>
        <time>2013-05-11T10:04:38Z</time>
      </trkpt>
      <trkpt lat="44.41125" lon="5.47814">
        <ele>998.40002441406</ele>
        <time>2013-05-11T10:04:45Z</time>
      </trkpt>
      <trkpt lat="44.4113" lon="5.47821">
        <ele>999.59997558594</ele>
        <time>2013-05-11T10:04:50Z</time>
      </trkpt>
      <trkpt lat="44.41132" lon="5.47824">
        <ele>1000</ele>
        <time>2013-05-11T10:04:52Z</time>
      </trkpt>
      <trkpt lat="44.41135" lon="5.47832">
        <ele>1000</ele>
        <time>2013-05-11T10:04:57Z</time>
      </trkpt>
      <trkpt lat="44.41143" lon="5.47844">
        <ele>1000</ele>
        <time>2013-05-11T10:05:05Z</time>
      </trkpt>
      <trkpt lat="44.41149" lon="5.47855">
        <ele>1002.4000244141</ele>
        <time>2013-05-11T10:05:12Z</time>
      </trkpt>
      <trkpt lat="44.4115" lon="5.47858">
        <ele>1002.4000244141</ele>
        <time>2013-05-11T10:05:14Z</time>
      </trkpt>
      <trkpt lat="44.41159" lon="5.47874">
        <ele>1002.4000244141</ele>
        <time>2013-05-11T10:05:24Z</time>
      </trkpt>
      <trkpt lat="44.41163" lon="5.47881">
        <ele>1002.799987793</ele>
        <time>2013-05-11T10:05:28Z</time>
      </trkpt>
      <trkpt lat="44.41166" lon="5.4789">
        <ele>1004.799987793</ele>
        <time>2013-05-11T10:05:33Z</time>
      </trkpt>
      <trkpt lat="44.41175" lon="5.47905">
        <ele>1004.799987793</ele>
        <time>2013-05-11T10:05:43Z</time>
      </trkpt>
      <trkpt lat="44.4118" lon="5.4791">
        <ele>1006.200012207</ele>
        <time>2013-05-11T10:05:47Z</time>
      </trkpt>
      <trkpt lat="44.41183" lon="5.47922">
        <ele>1007</ele>
        <time>2013-05-11T10:05:52Z</time>
      </trkpt>
      <trkpt lat="44.4119" lon="5.47939">
        <ele>1007</ele>
        <time>2013-05-11T10:06:01Z</time>
      </trkpt>
      <trkpt lat="44.41193" lon="5.47945">
        <ele>1008</ele>
        <time>2013-05-11T10:06:05Z</time>
      </trkpt>
      <trkpt lat="44.41194" lon="5.4795">
        <ele>1008.4000244141</ele>
        <time>2013-05-11T10:06:08Z</time>
      </trkpt>
      <trkpt lat="44.41204" lon="5.47965">
        <ele>1009.4000244141</ele>
        <time>2013-05-11T10:06:18Z</time>
      </trkpt>
      <trkpt lat="44.4121" lon="5.47973">
        <ele>1011.4000244141</ele>
        <time>2013-05-11T10:06:24Z</time>
      </trkpt>
      <trkpt lat="44.41213" lon="5.47979">
        <ele>1011.4000244141</ele>
        <time>2013-05-11T10:06:28Z</time>
      </trkpt>
      <trkpt lat="44.41222" lon="5.47998">
        <ele>1012</ele>
        <time>2013-05-11T10:06:39Z</time>
      </trkpt>
      <trkpt lat="44.41224" lon="5.48001">
        <ele>1012.799987793</ele>
        <time>2013-05-11T10:06:41Z</time>
      </trkpt>
      <trkpt lat="44.4123" lon="5.48009">
        <ele>1013.799987793</ele>
        <time>2013-05-11T10:06:47Z</time>
      </trkpt>
      <trkpt lat="44.41235" lon="5.48021">
        <ele>1014.200012207</ele>
        <time>2013-05-11T10:06:55Z</time>
      </trkpt>
      <trkpt lat="44.41241" lon="5.48038">
        <ele>1015.799987793</ele>
        <time>2013-05-11T10:07:05Z</time>
      </trkpt>
      <trkpt lat="44.41246" lon="5.48056">
        <ele>1015.799987793</ele>
        <time>2013-05-11T10:07:15Z</time>
      </trkpt>
      <trkpt lat="44.41247" lon="5.48062">
        <ele>1016.799987793</ele>
        <time>2013-05-11T10:07:19Z</time>
      </trkpt>
      <trkpt lat="44.41248" lon="5.48072">
        <ele>1018.200012207</ele>
        <time>2013-05-11T10:07:24Z</time>
      </trkpt>
      <trkpt lat="44.41248" lon="5.48083">
        <ele>1018.200012207</ele>
        <time>2013-05-11T10:07:29Z</time>
      </trkpt>
      <trkpt lat="44.4125" lon="5.48092">
        <ele>1018.799987793</ele>
        <time>2013-05-11T10:07:34Z</time>
      </trkpt>
      <trkpt lat="44.41253" lon="5.48101">
        <ele>1020.200012207</ele>
        <time>2013-05-11T10:07:39Z</time>
      </trkpt>
      <trkpt lat="44.4126" lon="5.48123">
        <ele>1021</ele>
        <time>2013-05-11T10:07:51Z</time>
      </trkpt>
      <trkpt lat="44.41262" lon="5.4813">
        <ele>1022.5999755859</ele>
        <time>2013-05-11T10:07:56Z</time>
      </trkpt>
      <trkpt lat="44.41264" lon="5.48155">
        <ele>1022.5999755859</ele>
        <time>2013-05-11T10:08:09Z</time>
      </trkpt>
      <trkpt lat="44.41264" lon="5.48162">
        <ele>1023</ele>
        <time>2013-05-11T10:08:12Z</time>
      </trkpt>
      <trkpt lat="44.41266" lon="5.48172">
        <ele>1025</ele>
        <time>2013-05-11T10:08:17Z</time>
      </trkpt>
      <trkpt lat="44.4127" lon="5.48185">
        <ele>1025</ele>
        <time>2013-05-11T10:08:23Z</time>
      </trkpt>
      <trkpt lat="44.41274" lon="5.48202">
        <ele>1025</ele>
        <time>2013-05-11T10:08:29Z</time>
      </trkpt>
      <trkpt lat="44.41278" lon="5.48213">
        <ele>1027.1999511719</ele>
        <time>2013-05-11T10:08:37Z</time>
      </trkpt>
      <trkpt lat="44.41288" lon="5.48233">
        <ele>1027.1999511719</ele>
        <time>2013-05-11T10:08:48Z</time>
      </trkpt>
      <trkpt lat="44.41291" lon="5.48238">
        <ele>1028.1999511719</ele>
        <time>2013-05-11T10:08:51Z</time>
      </trkpt>
      <trkpt lat="44.41293" lon="5.4824">
        <ele>1029</ele>
        <time>2013-05-11T10:08:54Z</time>
      </trkpt>
      <trkpt lat="44.41302" lon="5.48247">
        <ele>1029.8000488281</ele>
        <time>2013-05-11T10:09:01Z</time>
      </trkpt>
      <trkpt lat="44.41306" lon="5.4825">
        <ele>1030.8000488281</ele>
        <time>2013-05-11T10:09:04Z</time>
      </trkpt>
      <trkpt lat="44.41315" lon="5.4826">
        <ele>1031.5999755859</ele>
        <time>2013-05-11T10:09:12Z</time>
      </trkpt>
      <trkpt lat="44.41323" lon="5.48273">
        <ele>1031.5999755859</ele>
        <time>2013-05-11T10:09:20Z</time>
      </trkpt>
      <trkpt lat="44.4133" lon="5.48282">
        <ele>1032</ele>
        <time>2013-05-11T10:09:25Z</time>
      </trkpt>
      <trkpt lat="44.41333" lon="5.48287">
        <ele>1032.4000244141</ele>
        <time>2013-05-11T10:09:28Z</time>
      </trkpt>
      <trkpt lat="44.41339" lon="5.48293">
        <ele>1033.5999755859</ele>
        <time>2013-05-11T10:09:33Z</time>
      </trkpt>
      <trkpt lat="44.41345" lon="5.48298">
        <ele>1033.5999755859</ele>
        <time>2013-05-11T10:09:37Z</time>
      </trkpt>
      <trkpt lat="44.41355" lon="5.48308">
        <ele>1034</ele>
        <time>2013-05-11T10:09:45Z</time>
      </trkpt>
      <trkpt lat="44.41357" lon="5.4831">
        <ele>1035</ele>
        <time>2013-05-11T10:09:47Z</time>
      </trkpt>
      <trkpt lat="44.41361" lon="5.48315">
        <ele>1035.4000244141</ele>
        <time>2013-05-11T10:09:50Z</time>
      </trkpt>
      <trkpt lat="44.41373" lon="5.48328">
        <ele>1036.4000244141</ele>
        <time>2013-05-11T10:10:02Z</time>
      </trkpt>
      <trkpt lat="44.41376" lon="5.4833">
        <ele>1037.1999511719</ele>
        <time>2013-05-11T10:10:04Z</time>
      </trkpt>
      <trkpt lat="44.41381" lon="5.48336">
        <ele>1038</ele>
        <time>2013-05-11T10:10:09Z</time>
      </trkpt>
      <trkpt lat="44.41385" lon="5.48342">
        <ele>1038</ele>
        <time>2013-05-11T10:10:13Z</time>
      </trkpt>
      <trkpt lat="44.41391" lon="5.48348">
        <ele>1039.5999755859</ele>
        <time>2013-05-11T10:10:18Z</time>
      </trkpt>
      <trkpt lat="44.41394" lon="5.48353">
        <ele>1040.1999511719</ele>
        <time>2013-05-11T10:10:21Z</time>
      </trkpt>
      <trkpt lat="44.41403" lon="5.48364">
        <ele>1040.1999511719</ele>
        <time>2013-05-11T10:10:30Z</time>
      </trkpt>
      <trkpt lat="44.41409" lon="5.48372">
        <ele>1042.4000244141</ele>
        <time>2013-05-11T10:10:36Z</time>
      </trkpt>
      <trkpt lat="44.41411" lon="5.48375">
        <ele>1042.4000244141</ele>
        <time>2013-05-11T10:10:38Z</time>
      </trkpt>
      <trkpt lat="44.41417" lon="5.48385">
        <ele>1043.1999511719</ele>
        <time>2013-05-11T10:10:44Z</time>
      </trkpt>
      <trkpt lat="44.41422" lon="5.48395">
        <ele>1044.5999755859</ele>
        <time>2013-05-11T10:10:49Z</time>
      </trkpt>
      <trkpt lat="44.41428" lon="5.48406">
        <ele>1044.5999755859</ele>
        <time>2013-05-11T10:10:56Z</time>
      </trkpt>
      <trkpt lat="44.41434" lon="5.48412">
        <ele>1045.4000244141</ele>
        <time>2013-05-11T10:11:01Z</time>
      </trkpt>
      <trkpt lat="44.41442" lon="5.48418">
        <ele>1046.8000488281</ele>
        <time>2013-05-11T10:11:06Z</time>
      </trkpt>
      <trkpt lat="44.41446" lon="5.48422">
        <ele>1047.1999511719</ele>
        <time>2013-05-11T10:11:10Z</time>
      </trkpt>
      <trkpt lat="44.41451" lon="5.48427">
        <ele>1048.5999755859</ele>
        <time>2013-05-11T10:11:15Z</time>
      </trkpt>
      <trkpt lat="44.41457" lon="5.48432">
        <ele>1049.4000244141</ele>
        <time>2013-05-11T10:11:20Z</time>
      </trkpt>
      <trkpt lat="44.4146" lon="5.48435">
        <ele>1050.1999511719</ele>
        <time>2013-05-11T10:11:23Z</time>
      </trkpt>
      <trkpt lat="44.41473" lon="5.48447">
        <ele>1051.1999511719</ele>
        <time>2013-05-11T10:11:33Z</time>
      </trkpt>
      <trkpt lat="44.41481" lon="5.4845">
        <ele>1051.5999755859</ele>
        <time>2013-05-11T10:11:39Z</time>
      </trkpt>
      <trkpt lat="44.41492" lon="5.48445">
        <ele>1053.1999511719</ele>
        <time>2013-05-11T10:11:48Z</time>
      </trkpt>
      <trkpt lat="44.41502" lon="5.4844">
        <ele>1055.4000244141</ele>
        <time>2013-05-11T10:11:55Z</time>
      </trkpt>
      <trkpt lat="44.41515" lon="5.48437">
        <ele>1055.4000244141</ele>
        <time>2013-05-11T10:12:04Z</time>
      </trkpt>
      <trkpt lat="44.41526" lon="5.48434">
        <ele>1055.4000244141</ele>
        <time>2013-05-11T10:12:11Z</time>
      </trkpt>
      <trkpt lat="44.41533" lon="5.48433">
        <ele>1055.8000488281</ele>
        <time>2013-05-11T10:12:15Z</time>
      </trkpt>
      <trkpt lat="44.41541" lon="5.48436">
        <ele>1057</ele>
        <time>2013-05-11T10:12:20Z</time>
      </trkpt>
      <trkpt lat="44.41547" lon="5.48442">
        <ele>1057.5999755859</ele>
        <time>2013-05-11T10:12:25Z</time>
      </trkpt>
      <trkpt lat="44.4155" lon="5.48449">
        <ele>1058</ele>
        <time>2013-05-11T10:12:29Z</time>
      </trkpt>
      <trkpt lat="44.41551" lon="5.48451">
        <ele>1058.4000244141</ele>
        <time>2013-05-11T10:12:30Z</time>
      </trkpt>
      <trkpt lat="44.41554" lon="5.48462">
        <ele>1059.4000244141</ele>
        <time>2013-05-11T10:12:34Z</time>
      </trkpt>
      <trkpt lat="44.41557" lon="5.48473">
        <ele>1061</ele>
        <time>2013-05-11T10:12:39Z</time>
      </trkpt>
      <trkpt lat="44.41566" lon="5.48493">
        <ele>1062</ele>
        <time>2013-05-11T10:12:50Z</time>
      </trkpt>
      <trkpt lat="44.41574" lon="5.48514">
        <ele>1062</ele>
        <time>2013-05-11T10:12:59Z</time>
      </trkpt>
      <trkpt lat="44.41584" lon="5.48523">
        <ele>1062</ele>
        <time>2013-05-11T10:13:06Z</time>
      </trkpt>
      <trkpt lat="44.4159" lon="5.48534">
        <ele>1063.5999755859</ele>
        <time>2013-05-11T10:13:13Z</time>
      </trkpt>
      <trkpt lat="44.41592" lon="5.48551">
        <ele>1064</ele>
        <time>2013-05-11T10:13:21Z</time>
      </trkpt>
      <trkpt lat="44.41588" lon="5.48557">
        <ele>1064.8000488281</ele>
        <time>2013-05-11T10:13:25Z</time>
      </trkpt>
      <trkpt lat="44.41586" lon="5.48561">
        <ele>1065.5999755859</ele>
        <time>2013-05-11T10:13:28Z</time>
      </trkpt>
      <trkpt lat="44.41576" lon="5.48574">
        <ele>1066</ele>
        <time>2013-05-11T10:13:37Z</time>
      </trkpt>
      <trkpt lat="44.41571" lon="5.48582">
        <ele>1066.4000244141</ele>
        <time>2013-05-11T10:13:42Z</time>
      </trkpt>
      <trkpt lat="44.41569" lon="5.48588">
        <ele>1067.8000488281</ele>
        <time>2013-05-11T10:13:45Z</time>
      </trkpt>
      <trkpt lat="44.41567" lon="5.4859">
        <ele>1068.1999511719</ele>
        <time>2013-05-11T10:13:47Z</time>
      </trkpt>
      <trkpt lat="44.41562" lon="5.48603">
        <ele>1068.1999511719</ele>
        <time>2013-05-11T10:13:55Z</time>
      </trkpt>
      <trkpt lat="44.4156" lon="5.4861">
        <ele>1068.5999755859</ele>
        <time>2013-05-11T10:13:59Z</time>
      </trkpt>
      <trkpt lat="44.4156" lon="5.48612">
        <ele>1069</ele>
        <time>2013-05-11T10:14:00Z</time>
      </trkpt>
      <trkpt lat="44.4155" lon="5.48637">
        <ele>1070.8000488281</ele>
        <time>2013-05-11T10:14:12Z</time>
      </trkpt>
      <trkpt lat="44.41547" lon="5.48641">
        <ele>1071.5999755859</ele>
        <time>2013-05-11T10:14:14Z</time>
      </trkpt>
      <trkpt lat="44.41535" lon="5.48654">
        <ele>1072.5999755859</ele>
        <time>2013-05-11T10:14:24Z</time>
      </trkpt>
      <trkpt lat="44.41526" lon="5.4866">
        <ele>1072.5999755859</ele>
        <time>2013-05-11T10:14:30Z</time>
      </trkpt>
      <trkpt lat="44.41516" lon="5.48678">
        <ele>1074.8000488281</ele>
        <time>2013-05-11T10:14:40Z</time>
      </trkpt>
      <trkpt lat="44.4151" lon="5.48687">
        <ele>1074.8000488281</ele>
        <time>2013-05-11T10:14:46Z</time>
      </trkpt>
      <trkpt lat="44.41508" lon="5.4869">
        <ele>1075.1999511719</ele>
        <time>2013-05-11T10:14:48Z</time>
      </trkpt>
      <trkpt lat="44.415" lon="5.48697">
        <ele>1076.5999755859</ele>
        <time>2013-05-11T10:14:54Z</time>
      </trkpt>
      <trkpt lat="44.41497" lon="5.48703">
        <ele>1077</ele>
        <time>2013-05-11T10:14:57Z</time>
      </trkpt>
      <trkpt lat="44.41497" lon="5.48725">
        <ele>1077</ele>
        <time>2013-05-11T10:15:05Z</time>
      </trkpt>
      <trkpt lat="44.41499" lon="5.48742">
        <ele>1077.8000488281</ele>
        <time>2013-05-11T10:15:12Z</time>
      </trkpt>
      <trkpt lat="44.41493" lon="5.48751">
        <ele>1079.1999511719</ele>
        <time>2013-05-11T10:15:27Z</time>
      </trkpt>
      <trkpt lat="44.41494" lon="5.48748">
        <ele>1079.1999511719</ele>
        <time>2013-05-11T10:15:56Z</time>
      </trkpt>
      <trkpt lat="44.41542" lon="5.48751">
        <ele>1074.5999755859</ele>
        <time>2013-05-11T10:24:08Z</time>
      </trkpt>
      <trkpt lat="44.41552" lon="5.4875">
        <ele>1074.1999511719</ele>
        <time>2013-05-11T10:24:11Z</time>
      </trkpt>
      <trkpt lat="44.41561" lon="5.4875">
        <ele>1073.4000244141</ele>
        <time>2013-05-11T10:24:13Z</time>
      </trkpt>
      <trkpt lat="44.41566" lon="5.48749">
        <ele>1073</ele>
        <time>2013-05-11T10:24:14Z</time>
      </trkpt>
      <trkpt lat="44.4157" lon="5.48749">
        <ele>1072.1999511719</ele>
        <time>2013-05-11T10:24:15Z</time>
      </trkpt>
      <trkpt lat="44.41576" lon="5.4875">
        <ele>1071.5999755859</ele>
        <time>2013-05-11T10:24:16Z</time>
      </trkpt>
      <trkpt lat="44.41583" lon="5.48751">
        <ele>1071</ele>
        <time>2013-05-11T10:24:17Z</time>
      </trkpt>
      <trkpt lat="44.4159" lon="5.48753">
        <ele>1070.4000244141</ele>
        <time>2013-05-11T10:24:18Z</time>
      </trkpt>
      <trkpt lat="44.41605" lon="5.48764">
        <ele>1069.4000244141</ele>
        <time>2013-05-11T10:24:20Z</time>
      </trkpt>
      <trkpt lat="44.41611" lon="5.48774">
        <ele>1069</ele>
        <time>2013-05-11T10:24:21Z</time>
      </trkpt>
      <trkpt lat="44.41616" lon="5.48783">
        <ele>1068.5999755859</ele>
        <time>2013-05-11T10:24:22Z</time>
      </trkpt>
      <trkpt lat="44.4162" lon="5.48794">
        <ele>1068</ele>
        <time>2013-05-11T10:24:23Z</time>
      </trkpt>
      <trkpt lat="44.41624" lon="5.48805">
        <ele>1067.4000244141</ele>
        <time>2013-05-11T10:24:24Z</time>
      </trkpt>
      <trkpt lat="44.41628" lon="5.48815">
        <ele>1066.8000488281</ele>
        <time>2013-05-11T10:24:25Z</time>
      </trkpt>
      <trkpt lat="44.41632" lon="5.48826">
        <ele>1066.1999511719</ele>
        <time>2013-05-11T10:24:26Z</time>
      </trkpt>
      <trkpt lat="44.41636" lon="5.48837">
        <ele>1065.5999755859</ele>
        <time>2013-05-11T10:24:27Z</time>
      </trkpt>
      <trkpt lat="44.4164" lon="5.48849">
        <ele>1065</ele>
        <time>2013-05-11T10:24:28Z</time>
      </trkpt>
      <trkpt lat="44.41645" lon="5.4886">
        <ele>1064.1999511719</ele>
        <time>2013-05-11T10:24:29Z</time>
      </trkpt>
      <trkpt lat="44.41648" lon="5.48872">
        <ele>1063.4000244141</ele>
        <time>2013-05-11T10:24:30Z</time>
      </trkpt>
      <trkpt lat="44.41655" lon="5.48881">
        <ele>1062.4000244141</ele>
        <time>2013-05-11T10:24:31Z</time>
      </trkpt>
      <trkpt lat="44.41661" lon="5.4889">
        <ele>1061.8000488281</ele>
        <time>2013-05-11T10:24:32Z</time>
      </trkpt>
      <trkpt lat="44.41674" lon="5.48905">
        <ele>1060.1999511719</ele>
        <time>2013-05-11T10:24:34Z</time>
      </trkpt>
      <trkpt lat="44.4168" lon="5.48913">
        <ele>1059.4000244141</ele>
        <time>2013-05-11T10:24:35Z</time>
      </trkpt>
      <trkpt lat="44.41686" lon="5.48921">
        <ele>1058.8000488281</ele>
        <time>2013-05-11T10:24:36Z</time>
      </trkpt>
      <trkpt lat="44.41692" lon="5.48929">
        <ele>1058</ele>
        <time>2013-05-11T10:24:37Z</time>
      </trkpt>
      <trkpt lat="44.41699" lon="5.48936">
        <ele>1057.4000244141</ele>
        <time>2013-05-11T10:24:38Z</time>
      </trkpt>
      <trkpt lat="44.41705" lon="5.48944">
        <ele>1056.8000488281</ele>
        <time>2013-05-11T10:24:39Z</time>
      </trkpt>
      <trkpt lat="44.41711" lon="5.4895">
        <ele>1056.1999511719</ele>
        <time>2013-05-11T10:24:40Z</time>
      </trkpt>
      <trkpt lat="44.41717" lon="5.48955">
        <ele>1055.5999755859</ele>
        <time>2013-05-11T10:24:41Z</time>
      </trkpt>
      <trkpt lat="44.41724" lon="5.48959">
        <ele>1055</ele>
        <time>2013-05-11T10:24:42Z</time>
      </trkpt>
      <trkpt lat="44.41731" lon="5.48961">
        <ele>1054.4000244141</ele>
        <time>2013-05-11T10:24:43Z</time>
      </trkpt>
      <trkpt lat="44.41743" lon="5.4896">
        <ele>1053.4000244141</ele>
        <time>2013-05-11T10:24:45Z</time>
      </trkpt>
      <trkpt lat="44.4175" lon="5.48958">
        <ele>1053</ele>
        <time>2013-05-11T10:24:46Z</time>
      </trkpt>
      <trkpt lat="44.41756" lon="5.48955">
        <ele>1052.5999755859</ele>
        <time>2013-05-11T10:24:47Z</time>
      </trkpt>
      <trkpt lat="44.41762" lon="5.48954">
        <ele>1052.1999511719</ele>
        <time>2013-05-11T10:24:48Z</time>
      </trkpt>
      <trkpt lat="44.41776" lon="5.48964">
        <ele>1051.5999755859</ele>
        <time>2013-05-11T10:24:51Z</time>
      </trkpt>
      <trkpt lat="44.41779" lon="5.4898">
        <ele>1051.5999755859</ele>
        <time>2013-05-11T10:24:53Z</time>
      </trkpt>
      <trkpt lat="44.41781" lon="5.48998">
        <ele>1050.8000488281</ele>
        <time>2013-05-11T10:24:55Z</time>
      </trkpt>
      <trkpt lat="44.41782" lon="5.49009">
        <ele>1050.4000244141</ele>
        <time>2013-05-11T10:24:56Z</time>
      </trkpt>
      <trkpt lat="44.41785" lon="5.4902">
        <ele>1049.5999755859</ele>
        <time>2013-05-11T10:24:57Z</time>
      </trkpt>
      <trkpt lat="44.41788" lon="5.49031">
        <ele>1049</ele>
        <time>2013-05-11T10:24:58Z</time>
      </trkpt>
      <trkpt lat="44.41792" lon="5.49041">
        <ele>1048.4000244141</ele>
        <time>2013-05-11T10:24:59Z</time>
      </trkpt>
      <trkpt lat="44.41795" lon="5.49058">
        <ele>1047.1999511719</ele>
        <time>2013-05-11T10:25:01Z</time>
      </trkpt>
      <trkpt lat="44.41794" lon="5.49066">
        <ele>1046.5999755859</ele>
        <time>2013-05-11T10:25:02Z</time>
      </trkpt>
      <trkpt lat="44.41793" lon="5.49074">
        <ele>1046</ele>
        <time>2013-05-11T10:25:03Z</time>
      </trkpt>
      <trkpt lat="44.41792" lon="5.49083">
        <ele>1045.1999511719</ele>
        <time>2013-05-11T10:25:04Z</time>
      </trkpt>
      <trkpt lat="44.41795" lon="5.49092">
        <ele>1044.4000244141</ele>
        <time>2013-05-11T10:25:05Z</time>
      </trkpt>
      <trkpt lat="44.41799" lon="5.49102">
        <ele>1043.4000244141</ele>
        <time>2013-05-11T10:25:06Z</time>
      </trkpt>
      <trkpt lat="44.41804" lon="5.4911">
        <ele>1042.5999755859</ele>
        <time>2013-05-11T10:25:07Z</time>
      </trkpt>
      <trkpt lat="44.41815" lon="5.49127">
        <ele>1040.5999755859</ele>
        <time>2013-05-11T10:25:09Z</time>
      </trkpt>
      <trkpt lat="44.4182" lon="5.49135">
        <ele>1039.5999755859</ele>
        <time>2013-05-11T10:25:10Z</time>
      </trkpt>
      <trkpt lat="44.41825" lon="5.49144">
        <ele>1038.5999755859</ele>
        <time>2013-05-11T10:25:11Z</time>
      </trkpt>
      <trkpt lat="44.41829" lon="5.49153">
        <ele>1037.8000488281</ele>
        <time>2013-05-11T10:25:12Z</time>
      </trkpt>
      <trkpt lat="44.41838" lon="5.49175">
        <ele>1037.1999511719</ele>
        <time>2013-05-11T10:25:14Z</time>
      </trkpt>
      <trkpt lat="44.41843" lon="5.49185">
        <ele>1036.8000488281</ele>
        <time>2013-05-11T10:25:15Z</time>
      </trkpt>
      <trkpt lat="44.41848" lon="5.49196">
        <ele>1036.1999511719</ele>
        <time>2013-05-11T10:25:16Z</time>
      </trkpt>
      <trkpt lat="44.41854" lon="5.49205">
        <ele>1035.5999755859</ele>
        <time>2013-05-11T10:25:17Z</time>
      </trkpt>
      <trkpt lat="44.41859" lon="5.49215">
        <ele>1034.8000488281</ele>
        <time>2013-05-11T10:25:18Z</time>
      </trkpt>
      <trkpt lat="44.41866" lon="5.49223">
        <ele>1034</ele>
        <time>2013-05-11T10:25:19Z</time>
      </trkpt>
      <trkpt lat="44.41873" lon="5.49229">
        <ele>1033.4000244141</ele>
        <time>2013-05-11T10:25:20Z</time>
      </trkpt>
      <trkpt lat="44.41881" lon="5.49235">
        <ele>1032.8000488281</ele>
        <time>2013-05-11T10:25:21Z</time>
      </trkpt>
      <trkpt lat="44.41895" lon="5.49242">
        <ele>1031.8000488281</ele>
        <time>2013-05-11T10:25:23Z</time>
      </trkpt>
      <trkpt lat="44.41905" lon="5.49248">
        <ele>1030.5999755859</ele>
        <time>2013-05-11T10:25:25Z</time>
      </trkpt>
      <trkpt lat="44.41907" lon="5.4925">
        <ele>1029.5999755859</ele>
        <time>2013-05-11T10:25:27Z</time>
      </trkpt>
      <trkpt lat="44.4191" lon="5.4925">
        <ele>1028.4000244141</ele>
        <time>2013-05-11T10:25:29Z</time>
      </trkpt>
      <trkpt lat="44.41924" lon="5.4925">
        <ele>1028.4000244141</ele>
        <time>2013-05-11T10:25:35Z</time>
      </trkpt>
      <trkpt lat="44.41933" lon="5.4925">
        <ele>1028.4000244141</ele>
        <time>2013-05-11T10:25:37Z</time>
      </trkpt>
      <trkpt lat="44.41945" lon="5.49251">
        <ele>1028.4000244141</ele>
        <time>2013-05-11T10:25:40Z</time>
      </trkpt>
      <trkpt lat="44.41956" lon="5.49249">
        <ele>1028</ele>
        <time>2013-05-11T10:25:42Z</time>
      </trkpt>
      <trkpt lat="44.41962" lon="5.49248">
        <ele>1027.5999755859</ele>
        <time>2013-05-11T10:25:43Z</time>
      </trkpt>
      <trkpt lat="44.41973" lon="5.49245">
        <ele>1026.8000488281</ele>
        <time>2013-05-11T10:25:45Z</time>
      </trkpt>
      <trkpt lat="44.41996" lon="5.49242">
        <ele>1026.4000244141</ele>
        <time>2013-05-11T10:25:49Z</time>
      </trkpt>
      <trkpt lat="44.42002" lon="5.49241">
        <ele>1026.4000244141</ele>
        <time>2013-05-11T10:25:50Z</time>
      </trkpt>
      <trkpt lat="44.42014" lon="5.4924">
        <ele>1025.5999755859</ele>
        <time>2013-05-11T10:25:52Z</time>
      </trkpt>
      <trkpt lat="44.42021" lon="5.49239">
        <ele>1025.1999511719</ele>
        <time>2013-05-11T10:25:53Z</time>
      </trkpt>
      <trkpt lat="44.42035" lon="5.49241">
        <ele>1024.4000244141</ele>
        <time>2013-05-11T10:25:55Z</time>
      </trkpt>
      <trkpt lat="44.42073" lon="5.49242">
        <ele>1024.4000244141</ele>
        <time>2013-05-11T10:26:01Z</time>
      </trkpt>
      <trkpt lat="44.42103" lon="5.49245">
        <ele>1024.4000244141</ele>
        <time>2013-05-11T10:26:07Z</time>
      </trkpt>
      <trkpt lat="44.42132" lon="5.49252">
        <ele>1024.4000244141</ele>
        <time>2013-05-11T10:26:13Z</time>
      </trkpt>
      <trkpt lat="44.42146" lon="5.49271">
        <ele>1024</ele>
        <time>2013-05-11T10:26:17Z</time>
      </trkpt>
      <trkpt lat="44.42145" lon="5.49284">
        <ele>1023</ele>
        <time>2013-05-11T10:26:19Z</time>
      </trkpt>
      <trkpt lat="44.42143" lon="5.49291">
        <ele>1022.5999755859</ele>
        <time>2013-05-11T10:26:20Z</time>
      </trkpt>
      <trkpt lat="44.42132" lon="5.49335">
        <ele>1022.200012207</ele>
        <time>2013-05-11T10:26:25Z</time>
      </trkpt>
      <trkpt lat="44.42131" lon="5.49343">
        <ele>1021.799987793</ele>
        <time>2013-05-11T10:26:26Z</time>
      </trkpt>
      <trkpt lat="44.42131" lon="5.49351">
        <ele>1021.200012207</ele>
        <time>2013-05-11T10:26:27Z</time>
      </trkpt>
      <trkpt lat="44.42132" lon="5.49361">
        <ele>1020.799987793</ele>
        <time>2013-05-11T10:26:28Z</time>
      </trkpt>
      <trkpt lat="44.42133" lon="5.49375">
        <ele>1019.5999755859</ele>
        <time>2013-05-11T10:26:30Z</time>
      </trkpt>
      <trkpt lat="44.42134" lon="5.49381">
        <ele>1018.799987793</ele>
        <time>2013-05-11T10:26:31Z</time>
      </trkpt>
      <trkpt lat="44.42134" lon="5.49395">
        <ele>1017.5999755859</ele>
        <time>2013-05-11T10:26:33Z</time>
      </trkpt>
      <trkpt lat="44.42139" lon="5.49428">
        <ele>1017.200012207</ele>
        <time>2013-05-11T10:26:39Z</time>
      </trkpt>
      <trkpt lat="44.42139" lon="5.49433">
        <ele>1016.799987793</ele>
        <time>2013-05-11T10:26:40Z</time>
      </trkpt>
      <trkpt lat="44.42138" lon="5.49445">
        <ele>1016</ele>
        <time>2013-05-11T10:26:42Z</time>
      </trkpt>
      <trkpt lat="44.42136" lon="5.49451">
        <ele>1015.5999755859</ele>
        <time>2013-05-11T10:26:43Z</time>
      </trkpt>
      <trkpt lat="44.42122" lon="5.49471">
        <ele>1015.5999755859</ele>
        <time>2013-05-11T10:26:47Z</time>
      </trkpt>
      <trkpt lat="44.42117" lon="5.49476">
        <ele>1015.5999755859</ele>
        <time>2013-05-11T10:26:48Z</time>
      </trkpt>
      <trkpt lat="44.42104" lon="5.49494">
        <ele>1015.200012207</ele>
        <time>2013-05-11T10:26:51Z</time>
      </trkpt>
      <trkpt lat="44.42099" lon="5.49499">
        <ele>1014.5999755859</ele>
        <time>2013-05-11T10:26:52Z</time>
      </trkpt>
      <trkpt lat="44.42094" lon="5.49505">
        <ele>1014.200012207</ele>
        <time>2013-05-11T10:26:53Z</time>
      </trkpt>
      <trkpt lat="44.4209" lon="5.49512">
        <ele>1013.799987793</ele>
        <time>2013-05-11T10:26:54Z</time>
      </trkpt>
      <trkpt lat="44.42086" lon="5.4952">
        <ele>1013.4000244141</ele>
        <time>2013-05-11T10:26:55Z</time>
      </trkpt>
      <trkpt lat="44.42081" lon="5.49527">
        <ele>1012.799987793</ele>
        <time>2013-05-11T10:26:56Z</time>
      </trkpt>
      <trkpt lat="44.42076" lon="5.49534">
        <ele>1012.4000244141</ele>
        <time>2013-05-11T10:26:57Z</time>
      </trkpt>
      <trkpt lat="44.42072" lon="5.49542">
        <ele>1012</ele>
        <time>2013-05-11T10:26:58Z</time>
      </trkpt>
      <trkpt lat="44.42068" lon="5.49549">
        <ele>1011.5999755859</ele>
        <time>2013-05-11T10:26:59Z</time>
      </trkpt>
      <trkpt lat="44.42064" lon="5.49556">
        <ele>1011</ele>
        <time>2013-05-11T10:27:00Z</time>
      </trkpt>
      <trkpt lat="44.42062" lon="5.49562">
        <ele>1011</ele>
        <time>2013-05-11T10:27:01Z</time>
      </trkpt>
      <trkpt lat="44.42046" lon="5.49599">
        <ele>1010.5999755859</ele>
        <time>2013-05-11T10:27:06Z</time>
      </trkpt>
      <trkpt lat="44.42044" lon="5.49607">
        <ele>1010.200012207</ele>
        <time>2013-05-11T10:27:07Z</time>
      </trkpt>
      <trkpt lat="44.42043" lon="5.49614">
        <ele>1009.799987793</ele>
        <time>2013-05-11T10:27:08Z</time>
      </trkpt>
      <trkpt lat="44.42041" lon="5.4962">
        <ele>1009.4000244141</ele>
        <time>2013-05-11T10:27:09Z</time>
      </trkpt>
      <trkpt lat="44.4204" lon="5.49626">
        <ele>1009</ele>
        <time>2013-05-11T10:27:10Z</time>
      </trkpt>
      <trkpt lat="44.42031" lon="5.49663">
        <ele>1009</ele>
        <time>2013-05-11T10:27:15Z</time>
      </trkpt>
      <trkpt lat="44.42025" lon="5.49702">
        <ele>1009</ele>
        <time>2013-05-11T10:27:21Z</time>
      </trkpt>
      <trkpt lat="44.42023" lon="5.49712">
        <ele>1010</ele>
        <time>2013-05-11T10:27:23Z</time>
      </trkpt>
      <trkpt lat="44.42021" lon="5.49722">
        <ele>1010.799987793</ele>
        <time>2013-05-11T10:27:26Z</time>
      </trkpt>
      <trkpt lat="44.4202" lon="5.49739">
        <ele>1011.5999755859</ele>
        <time>2013-05-11T10:27:32Z</time>
      </trkpt>
      <trkpt lat="44.4202" lon="5.49741">
        <ele>1012</ele>
        <time>2013-05-11T10:27:33Z</time>
      </trkpt>
      <trkpt lat="44.4202" lon="5.49758">
        <ele>1013.5999755859</ele>
        <time>2013-05-11T10:27:40Z</time>
      </trkpt>
      <trkpt lat="44.4202" lon="5.49762">
        <ele>1014.200012207</ele>
        <time>2013-05-11T10:27:41Z</time>
      </trkpt>
      <trkpt lat="44.42019" lon="5.49771">
        <ele>1015.4000244141</ele>
        <time>2013-05-11T10:27:44Z</time>
      </trkpt>
      <trkpt lat="44.42015" lon="5.49801">
        <ele>1015.4000244141</ele>
        <time>2013-05-11T10:27:51Z</time>
      </trkpt>
      <trkpt lat="44.42012" lon="5.49831">
        <ele>1015.4000244141</ele>
        <time>2013-05-11T10:27:57Z</time>
      </trkpt>
      <trkpt lat="44.42009" lon="5.49853">
        <ele>1015</ele>
        <time>2013-05-11T10:28:00Z</time>
      </trkpt>
      <trkpt lat="44.42008" lon="5.49864">
        <ele>1014.5999755859</ele>
        <time>2013-05-11T10:28:01Z</time>
      </trkpt>
      <trkpt lat="44.42007" lon="5.49874">
        <ele>1014.200012207</ele>
        <time>2013-05-11T10:28:02Z</time>
      </trkpt>
      <trkpt lat="44.42005" lon="5.49884">
        <ele>1013.4000244141</ele>
        <time>2013-05-11T10:28:03Z</time>
      </trkpt>
      <trkpt lat="44.42003" lon="5.49892">
        <ele>1012.5999755859</ele>
        <time>2013-05-11T10:28:04Z</time>
      </trkpt>
      <trkpt lat="44.41999" lon="5.49909">
        <ele>1011.200012207</ele>
        <time>2013-05-11T10:28:06Z</time>
      </trkpt>
      <trkpt lat="44.41997" lon="5.49918">
        <ele>1010.5999755859</ele>
        <time>2013-05-11T10:28:07Z</time>
      </trkpt>
      <trkpt lat="44.41997" lon="5.4993">
        <ele>1009.799987793</ele>
        <time>2013-05-11T10:28:08Z</time>
      </trkpt>
      <trkpt lat="44.41998" lon="5.49939">
        <ele>1009.200012207</ele>
        <time>2013-05-11T10:28:09Z</time>
      </trkpt>
      <trkpt lat="44.41999" lon="5.49947">
        <ele>1008.4000244141</ele>
        <time>2013-05-11T10:28:10Z</time>
      </trkpt>
      <trkpt lat="44.42001" lon="5.49954">
        <ele>1007.799987793</ele>
        <time>2013-05-11T10:28:11Z</time>
      </trkpt>
      <trkpt lat="44.42004" lon="5.4996">
        <ele>1007</ele>
        <time>2013-05-11T10:28:12Z</time>
      </trkpt>
      <trkpt lat="44.42012" lon="5.49969">
        <ele>1004.4000244141</ele>
        <time>2013-05-11T10:28:15Z</time>
      </trkpt>
      <trkpt lat="44.42014" lon="5.4997">
        <ele>1003.5999755859</ele>
        <time>2013-05-11T10:28:16Z</time>
      </trkpt>
      <trkpt lat="44.42022" lon="5.49979">
        <ele>1004</ele>
        <time>2013-05-11T10:28:23Z</time>
      </trkpt>
      <trkpt lat="44.42022" lon="5.4998">
        <ele>1004.4000244141</ele>
        <time>2013-05-11T10:28:24Z</time>
      </trkpt>
      <trkpt lat="44.42023" lon="5.49996">
        <ele>1005.799987793</ele>
        <time>2013-05-11T10:28:31Z</time>
      </trkpt>
      <trkpt lat="44.42021" lon="5.50009">
        <ele>1005.799987793</ele>
        <time>2013-05-11T10:28:38Z</time>
      </trkpt>
      <trkpt lat="44.4202" lon="5.50015">
        <ele>1006.5999755859</ele>
        <time>2013-05-11T10:28:41Z</time>
      </trkpt>
      <trkpt lat="44.42018" lon="5.50024">
        <ele>1007.799987793</ele>
        <time>2013-05-11T10:28:46Z</time>
      </trkpt>
      <trkpt lat="44.42015" lon="5.50034">
        <ele>1009.4000244141</ele>
        <time>2013-05-11T10:28:53Z</time>
      </trkpt>
      <trkpt lat="44.42013" lon="5.50041">
        <ele>1010.4000244141</ele>
        <time>2013-05-11T10:28:58Z</time>
      </trkpt>
      <trkpt lat="44.42012" lon="5.5005">
        <ele>1012.5999755859</ele>
        <time>2013-05-11T10:29:07Z</time>
      </trkpt>
      <trkpt lat="44.42015" lon="5.50065">
        <ele>1013.4000244141</ele>
        <time>2013-05-11T10:29:17Z</time>
      </trkpt>
      <trkpt lat="44.42017" lon="5.50073">
        <ele>1014.5999755859</ele>
        <time>2013-05-11T10:29:22Z</time>
      </trkpt>
      <trkpt lat="44.42017" lon="5.50082">
        <ele>1016</ele>
        <time>2013-05-11T10:29:29Z</time>
      </trkpt>
      <trkpt lat="44.42019" lon="5.50096">
        <ele>1016.799987793</ele>
        <time>2013-05-11T10:29:41Z</time>
      </trkpt>
      <trkpt lat="44.42019" lon="5.50105">
        <ele>1016.799987793</ele>
        <time>2013-05-11T10:29:49Z</time>
      </trkpt>
      <trkpt lat="44.4202" lon="5.50107">
        <ele>1018</ele>
        <time>2013-05-11T10:29:53Z</time>
      </trkpt>
      <trkpt lat="44.42021" lon="5.5011">
        <ele>1019.5999755859</ele>
        <time>2013-05-11T10:29:58Z</time>
      </trkpt>
      <trkpt lat="44.42017" lon="5.50119">
        <ele>1019.5999755859</ele>
        <time>2013-05-11T10:30:24Z</time>
      </trkpt>
      <trkpt lat="44.42014" lon="5.50125">
        <ele>1020.4000244141</ele>
        <time>2013-05-11T10:30:29Z</time>
      </trkpt>
      <trkpt lat="44.42014" lon="5.50131">
        <ele>1021.799987793</ele>
        <time>2013-05-11T10:30:34Z</time>
      </trkpt>
      <trkpt lat="44.42016" lon="5.50155">
        <ele>1021.799987793</ele>
        <time>2013-05-11T10:30:48Z</time>
      </trkpt>
      <trkpt lat="44.42015" lon="5.50163">
        <ele>1022.799987793</ele>
        <time>2013-05-11T10:30:53Z</time>
      </trkpt>
      <trkpt lat="44.42014" lon="5.50171">
        <ele>1024.1999511719</ele>
        <time>2013-05-11T10:30:58Z</time>
      </trkpt>
      <trkpt lat="44.42014" lon="5.50185">
        <ele>1024.5999755859</ele>
        <time>2013-05-11T10:31:10Z</time>
      </trkpt>
      <trkpt lat="44.42014" lon="5.50202">
        <ele>1026.8000488281</ele>
        <time>2013-05-11T10:31:26Z</time>
      </trkpt>
      <trkpt lat="44.42017" lon="5.50219">
        <ele>1029</ele>
        <time>2013-05-11T10:31:39Z</time>
      </trkpt>
      <trkpt lat="44.42017" lon="5.50222">
        <ele>1030</ele>
        <time>2013-05-11T10:31:41Z</time>
      </trkpt>
      <trkpt lat="44.42022" lon="5.50236">
        <ele>1031</ele>
        <time>2013-05-11T10:31:53Z</time>
      </trkpt>
      <trkpt lat="44.42024" lon="5.50244">
        <ele>1032</ele>
        <time>2013-05-11T10:32:00Z</time>
      </trkpt>
      <trkpt lat="44.42026" lon="5.50263">
        <ele>1033.8000488281</ele>
        <time>2013-05-11T10:32:15Z</time>
      </trkpt>
      <trkpt lat="44.42027" lon="5.50271">
        <ele>1035.5999755859</ele>
        <time>2013-05-11T10:32:22Z</time>
      </trkpt>
      <trkpt lat="44.42028" lon="5.50285">
        <ele>1036.5999755859</ele>
        <time>2013-05-11T10:32:34Z</time>
      </trkpt>
      <trkpt lat="44.42029" lon="5.50293">
        <ele>1038.1999511719</ele>
        <time>2013-05-11T10:32:41Z</time>
      </trkpt>
      <trkpt lat="44.42031" lon="5.50299">
        <ele>1039.5999755859</ele>
        <time>2013-05-11T10:32:45Z</time>
      </trkpt>
      <trkpt lat="44.42031" lon="5.503">
        <ele>1040</ele>
        <time>2013-05-11T10:32:46Z</time>
      </trkpt>
      <trkpt lat="44.42032" lon="5.50311">
        <ele>1041</ele>
        <time>2013-05-11T10:32:55Z</time>
      </trkpt>
      <trkpt lat="44.42034" lon="5.50323">
        <ele>1042.4000244141</ele>
        <time>2013-05-11T10:33:07Z</time>
      </trkpt>
      <trkpt lat="44.42035" lon="5.50331">
        <ele>1044</ele>
        <time>2013-05-11T10:33:14Z</time>
      </trkpt>
      <trkpt lat="44.42036" lon="5.50349">
        <ele>1044.8000488281</ele>
        <time>2013-05-11T10:33:31Z</time>
      </trkpt>
      <trkpt lat="44.42036" lon="5.50351">
        <ele>1045.1999511719</ele>
        <time>2013-05-11T10:33:33Z</time>
      </trkpt>
      <trkpt lat="44.42038" lon="5.5036">
        <ele>1046.4000244141</ele>
        <time>2013-05-11T10:33:45Z</time>
      </trkpt>
      <trkpt lat="44.4204" lon="5.50371">
        <ele>1046.4000244141</ele>
        <time>2013-05-11T10:33:50Z</time>
      </trkpt>
      <trkpt lat="44.42044" lon="5.50387">
        <ele>1046.4000244141</ele>
        <time>2013-05-11T10:33:58Z</time>
      </trkpt>
      <trkpt lat="44.42045" lon="5.50392">
        <ele>1046.8000488281</ele>
        <time>2013-05-11T10:34:01Z</time>
      </trkpt>
      <trkpt lat="44.42045" lon="5.50401">
        <ele>1048.1999511719</ele>
        <time>2013-05-11T10:34:04Z</time>
      </trkpt>
      <trkpt lat="44.42044" lon="5.50426">
        <ele>1048.5999755859</ele>
        <time>2013-05-11T10:34:11Z</time>
      </trkpt>
      <trkpt lat="44.42043" lon="5.50451">
        <ele>1048.5999755859</ele>
        <time>2013-05-11T10:34:18Z</time>
      </trkpt>
      <trkpt lat="44.4204" lon="5.50477">
        <ele>1048.5999755859</ele>
        <time>2013-05-11T10:34:25Z</time>
      </trkpt>
      <trkpt lat="44.42034" lon="5.50511">
        <ele>1048.5999755859</ele>
        <time>2013-05-11T10:34:33Z</time>
      </trkpt>
      <trkpt lat="44.4203" lon="5.50539">
        <ele>1048.5999755859</ele>
        <time>2013-05-11T10:34:41Z</time>
      </trkpt>
      <trkpt lat="44.42031" lon="5.50555">
        <ele>1049</ele>
        <time>2013-05-11T10:34:47Z</time>
      </trkpt>
      <trkpt lat="44.42032" lon="5.50562">
        <ele>1049.8000488281</ele>
        <time>2013-05-11T10:34:50Z</time>
      </trkpt>
      <trkpt lat="44.42033" lon="5.50571">
        <ele>1050.5999755859</ele>
        <time>2013-05-11T10:34:54Z</time>
      </trkpt>
      <trkpt lat="44.42034" lon="5.50581">
        <ele>1051</ele>
        <time>2013-05-11T10:34:59Z</time>
      </trkpt>
      <trkpt lat="44.42035" lon="5.50592">
        <ele>1052.8000488281</ele>
        <time>2013-05-11T10:35:06Z</time>
      </trkpt>
      <trkpt lat="44.42036" lon="5.50602">
        <ele>1053.1999511719</ele>
        <time>2013-05-11T10:35:12Z</time>
      </trkpt>
      <trkpt lat="44.42035" lon="5.50612">
        <ele>1055</ele>
        <time>2013-05-11T10:35:19Z</time>
      </trkpt>
      <trkpt lat="44.42034" lon="5.50623">
        <ele>1056.8000488281</ele>
        <time>2013-05-11T10:35:25Z</time>
      </trkpt>
      <trkpt lat="44.42035" lon="5.50634">
        <ele>1057.1999511719</ele>
        <time>2013-05-11T10:35:33Z</time>
      </trkpt>
      <trkpt lat="44.42036" lon="5.50641">
        <ele>1057.5999755859</ele>
        <time>2013-05-11T10:35:37Z</time>
      </trkpt>
      <trkpt lat="44.42036" lon="5.50653">
        <ele>1059.4000244141</ele>
        <time>2013-05-11T10:35:44Z</time>
      </trkpt>
      <trkpt lat="44.42033" lon="5.50665">
        <ele>1059.4000244141</ele>
        <time>2013-05-11T10:35:52Z</time>
      </trkpt>
      <trkpt lat="44.4203" lon="5.50667">
        <ele>1059.8000488281</ele>
        <time>2013-05-11T10:36:00Z</time>
      </trkpt>
      <trkpt lat="44.42031" lon="5.50668">
        <ele>1064.1999511719</ele>
        <time>2013-05-11T10:36:54Z</time>
      </trkpt>
      <trkpt lat="44.42031" lon="5.5067">
        <ele>1074</ele>
        <time>2013-05-11T10:38:06Z</time>
      </trkpt>
      <trkpt lat="44.42033" lon="5.50681">
        <ele>1081.8000488281</ele>
        <time>2013-05-11T10:38:52Z</time>
      </trkpt>
      <trkpt lat="44.4204" lon="5.50694">
        <ele>1081.8000488281</ele>
        <time>2013-05-11T10:38:56Z</time>
      </trkpt>
      <trkpt lat="44.42052" lon="5.50727">
        <ele>1082.5999755859</ele>
        <time>2013-05-11T10:39:07Z</time>
      </trkpt>
      <trkpt lat="44.42054" lon="5.50738">
        <ele>1083</ele>
        <time>2013-05-11T10:39:10Z</time>
      </trkpt>
      <trkpt lat="44.42055" lon="5.50744">
        <ele>1083.8000488281</ele>
        <time>2013-05-11T10:39:12Z</time>
      </trkpt>
      <trkpt lat="44.42056" lon="5.50764">
        <ele>1083.8000488281</ele>
        <time>2013-05-11T10:39:21Z</time>
      </trkpt>
      <trkpt lat="44.42056" lon="5.50772">
        <ele>1084.8000488281</ele>
        <time>2013-05-11T10:39:26Z</time>
      </trkpt>
      <trkpt lat="44.42056" lon="5.50788">
        <ele>1086.1999511719</ele>
        <time>2013-05-11T10:39:44Z</time>
      </trkpt>
      <trkpt lat="44.42055" lon="5.50792">
        <ele>1087.8000488281</ele>
        <time>2013-05-11T10:39:48Z</time>
      </trkpt>
      <trkpt lat="44.42052" lon="5.50801">
        <ele>1089.1999511719</ele>
        <time>2013-05-11T10:39:56Z</time>
      </trkpt>
      <trkpt lat="44.42049" lon="5.50806">
        <ele>1090.5999755859</ele>
        <time>2013-05-11T10:40:01Z</time>
      </trkpt>
      <trkpt lat="44.42048" lon="5.50812">
        <ele>1091.5999755859</ele>
        <time>2013-05-11T10:40:06Z</time>
      </trkpt>
      <trkpt lat="44.42043" lon="5.50822">
        <ele>1093.8000488281</ele>
        <time>2013-05-11T10:40:16Z</time>
      </trkpt>
      <trkpt lat="44.42039" lon="5.50845">
        <ele>1095.4000244141</ele>
        <time>2013-05-11T10:40:40Z</time>
      </trkpt>
      <trkpt lat="44.42036" lon="5.50855">
        <ele>1095.8000488281</ele>
        <time>2013-05-11T10:40:52Z</time>
      </trkpt>
      <trkpt lat="44.42036" lon="5.50861">
        <ele>1097.5999755859</ele>
        <time>2013-05-11T10:40:59Z</time>
      </trkpt>
      <trkpt lat="44.42035" lon="5.50871">
        <ele>1099.8000488281</ele>
        <time>2013-05-11T10:41:09Z</time>
      </trkpt>
      <trkpt lat="44.42034" lon="5.5088">
        <ele>1100.8000488281</ele>
        <time>2013-05-11T10:41:18Z</time>
      </trkpt>
      <trkpt lat="44.42033" lon="5.50892">
        <ele>1103.8000488281</ele>
        <time>2013-05-11T10:41:31Z</time>
      </trkpt>
      <trkpt lat="44.42032" lon="5.50902">
        <ele>1105.8000488281</ele>
        <time>2013-05-11T10:41:40Z</time>
      </trkpt>
      <trkpt lat="44.42029" lon="5.5091">
        <ele>1107.8000488281</ele>
        <time>2013-05-11T10:41:48Z</time>
      </trkpt>
      <trkpt lat="44.42027" lon="5.50911">
        <ele>1108.1999511719</ele>
        <time>2013-05-11T10:41:50Z</time>
      </trkpt>
      <trkpt lat="44.42017" lon="5.50915">
        <ele>1109.4000244141</ele>
        <time>2013-05-11T10:42:03Z</time>
      </trkpt>
      <trkpt lat="44.42018" lon="5.5092">
        <ele>1109.4000244141</ele>
        <time>2013-05-11T10:42:11Z</time>
      </trkpt>
      <trkpt lat="44.42016" lon="5.50934">
        <ele>1109.8000488281</ele>
        <time>2013-05-11T10:42:23Z</time>
      </trkpt>
      <trkpt lat="44.42014" lon="5.50941">
        <ele>1111.5999755859</ele>
        <time>2013-05-11T10:42:28Z</time>
      </trkpt>
      <trkpt lat="44.42012" lon="5.50953">
        <ele>1111.5999755859</ele>
        <time>2013-05-11T10:42:36Z</time>
      </trkpt>
      <trkpt lat="44.42013" lon="5.5096">
        <ele>1111.5999755859</ele>
        <time>2013-05-11T10:42:43Z</time>
      </trkpt>
      <trkpt lat="44.42023" lon="5.50966">
        <ele>1111.5999755859</ele>
        <time>2013-05-11T10:42:54Z</time>
      </trkpt>
      <trkpt lat="44.42038" lon="5.50979">
        <ele>1111.5999755859</ele>
        <time>2013-05-11T10:43:01Z</time>
      </trkpt>
      <trkpt lat="44.42049" lon="5.50991">
        <ele>1111.5999755859</ele>
        <time>2013-05-11T10:43:08Z</time>
      </trkpt>
      <trkpt lat="44.42044" lon="5.50987">
        <ele>1111.5999755859</ele>
        <time>2013-05-11T10:43:26Z</time>
      </trkpt>
      <trkpt lat="44.42039" lon="5.50981">
        <ele>1111.5999755859</ele>
        <time>2013-05-11T10:43:38Z</time>
      </trkpt>
      <trkpt lat="44.42049" lon="5.50989">
        <ele>1111.5999755859</ele>
        <time>2013-05-11T10:44:15Z</time>
      </trkpt>
      <trkpt lat="44.4206" lon="5.51004">
        <ele>1111.5999755859</ele>
        <time>2013-05-11T10:44:22Z</time>
      </trkpt>
      <trkpt lat="44.42067" lon="5.51012">
        <ele>1112.8000488281</ele>
        <time>2013-05-11T10:44:26Z</time>
      </trkpt>
      <trkpt lat="44.42075" lon="5.51023">
        <ele>1113.5999755859</ele>
        <time>2013-05-11T10:44:32Z</time>
      </trkpt>
      <trkpt lat="44.42086" lon="5.51033">
        <ele>1113.5999755859</ele>
        <time>2013-05-11T10:44:42Z</time>
      </trkpt>
      <trkpt lat="44.4209" lon="5.51035">
        <ele>1113.5999755859</ele>
        <time>2013-05-11T10:44:48Z</time>
      </trkpt>
      <trkpt lat="44.42099" lon="5.51042">
        <ele>1116.8000488281</ele>
        <time>2013-05-11T10:44:59Z</time>
      </trkpt>
      <trkpt lat="44.42103" lon="5.51047">
        <ele>1118.1999511719</ele>
        <time>2013-05-11T10:45:23Z</time>
      </trkpt>
      <trkpt lat="44.42112" lon="5.51056">
        <ele>1118.1999511719</ele>
        <time>2013-05-11T10:45:33Z</time>
      </trkpt>
      <trkpt lat="44.42117" lon="5.5106">
        <ele>1119.1999511719</ele>
        <time>2013-05-11T10:45:41Z</time>
      </trkpt>
      <trkpt lat="44.42121" lon="5.51064">
        <ele>1120.4000244141</ele>
        <time>2013-05-11T10:45:46Z</time>
      </trkpt>
      <trkpt lat="44.42131" lon="5.51075">
        <ele>1120.8000488281</ele>
        <time>2013-05-11T10:46:03Z</time>
      </trkpt>
      <trkpt lat="44.42138" lon="5.51081">
        <ele>1122.4000244141</ele>
        <time>2013-05-11T10:46:11Z</time>
      </trkpt>
      <trkpt lat="44.4214" lon="5.51084">
        <ele>1123</ele>
        <time>2013-05-11T10:46:16Z</time>
      </trkpt>
      <trkpt lat="44.42147" lon="5.5109">
        <ele>1124.8000488281</ele>
        <time>2013-05-11T10:46:25Z</time>
      </trkpt>
      <trkpt lat="44.4215" lon="5.51095">
        <ele>1126</ele>
        <time>2013-05-11T10:46:35Z</time>
      </trkpt>
      <trkpt lat="44.4216" lon="5.51114">
        <ele>1127</ele>
        <time>2013-05-11T10:46:45Z</time>
      </trkpt>
      <trkpt lat="44.42166" lon="5.51132">
        <ele>1127</ele>
        <time>2013-05-11T10:46:51Z</time>
      </trkpt>
      <trkpt lat="44.42175" lon="5.51155">
        <ele>1127</ele>
        <time>2013-05-11T10:46:57Z</time>
      </trkpt>
      <trkpt lat="44.42181" lon="5.51166">
        <ele>1126.4000244141</ele>
        <time>2013-05-11T10:47:00Z</time>
      </trkpt>
      <trkpt lat="44.42185" lon="5.51174">
        <ele>1126</ele>
        <time>2013-05-11T10:47:02Z</time>
      </trkpt>
      <trkpt lat="44.42191" lon="5.51181">
        <ele>1126</ele>
        <time>2013-05-11T10:47:04Z</time>
      </trkpt>
      <trkpt lat="44.42203" lon="5.51194">
        <ele>1123.1999511719</ele>
        <time>2013-05-11T10:47:07Z</time>
      </trkpt>
      <trkpt lat="44.42216" lon="5.51207">
        <ele>1121.1999511719</ele>
        <time>2013-05-11T10:47:10Z</time>
      </trkpt>
      <trkpt lat="44.42223" lon="5.51212">
        <ele>1120.1999511719</ele>
        <time>2013-05-11T10:47:12Z</time>
      </trkpt>
      <trkpt lat="44.42229" lon="5.5122">
        <ele>1119.1999511719</ele>
        <time>2013-05-11T10:47:18Z</time>
      </trkpt>
      <trkpt lat="44.42232" lon="5.51232">
        <ele>1119.1999511719</ele>
        <time>2013-05-11T10:47:30Z</time>
      </trkpt>
      <trkpt lat="44.42229" lon="5.51239">
        <ele>1122.8000488281</ele>
        <time>2013-05-11T10:47:48Z</time>
      </trkpt>
      <trkpt lat="44.42228" lon="5.51241">
        <ele>1123.4000244141</ele>
        <time>2013-05-11T10:47:50Z</time>
      </trkpt>
      <trkpt lat="44.42224" lon="5.51259">
        <ele>1125.1999511719</ele>
        <time>2013-05-11T10:48:08Z</time>
      </trkpt>
      <trkpt lat="44.42223" lon="5.51261">
        <ele>1125.5999755859</ele>
        <time>2013-05-11T10:48:10Z</time>
      </trkpt>
      <trkpt lat="44.42221" lon="5.51283">
        <ele>1126.4000244141</ele>
        <time>2013-05-11T10:48:18Z</time>
      </trkpt>
      <trkpt lat="44.42218" lon="5.51302">
        <ele>1126.4000244141</ele>
        <time>2013-05-11T10:48:23Z</time>
      </trkpt>
      <trkpt lat="44.42215" lon="5.51324">
        <ele>1126</ele>
        <time>2013-05-11T10:48:30Z</time>
      </trkpt>
      <trkpt lat="44.42216" lon="5.5133">
        <ele>1125.5999755859</ele>
        <time>2013-05-11T10:48:32Z</time>
      </trkpt>
      <trkpt lat="44.42219" lon="5.5134">
        <ele>1124.4000244141</ele>
        <time>2013-05-11T10:48:41Z</time>
      </trkpt>
      <trkpt lat="44.42221" lon="5.51344">
        <ele>1125.5999755859</ele>
        <time>2013-05-11T10:48:45Z</time>
      </trkpt>
      <trkpt lat="44.42225" lon="5.51352">
        <ele>1126.8000488281</ele>
        <time>2013-05-11T10:48:57Z</time>
      </trkpt>
      <trkpt lat="44.42229" lon="5.51365">
        <ele>1129</ele>
        <time>2013-05-11T10:49:14Z</time>
      </trkpt>
      <trkpt lat="44.4223" lon="5.51368">
        <ele>1129.4000244141</ele>
        <time>2013-05-11T10:49:16Z</time>
      </trkpt>
      <trkpt lat="44.42233" lon="5.51374">
        <ele>1130.1999511719</ele>
        <time>2013-05-11T10:49:19Z</time>
      </trkpt>
      <trkpt lat="44.42233" lon="5.51383">
        <ele>1130.5999755859</ele>
        <time>2013-05-11T10:49:22Z</time>
      </trkpt>
      <trkpt lat="44.42237" lon="5.51404">
        <ele>1130.5999755859</ele>
        <time>2013-05-11T10:49:27Z</time>
      </trkpt>
      <trkpt lat="44.42241" lon="5.51437">
        <ele>1130.5999755859</ele>
        <time>2013-05-11T10:49:35Z</time>
      </trkpt>
      <trkpt lat="44.42247" lon="5.51447">
        <ele>1130.5999755859</ele>
        <time>2013-05-11T10:49:39Z</time>
      </trkpt>
      <trkpt lat="44.42256" lon="5.51462">
        <ele>1130.5999755859</ele>
        <time>2013-05-11T10:49:44Z</time>
      </trkpt>
      <trkpt lat="44.42266" lon="5.51475">
        <ele>1130.5999755859</ele>
        <time>2013-05-11T10:49:49Z</time>
      </trkpt>
      <trkpt lat="44.42274" lon="5.51488">
        <ele>1129.5999755859</ele>
        <time>2013-05-11T10:49:52Z</time>
      </trkpt>
      <trkpt lat="44.42277" lon="5.51491">
        <ele>1129.1999511719</ele>
        <time>2013-05-11T10:49:53Z</time>
      </trkpt>
      <trkpt lat="44.4228" lon="5.51498">
        <ele>1128.5999755859</ele>
        <time>2013-05-11T10:49:55Z</time>
      </trkpt>
      <trkpt lat="44.42283" lon="5.51503">
        <ele>1128.1999511719</ele>
        <time>2013-05-11T10:49:57Z</time>
      </trkpt>
      <trkpt lat="44.42284" lon="5.5151">
        <ele>1146.4000244141</ele>
        <time>2013-05-11T10:52:49Z</time>
      </trkpt>
      <trkpt lat="44.42284" lon="5.51522">
        <ele>1152.4000244141</ele>
        <time>2013-05-11T10:53:35Z</time>
      </trkpt>
      <trkpt lat="44.42285" lon="5.51531">
        <ele>1154</ele>
        <time>2013-05-11T10:53:40Z</time>
      </trkpt>
      <trkpt lat="44.42286" lon="5.51549">
        <ele>1154</ele>
        <time>2013-05-11T10:53:48Z</time>
      </trkpt>
      <trkpt lat="44.42287" lon="5.51569">
        <ele>1154</ele>
        <time>2013-05-11T10:53:57Z</time>
      </trkpt>
      <trkpt lat="44.42289" lon="5.51582">
        <ele>1154</ele>
        <time>2013-05-11T10:54:03Z</time>
      </trkpt>
      <trkpt lat="44.4229" lon="5.51592">
        <ele>1155.8000488281</ele>
        <time>2013-05-11T10:54:07Z</time>
      </trkpt>
      <trkpt lat="44.4229" lon="5.51601">
        <ele>1156.1999511719</ele>
        <time>2013-05-11T10:54:10Z</time>
      </trkpt>
      <trkpt lat="44.42292" lon="5.5162">
        <ele>1156.1999511719</ele>
        <time>2013-05-11T10:54:17Z</time>
      </trkpt>
      <trkpt lat="44.42294" lon="5.51638">
        <ele>1156.1999511719</ele>
        <time>2013-05-11T10:54:24Z</time>
      </trkpt>
      <trkpt lat="44.42295" lon="5.51674">
        <ele>1156.1999511719</ele>
        <time>2013-05-11T10:54:35Z</time>
      </trkpt>
      <trkpt lat="44.42299" lon="5.51696">
        <ele>1156.1999511719</ele>
        <time>2013-05-11T10:54:45Z</time>
      </trkpt>
      <trkpt lat="44.423" lon="5.51705">
        <ele>1156.5999755859</ele>
        <time>2013-05-11T10:54:50Z</time>
      </trkpt>
      <trkpt lat="44.42302" lon="5.51715">
        <ele>1158</ele>
        <time>2013-05-11T10:54:55Z</time>
      </trkpt>
      <trkpt lat="44.42302" lon="5.51721">
        <ele>1158.4000244141</ele>
        <time>2013-05-11T10:54:58Z</time>
      </trkpt>
      <trkpt lat="44.42306" lon="5.51742">
        <ele>1159.1999511719</ele>
        <time>2013-05-11T10:55:09Z</time>
      </trkpt>
      <trkpt lat="44.42308" lon="5.51761">
        <ele>1160.5999755859</ele>
        <time>2013-05-11T10:55:17Z</time>
      </trkpt>
      <trkpt lat="44.4231" lon="5.51777">
        <ele>1160.5999755859</ele>
        <time>2013-05-11T10:55:26Z</time>
      </trkpt>
      <trkpt lat="44.42312" lon="5.51782">
        <ele>1161</ele>
        <time>2013-05-11T10:55:31Z</time>
      </trkpt>
      <trkpt lat="44.42313" lon="5.51794">
        <ele>1162.5999755859</ele>
        <time>2013-05-11T10:55:42Z</time>
      </trkpt>
      <trkpt lat="44.42313" lon="5.51802">
        <ele>1162.5999755859</ele>
        <time>2013-05-11T10:57:28Z</time>
      </trkpt>
      <trkpt lat="44.42315" lon="5.51819">
        <ele>1162.5999755859</ele>
        <time>2013-05-11T10:57:42Z</time>
      </trkpt>
      <trkpt lat="44.42315" lon="5.51822">
        <ele>1162.5999755859</ele>
        <time>2013-05-11T10:57:45Z</time>
      </trkpt>
      <trkpt lat="44.42315" lon="5.51837">
        <ele>1165.4000244141</ele>
        <time>2013-05-11T10:57:59Z</time>
      </trkpt>
      <trkpt lat="44.42315" lon="5.51844">
        <ele>1167.1999511719</ele>
        <time>2013-05-11T10:58:05Z</time>
      </trkpt>
      <trkpt lat="44.42315" lon="5.51861">
        <ele>1167.5999755859</ele>
        <time>2013-05-11T10:58:21Z</time>
      </trkpt>
      <trkpt lat="44.42313" lon="5.51876">
        <ele>1169.1999511719</ele>
        <time>2013-05-11T10:58:32Z</time>
      </trkpt>
      <trkpt lat="44.42314" lon="5.51882">
        <ele>1169.1999511719</ele>
        <time>2013-05-11T10:58:39Z</time>
      </trkpt>
      <trkpt lat="44.42312" lon="5.51895">
        <ele>1169.1999511719</ele>
        <time>2013-05-11T10:58:52Z</time>
      </trkpt>
      <trkpt lat="44.4231" lon="5.51915">
        <ele>1169.1999511719</ele>
        <time>2013-05-11T10:58:59Z</time>
      </trkpt>
      <trkpt lat="44.42311" lon="5.51927">
        <ele>1169.1999511719</ele>
        <time>2013-05-11T10:59:06Z</time>
      </trkpt>
      <trkpt lat="44.42313" lon="5.51933">
        <ele>1169.5999755859</ele>
        <time>2013-05-11T10:59:16Z</time>
      </trkpt>
      <trkpt lat="44.42316" lon="5.51941">
        <ele>1171.1999511719</ele>
        <time>2013-05-11T10:59:25Z</time>
      </trkpt>
      <trkpt lat="44.42319" lon="5.51952">
        <ele>1171.5999755859</ele>
        <time>2013-05-11T10:59:33Z</time>
      </trkpt>
      <trkpt lat="44.42318" lon="5.51967">
        <ele>1173.1999511719</ele>
        <time>2013-05-11T10:59:48Z</time>
      </trkpt>
      <trkpt lat="44.42318" lon="5.51971">
        <ele>1174.5999755859</ele>
        <time>2013-05-11T10:59:53Z</time>
      </trkpt>
      <trkpt lat="44.42315" lon="5.51984">
        <ele>1175.5999755859</ele>
        <time>2013-05-11T11:00:03Z</time>
      </trkpt>
      <trkpt lat="44.42313" lon="5.51991">
        <ele>1176</ele>
        <time>2013-05-11T11:00:12Z</time>
      </trkpt>
      <trkpt lat="44.42307" lon="5.5201">
        <ele>1177.5999755859</ele>
        <time>2013-05-11T11:00:28Z</time>
      </trkpt>
      <trkpt lat="44.42305" lon="5.52021">
        <ele>1179.5999755859</ele>
        <time>2013-05-11T11:00:38Z</time>
      </trkpt>
      <trkpt lat="44.42303" lon="5.52032">
        <ele>1180</ele>
        <time>2013-05-11T11:00:47Z</time>
      </trkpt>
      <trkpt lat="44.42302" lon="5.52047">
        <ele>1180</ele>
        <time>2013-05-11T11:01:04Z</time>
      </trkpt>
      <trkpt lat="44.42303" lon="5.52051">
        <ele>1181.4000244141</ele>
        <time>2013-05-11T11:01:08Z</time>
      </trkpt>
      <trkpt lat="44.42304" lon="5.52062">
        <ele>1182.4000244141</ele>
        <time>2013-05-11T11:01:20Z</time>
      </trkpt>
      <trkpt lat="44.42304" lon="5.52071">
        <ele>1182.4000244141</ele>
        <time>2013-05-11T11:01:28Z</time>
      </trkpt>
      <trkpt lat="44.42303" lon="5.52081">
        <ele>1182.8000488281</ele>
        <time>2013-05-11T11:01:36Z</time>
      </trkpt>
      <trkpt lat="44.42303" lon="5.52091">
        <ele>1184.4000244141</ele>
        <time>2013-05-11T11:01:43Z</time>
      </trkpt>
      <trkpt lat="44.42302" lon="5.521">
        <ele>1183.4000244141</ele>
        <time>2013-05-11T11:01:53Z</time>
      </trkpt>
      <trkpt lat="44.42308" lon="5.52117">
        <ele>1182.1999511719</ele>
        <time>2013-05-11T11:02:13Z</time>
      </trkpt>
      <trkpt lat="44.4231" lon="5.52126">
        <ele>1182.1999511719</ele>
        <time>2013-05-11T11:02:20Z</time>
      </trkpt>
      <trkpt lat="44.42308" lon="5.5213">
        <ele>1182.1999511719</ele>
        <time>2013-05-11T11:02:32Z</time>
      </trkpt>
      <trkpt lat="44.42305" lon="5.52141">
        <ele>1182.1999511719</ele>
        <time>2013-05-11T11:02:37Z</time>
      </trkpt>
      <trkpt lat="44.423" lon="5.52163">
        <ele>1182.1999511719</ele>
        <time>2013-05-11T11:02:43Z</time>
      </trkpt>
      <trkpt lat="44.42297" lon="5.52174">
        <ele>1182.1999511719</ele>
        <time>2013-05-11T11:02:54Z</time>
      </trkpt>
      <trkpt lat="44.42294" lon="5.5218">
        <ele>1180.5999755859</ele>
        <time>2013-05-11T11:02:59Z</time>
      </trkpt>
      <trkpt lat="44.42286" lon="5.52204">
        <ele>1179.5999755859</ele>
        <time>2013-05-11T11:03:13Z</time>
      </trkpt>
      <trkpt lat="44.42285" lon="5.52211">
        <ele>1179.1999511719</ele>
        <time>2013-05-11T11:03:15Z</time>
      </trkpt>
      <trkpt lat="44.42282" lon="5.52221">
        <ele>1178.1999511719</ele>
        <time>2013-05-11T11:03:19Z</time>
      </trkpt>
      <trkpt lat="44.42281" lon="5.52231">
        <ele>1176.5999755859</ele>
        <time>2013-05-11T11:03:24Z</time>
      </trkpt>
      <trkpt lat="44.42279" lon="5.52245">
        <ele>1175.4000244141</ele>
        <time>2013-05-11T11:03:36Z</time>
      </trkpt>
      <trkpt lat="44.4228" lon="5.52259">
        <ele>1175.4000244141</ele>
        <time>2013-05-11T11:03:48Z</time>
      </trkpt>
      <trkpt lat="44.4228" lon="5.5226">
        <ele>1175.4000244141</ele>
        <time>2013-05-11T11:03:55Z</time>
      </trkpt>
      <trkpt lat="44.4228" lon="5.52262">
        <ele>1175.4000244141</ele>
        <time>2013-05-11T11:03:56Z</time>
      </trkpt>
      <trkpt lat="44.42278" lon="5.5227">
        <ele>1175.4000244141</ele>
        <time>2013-05-11T11:03:59Z</time>
      </trkpt>
      <trkpt lat="44.42276" lon="5.52287">
        <ele>1175.4000244141</ele>
        <time>2013-05-11T11:04:04Z</time>
      </trkpt>
      <trkpt lat="44.42277" lon="5.52294">
        <ele>1175.4000244141</ele>
        <time>2013-05-11T11:04:09Z</time>
      </trkpt>
      <trkpt lat="44.42276" lon="5.52322">
        <ele>1175.4000244141</ele>
        <time>2013-05-11T11:04:34Z</time>
      </trkpt>
      <trkpt lat="44.42274" lon="5.52341">
        <ele>1175.4000244141</ele>
        <time>2013-05-11T11:04:39Z</time>
      </trkpt>
      <trkpt lat="44.42271" lon="5.52361">
        <ele>1175.4000244141</ele>
        <time>2013-05-11T11:04:45Z</time>
      </trkpt>
      <trkpt lat="44.42265" lon="5.52373">
        <ele>1174.8000488281</ele>
        <time>2013-05-11T11:04:48Z</time>
      </trkpt>
      <trkpt lat="44.42263" lon="5.52383">
        <ele>1173.5999755859</ele>
        <time>2013-05-11T11:04:50Z</time>
      </trkpt>
      <trkpt lat="44.42261" lon="5.52396">
        <ele>1172.4000244141</ele>
        <time>2013-05-11T11:04:53Z</time>
      </trkpt>
      <trkpt lat="44.4226" lon="5.52403">
        <ele>1171.8000488281</ele>
        <time>2013-05-11T11:04:55Z</time>
      </trkpt>
      <trkpt lat="44.4226" lon="5.52414">
        <ele>1170.5999755859</ele>
        <time>2013-05-11T11:05:00Z</time>
      </trkpt>
      <trkpt lat="44.42258" lon="5.5242">
        <ele>1170</ele>
        <time>2013-05-11T11:05:03Z</time>
      </trkpt>
      <trkpt lat="44.42252" lon="5.52445">
        <ele>1169.5999755859</ele>
        <time>2013-05-11T11:05:10Z</time>
      </trkpt>
      <trkpt lat="44.42251" lon="5.52453">
        <ele>1168.8000488281</ele>
        <time>2013-05-11T11:05:12Z</time>
      </trkpt>
      <trkpt lat="44.4225" lon="5.52459">
        <ele>1168.4000244141</ele>
        <time>2013-05-11T11:05:14Z</time>
      </trkpt>
      <trkpt lat="44.42249" lon="5.52462">
        <ele>1168</ele>
        <time>2013-05-11T11:05:15Z</time>
      </trkpt>
      <trkpt lat="44.42246" lon="5.52475">
        <ele>1168</ele>
        <time>2013-05-11T11:05:21Z</time>
      </trkpt>
      <trkpt lat="44.42241" lon="5.52485">
        <ele>1167.1999511719</ele>
        <time>2013-05-11T11:05:24Z</time>
      </trkpt>
      <trkpt lat="44.42239" lon="5.52492">
        <ele>1166.5999755859</ele>
        <time>2013-05-11T11:05:26Z</time>
      </trkpt>
      <trkpt lat="44.42236" lon="5.52504">
        <ele>1164.5999755859</ele>
        <time>2013-05-11T11:05:29Z</time>
      </trkpt>
      <trkpt lat="44.42236" lon="5.5251">
        <ele>1163.4000244141</ele>
        <time>2013-05-11T11:05:31Z</time>
      </trkpt>
      <trkpt lat="44.42234" lon="5.52524">
        <ele>1163.4000244141</ele>
        <time>2013-05-11T11:05:36Z</time>
      </trkpt>
      <trkpt lat="44.4223" lon="5.52539">
        <ele>1163.4000244141</ele>
        <time>2013-05-11T11:05:41Z</time>
      </trkpt>
      <trkpt lat="44.42228" lon="5.52559">
        <ele>1163.4000244141</ele>
        <time>2013-05-11T11:05:51Z</time>
      </trkpt>
      <trkpt lat="44.42224" lon="5.52572">
        <ele>1163.4000244141</ele>
        <time>2013-05-11T11:05:55Z</time>
      </trkpt>
      <trkpt lat="44.4222" lon="5.5259">
        <ele>1163.4000244141</ele>
        <time>2013-05-11T11:05:59Z</time>
      </trkpt>
      <trkpt lat="44.42217" lon="5.52609">
        <ele>1163.4000244141</ele>
        <time>2013-05-11T11:06:04Z</time>
      </trkpt>
      <trkpt lat="44.42217" lon="5.52627">
        <ele>1163.4000244141</ele>
        <time>2013-05-11T11:06:09Z</time>
      </trkpt>
      <trkpt lat="44.42212" lon="5.52654">
        <ele>1163.4000244141</ele>
        <time>2013-05-11T11:06:18Z</time>
      </trkpt>
      <trkpt lat="44.42204" lon="5.52671">
        <ele>1163.4000244141</ele>
        <time>2013-05-11T11:06:23Z</time>
      </trkpt>
      <trkpt lat="44.42199" lon="5.52684">
        <ele>1162.4000244141</ele>
        <time>2013-05-11T11:06:26Z</time>
      </trkpt>
      <trkpt lat="44.42193" lon="5.52696">
        <ele>1161.4000244141</ele>
        <time>2013-05-11T11:06:29Z</time>
      </trkpt>
      <trkpt lat="44.42191" lon="5.52701">
        <ele>1161.4000244141</ele>
        <time>2013-05-11T11:06:30Z</time>
      </trkpt>
      <trkpt lat="44.42189" lon="5.52705">
        <ele>1160.8000488281</ele>
        <time>2013-05-11T11:06:31Z</time>
      </trkpt>
      <trkpt lat="44.42187" lon="5.5271">
        <ele>1160.1999511719</ele>
        <time>2013-05-11T11:06:32Z</time>
      </trkpt>
      <trkpt lat="44.42182" lon="5.52724">
        <ele>1159.1999511719</ele>
        <time>2013-05-11T11:06:35Z</time>
      </trkpt>
      <trkpt lat="44.42179" lon="5.52729">
        <ele>1158.4000244141</ele>
        <time>2013-05-11T11:06:36Z</time>
      </trkpt>
      <trkpt lat="44.42176" lon="5.52735">
        <ele>1157.5999755859</ele>
        <time>2013-05-11T11:06:37Z</time>
      </trkpt>
      <trkpt lat="44.4217" lon="5.52747">
        <ele>1155.8000488281</ele>
        <time>2013-05-11T11:06:39Z</time>
      </trkpt>
      <trkpt lat="44.42168" lon="5.52753">
        <ele>1155.8000488281</ele>
        <time>2013-05-11T11:06:40Z</time>
      </trkpt>
      <trkpt lat="44.42165" lon="5.5276">
        <ele>1154.8000488281</ele>
        <time>2013-05-11T11:06:41Z</time>
      </trkpt>
      <trkpt lat="44.42154" lon="5.52781">
        <ele>1152.5999755859</ele>
        <time>2013-05-11T11:06:44Z</time>
      </trkpt>
      <trkpt lat="44.42149" lon="5.5279">
        <ele>1152.5999755859</ele>
        <time>2013-05-11T11:06:45Z</time>
      </trkpt>
      <trkpt lat="44.42145" lon="5.52798">
        <ele>1152.1999511719</ele>
        <time>2013-05-11T11:06:46Z</time>
      </trkpt>
      <trkpt lat="44.42141" lon="5.52806">
        <ele>1151.8000488281</ele>
        <time>2013-05-11T11:06:47Z</time>
      </trkpt>
      <trkpt lat="44.42134" lon="5.52819">
        <ele>1151.4000244141</ele>
        <time>2013-05-11T11:06:49Z</time>
      </trkpt>
      <trkpt lat="44.42131" lon="5.52826">
        <ele>1151.4000244141</ele>
        <time>2013-05-11T11:06:50Z</time>
      </trkpt>
      <trkpt lat="44.42128" lon="5.52832">
        <ele>1150.8000488281</ele>
        <time>2013-05-11T11:06:51Z</time>
      </trkpt>
      <trkpt lat="44.42118" lon="5.52855">
        <ele>1149.4000244141</ele>
        <time>2013-05-11T11:06:54Z</time>
      </trkpt>
      <trkpt lat="44.42113" lon="5.52863">
        <ele>1149.4000244141</ele>
        <time>2013-05-11T11:06:55Z</time>
      </trkpt>
      <trkpt lat="44.42108" lon="5.52871">
        <ele>1148.5999755859</ele>
        <time>2013-05-11T11:06:56Z</time>
      </trkpt>
      <trkpt lat="44.42102" lon="5.5288">
        <ele>1148</ele>
        <time>2013-05-11T11:06:57Z</time>
      </trkpt>
      <trkpt lat="44.42091" lon="5.52898">
        <ele>1146</ele>
        <time>2013-05-11T11:06:59Z</time>
      </trkpt>
      <trkpt lat="44.42081" lon="5.52916">
        <ele>1145</ele>
        <time>2013-05-11T11:07:01Z</time>
      </trkpt>
      <trkpt lat="44.42075" lon="5.52925">
        <ele>1144</ele>
        <time>2013-05-11T11:07:02Z</time>
      </trkpt>
      <trkpt lat="44.42069" lon="5.52934">
        <ele>1142.8000488281</ele>
        <time>2013-05-11T11:07:03Z</time>
      </trkpt>
      <trkpt lat="44.42061" lon="5.52945">
        <ele>1141.5999755859</ele>
        <time>2013-05-11T11:07:04Z</time>
      </trkpt>
      <trkpt lat="44.42054" lon="5.52956">
        <ele>1141.5999755859</ele>
        <time>2013-05-11T11:07:05Z</time>
      </trkpt>
      <trkpt lat="44.42047" lon="5.52967">
        <ele>1140.4000244141</ele>
        <time>2013-05-11T11:07:06Z</time>
      </trkpt>
      <trkpt lat="44.42041" lon="5.52978">
        <ele>1140.4000244141</ele>
        <time>2013-05-11T11:07:07Z</time>
      </trkpt>
      <trkpt lat="44.42035" lon="5.5299">
        <ele>1139</ele>
        <time>2013-05-11T11:07:08Z</time>
      </trkpt>
      <trkpt lat="44.4203" lon="5.53">
        <ele>1137.5999755859</ele>
        <time>2013-05-11T11:07:09Z</time>
      </trkpt>
      <trkpt lat="44.42022" lon="5.53017">
        <ele>1134.8000488281</ele>
        <time>2013-05-11T11:07:11Z</time>
      </trkpt>
      <trkpt lat="44.42018" lon="5.53021">
        <ele>1134.8000488281</ele>
        <time>2013-05-11T11:07:12Z</time>
      </trkpt>
      <trkpt lat="44.42016" lon="5.5303">
        <ele>1133.4000244141</ele>
        <time>2013-05-11T11:07:14Z</time>
      </trkpt>
      <trkpt lat="44.4202" lon="5.53052">
        <ele>1131.8000488281</ele>
        <time>2013-05-11T11:07:18Z</time>
      </trkpt>
      <trkpt lat="44.42022" lon="5.5306">
        <ele>1130.8000488281</ele>
        <time>2013-05-11T11:07:19Z</time>
      </trkpt>
      <trkpt lat="44.42027" lon="5.53078">
        <ele>1130</ele>
        <time>2013-05-11T11:07:21Z</time>
      </trkpt>
      <trkpt lat="44.42034" lon="5.53099">
        <ele>1128.4000244141</ele>
        <time>2013-05-11T11:07:23Z</time>
      </trkpt>
      <trkpt lat="44.42038" lon="5.53109">
        <ele>1126.5999755859</ele>
        <time>2013-05-11T11:07:24Z</time>
      </trkpt>
      <trkpt lat="44.42043" lon="5.53126">
        <ele>1122.4000244141</ele>
        <time>2013-05-11T11:07:26Z</time>
      </trkpt>
      <trkpt lat="44.42047" lon="5.53135">
        <ele>1122.4000244141</ele>
        <time>2013-05-11T11:07:27Z</time>
      </trkpt>
      <trkpt lat="44.4205" lon="5.53145">
        <ele>1120.5999755859</ele>
        <time>2013-05-11T11:07:28Z</time>
      </trkpt>
      <trkpt lat="44.42053" lon="5.53157">
        <ele>1118.8000488281</ele>
        <time>2013-05-11T11:07:29Z</time>
      </trkpt>
      <trkpt lat="44.42059" lon="5.53181">
        <ele>1116.8000488281</ele>
        <time>2013-05-11T11:07:31Z</time>
      </trkpt>
      <trkpt lat="44.42065" lon="5.53204">
        <ele>1114.4000244141</ele>
        <time>2013-05-11T11:07:33Z</time>
      </trkpt>
      <trkpt lat="44.42068" lon="5.53215">
        <ele>1111.8000488281</ele>
        <time>2013-05-11T11:07:34Z</time>
      </trkpt>
      <trkpt lat="44.42069" lon="5.53226">
        <ele>1111.8000488281</ele>
        <time>2013-05-11T11:07:35Z</time>
      </trkpt>
      <trkpt lat="44.42069" lon="5.53237">
        <ele>1106.1999511719</ele>
        <time>2013-05-11T11:07:36Z</time>
      </trkpt>
      <trkpt lat="44.42069" lon="5.53257">
        <ele>1103.8000488281</ele>
        <time>2013-05-11T11:07:38Z</time>
      </trkpt>
      <trkpt lat="44.42067" lon="5.53266">
        <ele>1101.1999511719</ele>
        <time>2013-05-11T11:07:39Z</time>
      </trkpt>
      <trkpt lat="44.4206" lon="5.53286">
        <ele>1098.8000488281</ele>
        <time>2013-05-11T11:07:41Z</time>
      </trkpt>
      <trkpt lat="44.42056" lon="5.53296">
        <ele>1098.8000488281</ele>
        <time>2013-05-11T11:07:42Z</time>
      </trkpt>
      <trkpt lat="44.42053" lon="5.53308">
        <ele>1096.1999511719</ele>
        <time>2013-05-11T11:07:43Z</time>
      </trkpt>
      <trkpt lat="44.4205" lon="5.5332">
        <ele>1093.4000244141</ele>
        <time>2013-05-11T11:07:44Z</time>
      </trkpt>
      <trkpt lat="44.42044" lon="5.53345">
        <ele>1090.5999755859</ele>
        <time>2013-05-11T11:07:46Z</time>
      </trkpt>
      <trkpt lat="44.42041" lon="5.53356">
        <ele>1090.5999755859</ele>
        <time>2013-05-11T11:07:47Z</time>
      </trkpt>
      <trkpt lat="44.42039" lon="5.53368">
        <ele>1087.5999755859</ele>
        <time>2013-05-11T11:07:48Z</time>
      </trkpt>
      <trkpt lat="44.42036" lon="5.53379">
        <ele>1084.5999755859</ele>
        <time>2013-05-11T11:07:49Z</time>
      </trkpt>
      <trkpt lat="44.42032" lon="5.53401">
        <ele>1079</ele>
        <time>2013-05-11T11:07:51Z</time>
      </trkpt>
      <trkpt lat="44.42026" lon="5.53423">
        <ele>1076.5999755859</ele>
        <time>2013-05-11T11:07:53Z</time>
      </trkpt>
      <trkpt lat="44.42023" lon="5.53432">
        <ele>1074.1999511719</ele>
        <time>2013-05-11T11:07:54Z</time>
      </trkpt>
      <trkpt lat="44.42018" lon="5.53448">
        <ele>1069.8000488281</ele>
        <time>2013-05-11T11:07:56Z</time>
      </trkpt>
      <trkpt lat="44.42017" lon="5.53458">
        <ele>1069.8000488281</ele>
        <time>2013-05-11T11:07:57Z</time>
      </trkpt>
      <trkpt lat="44.42016" lon="5.53469">
        <ele>1067.5999755859</ele>
        <time>2013-05-11T11:07:58Z</time>
      </trkpt>
      <trkpt lat="44.42015" lon="5.53481">
        <ele>1065.5999755859</ele>
        <time>2013-05-11T11:07:59Z</time>
      </trkpt>
      <trkpt lat="44.42015" lon="5.53504">
        <ele>1063.1999511719</ele>
        <time>2013-05-11T11:08:01Z</time>
      </trkpt>
      <trkpt lat="44.42015" lon="5.53525">
        <ele>1060.8000488281</ele>
        <time>2013-05-11T11:08:03Z</time>
      </trkpt>
      <trkpt lat="44.42014" lon="5.53536">
        <ele>1058.1999511719</ele>
        <time>2013-05-11T11:08:04Z</time>
      </trkpt>
      <trkpt lat="44.42014" lon="5.53558">
        <ele>1053</ele>
        <time>2013-05-11T11:08:06Z</time>
      </trkpt>
      <trkpt lat="44.42012" lon="5.53569">
        <ele>1053</ele>
        <time>2013-05-11T11:08:07Z</time>
      </trkpt>
      <trkpt lat="44.4201" lon="5.53578">
        <ele>1050.5999755859</ele>
        <time>2013-05-11T11:08:08Z</time>
      </trkpt>
      <trkpt lat="44.42008" lon="5.53587">
        <ele>1048</ele>
        <time>2013-05-11T11:08:09Z</time>
      </trkpt>
      <trkpt lat="44.42003" lon="5.53604">
        <ele>1043</ele>
        <time>2013-05-11T11:08:11Z</time>
      </trkpt>
      <trkpt lat="44.41996" lon="5.53621">
        <ele>1040.5999755859</ele>
        <time>2013-05-11T11:08:13Z</time>
      </trkpt>
      <trkpt lat="44.41987" lon="5.53638">
        <ele>1036</ele>
        <time>2013-05-11T11:08:15Z</time>
      </trkpt>
      <trkpt lat="44.41983" lon="5.53645">
        <ele>1033.8000488281</ele>
        <time>2013-05-11T11:08:16Z</time>
      </trkpt>
      <trkpt lat="44.41977" lon="5.53658">
        <ele>1031.5999755859</ele>
        <time>2013-05-11T11:08:18Z</time>
      </trkpt>
      <trkpt lat="44.41972" lon="5.53665">
        <ele>1029.4000244141</ele>
        <time>2013-05-11T11:08:19Z</time>
      </trkpt>
      <trkpt lat="44.41961" lon="5.53679">
        <ele>1027.1999511719</ele>
        <time>2013-05-11T11:08:21Z</time>
      </trkpt>
      <trkpt lat="44.41948" lon="5.53694">
        <ele>1024.5999755859</ele>
        <time>2013-05-11T11:08:23Z</time>
      </trkpt>
      <trkpt lat="44.41943" lon="5.53702">
        <ele>1021.799987793</ele>
        <time>2013-05-11T11:08:24Z</time>
      </trkpt>
      <trkpt lat="44.41938" lon="5.53711">
        <ele>1021.799987793</ele>
        <time>2013-05-11T11:08:25Z</time>
      </trkpt>
      <trkpt lat="44.41933" lon="5.5372">
        <ele>1016.200012207</ele>
        <time>2013-05-11T11:08:26Z</time>
      </trkpt>
      <trkpt lat="44.41925" lon="5.53739">
        <ele>1013.799987793</ele>
        <time>2013-05-11T11:08:28Z</time>
      </trkpt>
      <trkpt lat="44.41921" lon="5.5375">
        <ele>1011.200012207</ele>
        <time>2013-05-11T11:08:29Z</time>
      </trkpt>
      <trkpt lat="44.41915" lon="5.53772">
        <ele>1006.4000244141</ele>
        <time>2013-05-11T11:08:31Z</time>
      </trkpt>
      <trkpt lat="44.41912" lon="5.53783">
        <ele>1006.4000244141</ele>
        <time>2013-05-11T11:08:32Z</time>
      </trkpt>
      <trkpt lat="44.41909" lon="5.53794">
        <ele>1004</ele>
        <time>2013-05-11T11:08:33Z</time>
      </trkpt>
      <trkpt lat="44.41905" lon="5.53806">
        <ele>1001.5999755859</ele>
        <time>2013-05-11T11:08:34Z</time>
      </trkpt>
      <trkpt lat="44.41897" lon="5.53824">
        <ele>996.79998779297</ele>
        <time>2013-05-11T11:08:36Z</time>
      </trkpt>
      <trkpt lat="44.41895" lon="5.53834">
        <ele>996.79998779297</ele>
        <time>2013-05-11T11:08:37Z</time>
      </trkpt>
      <trkpt lat="44.41893" lon="5.53843">
        <ele>994.79998779297</ele>
        <time>2013-05-11T11:08:38Z</time>
      </trkpt>
      <trkpt lat="44.41892" lon="5.53854">
        <ele>992.59997558594</ele>
        <time>2013-05-11T11:08:39Z</time>
      </trkpt>
      <trkpt lat="44.41887" lon="5.53879">
        <ele>988.79998779297</ele>
        <time>2013-05-11T11:08:41Z</time>
      </trkpt>
      <trkpt lat="44.41879" lon="5.53901">
        <ele>986.79998779297</ele>
        <time>2013-05-11T11:08:43Z</time>
      </trkpt>
      <trkpt lat="44.41874" lon="5.53912">
        <ele>984.79998779297</ele>
        <time>2013-05-11T11:08:44Z</time>
      </trkpt>
      <trkpt lat="44.41869" lon="5.53923">
        <ele>984.79998779297</ele>
        <time>2013-05-11T11:08:45Z</time>
      </trkpt>
      <trkpt lat="44.41863" lon="5.53934">
        <ele>982.59997558594</ele>
        <time>2013-05-11T11:08:46Z</time>
      </trkpt>
      <trkpt lat="44.41857" lon="5.53946">
        <ele>982.59997558594</ele>
        <time>2013-05-11T11:08:47Z</time>
      </trkpt>
      <trkpt lat="44.4185" lon="5.53957">
        <ele>980.59997558594</ele>
        <time>2013-05-11T11:08:48Z</time>
      </trkpt>
      <trkpt lat="44.41843" lon="5.53967">
        <ele>978.40002441406</ele>
        <time>2013-05-11T11:08:49Z</time>
      </trkpt>
      <trkpt lat="44.41836" lon="5.53976">
        <ele>976.20001220703</ele>
        <time>2013-05-11T11:08:50Z</time>
      </trkpt>
      <trkpt lat="44.41829" lon="5.53985">
        <ele>974</ele>
        <time>2013-05-11T11:08:51Z</time>
      </trkpt>
      <trkpt lat="44.41816" lon="5.53997">
        <ele>972</ele>
        <time>2013-05-11T11:08:53Z</time>
      </trkpt>
      <trkpt lat="44.41811" lon="5.54">
        <ele>972</ele>
        <time>2013-05-11T11:08:54Z</time>
      </trkpt>
      <trkpt lat="44.41805" lon="5.54002">
        <ele>970.20001220703</ele>
        <time>2013-05-11T11:08:55Z</time>
      </trkpt>
      <trkpt lat="44.418" lon="5.54005">
        <ele>968.40002441406</ele>
        <time>2013-05-11T11:08:56Z</time>
      </trkpt>
      <trkpt lat="44.41788" lon="5.54011">
        <ele>966.59997558594</ele>
        <time>2013-05-11T11:08:58Z</time>
      </trkpt>
      <trkpt lat="44.41779" lon="5.54021">
        <ele>964.79998779297</ele>
        <time>2013-05-11T11:09:00Z</time>
      </trkpt>
      <trkpt lat="44.41769" lon="5.54042">
        <ele>961.40002441406</ele>
        <time>2013-05-11T11:09:03Z</time>
      </trkpt>
      <trkpt lat="44.41763" lon="5.54053">
        <ele>960.40002441406</ele>
        <time>2013-05-11T11:09:05Z</time>
      </trkpt>
      <trkpt lat="44.41759" lon="5.54057">
        <ele>959.20001220703</ele>
        <time>2013-05-11T11:09:06Z</time>
      </trkpt>
      <trkpt lat="44.41751" lon="5.54066">
        <ele>959.20001220703</ele>
        <time>2013-05-11T11:09:08Z</time>
      </trkpt>
      <trkpt lat="44.41737" lon="5.54087">
        <ele>959.20001220703</ele>
        <time>2013-05-11T11:09:12Z</time>
      </trkpt>
      <trkpt lat="44.41732" lon="5.54094">
        <ele>959.20001220703</ele>
        <time>2013-05-11T11:09:13Z</time>
      </trkpt>
      <trkpt lat="44.4171" lon="5.54126">
        <ele>959.20001220703</ele>
        <time>2013-05-11T11:09:18Z</time>
      </trkpt>
      <trkpt lat="44.41707" lon="5.54135">
        <ele>959.20001220703</ele>
        <time>2013-05-11T11:09:19Z</time>
      </trkpt>
      <trkpt lat="44.41703" lon="5.54163">
        <ele>959.20001220703</ele>
        <time>2013-05-11T11:09:22Z</time>
      </trkpt>
      <trkpt lat="44.41711" lon="5.54188">
        <ele>958.79998779297</ele>
        <time>2013-05-11T11:09:25Z</time>
      </trkpt>
      <trkpt lat="44.41714" lon="5.54195">
        <ele>958.79998779297</ele>
        <time>2013-05-11T11:09:26Z</time>
      </trkpt>
      <trkpt lat="44.41718" lon="5.54202">
        <ele>958.20001220703</ele>
        <time>2013-05-11T11:09:27Z</time>
      </trkpt>
      <trkpt lat="44.41721" lon="5.54208">
        <ele>957.79998779297</ele>
        <time>2013-05-11T11:09:28Z</time>
      </trkpt>
      <trkpt lat="44.41727" lon="5.54221">
        <ele>956.79998779297</ele>
        <time>2013-05-11T11:09:30Z</time>
      </trkpt>
      <trkpt lat="44.41735" lon="5.54239">
        <ele>956.79998779297</ele>
        <time>2013-05-11T11:09:33Z</time>
      </trkpt>
      <trkpt lat="44.41753" lon="5.54273">
        <ele>956.79998779297</ele>
        <time>2013-05-11T11:09:40Z</time>
      </trkpt>
      <trkpt lat="44.41766" lon="5.54295">
        <ele>956.79998779297</ele>
        <time>2013-05-11T11:09:47Z</time>
      </trkpt>
      <trkpt lat="44.41771" lon="5.54302">
        <ele>958</ele>
        <time>2013-05-11T11:09:50Z</time>
      </trkpt>
      <trkpt lat="44.41776" lon="5.54312">
        <ele>959.59997558594</ele>
        <time>2013-05-11T11:09:55Z</time>
      </trkpt>
      <trkpt lat="44.41782" lon="5.54322">
        <ele>960.79998779297</ele>
        <time>2013-05-11T11:10:00Z</time>
      </trkpt>
      <trkpt lat="44.4179" lon="5.54347">
        <ele>961.59997558594</ele>
        <time>2013-05-11T11:10:11Z</time>
      </trkpt>
      <trkpt lat="44.41794" lon="5.54353">
        <ele>961.59997558594</ele>
        <time>2013-05-11T11:10:15Z</time>
      </trkpt>
      <trkpt lat="44.41801" lon="5.54355">
        <ele>963.20001220703</ele>
        <time>2013-05-11T11:10:22Z</time>
      </trkpt>
      <trkpt lat="44.41809" lon="5.5436">
        <ele>963.59997558594</ele>
        <time>2013-05-11T11:10:32Z</time>
      </trkpt>
      <trkpt lat="44.41813" lon="5.54367">
        <ele>964.20001220703</ele>
        <time>2013-05-11T11:10:36Z</time>
      </trkpt>
      <trkpt lat="44.41814" lon="5.54371">
        <ele>965</ele>
        <time>2013-05-11T11:10:39Z</time>
      </trkpt>
      <trkpt lat="44.41829" lon="5.54384">
        <ele>966.40002441406</ele>
        <time>2013-05-11T11:10:54Z</time>
      </trkpt>
      <trkpt lat="44.41831" lon="5.54385">
        <ele>967.20001220703</ele>
        <time>2013-05-11T11:10:57Z</time>
      </trkpt>
      <trkpt lat="44.41843" lon="5.54384">
        <ele>968.59997558594</ele>
        <time>2013-05-11T11:11:09Z</time>
      </trkpt>
      <trkpt lat="44.41851" lon="5.54383">
        <ele>970.20001220703</ele>
        <time>2013-05-11T11:11:15Z</time>
      </trkpt>
      <trkpt lat="44.41861" lon="5.54382">
        <ele>970.59997558594</ele>
        <time>2013-05-11T11:11:24Z</time>
      </trkpt>
      <trkpt lat="44.41877" lon="5.54383">
        <ele>972.59997558594</ele>
        <time>2013-05-11T11:11:39Z</time>
      </trkpt>
      <trkpt lat="44.4188" lon="5.54383">
        <ele>973</ele>
        <time>2013-05-11T11:11:42Z</time>
      </trkpt>
      <trkpt lat="44.41894" lon="5.54381">
        <ele>977</ele>
        <time>2013-05-11T11:12:14Z</time>
      </trkpt>
      <trkpt lat="44.41897" lon="5.54379">
        <ele>978.59997558594</ele>
        <time>2013-05-11T11:12:32Z</time>
      </trkpt>
      <trkpt lat="44.419" lon="5.54378">
        <ele>980</ele>
        <time>2013-05-11T11:12:39Z</time>
      </trkpt>
      <trkpt lat="44.41911" lon="5.54374">
        <ele>983.20001220703</ele>
        <time>2013-05-11T11:13:11Z</time>
      </trkpt>
      <trkpt lat="44.41919" lon="5.54369">
        <ele>987.79998779297</ele>
        <time>2013-05-11T11:13:41Z</time>
      </trkpt>
      <trkpt lat="44.41924" lon="5.54368">
        <ele>990</ele>
        <time>2013-05-11T11:13:58Z</time>
      </trkpt>
      <trkpt lat="44.4193" lon="5.54369">
        <ele>991.40002441406</ele>
        <time>2013-05-11T11:14:03Z</time>
      </trkpt>
      <trkpt lat="44.41942" lon="5.54373">
        <ele>991.40002441406</ele>
        <time>2013-05-11T11:14:10Z</time>
      </trkpt>
      <trkpt lat="44.41949" lon="5.54369">
        <ele>992.79998779297</ele>
        <time>2013-05-11T11:14:20Z</time>
      </trkpt>
      <trkpt lat="44.41951" lon="5.5437">
        <ele>993.40002441406</ele>
        <time>2013-05-11T11:14:22Z</time>
      </trkpt>
      <trkpt lat="44.41967" lon="5.54374">
        <ele>993.79998779297</ele>
        <time>2013-05-11T11:14:35Z</time>
      </trkpt>
      <trkpt lat="44.4197" lon="5.54375">
        <ele>995.79998779297</ele>
        <time>2013-05-11T11:14:39Z</time>
      </trkpt>
      <trkpt lat="44.4198" lon="5.5438">
        <ele>998.20001220703</ele>
        <time>2013-05-11T11:14:53Z</time>
      </trkpt>
      <trkpt lat="44.41984" lon="5.54382">
        <ele>999.20001220703</ele>
        <time>2013-05-11T11:15:00Z</time>
      </trkpt>
      <trkpt lat="44.41993" lon="5.54385">
        <ele>1001.200012207</ele>
        <time>2013-05-11T11:15:15Z</time>
      </trkpt>
      <trkpt lat="44.42001" lon="5.54388">
        <ele>1002.4000244141</ele>
        <time>2013-05-11T11:15:29Z</time>
      </trkpt>
      <trkpt lat="44.42006" lon="5.5439">
        <ele>1004.799987793</ele>
        <time>2013-05-11T11:15:37Z</time>
      </trkpt>
      <trkpt lat="44.4201" lon="5.54392">
        <ele>1005.5999755859</ele>
        <time>2013-05-11T11:15:47Z</time>
      </trkpt>
      <trkpt lat="44.42023" lon="5.54403">
        <ele>1009</ele>
        <time>2013-05-11T11:16:14Z</time>
      </trkpt>
      <trkpt lat="44.42037" lon="5.54411">
        <ele>1012.4000244141</ele>
        <time>2013-05-11T11:16:37Z</time>
      </trkpt>
      <trkpt lat="44.4204" lon="5.5441">
        <ele>1013.5999755859</ele>
        <time>2013-05-11T11:16:42Z</time>
      </trkpt>
      <trkpt lat="44.42045" lon="5.54408">
        <ele>1014</ele>
        <time>2013-05-11T11:16:51Z</time>
      </trkpt>
      <trkpt lat="44.42053" lon="5.54403">
        <ele>1015.799987793</ele>
        <time>2013-05-11T11:17:07Z</time>
      </trkpt>
      <trkpt lat="44.42062" lon="5.544">
        <ele>1018</ele>
        <time>2013-05-11T11:17:24Z</time>
      </trkpt>
      <trkpt lat="44.42066" lon="5.544">
        <ele>1020</ele>
        <time>2013-05-11T11:17:32Z</time>
      </trkpt>
      <trkpt lat="44.42071" lon="5.54401">
        <ele>1021</ele>
        <time>2013-05-11T11:17:41Z</time>
      </trkpt>
      <trkpt lat="44.42081" lon="5.54406">
        <ele>1022.799987793</ele>
        <time>2013-05-11T11:17:58Z</time>
      </trkpt>
      <trkpt lat="44.42088" lon="5.54416">
        <ele>1024.4000244141</ele>
        <time>2013-05-11T11:18:14Z</time>
      </trkpt>
      <trkpt lat="44.42089" lon="5.5442">
        <ele>1025.1999511719</ele>
        <time>2013-05-11T11:18:18Z</time>
      </trkpt>
      <trkpt lat="44.42091" lon="5.54422">
        <ele>1026</ele>
        <time>2013-05-11T11:18:20Z</time>
      </trkpt>
      <trkpt lat="44.42097" lon="5.54431">
        <ele>1026.4000244141</ele>
        <time>2013-05-11T11:18:34Z</time>
      </trkpt>
      <trkpt lat="44.42102" lon="5.54445">
        <ele>1029</ele>
        <time>2013-05-11T11:18:51Z</time>
      </trkpt>
      <trkpt lat="44.42106" lon="5.54451">
        <ele>1029.8000488281</ele>
        <time>2013-05-11T11:18:58Z</time>
      </trkpt>
      <trkpt lat="44.4211" lon="5.54457">
        <ele>1032</ele>
        <time>2013-05-11T11:19:06Z</time>
      </trkpt>
      <trkpt lat="44.42121" lon="5.54468">
        <ele>1032.8000488281</ele>
        <time>2013-05-11T11:19:23Z</time>
      </trkpt>
      <trkpt lat="44.42133" lon="5.54476">
        <ele>1032.8000488281</ele>
        <time>2013-05-11T11:19:37Z</time>
      </trkpt>
      <trkpt lat="44.42139" lon="5.5448">
        <ele>1034</ele>
        <time>2013-05-11T11:19:44Z</time>
      </trkpt>
      <trkpt lat="44.42141" lon="5.54481">
        <ele>1034.4000244141</ele>
        <time>2013-05-11T11:19:46Z</time>
      </trkpt>
      <trkpt lat="44.42154" lon="5.54489">
        <ele>1034.8000488281</ele>
        <time>2013-05-11T11:19:59Z</time>
      </trkpt>
      <trkpt lat="44.42159" lon="5.54493">
        <ele>1035.4000244141</ele>
        <time>2013-05-11T11:20:06Z</time>
      </trkpt>
      <trkpt lat="44.42162" lon="5.54497">
        <ele>1037</ele>
        <time>2013-05-11T11:20:11Z</time>
      </trkpt>
      <trkpt lat="44.42164" lon="5.545">
        <ele>1037.4000244141</ele>
        <time>2013-05-11T11:20:15Z</time>
      </trkpt>
      <trkpt lat="44.4217" lon="5.54508">
        <ele>1038.1999511719</ele>
        <time>2013-05-11T11:20:24Z</time>
      </trkpt>
      <trkpt lat="44.42173" lon="5.54511">
        <ele>1039.5999755859</ele>
        <time>2013-05-11T11:20:28Z</time>
      </trkpt>
      <trkpt lat="44.42187" lon="5.54525">
        <ele>1039.5999755859</ele>
        <time>2013-05-11T11:20:48Z</time>
      </trkpt>
      <trkpt lat="44.42191" lon="5.5453">
        <ele>1041.8000488281</ele>
        <time>2013-05-11T11:20:54Z</time>
      </trkpt>
      <trkpt lat="44.42197" lon="5.54535">
        <ele>1041.8000488281</ele>
        <time>2013-05-11T11:21:01Z</time>
      </trkpt>
      <trkpt lat="44.42203" lon="5.54541">
        <ele>1042.1999511719</ele>
        <time>2013-05-11T11:21:11Z</time>
      </trkpt>
      <trkpt lat="44.4221" lon="5.54548">
        <ele>1044</ele>
        <time>2013-05-11T11:21:22Z</time>
      </trkpt>
      <trkpt lat="44.42218" lon="5.54551">
        <ele>1044.4000244141</ele>
        <time>2013-05-11T11:21:31Z</time>
      </trkpt>
      <trkpt lat="44.42221" lon="5.54552">
        <ele>1045.1999511719</ele>
        <time>2013-05-11T11:21:34Z</time>
      </trkpt>
      <trkpt lat="44.42232" lon="5.54557">
        <ele>1046.8000488281</ele>
        <time>2013-05-11T11:21:48Z</time>
      </trkpt>
      <trkpt lat="44.42239" lon="5.54562">
        <ele>1048.4000244141</ele>
        <time>2013-05-11T11:21:58Z</time>
      </trkpt>
      <trkpt lat="44.42241" lon="5.54563">
        <ele>1049.1999511719</ele>
        <time>2013-05-11T11:22:00Z</time>
      </trkpt>
      <trkpt lat="44.4225" lon="5.54569">
        <ele>1050</ele>
        <time>2013-05-11T11:22:14Z</time>
      </trkpt>
      <trkpt lat="44.42252" lon="5.5457">
        <ele>1050.8000488281</ele>
        <time>2013-05-11T11:22:17Z</time>
      </trkpt>
      <trkpt lat="44.4226" lon="5.54576">
        <ele>1053.8000488281</ele>
        <time>2013-05-11T11:22:31Z</time>
      </trkpt>
      <trkpt lat="44.42266" lon="5.54581">
        <ele>1056</ele>
        <time>2013-05-11T11:22:40Z</time>
      </trkpt>
      <trkpt lat="44.42273" lon="5.5459">
        <ele>1056.8000488281</ele>
        <time>2013-05-11T11:22:53Z</time>
      </trkpt>
      <trkpt lat="44.42273" lon="5.54591">
        <ele>1057.1999511719</ele>
        <time>2013-05-11T11:22:55Z</time>
      </trkpt>
      <trkpt lat="44.4228" lon="5.54601">
        <ele>1059.1999511719</ele>
        <time>2013-05-11T11:23:09Z</time>
      </trkpt>
      <trkpt lat="44.42291" lon="5.54608">
        <ele>1061</ele>
        <time>2013-05-11T11:23:26Z</time>
      </trkpt>
      <trkpt lat="44.42295" lon="5.5461">
        <ele>1061.8000488281</ele>
        <time>2013-05-11T11:23:31Z</time>
      </trkpt>
      <trkpt lat="44.42302" lon="5.54613">
        <ele>1063</ele>
        <time>2013-05-11T11:23:42Z</time>
      </trkpt>
      <trkpt lat="44.42312" lon="5.54614">
        <ele>1065.1999511719</ele>
        <time>2013-05-11T11:23:56Z</time>
      </trkpt>
      <trkpt lat="44.42321" lon="5.54616">
        <ele>1067.1999511719</ele>
        <time>2013-05-11T11:24:09Z</time>
      </trkpt>
      <trkpt lat="44.4233" lon="5.54619">
        <ele>1069.1999511719</ele>
        <time>2013-05-11T11:24:23Z</time>
      </trkpt>
      <trkpt lat="44.42336" lon="5.5462">
        <ele>1071</ele>
        <time>2013-05-11T11:24:33Z</time>
      </trkpt>
      <trkpt lat="44.4234" lon="5.54621">
        <ele>1071.4000244141</ele>
        <time>2013-05-11T11:24:41Z</time>
      </trkpt>
      <trkpt lat="44.4235" lon="5.54625">
        <ele>1073.5999755859</ele>
        <time>2013-05-11T11:24:57Z</time>
      </trkpt>
      <trkpt lat="44.4236" lon="5.5463">
        <ele>1075.8000488281</ele>
        <time>2013-05-11T11:25:15Z</time>
      </trkpt>
      <trkpt lat="44.42371" lon="5.54637">
        <ele>1078.4000244141</ele>
        <time>2013-05-11T11:25:34Z</time>
      </trkpt>
      <trkpt lat="44.42375" lon="5.5464">
        <ele>1080</ele>
        <time>2013-05-11T11:25:41Z</time>
      </trkpt>
      <trkpt lat="44.42381" lon="5.54651">
        <ele>1080.4000244141</ele>
        <time>2013-05-11T11:25:56Z</time>
      </trkpt>
      <trkpt lat="44.42386" lon="5.54661">
        <ele>1082.5999755859</ele>
        <time>2013-05-11T11:26:08Z</time>
      </trkpt>
      <trkpt lat="44.4239" lon="5.54669">
        <ele>1084.1999511719</ele>
        <time>2013-05-11T11:26:17Z</time>
      </trkpt>
      <trkpt lat="44.42391" lon="5.54671">
        <ele>1084.1999511719</ele>
        <time>2013-05-11T11:26:19Z</time>
      </trkpt>
      <trkpt lat="44.42398" lon="5.54684">
        <ele>1086.5999755859</ele>
        <time>2013-05-11T11:27:18Z</time>
      </trkpt>
      <trkpt lat="44.42404" lon="5.54698">
        <ele>1086.5999755859</ele>
        <time>2013-05-11T11:27:27Z</time>
      </trkpt>
      <trkpt lat="44.42405" lon="5.547">
        <ele>1087</ele>
        <time>2013-05-11T11:27:29Z</time>
      </trkpt>
      <trkpt lat="44.4241" lon="5.54715">
        <ele>1088.8000488281</ele>
        <time>2013-05-11T11:27:41Z</time>
      </trkpt>
      <trkpt lat="44.42414" lon="5.54728">
        <ele>1089.1999511719</ele>
        <time>2013-05-11T11:27:49Z</time>
      </trkpt>
      <trkpt lat="44.42415" lon="5.54731">
        <ele>1089.5999755859</ele>
        <time>2013-05-11T11:27:51Z</time>
      </trkpt>
      <trkpt lat="44.42421" lon="5.54738">
        <ele>1090.8000488281</ele>
        <time>2013-05-11T11:27:57Z</time>
      </trkpt>
      <trkpt lat="44.42431" lon="5.54737">
        <ele>1090.8000488281</ele>
        <time>2013-05-11T11:28:04Z</time>
      </trkpt>
      <trkpt lat="44.42438" lon="5.5474">
        <ele>1092.1999511719</ele>
        <time>2013-05-11T11:28:10Z</time>
      </trkpt>
      <trkpt lat="44.42439" lon="5.54757">
        <ele>1093</ele>
        <time>2013-05-11T11:28:19Z</time>
      </trkpt>
      <trkpt lat="44.4244" lon="5.54766">
        <ele>1093.4000244141</ele>
        <time>2013-05-11T11:28:27Z</time>
      </trkpt>
      <trkpt lat="44.42439" lon="5.54769">
        <ele>1095.1999511719</ele>
        <time>2013-05-11T11:28:32Z</time>
      </trkpt>
      <trkpt lat="44.42439" lon="5.54773">
        <ele>1095.1999511719</ele>
        <time>2013-05-11T11:28:36Z</time>
      </trkpt>
      <trkpt lat="44.42439" lon="5.54785">
        <ele>1095.5999755859</ele>
        <time>2013-05-11T11:28:44Z</time>
      </trkpt>
      <trkpt lat="44.42438" lon="5.5479">
        <ele>1096.8000488281</ele>
        <time>2013-05-11T11:28:49Z</time>
      </trkpt>
      <trkpt lat="44.42437" lon="5.54802">
        <ele>1097.8000488281</ele>
        <time>2013-05-11T11:28:59Z</time>
      </trkpt>
      <trkpt lat="44.42435" lon="5.5481">
        <ele>1099.5999755859</ele>
        <time>2013-05-11T11:29:05Z</time>
      </trkpt>
      <trkpt lat="44.42432" lon="5.54827">
        <ele>1099.5999755859</ele>
        <time>2013-05-11T11:29:19Z</time>
      </trkpt>
      <trkpt lat="44.42432" lon="5.54831">
        <ele>1100.1999511719</ele>
        <time>2013-05-11T11:29:23Z</time>
      </trkpt>
      <trkpt lat="44.42432" lon="5.54843">
        <ele>1102</ele>
        <time>2013-05-11T11:29:34Z</time>
      </trkpt>
      <trkpt lat="44.42432" lon="5.54853">
        <ele>1102.4000244141</ele>
        <time>2013-05-11T11:29:41Z</time>
      </trkpt>
      <trkpt lat="44.42431" lon="5.54861">
        <ele>1103.5999755859</ele>
        <time>2013-05-11T11:29:46Z</time>
      </trkpt>
      <trkpt lat="44.4243" lon="5.54872">
        <ele>1104</ele>
        <time>2013-05-11T11:29:55Z</time>
      </trkpt>
      <trkpt lat="44.42429" lon="5.54881">
        <ele>1105.5999755859</ele>
        <time>2013-05-11T11:30:03Z</time>
      </trkpt>
      <trkpt lat="44.42429" lon="5.54891">
        <ele>1106.5999755859</ele>
        <time>2013-05-11T11:30:13Z</time>
      </trkpt>
      <trkpt lat="44.4243" lon="5.54897">
        <ele>1108.4000244141</ele>
        <time>2013-05-11T11:30:18Z</time>
      </trkpt>
      <trkpt lat="44.42431" lon="5.54905">
        <ele>1108.4000244141</ele>
        <time>2013-05-11T11:30:26Z</time>
      </trkpt>
      <trkpt lat="44.42432" lon="5.5491">
        <ele>1111</ele>
        <time>2013-05-11T11:30:34Z</time>
      </trkpt>
      <trkpt lat="44.42436" lon="5.54923">
        <ele>1111.4000244141</ele>
        <time>2013-05-11T11:30:50Z</time>
      </trkpt>
      <trkpt lat="44.42439" lon="5.54935">
        <ele>1113</ele>
        <time>2013-05-11T11:31:03Z</time>
      </trkpt>
      <trkpt lat="44.42439" lon="5.5494">
        <ele>1114.8000488281</ele>
        <time>2013-05-11T11:31:08Z</time>
      </trkpt>
      <trkpt lat="44.42441" lon="5.5495">
        <ele>1115.1999511719</ele>
        <time>2013-05-11T11:31:16Z</time>
      </trkpt>
      <trkpt lat="44.42442" lon="5.54952">
        <ele>1115.5999755859</ele>
        <time>2013-05-11T11:31:18Z</time>
      </trkpt>
      <trkpt lat="44.42444" lon="5.54965">
        <ele>1117.1999511719</ele>
        <time>2013-05-11T11:31:30Z</time>
      </trkpt>
      <trkpt lat="44.42448" lon="5.54979">
        <ele>1117.1999511719</ele>
        <time>2013-05-11T11:31:41Z</time>
      </trkpt>
      <trkpt lat="44.42452" lon="5.5499">
        <ele>1117.1999511719</ele>
        <time>2013-05-11T11:31:52Z</time>
      </trkpt>
      <trkpt lat="44.42459" lon="5.55001">
        <ele>1120</ele>
        <time>2013-05-11T11:32:10Z</time>
      </trkpt>
      <trkpt lat="44.42461" lon="5.55003">
        <ele>1120.8000488281</ele>
        <time>2013-05-11T11:32:14Z</time>
      </trkpt>
      <trkpt lat="44.42465" lon="5.55011">
        <ele>1122.1999511719</ele>
        <time>2013-05-11T11:32:25Z</time>
      </trkpt>
      <trkpt lat="44.42469" lon="5.55022">
        <ele>1125.1999511719</ele>
        <time>2013-05-11T11:32:42Z</time>
      </trkpt>
      <trkpt lat="44.4247" lon="5.55023">
        <ele>1125.1999511719</ele>
        <time>2013-05-11T11:32:44Z</time>
      </trkpt>
      <trkpt lat="44.42474" lon="5.55031">
        <ele>1126</ele>
        <time>2013-05-11T11:32:56Z</time>
      </trkpt>
      <trkpt lat="44.42481" lon="5.5505">
        <ele>1128.1999511719</ele>
        <time>2013-05-11T11:33:22Z</time>
      </trkpt>
      <trkpt lat="44.42484" lon="5.55061">
        <ele>1130.4000244141</ele>
        <time>2013-05-11T11:33:34Z</time>
      </trkpt>
      <trkpt lat="44.42488" lon="5.5507">
        <ele>1130.8000488281</ele>
        <time>2013-05-11T11:33:44Z</time>
      </trkpt>
      <trkpt lat="44.4249" lon="5.55074">
        <ele>1132</ele>
        <time>2013-05-11T11:33:51Z</time>
      </trkpt>
      <trkpt lat="44.42496" lon="5.5508">
        <ele>1134</ele>
        <time>2013-05-11T11:34:02Z</time>
      </trkpt>
      <trkpt lat="44.42501" lon="5.55088">
        <ele>1136</ele>
        <time>2013-05-11T11:34:16Z</time>
      </trkpt>
      <trkpt lat="44.42503" lon="5.55091">
        <ele>1137</ele>
        <time>2013-05-11T11:34:23Z</time>
      </trkpt>
      <trkpt lat="44.42511" lon="5.55098">
        <ele>1138.8000488281</ele>
        <time>2013-05-11T11:34:40Z</time>
      </trkpt>
      <trkpt lat="44.42513" lon="5.55102">
        <ele>1139.5999755859</ele>
        <time>2013-05-11T11:34:47Z</time>
      </trkpt>
      <trkpt lat="44.42519" lon="5.55111">
        <ele>1143.1999511719</ele>
        <time>2013-05-11T11:35:04Z</time>
      </trkpt>
      <trkpt lat="44.42522" lon="5.55115">
        <ele>1144.1999511719</ele>
        <time>2013-05-11T11:35:09Z</time>
      </trkpt>
      <trkpt lat="44.42525" lon="5.55123">
        <ele>1145.5999755859</ele>
        <time>2013-05-11T11:35:16Z</time>
      </trkpt>
      <trkpt lat="44.42529" lon="5.5513">
        <ele>1146.4000244141</ele>
        <time>2013-05-11T11:35:24Z</time>
      </trkpt>
      <trkpt lat="44.4253" lon="5.55133">
        <ele>1146.8000488281</ele>
        <time>2013-05-11T11:35:27Z</time>
      </trkpt>
      <trkpt lat="44.42532" lon="5.55141">
        <ele>1148</ele>
        <time>2013-05-11T11:35:33Z</time>
      </trkpt>
      <trkpt lat="44.42537" lon="5.55152">
        <ele>1148.4000244141</ele>
        <time>2013-05-11T11:35:44Z</time>
      </trkpt>
      <trkpt lat="44.42541" lon="5.55157">
        <ele>1150</ele>
        <time>2013-05-11T11:35:51Z</time>
      </trkpt>
      <trkpt lat="44.42543" lon="5.5516">
        <ele>1150.4000244141</ele>
        <time>2013-05-11T11:35:54Z</time>
      </trkpt>
      <trkpt lat="44.4255" lon="5.55174">
        <ele>1153.1999511719</ele>
        <time>2013-05-11T11:36:11Z</time>
      </trkpt>
      <trkpt lat="44.42555" lon="5.55184">
        <ele>1153.1999511719</ele>
        <time>2013-05-11T11:36:25Z</time>
      </trkpt>
      <trkpt lat="44.4256" lon="5.55193">
        <ele>1153.1999511719</ele>
        <time>2013-05-11T11:36:40Z</time>
      </trkpt>
      <trkpt lat="44.42562" lon="5.55195">
        <ele>1154</ele>
        <time>2013-05-11T11:36:44Z</time>
      </trkpt>
      <trkpt lat="44.4257" lon="5.55202">
        <ele>1158.4000244141</ele>
        <time>2013-05-11T11:37:05Z</time>
      </trkpt>
      <trkpt lat="44.42571" lon="5.55202">
        <ele>1158.8000488281</ele>
        <time>2013-05-11T11:37:08Z</time>
      </trkpt>
      <trkpt lat="44.42581" lon="5.55211">
        <ele>1161.4000244141</ele>
        <time>2013-05-11T11:37:37Z</time>
      </trkpt>
      <trkpt lat="44.42589" lon="5.55221">
        <ele>1163</ele>
        <time>2013-05-11T11:37:51Z</time>
      </trkpt>
      <trkpt lat="44.42591" lon="5.55222">
        <ele>1163.4000244141</ele>
        <time>2013-05-11T11:37:54Z</time>
      </trkpt>
      <trkpt lat="44.42597" lon="5.55218">
        <ele>1165.5999755859</ele>
        <time>2013-05-11T11:39:21Z</time>
      </trkpt>
      <trkpt lat="44.42601" lon="5.55212">
        <ele>1165.5999755859</ele>
        <time>2013-05-11T11:39:37Z</time>
      </trkpt>
      <trkpt lat="44.42606" lon="5.55208">
        <ele>1165.5999755859</ele>
        <time>2013-05-11T11:39:44Z</time>
      </trkpt>
      <trkpt lat="44.42611" lon="5.55196">
        <ele>1167.5999755859</ele>
        <time>2013-05-11T11:39:53Z</time>
      </trkpt>
      <trkpt lat="44.42625" lon="5.55173">
        <ele>1167.5999755859</ele>
        <time>2013-05-11T11:40:05Z</time>
      </trkpt>
      <trkpt lat="44.42632" lon="5.55159">
        <ele>1167.5999755859</ele>
        <time>2013-05-11T11:40:11Z</time>
      </trkpt>
      <trkpt lat="44.4264" lon="5.55143">
        <ele>1167.5999755859</ele>
        <time>2013-05-11T11:40:20Z</time>
      </trkpt>
      <trkpt lat="44.42649" lon="5.55127">
        <ele>1167.5999755859</ele>
        <time>2013-05-11T11:40:26Z</time>
      </trkpt>
      <trkpt lat="44.42665" lon="5.55109">
        <ele>1167.5999755859</ele>
        <time>2013-05-11T11:40:33Z</time>
      </trkpt>
      <trkpt lat="44.42679" lon="5.55096">
        <ele>1167.5999755859</ele>
        <time>2013-05-11T11:40:39Z</time>
      </trkpt>
      <trkpt lat="44.4269" lon="5.55083">
        <ele>1167.5999755859</ele>
        <time>2013-05-11T11:40:46Z</time>
      </trkpt>
      <trkpt lat="44.42694" lon="5.55077">
        <ele>1168.4000244141</ele>
        <time>2013-05-11T11:40:49Z</time>
      </trkpt>
      <trkpt lat="44.42699" lon="5.5507">
        <ele>1168.8000488281</ele>
        <time>2013-05-11T11:40:53Z</time>
      </trkpt>
      <trkpt lat="44.42703" lon="5.55064">
        <ele>1169.8000488281</ele>
        <time>2013-05-11T11:40:56Z</time>
      </trkpt>
      <trkpt lat="44.42706" lon="5.55055">
        <ele>1169.8000488281</ele>
        <time>2013-05-11T11:40:59Z</time>
      </trkpt>
      <trkpt lat="44.42707" lon="5.55042">
        <ele>1170.1999511719</ele>
        <time>2013-05-11T11:41:06Z</time>
      </trkpt>
      <trkpt lat="44.42709" lon="5.55038">
        <ele>1171.8000488281</ele>
        <time>2013-05-11T11:41:13Z</time>
      </trkpt>
      <trkpt lat="44.42712" lon="5.55035">
        <ele>1171.8000488281</ele>
        <time>2013-05-11T11:41:16Z</time>
      </trkpt>
      <trkpt lat="44.42717" lon="5.55028">
        <ele>1172.1999511719</ele>
        <time>2013-05-11T11:41:23Z</time>
      </trkpt>
      <trkpt lat="44.42723" lon="5.55017">
        <ele>1174.1999511719</ele>
        <time>2013-05-11T11:41:44Z</time>
      </trkpt>
      <trkpt lat="44.42726" lon="5.55009">
        <ele>1178.1999511719</ele>
        <time>2013-05-11T11:41:55Z</time>
      </trkpt>
      <trkpt lat="44.4273" lon="5.55002">
        <ele>1182.1999511719</ele>
        <time>2013-05-11T11:42:02Z</time>
      </trkpt>
      <trkpt lat="44.42733" lon="5.54995">
        <ele>1182.1999511719</ele>
        <time>2013-05-11T11:42:10Z</time>
      </trkpt>
      <trkpt lat="44.42736" lon="5.54987">
        <ele>1182.5999755859</ele>
        <time>2013-05-11T11:42:23Z</time>
      </trkpt>
      <trkpt lat="44.42737" lon="5.5498">
        <ele>1184.5999755859</ele>
        <time>2013-05-11T11:42:33Z</time>
      </trkpt>
      <trkpt lat="44.42741" lon="5.54968">
        <ele>1184.5999755859</ele>
        <time>2013-05-11T11:42:47Z</time>
      </trkpt>
      <trkpt lat="44.42751" lon="5.54967">
        <ele>1186.5999755859</ele>
        <time>2013-05-11T11:42:59Z</time>
      </trkpt>
      <trkpt lat="44.4276" lon="5.54968">
        <ele>1187.4000244141</ele>
        <time>2013-05-11T11:43:16Z</time>
      </trkpt>
      <trkpt lat="44.42765" lon="5.5497">
        <ele>1188.5999755859</ele>
        <time>2013-05-11T11:43:57Z</time>
      </trkpt>
      <trkpt lat="44.4277" lon="5.54971">
        <ele>1190.8000488281</ele>
        <time>2013-05-11T11:44:07Z</time>
      </trkpt>
      <trkpt lat="44.42781" lon="5.54973">
        <ele>1194.4000244141</ele>
        <time>2013-05-11T11:44:30Z</time>
      </trkpt>
      <trkpt lat="44.42791" lon="5.5498">
        <ele>1198</ele>
        <time>2013-05-11T11:44:55Z</time>
      </trkpt>
      <trkpt lat="44.42791" lon="5.5498">
        <ele>1198.4000244141</ele>
        <time>2013-05-11T11:44:56Z</time>
      </trkpt>
      <trkpt lat="44.428" lon="5.54982">
        <ele>1202.1999511719</ele>
        <time>2013-05-11T11:45:17Z</time>
      </trkpt>
      <trkpt lat="44.4281" lon="5.54986">
        <ele>1206.1999511719</ele>
        <time>2013-05-11T11:45:44Z</time>
      </trkpt>
      <trkpt lat="44.42817" lon="5.5499">
        <ele>1209</ele>
        <time>2013-05-11T11:46:01Z</time>
      </trkpt>
      <trkpt lat="44.42821" lon="5.5499">
        <ele>1210.1999511719</ele>
        <time>2013-05-11T11:46:08Z</time>
      </trkpt>
      <trkpt lat="44.42831" lon="5.54995">
        <ele>1213.8000488281</ele>
        <time>2013-05-11T11:46:29Z</time>
      </trkpt>
      <trkpt lat="44.42836" lon="5.55002">
        <ele>1214.5999755859</ele>
        <time>2013-05-11T11:46:48Z</time>
      </trkpt>
      <trkpt lat="44.42841" lon="5.55008">
        <ele>1216.4000244141</ele>
        <time>2013-05-11T11:47:00Z</time>
      </trkpt>
      <trkpt lat="44.42842" lon="5.55011">
        <ele>1216.8000488281</ele>
        <time>2013-05-11T11:47:05Z</time>
      </trkpt>
      <trkpt lat="44.42852" lon="5.5502">
        <ele>1221</ele>
        <time>2013-05-11T11:47:31Z</time>
      </trkpt>
      <trkpt lat="44.42852" lon="5.5502">
        <ele>1221.4000244141</ele>
        <time>2013-05-11T11:47:32Z</time>
      </trkpt>
      <trkpt lat="44.42854" lon="5.5502">
        <ele>1222.4000244141</ele>
        <time>2013-05-11T11:47:36Z</time>
      </trkpt>
      <trkpt lat="44.42854" lon="5.5502">
        <ele>1222.4000244141</ele>
        <time>2013-05-11T11:47:38Z</time>
      </trkpt>
      <trkpt lat="44.4286" lon="5.55024">
        <ele>1226.5999755859</ele>
        <time>2013-05-11T11:47:57Z</time>
      </trkpt>
      <trkpt lat="44.42867" lon="5.5503">
        <ele>1230.4000244141</ele>
        <time>2013-05-11T11:48:23Z</time>
      </trkpt>
      <trkpt lat="44.4287" lon="5.55038">
        <ele>1233</ele>
        <time>2013-05-11T11:48:39Z</time>
      </trkpt>
      <trkpt lat="44.42872" lon="5.55041">
        <ele>1234</ele>
        <time>2013-05-11T11:48:46Z</time>
      </trkpt>
      <trkpt lat="44.42878" lon="5.5505">
        <ele>1238</ele>
        <time>2013-05-11T11:49:14Z</time>
      </trkpt>
      <trkpt lat="44.4288" lon="5.55056">
        <ele>1238.8000488281</ele>
        <time>2013-05-11T11:49:23Z</time>
      </trkpt>
      <trkpt lat="44.42883" lon="5.55061">
        <ele>1240.4000244141</ele>
        <time>2013-05-11T11:49:35Z</time>
      </trkpt>
      <trkpt lat="44.42887" lon="5.55058">
        <ele>1241.8000488281</ele>
        <time>2013-05-11T11:49:47Z</time>
      </trkpt>
      <trkpt lat="44.42887" lon="5.55047">
        <ele>1242.5999755859</ele>
        <time>2013-05-11T11:50:03Z</time>
      </trkpt>
      <trkpt lat="44.42888" lon="5.5504">
        <ele>1244</ele>
        <time>2013-05-11T11:50:13Z</time>
      </trkpt>
      <trkpt lat="44.42891" lon="5.5503">
        <ele>1244.5999755859</ele>
        <time>2013-05-11T11:50:24Z</time>
      </trkpt>
      <trkpt lat="44.429" lon="5.55025">
        <ele>1245</ele>
        <time>2013-05-11T11:50:38Z</time>
      </trkpt>
      <trkpt lat="44.42902" lon="5.55016">
        <ele>1248.8000488281</ele>
        <time>2013-05-11T11:58:36Z</time>
      </trkpt>
      <trkpt lat="44.42908" lon="5.55007">
        <ele>1248.8000488281</ele>
        <time>2013-05-11T11:58:40Z</time>
      </trkpt>
      <trkpt lat="44.4291" lon="5.55006">
        <ele>1248.1999511719</ele>
        <time>2013-05-11T11:58:41Z</time>
      </trkpt>
      <trkpt lat="44.42921" lon="5.55002">
        <ele>1248.1999511719</ele>
        <time>2013-05-11T11:58:44Z</time>
      </trkpt>
      <trkpt lat="44.42925" lon="5.54999">
        <ele>1246.8000488281</ele>
        <time>2013-05-11T11:58:45Z</time>
      </trkpt>
      <trkpt lat="44.42938" lon="5.54986">
        <ele>1245.5999755859</ele>
        <time>2013-05-11T11:58:48Z</time>
      </trkpt>
      <trkpt lat="44.42942" lon="5.54983">
        <ele>1245.5999755859</ele>
        <time>2013-05-11T11:58:49Z</time>
      </trkpt>
      <trkpt lat="44.4295" lon="5.54976">
        <ele>1242.1999511719</ele>
        <time>2013-05-11T11:58:52Z</time>
      </trkpt>
      <trkpt lat="44.42957" lon="5.54966">
        <ele>1242.1999511719</ele>
        <time>2013-05-11T11:58:54Z</time>
      </trkpt>
      <trkpt lat="44.42961" lon="5.5496">
        <ele>1240.4000244141</ele>
        <time>2013-05-11T11:58:55Z</time>
      </trkpt>
      <trkpt lat="44.42971" lon="5.5494">
        <ele>1240.4000244141</ele>
        <time>2013-05-11T11:58:58Z</time>
      </trkpt>
      <trkpt lat="44.42974" lon="5.54934">
        <ele>1236.1999511719</ele>
        <time>2013-05-11T11:58:59Z</time>
      </trkpt>
      <trkpt lat="44.42986" lon="5.54909">
        <ele>1234</ele>
        <time>2013-05-11T11:59:02Z</time>
      </trkpt>
      <trkpt lat="44.42995" lon="5.54892">
        <ele>1234</ele>
        <time>2013-05-11T11:59:04Z</time>
      </trkpt>
      <trkpt lat="44.42999" lon="5.54883">
        <ele>1231.8000488281</ele>
        <time>2013-05-11T11:59:05Z</time>
      </trkpt>
      <trkpt lat="44.43019" lon="5.54838">
        <ele>1227</ele>
        <time>2013-05-11T11:59:09Z</time>
      </trkpt>
      <trkpt lat="44.43032" lon="5.54812">
        <ele>1224.4000244141</ele>
        <time>2013-05-11T11:59:12Z</time>
      </trkpt>
      <trkpt lat="44.43034" lon="5.54808">
        <ele>1224.4000244141</ele>
        <time>2013-05-11T11:59:13Z</time>
      </trkpt>
      <trkpt lat="44.43039" lon="5.54811">
        <ele>1224.4000244141</ele>
        <time>2013-05-11T11:59:15Z</time>
      </trkpt>
      <trkpt lat="44.4304" lon="5.5482">
        <ele>1217.4000244141</ele>
        <time>2013-05-11T11:59:19Z</time>
      </trkpt>
      <trkpt lat="44.43037" lon="5.54831">
        <ele>1217.4000244141</ele>
        <time>2013-05-11T11:59:22Z</time>
      </trkpt>
      <trkpt lat="44.43034" lon="5.5485">
        <ele>1213.1999511719</ele>
        <time>2013-05-11T11:59:25Z</time>
      </trkpt>
      <trkpt lat="44.43033" lon="5.54857">
        <ele>1212.1999511719</ele>
        <time>2013-05-11T11:59:26Z</time>
      </trkpt>
      <trkpt lat="44.43032" lon="5.54865">
        <ele>1211.1999511719</ele>
        <time>2013-05-11T11:59:27Z</time>
      </trkpt>
      <trkpt lat="44.43027" lon="5.54896">
        <ele>1209.1999511719</ele>
        <time>2013-05-11T11:59:30Z</time>
      </trkpt>
      <trkpt lat="44.43025" lon="5.54908">
        <ele>1209.1999511719</ele>
        <time>2013-05-11T11:59:31Z</time>
      </trkpt>
      <trkpt lat="44.4302" lon="5.54946">
        <ele>1207.1999511719</ele>
        <time>2013-05-11T11:59:34Z</time>
      </trkpt>
      <trkpt lat="44.43017" lon="5.54986">
        <ele>1206.1999511719</ele>
        <time>2013-05-11T11:59:37Z</time>
      </trkpt>
      <trkpt lat="44.43017" lon="5.54996">
        <ele>1205</ele>
        <time>2013-05-11T11:59:38Z</time>
      </trkpt>
      <trkpt lat="44.43018" lon="5.55006">
        <ele>1205</ele>
        <time>2013-05-11T11:59:39Z</time>
      </trkpt>
      <trkpt lat="44.4302" lon="5.55011">
        <ele>1205</ele>
        <time>2013-05-11T11:59:40Z</time>
      </trkpt>
      <trkpt lat="44.43025" lon="5.55007">
        <ele>1202.5999755859</ele>
        <time>2013-05-11T11:59:42Z</time>
      </trkpt>
      <trkpt lat="44.43027" lon="5.54998">
        <ele>1201.4000244141</ele>
        <time>2013-05-11T11:59:44Z</time>
      </trkpt>
      <trkpt lat="44.43028" lon="5.54986">
        <ele>1200.1999511719</ele>
        <time>2013-05-11T11:59:46Z</time>
      </trkpt>
      <trkpt lat="44.43032" lon="5.54967">
        <ele>1198</ele>
        <time>2013-05-11T11:59:49Z</time>
      </trkpt>
      <trkpt lat="44.43037" lon="5.54958">
        <ele>1198</ele>
        <time>2013-05-11T11:59:50Z</time>
      </trkpt>
      <trkpt lat="44.43051" lon="5.54931">
        <ele>1197.1999511719</ele>
        <time>2013-05-11T11:59:53Z</time>
      </trkpt>
      <trkpt lat="44.4306" lon="5.54912">
        <ele>1197.1999511719</ele>
        <time>2013-05-11T11:59:55Z</time>
      </trkpt>
      <trkpt lat="44.43069" lon="5.54889">
        <ele>1196.1999511719</ele>
        <time>2013-05-11T11:59:57Z</time>
      </trkpt>
      <trkpt lat="44.4308" lon="5.54854">
        <ele>1193.4000244141</ele>
        <time>2013-05-11T12:00:00Z</time>
      </trkpt>
      <trkpt lat="44.43094" lon="5.54821">
        <ele>1193.4000244141</ele>
        <time>2013-05-11T12:00:03Z</time>
      </trkpt>
      <trkpt lat="44.43102" lon="5.54816">
        <ele>1193.4000244141</ele>
        <time>2013-05-11T12:00:04Z</time>
      </trkpt>
      <trkpt lat="44.4312" lon="5.54792">
        <ele>1191.8000488281</ele>
        <time>2013-05-11T12:00:07Z</time>
      </trkpt>
      <trkpt lat="44.43126" lon="5.54775">
        <ele>1191.8000488281</ele>
        <time>2013-05-11T12:00:09Z</time>
      </trkpt>
      <trkpt lat="44.43129" lon="5.54755">
        <ele>1190.1999511719</ele>
        <time>2013-05-11T12:00:11Z</time>
      </trkpt>
      <trkpt lat="44.43139" lon="5.54728">
        <ele>1187</ele>
        <time>2013-05-11T12:00:14Z</time>
      </trkpt>
      <trkpt lat="44.43142" lon="5.5472">
        <ele>1187</ele>
        <time>2013-05-11T12:00:15Z</time>
      </trkpt>
      <trkpt lat="44.43149" lon="5.54704">
        <ele>1185.4000244141</ele>
        <time>2013-05-11T12:00:17Z</time>
      </trkpt>
      <trkpt lat="44.43149" lon="5.54695">
        <ele>1185.4000244141</ele>
        <time>2013-05-11T12:00:18Z</time>
      </trkpt>
      <trkpt lat="44.43153" lon="5.5468">
        <ele>1185.4000244141</ele>
        <time>2013-05-11T12:00:20Z</time>
      </trkpt>
      <trkpt lat="44.43163" lon="5.54636">
        <ele>1182.1999511719</ele>
        <time>2013-05-11T12:00:25Z</time>
      </trkpt>
      <trkpt lat="44.43171" lon="5.54621">
        <ele>1182.1999511719</ele>
        <time>2013-05-11T12:00:27Z</time>
      </trkpt>
      <trkpt lat="44.43182" lon="5.54607">
        <ele>1182.1999511719</ele>
        <time>2013-05-11T12:00:29Z</time>
      </trkpt>
      <trkpt lat="44.43193" lon="5.54591">
        <ele>1181.5999755859</ele>
        <time>2013-05-11T12:00:31Z</time>
      </trkpt>
      <trkpt lat="44.43213" lon="5.54555">
        <ele>1181.5999755859</ele>
        <time>2013-05-11T12:00:35Z</time>
      </trkpt>
      <trkpt lat="44.43234" lon="5.54516">
        <ele>1181.5999755859</ele>
        <time>2013-05-11T12:00:39Z</time>
      </trkpt>
      <trkpt lat="44.43241" lon="5.54508">
        <ele>1181.5999755859</ele>
        <time>2013-05-11T12:00:40Z</time>
      </trkpt>
      <trkpt lat="44.43265" lon="5.54475">
        <ele>1181.5999755859</ele>
        <time>2013-05-11T12:00:44Z</time>
      </trkpt>
      <trkpt lat="44.43267" lon="5.54466">
        <ele>1181.5999755859</ele>
        <time>2013-05-11T12:00:45Z</time>
      </trkpt>
      <trkpt lat="44.43266" lon="5.54457">
        <ele>1180.8000488281</ele>
        <time>2013-05-11T12:00:46Z</time>
      </trkpt>
      <trkpt lat="44.43265" lon="5.54447">
        <ele>1180.8000488281</ele>
        <time>2013-05-11T12:00:47Z</time>
      </trkpt>
      <trkpt lat="44.43259" lon="5.54427">
        <ele>1180.8000488281</ele>
        <time>2013-05-11T12:00:49Z</time>
      </trkpt>
      <trkpt lat="44.43258" lon="5.54403">
        <ele>1180.8000488281</ele>
        <time>2013-05-11T12:00:51Z</time>
      </trkpt>
      <trkpt lat="44.43262" lon="5.54354">
        <ele>1180.8000488281</ele>
        <time>2013-05-11T12:00:55Z</time>
      </trkpt>
      <trkpt lat="44.43266" lon="5.54303">
        <ele>1180.8000488281</ele>
        <time>2013-05-11T12:00:59Z</time>
      </trkpt>
      <trkpt lat="44.43267" lon="5.54293">
        <ele>1180.8000488281</ele>
        <time>2013-05-11T12:01:00Z</time>
      </trkpt>
      <trkpt lat="44.4327" lon="5.5428">
        <ele>1180.8000488281</ele>
        <time>2013-05-11T12:01:02Z</time>
      </trkpt>
      <trkpt lat="44.43273" lon="5.54283">
        <ele>1180.8000488281</ele>
        <time>2013-05-11T12:01:03Z</time>
      </trkpt>
      <trkpt lat="44.43282" lon="5.54291">
        <ele>1180.8000488281</ele>
        <time>2013-05-11T12:01:05Z</time>
      </trkpt>
      <trkpt lat="44.43282" lon="5.54304">
        <ele>1175.1999511719</ele>
        <time>2013-05-11T12:01:07Z</time>
      </trkpt>
      <trkpt lat="44.4328" lon="5.54326">
        <ele>1175.1999511719</ele>
        <time>2013-05-11T12:01:10Z</time>
      </trkpt>
      <trkpt lat="44.4328" lon="5.54334">
        <ele>1175.1999511719</ele>
        <time>2013-05-11T12:01:11Z</time>
      </trkpt>
      <trkpt lat="44.43285" lon="5.54376">
        <ele>1175.1999511719</ele>
        <time>2013-05-11T12:01:16Z</time>
      </trkpt>
      <trkpt lat="44.43291" lon="5.54433">
        <ele>1175.1999511719</ele>
        <time>2013-05-11T12:01:22Z</time>
      </trkpt>
      <trkpt lat="44.43308" lon="5.54462">
        <ele>1171.4000244141</ele>
        <time>2013-05-11T12:01:26Z</time>
      </trkpt>
      <trkpt lat="44.43313" lon="5.5447">
        <ele>1171.4000244141</ele>
        <time>2013-05-11T12:01:27Z</time>
      </trkpt>
      <trkpt lat="44.43317" lon="5.54478">
        <ele>1171.4000244141</ele>
        <time>2013-05-11T12:01:28Z</time>
      </trkpt>
      <trkpt lat="44.43316" lon="5.54495">
        <ele>1171.4000244141</ele>
        <time>2013-05-11T12:01:30Z</time>
      </trkpt>
      <trkpt lat="44.433" lon="5.5452">
        <ele>1171.4000244141</ele>
        <time>2013-05-11T12:01:33Z</time>
      </trkpt>
      <trkpt lat="44.43294" lon="5.54539">
        <ele>1171.4000244141</ele>
        <time>2013-05-11T12:01:35Z</time>
      </trkpt>
      <trkpt lat="44.43293" lon="5.54551">
        <ele>1171.4000244141</ele>
        <time>2013-05-11T12:01:36Z</time>
      </trkpt>
      <trkpt lat="44.4328" lon="5.54607">
        <ele>1171.4000244141</ele>
        <time>2013-05-11T12:01:41Z</time>
      </trkpt>
      <trkpt lat="44.43279" lon="5.54619">
        <ele>1171.4000244141</ele>
        <time>2013-05-11T12:01:42Z</time>
      </trkpt>
      <trkpt lat="44.43276" lon="5.54643">
        <ele>1163.5999755859</ele>
        <time>2013-05-11T12:01:44Z</time>
      </trkpt>
      <trkpt lat="44.43273" lon="5.54652">
        <ele>1163.5999755859</ele>
        <time>2013-05-11T12:01:45Z</time>
      </trkpt>
      <trkpt lat="44.43268" lon="5.5466">
        <ele>1163.5999755859</ele>
        <time>2013-05-11T12:01:46Z</time>
      </trkpt>
      <trkpt lat="44.43248" lon="5.5468">
        <ele>1163.5999755859</ele>
        <time>2013-05-11T12:01:49Z</time>
      </trkpt>
      <trkpt lat="44.43243" lon="5.54687">
        <ele>1163.5999755859</ele>
        <time>2013-05-11T12:01:50Z</time>
      </trkpt>
      <trkpt lat="44.43239" lon="5.5471">
        <ele>1163.5999755859</ele>
        <time>2013-05-11T12:01:52Z</time>
      </trkpt>
      <trkpt lat="44.43235" lon="5.54732">
        <ele>1163.5999755859</ele>
        <time>2013-05-11T12:01:54Z</time>
      </trkpt>
      <trkpt lat="44.43221" lon="5.54759">
        <ele>1163.5999755859</ele>
        <time>2013-05-11T12:01:57Z</time>
      </trkpt>
      <trkpt lat="44.43209" lon="5.54816">
        <ele>1159.1999511719</ele>
        <time>2013-05-11T12:02:02Z</time>
      </trkpt>
      <trkpt lat="44.43207" lon="5.54832">
        <ele>1159.1999511719</ele>
        <time>2013-05-11T12:02:05Z</time>
      </trkpt>
      <trkpt lat="44.43217" lon="5.54845">
        <ele>1159.1999511719</ele>
        <time>2013-05-11T12:02:09Z</time>
      </trkpt>
      <trkpt lat="44.4324" lon="5.54861">
        <ele>1159.1999511719</ele>
        <time>2013-05-11T12:02:13Z</time>
      </trkpt>
      <trkpt lat="44.43256" lon="5.54878">
        <ele>1159.1999511719</ele>
        <time>2013-05-11T12:02:17Z</time>
      </trkpt>
      <trkpt lat="44.43261" lon="5.54884">
        <ele>1159.1999511719</ele>
        <time>2013-05-11T12:02:18Z</time>
      </trkpt>
      <trkpt lat="44.4327" lon="5.549">
        <ele>1159.1999511719</ele>
        <time>2013-05-11T12:02:21Z</time>
      </trkpt>
      <trkpt lat="44.43286" lon="5.54908">
        <ele>1145.1999511719</ele>
        <time>2013-05-11T12:02:26Z</time>
      </trkpt>
      <trkpt lat="44.43292" lon="5.54897">
        <ele>1136.5999755859</ele>
        <time>2013-05-11T12:02:30Z</time>
      </trkpt>
      <trkpt lat="44.43306" lon="5.54881">
        <ele>1128.1999511719</ele>
        <time>2013-05-11T12:02:34Z</time>
      </trkpt>
      <trkpt lat="44.43312" lon="5.54879">
        <ele>1119.5999755859</ele>
        <time>2013-05-11T12:02:35Z</time>
      </trkpt>
      <trkpt lat="44.43333" lon="5.5488">
        <ele>1111</ele>
        <time>2013-05-11T12:02:38Z</time>
      </trkpt>
      <trkpt lat="44.43346" lon="5.54898">
        <ele>1111</ele>
        <time>2013-05-11T12:02:41Z</time>
      </trkpt>
      <trkpt lat="44.4335" lon="5.54907">
        <ele>1106.4000244141</ele>
        <time>2013-05-11T12:02:42Z</time>
      </trkpt>
      <trkpt lat="44.43366" lon="5.54938">
        <ele>1103.8000488281</ele>
        <time>2013-05-11T12:02:46Z</time>
      </trkpt>
      <trkpt lat="44.4337" lon="5.54943">
        <ele>1103.8000488281</ele>
        <time>2013-05-11T12:02:47Z</time>
      </trkpt>
      <trkpt lat="44.43377" lon="5.54943">
        <ele>1098.4000244141</ele>
        <time>2013-05-11T12:02:49Z</time>
      </trkpt>
      <trkpt lat="44.4338" lon="5.54941">
        <ele>1098.4000244141</ele>
        <time>2013-05-11T12:02:50Z</time>
      </trkpt>
      <trkpt lat="44.43382" lon="5.54938">
        <ele>1098.4000244141</ele>
        <time>2013-05-11T12:02:51Z</time>
      </trkpt>
      <trkpt lat="44.43396" lon="5.54932">
        <ele>1095.5999755859</ele>
        <time>2013-05-11T12:02:55Z</time>
      </trkpt>
      <trkpt lat="44.434" lon="5.54933">
        <ele>1091.1999511719</ele>
        <time>2013-05-11T12:02:56Z</time>
      </trkpt>
      <trkpt lat="44.43416" lon="5.54925">
        <ele>1089.1999511719</ele>
        <time>2013-05-11T12:03:00Z</time>
      </trkpt>
      <trkpt lat="44.4342" lon="5.54921">
        <ele>1085.1999511719</ele>
        <time>2013-05-11T12:03:03Z</time>
      </trkpt>
      <trkpt lat="44.43421" lon="5.54919">
        <ele>1085.1999511719</ele>
        <time>2013-05-11T12:03:05Z</time>
      </trkpt>
      <trkpt lat="44.43431" lon="5.54903">
        <ele>1081.1999511719</ele>
        <time>2013-05-11T12:03:18Z</time>
      </trkpt>
      <trkpt lat="44.43438" lon="5.54899">
        <ele>1081.5999755859</ele>
        <time>2013-05-11T12:03:21Z</time>
      </trkpt>
      <trkpt lat="44.43443" lon="5.54892">
        <ele>1081.5999755859</ele>
        <time>2013-05-11T12:03:24Z</time>
      </trkpt>
      <trkpt lat="44.43446" lon="5.5489">
        <ele>1082.4000244141</ele>
        <time>2013-05-11T12:03:25Z</time>
      </trkpt>
      <trkpt lat="44.43453" lon="5.54882">
        <ele>1083.4000244141</ele>
        <time>2013-05-11T12:03:28Z</time>
      </trkpt>
      <trkpt lat="44.43456" lon="5.54879">
        <ele>1083.4000244141</ele>
        <time>2013-05-11T12:03:29Z</time>
      </trkpt>
      <trkpt lat="44.43465" lon="5.54872">
        <ele>1083.4000244141</ele>
        <time>2013-05-11T12:03:34Z</time>
      </trkpt>
      <trkpt lat="44.43478" lon="5.54862">
        <ele>1083.4000244141</ele>
        <time>2013-05-11T12:03:41Z</time>
      </trkpt>
      <trkpt lat="44.43484" lon="5.54845">
        <ele>1083.4000244141</ele>
        <time>2013-05-11T12:03:46Z</time>
      </trkpt>
      <trkpt lat="44.43483" lon="5.54839">
        <ele>1083.4000244141</ele>
        <time>2013-05-11T12:03:47Z</time>
      </trkpt>
      <trkpt lat="44.43485" lon="5.54828">
        <ele>1082.5999755859</ele>
        <time>2013-05-11T12:03:49Z</time>
      </trkpt>
      <trkpt lat="44.43497" lon="5.54805">
        <ele>1081.5999755859</ele>
        <time>2013-05-11T12:03:53Z</time>
      </trkpt>
      <trkpt lat="44.435" lon="5.548">
        <ele>1081.5999755859</ele>
        <time>2013-05-11T12:03:54Z</time>
      </trkpt>
      <trkpt lat="44.43503" lon="5.54788">
        <ele>1078.5999755859</ele>
        <time>2013-05-11T12:03:56Z</time>
      </trkpt>
      <trkpt lat="44.4351" lon="5.5477">
        <ele>1076.5999755859</ele>
        <time>2013-05-11T12:04:00Z</time>
      </trkpt>
      <trkpt lat="44.43513" lon="5.54758">
        <ele>1072.5999755859</ele>
        <time>2013-05-11T12:04:03Z</time>
      </trkpt>
      <trkpt lat="44.43522" lon="5.54749">
        <ele>1070.4000244141</ele>
        <time>2013-05-11T12:04:07Z</time>
      </trkpt>
      <trkpt lat="44.43531" lon="5.54741">
        <ele>1066.1999511719</ele>
        <time>2013-05-11T12:04:11Z</time>
      </trkpt>
      <trkpt lat="44.43536" lon="5.54734">
        <ele>1064.1999511719</ele>
        <time>2013-05-11T12:04:14Z</time>
      </trkpt>
      <trkpt lat="44.43542" lon="5.5473">
        <ele>1058.8000488281</ele>
        <time>2013-05-11T12:04:21Z</time>
      </trkpt>
      <trkpt lat="44.43544" lon="5.54727">
        <ele>1057.1999511719</ele>
        <time>2013-05-11T12:04:24Z</time>
      </trkpt>
      <trkpt lat="44.43547" lon="5.5472">
        <ele>1053.4000244141</ele>
        <time>2013-05-11T12:04:29Z</time>
      </trkpt>
      <trkpt lat="44.43546" lon="5.5472">
        <ele>1052.5999755859</ele>
        <time>2013-05-11T12:04:32Z</time>
      </trkpt>
      <trkpt lat="44.43551" lon="5.54717">
        <ele>1048.5999755859</ele>
        <time>2013-05-11T12:04:46Z</time>
      </trkpt>
      <trkpt lat="44.43557" lon="5.54709">
        <ele>1047</ele>
        <time>2013-05-11T12:04:50Z</time>
      </trkpt>
      <trkpt lat="44.4356" lon="5.54708">
        <ele>1047</ele>
        <time>2013-05-11T12:04:52Z</time>
      </trkpt>
      <trkpt lat="44.43575" lon="5.54696">
        <ele>1042.8000488281</ele>
        <time>2013-05-11T12:05:07Z</time>
      </trkpt>
      <trkpt lat="44.43581" lon="5.54694">
        <ele>1041.5999755859</ele>
        <time>2013-05-11T12:05:11Z</time>
      </trkpt>
      <trkpt lat="44.4359" lon="5.5469">
        <ele>1038.5999755859</ele>
        <time>2013-05-11T12:05:22Z</time>
      </trkpt>
      <trkpt lat="44.43593" lon="5.54689">
        <ele>1038</ele>
        <time>2013-05-11T12:05:25Z</time>
      </trkpt>
      <trkpt lat="44.436" lon="5.54685">
        <ele>1030.5999755859</ele>
        <time>2013-05-11T12:05:40Z</time>
      </trkpt>
      <trkpt lat="44.43608" lon="5.5468">
        <ele>1026.1999511719</ele>
        <time>2013-05-11T12:05:50Z</time>
      </trkpt>
      <trkpt lat="44.4361" lon="5.54676">
        <ele>1025.5999755859</ele>
        <time>2013-05-11T12:05:53Z</time>
      </trkpt>
      <trkpt lat="44.4362" lon="5.54675">
        <ele>1021.200012207</ele>
        <time>2013-05-11T12:06:04Z</time>
      </trkpt>
      <trkpt lat="44.43621" lon="5.54682">
        <ele>1018.799987793</ele>
        <time>2013-05-11T12:06:11Z</time>
      </trkpt>
      <trkpt lat="44.43627" lon="5.54691">
        <ele>1017.5999755859</ele>
        <time>2013-05-11T12:06:17Z</time>
      </trkpt>
      <trkpt lat="44.43635" lon="5.54702">
        <ele>1016.5999755859</ele>
        <time>2013-05-11T12:06:21Z</time>
      </trkpt>
      <trkpt lat="44.43644" lon="5.54709">
        <ele>1015</ele>
        <time>2013-05-11T12:06:25Z</time>
      </trkpt>
      <trkpt lat="44.43655" lon="5.54718">
        <ele>1012</ele>
        <time>2013-05-11T12:06:28Z</time>
      </trkpt>
      <trkpt lat="44.43663" lon="5.54725">
        <ele>1008.5999755859</ele>
        <time>2013-05-11T12:06:31Z</time>
      </trkpt>
      <trkpt lat="44.43672" lon="5.54727">
        <ele>1004.799987793</ele>
        <time>2013-05-11T12:06:35Z</time>
      </trkpt>
      <trkpt lat="44.43681" lon="5.54728">
        <ele>1000.5999755859</ele>
        <time>2013-05-11T12:06:39Z</time>
      </trkpt>
      <trkpt lat="44.43692" lon="5.54733">
        <ele>994.79998779297</ele>
        <time>2013-05-11T12:06:46Z</time>
      </trkpt>
      <trkpt lat="44.43703" lon="5.54735">
        <ele>984.59997558594</ele>
        <time>2013-05-11T12:07:45Z</time>
      </trkpt>
      <trkpt lat="44.43715" lon="5.54737">
        <ele>983.79998779297</ele>
        <time>2013-05-11T12:07:48Z</time>
      </trkpt>
      <trkpt lat="44.4372" lon="5.54741">
        <ele>983.20001220703</ele>
        <time>2013-05-11T12:07:50Z</time>
      </trkpt>
      <trkpt lat="44.43735" lon="5.54738">
        <ele>979.40002441406</ele>
        <time>2013-05-11T12:07:58Z</time>
      </trkpt>
      <trkpt lat="44.43731" lon="5.54729">
        <ele>975</ele>
        <time>2013-05-11T12:08:05Z</time>
      </trkpt>
      <trkpt lat="44.43736" lon="5.54735">
        <ele>969.40002441406</ele>
        <time>2013-05-11T12:08:22Z</time>
      </trkpt>
      <trkpt lat="44.43735" lon="5.5473">
        <ele>968.40002441406</ele>
        <time>2013-05-11T12:08:36Z</time>
      </trkpt>
      <trkpt lat="44.4373" lon="5.5472">
        <ele>967.40002441406</ele>
        <time>2013-05-11T12:08:39Z</time>
      </trkpt>
      <trkpt lat="44.43726" lon="5.54711">
        <ele>967.40002441406</ele>
        <time>2013-05-11T12:08:41Z</time>
      </trkpt>
      <trkpt lat="44.43726" lon="5.54703">
        <ele>965.40002441406</ele>
        <time>2013-05-11T12:08:43Z</time>
      </trkpt>
      <trkpt lat="44.43726" lon="5.54691">
        <ele>963</ele>
        <time>2013-05-11T12:08:46Z</time>
      </trkpt>
      <trkpt lat="44.43728" lon="5.54679">
        <ele>963</ele>
        <time>2013-05-11T12:08:49Z</time>
      </trkpt>
      <trkpt lat="44.43734" lon="5.54669">
        <ele>956.40002441406</ele>
        <time>2013-05-11T12:08:53Z</time>
      </trkpt>
      <trkpt lat="44.4374" lon="5.54661">
        <ele>952.79998779297</ele>
        <time>2013-05-11T12:08:57Z</time>
      </trkpt>
      <trkpt lat="44.43752" lon="5.54648">
        <ele>949.20001220703</ele>
        <time>2013-05-11T12:09:00Z</time>
      </trkpt>
      <trkpt lat="44.43771" lon="5.54643">
        <ele>949.20001220703</ele>
        <time>2013-05-11T12:09:03Z</time>
      </trkpt>
      <trkpt lat="44.43782" lon="5.54644">
        <ele>945.20001220703</ele>
        <time>2013-05-11T12:09:05Z</time>
      </trkpt>
      <trkpt lat="44.43791" lon="5.54644">
        <ele>945.20001220703</ele>
        <time>2013-05-11T12:09:07Z</time>
      </trkpt>
      <trkpt lat="44.43813" lon="5.54642">
        <ele>936.40002441406</ele>
        <time>2013-05-11T12:09:11Z</time>
      </trkpt>
      <trkpt lat="44.43826" lon="5.54637">
        <ele>936.40002441406</ele>
        <time>2013-05-11T12:09:13Z</time>
      </trkpt>
      <trkpt lat="44.43837" lon="5.54629">
        <ele>931.79998779297</ele>
        <time>2013-05-11T12:09:15Z</time>
      </trkpt>
      <trkpt lat="44.43856" lon="5.54627">
        <ele>927.20001220703</ele>
        <time>2013-05-11T12:09:18Z</time>
      </trkpt>
      <trkpt lat="44.43862" lon="5.54627">
        <ele>927.20001220703</ele>
        <time>2013-05-11T12:09:19Z</time>
      </trkpt>
      <trkpt lat="44.4388" lon="5.54632">
        <ele>920</ele>
        <time>2013-05-11T12:09:25Z</time>
      </trkpt>
      <trkpt lat="44.4389" lon="5.54638">
        <ele>920</ele>
        <time>2013-05-11T12:09:28Z</time>
      </trkpt>
      <trkpt lat="44.43893" lon="5.54639">
        <ele>919</ele>
        <time>2013-05-11T12:09:29Z</time>
      </trkpt>
      <trkpt lat="44.43903" lon="5.54643">
        <ele>918.20001220703</ele>
        <time>2013-05-11T12:09:32Z</time>
      </trkpt>
      <trkpt lat="44.43911" lon="5.54646">
        <ele>917.20001220703</ele>
        <time>2013-05-11T12:09:34Z</time>
      </trkpt>
      <trkpt lat="44.4393" lon="5.54654">
        <ele>913.79998779297</ele>
        <time>2013-05-11T12:09:39Z</time>
      </trkpt>
      <trkpt lat="44.43947" lon="5.54661">
        <ele>913.79998779297</ele>
        <time>2013-05-11T12:09:42Z</time>
      </trkpt>
      <trkpt lat="44.43954" lon="5.54664">
        <ele>912.59997558594</ele>
        <time>2013-05-11T12:09:43Z</time>
      </trkpt>
      <trkpt lat="44.43964" lon="5.54672">
        <ele>912.59997558594</ele>
        <time>2013-05-11T12:09:45Z</time>
      </trkpt>
      <trkpt lat="44.43968" lon="5.54681">
        <ele>910.20001220703</ele>
        <time>2013-05-11T12:09:47Z</time>
      </trkpt>
      <trkpt lat="44.43975" lon="5.54691">
        <ele>907.59997558594</ele>
        <time>2013-05-11T12:09:50Z</time>
      </trkpt>
      <trkpt lat="44.43986" lon="5.54694">
        <ele>907.59997558594</ele>
        <time>2013-05-11T12:09:52Z</time>
      </trkpt>
      <trkpt lat="44.43991" lon="5.54697">
        <ele>906.79998779297</ele>
        <time>2013-05-11T12:09:53Z</time>
      </trkpt>
      <trkpt lat="44.44011" lon="5.54704">
        <ele>905.79998779297</ele>
        <time>2013-05-11T12:09:56Z</time>
      </trkpt>
      <trkpt lat="44.44024" lon="5.54706">
        <ele>904</ele>
        <time>2013-05-11T12:09:58Z</time>
      </trkpt>
      <trkpt lat="44.44039" lon="5.54706">
        <ele>902.40002441406</ele>
        <time>2013-05-11T12:10:00Z</time>
      </trkpt>
      <trkpt lat="44.44053" lon="5.54707">
        <ele>902.40002441406</ele>
        <time>2013-05-11T12:10:02Z</time>
      </trkpt>
      <trkpt lat="44.44068" lon="5.54707">
        <ele>901.40002441406</ele>
        <time>2013-05-11T12:10:04Z</time>
      </trkpt>
      <trkpt lat="44.4409" lon="5.5471">
        <ele>899.59997558594</ele>
        <time>2013-05-11T12:10:07Z</time>
      </trkpt>
      <trkpt lat="44.44114" lon="5.5471">
        <ele>897.40002441406</ele>
        <time>2013-05-11T12:10:11Z</time>
      </trkpt>
      <trkpt lat="44.4412" lon="5.54708">
        <ele>897.40002441406</ele>
        <time>2013-05-11T12:10:12Z</time>
      </trkpt>
      <trkpt lat="44.4413" lon="5.547">
        <ele>895.59997558594</ele>
        <time>2013-05-11T12:10:14Z</time>
      </trkpt>
      <trkpt lat="44.44134" lon="5.547">
        <ele>895.59997558594</ele>
        <time>2013-05-11T12:10:15Z</time>
      </trkpt>
      <trkpt lat="44.4414" lon="5.54714">
        <ele>894.79998779297</ele>
        <time>2013-05-11T12:10:18Z</time>
      </trkpt>
      <trkpt lat="44.44142" lon="5.54721">
        <ele>894.79998779297</ele>
        <time>2013-05-11T12:10:19Z</time>
      </trkpt>
      <trkpt lat="44.44149" lon="5.5475">
        <ele>894</ele>
        <time>2013-05-11T12:10:22Z</time>
      </trkpt>
      <trkpt lat="44.44156" lon="5.5477">
        <ele>894</ele>
        <time>2013-05-11T12:10:24Z</time>
      </trkpt>
      <trkpt lat="44.4416" lon="5.5478">
        <ele>892</ele>
        <time>2013-05-11T12:10:25Z</time>
      </trkpt>
      <trkpt lat="44.44165" lon="5.54798">
        <ele>892</ele>
        <time>2013-05-11T12:10:27Z</time>
      </trkpt>
      <trkpt lat="44.44175" lon="5.54814">
        <ele>891</ele>
        <time>2013-05-11T12:10:29Z</time>
      </trkpt>
      <trkpt lat="44.44182" lon="5.54821">
        <ele>891</ele>
        <time>2013-05-11T12:10:30Z</time>
      </trkpt>
      <trkpt lat="44.44193" lon="5.54839">
        <ele>888.20001220703</ele>
        <time>2013-05-11T12:10:32Z</time>
      </trkpt>
      <trkpt lat="44.44221" lon="5.54877">
        <ele>888.20001220703</ele>
        <time>2013-05-11T12:10:37Z</time>
      </trkpt>
      <trkpt lat="44.4423" lon="5.5488">
        <ele>886.59997558594</ele>
        <time>2013-05-11T12:10:38Z</time>
      </trkpt>
      <trkpt lat="44.44251" lon="5.54893">
        <ele>885</ele>
        <time>2013-05-11T12:10:41Z</time>
      </trkpt>
      <trkpt lat="44.44258" lon="5.54901">
        <ele>885</ele>
        <time>2013-05-11T12:10:42Z</time>
      </trkpt>
      <trkpt lat="44.44263" lon="5.54911">
        <ele>885</ele>
        <time>2013-05-11T12:10:43Z</time>
      </trkpt>
      <trkpt lat="44.44276" lon="5.54932">
        <ele>883</ele>
        <time>2013-05-11T12:10:45Z</time>
      </trkpt>
      <trkpt lat="44.44284" lon="5.54937">
        <ele>883</ele>
        <time>2013-05-11T12:10:46Z</time>
      </trkpt>
      <trkpt lat="44.44293" lon="5.54941">
        <ele>883</ele>
        <time>2013-05-11T12:10:47Z</time>
      </trkpt>
      <trkpt lat="44.44303" lon="5.54943">
        <ele>880.79998779297</ele>
        <time>2013-05-11T12:10:48Z</time>
      </trkpt>
      <trkpt lat="44.44313" lon="5.54946">
        <ele>878.20001220703</ele>
        <time>2013-05-11T12:10:49Z</time>
      </trkpt>
      <trkpt lat="44.44324" lon="5.54949">
        <ele>878.20001220703</ele>
        <time>2013-05-11T12:10:50Z</time>
      </trkpt>
      <trkpt lat="44.44345" lon="5.54953">
        <ele>875.79998779297</ele>
        <time>2013-05-11T12:10:52Z</time>
      </trkpt>
      <trkpt lat="44.44354" lon="5.54952">
        <ele>875.79998779297</ele>
        <time>2013-05-11T12:10:53Z</time>
      </trkpt>
      <trkpt lat="44.44363" lon="5.5495">
        <ele>875.79998779297</ele>
        <time>2013-05-11T12:10:54Z</time>
      </trkpt>
      <trkpt lat="44.44379" lon="5.54943">
        <ele>873.20001220703</ele>
        <time>2013-05-11T12:10:56Z</time>
      </trkpt>
      <trkpt lat="44.44392" lon="5.54932">
        <ele>873.20001220703</ele>
        <time>2013-05-11T12:10:58Z</time>
      </trkpt>
      <trkpt lat="44.44397" lon="5.54926">
        <ele>870.59997558594</ele>
        <time>2013-05-11T12:10:59Z</time>
      </trkpt>
      <trkpt lat="44.44403" lon="5.54922">
        <ele>868</ele>
        <time>2013-05-11T12:11:00Z</time>
      </trkpt>
      <trkpt lat="44.44414" lon="5.54913">
        <ele>868</ele>
        <time>2013-05-11T12:11:02Z</time>
      </trkpt>
      <trkpt lat="44.44421" lon="5.54911">
        <ele>865.59997558594</ele>
        <time>2013-05-11T12:11:03Z</time>
      </trkpt>
      <trkpt lat="44.44444" lon="5.54901">
        <ele>863.20001220703</ele>
        <time>2013-05-11T12:11:06Z</time>
      </trkpt>
      <trkpt lat="44.44451" lon="5.54896">
        <ele>861</ele>
        <time>2013-05-11T12:11:07Z</time>
      </trkpt>
      <trkpt lat="44.44475" lon="5.54889">
        <ele>859</ele>
        <time>2013-05-11T12:11:10Z</time>
      </trkpt>
      <trkpt lat="44.44483" lon="5.54892">
        <ele>859</ele>
        <time>2013-05-11T12:11:11Z</time>
      </trkpt>
      <trkpt lat="44.44492" lon="5.54893">
        <ele>859</ele>
        <time>2013-05-11T12:11:12Z</time>
      </trkpt>
      <trkpt lat="44.44501" lon="5.54896">
        <ele>856.59997558594</ele>
        <time>2013-05-11T12:11:13Z</time>
      </trkpt>
      <trkpt lat="44.44518" lon="5.54903">
        <ele>854.20001220703</ele>
        <time>2013-05-11T12:11:15Z</time>
      </trkpt>
      <trkpt lat="44.4453" lon="5.54907">
        <ele>851.59997558594</ele>
        <time>2013-05-11T12:11:17Z</time>
      </trkpt>
      <trkpt lat="44.44528" lon="5.54896">
        <ele>840.59997558594</ele>
        <time>2013-05-11T12:11:30Z</time>
      </trkpt>
      <trkpt lat="44.44527" lon="5.54887">
        <ele>838.79998779297</ele>
        <time>2013-05-11T12:11:34Z</time>
      </trkpt>
      <trkpt lat="44.44528" lon="5.54878">
        <ele>839.40002441406</ele>
        <time>2013-05-11T12:11:42Z</time>
      </trkpt>
      <trkpt lat="44.44528" lon="5.54862">
        <ele>839.40002441406</ele>
        <time>2013-05-11T12:11:48Z</time>
      </trkpt>
      <trkpt lat="44.44525" lon="5.54843">
        <ele>839.40002441406</ele>
        <time>2013-05-11T12:11:53Z</time>
      </trkpt>
      <trkpt lat="44.44512" lon="5.5482">
        <ele>839.40002441406</ele>
        <time>2013-05-11T12:12:00Z</time>
      </trkpt>
      <trkpt lat="44.44507" lon="5.54818">
        <ele>839.40002441406</ele>
        <time>2013-05-11T12:12:02Z</time>
      </trkpt>
      <trkpt lat="44.44499" lon="5.54809">
        <ele>839.79998779297</ele>
        <time>2013-05-11T12:12:06Z</time>
      </trkpt>
      <trkpt lat="44.44496" lon="5.54795">
        <ele>841</ele>
        <time>2013-05-11T12:12:10Z</time>
      </trkpt>
      <trkpt lat="44.44497" lon="5.54787">
        <ele>841</ele>
        <time>2013-05-11T12:12:12Z</time>
      </trkpt>
      <trkpt lat="44.44498" lon="5.54779">
        <ele>841.40002441406</ele>
        <time>2013-05-11T12:12:14Z</time>
      </trkpt>
      <trkpt lat="44.44502" lon="5.54764">
        <ele>841.40002441406</ele>
        <time>2013-05-11T12:12:18Z</time>
      </trkpt>
      <trkpt lat="44.44505" lon="5.54749">
        <ele>841.40002441406</ele>
        <time>2013-05-11T12:12:23Z</time>
      </trkpt>
      <trkpt lat="44.44508" lon="5.54733">
        <ele>842.59997558594</ele>
        <time>2013-05-11T12:12:28Z</time>
      </trkpt>
      <trkpt lat="44.44508" lon="5.54727">
        <ele>842.59997558594</ele>
        <time>2013-05-11T12:12:30Z</time>
      </trkpt>
      <trkpt lat="44.4451" lon="5.54707">
        <ele>843.40002441406</ele>
        <time>2013-05-11T12:12:35Z</time>
      </trkpt>
      <trkpt lat="44.4451" lon="5.54696">
        <ele>843.40002441406</ele>
        <time>2013-05-11T12:12:38Z</time>
      </trkpt>
      <trkpt lat="44.4451" lon="5.5467">
        <ele>843.40002441406</ele>
        <time>2013-05-11T12:12:43Z</time>
      </trkpt>
      <trkpt lat="44.44517" lon="5.54658">
        <ele>843.40002441406</ele>
        <time>2013-05-11T12:12:46Z</time>
      </trkpt>
      <trkpt lat="44.4453" lon="5.54642">
        <ele>843.40002441406</ele>
        <time>2013-05-11T12:12:50Z</time>
      </trkpt>
      <trkpt lat="44.44543" lon="5.54633">
        <ele>842.79998779297</ele>
        <time>2013-05-11T12:12:52Z</time>
      </trkpt>
      <trkpt lat="44.44556" lon="5.54623">
        <ele>842.79998779297</ele>
        <time>2013-05-11T12:12:54Z</time>
      </trkpt>
      <trkpt lat="44.44562" lon="5.54622">
        <ele>840.79998779297</ele>
        <time>2013-05-11T12:12:55Z</time>
      </trkpt>
      <trkpt lat="44.44574" lon="5.5462">
        <ele>840.79998779297</ele>
        <time>2013-05-11T12:12:57Z</time>
      </trkpt>
      <trkpt lat="44.4458" lon="5.5462">
        <ele>839.20001220703</ele>
        <time>2013-05-11T12:12:58Z</time>
      </trkpt>
      <trkpt lat="44.44595" lon="5.54617">
        <ele>837.79998779297</ele>
        <time>2013-05-11T12:13:00Z</time>
      </trkpt>
      <trkpt lat="44.44603" lon="5.54613">
        <ele>837.79998779297</ele>
        <time>2013-05-11T12:13:01Z</time>
      </trkpt>
      <trkpt lat="44.44612" lon="5.54608">
        <ele>834</ele>
        <time>2013-05-11T12:13:02Z</time>
      </trkpt>
      <trkpt lat="44.44635" lon="5.54598">
        <ele>834</ele>
        <time>2013-05-11T12:13:05Z</time>
      </trkpt>
      <trkpt lat="44.44642" lon="5.54601">
        <ele>831.59997558594</ele>
        <time>2013-05-11T12:13:06Z</time>
      </trkpt>
      <trkpt lat="44.44653" lon="5.54615">
        <ele>829</ele>
        <time>2013-05-11T12:13:09Z</time>
      </trkpt>
      <trkpt lat="44.44663" lon="5.54619">
        <ele>829</ele>
        <time>2013-05-11T12:13:12Z</time>
      </trkpt>
      <trkpt lat="44.44661" lon="5.54603">
        <ele>826.20001220703</ele>
        <time>2013-05-11T12:13:17Z</time>
      </trkpt>
      <trkpt lat="44.44661" lon="5.5459">
        <ele>826.20001220703</ele>
        <time>2013-05-11T12:13:19Z</time>
      </trkpt>
      <trkpt lat="44.44661" lon="5.54572">
        <ele>814.59997558594</ele>
        <time>2013-05-11T12:13:22Z</time>
      </trkpt>
      <trkpt lat="44.4466" lon="5.54565">
        <ele>811.79998779297</ele>
        <time>2013-05-11T12:13:23Z</time>
      </trkpt>
      <trkpt lat="44.44658" lon="5.54539">
        <ele>810</ele>
        <time>2013-05-11T12:13:27Z</time>
      </trkpt>
      <trkpt lat="44.4466" lon="5.54532">
        <ele>810</ele>
        <time>2013-05-11T12:13:28Z</time>
      </trkpt>
      <trkpt lat="44.44663" lon="5.54526">
        <ele>810</ele>
        <time>2013-05-11T12:13:29Z</time>
      </trkpt>
      <trkpt lat="44.44666" lon="5.5452">
        <ele>806</ele>
        <time>2013-05-11T12:13:30Z</time>
      </trkpt>
      <trkpt lat="44.44675" lon="5.54505">
        <ele>806</ele>
        <time>2013-05-11T12:13:32Z</time>
      </trkpt>
      <trkpt lat="44.44677" lon="5.54496">
        <ele>806</ele>
        <time>2013-05-11T12:13:33Z</time>
      </trkpt>
      <trkpt lat="44.4468" lon="5.54487">
        <ele>801.79998779297</ele>
        <time>2013-05-11T12:13:34Z</time>
      </trkpt>
      <trkpt lat="44.44698" lon="5.54478">
        <ele>798.20001220703</ele>
        <time>2013-05-11T12:13:37Z</time>
      </trkpt>
      <trkpt lat="44.44706" lon="5.54477">
        <ele>798.20001220703</ele>
        <time>2013-05-11T12:13:38Z</time>
      </trkpt>
      <trkpt lat="44.4473" lon="5.54471">
        <ele>794.40002441406</ele>
        <time>2013-05-11T12:13:41Z</time>
      </trkpt>
      <trkpt lat="44.44741" lon="5.54468">
        <ele>794.40002441406</ele>
        <time>2013-05-11T12:13:43Z</time>
      </trkpt>
      <trkpt lat="44.44757" lon="5.54467">
        <ele>790.40002441406</ele>
        <time>2013-05-11T12:13:47Z</time>
      </trkpt>
      <trkpt lat="44.44761" lon="5.54466">
        <ele>786.79998779297</ele>
        <time>2013-05-11T12:13:48Z</time>
      </trkpt>
      <trkpt lat="44.44775" lon="5.54456">
        <ele>785.20001220703</ele>
        <time>2013-05-11T12:13:51Z</time>
      </trkpt>
      <trkpt lat="44.44789" lon="5.54444">
        <ele>781.79998779297</ele>
        <time>2013-05-11T12:13:55Z</time>
      </trkpt>
      <trkpt lat="44.44803" lon="5.54439">
        <ele>780.20001220703</ele>
        <time>2013-05-11T12:13:58Z</time>
      </trkpt>
      <trkpt lat="44.44813" lon="5.54428">
        <ele>780.20001220703</ele>
        <time>2013-05-11T12:14:00Z</time>
      </trkpt>
      <trkpt lat="44.44818" lon="5.54415">
        <ele>777</ele>
        <time>2013-05-11T12:14:02Z</time>
      </trkpt>
      <trkpt lat="44.44821" lon="5.54409">
        <ele>777</ele>
        <time>2013-05-11T12:14:03Z</time>
      </trkpt>
      <trkpt lat="44.44823" lon="5.54396">
        <ele>775.40002441406</ele>
        <time>2013-05-11T12:14:05Z</time>
      </trkpt>
      <trkpt lat="44.44823" lon="5.54387">
        <ele>773.79998779297</ele>
        <time>2013-05-11T12:14:06Z</time>
      </trkpt>
      <trkpt lat="44.44825" lon="5.54368">
        <ele>773.79998779297</ele>
        <time>2013-05-11T12:14:08Z</time>
      </trkpt>
      <trkpt lat="44.44823" lon="5.54358">
        <ele>771</ele>
        <time>2013-05-11T12:14:09Z</time>
      </trkpt>
      <trkpt lat="44.44823" lon="5.54337">
        <ele>771</ele>
        <time>2013-05-11T12:14:11Z</time>
      </trkpt>
      <trkpt lat="44.44824" lon="5.54329">
        <ele>769.59997558594</ele>
        <time>2013-05-11T12:14:12Z</time>
      </trkpt>
      <trkpt lat="44.44831" lon="5.54314">
        <ele>769.59997558594</ele>
        <time>2013-05-11T12:14:14Z</time>
      </trkpt>
      <trkpt lat="44.44836" lon="5.54296">
        <ele>767.20001220703</ele>
        <time>2013-05-11T12:14:16Z</time>
      </trkpt>
      <trkpt lat="44.44842" lon="5.54271">
        <ele>766</ele>
        <time>2013-05-11T12:14:19Z</time>
      </trkpt>
      <trkpt lat="44.4484" lon="5.54265">
        <ele>764.79998779297</ele>
        <time>2013-05-11T12:14:20Z</time>
      </trkpt>
      <trkpt lat="44.4484" lon="5.54256">
        <ele>764.79998779297</ele>
        <time>2013-05-11T12:14:22Z</time>
      </trkpt>
      <trkpt lat="44.44841" lon="5.5425">
        <ele>763</ele>
        <time>2013-05-11T12:14:23Z</time>
      </trkpt>
      <trkpt lat="44.44849" lon="5.54225">
        <ele>761</ele>
        <time>2013-05-11T12:14:27Z</time>
      </trkpt>
      <trkpt lat="44.44859" lon="5.54217">
        <ele>761</ele>
        <time>2013-05-11T12:14:29Z</time>
      </trkpt>
      <trkpt lat="44.44865" lon="5.54215">
        <ele>760</ele>
        <time>2013-05-11T12:14:30Z</time>
      </trkpt>
      <trkpt lat="44.44877" lon="5.54205">
        <ele>760</ele>
        <time>2013-05-11T12:14:33Z</time>
      </trkpt>
      <trkpt lat="44.44884" lon="5.54195">
        <ele>760</ele>
        <time>2013-05-11T12:14:35Z</time>
      </trkpt>
      <trkpt lat="44.44902" lon="5.54191">
        <ele>760</ele>
        <time>2013-05-11T12:14:39Z</time>
      </trkpt>
      <trkpt lat="44.44915" lon="5.54206">
        <ele>760</ele>
        <time>2013-05-11T12:14:43Z</time>
      </trkpt>
      <trkpt lat="44.44918" lon="5.54211">
        <ele>760.40002441406</ele>
        <time>2013-05-11T12:14:44Z</time>
      </trkpt>
      <trkpt lat="44.4492" lon="5.54215">
        <ele>760.40002441406</ele>
        <time>2013-05-11T12:14:45Z</time>
      </trkpt>
      <trkpt lat="44.44926" lon="5.54227">
        <ele>761.20001220703</ele>
        <time>2013-05-11T12:14:48Z</time>
      </trkpt>
      <trkpt lat="44.44931" lon="5.54235">
        <ele>761.20001220703</ele>
        <time>2013-05-11T12:14:50Z</time>
      </trkpt>
      <trkpt lat="44.44947" lon="5.5426">
        <ele>762</ele>
        <time>2013-05-11T12:14:58Z</time>
      </trkpt>
      <trkpt lat="44.4496" lon="5.54272">
        <ele>762.40002441406</ele>
        <time>2013-05-11T12:15:04Z</time>
      </trkpt>
      <trkpt lat="44.44962" lon="5.54274">
        <ele>762.40002441406</ele>
        <time>2013-05-11T12:15:05Z</time>
      </trkpt>
      <trkpt lat="44.44972" lon="5.54284">
        <ele>763.79998779297</ele>
        <time>2013-05-11T12:15:11Z</time>
      </trkpt>
      <trkpt lat="44.44979" lon="5.54291">
        <ele>764.79998779297</ele>
        <time>2013-05-11T12:15:15Z</time>
      </trkpt>
      <trkpt lat="44.44983" lon="5.54297">
        <ele>765.20001220703</ele>
        <time>2013-05-11T12:15:18Z</time>
      </trkpt>
      <trkpt lat="44.4499" lon="5.54304">
        <ele>766.79998779297</ele>
        <time>2013-05-11T12:15:22Z</time>
      </trkpt>
      <trkpt lat="44.44991" lon="5.54305">
        <ele>766.79998779297</ele>
        <time>2013-05-11T12:15:23Z</time>
      </trkpt>
      <trkpt lat="44.44998" lon="5.54313">
        <ele>767.59997558594</ele>
        <time>2013-05-11T12:15:29Z</time>
      </trkpt>
      <trkpt lat="44.45001" lon="5.54317">
        <ele>767.59997558594</ele>
        <time>2013-05-11T12:15:32Z</time>
      </trkpt>
      <trkpt lat="44.45007" lon="5.54324">
        <ele>768.79998779297</ele>
        <time>2013-05-11T12:15:37Z</time>
      </trkpt>
      <trkpt lat="44.45011" lon="5.54322">
        <ele>768.79998779297</ele>
        <time>2013-05-11T12:15:39Z</time>
      </trkpt>
      <trkpt lat="44.45017" lon="5.54317">
        <ele>770.20001220703</ele>
        <time>2013-05-11T12:15:43Z</time>
      </trkpt>
      <trkpt lat="44.4502" lon="5.54312">
        <ele>770.20001220703</ele>
        <time>2013-05-11T12:15:45Z</time>
      </trkpt>
      <trkpt lat="44.45021" lon="5.54308">
        <ele>770.20001220703</ele>
        <time>2013-05-11T12:15:46Z</time>
      </trkpt>
      <trkpt lat="44.45025" lon="5.54296">
        <ele>771</ele>
        <time>2013-05-11T12:15:49Z</time>
      </trkpt>
      <trkpt lat="44.45035" lon="5.54265">
        <ele>771</ele>
        <time>2013-05-11T12:15:56Z</time>
      </trkpt>
      <trkpt lat="44.45046" lon="5.54231">
        <ele>771</ele>
        <time>2013-05-11T12:16:03Z</time>
      </trkpt>
      <trkpt lat="44.45049" lon="5.5422">
        <ele>771.40002441406</ele>
        <time>2013-05-11T12:16:05Z</time>
      </trkpt>
      <trkpt lat="44.45058" lon="5.54197">
        <ele>772.20001220703</ele>
        <time>2013-05-11T12:16:09Z</time>
      </trkpt>
      <trkpt lat="44.45063" lon="5.54179">
        <ele>773</ele>
        <time>2013-05-11T12:16:12Z</time>
      </trkpt>
      <trkpt lat="44.45077" lon="5.54139">
        <ele>773</ele>
        <time>2013-05-11T12:16:18Z</time>
      </trkpt>
      <trkpt lat="44.45092" lon="5.54092">
        <ele>773</ele>
        <time>2013-05-11T12:16:24Z</time>
      </trkpt>
      <trkpt lat="44.45094" lon="5.54084">
        <ele>773</ele>
        <time>2013-05-11T12:16:25Z</time>
      </trkpt>
      <trkpt lat="44.45097" lon="5.54076">
        <ele>773</ele>
        <time>2013-05-11T12:16:26Z</time>
      </trkpt>
      <trkpt lat="44.45101" lon="5.54064">
        <ele>772</ele>
        <time>2013-05-11T12:16:28Z</time>
      </trkpt>
      <trkpt lat="44.45103" lon="5.54058">
        <ele>772</ele>
        <time>2013-05-11T12:16:30Z</time>
      </trkpt>
      <trkpt lat="44.4511" lon="5.54052">
        <ele>768.40002441406</ele>
        <time>2013-05-11T12:23:35Z</time>
      </trkpt>
      <trkpt lat="44.45109" lon="5.54052">
        <ele>768.40002441406</ele>
        <time>2013-05-11T12:24:04Z</time>
      </trkpt>
      <trkpt lat="44.45099" lon="5.54049">
        <ele>768.40002441406</ele>
        <time>2013-05-11T12:25:14Z</time>
      </trkpt>
      <trkpt lat="44.45098" lon="5.5405">
        <ele>768.40002441406</ele>
        <time>2013-05-11T12:25:43Z</time>
      </trkpt>
      <trkpt lat="44.45098" lon="5.5405">
        <ele>768.40002441406</ele>
        <time>2013-05-11T12:25:56Z</time>
      </trkpt>
      <trkpt lat="44.45089" lon="5.54046">
        <ele>768.40002441406</ele>
        <time>2013-05-11T12:26:47Z</time>
      </trkpt>
      <trkpt lat="44.4509" lon="5.54042">
        <ele>768.40002441406</ele>
        <time>2013-05-11T12:30:55Z</time>
      </trkpt>
      <trkpt lat="44.451" lon="5.54041">
        <ele>768.40002441406</ele>
        <time>2013-05-11T12:31:34Z</time>
      </trkpt>
      <trkpt lat="44.45107" lon="5.54034">
        <ele>768.40002441406</ele>
        <time>2013-05-11T12:33:52Z</time>
      </trkpt>
      <trkpt lat="44.45108" lon="5.54028">
        <ele>768.40002441406</ele>
        <time>2013-05-11T12:33:54Z</time>
      </trkpt>
      <trkpt lat="44.45112" lon="5.54027">
        <ele>768.40002441406</ele>
        <time>2013-05-11T12:33:56Z</time>
      </trkpt>
      <trkpt lat="44.45114" lon="5.54031">
        <ele>768.40002441406</ele>
        <time>2013-05-11T12:33:59Z</time>
      </trkpt>
      <trkpt lat="44.45114" lon="5.5404">
        <ele>768.40002441406</ele>
        <time>2013-05-11T12:34:09Z</time>
      </trkpt>
      <trkpt lat="44.4512" lon="5.54051">
        <ele>768.40002441406</ele>
        <time>2013-05-11T12:34:17Z</time>
      </trkpt>
      <trkpt lat="44.45119" lon="5.54062">
        <ele>768.40002441406</ele>
        <time>2013-05-11T12:34:22Z</time>
      </trkpt>
      <trkpt lat="44.45121" lon="5.54073">
        <ele>770.20001220703</ele>
        <time>2013-05-11T12:34:29Z</time>
      </trkpt>
      <trkpt lat="44.45123" lon="5.54088">
        <ele>772.79998779297</ele>
        <time>2013-05-11T12:34:39Z</time>
      </trkpt>
      <trkpt lat="44.45122" lon="5.5409">
        <ele>773.40002441406</ele>
        <time>2013-05-11T12:34:40Z</time>
      </trkpt>
      <trkpt lat="44.45123" lon="5.54101">
        <ele>775.20001220703</ele>
        <time>2013-05-11T12:34:47Z</time>
      </trkpt>
      <trkpt lat="44.45123" lon="5.54111">
        <ele>777</ele>
        <time>2013-05-11T12:34:54Z</time>
      </trkpt>
      <trkpt lat="44.4512" lon="5.54121">
        <ele>778.40002441406</ele>
        <time>2013-05-11T12:35:00Z</time>
      </trkpt>
      <trkpt lat="44.45118" lon="5.54133">
        <ele>778.40002441406</ele>
        <time>2013-05-11T12:35:08Z</time>
      </trkpt>
      <trkpt lat="44.45115" lon="5.54142">
        <ele>779.40002441406</ele>
        <time>2013-05-11T12:35:15Z</time>
      </trkpt>
      <trkpt lat="44.45112" lon="5.54151">
        <ele>780.79998779297</ele>
        <time>2013-05-11T12:35:22Z</time>
      </trkpt>
      <trkpt lat="44.45109" lon="5.54156">
        <ele>782.20001220703</ele>
        <time>2013-05-11T12:35:26Z</time>
      </trkpt>
      <trkpt lat="44.45109" lon="5.54161">
        <ele>782.59997558594</ele>
        <time>2013-05-11T12:35:29Z</time>
      </trkpt>
      <trkpt lat="44.45109" lon="5.54171">
        <ele>783</ele>
        <time>2013-05-11T12:35:35Z</time>
      </trkpt>
      <trkpt lat="44.45106" lon="5.5418">
        <ele>784</ele>
        <time>2013-05-11T12:35:43Z</time>
      </trkpt>
      <trkpt lat="44.45104" lon="5.54201">
        <ele>785.59997558594</ele>
        <time>2013-05-11T12:35:57Z</time>
      </trkpt>
      <trkpt lat="44.45102" lon="5.54217">
        <ele>786.59997558594</ele>
        <time>2013-05-11T12:36:05Z</time>
      </trkpt>
      <trkpt lat="44.451" lon="5.54232">
        <ele>786.59997558594</ele>
        <time>2013-05-11T12:36:14Z</time>
      </trkpt>
      <trkpt lat="44.45101" lon="5.54233">
        <ele>787</ele>
        <time>2013-05-11T12:36:15Z</time>
      </trkpt>
      <trkpt lat="44.4511" lon="5.54241">
        <ele>787</ele>
        <time>2013-05-11T12:36:22Z</time>
      </trkpt>
      <trkpt lat="44.45116" lon="5.54246">
        <ele>787</ele>
        <time>2013-05-11T12:36:27Z</time>
      </trkpt>
      <trkpt lat="44.45124" lon="5.54256">
        <ele>787.59997558594</ele>
        <time>2013-05-11T12:36:36Z</time>
      </trkpt>
      <trkpt lat="44.45131" lon="5.54267">
        <ele>788.59997558594</ele>
        <time>2013-05-11T12:36:44Z</time>
      </trkpt>
      <trkpt lat="44.45132" lon="5.5427">
        <ele>788.59997558594</ele>
        <time>2013-05-11T12:36:46Z</time>
      </trkpt>
      <trkpt lat="44.45139" lon="5.54287">
        <ele>788.59997558594</ele>
        <time>2013-05-11T12:36:53Z</time>
      </trkpt>
      <trkpt lat="44.45147" lon="5.54298">
        <ele>791</ele>
        <time>2013-05-11T12:36:58Z</time>
      </trkpt>
      <trkpt lat="44.45154" lon="5.54304">
        <ele>791</ele>
        <time>2013-05-11T12:37:02Z</time>
      </trkpt>
      <trkpt lat="44.45163" lon="5.54311">
        <ele>791</ele>
        <time>2013-05-11T12:37:08Z</time>
      </trkpt>
      <trkpt lat="44.45173" lon="5.54318">
        <ele>791</ele>
        <time>2013-05-11T12:37:11Z</time>
      </trkpt>
      <trkpt lat="44.45184" lon="5.54325">
        <ele>792.20001220703</ele>
        <time>2013-05-11T12:37:13Z</time>
      </trkpt>
      <trkpt lat="44.45196" lon="5.54335">
        <ele>792.20001220703</ele>
        <time>2013-05-11T12:37:15Z</time>
      </trkpt>
      <trkpt lat="44.45205" lon="5.54349">
        <ele>792.20001220703</ele>
        <time>2013-05-11T12:37:17Z</time>
      </trkpt>
      <trkpt lat="44.4521" lon="5.54365">
        <ele>792.20001220703</ele>
        <time>2013-05-11T12:37:20Z</time>
      </trkpt>
      <trkpt lat="44.45208" lon="5.54384">
        <ele>792.20001220703</ele>
        <time>2013-05-11T12:37:23Z</time>
      </trkpt>
      <trkpt lat="44.45204" lon="5.54396">
        <ele>792.20001220703</ele>
        <time>2013-05-11T12:37:25Z</time>
      </trkpt>
      <trkpt lat="44.45207" lon="5.54412">
        <ele>792.20001220703</ele>
        <time>2013-05-11T12:37:28Z</time>
      </trkpt>
      <trkpt lat="44.45217" lon="5.54418">
        <ele>792.20001220703</ele>
        <time>2013-05-11T12:37:32Z</time>
      </trkpt>
      <trkpt lat="44.4523" lon="5.54434">
        <ele>792.20001220703</ele>
        <time>2013-05-11T12:37:39Z</time>
      </trkpt>
      <trkpt lat="44.45238" lon="5.54445">
        <ele>792.20001220703</ele>
        <time>2013-05-11T12:37:45Z</time>
      </trkpt>
      <trkpt lat="44.45242" lon="5.54449">
        <ele>793.59997558594</ele>
        <time>2013-05-11T12:37:47Z</time>
      </trkpt>
      <trkpt lat="44.45251" lon="5.54464">
        <ele>793.59997558594</ele>
        <time>2013-05-11T12:37:53Z</time>
      </trkpt>
      <trkpt lat="44.45264" lon="5.5448">
        <ele>793.59997558594</ele>
        <time>2013-05-11T12:38:01Z</time>
      </trkpt>
      <trkpt lat="44.45281" lon="5.54496">
        <ele>793.20001220703</ele>
        <time>2013-05-11T12:38:12Z</time>
      </trkpt>
      <trkpt lat="44.45296" lon="5.5451">
        <ele>793.20001220703</ele>
        <time>2013-05-11T12:38:22Z</time>
      </trkpt>
      <trkpt lat="44.45308" lon="5.54512">
        <ele>793.20001220703</ele>
        <time>2013-05-11T12:38:30Z</time>
      </trkpt>
      <trkpt lat="44.45315" lon="5.54502">
        <ele>793</ele>
        <time>2013-05-11T12:38:36Z</time>
      </trkpt>
      <trkpt lat="44.45322" lon="5.54486">
        <ele>793</ele>
        <time>2013-05-11T12:38:44Z</time>
      </trkpt>
      <trkpt lat="44.45328" lon="5.54473">
        <ele>793.40002441406</ele>
        <time>2013-05-11T12:38:51Z</time>
      </trkpt>
      <trkpt lat="44.45337" lon="5.54451">
        <ele>793.40002441406</ele>
        <time>2013-05-11T12:39:02Z</time>
      </trkpt>
      <trkpt lat="44.45339" lon="5.54446">
        <ele>794.40002441406</ele>
        <time>2013-05-11T12:39:05Z</time>
      </trkpt>
      <trkpt lat="44.45343" lon="5.54434">
        <ele>794.40002441406</ele>
        <time>2013-05-11T12:39:11Z</time>
      </trkpt>
      <trkpt lat="44.45353" lon="5.54422">
        <ele>794.40002441406</ele>
        <time>2013-05-11T12:39:20Z</time>
      </trkpt>
      <trkpt lat="44.4536" lon="5.54428">
        <ele>795.79998779297</ele>
        <time>2013-05-11T12:39:25Z</time>
      </trkpt>
      <trkpt lat="44.45358" lon="5.54445">
        <ele>798.40002441406</ele>
        <time>2013-05-11T12:39:33Z</time>
      </trkpt>
      <trkpt lat="44.45352" lon="5.54451">
        <ele>799.59997558594</ele>
        <time>2013-05-11T12:39:36Z</time>
      </trkpt>
      <trkpt lat="44.45348" lon="5.54457">
        <ele>801</ele>
        <time>2013-05-11T12:39:40Z</time>
      </trkpt>
      <trkpt lat="44.45345" lon="5.54464">
        <ele>802.20001220703</ele>
        <time>2013-05-11T12:39:43Z</time>
      </trkpt>
      <trkpt lat="44.45343" lon="5.54472">
        <ele>803.40002441406</ele>
        <time>2013-05-11T12:39:46Z</time>
      </trkpt>
      <trkpt lat="44.45346" lon="5.54491">
        <ele>803.40002441406</ele>
        <time>2013-05-11T12:39:53Z</time>
      </trkpt>
      <trkpt lat="44.45352" lon="5.545">
        <ele>803.79998779297</ele>
        <time>2013-05-11T12:39:57Z</time>
      </trkpt>
      <trkpt lat="44.45362" lon="5.5451">
        <ele>805.59997558594</ele>
        <time>2013-05-11T12:40:04Z</time>
      </trkpt>
      <trkpt lat="44.45363" lon="5.54511">
        <ele>805.59997558594</ele>
        <time>2013-05-11T12:40:05Z</time>
      </trkpt>
      <trkpt lat="44.4537" lon="5.5452">
        <ele>806</ele>
        <time>2013-05-11T12:40:11Z</time>
      </trkpt>
      <trkpt lat="44.45373" lon="5.54527">
        <ele>806.40002441406</ele>
        <time>2013-05-11T12:40:15Z</time>
      </trkpt>
      <trkpt lat="44.45375" lon="5.54534">
        <ele>807.20001220703</ele>
        <time>2013-05-11T12:40:18Z</time>
      </trkpt>
      <trkpt lat="44.45378" lon="5.54542">
        <ele>807.59997558594</ele>
        <time>2013-05-11T12:40:22Z</time>
      </trkpt>
      <trkpt lat="44.45382" lon="5.54554">
        <ele>807.59997558594</ele>
        <time>2013-05-11T12:40:27Z</time>
      </trkpt>
      <trkpt lat="44.45388" lon="5.54566">
        <ele>808.59997558594</ele>
        <time>2013-05-11T12:40:33Z</time>
      </trkpt>
      <trkpt lat="44.45393" lon="5.54571">
        <ele>809.59997558594</ele>
        <time>2013-05-11T12:40:36Z</time>
      </trkpt>
      <trkpt lat="44.45406" lon="5.54581">
        <ele>810</ele>
        <time>2013-05-11T12:40:45Z</time>
      </trkpt>
      <trkpt lat="44.45413" lon="5.54585">
        <ele>810.79998779297</ele>
        <time>2013-05-11T12:40:50Z</time>
      </trkpt>
      <trkpt lat="44.4542" lon="5.54587">
        <ele>811.59997558594</ele>
        <time>2013-05-11T12:40:54Z</time>
      </trkpt>
      <trkpt lat="44.45427" lon="5.54591">
        <ele>812.20001220703</ele>
        <time>2013-05-11T12:40:58Z</time>
      </trkpt>
      <trkpt lat="44.45431" lon="5.54593">
        <ele>812.20001220703</ele>
        <time>2013-05-11T12:41:01Z</time>
      </trkpt>
      <trkpt lat="44.45441" lon="5.54601">
        <ele>813.40002441406</ele>
        <time>2013-05-11T12:41:08Z</time>
      </trkpt>
      <trkpt lat="44.45454" lon="5.54618">
        <ele>814.20001220703</ele>
        <time>2013-05-11T12:41:18Z</time>
      </trkpt>
      <trkpt lat="44.45455" lon="5.5462">
        <ele>815</ele>
        <time>2013-05-11T12:41:19Z</time>
      </trkpt>
      <trkpt lat="44.45463" lon="5.54634">
        <ele>816.20001220703</ele>
        <time>2013-05-11T12:41:26Z</time>
      </trkpt>
      <trkpt lat="44.45467" lon="5.54641">
        <ele>816.20001220703</ele>
        <time>2013-05-11T12:41:29Z</time>
      </trkpt>
      <trkpt lat="44.45473" lon="5.54658">
        <ele>817</ele>
        <time>2013-05-11T12:41:37Z</time>
      </trkpt>
      <trkpt lat="44.45476" lon="5.54665">
        <ele>817.79998779297</ele>
        <time>2013-05-11T12:41:40Z</time>
      </trkpt>
      <trkpt lat="44.45479" lon="5.54674">
        <ele>818.20001220703</ele>
        <time>2013-05-11T12:41:44Z</time>
      </trkpt>
      <trkpt lat="44.45487" lon="5.54691">
        <ele>818.20001220703</ele>
        <time>2013-05-11T12:41:52Z</time>
      </trkpt>
      <trkpt lat="44.45491" lon="5.54698">
        <ele>819</ele>
        <time>2013-05-11T12:41:55Z</time>
      </trkpt>
      <trkpt lat="44.45495" lon="5.54706">
        <ele>819.40002441406</ele>
        <time>2013-05-11T12:41:59Z</time>
      </trkpt>
      <trkpt lat="44.45497" lon="5.54713">
        <ele>820.20001220703</ele>
        <time>2013-05-11T12:42:02Z</time>
      </trkpt>
      <trkpt lat="44.455" lon="5.54724">
        <ele>820.20001220703</ele>
        <time>2013-05-11T12:42:07Z</time>
      </trkpt>
      <trkpt lat="44.45499" lon="5.54734">
        <ele>820.20001220703</ele>
        <time>2013-05-11T12:42:11Z</time>
      </trkpt>
      <trkpt lat="44.45499" lon="5.54741">
        <ele>820.20001220703</ele>
        <time>2013-05-11T12:42:14Z</time>
      </trkpt>
      <trkpt lat="44.45499" lon="5.54755">
        <ele>821.20001220703</ele>
        <time>2013-05-11T12:42:20Z</time>
      </trkpt>
      <trkpt lat="44.45499" lon="5.54762">
        <ele>822</ele>
        <time>2013-05-11T12:42:23Z</time>
      </trkpt>
      <trkpt lat="44.45499" lon="5.54781">
        <ele>822.79998779297</ele>
        <time>2013-05-11T12:42:30Z</time>
      </trkpt>
      <trkpt lat="44.45501" lon="5.54788">
        <ele>823.79998779297</ele>
        <time>2013-05-11T12:42:33Z</time>
      </trkpt>
      <trkpt lat="44.45501" lon="5.5479">
        <ele>823.79998779297</ele>
        <time>2013-05-11T12:42:34Z</time>
      </trkpt>
      <trkpt lat="44.45502" lon="5.54814">
        <ele>824.59997558594</ele>
        <time>2013-05-11T12:42:44Z</time>
      </trkpt>
      <trkpt lat="44.45502" lon="5.54825">
        <ele>825.59997558594</ele>
        <time>2013-05-11T12:42:49Z</time>
      </trkpt>
      <trkpt lat="44.45503" lon="5.54833">
        <ele>826.40002441406</ele>
        <time>2013-05-11T12:42:53Z</time>
      </trkpt>
      <trkpt lat="44.45509" lon="5.54846">
        <ele>826.79998779297</ele>
        <time>2013-05-11T12:42:59Z</time>
      </trkpt>
      <trkpt lat="44.45511" lon="5.54849">
        <ele>827.20001220703</ele>
        <time>2013-05-11T12:43:01Z</time>
      </trkpt>
      <trkpt lat="44.45515" lon="5.54853">
        <ele>828.20001220703</ele>
        <time>2013-05-11T12:43:04Z</time>
      </trkpt>
      <trkpt lat="44.4552" lon="5.54856">
        <ele>828.59997558594</ele>
        <time>2013-05-11T12:43:07Z</time>
      </trkpt>
      <trkpt lat="44.45531" lon="5.54862">
        <ele>829.79998779297</ele>
        <time>2013-05-11T12:43:14Z</time>
      </trkpt>
      <trkpt lat="44.45538" lon="5.54871">
        <ele>831.20001220703</ele>
        <time>2013-05-11T12:43:21Z</time>
      </trkpt>
      <trkpt lat="44.4554" lon="5.54876">
        <ele>831.59997558594</ele>
        <time>2013-05-11T12:43:24Z</time>
      </trkpt>
      <trkpt lat="44.45543" lon="5.54885">
        <ele>832.59997558594</ele>
        <time>2013-05-11T12:43:28Z</time>
      </trkpt>
      <trkpt lat="44.45545" lon="5.54891">
        <ele>833.20001220703</ele>
        <time>2013-05-11T12:43:31Z</time>
      </trkpt>
      <trkpt lat="44.45551" lon="5.54904">
        <ele>833.20001220703</ele>
        <time>2013-05-11T12:43:38Z</time>
      </trkpt>
      <trkpt lat="44.45554" lon="5.54912">
        <ele>834</ele>
        <time>2013-05-11T12:43:42Z</time>
      </trkpt>
      <trkpt lat="44.45558" lon="5.54922">
        <ele>835.40002441406</ele>
        <time>2013-05-11T12:43:48Z</time>
      </trkpt>
      <trkpt lat="44.45562" lon="5.5493">
        <ele>835.79998779297</ele>
        <time>2013-05-11T12:43:52Z</time>
      </trkpt>
      <trkpt lat="44.45564" lon="5.54935">
        <ele>835.79998779297</ele>
        <time>2013-05-11T12:43:55Z</time>
      </trkpt>
      <trkpt lat="44.45569" lon="5.54944">
        <ele>836.59997558594</ele>
        <time>2013-05-11T12:44:01Z</time>
      </trkpt>
      <trkpt lat="44.45573" lon="5.54951">
        <ele>837.40002441406</ele>
        <time>2013-05-11T12:44:05Z</time>
      </trkpt>
      <trkpt lat="44.45578" lon="5.54961">
        <ele>838.59997558594</ele>
        <time>2013-05-11T12:44:12Z</time>
      </trkpt>
      <trkpt lat="44.45581" lon="5.54967">
        <ele>839.40002441406</ele>
        <time>2013-05-11T12:44:16Z</time>
      </trkpt>
      <trkpt lat="44.45585" lon="5.54976">
        <ele>839.40002441406</ele>
        <time>2013-05-11T12:44:21Z</time>
      </trkpt>
      <trkpt lat="44.4559" lon="5.54983">
        <ele>839.79998779297</ele>
        <time>2013-05-11T12:44:26Z</time>
      </trkpt>
      <trkpt lat="44.45591" lon="5.54985">
        <ele>840.40002441406</ele>
        <time>2013-05-11T12:44:27Z</time>
      </trkpt>
      <trkpt lat="44.45593" lon="5.5499">
        <ele>841</ele>
        <time>2013-05-11T12:44:30Z</time>
      </trkpt>
      <trkpt lat="44.45597" lon="5.55002">
        <ele>842</ele>
        <time>2013-05-11T12:44:37Z</time>
      </trkpt>
      <trkpt lat="44.456" lon="5.55016">
        <ele>842.79998779297</ele>
        <time>2013-05-11T12:44:44Z</time>
      </trkpt>
      <trkpt lat="44.45602" lon="5.55021">
        <ele>843.20001220703</ele>
        <time>2013-05-11T12:44:47Z</time>
      </trkpt>
      <trkpt lat="44.45609" lon="5.55041">
        <ele>844.59997558594</ele>
        <time>2013-05-11T12:44:58Z</time>
      </trkpt>
      <trkpt lat="44.45612" lon="5.55047">
        <ele>845</ele>
        <time>2013-05-11T12:45:01Z</time>
      </trkpt>
      <trkpt lat="44.45615" lon="5.55055">
        <ele>846.20001220703</ele>
        <time>2013-05-11T12:45:05Z</time>
      </trkpt>
      <trkpt lat="44.45617" lon="5.55061">
        <ele>846.20001220703</ele>
        <time>2013-05-11T12:45:09Z</time>
      </trkpt>
      <trkpt lat="44.45622" lon="5.55072">
        <ele>847.59997558594</ele>
        <time>2013-05-11T12:45:16Z</time>
      </trkpt>
      <trkpt lat="44.45631" lon="5.55095">
        <ele>848.40002441406</ele>
        <time>2013-05-11T12:45:29Z</time>
      </trkpt>
      <trkpt lat="44.45634" lon="5.551">
        <ele>849.79998779297</ele>
        <time>2013-05-11T12:45:33Z</time>
      </trkpt>
      <trkpt lat="44.45642" lon="5.55112">
        <ele>851.20001220703</ele>
        <time>2013-05-11T12:45:41Z</time>
      </trkpt>
      <trkpt lat="44.45647" lon="5.55121">
        <ele>852.20001220703</ele>
        <time>2013-05-11T12:45:47Z</time>
      </trkpt>
      <trkpt lat="44.45651" lon="5.55127">
        <ele>853.20001220703</ele>
        <time>2013-05-11T12:45:51Z</time>
      </trkpt>
      <trkpt lat="44.45658" lon="5.55135">
        <ele>854.40002441406</ele>
        <time>2013-05-11T12:45:57Z</time>
      </trkpt>
      <trkpt lat="44.45662" lon="5.55142">
        <ele>855.40002441406</ele>
        <time>2013-05-11T12:46:01Z</time>
      </trkpt>
      <trkpt lat="44.45667" lon="5.55155">
        <ele>855.79998779297</ele>
        <time>2013-05-11T12:46:08Z</time>
      </trkpt>
      <trkpt lat="44.4567" lon="5.55161">
        <ele>856.79998779297</ele>
        <time>2013-05-11T12:46:12Z</time>
      </trkpt>
      <trkpt lat="44.45671" lon="5.55163">
        <ele>856.79998779297</ele>
        <time>2013-05-11T12:46:13Z</time>
      </trkpt>
      <trkpt lat="44.45676" lon="5.55175">
        <ele>857.59997558594</ele>
        <time>2013-05-11T12:46:20Z</time>
      </trkpt>
      <trkpt lat="44.45678" lon="5.55182">
        <ele>858.20001220703</ele>
        <time>2013-05-11T12:46:24Z</time>
      </trkpt>
      <trkpt lat="44.45681" lon="5.55187">
        <ele>858.59997558594</ele>
        <time>2013-05-11T12:46:27Z</time>
      </trkpt>
      <trkpt lat="44.45685" lon="5.55193">
        <ele>860.20001220703</ele>
        <time>2013-05-11T12:46:31Z</time>
      </trkpt>
      <trkpt lat="44.4569" lon="5.55202">
        <ele>860.59997558594</ele>
        <time>2013-05-11T12:46:37Z</time>
      </trkpt>
      <trkpt lat="44.45694" lon="5.55211">
        <ele>861.40002441406</ele>
        <time>2013-05-11T12:46:42Z</time>
      </trkpt>
      <trkpt lat="44.457" lon="5.55224">
        <ele>862.20001220703</ele>
        <time>2013-05-11T12:46:51Z</time>
      </trkpt>
      <trkpt lat="44.45706" lon="5.55232">
        <ele>862.59997558594</ele>
        <time>2013-05-11T12:46:57Z</time>
      </trkpt>
      <trkpt lat="44.45712" lon="5.5524">
        <ele>863.40002441406</ele>
        <time>2013-05-11T12:47:04Z</time>
      </trkpt>
      <trkpt lat="44.4572" lon="5.55249">
        <ele>864.79998779297</ele>
        <time>2013-05-11T12:47:12Z</time>
      </trkpt>
      <trkpt lat="44.45723" lon="5.55253">
        <ele>865.79998779297</ele>
        <time>2013-05-11T12:47:15Z</time>
      </trkpt>
      <trkpt lat="44.45726" lon="5.55262">
        <ele>866.20001220703</ele>
        <time>2013-05-11T12:47:20Z</time>
      </trkpt>
      <trkpt lat="44.45728" lon="5.55275">
        <ele>867.79998779297</ele>
        <time>2013-05-11T12:47:28Z</time>
      </trkpt>
      <trkpt lat="44.45728" lon="5.55283">
        <ele>868.79998779297</ele>
        <time>2013-05-11T12:47:32Z</time>
      </trkpt>
      <trkpt lat="44.4573" lon="5.55302">
        <ele>869.59997558594</ele>
        <time>2013-05-11T12:47:43Z</time>
      </trkpt>
      <trkpt lat="44.45734" lon="5.55311">
        <ele>870.59997558594</ele>
        <time>2013-05-11T12:47:49Z</time>
      </trkpt>
      <trkpt lat="44.4574" lon="5.55321">
        <ele>872</ele>
        <time>2013-05-11T12:47:56Z</time>
      </trkpt>
      <trkpt lat="44.45741" lon="5.55322">
        <ele>872.59997558594</ele>
        <time>2013-05-11T12:47:57Z</time>
      </trkpt>
      <trkpt lat="44.45751" lon="5.55332">
        <ele>874.59997558594</ele>
        <time>2013-05-11T12:48:06Z</time>
      </trkpt>
      <trkpt lat="44.45758" lon="5.55343">
        <ele>875.79998779297</ele>
        <time>2013-05-11T12:48:15Z</time>
      </trkpt>
      <trkpt lat="44.45764" lon="5.5535">
        <ele>876.20001220703</ele>
        <time>2013-05-11T12:48:21Z</time>
      </trkpt>
      <trkpt lat="44.45768" lon="5.5536">
        <ele>877.79998779297</ele>
        <time>2013-05-11T12:48:28Z</time>
      </trkpt>
      <trkpt lat="44.45772" lon="5.5537">
        <ele>877.79998779297</ele>
        <time>2013-05-11T12:48:33Z</time>
      </trkpt>
      <trkpt lat="44.45776" lon="5.55382">
        <ele>878.20001220703</ele>
        <time>2013-05-11T12:48:41Z</time>
      </trkpt>
      <trkpt lat="44.45781" lon="5.55393">
        <ele>879.59997558594</ele>
        <time>2013-05-11T12:48:48Z</time>
      </trkpt>
      <trkpt lat="44.45786" lon="5.55406">
        <ele>880.40002441406</ele>
        <time>2013-05-11T12:48:57Z</time>
      </trkpt>
      <trkpt lat="44.45788" lon="5.55411">
        <ele>881.20001220703</ele>
        <time>2013-05-11T12:49:01Z</time>
      </trkpt>
      <trkpt lat="44.45792" lon="5.55421">
        <ele>882.79998779297</ele>
        <time>2013-05-11T12:49:08Z</time>
      </trkpt>
      <trkpt lat="44.45795" lon="5.55431">
        <ele>884.20001220703</ele>
        <time>2013-05-11T12:49:15Z</time>
      </trkpt>
      <trkpt lat="44.45801" lon="5.55441">
        <ele>884.79998779297</ele>
        <time>2013-05-11T12:49:22Z</time>
      </trkpt>
      <trkpt lat="44.45812" lon="5.55453">
        <ele>887</ele>
        <time>2013-05-11T12:49:33Z</time>
      </trkpt>
      <trkpt lat="44.45819" lon="5.55462">
        <ele>888.40002441406</ele>
        <time>2013-05-11T12:49:40Z</time>
      </trkpt>
      <trkpt lat="44.45822" lon="5.55467">
        <ele>888.79998779297</ele>
        <time>2013-05-11T12:49:44Z</time>
      </trkpt>
      <trkpt lat="44.45828" lon="5.55482">
        <ele>889.20001220703</ele>
        <time>2013-05-11T12:49:54Z</time>
      </trkpt>
      <trkpt lat="44.45831" lon="5.55491">
        <ele>890.59997558594</ele>
        <time>2013-05-11T12:50:00Z</time>
      </trkpt>
      <trkpt lat="44.45835" lon="5.55502">
        <ele>893</ele>
        <time>2013-05-11T12:50:07Z</time>
      </trkpt>
      <trkpt lat="44.45838" lon="5.55511">
        <ele>894.20001220703</ele>
        <time>2013-05-11T12:50:13Z</time>
      </trkpt>
      <trkpt lat="44.4584" lon="5.55517">
        <ele>895</ele>
        <time>2013-05-11T12:50:17Z</time>
      </trkpt>
      <trkpt lat="44.45843" lon="5.55526">
        <ele>895.59997558594</ele>
        <time>2013-05-11T12:50:23Z</time>
      </trkpt>
      <trkpt lat="44.45845" lon="5.5553">
        <ele>896</ele>
        <time>2013-05-11T12:50:26Z</time>
      </trkpt>
      <trkpt lat="44.45855" lon="5.55543">
        <ele>898</ele>
        <time>2013-05-11T12:50:37Z</time>
      </trkpt>
      <trkpt lat="44.45863" lon="5.55548">
        <ele>899.59997558594</ele>
        <time>2013-05-11T12:50:44Z</time>
      </trkpt>
      <trkpt lat="44.45866" lon="5.55551">
        <ele>900.59997558594</ele>
        <time>2013-05-11T12:50:48Z</time>
      </trkpt>
      <trkpt lat="44.45868" lon="5.55561">
        <ele>902</ele>
        <time>2013-05-11T12:50:55Z</time>
      </trkpt>
      <trkpt lat="44.45865" lon="5.55571">
        <ele>902.40002441406</ele>
        <time>2013-05-11T12:51:01Z</time>
      </trkpt>
      <trkpt lat="44.45863" lon="5.55585">
        <ele>904.20001220703</ele>
        <time>2013-05-11T12:51:08Z</time>
      </trkpt>
      <trkpt lat="44.45863" lon="5.55591">
        <ele>904.20001220703</ele>
        <time>2013-05-11T12:51:11Z</time>
      </trkpt>
      <trkpt lat="44.45865" lon="5.55605">
        <ele>904.20001220703</ele>
        <time>2013-05-11T12:51:20Z</time>
      </trkpt>
      <trkpt lat="44.45866" lon="5.55612">
        <ele>905</ele>
        <time>2013-05-11T12:51:25Z</time>
      </trkpt>
      <trkpt lat="44.45865" lon="5.55621">
        <ele>906.79998779297</ele>
        <time>2013-05-11T12:51:33Z</time>
      </trkpt>
      <trkpt lat="44.45863" lon="5.55633">
        <ele>908.40002441406</ele>
        <time>2013-05-11T12:51:42Z</time>
      </trkpt>
      <trkpt lat="44.45861" lon="5.55648">
        <ele>908.40002441406</ele>
        <time>2013-05-11T12:51:52Z</time>
      </trkpt>
      <trkpt lat="44.45861" lon="5.55661">
        <ele>909.40002441406</ele>
        <time>2013-05-11T12:52:02Z</time>
      </trkpt>
      <trkpt lat="44.4586" lon="5.55662">
        <ele>909.40002441406</ele>
        <time>2013-05-11T12:52:03Z</time>
      </trkpt>
      <trkpt lat="44.45856" lon="5.55671">
        <ele>910.79998779297</ele>
        <time>2013-05-11T12:52:09Z</time>
      </trkpt>
      <trkpt lat="44.45853" lon="5.5568">
        <ele>913</ele>
        <time>2013-05-11T12:52:17Z</time>
      </trkpt>
      <trkpt lat="44.45848" lon="5.55685">
        <ele>913.79998779297</ele>
        <time>2013-05-11T12:52:23Z</time>
      </trkpt>
      <trkpt lat="44.4584" lon="5.55691">
        <ele>915.79998779297</ele>
        <time>2013-05-11T12:52:32Z</time>
      </trkpt>
      <trkpt lat="44.45839" lon="5.55691">
        <ele>915.79998779297</ele>
        <time>2013-05-11T12:52:33Z</time>
      </trkpt>
      <trkpt lat="44.45831" lon="5.557">
        <ele>917</ele>
        <time>2013-05-11T12:52:43Z</time>
      </trkpt>
      <trkpt lat="44.45827" lon="5.5571">
        <ele>918.20001220703</ele>
        <time>2013-05-11T12:52:50Z</time>
      </trkpt>
      <trkpt lat="44.45827" lon="5.5572">
        <ele>920.40002441406</ele>
        <time>2013-05-11T12:52:57Z</time>
      </trkpt>
      <trkpt lat="44.4583" lon="5.55725">
        <ele>921</ele>
        <time>2013-05-11T12:53:00Z</time>
      </trkpt>
      <trkpt lat="44.45831" lon="5.55731">
        <ele>922.20001220703</ele>
        <time>2013-05-11T12:53:04Z</time>
      </trkpt>
      <trkpt lat="44.45835" lon="5.55741">
        <ele>922.59997558594</ele>
        <time>2013-05-11T12:53:10Z</time>
      </trkpt>
      <trkpt lat="44.45838" lon="5.55753">
        <ele>923.79998779297</ele>
        <time>2013-05-11T12:53:17Z</time>
      </trkpt>
      <trkpt lat="44.4584" lon="5.55757">
        <ele>924.40002441406</ele>
        <time>2013-05-11T12:53:20Z</time>
      </trkpt>
      <trkpt lat="44.45842" lon="5.55761">
        <ele>924.40002441406</ele>
        <time>2013-05-11T12:53:22Z</time>
      </trkpt>
      <trkpt lat="44.45852" lon="5.55777">
        <ele>926.20001220703</ele>
        <time>2013-05-11T12:53:30Z</time>
      </trkpt>
      <trkpt lat="44.45866" lon="5.55794">
        <ele>926.20001220703</ele>
        <time>2013-05-11T12:53:39Z</time>
      </trkpt>
      <trkpt lat="44.45875" lon="5.55798">
        <ele>926.20001220703</ele>
        <time>2013-05-11T12:53:46Z</time>
      </trkpt>
      <trkpt lat="44.45881" lon="5.558">
        <ele>927.20001220703</ele>
        <time>2013-05-11T12:53:51Z</time>
      </trkpt>
      <trkpt lat="44.45882" lon="5.558">
        <ele>927.59997558594</ele>
        <time>2013-05-11T12:53:52Z</time>
      </trkpt>
      <trkpt lat="44.45891" lon="5.55816">
        <ele>928.79998779297</ele>
        <time>2013-05-11T12:54:02Z</time>
      </trkpt>
      <trkpt lat="44.45895" lon="5.55821">
        <ele>929.40002441406</ele>
        <time>2013-05-11T12:54:05Z</time>
      </trkpt>
      <trkpt lat="44.45914" lon="5.55843">
        <ele>930.79998779297</ele>
        <time>2013-05-11T12:54:18Z</time>
      </trkpt>
      <trkpt lat="44.45924" lon="5.55858">
        <ele>931.20001220703</ele>
        <time>2013-05-11T12:54:26Z</time>
      </trkpt>
      <trkpt lat="44.45925" lon="5.55862">
        <ele>931.20001220703</ele>
        <time>2013-05-11T12:54:28Z</time>
      </trkpt>
      <trkpt lat="44.45929" lon="5.5587">
        <ele>933</ele>
        <time>2013-05-11T12:54:33Z</time>
      </trkpt>
      <trkpt lat="44.45932" lon="5.55883">
        <ele>933</ele>
        <time>2013-05-11T12:54:39Z</time>
      </trkpt>
      <trkpt lat="44.45938" lon="5.55894">
        <ele>934.59997558594</ele>
        <time>2013-05-11T12:54:45Z</time>
      </trkpt>
      <trkpt lat="44.45942" lon="5.55899">
        <ele>935.59997558594</ele>
        <time>2013-05-11T12:54:48Z</time>
      </trkpt>
      <trkpt lat="44.45943" lon="5.55903">
        <ele>935.59997558594</ele>
        <time>2013-05-11T12:54:50Z</time>
      </trkpt>
      <trkpt lat="44.4594" lon="5.55924">
        <ele>935.59997558594</ele>
        <time>2013-05-11T12:54:59Z</time>
      </trkpt>
      <trkpt lat="44.45936" lon="5.55945">
        <ele>935.59997558594</ele>
        <time>2013-05-11T12:55:06Z</time>
      </trkpt>
      <trkpt lat="44.45931" lon="5.55952">
        <ele>936.40002441406</ele>
        <time>2013-05-11T12:55:09Z</time>
      </trkpt>
      <trkpt lat="44.45926" lon="5.55959">
        <ele>936.79998779297</ele>
        <time>2013-05-11T12:55:12Z</time>
      </trkpt>
      <trkpt lat="44.45925" lon="5.55962">
        <ele>937.20001220703</ele>
        <time>2013-05-11T12:55:13Z</time>
      </trkpt>
      <trkpt lat="44.45924" lon="5.55972">
        <ele>937.59997558594</ele>
        <time>2013-05-11T12:55:16Z</time>
      </trkpt>
      <trkpt lat="44.45928" lon="5.56">
        <ele>938.20001220703</ele>
        <time>2013-05-11T12:55:27Z</time>
      </trkpt>
      <trkpt lat="44.45929" lon="5.56002">
        <ele>938.20001220703</ele>
        <time>2013-05-11T12:55:28Z</time>
      </trkpt>
      <trkpt lat="44.4593" lon="5.56011">
        <ele>939.40002441406</ele>
        <time>2013-05-11T12:55:34Z</time>
      </trkpt>
      <trkpt lat="44.45931" lon="5.56023">
        <ele>940.40002441406</ele>
        <time>2013-05-11T12:55:41Z</time>
      </trkpt>
      <trkpt lat="44.45936" lon="5.56033">
        <ele>941.20001220703</ele>
        <time>2013-05-11T12:55:47Z</time>
      </trkpt>
      <trkpt lat="44.4594" lon="5.56039">
        <ele>942.40002441406</ele>
        <time>2013-05-11T12:55:52Z</time>
      </trkpt>
      <trkpt lat="44.45945" lon="5.56043">
        <ele>943.20001220703</ele>
        <time>2013-05-11T12:55:55Z</time>
      </trkpt>
      <trkpt lat="44.4595" lon="5.56047">
        <ele>944</ele>
        <time>2013-05-11T12:55:59Z</time>
      </trkpt>
      <trkpt lat="44.45959" lon="5.56053">
        <ele>944</ele>
        <time>2013-05-11T12:56:05Z</time>
      </trkpt>
      <trkpt lat="44.45969" lon="5.56058">
        <ele>944</ele>
        <time>2013-05-11T12:56:13Z</time>
      </trkpt>
      <trkpt lat="44.45975" lon="5.56063">
        <ele>944.79998779297</ele>
        <time>2013-05-11T12:56:19Z</time>
      </trkpt>
      <trkpt lat="44.45981" lon="5.56072">
        <ele>946</ele>
        <time>2013-05-11T12:56:26Z</time>
      </trkpt>
      <trkpt lat="44.45985" lon="5.56081">
        <ele>946.40002441406</ele>
        <time>2013-05-11T12:56:32Z</time>
      </trkpt>
      <trkpt lat="44.45991" lon="5.5609">
        <ele>947.79998779297</ele>
        <time>2013-05-11T12:56:38Z</time>
      </trkpt>
      <trkpt lat="44.45995" lon="5.56095">
        <ele>948.20001220703</ele>
        <time>2013-05-11T12:56:42Z</time>
      </trkpt>
      <trkpt lat="44.46004" lon="5.56104">
        <ele>948.59997558594</ele>
        <time>2013-05-11T12:56:49Z</time>
      </trkpt>
      <trkpt lat="44.46014" lon="5.5611">
        <ele>950.20001220703</ele>
        <time>2013-05-11T12:56:56Z</time>
      </trkpt>
      <trkpt lat="44.46018" lon="5.56115">
        <ele>950.20001220703</ele>
        <time>2013-05-11T12:57:00Z</time>
      </trkpt>
      <trkpt lat="44.46021" lon="5.5612">
        <ele>950.20001220703</ele>
        <time>2013-05-11T12:57:03Z</time>
      </trkpt>
      <trkpt lat="44.46021" lon="5.56131">
        <ele>950.79998779297</ele>
        <time>2013-05-11T12:57:09Z</time>
      </trkpt>
      <trkpt lat="44.4602" lon="5.5614">
        <ele>952.40002441406</ele>
        <time>2013-05-11T12:57:14Z</time>
      </trkpt>
      <trkpt lat="44.46024" lon="5.56152">
        <ele>952.40002441406</ele>
        <time>2013-05-11T12:57:22Z</time>
      </trkpt>
      <trkpt lat="44.4603" lon="5.56154">
        <ele>954.40002441406</ele>
        <time>2013-05-11T12:57:28Z</time>
      </trkpt>
      <trkpt lat="44.46044" lon="5.56152">
        <ele>956.59997558594</ele>
        <time>2013-05-11T12:57:42Z</time>
      </trkpt>
      <trkpt lat="44.4605" lon="5.56156">
        <ele>958.20001220703</ele>
        <time>2013-05-11T12:57:49Z</time>
      </trkpt>
      <trkpt lat="44.46058" lon="5.56162">
        <ele>959.79998779297</ele>
        <time>2013-05-11T12:57:58Z</time>
      </trkpt>
      <trkpt lat="44.46061" lon="5.56165">
        <ele>960.79998779297</ele>
        <time>2013-05-11T12:58:02Z</time>
      </trkpt>
      <trkpt lat="44.46066" lon="5.56171">
        <ele>961.59997558594</ele>
        <time>2013-05-11T12:58:09Z</time>
      </trkpt>
      <trkpt lat="44.46072" lon="5.56176">
        <ele>962.79998779297</ele>
        <time>2013-05-11T12:58:16Z</time>
      </trkpt>
      <trkpt lat="44.46077" lon="5.56181">
        <ele>963.59997558594</ele>
        <time>2013-05-11T12:58:23Z</time>
      </trkpt>
      <trkpt lat="44.46082" lon="5.56187">
        <ele>964.40002441406</ele>
        <time>2013-05-11T12:58:30Z</time>
      </trkpt>
      <trkpt lat="44.46083" lon="5.5619">
        <ele>964.40002441406</ele>
        <time>2013-05-11T12:58:33Z</time>
      </trkpt>
      <trkpt lat="44.46088" lon="5.56201">
        <ele>965.79998779297</ele>
        <time>2013-05-11T12:58:42Z</time>
      </trkpt>
      <trkpt lat="44.46091" lon="5.56214">
        <ele>967.40002441406</ele>
        <time>2013-05-11T12:58:51Z</time>
      </trkpt>
      <trkpt lat="44.46096" lon="5.5623">
        <ele>967.79998779297</ele>
        <time>2013-05-11T12:59:01Z</time>
      </trkpt>
      <trkpt lat="44.46098" lon="5.56241">
        <ele>968.79998779297</ele>
        <time>2013-05-11T12:59:08Z</time>
      </trkpt>
      <trkpt lat="44.461" lon="5.56253">
        <ele>970</ele>
        <time>2013-05-11T12:59:16Z</time>
      </trkpt>
      <trkpt lat="44.46102" lon="5.56264">
        <ele>970.40002441406</ele>
        <time>2013-05-11T12:59:23Z</time>
      </trkpt>
      <trkpt lat="44.46103" lon="5.56273">
        <ele>972.20001220703</ele>
        <time>2013-05-11T12:59:29Z</time>
      </trkpt>
      <trkpt lat="44.46103" lon="5.56281">
        <ele>972.20001220703</ele>
        <time>2013-05-11T12:59:34Z</time>
      </trkpt>
      <trkpt lat="44.46098" lon="5.56294">
        <ele>974.20001220703</ele>
        <time>2013-05-11T12:59:43Z</time>
      </trkpt>
      <trkpt lat="44.46094" lon="5.56304">
        <ele>974.59997558594</ele>
        <time>2013-05-11T12:59:50Z</time>
      </trkpt>
      <trkpt lat="44.46091" lon="5.56313">
        <ele>976.20001220703</ele>
        <time>2013-05-11T12:59:57Z</time>
      </trkpt>
      <trkpt lat="44.46085" lon="5.56337">
        <ele>976.20001220703</ele>
        <time>2013-05-11T13:00:12Z</time>
      </trkpt>
      <trkpt lat="44.46084" lon="5.56342">
        <ele>977</ele>
        <time>2013-05-11T13:00:15Z</time>
      </trkpt>
      <trkpt lat="44.46083" lon="5.56351">
        <ele>977.40002441406</ele>
        <time>2013-05-11T13:00:20Z</time>
      </trkpt>
      <trkpt lat="44.4608" lon="5.56362">
        <ele>978.40002441406</ele>
        <time>2013-05-11T13:00:28Z</time>
      </trkpt>
      <trkpt lat="44.46077" lon="5.56374">
        <ele>979.20001220703</ele>
        <time>2013-05-11T13:00:36Z</time>
      </trkpt>
      <trkpt lat="44.46074" lon="5.56386">
        <ele>980.40002441406</ele>
        <time>2013-05-11T13:00:43Z</time>
      </trkpt>
      <trkpt lat="44.4607" lon="5.56404">
        <ele>980.79998779297</ele>
        <time>2013-05-11T13:00:53Z</time>
      </trkpt>
      <trkpt lat="44.4607" lon="5.56411">
        <ele>981.79998779297</ele>
        <time>2013-05-11T13:00:57Z</time>
      </trkpt>
      <trkpt lat="44.46068" lon="5.56422">
        <ele>983</ele>
        <time>2013-05-11T13:01:04Z</time>
      </trkpt>
      <trkpt lat="44.46065" lon="5.56433">
        <ele>984.59997558594</ele>
        <time>2013-05-11T13:01:11Z</time>
      </trkpt>
      <trkpt lat="44.46061" lon="5.56457">
        <ele>985</ele>
        <time>2013-05-11T13:01:25Z</time>
      </trkpt>
      <trkpt lat="44.46061" lon="5.56461">
        <ele>985.79998779297</ele>
        <time>2013-05-11T13:01:28Z</time>
      </trkpt>
      <trkpt lat="44.46071" lon="5.56464">
        <ele>986.79998779297</ele>
        <time>2013-05-11T13:01:40Z</time>
      </trkpt>
      <trkpt lat="44.46074" lon="5.56457">
        <ele>986.79998779297</ele>
        <time>2013-05-11T13:01:44Z</time>
      </trkpt>
      <trkpt lat="44.46075" lon="5.56448">
        <ele>987.59997558594</ele>
        <time>2013-05-11T13:01:49Z</time>
      </trkpt>
      <trkpt lat="44.46079" lon="5.56435">
        <ele>988.79998779297</ele>
        <time>2013-05-11T13:01:57Z</time>
      </trkpt>
      <trkpt lat="44.46082" lon="5.56424">
        <ele>989.59997558594</ele>
        <time>2013-05-11T13:02:03Z</time>
      </trkpt>
      <trkpt lat="44.46084" lon="5.56418">
        <ele>989.59997558594</ele>
        <time>2013-05-11T13:02:06Z</time>
      </trkpt>
      <trkpt lat="44.46092" lon="5.56405">
        <ele>991</ele>
        <time>2013-05-11T13:02:16Z</time>
      </trkpt>
      <trkpt lat="44.46102" lon="5.56394">
        <ele>991</ele>
        <time>2013-05-11T13:02:26Z</time>
      </trkpt>
      <trkpt lat="44.46109" lon="5.56382">
        <ele>991.79998779297</ele>
        <time>2013-05-11T13:02:35Z</time>
      </trkpt>
      <trkpt lat="44.46112" lon="5.56378">
        <ele>992.59997558594</ele>
        <time>2013-05-11T13:02:38Z</time>
      </trkpt>
      <trkpt lat="44.46119" lon="5.56363">
        <ele>993</ele>
        <time>2013-05-11T13:02:48Z</time>
      </trkpt>
      <trkpt lat="44.46125" lon="5.56359">
        <ele>993.59997558594</ele>
        <time>2013-05-11T13:02:52Z</time>
      </trkpt>
      <trkpt lat="44.46131" lon="5.5635">
        <ele>995.20001220703</ele>
        <time>2013-05-11T13:02:59Z</time>
      </trkpt>
      <trkpt lat="44.46136" lon="5.56333">
        <ele>995.59997558594</ele>
        <time>2013-05-11T13:03:10Z</time>
      </trkpt>
      <trkpt lat="44.46138" lon="5.56329">
        <ele>996</ele>
        <time>2013-05-11T13:03:13Z</time>
      </trkpt>
      <trkpt lat="44.46142" lon="5.56324">
        <ele>996.79998779297</ele>
        <time>2013-05-11T13:03:17Z</time>
      </trkpt>
      <trkpt lat="44.46149" lon="5.56315">
        <ele>998.20001220703</ele>
        <time>2013-05-11T13:03:24Z</time>
      </trkpt>
      <trkpt lat="44.46152" lon="5.56312">
        <ele>999</ele>
        <time>2013-05-11T13:03:27Z</time>
      </trkpt>
      <trkpt lat="44.46156" lon="5.56308">
        <ele>999.59997558594</ele>
        <time>2013-05-11T13:03:31Z</time>
      </trkpt>
      <trkpt lat="44.46162" lon="5.56303">
        <ele>1000</ele>
        <time>2013-05-11T13:03:38Z</time>
      </trkpt>
      <trkpt lat="44.46167" lon="5.56312">
        <ele>1001.799987793</ele>
        <time>2013-05-11T13:03:47Z</time>
      </trkpt>
      <trkpt lat="44.46158" lon="5.5632">
        <ele>1001.799987793</ele>
        <time>2013-05-11T13:03:55Z</time>
      </trkpt>
      <trkpt lat="44.46156" lon="5.56323">
        <ele>1002.200012207</ele>
        <time>2013-05-11T13:03:58Z</time>
      </trkpt>
      <trkpt lat="44.4615" lon="5.56332">
        <ele>1003.5999755859</ele>
        <time>2013-05-11T13:04:05Z</time>
      </trkpt>
      <trkpt lat="44.46148" lon="5.5635">
        <ele>1004.5999755859</ele>
        <time>2013-05-11T13:04:16Z</time>
      </trkpt>
      <trkpt lat="44.46148" lon="5.5636">
        <ele>1006</ele>
        <time>2013-05-11T13:04:22Z</time>
      </trkpt>
      <trkpt lat="44.46143" lon="5.56375">
        <ele>1008.200012207</ele>
        <time>2013-05-11T13:04:32Z</time>
      </trkpt>
      <trkpt lat="44.4614" lon="5.56383">
        <ele>1008.5999755859</ele>
        <time>2013-05-11T13:04:38Z</time>
      </trkpt>
      <trkpt lat="44.46136" lon="5.56394">
        <ele>1009.200012207</ele>
        <time>2013-05-11T13:04:46Z</time>
      </trkpt>
      <trkpt lat="44.46133" lon="5.56405">
        <ele>1010.4000244141</ele>
        <time>2013-05-11T13:04:53Z</time>
      </trkpt>
      <trkpt lat="44.46132" lon="5.5641">
        <ele>1011</ele>
        <time>2013-05-11T13:04:56Z</time>
      </trkpt>
      <trkpt lat="44.4613" lon="5.56415">
        <ele>1011</ele>
        <time>2013-05-11T13:04:59Z</time>
      </trkpt>
      <trkpt lat="44.46128" lon="5.56421">
        <ele>1011.4000244141</ele>
        <time>2013-05-11T13:05:03Z</time>
      </trkpt>
      <trkpt lat="44.46126" lon="5.56432">
        <ele>1013.200012207</ele>
        <time>2013-05-11T13:05:10Z</time>
      </trkpt>
      <trkpt lat="44.46122" lon="5.56442">
        <ele>1013.5999755859</ele>
        <time>2013-05-11T13:05:17Z</time>
      </trkpt>
      <trkpt lat="44.4612" lon="5.56449">
        <ele>1014.799987793</ele>
        <time>2013-05-11T13:05:21Z</time>
      </trkpt>
      <trkpt lat="44.46117" lon="5.56454">
        <ele>1015.200012207</ele>
        <time>2013-05-11T13:05:24Z</time>
      </trkpt>
      <trkpt lat="44.46113" lon="5.56468">
        <ele>1015.799987793</ele>
        <time>2013-05-11T13:05:32Z</time>
      </trkpt>
      <trkpt lat="44.46112" lon="5.56473">
        <ele>1016.5999755859</ele>
        <time>2013-05-11T13:05:35Z</time>
      </trkpt>
      <trkpt lat="44.4611" lon="5.56479">
        <ele>1017.4000244141</ele>
        <time>2013-05-11T13:05:39Z</time>
      </trkpt>
      <trkpt lat="44.46106" lon="5.56488">
        <ele>1017.799987793</ele>
        <time>2013-05-11T13:05:45Z</time>
      </trkpt>
      <trkpt lat="44.46104" lon="5.56493">
        <ele>1018.4000244141</ele>
        <time>2013-05-11T13:05:48Z</time>
      </trkpt>
      <trkpt lat="44.46098" lon="5.56506">
        <ele>1019.5999755859</ele>
        <time>2013-05-11T13:05:58Z</time>
      </trkpt>
      <trkpt lat="44.46096" lon="5.56514">
        <ele>1021</ele>
        <time>2013-05-11T13:06:03Z</time>
      </trkpt>
      <trkpt lat="44.46094" lon="5.56521">
        <ele>1021.799987793</ele>
        <time>2013-05-11T13:06:07Z</time>
      </trkpt>
      <trkpt lat="44.46094" lon="5.56536">
        <ele>1021.799987793</ele>
        <time>2013-05-11T13:06:15Z</time>
      </trkpt>
      <trkpt lat="44.46096" lon="5.56542">
        <ele>1022.200012207</ele>
        <time>2013-05-11T13:06:19Z</time>
      </trkpt>
      <trkpt lat="44.46102" lon="5.56554">
        <ele>1024</ele>
        <time>2013-05-11T13:06:30Z</time>
      </trkpt>
      <trkpt lat="44.46103" lon="5.5656">
        <ele>1024.8000488281</ele>
        <time>2013-05-11T13:06:37Z</time>
      </trkpt>
      <trkpt lat="44.46105" lon="5.56572">
        <ele>1026.5999755859</ele>
        <time>2013-05-11T13:06:48Z</time>
      </trkpt>
      <trkpt lat="44.46109" lon="5.56582">
        <ele>1027.8000488281</ele>
        <time>2013-05-11T13:06:54Z</time>
      </trkpt>
      <trkpt lat="44.46114" lon="5.56599">
        <ele>1028.5999755859</ele>
        <time>2013-05-11T13:07:02Z</time>
      </trkpt>
      <trkpt lat="44.46115" lon="5.56604">
        <ele>1029.5999755859</ele>
        <time>2013-05-11T13:07:05Z</time>
      </trkpt>
      <trkpt lat="44.46111" lon="5.56614">
        <ele>1030.4000244141</ele>
        <time>2013-05-11T13:07:14Z</time>
      </trkpt>
      <trkpt lat="44.4611" lon="5.56614">
        <ele>1030.4000244141</ele>
        <time>2013-05-11T13:07:15Z</time>
      </trkpt>
      <trkpt lat="44.46093" lon="5.5662">
        <ele>1030.4000244141</ele>
        <time>2013-05-11T13:07:32Z</time>
      </trkpt>
      <trkpt lat="44.46089" lon="5.56624">
        <ele>1031.1999511719</ele>
        <time>2013-05-11T13:07:36Z</time>
      </trkpt>
      <trkpt lat="44.46077" lon="5.56625">
        <ele>1032.4000244141</ele>
        <time>2013-05-11T13:07:47Z</time>
      </trkpt>
      <trkpt lat="44.4607" lon="5.56627">
        <ele>1033.1999511719</ele>
        <time>2013-05-11T13:07:54Z</time>
      </trkpt>
      <trkpt lat="44.46068" lon="5.56636">
        <ele>1036.4000244141</ele>
        <time>2013-05-11T13:10:25Z</time>
      </trkpt>
      <trkpt lat="44.46059" lon="5.5664">
        <ele>1036.4000244141</ele>
        <time>2013-05-11T13:10:33Z</time>
      </trkpt>
      <trkpt lat="44.46049" lon="5.56647">
        <ele>1038.8000488281</ele>
        <time>2013-05-11T13:10:44Z</time>
      </trkpt>
      <trkpt lat="44.46037" lon="5.56652">
        <ele>1039.1999511719</ele>
        <time>2013-05-11T13:10:55Z</time>
      </trkpt>
      <trkpt lat="44.46023" lon="5.56661">
        <ele>1041.4000244141</ele>
        <time>2013-05-11T13:11:12Z</time>
      </trkpt>
      <trkpt lat="44.4602" lon="5.56663">
        <ele>1042.1999511719</ele>
        <time>2013-05-11T13:11:16Z</time>
      </trkpt>
      <trkpt lat="44.46009" lon="5.56672">
        <ele>1044.8000488281</ele>
        <time>2013-05-11T13:11:33Z</time>
      </trkpt>
      <trkpt lat="44.46013" lon="5.5668">
        <ele>1045.1999511719</ele>
        <time>2013-05-11T13:11:49Z</time>
      </trkpt>
      <trkpt lat="44.46021" lon="5.56672">
        <ele>1047.1999511719</ele>
        <time>2013-05-11T13:12:38Z</time>
      </trkpt>
      <trkpt lat="44.46039" lon="5.56668">
        <ele>1047.1999511719</ele>
        <time>2013-05-11T13:13:00Z</time>
      </trkpt>
      <trkpt lat="44.46045" lon="5.56668">
        <ele>1047.1999511719</ele>
        <time>2013-05-11T13:13:06Z</time>
      </trkpt>
      <trkpt lat="44.46056" lon="5.56674">
        <ele>1047.1999511719</ele>
        <time>2013-05-11T13:13:15Z</time>
      </trkpt>
      <trkpt lat="44.46064" lon="5.5668">
        <ele>1047.8000488281</ele>
        <time>2013-05-11T13:13:22Z</time>
      </trkpt>
      <trkpt lat="44.46065" lon="5.56681">
        <ele>1047.8000488281</ele>
        <time>2013-05-11T13:13:23Z</time>
      </trkpt>
      <trkpt lat="44.46072" lon="5.56687">
        <ele>1049.5999755859</ele>
        <time>2013-05-11T13:13:29Z</time>
      </trkpt>
      <trkpt lat="44.46082" lon="5.56691">
        <ele>1050</ele>
        <time>2013-05-11T13:13:39Z</time>
      </trkpt>
      <trkpt lat="44.46091" lon="5.56698">
        <ele>1052</ele>
        <time>2013-05-11T13:13:47Z</time>
      </trkpt>
      <trkpt lat="44.46101" lon="5.56695">
        <ele>1053.5999755859</ele>
        <time>2013-05-11T13:13:58Z</time>
      </trkpt>
      <trkpt lat="44.46114" lon="5.56697">
        <ele>1054</ele>
        <time>2013-05-11T13:14:06Z</time>
      </trkpt>
      <trkpt lat="44.46121" lon="5.56692">
        <ele>1055.4000244141</ele>
        <time>2013-05-11T13:14:12Z</time>
      </trkpt>
      <trkpt lat="44.4613" lon="5.5669">
        <ele>1056.1999511719</ele>
        <time>2013-05-11T13:14:19Z</time>
      </trkpt>
      <trkpt lat="44.46139" lon="5.56702">
        <ele>1056.1999511719</ele>
        <time>2013-05-11T13:14:26Z</time>
      </trkpt>
      <trkpt lat="44.4613" lon="5.56708">
        <ele>1058.4000244141</ele>
        <time>2013-05-11T13:14:35Z</time>
      </trkpt>
      <trkpt lat="44.46116" lon="5.56711">
        <ele>1059</ele>
        <time>2013-05-11T13:14:48Z</time>
      </trkpt>
      <trkpt lat="44.46108" lon="5.56718">
        <ele>1060.5999755859</ele>
        <time>2013-05-11T13:14:56Z</time>
      </trkpt>
      <trkpt lat="44.46096" lon="5.56722">
        <ele>1061.5999755859</ele>
        <time>2013-05-11T13:15:06Z</time>
      </trkpt>
      <trkpt lat="44.46088" lon="5.56724">
        <ele>1062.8000488281</ele>
        <time>2013-05-11T13:15:13Z</time>
      </trkpt>
      <trkpt lat="44.46079" lon="5.5673">
        <ele>1064.1999511719</ele>
        <time>2013-05-11T13:15:21Z</time>
      </trkpt>
      <trkpt lat="44.46074" lon="5.56733">
        <ele>1065.1999511719</ele>
        <time>2013-05-11T13:15:24Z</time>
      </trkpt>
      <trkpt lat="44.46065" lon="5.56746">
        <ele>1066</ele>
        <time>2013-05-11T13:15:34Z</time>
      </trkpt>
      <trkpt lat="44.46059" lon="5.56749">
        <ele>1067</ele>
        <time>2013-05-11T13:15:38Z</time>
      </trkpt>
      <trkpt lat="44.46055" lon="5.56751">
        <ele>1067.4000244141</ele>
        <time>2013-05-11T13:15:41Z</time>
      </trkpt>
      <trkpt lat="44.46049" lon="5.56754">
        <ele>1067.4000244141</ele>
        <time>2013-05-11T13:15:45Z</time>
      </trkpt>
      <trkpt lat="44.46039" lon="5.56761">
        <ele>1069</ele>
        <time>2013-05-11T13:15:55Z</time>
      </trkpt>
      <trkpt lat="44.46027" lon="5.56773">
        <ele>1070.4000244141</ele>
        <time>2013-05-11T13:16:08Z</time>
      </trkpt>
      <trkpt lat="44.46022" lon="5.56782">
        <ele>1071.5999755859</ele>
        <time>2013-05-11T13:16:15Z</time>
      </trkpt>
      <trkpt lat="44.46032" lon="5.56785">
        <ele>1071.5999755859</ele>
        <time>2013-05-11T13:16:23Z</time>
      </trkpt>
      <trkpt lat="44.46043" lon="5.56777">
        <ele>1072.1999511719</ele>
        <time>2013-05-11T13:16:33Z</time>
      </trkpt>
      <trkpt lat="44.46051" lon="5.56771">
        <ele>1074.1999511719</ele>
        <time>2013-05-11T13:16:40Z</time>
      </trkpt>
      <trkpt lat="44.46065" lon="5.56766">
        <ele>1074.5999755859</ele>
        <time>2013-05-11T13:16:52Z</time>
      </trkpt>
      <trkpt lat="44.46074" lon="5.56763">
        <ele>1076.1999511719</ele>
        <time>2013-05-11T13:16:58Z</time>
      </trkpt>
      <trkpt lat="44.4608" lon="5.56759">
        <ele>1076.5999755859</ele>
        <time>2013-05-11T13:17:02Z</time>
      </trkpt>
      <trkpt lat="44.46094" lon="5.56764">
        <ele>1078.4000244141</ele>
        <time>2013-05-11T13:17:15Z</time>
      </trkpt>
      <trkpt lat="44.46091" lon="5.56772">
        <ele>1078.4000244141</ele>
        <time>2013-05-11T13:17:21Z</time>
      </trkpt>
      <trkpt lat="44.46089" lon="5.56774">
        <ele>1078.4000244141</ele>
        <time>2013-05-11T13:17:23Z</time>
      </trkpt>
      <trkpt lat="44.4608" lon="5.56778">
        <ele>1079.8000488281</ele>
        <time>2013-05-11T13:17:31Z</time>
      </trkpt>
      <trkpt lat="44.46076" lon="5.56782">
        <ele>1080.1999511719</ele>
        <time>2013-05-11T13:17:34Z</time>
      </trkpt>
      <trkpt lat="44.4607" lon="5.56792">
        <ele>1080.5999755859</ele>
        <time>2013-05-11T13:17:41Z</time>
      </trkpt>
      <trkpt lat="44.46065" lon="5.56802">
        <ele>1081.8000488281</ele>
        <time>2013-05-11T13:17:48Z</time>
      </trkpt>
      <trkpt lat="44.46056" lon="5.56815">
        <ele>1082.5999755859</ele>
        <time>2013-05-11T13:17:58Z</time>
      </trkpt>
      <trkpt lat="44.46047" lon="5.56821">
        <ele>1083.8000488281</ele>
        <time>2013-05-11T13:18:05Z</time>
      </trkpt>
      <trkpt lat="44.46035" lon="5.56827">
        <ele>1085.1999511719</ele>
        <time>2013-05-11T13:18:15Z</time>
      </trkpt>
      <trkpt lat="44.46029" lon="5.56834">
        <ele>1087</ele>
        <time>2013-05-11T13:18:22Z</time>
      </trkpt>
      <trkpt lat="44.46035" lon="5.56842">
        <ele>1087.4000244141</ele>
        <time>2013-05-11T13:18:29Z</time>
      </trkpt>
      <trkpt lat="44.46041" lon="5.56844">
        <ele>1088.4000244141</ele>
        <time>2013-05-11T13:18:35Z</time>
      </trkpt>
      <trkpt lat="44.46051" lon="5.56844">
        <ele>1089.8000488281</ele>
        <time>2013-05-11T13:18:43Z</time>
      </trkpt>
      <trkpt lat="44.46066" lon="5.56839">
        <ele>1092</ele>
        <time>2013-05-11T13:18:56Z</time>
      </trkpt>
      <trkpt lat="44.46071" lon="5.56838">
        <ele>1092.4000244141</ele>
        <time>2013-05-11T13:19:00Z</time>
      </trkpt>
      <trkpt lat="44.4608" lon="5.56834">
        <ele>1094.1999511719</ele>
        <time>2013-05-11T13:19:07Z</time>
      </trkpt>
      <trkpt lat="44.46091" lon="5.56827">
        <ele>1094.1999511719</ele>
        <time>2013-05-11T13:19:16Z</time>
      </trkpt>
      <trkpt lat="44.46101" lon="5.56828">
        <ele>1096.4000244141</ele>
        <time>2013-05-11T13:19:24Z</time>
      </trkpt>
      <trkpt lat="44.46111" lon="5.56835">
        <ele>1096.4000244141</ele>
        <time>2013-05-11T13:19:32Z</time>
      </trkpt>
      <trkpt lat="44.46116" lon="5.56843">
        <ele>1096.8000488281</ele>
        <time>2013-05-11T13:19:38Z</time>
      </trkpt>
      <trkpt lat="44.46122" lon="5.56848">
        <ele>1098.5999755859</ele>
        <time>2013-05-11T13:19:45Z</time>
      </trkpt>
      <trkpt lat="44.46124" lon="5.5685">
        <ele>1098.5999755859</ele>
        <time>2013-05-11T13:19:47Z</time>
      </trkpt>
      <trkpt lat="44.46134" lon="5.56857">
        <ele>1098.5999755859</ele>
        <time>2013-05-11T13:19:57Z</time>
      </trkpt>
      <trkpt lat="44.4614" lon="5.56857">
        <ele>1100</ele>
        <time>2013-05-11T13:20:02Z</time>
      </trkpt>
      <trkpt lat="44.46157" lon="5.5685">
        <ele>1101</ele>
        <time>2013-05-11T13:20:13Z</time>
      </trkpt>
      <trkpt lat="44.4616" lon="5.56846">
        <ele>1101.4000244141</ele>
        <time>2013-05-11T13:20:16Z</time>
      </trkpt>
      <trkpt lat="44.46165" lon="5.56839">
        <ele>1102.5999755859</ele>
        <time>2013-05-11T13:20:22Z</time>
      </trkpt>
      <trkpt lat="44.46176" lon="5.56828">
        <ele>1103</ele>
        <time>2013-05-11T13:20:33Z</time>
      </trkpt>
      <trkpt lat="44.46181" lon="5.56829">
        <ele>1103.4000244141</ele>
        <time>2013-05-11T13:20:37Z</time>
      </trkpt>
      <trkpt lat="44.46186" lon="5.56831">
        <ele>1104.4000244141</ele>
        <time>2013-05-11T13:20:42Z</time>
      </trkpt>
      <trkpt lat="44.46183" lon="5.5684">
        <ele>1104.8000488281</ele>
        <time>2013-05-11T13:20:48Z</time>
      </trkpt>
      <trkpt lat="44.46178" lon="5.56846">
        <ele>1105.1999511719</ele>
        <time>2013-05-11T13:20:53Z</time>
      </trkpt>
      <trkpt lat="44.46169" lon="5.56853">
        <ele>1105.5999755859</ele>
        <time>2013-05-11T13:21:00Z</time>
      </trkpt>
      <trkpt lat="44.46161" lon="5.56863">
        <ele>1107.1999511719</ele>
        <time>2013-05-11T13:21:07Z</time>
      </trkpt>
      <trkpt lat="44.46157" lon="5.56868">
        <ele>1107.1999511719</ele>
        <time>2013-05-11T13:21:11Z</time>
      </trkpt>
      <trkpt lat="44.46149" lon="5.56877">
        <ele>1107.1999511719</ele>
        <time>2013-05-11T13:21:19Z</time>
      </trkpt>
      <trkpt lat="44.46141" lon="5.56885">
        <ele>1107.5999755859</ele>
        <time>2013-05-11T13:21:25Z</time>
      </trkpt>
      <trkpt lat="44.46137" lon="5.56888">
        <ele>1108</ele>
        <time>2013-05-11T13:21:28Z</time>
      </trkpt>
      <trkpt lat="44.46134" lon="5.56892">
        <ele>1108.4000244141</ele>
        <time>2013-05-11T13:21:31Z</time>
      </trkpt>
      <trkpt lat="44.4613" lon="5.56896">
        <ele>1109.4000244141</ele>
        <time>2013-05-11T13:21:35Z</time>
      </trkpt>
      <trkpt lat="44.46117" lon="5.56903">
        <ele>1109.8000488281</ele>
        <time>2013-05-11T13:21:45Z</time>
      </trkpt>
      <trkpt lat="44.46107" lon="5.56907">
        <ele>1111.4000244141</ele>
        <time>2013-05-11T13:21:52Z</time>
      </trkpt>
      <trkpt lat="44.461" lon="5.56913">
        <ele>1112</ele>
        <time>2013-05-11T13:21:59Z</time>
      </trkpt>
      <trkpt lat="44.46093" lon="5.5692">
        <ele>1113.8000488281</ele>
        <time>2013-05-11T13:22:06Z</time>
      </trkpt>
      <trkpt lat="44.4608" lon="5.56925">
        <ele>1113.8000488281</ele>
        <time>2013-05-11T13:22:14Z</time>
      </trkpt>
      <trkpt lat="44.46078" lon="5.56925">
        <ele>1114.1999511719</ele>
        <time>2013-05-11T13:22:16Z</time>
      </trkpt>
      <trkpt lat="44.46068" lon="5.56927">
        <ele>1115.5999755859</ele>
        <time>2013-05-11T13:22:23Z</time>
      </trkpt>
      <trkpt lat="44.46056" lon="5.56922">
        <ele>1116.4000244141</ele>
        <time>2013-05-11T13:22:31Z</time>
      </trkpt>
      <trkpt lat="44.46049" lon="5.56922">
        <ele>1117.1999511719</ele>
        <time>2013-05-11T13:22:36Z</time>
      </trkpt>
      <trkpt lat="44.46041" lon="5.56931">
        <ele>1118.5999755859</ele>
        <time>2013-05-11T13:22:45Z</time>
      </trkpt>
      <trkpt lat="44.46037" lon="5.56934">
        <ele>1119</ele>
        <time>2013-05-11T13:22:48Z</time>
      </trkpt>
      <trkpt lat="44.46034" lon="5.56941">
        <ele>1120</ele>
        <time>2013-05-11T13:22:52Z</time>
      </trkpt>
      <trkpt lat="44.4603" lon="5.5695">
        <ele>1121.4000244141</ele>
        <time>2013-05-11T13:22:59Z</time>
      </trkpt>
      <trkpt lat="44.4603" lon="5.56952">
        <ele>1121.4000244141</ele>
        <time>2013-05-11T13:23:00Z</time>
      </trkpt>
      <trkpt lat="44.46025" lon="5.56961">
        <ele>1122.8000488281</ele>
        <time>2013-05-11T13:23:06Z</time>
      </trkpt>
      <trkpt lat="44.46021" lon="5.5697">
        <ele>1124</ele>
        <time>2013-05-11T13:23:12Z</time>
      </trkpt>
      <trkpt lat="44.46017" lon="5.56981">
        <ele>1125.4000244141</ele>
        <time>2013-05-11T13:23:19Z</time>
      </trkpt>
      <trkpt lat="44.46013" lon="5.56991">
        <ele>1126.5999755859</ele>
        <time>2013-05-11T13:23:26Z</time>
      </trkpt>
      <trkpt lat="44.46008" lon="5.57">
        <ele>1127.4000244141</ele>
        <time>2013-05-11T13:23:33Z</time>
      </trkpt>
      <trkpt lat="44.45996" lon="5.57011">
        <ele>1129.4000244141</ele>
        <time>2013-05-11T13:23:42Z</time>
      </trkpt>
      <trkpt lat="44.45989" lon="5.57017">
        <ele>1130.4000244141</ele>
        <time>2013-05-11T13:23:48Z</time>
      </trkpt>
      <trkpt lat="44.4598" lon="5.57025">
        <ele>1131.8000488281</ele>
        <time>2013-05-11T13:23:57Z</time>
      </trkpt>
      <trkpt lat="44.45979" lon="5.57028">
        <ele>1131.8000488281</ele>
        <time>2013-05-11T13:23:59Z</time>
      </trkpt>
      <trkpt lat="44.45972" lon="5.57031">
        <ele>1133.4000244141</ele>
        <time>2013-05-11T13:24:06Z</time>
      </trkpt>
      <trkpt lat="44.45966" lon="5.57033">
        <ele>1134</ele>
        <time>2013-05-11T13:24:11Z</time>
      </trkpt>
      <trkpt lat="44.45956" lon="5.57039">
        <ele>1135.5999755859</ele>
        <time>2013-05-11T13:24:21Z</time>
      </trkpt>
      <trkpt lat="44.45948" lon="5.57043">
        <ele>1136.5999755859</ele>
        <time>2013-05-11T13:24:28Z</time>
      </trkpt>
      <trkpt lat="44.45939" lon="5.57049">
        <ele>1138.1999511719</ele>
        <time>2013-05-11T13:24:37Z</time>
      </trkpt>
      <trkpt lat="44.45937" lon="5.57051">
        <ele>1138.1999511719</ele>
        <time>2013-05-11T13:24:40Z</time>
      </trkpt>
      <trkpt lat="44.45926" lon="5.57059">
        <ele>1138.5999755859</ele>
        <time>2013-05-11T13:24:48Z</time>
      </trkpt>
      <trkpt lat="44.45922" lon="5.57061">
        <ele>1139.1999511719</ele>
        <time>2013-05-11T13:24:51Z</time>
      </trkpt>
      <trkpt lat="44.4592" lon="5.57062">
        <ele>1139.1999511719</ele>
        <time>2013-05-11T13:24:53Z</time>
      </trkpt>
      <trkpt lat="44.45913" lon="5.57071">
        <ele>1140.4000244141</ele>
        <time>2013-05-11T13:25:00Z</time>
      </trkpt>
      <trkpt lat="44.45907" lon="5.57081">
        <ele>1140.4000244141</ele>
        <time>2013-05-11T13:25:08Z</time>
      </trkpt>
      <trkpt lat="44.45899" lon="5.57085">
        <ele>1140.4000244141</ele>
        <time>2013-05-11T13:25:14Z</time>
      </trkpt>
      <trkpt lat="44.45889" lon="5.57089">
        <ele>1141.4000244141</ele>
        <time>2013-05-11T13:25:21Z</time>
      </trkpt>
      <trkpt lat="44.45887" lon="5.5709">
        <ele>1142.4000244141</ele>
        <time>2013-05-11T13:25:24Z</time>
      </trkpt>
      <trkpt lat="44.45875" lon="5.57092">
        <ele>1143.8000488281</ele>
        <time>2013-05-11T13:25:34Z</time>
      </trkpt>
      <trkpt lat="44.45867" lon="5.57089">
        <ele>1145.1999511719</ele>
        <time>2013-05-11T13:25:41Z</time>
      </trkpt>
      <trkpt lat="44.45857" lon="5.57074">
        <ele>1145.1999511719</ele>
        <time>2013-05-11T13:25:50Z</time>
      </trkpt>
      <trkpt lat="44.4585" lon="5.57065">
        <ele>1145.5999755859</ele>
        <time>2013-05-11T13:25:58Z</time>
      </trkpt>
      <trkpt lat="44.45842" lon="5.57056">
        <ele>1147.8000488281</ele>
        <time>2013-05-11T13:26:06Z</time>
      </trkpt>
      <trkpt lat="44.4584" lon="5.57054">
        <ele>1147.8000488281</ele>
        <time>2013-05-11T13:26:08Z</time>
      </trkpt>
      <trkpt lat="44.45834" lon="5.57047">
        <ele>1148.8000488281</ele>
        <time>2013-05-11T13:26:13Z</time>
      </trkpt>
      <trkpt lat="44.45829" lon="5.57043">
        <ele>1149.4000244141</ele>
        <time>2013-05-11T13:26:17Z</time>
      </trkpt>
      <trkpt lat="44.45824" lon="5.57052">
        <ele>1151.1999511719</ele>
        <time>2013-05-11T13:26:23Z</time>
      </trkpt>
      <trkpt lat="44.45825" lon="5.5706">
        <ele>1151.5999755859</ele>
        <time>2013-05-11T13:26:28Z</time>
      </trkpt>
      <trkpt lat="44.45829" lon="5.57074">
        <ele>1153.4000244141</ele>
        <time>2013-05-11T13:26:36Z</time>
      </trkpt>
      <trkpt lat="44.45831" lon="5.5708">
        <ele>1153.8000488281</ele>
        <time>2013-05-11T13:26:40Z</time>
      </trkpt>
      <trkpt lat="44.45832" lon="5.5709">
        <ele>1154.8000488281</ele>
        <time>2013-05-11T13:26:46Z</time>
      </trkpt>
      <trkpt lat="44.45837" lon="5.57104">
        <ele>1156.1999511719</ele>
        <time>2013-05-11T13:26:55Z</time>
      </trkpt>
      <trkpt lat="44.45837" lon="5.57111">
        <ele>1158.1999511719</ele>
        <time>2013-05-11T13:26:59Z</time>
      </trkpt>
      <trkpt lat="44.45841" lon="5.5713">
        <ele>1159.5999755859</ele>
        <time>2013-05-11T13:27:09Z</time>
      </trkpt>
      <trkpt lat="44.45847" lon="5.57141">
        <ele>1161</ele>
        <time>2013-05-11T13:27:17Z</time>
      </trkpt>
      <trkpt lat="44.45859" lon="5.57144">
        <ele>1161</ele>
        <time>2013-05-11T13:27:27Z</time>
      </trkpt>
      <trkpt lat="44.45863" lon="5.57144">
        <ele>1161.4000244141</ele>
        <time>2013-05-11T13:27:30Z</time>
      </trkpt>
      <trkpt lat="44.45872" lon="5.57146">
        <ele>1162.8000488281</ele>
        <time>2013-05-11T13:27:37Z</time>
      </trkpt>
      <trkpt lat="44.45882" lon="5.5715">
        <ele>1163.1999511719</ele>
        <time>2013-05-11T13:27:46Z</time>
      </trkpt>
      <trkpt lat="44.45888" lon="5.57154">
        <ele>1164</ele>
        <time>2013-05-11T13:27:51Z</time>
      </trkpt>
      <trkpt lat="44.45892" lon="5.57157">
        <ele>1164</ele>
        <time>2013-05-11T13:27:54Z</time>
      </trkpt>
      <trkpt lat="44.45896" lon="5.5716">
        <ele>1165</ele>
        <time>2013-05-11T13:27:58Z</time>
      </trkpt>
      <trkpt lat="44.45901" lon="5.57163">
        <ele>1165.4000244141</ele>
        <time>2013-05-11T13:28:02Z</time>
      </trkpt>
      <trkpt lat="44.45912" lon="5.57168">
        <ele>1167</ele>
        <time>2013-05-11T13:28:12Z</time>
      </trkpt>
      <trkpt lat="44.45921" lon="5.57171">
        <ele>1167.8000488281</ele>
        <time>2013-05-11T13:28:20Z</time>
      </trkpt>
      <trkpt lat="44.45931" lon="5.57174">
        <ele>1169.8000488281</ele>
        <time>2013-05-11T13:28:30Z</time>
      </trkpt>
      <trkpt lat="44.45942" lon="5.57176">
        <ele>1171.4000244141</ele>
        <time>2013-05-11T13:28:40Z</time>
      </trkpt>
      <trkpt lat="44.45953" lon="5.57176">
        <ele>1172.8000488281</ele>
        <time>2013-05-11T13:28:50Z</time>
      </trkpt>
      <trkpt lat="44.4596" lon="5.57176">
        <ele>1173.5999755859</ele>
        <time>2013-05-11T13:28:55Z</time>
      </trkpt>
      <trkpt lat="44.45977" lon="5.57174">
        <ele>1174.4000244141</ele>
        <time>2013-05-11T13:29:09Z</time>
      </trkpt>
      <trkpt lat="44.45981" lon="5.57174">
        <ele>1174.8000488281</ele>
        <time>2013-05-11T13:29:12Z</time>
      </trkpt>
      <trkpt lat="44.4599" lon="5.57169">
        <ele>1176.1999511719</ele>
        <time>2013-05-11T13:29:19Z</time>
      </trkpt>
      <trkpt lat="44.45994" lon="5.57167">
        <ele>1176.5999755859</ele>
        <time>2013-05-11T13:29:23Z</time>
      </trkpt>
      <trkpt lat="44.46004" lon="5.57163">
        <ele>1177.5999755859</ele>
        <time>2013-05-11T13:29:29Z</time>
      </trkpt>
      <trkpt lat="44.46011" lon="5.57163">
        <ele>1178.5999755859</ele>
        <time>2013-05-11T13:29:36Z</time>
      </trkpt>
      <trkpt lat="44.46021" lon="5.57162">
        <ele>1180.8000488281</ele>
        <time>2013-05-11T13:29:46Z</time>
      </trkpt>
      <trkpt lat="44.4603" lon="5.5716">
        <ele>1182.5999755859</ele>
        <time>2013-05-11T13:29:53Z</time>
      </trkpt>
      <trkpt lat="44.46048" lon="5.57159">
        <ele>1183.1999511719</ele>
        <time>2013-05-11T13:30:02Z</time>
      </trkpt>
      <trkpt lat="44.46051" lon="5.5716">
        <ele>1183.5999755859</ele>
        <time>2013-05-11T13:30:05Z</time>
      </trkpt>
      <trkpt lat="44.46054" lon="5.5716">
        <ele>1184.1999511719</ele>
        <time>2013-05-11T13:30:07Z</time>
      </trkpt>
      <trkpt lat="44.46062" lon="5.5716">
        <ele>1186.1999511719</ele>
        <time>2013-05-11T13:30:15Z</time>
      </trkpt>
      <trkpt lat="44.46064" lon="5.57159">
        <ele>1186.5999755859</ele>
        <time>2013-05-11T13:30:18Z</time>
      </trkpt>
      <trkpt lat="44.46077" lon="5.57149">
        <ele>1188.1999511719</ele>
        <time>2013-05-11T13:30:29Z</time>
      </trkpt>
      <trkpt lat="44.46081" lon="5.57148">
        <ele>1188.1999511719</ele>
        <time>2013-05-11T13:30:31Z</time>
      </trkpt>
      <trkpt lat="44.46091" lon="5.57142">
        <ele>1189.8000488281</ele>
        <time>2013-05-11T13:30:40Z</time>
      </trkpt>
      <trkpt lat="44.46101" lon="5.57139">
        <ele>1190.8000488281</ele>
        <time>2013-05-11T13:30:50Z</time>
      </trkpt>
      <trkpt lat="44.46111" lon="5.57136">
        <ele>1192</ele>
        <time>2013-05-11T13:30:57Z</time>
      </trkpt>
      <trkpt lat="44.4612" lon="5.57135">
        <ele>1192.5999755859</ele>
        <time>2013-05-11T13:31:04Z</time>
      </trkpt>
      <trkpt lat="44.46135" lon="5.57141">
        <ele>1194.4000244141</ele>
        <time>2013-05-11T13:31:16Z</time>
      </trkpt>
      <trkpt lat="44.46141" lon="5.57141">
        <ele>1195.1999511719</ele>
        <time>2013-05-11T13:31:21Z</time>
      </trkpt>
      <trkpt lat="44.46152" lon="5.57141">
        <ele>1196.4000244141</ele>
        <time>2013-05-11T13:31:32Z</time>
      </trkpt>
      <trkpt lat="44.4616" lon="5.57131">
        <ele>1197</ele>
        <time>2013-05-11T13:31:39Z</time>
      </trkpt>
      <trkpt lat="44.46164" lon="5.57129">
        <ele>1197.4000244141</ele>
        <time>2013-05-11T13:31:42Z</time>
      </trkpt>
      <trkpt lat="44.4617" lon="5.57126">
        <ele>1198.8000488281</ele>
        <time>2013-05-11T13:31:48Z</time>
      </trkpt>
      <trkpt lat="44.46181" lon="5.57124">
        <ele>1200.4000244141</ele>
        <time>2013-05-11T13:31:56Z</time>
      </trkpt>
      <trkpt lat="44.46195" lon="5.57123">
        <ele>1200.8000488281</ele>
        <time>2013-05-11T13:32:07Z</time>
      </trkpt>
      <trkpt lat="44.46203" lon="5.57122">
        <ele>1200.8000488281</ele>
        <time>2013-05-11T13:32:13Z</time>
      </trkpt>
      <trkpt lat="44.46208" lon="5.57118">
        <ele>1201.4000244141</ele>
        <time>2013-05-11T13:32:17Z</time>
      </trkpt>
      <trkpt lat="44.46213" lon="5.57117">
        <ele>1202.1999511719</ele>
        <time>2013-05-11T13:32:21Z</time>
      </trkpt>
      <trkpt lat="44.4622" lon="5.57114">
        <ele>1203</ele>
        <time>2013-05-11T13:32:28Z</time>
      </trkpt>
      <trkpt lat="44.46228" lon="5.57108">
        <ele>1204.4000244141</ele>
        <time>2013-05-11T13:32:34Z</time>
      </trkpt>
      <trkpt lat="44.46233" lon="5.57108">
        <ele>1205.1999511719</ele>
        <time>2013-05-11T13:32:38Z</time>
      </trkpt>
      <trkpt lat="44.4624" lon="5.57107">
        <ele>1205.1999511719</ele>
        <time>2013-05-11T13:32:44Z</time>
      </trkpt>
      <trkpt lat="44.46256" lon="5.57102">
        <ele>1205.1999511719</ele>
        <time>2013-05-11T13:32:58Z</time>
      </trkpt>
      <trkpt lat="44.46261" lon="5.57101">
        <ele>1205.8000488281</ele>
        <time>2013-05-11T13:33:02Z</time>
      </trkpt>
      <trkpt lat="44.46263" lon="5.57099">
        <ele>1206.1999511719</ele>
        <time>2013-05-11T13:33:03Z</time>
      </trkpt>
      <trkpt lat="44.46273" lon="5.57095">
        <ele>1207.5999755859</ele>
        <time>2013-05-11T13:33:09Z</time>
      </trkpt>
      <trkpt lat="44.46281" lon="5.57094">
        <ele>1208</ele>
        <time>2013-05-11T13:33:17Z</time>
      </trkpt>
      <trkpt lat="44.46291" lon="5.57088">
        <ele>1209.5999755859</ele>
        <time>2013-05-11T13:33:26Z</time>
      </trkpt>
      <trkpt lat="44.46302" lon="5.5708">
        <ele>1209.5999755859</ele>
        <time>2013-05-11T13:33:35Z</time>
      </trkpt>
      <trkpt lat="44.46304" lon="5.57078">
        <ele>1210.5999755859</ele>
        <time>2013-05-11T13:33:37Z</time>
      </trkpt>
      <trkpt lat="44.46312" lon="5.5707">
        <ele>1212.1999511719</ele>
        <time>2013-05-11T13:33:43Z</time>
      </trkpt>
      <trkpt lat="44.46314" lon="5.57068">
        <ele>1212.1999511719</ele>
        <time>2013-05-11T13:33:45Z</time>
      </trkpt>
      <trkpt lat="44.46322" lon="5.57062">
        <ele>1212.1999511719</ele>
        <time>2013-05-11T13:33:52Z</time>
      </trkpt>
      <trkpt lat="44.46332" lon="5.57055">
        <ele>1212.1999511719</ele>
        <time>2013-05-11T13:33:59Z</time>
      </trkpt>
      <trkpt lat="44.46337" lon="5.57049">
        <ele>1213</ele>
        <time>2013-05-11T13:34:03Z</time>
      </trkpt>
      <trkpt lat="44.46341" lon="5.57041">
        <ele>1213.8000488281</ele>
        <time>2013-05-11T13:34:07Z</time>
      </trkpt>
      <trkpt lat="44.46345" lon="5.57036">
        <ele>1214.1999511719</ele>
        <time>2013-05-11T13:34:10Z</time>
      </trkpt>
      <trkpt lat="44.46351" lon="5.57032">
        <ele>1214.5999755859</ele>
        <time>2013-05-11T13:34:14Z</time>
      </trkpt>
      <trkpt lat="44.46355" lon="5.5703">
        <ele>1215</ele>
        <time>2013-05-11T13:34:17Z</time>
      </trkpt>
      <trkpt lat="44.4636" lon="5.57026">
        <ele>1216.4000244141</ele>
        <time>2013-05-11T13:34:21Z</time>
      </trkpt>
      <trkpt lat="44.46372" lon="5.57019">
        <ele>1216.4000244141</ele>
        <time>2013-05-11T13:34:29Z</time>
      </trkpt>
      <trkpt lat="44.46383" lon="5.57012">
        <ele>1216.4000244141</ele>
        <time>2013-05-11T13:34:37Z</time>
      </trkpt>
      <trkpt lat="44.46386" lon="5.57009">
        <ele>1216.8000488281</ele>
        <time>2013-05-11T13:34:40Z</time>
      </trkpt>
      <trkpt lat="44.46392" lon="5.57003">
        <ele>1217.5999755859</ele>
        <time>2013-05-11T13:34:44Z</time>
      </trkpt>
      <trkpt lat="44.46396" lon="5.57">
        <ele>1218.4000244141</ele>
        <time>2013-05-11T13:34:47Z</time>
      </trkpt>
      <trkpt lat="44.46407" lon="5.56987">
        <ele>1218.4000244141</ele>
        <time>2013-05-11T13:34:55Z</time>
      </trkpt>
      <trkpt lat="44.46417" lon="5.56976">
        <ele>1218.4000244141</ele>
        <time>2013-05-11T13:35:04Z</time>
      </trkpt>
      <trkpt lat="44.46426" lon="5.56972">
        <ele>1218.8000488281</ele>
        <time>2013-05-11T13:35:09Z</time>
      </trkpt>
      <trkpt lat="44.46431" lon="5.5697">
        <ele>1219.1999511719</ele>
        <time>2013-05-11T13:35:12Z</time>
      </trkpt>
      <trkpt lat="44.46442" lon="5.56966">
        <ele>1220.5999755859</ele>
        <time>2013-05-11T13:35:19Z</time>
      </trkpt>
      <trkpt lat="44.4645" lon="5.56962">
        <ele>1221.4000244141</ele>
        <time>2013-05-11T13:35:26Z</time>
      </trkpt>
      <trkpt lat="44.46454" lon="5.5696">
        <ele>1222.1999511719</ele>
        <time>2013-05-11T13:35:29Z</time>
      </trkpt>
      <trkpt lat="44.46464" lon="5.56953">
        <ele>1222.5999755859</ele>
        <time>2013-05-11T13:35:36Z</time>
      </trkpt>
      <trkpt lat="44.46477" lon="5.56946">
        <ele>1222.5999755859</ele>
        <time>2013-05-11T13:35:43Z</time>
      </trkpt>
      <trkpt lat="44.46486" lon="5.56944">
        <ele>1222.5999755859</ele>
        <time>2013-05-11T13:35:49Z</time>
      </trkpt>
      <trkpt lat="44.46494" lon="5.56942">
        <ele>1224.1999511719</ele>
        <time>2013-05-11T13:35:54Z</time>
      </trkpt>
      <trkpt lat="44.46502" lon="5.5694">
        <ele>1226.5999755859</ele>
        <time>2013-05-11T13:36:01Z</time>
      </trkpt>
      <trkpt lat="44.46517" lon="5.56929">
        <ele>1227.1999511719</ele>
        <time>2013-05-11T13:36:12Z</time>
      </trkpt>
      <trkpt lat="44.46525" lon="5.56927">
        <ele>1227.8000488281</ele>
        <time>2013-05-11T13:36:18Z</time>
      </trkpt>
      <trkpt lat="44.4653" lon="5.56924">
        <ele>1228.5999755859</ele>
        <time>2013-05-11T13:36:22Z</time>
      </trkpt>
      <trkpt lat="44.46545" lon="5.56917">
        <ele>1229.4000244141</ele>
        <time>2013-05-11T13:36:33Z</time>
      </trkpt>
      <trkpt lat="44.46551" lon="5.56912">
        <ele>1229.8000488281</ele>
        <time>2013-05-11T13:36:37Z</time>
      </trkpt>
      <trkpt lat="44.46556" lon="5.56906">
        <ele>1230.8000488281</ele>
        <time>2013-05-11T13:36:40Z</time>
      </trkpt>
      <trkpt lat="44.46561" lon="5.56902">
        <ele>1231.1999511719</ele>
        <time>2013-05-11T13:36:43Z</time>
      </trkpt>
      <trkpt lat="44.46565" lon="5.56897">
        <ele>1231.5999755859</ele>
        <time>2013-05-11T13:36:46Z</time>
      </trkpt>
      <trkpt lat="44.4657" lon="5.56893">
        <ele>1233</ele>
        <time>2013-05-11T13:36:50Z</time>
      </trkpt>
      <trkpt lat="44.46577" lon="5.56887">
        <ele>1233.8000488281</ele>
        <time>2013-05-11T13:36:56Z</time>
      </trkpt>
      <trkpt lat="44.46582" lon="5.56883">
        <ele>1234.1999511719</ele>
        <time>2013-05-11T13:37:00Z</time>
      </trkpt>
      <trkpt lat="44.46585" lon="5.56879">
        <ele>1234.5999755859</ele>
        <time>2013-05-11T13:37:03Z</time>
      </trkpt>
      <trkpt lat="44.4659" lon="5.56876">
        <ele>1235.4000244141</ele>
        <time>2013-05-11T13:37:07Z</time>
      </trkpt>
      <trkpt lat="44.46605" lon="5.56865">
        <ele>1236.8000488281</ele>
        <time>2013-05-11T13:37:18Z</time>
      </trkpt>
      <trkpt lat="44.46612" lon="5.56857">
        <ele>1238</ele>
        <time>2013-05-11T13:37:24Z</time>
      </trkpt>
      <trkpt lat="44.46619" lon="5.56848">
        <ele>1238</ele>
        <time>2013-05-11T13:37:30Z</time>
      </trkpt>
      <trkpt lat="44.4663" lon="5.56838">
        <ele>1238</ele>
        <time>2013-05-11T13:37:40Z</time>
      </trkpt>
      <trkpt lat="44.4664" lon="5.56831">
        <ele>1240.4000244141</ele>
        <time>2013-05-11T13:37:50Z</time>
      </trkpt>
      <trkpt lat="44.46646" lon="5.56824">
        <ele>1240.4000244141</ele>
        <time>2013-05-11T13:37:57Z</time>
      </trkpt>
      <trkpt lat="44.46649" lon="5.56818">
        <ele>1242.5999755859</ele>
        <time>2013-05-11T13:38:13Z</time>
      </trkpt>
      <trkpt lat="44.46654" lon="5.56814">
        <ele>1242.5999755859</ele>
        <time>2013-05-11T13:38:19Z</time>
      </trkpt>
      <trkpt lat="44.46667" lon="5.56804">
        <ele>1242.5999755859</ele>
        <time>2013-05-11T13:38:32Z</time>
      </trkpt>
      <trkpt lat="44.46673" lon="5.56799">
        <ele>1243</ele>
        <time>2013-05-11T13:38:38Z</time>
      </trkpt>
      <trkpt lat="44.4668" lon="5.56788">
        <ele>1245.4000244141</ele>
        <time>2013-05-11T13:38:48Z</time>
      </trkpt>
      <trkpt lat="44.46685" lon="5.5678">
        <ele>1246.5999755859</ele>
        <time>2013-05-11T13:38:56Z</time>
      </trkpt>
      <trkpt lat="44.4669" lon="5.56765">
        <ele>1247</ele>
        <time>2013-05-11T13:39:08Z</time>
      </trkpt>
      <trkpt lat="44.46691" lon="5.56765">
        <ele>1247</ele>
        <time>2013-05-11T13:39:09Z</time>
      </trkpt>
      <trkpt lat="44.46694" lon="5.56773">
        <ele>1249.1999511719</ele>
        <time>2013-05-11T13:39:19Z</time>
      </trkpt>
      <trkpt lat="44.46685" lon="5.56783">
        <ele>1249.8000488281</ele>
        <time>2013-05-11T13:44:55Z</time>
      </trkpt>
      <trkpt lat="44.46671" lon="5.56806">
        <ele>1249.8000488281</ele>
        <time>2013-05-11T13:45:01Z</time>
      </trkpt>
      <trkpt lat="44.46669" lon="5.56811">
        <ele>1249</ele>
        <time>2013-05-11T13:45:02Z</time>
      </trkpt>
      <trkpt lat="44.46661" lon="5.56825">
        <ele>1248.1999511719</ele>
        <time>2013-05-11T13:45:05Z</time>
      </trkpt>
      <trkpt lat="44.46649" lon="5.56843">
        <ele>1247.8000488281</ele>
        <time>2013-05-11T13:45:09Z</time>
      </trkpt>
      <trkpt lat="44.46629" lon="5.56874">
        <ele>1247.8000488281</ele>
        <time>2013-05-11T13:45:16Z</time>
      </trkpt>
      <trkpt lat="44.46622" lon="5.56884">
        <ele>1247.4000244141</ele>
        <time>2013-05-11T13:45:18Z</time>
      </trkpt>
      <trkpt lat="44.46612" lon="5.56899">
        <ele>1247</ele>
        <time>2013-05-11T13:45:21Z</time>
      </trkpt>
      <trkpt lat="44.46604" lon="5.56907">
        <ele>1247</ele>
        <time>2013-05-11T13:45:23Z</time>
      </trkpt>
      <trkpt lat="44.46601" lon="5.56912">
        <ele>1246.5999755859</ele>
        <time>2013-05-11T13:45:24Z</time>
      </trkpt>
      <trkpt lat="44.46593" lon="5.56931">
        <ele>1246.1999511719</ele>
        <time>2013-05-11T13:45:27Z</time>
      </trkpt>
      <trkpt lat="44.46585" lon="5.56949">
        <ele>1246.1999511719</ele>
        <time>2013-05-11T13:45:30Z</time>
      </trkpt>
      <trkpt lat="44.46582" lon="5.56954">
        <ele>1245.8000488281</ele>
        <time>2013-05-11T13:45:31Z</time>
      </trkpt>
      <trkpt lat="44.46576" lon="5.56965">
        <ele>1245.8000488281</ele>
        <time>2013-05-11T13:45:33Z</time>
      </trkpt>
      <trkpt lat="44.46576" lon="5.56975">
        <ele>1245.8000488281</ele>
        <time>2013-05-11T13:45:35Z</time>
      </trkpt>
      <trkpt lat="44.46583" lon="5.56981">
        <ele>1245.8000488281</ele>
        <time>2013-05-11T13:45:38Z</time>
      </trkpt>
      <trkpt lat="44.46592" lon="5.5698">
        <ele>1245.8000488281</ele>
        <time>2013-05-11T13:45:41Z</time>
      </trkpt>
      <trkpt lat="44.46614" lon="5.56978">
        <ele>1245.8000488281</ele>
        <time>2013-05-11T13:45:48Z</time>
      </trkpt>
      <trkpt lat="44.46634" lon="5.56978">
        <ele>1245.8000488281</ele>
        <time>2013-05-11T13:45:54Z</time>
      </trkpt>
      <trkpt lat="44.46664" lon="5.5698">
        <ele>1245.8000488281</ele>
        <time>2013-05-11T13:46:02Z</time>
      </trkpt>
      <trkpt lat="44.46686" lon="5.5698">
        <ele>1245.8000488281</ele>
        <time>2013-05-11T13:46:09Z</time>
      </trkpt>
      <trkpt lat="44.46696" lon="5.5698">
        <ele>1246.8000488281</ele>
        <time>2013-05-11T13:46:12Z</time>
      </trkpt>
      <trkpt lat="44.46706" lon="5.56979">
        <ele>1247.1999511719</ele>
        <time>2013-05-11T13:46:15Z</time>
      </trkpt>
      <trkpt lat="44.46715" lon="5.56978">
        <ele>1247.1999511719</ele>
        <time>2013-05-11T13:46:18Z</time>
      </trkpt>
      <trkpt lat="44.46736" lon="5.56977">
        <ele>1248.1999511719</ele>
        <time>2013-05-11T13:46:25Z</time>
      </trkpt>
      <trkpt lat="44.46743" lon="5.56976">
        <ele>1248.1999511719</ele>
        <time>2013-05-11T13:46:27Z</time>
      </trkpt>
      <trkpt lat="44.46763" lon="5.56971">
        <ele>1248.1999511719</ele>
        <time>2013-05-11T13:46:32Z</time>
      </trkpt>
      <trkpt lat="44.4678" lon="5.56977">
        <ele>1249</ele>
        <time>2013-05-11T13:46:37Z</time>
      </trkpt>
      <trkpt lat="44.46791" lon="5.5698">
        <ele>1249.8000488281</ele>
        <time>2013-05-11T13:46:40Z</time>
      </trkpt>
      <trkpt lat="44.46806" lon="5.56984">
        <ele>1250.1999511719</ele>
        <time>2013-05-11T13:46:44Z</time>
      </trkpt>
      <trkpt lat="44.46836" lon="5.56982">
        <ele>1250.1999511719</ele>
        <time>2013-05-11T13:46:50Z</time>
      </trkpt>
      <trkpt lat="44.46851" lon="5.5698">
        <ele>1250.1999511719</ele>
        <time>2013-05-11T13:46:53Z</time>
      </trkpt>
      <trkpt lat="44.46857" lon="5.56979">
        <ele>1249.4000244141</ele>
        <time>2013-05-11T13:46:54Z</time>
      </trkpt>
      <trkpt lat="44.46868" lon="5.5698">
        <ele>1249.4000244141</ele>
        <time>2013-05-11T13:46:56Z</time>
      </trkpt>
      <trkpt lat="44.46873" lon="5.56981">
        <ele>1249</ele>
        <time>2013-05-11T13:46:57Z</time>
      </trkpt>
      <trkpt lat="44.46896" lon="5.5698">
        <ele>1248</ele>
        <time>2013-05-11T13:47:01Z</time>
      </trkpt>
      <trkpt lat="44.46902" lon="5.56978">
        <ele>1248</ele>
        <time>2013-05-11T13:47:02Z</time>
      </trkpt>
      <trkpt lat="44.46914" lon="5.56978">
        <ele>1248</ele>
        <time>2013-05-11T13:47:04Z</time>
      </trkpt>
      <trkpt lat="44.4693" lon="5.56978">
        <ele>1248</ele>
        <time>2013-05-11T13:47:07Z</time>
      </trkpt>
      <trkpt lat="44.46949" lon="5.56974">
        <ele>1247.5999755859</ele>
        <time>2013-05-11T13:47:11Z</time>
      </trkpt>
      <trkpt lat="44.46954" lon="5.56973">
        <ele>1247</ele>
        <time>2013-05-11T13:47:12Z</time>
      </trkpt>
      <trkpt lat="44.4697" lon="5.56965">
        <ele>1246</ele>
        <time>2013-05-11T13:47:15Z</time>
      </trkpt>
      <trkpt lat="44.46988" lon="5.56957">
        <ele>1245.4000244141</ele>
        <time>2013-05-11T13:47:18Z</time>
      </trkpt>
      <trkpt lat="44.46994" lon="5.56955">
        <ele>1244.8000488281</ele>
        <time>2013-05-11T13:47:19Z</time>
      </trkpt>
      <trkpt lat="44.47014" lon="5.56947">
        <ele>1243.1999511719</ele>
        <time>2013-05-11T13:47:22Z</time>
      </trkpt>
      <trkpt lat="44.47033" lon="5.56939">
        <ele>1242.4000244141</ele>
        <time>2013-05-11T13:47:25Z</time>
      </trkpt>
      <trkpt lat="44.47045" lon="5.56934">
        <ele>1241.5999755859</ele>
        <time>2013-05-11T13:47:27Z</time>
      </trkpt>
      <trkpt lat="44.47058" lon="5.56929">
        <ele>1240</ele>
        <time>2013-05-11T13:47:29Z</time>
      </trkpt>
      <trkpt lat="44.47076" lon="5.56918">
        <ele>1239.1999511719</ele>
        <time>2013-05-11T13:47:32Z</time>
      </trkpt>
      <trkpt lat="44.47082" lon="5.56914">
        <ele>1238.4000244141</ele>
        <time>2013-05-11T13:47:33Z</time>
      </trkpt>
      <trkpt lat="44.47097" lon="5.56906">
        <ele>1236.8000488281</ele>
        <time>2013-05-11T13:47:36Z</time>
      </trkpt>
      <trkpt lat="44.47104" lon="5.56902">
        <ele>1236.8000488281</ele>
        <time>2013-05-11T13:47:38Z</time>
      </trkpt>
      <trkpt lat="44.47109" lon="5.569">
        <ele>1235.1999511719</ele>
        <time>2013-05-11T13:47:40Z</time>
      </trkpt>
      <trkpt lat="44.47111" lon="5.56901">
        <ele>1233.5999755859</ele>
        <time>2013-05-11T13:47:43Z</time>
      </trkpt>
      <trkpt lat="44.4711" lon="5.56902">
        <ele>1234.1999511719</ele>
        <time>2013-05-11T13:48:15Z</time>
      </trkpt>
      <trkpt lat="44.4711" lon="5.56902">
        <ele>1236</ele>
        <time>2013-05-11T13:48:37Z</time>
      </trkpt>
      <trkpt lat="44.47184" lon="5.56879">
        <ele>1251</ele>
        <time>2013-05-11T13:51:01Z</time>
      </trkpt>
      <trkpt lat="44.47207" lon="5.56871">
        <ele>1251.4000244141</ele>
        <time>2013-05-11T13:51:03Z</time>
      </trkpt>
      <trkpt lat="44.47217" lon="5.56865">
        <ele>1252</ele>
        <time>2013-05-11T13:51:05Z</time>
      </trkpt>
      <trkpt lat="44.47253" lon="5.56859">
        <ele>1252.8000488281</ele>
        <time>2013-05-11T13:51:09Z</time>
      </trkpt>
      <trkpt lat="44.47272" lon="5.56855">
        <ele>1253.1999511719</ele>
        <time>2013-05-11T13:51:11Z</time>
      </trkpt>
      <trkpt lat="44.47323" lon="5.56847">
        <ele>1253.1999511719</ele>
        <time>2013-05-11T13:51:17Z</time>
      </trkpt>
      <trkpt lat="44.47335" lon="5.56846">
        <ele>1253.5999755859</ele>
        <time>2013-05-11T13:51:18Z</time>
      </trkpt>
      <trkpt lat="44.47346" lon="5.56843">
        <ele>1254</ele>
        <time>2013-05-11T13:51:21Z</time>
      </trkpt>
      <trkpt lat="44.47352" lon="5.56844">
        <ele>1255</ele>
        <time>2013-05-11T13:51:24Z</time>
      </trkpt>
      <trkpt lat="44.47372" lon="5.5684">
        <ele>1255.4000244141</ele>
        <time>2013-05-11T13:51:32Z</time>
      </trkpt>
      <trkpt lat="44.47382" lon="5.56837">
        <ele>1255.8000488281</ele>
        <time>2013-05-11T13:51:38Z</time>
      </trkpt>
      <trkpt lat="44.47401" lon="5.56829">
        <ele>1257.8000488281</ele>
        <time>2013-05-11T13:51:55Z</time>
      </trkpt>
      <trkpt lat="44.47414" lon="5.56827">
        <ele>1259.5999755859</ele>
        <time>2013-05-11T13:52:06Z</time>
      </trkpt>
      <trkpt lat="44.4742" lon="5.56826">
        <ele>1260</ele>
        <time>2013-05-11T13:52:11Z</time>
      </trkpt>
      <trkpt lat="44.47432" lon="5.56821">
        <ele>1262.5999755859</ele>
        <time>2013-05-11T13:52:24Z</time>
      </trkpt>
      <trkpt lat="44.47429" lon="5.56831">
        <ele>1264.4000244141</ele>
        <time>2013-05-11T13:52:44Z</time>
      </trkpt>
      <trkpt lat="44.4742" lon="5.56841">
        <ele>1267.4000244141</ele>
        <time>2013-05-11T13:53:00Z</time>
      </trkpt>
      <trkpt lat="44.47419" lon="5.56844">
        <ele>1268.1999511719</ele>
        <time>2013-05-11T13:53:03Z</time>
      </trkpt>
      <trkpt lat="44.47412" lon="5.56855">
        <ele>1268.8000488281</ele>
        <time>2013-05-11T13:53:14Z</time>
      </trkpt>
      <trkpt lat="44.47405" lon="5.56862">
        <ele>1269.1999511719</ele>
        <time>2013-05-11T13:53:22Z</time>
      </trkpt>
      <trkpt lat="44.47398" lon="5.5687">
        <ele>1270.1999511719</ele>
        <time>2013-05-11T13:53:28Z</time>
      </trkpt>
      <trkpt lat="44.47388" lon="5.56885">
        <ele>1271.5999755859</ele>
        <time>2013-05-11T13:53:41Z</time>
      </trkpt>
      <trkpt lat="44.47375" lon="5.56893">
        <ele>1273.5999755859</ele>
        <time>2013-05-11T13:53:54Z</time>
      </trkpt>
      <trkpt lat="44.47372" lon="5.56901">
        <ele>1275</ele>
        <time>2013-05-11T13:53:58Z</time>
      </trkpt>
      <trkpt lat="44.47369" lon="5.56904">
        <ele>1275.4000244141</ele>
        <time>2013-05-11T13:54:01Z</time>
      </trkpt>
      <trkpt lat="44.47358" lon="5.56913">
        <ele>1275.8000488281</ele>
        <time>2013-05-11T13:54:14Z</time>
      </trkpt>
      <trkpt lat="44.47354" lon="5.5692">
        <ele>1277.5999755859</ele>
        <time>2013-05-11T13:54:21Z</time>
      </trkpt>
      <trkpt lat="44.47345" lon="5.5693">
        <ele>1278</ele>
        <time>2013-05-11T13:54:28Z</time>
      </trkpt>
      <trkpt lat="44.47338" lon="5.56942">
        <ele>1279.5999755859</ele>
        <time>2013-05-11T13:54:39Z</time>
      </trkpt>
      <trkpt lat="44.47331" lon="5.56951">
        <ele>1281</ele>
        <time>2013-05-11T13:54:49Z</time>
      </trkpt>
      <trkpt lat="44.47329" lon="5.56954">
        <ele>1282</ele>
        <time>2013-05-11T13:54:53Z</time>
      </trkpt>
      <trkpt lat="44.47324" lon="5.56966">
        <ele>1282.4000244141</ele>
        <time>2013-05-11T13:55:04Z</time>
      </trkpt>
      <trkpt lat="44.47318" lon="5.56973">
        <ele>1283.8000488281</ele>
        <time>2013-05-11T13:55:10Z</time>
      </trkpt>
      <trkpt lat="44.47313" lon="5.56981">
        <ele>1284.1999511719</ele>
        <time>2013-05-11T13:55:14Z</time>
      </trkpt>
      <trkpt lat="44.47305" lon="5.56988">
        <ele>1285</ele>
        <time>2013-05-11T13:55:21Z</time>
      </trkpt>
      <trkpt lat="44.47303" lon="5.56993">
        <ele>1285.4000244141</ele>
        <time>2013-05-11T13:55:24Z</time>
      </trkpt>
      <trkpt lat="44.473" lon="5.56998">
        <ele>1286.1999511719</ele>
        <time>2013-05-11T13:55:28Z</time>
      </trkpt>
      <trkpt lat="44.47298" lon="5.57001">
        <ele>1286.1999511719</ele>
        <time>2013-05-11T13:55:30Z</time>
      </trkpt>
      <trkpt lat="44.4729" lon="5.57011">
        <ele>1287.5999755859</ele>
        <time>2013-05-11T13:55:41Z</time>
      </trkpt>
      <trkpt lat="44.47289" lon="5.5702">
        <ele>1288.4000244141</ele>
        <time>2013-05-11T13:55:44Z</time>
      </trkpt>
      <trkpt lat="44.47278" lon="5.5703">
        <ele>1288.4000244141</ele>
        <time>2013-05-11T13:55:54Z</time>
      </trkpt>
      <trkpt lat="44.47272" lon="5.57041">
        <ele>1289.4000244141</ele>
        <time>2013-05-11T13:56:04Z</time>
      </trkpt>
      <trkpt lat="44.47268" lon="5.57046">
        <ele>1290.1999511719</ele>
        <time>2013-05-11T13:56:10Z</time>
      </trkpt>
      <trkpt lat="44.47263" lon="5.57053">
        <ele>1291.4000244141</ele>
        <time>2013-05-11T13:56:18Z</time>
      </trkpt>
      <trkpt lat="44.4726" lon="5.57057">
        <ele>1292.1999511719</ele>
        <time>2013-05-11T13:56:23Z</time>
      </trkpt>
      <trkpt lat="44.47251" lon="5.57069">
        <ele>1292.8000488281</ele>
        <time>2013-05-11T13:56:34Z</time>
      </trkpt>
      <trkpt lat="44.47245" lon="5.57076">
        <ele>1293.1999511719</ele>
        <time>2013-05-11T13:56:41Z</time>
      </trkpt>
      <trkpt lat="44.47241" lon="5.57081">
        <ele>1293.5999755859</ele>
        <time>2013-05-11T13:56:44Z</time>
      </trkpt>
      <trkpt lat="44.47237" lon="5.57088">
        <ele>1294.8000488281</ele>
        <time>2013-05-11T13:56:48Z</time>
      </trkpt>
      <trkpt lat="44.47229" lon="5.57099">
        <ele>1295.1999511719</ele>
        <time>2013-05-11T13:56:56Z</time>
      </trkpt>
      <trkpt lat="44.47228" lon="5.57102">
        <ele>1296.1999511719</ele>
        <time>2013-05-11T13:56:59Z</time>
      </trkpt>
      <trkpt lat="44.47215" lon="5.57117">
        <ele>1297</ele>
        <time>2013-05-11T13:57:10Z</time>
      </trkpt>
      <trkpt lat="44.47213" lon="5.57122">
        <ele>1297.8000488281</ele>
        <time>2013-05-11T13:57:13Z</time>
      </trkpt>
      <trkpt lat="44.47208" lon="5.57133">
        <ele>1299.5999755859</ele>
        <time>2013-05-11T13:57:20Z</time>
      </trkpt>
      <trkpt lat="44.47204" lon="5.57143">
        <ele>1300.8000488281</ele>
        <time>2013-05-11T13:57:27Z</time>
      </trkpt>
      <trkpt lat="44.4719" lon="5.57156">
        <ele>1301.1999511719</ele>
        <time>2013-05-11T13:57:42Z</time>
      </trkpt>
      <trkpt lat="44.47189" lon="5.57159">
        <ele>1301.5999755859</ele>
        <time>2013-05-11T13:57:44Z</time>
      </trkpt>
      <trkpt lat="44.47187" lon="5.57161">
        <ele>1302.1999511719</ele>
        <time>2013-05-11T13:57:47Z</time>
      </trkpt>
      <trkpt lat="44.4718" lon="5.57171">
        <ele>1303</ele>
        <time>2013-05-11T13:57:53Z</time>
      </trkpt>
      <trkpt lat="44.47175" lon="5.57181">
        <ele>1304</ele>
        <time>2013-05-11T13:58:00Z</time>
      </trkpt>
      <trkpt lat="44.47171" lon="5.57191">
        <ele>1305.8000488281</ele>
        <time>2013-05-11T13:58:08Z</time>
      </trkpt>
      <trkpt lat="44.47165" lon="5.57198">
        <ele>1306.8000488281</ele>
        <time>2013-05-11T13:58:14Z</time>
      </trkpt>
      <trkpt lat="44.47162" lon="5.57201">
        <ele>1307.1999511719</ele>
        <time>2013-05-11T13:58:17Z</time>
      </trkpt>
      <trkpt lat="44.47159" lon="5.57203">
        <ele>1307.5999755859</ele>
        <time>2013-05-11T13:58:20Z</time>
      </trkpt>
      <trkpt lat="44.47147" lon="5.57224">
        <ele>1308.5999755859</ele>
        <time>2013-05-11T13:58:31Z</time>
      </trkpt>
      <trkpt lat="44.47144" lon="5.57231">
        <ele>1310.1999511719</ele>
        <time>2013-05-11T13:58:37Z</time>
      </trkpt>
      <trkpt lat="44.47137" lon="5.57239">
        <ele>1310.5999755859</ele>
        <time>2013-05-11T13:58:43Z</time>
      </trkpt>
      <trkpt lat="44.47132" lon="5.5725">
        <ele>1311.4000244141</ele>
        <time>2013-05-11T13:58:52Z</time>
      </trkpt>
      <trkpt lat="44.47129" lon="5.57254">
        <ele>1311.8000488281</ele>
        <time>2013-05-11T13:58:55Z</time>
      </trkpt>
      <trkpt lat="44.47115" lon="5.57276">
        <ele>1313.5999755859</ele>
        <time>2013-05-11T13:59:08Z</time>
      </trkpt>
      <trkpt lat="44.47109" lon="5.57284">
        <ele>1314.8000488281</ele>
        <time>2013-05-11T13:59:15Z</time>
      </trkpt>
      <trkpt lat="44.47104" lon="5.57296">
        <ele>1314.8000488281</ele>
        <time>2013-05-11T13:59:22Z</time>
      </trkpt>
      <trkpt lat="44.47097" lon="5.57302">
        <ele>1316.1999511719</ele>
        <time>2013-05-11T13:59:29Z</time>
      </trkpt>
      <trkpt lat="44.4709" lon="5.57316">
        <ele>1317.4000244141</ele>
        <time>2013-05-11T13:59:41Z</time>
      </trkpt>
      <trkpt lat="44.47087" lon="5.57329">
        <ele>1318.1999511719</ele>
        <time>2013-05-11T13:59:44Z</time>
      </trkpt>
      <trkpt lat="44.47084" lon="5.57335">
        <ele>1318.5999755859</ele>
        <time>2013-05-11T13:59:47Z</time>
      </trkpt>
      <trkpt lat="44.47083" lon="5.57344">
        <ele>1319</ele>
        <time>2013-05-11T13:59:51Z</time>
      </trkpt>
      <trkpt lat="44.47079" lon="5.57354">
        <ele>1319.4000244141</ele>
        <time>2013-05-11T13:59:58Z</time>
      </trkpt>
      <trkpt lat="44.47072" lon="5.57363">
        <ele>1320.4000244141</ele>
        <time>2013-05-11T14:00:05Z</time>
      </trkpt>
      <trkpt lat="44.47069" lon="5.57367">
        <ele>1321.1999511719</ele>
        <time>2013-05-11T14:00:10Z</time>
      </trkpt>
      <trkpt lat="44.47065" lon="5.57373">
        <ele>1321.5999755859</ele>
        <time>2013-05-11T14:00:16Z</time>
      </trkpt>
      <trkpt lat="44.47057" lon="5.57381">
        <ele>1323.4000244141</ele>
        <time>2013-05-11T14:00:25Z</time>
      </trkpt>
      <trkpt lat="44.4705" lon="5.57391">
        <ele>1323.4000244141</ele>
        <time>2013-05-11T14:00:32Z</time>
      </trkpt>
      <trkpt lat="44.47044" lon="5.57405">
        <ele>1324</ele>
        <time>2013-05-11T14:00:39Z</time>
      </trkpt>
      <trkpt lat="44.4704" lon="5.57408">
        <ele>1324.8000488281</ele>
        <time>2013-05-11T14:00:43Z</time>
      </trkpt>
      <trkpt lat="44.47037" lon="5.57412">
        <ele>1325.5999755859</ele>
        <time>2013-05-11T14:00:46Z</time>
      </trkpt>
      <trkpt lat="44.4703" lon="5.57418">
        <ele>1326.4000244141</ele>
        <time>2013-05-11T14:00:53Z</time>
      </trkpt>
      <trkpt lat="44.47029" lon="5.5742">
        <ele>1326.8000488281</ele>
        <time>2013-05-11T14:00:54Z</time>
      </trkpt>
      <trkpt lat="44.47018" lon="5.57442">
        <ele>1328</ele>
        <time>2013-05-11T14:01:08Z</time>
      </trkpt>
      <trkpt lat="44.4701" lon="5.57464">
        <ele>1330.1999511719</ele>
        <time>2013-05-11T14:01:22Z</time>
      </trkpt>
      <trkpt lat="44.47008" lon="5.57469">
        <ele>1330.5999755859</ele>
        <time>2013-05-11T14:01:25Z</time>
      </trkpt>
      <trkpt lat="44.47008" lon="5.57474">
        <ele>1331.1999511719</ele>
        <time>2013-05-11T14:01:26Z</time>
      </trkpt>
      <trkpt lat="44.46997" lon="5.57497">
        <ele>1332</ele>
        <time>2013-05-11T14:01:37Z</time>
      </trkpt>
      <trkpt lat="44.46989" lon="5.57521">
        <ele>1332</ele>
        <time>2013-05-11T14:01:49Z</time>
      </trkpt>
      <trkpt lat="44.46987" lon="5.57532">
        <ele>1334</ele>
        <time>2013-05-11T14:01:56Z</time>
      </trkpt>
      <trkpt lat="44.4698" lon="5.57546">
        <ele>1334.5999755859</ele>
        <time>2013-05-11T14:02:04Z</time>
      </trkpt>
      <trkpt lat="44.46981" lon="5.57551">
        <ele>1334.5999755859</ele>
        <time>2013-05-11T14:02:05Z</time>
      </trkpt>
      <trkpt lat="44.46979" lon="5.57557">
        <ele>1335</ele>
        <time>2013-05-11T14:02:08Z</time>
      </trkpt>
      <trkpt lat="44.46975" lon="5.57564">
        <ele>1335.5999755859</ele>
        <time>2013-05-11T14:02:12Z</time>
      </trkpt>
      <trkpt lat="44.46973" lon="5.57571">
        <ele>1336.5999755859</ele>
        <time>2013-05-11T14:02:16Z</time>
      </trkpt>
      <trkpt lat="44.46966" lon="5.57594">
        <ele>1337.1999511719</ele>
        <time>2013-05-11T14:02:26Z</time>
      </trkpt>
      <trkpt lat="44.46961" lon="5.57606">
        <ele>1337.1999511719</ele>
        <time>2013-05-11T14:02:32Z</time>
      </trkpt>
      <trkpt lat="44.46956" lon="5.57625">
        <ele>1337.5999755859</ele>
        <time>2013-05-11T14:02:39Z</time>
      </trkpt>
      <trkpt lat="44.46952" lon="5.5763">
        <ele>1339</ele>
        <time>2013-05-11T14:02:45Z</time>
      </trkpt>
      <trkpt lat="44.46946" lon="5.57647">
        <ele>1339.5999755859</ele>
        <time>2013-05-11T14:02:56Z</time>
      </trkpt>
      <trkpt lat="44.46944" lon="5.57653">
        <ele>1340.8000488281</ele>
        <time>2013-05-11T14:03:00Z</time>
      </trkpt>
      <trkpt lat="44.46942" lon="5.57663">
        <ele>1341.1999511719</ele>
        <time>2013-05-11T14:03:05Z</time>
      </trkpt>
      <trkpt lat="44.46939" lon="5.5767">
        <ele>1342.4000244141</ele>
        <time>2013-05-11T14:03:09Z</time>
      </trkpt>
      <trkpt lat="44.46935" lon="5.57672">
        <ele>1343.4000244141</ele>
        <time>2013-05-11T14:03:12Z</time>
      </trkpt>
      <trkpt lat="44.46928" lon="5.57681">
        <ele>1344.1999511719</ele>
        <time>2013-05-11T14:03:21Z</time>
      </trkpt>
      <trkpt lat="44.46925" lon="5.57692">
        <ele>1346.4000244141</ele>
        <time>2013-05-11T14:03:35Z</time>
      </trkpt>
      <trkpt lat="44.46918" lon="5.57702">
        <ele>1348.1999511719</ele>
        <time>2013-05-11T14:03:47Z</time>
      </trkpt>
      <trkpt lat="44.46911" lon="5.57713">
        <ele>1349.5999755859</ele>
        <time>2013-05-11T14:03:56Z</time>
      </trkpt>
      <trkpt lat="44.46906" lon="5.57727">
        <ele>1350.4000244141</ele>
        <time>2013-05-11T14:04:06Z</time>
      </trkpt>
      <trkpt lat="44.46905" lon="5.57731">
        <ele>1351</ele>
        <time>2013-05-11T14:04:10Z</time>
      </trkpt>
      <trkpt lat="44.46898" lon="5.57736">
        <ele>1352.8000488281</ele>
        <time>2013-05-11T14:04:21Z</time>
      </trkpt>
      <trkpt lat="44.46895" lon="5.57743">
        <ele>1352.8000488281</ele>
        <time>2013-05-11T14:04:28Z</time>
      </trkpt>
      <trkpt lat="44.46891" lon="5.57753">
        <ele>1353.5999755859</ele>
        <time>2013-05-11T14:04:36Z</time>
      </trkpt>
      <trkpt lat="44.46889" lon="5.5776">
        <ele>1354.8000488281</ele>
        <time>2013-05-11T14:04:43Z</time>
      </trkpt>
      <trkpt lat="44.46883" lon="5.57774">
        <ele>1354.8000488281</ele>
        <time>2013-05-11T14:04:56Z</time>
      </trkpt>
      <trkpt lat="44.46881" lon="5.57786">
        <ele>1354.8000488281</ele>
        <time>2013-05-11T14:05:05Z</time>
      </trkpt>
      <trkpt lat="44.46881" lon="5.57793">
        <ele>1356</ele>
        <time>2013-05-11T14:05:12Z</time>
      </trkpt>
      <trkpt lat="44.4688" lon="5.57799">
        <ele>1357</ele>
        <time>2013-05-11T14:05:15Z</time>
      </trkpt>
      <trkpt lat="44.46878" lon="5.57802">
        <ele>1357.4000244141</ele>
        <time>2013-05-11T14:05:18Z</time>
      </trkpt>
      <trkpt lat="44.4687" lon="5.57818">
        <ele>1357.4000244141</ele>
        <time>2013-05-11T14:05:33Z</time>
      </trkpt>
      <trkpt lat="44.4687" lon="5.57821">
        <ele>1357.8000488281</ele>
        <time>2013-05-11T14:05:35Z</time>
      </trkpt>
      <trkpt lat="44.46865" lon="5.5784">
        <ele>1360</ele>
        <time>2013-05-11T14:05:50Z</time>
      </trkpt>
      <trkpt lat="44.46864" lon="5.57842">
        <ele>1360</ele>
        <time>2013-05-11T14:05:51Z</time>
      </trkpt>
      <trkpt lat="44.46862" lon="5.57851">
        <ele>1362.1999511719</ele>
        <time>2013-05-11T14:06:00Z</time>
      </trkpt>
      <trkpt lat="44.46858" lon="5.57857">
        <ele>1362.1999511719</ele>
        <time>2013-05-11T14:06:06Z</time>
      </trkpt>
      <trkpt lat="44.46856" lon="5.5786">
        <ele>1362.5999755859</ele>
        <time>2013-05-11T14:06:10Z</time>
      </trkpt>
      <trkpt lat="44.46854" lon="5.57878">
        <ele>1364.1999511719</ele>
        <time>2013-05-11T14:06:22Z</time>
      </trkpt>
      <trkpt lat="44.46849" lon="5.57884">
        <ele>1364.1999511719</ele>
        <time>2013-05-11T14:06:29Z</time>
      </trkpt>
      <trkpt lat="44.46843" lon="5.57891">
        <ele>1366.1999511719</ele>
        <time>2013-05-11T14:06:38Z</time>
      </trkpt>
      <trkpt lat="44.46837" lon="5.57904">
        <ele>1368.4000244141</ele>
        <time>2013-05-11T14:06:49Z</time>
      </trkpt>
      <trkpt lat="44.46833" lon="5.57912">
        <ele>1368.4000244141</ele>
        <time>2013-05-11T14:06:57Z</time>
      </trkpt>
      <trkpt lat="44.46829" lon="5.57921">
        <ele>1368.8000488281</ele>
        <time>2013-05-11T14:07:03Z</time>
      </trkpt>
      <trkpt lat="44.46828" lon="5.57932">
        <ele>1370.8000488281</ele>
        <time>2013-05-11T14:07:12Z</time>
      </trkpt>
      <trkpt lat="44.46822" lon="5.57945">
        <ele>1373.1999511719</ele>
        <time>2013-05-11T14:07:23Z</time>
      </trkpt>
      <trkpt lat="44.4682" lon="5.57949">
        <ele>1373.1999511719</ele>
        <time>2013-05-11T14:07:26Z</time>
      </trkpt>
      <trkpt lat="44.46817" lon="5.57952">
        <ele>1373.1999511719</ele>
        <time>2013-05-11T14:07:29Z</time>
      </trkpt>
      <trkpt lat="44.46817" lon="5.57964">
        <ele>1376.4000244141</ele>
        <time>2013-05-11T14:07:44Z</time>
      </trkpt>
      <trkpt lat="44.46818" lon="5.5797">
        <ele>1377.8000488281</ele>
        <time>2013-05-11T14:07:53Z</time>
      </trkpt>
      <trkpt lat="44.46818" lon="5.57981">
        <ele>1380.4000244141</ele>
        <time>2013-05-11T14:08:05Z</time>
      </trkpt>
      <trkpt lat="44.46819" lon="5.57991">
        <ele>1380.8000488281</ele>
        <time>2013-05-11T14:08:18Z</time>
      </trkpt>
      <trkpt lat="44.46816" lon="5.58">
        <ele>1382.5999755859</ele>
        <time>2013-05-11T14:08:30Z</time>
      </trkpt>
      <trkpt lat="44.46813" lon="5.58012">
        <ele>1385.8000488281</ele>
        <time>2013-05-11T14:08:46Z</time>
      </trkpt>
      <trkpt lat="44.46811" lon="5.58026">
        <ele>1387.4000244141</ele>
        <time>2013-05-11T14:08:59Z</time>
      </trkpt>
      <trkpt lat="44.46811" lon="5.58032">
        <ele>1388.8000488281</ele>
        <time>2013-05-11T14:09:11Z</time>
      </trkpt>
      <trkpt lat="44.46808" lon="5.58044">
        <ele>1389.5999755859</ele>
        <time>2013-05-11T14:09:25Z</time>
      </trkpt>
      <trkpt lat="44.46807" lon="5.58052">
        <ele>1391</ele>
        <time>2013-05-11T14:09:36Z</time>
      </trkpt>
      <trkpt lat="44.46809" lon="5.58067">
        <ele>1392</ele>
        <time>2013-05-11T14:09:47Z</time>
      </trkpt>
      <trkpt lat="44.46806" lon="5.58075">
        <ele>1393.1999511719</ele>
        <time>2013-05-11T14:09:53Z</time>
      </trkpt>
      <trkpt lat="44.46806" lon="5.58081">
        <ele>1394</ele>
        <time>2013-05-11T14:09:57Z</time>
      </trkpt>
      <trkpt lat="44.46806" lon="5.58094">
        <ele>1394</ele>
        <time>2013-05-11T14:10:11Z</time>
      </trkpt>
      <trkpt lat="44.46804" lon="5.58102">
        <ele>1396</ele>
        <time>2013-05-11T14:10:18Z</time>
      </trkpt>
      <trkpt lat="44.46801" lon="5.58112">
        <ele>1397.4000244141</ele>
        <time>2013-05-11T14:10:27Z</time>
      </trkpt>
      <trkpt lat="44.468" lon="5.58119">
        <ele>1399.5999755859</ele>
        <time>2013-05-11T14:10:34Z</time>
      </trkpt>
      <trkpt lat="44.46799" lon="5.58121">
        <ele>1400.8000488281</ele>
        <time>2013-05-11T14:10:36Z</time>
      </trkpt>
      <trkpt lat="44.46798" lon="5.5813">
        <ele>1403.5999755859</ele>
        <time>2013-05-11T14:10:45Z</time>
      </trkpt>
      <trkpt lat="44.46792" lon="5.58142">
        <ele>1404.4000244141</ele>
        <time>2013-05-11T14:10:57Z</time>
      </trkpt>
      <trkpt lat="44.46789" lon="5.58152">
        <ele>1405.5999755859</ele>
        <time>2013-05-11T14:11:06Z</time>
      </trkpt>
      <trkpt lat="44.46785" lon="5.58166">
        <ele>1406</ele>
        <time>2013-05-11T14:11:18Z</time>
      </trkpt>
      <trkpt lat="44.46784" lon="5.5817">
        <ele>1407</ele>
        <time>2013-05-11T14:11:21Z</time>
      </trkpt>
      <trkpt lat="44.46778" lon="5.58179">
        <ele>1407.8000488281</ele>
        <time>2013-05-11T14:11:30Z</time>
      </trkpt>
      <trkpt lat="44.46775" lon="5.58187">
        <ele>1407.8000488281</ele>
        <time>2013-05-11T14:11:37Z</time>
      </trkpt>
      <trkpt lat="44.46773" lon="5.58191">
        <ele>1408.8000488281</ele>
        <time>2013-05-11T14:11:40Z</time>
      </trkpt>
      <trkpt lat="44.46769" lon="5.58203">
        <ele>1411.1999511719</ele>
        <time>2013-05-11T14:11:51Z</time>
      </trkpt>
      <trkpt lat="44.46767" lon="5.58212">
        <ele>1412.1999511719</ele>
        <time>2013-05-11T14:11:57Z</time>
      </trkpt>
      <trkpt lat="44.46764" lon="5.58222">
        <ele>1412.5999755859</ele>
        <time>2013-05-11T14:12:07Z</time>
      </trkpt>
      <trkpt lat="44.4676" lon="5.58233">
        <ele>1414</ele>
        <time>2013-05-11T14:12:14Z</time>
      </trkpt>
      <trkpt lat="44.46752" lon="5.58247">
        <ele>1414.4000244141</ele>
        <time>2013-05-11T14:12:25Z</time>
      </trkpt>
      <trkpt lat="44.46751" lon="5.58258">
        <ele>1414.4000244141</ele>
        <time>2013-05-11T14:12:32Z</time>
      </trkpt>
      <trkpt lat="44.46751" lon="5.58261">
        <ele>1414.4000244141</ele>
        <time>2013-05-11T14:12:34Z</time>
      </trkpt>
      <trkpt lat="44.46749" lon="5.58271">
        <ele>1414.4000244141</ele>
        <time>2013-05-11T14:12:41Z</time>
      </trkpt>
      <trkpt lat="44.46746" lon="5.58283">
        <ele>1414.4000244141</ele>
        <time>2013-05-11T14:12:50Z</time>
      </trkpt>
      <trkpt lat="44.46744" lon="5.58294">
        <ele>1414.4000244141</ele>
        <time>2013-05-11T14:12:59Z</time>
      </trkpt>
      <trkpt lat="44.46741" lon="5.58302">
        <ele>1413.4000244141</ele>
        <time>2013-05-11T14:13:04Z</time>
      </trkpt>
      <trkpt lat="44.46739" lon="5.58304">
        <ele>1413.4000244141</ele>
        <time>2013-05-11T14:13:06Z</time>
      </trkpt>
      <trkpt lat="44.46735" lon="5.58312">
        <ele>1412</ele>
        <time>2013-05-11T14:13:12Z</time>
      </trkpt>
      <trkpt lat="44.46732" lon="5.58321">
        <ele>1412</ele>
        <time>2013-05-11T14:13:22Z</time>
      </trkpt>
      <trkpt lat="44.46729" lon="5.58325">
        <ele>1412.8000488281</ele>
        <time>2013-05-11T14:13:27Z</time>
      </trkpt>
      <trkpt lat="44.46724" lon="5.58333">
        <ele>1414</ele>
        <time>2013-05-11T14:13:33Z</time>
      </trkpt>
      <trkpt lat="44.46721" lon="5.58345">
        <ele>1414</ele>
        <time>2013-05-11T14:13:41Z</time>
      </trkpt>
      <trkpt lat="44.46719" lon="5.58347">
        <ele>1414</ele>
        <time>2013-05-11T14:13:43Z</time>
      </trkpt>
      <trkpt lat="44.46717" lon="5.58351">
        <ele>1414.4000244141</ele>
        <time>2013-05-11T14:13:48Z</time>
      </trkpt>
      <trkpt lat="44.46713" lon="5.58362">
        <ele>1416.1999511719</ele>
        <time>2013-05-11T14:13:58Z</time>
      </trkpt>
      <trkpt lat="44.46709" lon="5.58374">
        <ele>1416.1999511719</ele>
        <time>2013-05-11T14:14:07Z</time>
      </trkpt>
      <trkpt lat="44.46706" lon="5.58381">
        <ele>1416.1999511719</ele>
        <time>2013-05-11T14:14:15Z</time>
      </trkpt>
      <trkpt lat="44.46701" lon="5.58391">
        <ele>1417.8000488281</ele>
        <time>2013-05-11T14:14:23Z</time>
      </trkpt>
      <trkpt lat="44.467" lon="5.58395">
        <ele>1418.1999511719</ele>
        <time>2013-05-11T14:14:26Z</time>
      </trkpt>
      <trkpt lat="44.46698" lon="5.58401">
        <ele>1418.5999755859</ele>
        <time>2013-05-11T14:14:31Z</time>
      </trkpt>
      <trkpt lat="44.46685" lon="5.58417">
        <ele>1420.4000244141</ele>
        <time>2013-05-11T14:14:48Z</time>
      </trkpt>
      <trkpt lat="44.4668" lon="5.58428">
        <ele>1420.4000244141</ele>
        <time>2013-05-11T14:14:57Z</time>
      </trkpt>
      <trkpt lat="44.46677" lon="5.58433">
        <ele>1421.4000244141</ele>
        <time>2013-05-11T14:15:01Z</time>
      </trkpt>
      <trkpt lat="44.46673" lon="5.58444">
        <ele>1422.8000488281</ele>
        <time>2013-05-11T14:15:07Z</time>
      </trkpt>
      <trkpt lat="44.46671" lon="5.58454">
        <ele>1422.8000488281</ele>
        <time>2013-05-11T14:15:15Z</time>
      </trkpt>
      <trkpt lat="44.46668" lon="5.58463">
        <ele>1423.1999511719</ele>
        <time>2013-05-11T14:15:22Z</time>
      </trkpt>
      <trkpt lat="44.46664" lon="5.58471">
        <ele>1425.1999511719</ele>
        <time>2013-05-11T14:15:30Z</time>
      </trkpt>
      <trkpt lat="44.46661" lon="5.58481">
        <ele>1427.8000488281</ele>
        <time>2013-05-11T14:15:37Z</time>
      </trkpt>
      <trkpt lat="44.46656" lon="5.58496">
        <ele>1428.4000244141</ele>
        <time>2013-05-11T14:15:50Z</time>
      </trkpt>
      <trkpt lat="44.46652" lon="5.58501">
        <ele>1430</ele>
        <time>2013-05-11T14:15:57Z</time>
      </trkpt>
      <trkpt lat="44.4665" lon="5.58504">
        <ele>1430.8000488281</ele>
        <time>2013-05-11T14:16:01Z</time>
      </trkpt>
      <trkpt lat="44.46638" lon="5.58508">
        <ele>1432.1999511719</ele>
        <time>2013-05-11T14:16:14Z</time>
      </trkpt>
      <trkpt lat="44.46631" lon="5.58519">
        <ele>1432.1999511719</ele>
        <time>2013-05-11T14:16:24Z</time>
      </trkpt>
      <trkpt lat="44.46623" lon="5.58526">
        <ele>1432.1999511719</ele>
        <time>2013-05-11T14:16:33Z</time>
      </trkpt>
      <trkpt lat="44.46614" lon="5.58533">
        <ele>1432.1999511719</ele>
        <time>2013-05-11T14:16:44Z</time>
      </trkpt>
      <trkpt lat="44.46608" lon="5.58542">
        <ele>1432.1999511719</ele>
        <time>2013-05-11T14:16:57Z</time>
      </trkpt>
      <trkpt lat="44.466" lon="5.58545">
        <ele>1433.4000244141</ele>
        <time>2013-05-11T14:17:07Z</time>
      </trkpt>
      <trkpt lat="44.46588" lon="5.5855">
        <ele>1435.4000244141</ele>
        <time>2013-05-11T14:17:17Z</time>
      </trkpt>
      <trkpt lat="44.46586" lon="5.58551">
        <ele>1435.8000488281</ele>
        <time>2013-05-11T14:17:19Z</time>
      </trkpt>
      <trkpt lat="44.46577" lon="5.58562">
        <ele>1436.4000244141</ele>
        <time>2013-05-11T14:17:30Z</time>
      </trkpt>
      <trkpt lat="44.46571" lon="5.5857">
        <ele>1436.4000244141</ele>
        <time>2013-05-11T14:17:38Z</time>
      </trkpt>
      <trkpt lat="44.46565" lon="5.5858">
        <ele>1436.4000244141</ele>
        <time>2013-05-11T14:17:47Z</time>
      </trkpt>
      <trkpt lat="44.46564" lon="5.58582">
        <ele>1436.4000244141</ele>
        <time>2013-05-11T14:17:49Z</time>
      </trkpt>
      <trkpt lat="44.46558" lon="5.58592">
        <ele>1437.1999511719</ele>
        <time>2013-05-11T14:17:59Z</time>
      </trkpt>
      <trkpt lat="44.46551" lon="5.58607">
        <ele>1439.1999511719</ele>
        <time>2013-05-11T14:18:14Z</time>
      </trkpt>
      <trkpt lat="44.4655" lon="5.58609">
        <ele>1439.1999511719</ele>
        <time>2013-05-11T14:18:16Z</time>
      </trkpt>
      <trkpt lat="44.46549" lon="5.58611">
        <ele>1440.1999511719</ele>
        <time>2013-05-11T14:18:18Z</time>
      </trkpt>
      <trkpt lat="44.46542" lon="5.5862">
        <ele>1442.8000488281</ele>
        <time>2013-05-11T14:18:27Z</time>
      </trkpt>
      <trkpt lat="44.4654" lon="5.58624">
        <ele>1444</ele>
        <time>2013-05-11T14:18:31Z</time>
      </trkpt>
      <trkpt lat="44.46534" lon="5.58632">
        <ele>1446</ele>
        <time>2013-05-11T14:18:41Z</time>
      </trkpt>
      <trkpt lat="44.46529" lon="5.58638">
        <ele>1446</ele>
        <time>2013-05-11T14:18:48Z</time>
      </trkpt>
      <trkpt lat="44.46527" lon="5.58642">
        <ele>1446</ele>
        <time>2013-05-11T14:18:51Z</time>
      </trkpt>
      <trkpt lat="44.46525" lon="5.58653">
        <ele>1445.5999755859</ele>
        <time>2013-05-11T14:18:59Z</time>
      </trkpt>
      <trkpt lat="44.46521" lon="5.5866">
        <ele>1444.4000244141</ele>
        <time>2013-05-11T14:19:07Z</time>
      </trkpt>
      <trkpt lat="44.46514" lon="5.58673">
        <ele>1444</ele>
        <time>2013-05-11T14:19:19Z</time>
      </trkpt>
      <trkpt lat="44.46511" lon="5.58681">
        <ele>1444</ele>
        <time>2013-05-11T14:19:28Z</time>
      </trkpt>
      <trkpt lat="44.46508" lon="5.58687">
        <ele>1444</ele>
        <time>2013-05-11T14:19:37Z</time>
      </trkpt>
      <trkpt lat="44.46501" lon="5.58698">
        <ele>1444</ele>
        <time>2013-05-11T14:19:47Z</time>
      </trkpt>
      <trkpt lat="44.46498" lon="5.58703">
        <ele>1444</ele>
        <time>2013-05-11T14:19:54Z</time>
      </trkpt>
      <trkpt lat="44.46493" lon="5.58715">
        <ele>1444</ele>
        <time>2013-05-11T14:20:03Z</time>
      </trkpt>
      <trkpt lat="44.46488" lon="5.58725">
        <ele>1444</ele>
        <time>2013-05-11T14:20:13Z</time>
      </trkpt>
      <trkpt lat="44.46484" lon="5.58734">
        <ele>1444.8000488281</ele>
        <time>2013-05-11T14:20:20Z</time>
      </trkpt>
      <trkpt lat="44.46478" lon="5.58741">
        <ele>1445.8000488281</ele>
        <time>2013-05-11T14:20:28Z</time>
      </trkpt>
      <trkpt lat="44.4647" lon="5.58752">
        <ele>1448</ele>
        <time>2013-05-11T14:20:38Z</time>
      </trkpt>
      <trkpt lat="44.46464" lon="5.5876">
        <ele>1449.4000244141</ele>
        <time>2013-05-11T14:20:49Z</time>
      </trkpt>
      <trkpt lat="44.46457" lon="5.58769">
        <ele>1450.4000244141</ele>
        <time>2013-05-11T14:20:59Z</time>
      </trkpt>
      <trkpt lat="44.46456" lon="5.58772">
        <ele>1451</ele>
        <time>2013-05-11T14:21:01Z</time>
      </trkpt>
      <trkpt lat="44.46447" lon="5.58785">
        <ele>1452.1999511719</ele>
        <time>2013-05-11T14:21:17Z</time>
      </trkpt>
      <trkpt lat="44.46441" lon="5.58798">
        <ele>1453.8000488281</ele>
        <time>2013-05-11T14:21:29Z</time>
      </trkpt>
      <trkpt lat="44.46436" lon="5.58807">
        <ele>1454.1999511719</ele>
        <time>2013-05-11T14:21:37Z</time>
      </trkpt>
      <trkpt lat="44.46431" lon="5.58815">
        <ele>1454.1999511719</ele>
        <time>2013-05-11T14:21:46Z</time>
      </trkpt>
      <trkpt lat="44.4643" lon="5.58828">
        <ele>1454.1999511719</ele>
        <time>2013-05-11T14:21:54Z</time>
      </trkpt>
      <trkpt lat="44.4643" lon="5.58837">
        <ele>1455</ele>
        <time>2013-05-11T14:21:59Z</time>
      </trkpt>
      <trkpt lat="44.4643" lon="5.58842">
        <ele>1455.5999755859</ele>
        <time>2013-05-11T14:22:02Z</time>
      </trkpt>
      <trkpt lat="44.46434" lon="5.58855">
        <ele>1457.8000488281</ele>
        <time>2013-05-11T14:22:12Z</time>
      </trkpt>
      <trkpt lat="44.46437" lon="5.58862">
        <ele>1459</ele>
        <time>2013-05-11T14:22:18Z</time>
      </trkpt>
      <trkpt lat="44.4644" lon="5.5887">
        <ele>1459.8000488281</ele>
        <time>2013-05-11T14:22:29Z</time>
      </trkpt>
      <trkpt lat="44.46447" lon="5.58883">
        <ele>1459.8000488281</ele>
        <time>2013-05-11T14:22:37Z</time>
      </trkpt>
      <trkpt lat="44.46454" lon="5.58898">
        <ele>1459.8000488281</ele>
        <time>2013-05-11T14:22:45Z</time>
      </trkpt>
      <trkpt lat="44.46461" lon="5.58916">
        <ele>1460.1999511719</ele>
        <time>2013-05-11T14:22:54Z</time>
      </trkpt>
      <trkpt lat="44.46462" lon="5.58924">
        <ele>1461</ele>
        <time>2013-05-11T14:22:58Z</time>
      </trkpt>
      <trkpt lat="44.46464" lon="5.58931">
        <ele>1461.8000488281</ele>
        <time>2013-05-11T14:23:02Z</time>
      </trkpt>
      <trkpt lat="44.46456" lon="5.58945">
        <ele>1461.8000488281</ele>
        <time>2013-05-11T14:23:10Z</time>
      </trkpt>
      <trkpt lat="44.46453" lon="5.58951">
        <ele>1461.8000488281</ele>
        <time>2013-05-11T14:23:15Z</time>
      </trkpt>
      <trkpt lat="44.46441" lon="5.58964">
        <ele>1461.8000488281</ele>
        <time>2013-05-11T14:23:27Z</time>
      </trkpt>
      <trkpt lat="44.46429" lon="5.58972">
        <ele>1462.4000244141</ele>
        <time>2013-05-11T14:23:37Z</time>
      </trkpt>
      <trkpt lat="44.46418" lon="5.58979">
        <ele>1463.1999511719</ele>
        <time>2013-05-11T14:23:43Z</time>
      </trkpt>
      <trkpt lat="44.46404" lon="5.58986">
        <ele>1464</ele>
        <time>2013-05-11T14:23:53Z</time>
      </trkpt>
      <trkpt lat="44.46392" lon="5.58993">
        <ele>1464.4000244141</ele>
        <time>2013-05-11T14:24:01Z</time>
      </trkpt>
      <trkpt lat="44.46388" lon="5.58998">
        <ele>1464.8000488281</ele>
        <time>2013-05-11T14:24:04Z</time>
      </trkpt>
      <trkpt lat="44.46385" lon="5.59002">
        <ele>1465.1999511719</ele>
        <time>2013-05-11T14:24:06Z</time>
      </trkpt>
      <trkpt lat="44.46379" lon="5.59011">
        <ele>1465.5999755859</ele>
        <time>2013-05-11T14:24:10Z</time>
      </trkpt>
      <trkpt lat="44.46371" lon="5.59028">
        <ele>1466.1999511719</ele>
        <time>2013-05-11T14:24:17Z</time>
      </trkpt>
      <trkpt lat="44.46359" lon="5.59048">
        <ele>1466.1999511719</ele>
        <time>2013-05-11T14:24:23Z</time>
      </trkpt>
      <trkpt lat="44.46348" lon="5.59072">
        <ele>1466.1999511719</ele>
        <time>2013-05-11T14:24:29Z</time>
      </trkpt>
      <trkpt lat="44.46334" lon="5.59099">
        <ele>1465.5999755859</ele>
        <time>2013-05-11T14:24:35Z</time>
      </trkpt>
      <trkpt lat="44.46326" lon="5.5911">
        <ele>1465.1999511719</ele>
        <time>2013-05-11T14:24:38Z</time>
      </trkpt>
      <trkpt lat="44.46321" lon="5.59118">
        <ele>1464.8000488281</ele>
        <time>2013-05-11T14:24:40Z</time>
      </trkpt>
      <trkpt lat="44.46319" lon="5.59125">
        <ele>1464.4000244141</ele>
        <time>2013-05-11T14:24:41Z</time>
      </trkpt>
      <trkpt lat="44.46313" lon="5.59136">
        <ele>1464</ele>
        <time>2013-05-11T14:24:43Z</time>
      </trkpt>
      <trkpt lat="44.46303" lon="5.59166">
        <ele>1464</ele>
        <time>2013-05-11T14:24:48Z</time>
      </trkpt>
      <trkpt lat="44.46291" lon="5.59193">
        <ele>1463.4000244141</ele>
        <time>2013-05-11T14:24:53Z</time>
      </trkpt>
      <trkpt lat="44.46286" lon="5.59202">
        <ele>1463.4000244141</ele>
        <time>2013-05-11T14:24:55Z</time>
      </trkpt>
      <trkpt lat="44.4628" lon="5.59211">
        <ele>1463</ele>
        <time>2013-05-11T14:24:58Z</time>
      </trkpt>
      <trkpt lat="44.4627" lon="5.59223">
        <ele>1461.8000488281</ele>
        <time>2013-05-11T14:25:02Z</time>
      </trkpt>
      <trkpt lat="44.46263" lon="5.59233">
        <ele>1461</ele>
        <time>2013-05-11T14:25:05Z</time>
      </trkpt>
      <trkpt lat="44.46257" lon="5.59245">
        <ele>1459.5999755859</ele>
        <time>2013-05-11T14:25:08Z</time>
      </trkpt>
      <trkpt lat="44.46251" lon="5.59258">
        <ele>1458.8000488281</ele>
        <time>2013-05-11T14:25:11Z</time>
      </trkpt>
      <trkpt lat="44.46245" lon="5.59292">
        <ele>1458.8000488281</ele>
        <time>2013-05-11T14:25:15Z</time>
      </trkpt>
      <trkpt lat="44.46237" lon="5.59314">
        <ele>1458.4000244141</ele>
        <time>2013-05-11T14:25:19Z</time>
      </trkpt>
      <trkpt lat="44.46232" lon="5.59321">
        <ele>1458.4000244141</ele>
        <time>2013-05-11T14:25:21Z</time>
      </trkpt>
      <trkpt lat="44.46229" lon="5.59325">
        <ele>1457.8000488281</ele>
        <time>2013-05-11T14:25:22Z</time>
      </trkpt>
      <trkpt lat="44.46225" lon="5.59335">
        <ele>1457.4000244141</ele>
        <time>2013-05-11T14:25:24Z</time>
      </trkpt>
      <trkpt lat="44.46221" lon="5.59344">
        <ele>1456.8000488281</ele>
        <time>2013-05-11T14:25:26Z</time>
      </trkpt>
      <trkpt lat="44.46214" lon="5.59356">
        <ele>1456.4000244141</ele>
        <time>2013-05-11T14:25:29Z</time>
      </trkpt>
      <trkpt lat="44.46204" lon="5.59367">
        <ele>1456.4000244141</ele>
        <time>2013-05-11T14:25:32Z</time>
      </trkpt>
      <trkpt lat="44.46196" lon="5.59393">
        <ele>1456.4000244141</ele>
        <time>2013-05-11T14:25:37Z</time>
      </trkpt>
      <trkpt lat="44.46189" lon="5.59404">
        <ele>1455.4000244141</ele>
        <time>2013-05-11T14:25:40Z</time>
      </trkpt>
      <trkpt lat="44.46183" lon="5.59412">
        <ele>1455.4000244141</ele>
        <time>2013-05-11T14:25:42Z</time>
      </trkpt>
      <trkpt lat="44.46169" lon="5.59442">
        <ele>1454.5999755859</ele>
        <time>2013-05-11T14:25:46Z</time>
      </trkpt>
      <trkpt lat="44.46161" lon="5.59457">
        <ele>1454.5999755859</ele>
        <time>2013-05-11T14:25:48Z</time>
      </trkpt>
      <trkpt lat="44.46158" lon="5.59467">
        <ele>1454.5999755859</ele>
        <time>2013-05-11T14:25:49Z</time>
      </trkpt>
      <trkpt lat="44.46155" lon="5.59473">
        <ele>1454.1999511719</ele>
        <time>2013-05-11T14:25:50Z</time>
      </trkpt>
      <trkpt lat="44.46151" lon="5.59484">
        <ele>1454.1999511719</ele>
        <time>2013-05-11T14:25:52Z</time>
      </trkpt>
      <trkpt lat="44.4614" lon="5.59511">
        <ele>1454.1999511719</ele>
        <time>2013-05-11T14:25:58Z</time>
      </trkpt>
      <trkpt lat="44.46133" lon="5.5955">
        <ele>1453.8000488281</ele>
        <time>2013-05-11T14:26:04Z</time>
      </trkpt>
      <trkpt lat="44.46132" lon="5.59556">
        <ele>1453.4000244141</ele>
        <time>2013-05-11T14:26:05Z</time>
      </trkpt>
      <trkpt lat="44.46132" lon="5.59575">
        <ele>1453</ele>
        <time>2013-05-11T14:26:08Z</time>
      </trkpt>
      <trkpt lat="44.46131" lon="5.59588">
        <ele>1452.4000244141</ele>
        <time>2013-05-11T14:26:10Z</time>
      </trkpt>
      <trkpt lat="44.4613" lon="5.59602">
        <ele>1452</ele>
        <time>2013-05-11T14:26:13Z</time>
      </trkpt>
      <trkpt lat="44.46132" lon="5.59614">
        <ele>1452</ele>
        <time>2013-05-11T14:26:15Z</time>
      </trkpt>
      <trkpt lat="44.46129" lon="5.59629">
        <ele>1452</ele>
        <time>2013-05-11T14:26:19Z</time>
      </trkpt>
      <trkpt lat="44.46115" lon="5.59638">
        <ele>1452</ele>
        <time>2013-05-11T14:26:24Z</time>
      </trkpt>
      <trkpt lat="44.46107" lon="5.59644">
        <ele>1452</ele>
        <time>2013-05-11T14:26:27Z</time>
      </trkpt>
      <trkpt lat="44.46088" lon="5.59674">
        <ele>1452</ele>
        <time>2013-05-11T14:26:35Z</time>
      </trkpt>
      <trkpt lat="44.46086" lon="5.59681">
        <ele>1452</ele>
        <time>2013-05-11T14:26:37Z</time>
      </trkpt>
      <trkpt lat="44.46078" lon="5.59691">
        <ele>1452</ele>
        <time>2013-05-11T14:26:40Z</time>
      </trkpt>
      <trkpt lat="44.46061" lon="5.59723">
        <ele>1452</ele>
        <time>2013-05-11T14:26:48Z</time>
      </trkpt>
      <trkpt lat="44.46058" lon="5.5974">
        <ele>1452</ele>
        <time>2013-05-11T14:26:53Z</time>
      </trkpt>
      <trkpt lat="44.46048" lon="5.59749">
        <ele>1459</ele>
        <time>2013-05-11T14:28:58Z</time>
      </trkpt>
      <trkpt lat="44.46045" lon="5.59751">
        <ele>1459</ele>
        <time>2013-05-11T14:28:59Z</time>
      </trkpt>
      <trkpt lat="44.46042" lon="5.59761">
        <ele>1458.4000244141</ele>
        <time>2013-05-11T14:29:04Z</time>
      </trkpt>
      <trkpt lat="44.46036" lon="5.59766">
        <ele>1458</ele>
        <time>2013-05-11T14:29:06Z</time>
      </trkpt>
      <trkpt lat="44.46039" lon="5.59771">
        <ele>1457</ele>
        <time>2013-05-11T14:29:11Z</time>
      </trkpt>
      <trkpt lat="44.46045" lon="5.59772">
        <ele>1456.4000244141</ele>
        <time>2013-05-11T14:29:14Z</time>
      </trkpt>
      <trkpt lat="44.46052" lon="5.59774">
        <ele>1454.1999511719</ele>
        <time>2013-05-11T14:29:18Z</time>
      </trkpt>
      <trkpt lat="44.46049" lon="5.59776">
        <ele>1452</ele>
        <time>2013-05-11T14:29:38Z</time>
      </trkpt>
      <trkpt lat="44.4603" lon="5.59772">
        <ele>1452</ele>
        <time>2013-05-11T14:29:58Z</time>
      </trkpt>
      <trkpt lat="44.46013" lon="5.59773">
        <ele>1452</ele>
        <time>2013-05-11T14:30:03Z</time>
      </trkpt>
      <trkpt lat="44.46" lon="5.59784">
        <ele>1452</ele>
        <time>2013-05-11T14:30:08Z</time>
      </trkpt>
      <trkpt lat="44.45991" lon="5.59798">
        <ele>1452</ele>
        <time>2013-05-11T14:30:15Z</time>
      </trkpt>
      <trkpt lat="44.45982" lon="5.59815">
        <ele>1452</ele>
        <time>2013-05-11T14:30:21Z</time>
      </trkpt>
      <trkpt lat="44.45969" lon="5.59843">
        <ele>1452</ele>
        <time>2013-05-11T14:30:29Z</time>
      </trkpt>
      <trkpt lat="44.45963" lon="5.5986">
        <ele>1452</ele>
        <time>2013-05-11T14:30:35Z</time>
      </trkpt>
      <trkpt lat="44.45957" lon="5.59877">
        <ele>1450.5999755859</ele>
        <time>2013-05-11T14:30:40Z</time>
      </trkpt>
      <trkpt lat="44.45956" lon="5.59883">
        <ele>1450.1999511719</ele>
        <time>2013-05-11T14:30:42Z</time>
      </trkpt>
      <trkpt lat="44.45954" lon="5.59907">
        <ele>1449.8000488281</ele>
        <time>2013-05-11T14:30:49Z</time>
      </trkpt>
      <trkpt lat="44.45955" lon="5.59932">
        <ele>1449.8000488281</ele>
        <time>2013-05-11T14:30:56Z</time>
      </trkpt>
      <trkpt lat="44.45944" lon="5.59953">
        <ele>1449.8000488281</ele>
        <time>2013-05-11T14:31:01Z</time>
      </trkpt>
      <trkpt lat="44.45938" lon="5.59961">
        <ele>1449.8000488281</ele>
        <time>2013-05-11T14:31:04Z</time>
      </trkpt>
      <trkpt lat="44.45926" lon="5.59987">
        <ele>1449.8000488281</ele>
        <time>2013-05-11T14:31:12Z</time>
      </trkpt>
      <trkpt lat="44.45919" lon="5.60005">
        <ele>1449.4000244141</ele>
        <time>2013-05-11T14:31:16Z</time>
      </trkpt>
      <trkpt lat="44.45914" lon="5.60016">
        <ele>1448</ele>
        <time>2013-05-11T14:31:20Z</time>
      </trkpt>
      <trkpt lat="44.4591" lon="5.60024">
        <ele>1448</ele>
        <time>2013-05-11T14:31:22Z</time>
      </trkpt>
      <trkpt lat="44.45909" lon="5.60028">
        <ele>1447.5999755859</ele>
        <time>2013-05-11T14:31:23Z</time>
      </trkpt>
      <trkpt lat="44.45903" lon="5.6005">
        <ele>1447.5999755859</ele>
        <time>2013-05-11T14:31:29Z</time>
      </trkpt>
      <trkpt lat="44.45894" lon="5.60079">
        <ele>1447.5999755859</ele>
        <time>2013-05-11T14:31:37Z</time>
      </trkpt>
      <trkpt lat="44.45898" lon="5.60107">
        <ele>1447.5999755859</ele>
        <time>2013-05-11T14:31:43Z</time>
      </trkpt>
      <trkpt lat="44.45903" lon="5.60125">
        <ele>1447.5999755859</ele>
        <time>2013-05-11T14:31:48Z</time>
      </trkpt>
      <trkpt lat="44.459" lon="5.60129">
        <ele>1447.5999755859</ele>
        <time>2013-05-11T14:31:50Z</time>
      </trkpt>
      <trkpt lat="44.45895" lon="5.60136">
        <ele>1447.5999755859</ele>
        <time>2013-05-11T14:31:52Z</time>
      </trkpt>
      <trkpt lat="44.45887" lon="5.60153">
        <ele>1447.5999755859</ele>
        <time>2013-05-11T14:31:57Z</time>
      </trkpt>
      <trkpt lat="44.45871" lon="5.60182">
        <ele>1447.5999755859</ele>
        <time>2013-05-11T14:32:05Z</time>
      </trkpt>
      <trkpt lat="44.45866" lon="5.60209">
        <ele>1447.5999755859</ele>
        <time>2013-05-11T14:32:12Z</time>
      </trkpt>
      <trkpt lat="44.45866" lon="5.60218">
        <ele>1447.5999755859</ele>
        <time>2013-05-11T14:32:14Z</time>
      </trkpt>
      <trkpt lat="44.45866" lon="5.60227">
        <ele>1447.5999755859</ele>
        <time>2013-05-11T14:32:16Z</time>
      </trkpt>
      <trkpt lat="44.45851" lon="5.6024">
        <ele>1447.5999755859</ele>
        <time>2013-05-11T14:32:21Z</time>
      </trkpt>
      <trkpt lat="44.45838" lon="5.60257">
        <ele>1447.5999755859</ele>
        <time>2013-05-11T14:32:26Z</time>
      </trkpt>
      <trkpt lat="44.45823" lon="5.60285">
        <ele>1447.5999755859</ele>
        <time>2013-05-11T14:32:31Z</time>
      </trkpt>
      <trkpt lat="44.45817" lon="5.60299">
        <ele>1447.1999511719</ele>
        <time>2013-05-11T14:32:33Z</time>
      </trkpt>
      <trkpt lat="44.45815" lon="5.60305">
        <ele>1446.8000488281</ele>
        <time>2013-05-11T14:32:34Z</time>
      </trkpt>
      <trkpt lat="44.45808" lon="5.60323">
        <ele>1446.4000244141</ele>
        <time>2013-05-11T14:32:37Z</time>
      </trkpt>
      <trkpt lat="44.458" lon="5.60337">
        <ele>1446</ele>
        <time>2013-05-11T14:32:40Z</time>
      </trkpt>
      <trkpt lat="44.45797" lon="5.60342">
        <ele>1445.4000244141</ele>
        <time>2013-05-11T14:32:41Z</time>
      </trkpt>
      <trkpt lat="44.45792" lon="5.60352">
        <ele>1445</ele>
        <time>2013-05-11T14:32:43Z</time>
      </trkpt>
      <trkpt lat="44.45784" lon="5.60367">
        <ele>1444.4000244141</ele>
        <time>2013-05-11T14:32:46Z</time>
      </trkpt>
      <trkpt lat="44.4578" lon="5.60375">
        <ele>1444</ele>
        <time>2013-05-11T14:32:48Z</time>
      </trkpt>
      <trkpt lat="44.45776" lon="5.60381">
        <ele>1443.4000244141</ele>
        <time>2013-05-11T14:32:50Z</time>
      </trkpt>
      <trkpt lat="44.45763" lon="5.60394">
        <ele>1443.4000244141</ele>
        <time>2013-05-11T14:32:54Z</time>
      </trkpt>
      <trkpt lat="44.4576" lon="5.60396">
        <ele>1443.4000244141</ele>
        <time>2013-05-11T14:32:55Z</time>
      </trkpt>
      <trkpt lat="44.45742" lon="5.60401">
        <ele>1443.4000244141</ele>
        <time>2013-05-11T14:32:59Z</time>
      </trkpt>
      <trkpt lat="44.45724" lon="5.60406">
        <ele>1443.4000244141</ele>
        <time>2013-05-11T14:33:03Z</time>
      </trkpt>
      <trkpt lat="44.4572" lon="5.60407">
        <ele>1443.4000244141</ele>
        <time>2013-05-11T14:33:06Z</time>
      </trkpt>
      <trkpt lat="44.45721" lon="5.60408">
        <ele>1442.5999755859</ele>
        <time>2013-05-11T14:33:10Z</time>
      </trkpt>
      <trkpt lat="44.45721" lon="5.60412">
        <ele>1440</ele>
        <time>2013-05-11T14:35:39Z</time>
      </trkpt>
      <trkpt lat="44.45718" lon="5.60415">
        <ele>1441.5999755859</ele>
        <time>2013-05-11T14:37:56Z</time>
      </trkpt>
      <trkpt lat="44.457" lon="5.60437">
        <ele>1441.5999755859</ele>
        <time>2013-05-11T14:38:03Z</time>
      </trkpt>
      <trkpt lat="44.45696" lon="5.60441">
        <ele>1441.5999755859</ele>
        <time>2013-05-11T14:38:04Z</time>
      </trkpt>
      <trkpt lat="44.45686" lon="5.6046">
        <ele>1441.5999755859</ele>
        <time>2013-05-11T14:38:08Z</time>
      </trkpt>
      <trkpt lat="44.45673" lon="5.60484">
        <ele>1441.5999755859</ele>
        <time>2013-05-11T14:38:14Z</time>
      </trkpt>
      <trkpt lat="44.45661" lon="5.60507">
        <ele>1441.5999755859</ele>
        <time>2013-05-11T14:38:21Z</time>
      </trkpt>
      <trkpt lat="44.45647" lon="5.60531">
        <ele>1441.5999755859</ele>
        <time>2013-05-11T14:38:28Z</time>
      </trkpt>
      <trkpt lat="44.45644" lon="5.60558">
        <ele>1441.5999755859</ele>
        <time>2013-05-11T14:38:34Z</time>
      </trkpt>
      <trkpt lat="44.45649" lon="5.60584">
        <ele>1441.5999755859</ele>
        <time>2013-05-11T14:38:39Z</time>
      </trkpt>
      <trkpt lat="44.45657" lon="5.60622">
        <ele>1441.5999755859</ele>
        <time>2013-05-11T14:38:45Z</time>
      </trkpt>
      <trkpt lat="44.45668" lon="5.60667">
        <ele>1441.5999755859</ele>
        <time>2013-05-11T14:38:52Z</time>
      </trkpt>
      <trkpt lat="44.45671" lon="5.60673">
        <ele>1441.5999755859</ele>
        <time>2013-05-11T14:38:53Z</time>
      </trkpt>
      <trkpt lat="44.45682" lon="5.607">
        <ele>1441.5999755859</ele>
        <time>2013-05-11T14:38:58Z</time>
      </trkpt>
      <trkpt lat="44.45686" lon="5.60711">
        <ele>1441.5999755859</ele>
        <time>2013-05-11T14:39:00Z</time>
      </trkpt>
      <trkpt lat="44.45696" lon="5.60719">
        <ele>1441.5999755859</ele>
        <time>2013-05-11T14:39:03Z</time>
      </trkpt>
      <trkpt lat="44.457" lon="5.6072">
        <ele>1441.5999755859</ele>
        <time>2013-05-11T14:39:04Z</time>
      </trkpt>
      <trkpt lat="44.45706" lon="5.60724">
        <ele>1441.5999755859</ele>
        <time>2013-05-11T14:39:06Z</time>
      </trkpt>
      <trkpt lat="44.45725" lon="5.6076">
        <ele>1441.5999755859</ele>
        <time>2013-05-11T14:39:14Z</time>
      </trkpt>
      <trkpt lat="44.45747" lon="5.60803">
        <ele>1441.5999755859</ele>
        <time>2013-05-11T14:39:21Z</time>
      </trkpt>
      <trkpt lat="44.45776" lon="5.60863">
        <ele>1441.5999755859</ele>
        <time>2013-05-11T14:39:29Z</time>
      </trkpt>
      <trkpt lat="44.45803" lon="5.60917">
        <ele>1441.5999755859</ele>
        <time>2013-05-11T14:39:37Z</time>
      </trkpt>
      <trkpt lat="44.45829" lon="5.60965">
        <ele>1441.5999755859</ele>
        <time>2013-05-11T14:39:43Z</time>
      </trkpt>
      <trkpt lat="44.45832" lon="5.60975">
        <ele>1441.5999755859</ele>
        <time>2013-05-11T14:39:44Z</time>
      </trkpt>
      <trkpt lat="44.45835" lon="5.60984">
        <ele>1440.5999755859</ele>
        <time>2013-05-11T14:39:45Z</time>
      </trkpt>
      <trkpt lat="44.45837" lon="5.60992">
        <ele>1440.5999755859</ele>
        <time>2013-05-11T14:39:46Z</time>
      </trkpt>
      <trkpt lat="44.45835" lon="5.61006">
        <ele>1440</ele>
        <time>2013-05-11T14:39:48Z</time>
      </trkpt>
      <trkpt lat="44.45832" lon="5.61011">
        <ele>1439.4000244141</ele>
        <time>2013-05-11T14:39:49Z</time>
      </trkpt>
      <trkpt lat="44.45823" lon="5.61016">
        <ele>1439.4000244141</ele>
        <time>2013-05-11T14:39:51Z</time>
      </trkpt>
      <trkpt lat="44.45815" lon="5.61018">
        <ele>1439</ele>
        <time>2013-05-11T14:39:52Z</time>
      </trkpt>
      <trkpt lat="44.45807" lon="5.6102">
        <ele>1439</ele>
        <time>2013-05-11T14:39:53Z</time>
      </trkpt>
      <trkpt lat="44.45794" lon="5.61025">
        <ele>1438.4000244141</ele>
        <time>2013-05-11T14:39:55Z</time>
      </trkpt>
      <trkpt lat="44.45786" lon="5.61028">
        <ele>1437.8000488281</ele>
        <time>2013-05-11T14:39:56Z</time>
      </trkpt>
      <trkpt lat="44.45779" lon="5.6103">
        <ele>1437.8000488281</ele>
        <time>2013-05-11T14:39:57Z</time>
      </trkpt>
      <trkpt lat="44.45771" lon="5.6103">
        <ele>1437.8000488281</ele>
        <time>2013-05-11T14:39:58Z</time>
      </trkpt>
      <trkpt lat="44.45763" lon="5.61031">
        <ele>1436.8000488281</ele>
        <time>2013-05-11T14:39:59Z</time>
      </trkpt>
      <trkpt lat="44.45742" lon="5.61038">
        <ele>1436.1999511719</ele>
        <time>2013-05-11T14:40:02Z</time>
      </trkpt>
      <trkpt lat="44.45736" lon="5.61044">
        <ele>1435.5999755859</ele>
        <time>2013-05-11T14:40:03Z</time>
      </trkpt>
      <trkpt lat="44.45722" lon="5.61061">
        <ele>1434.8000488281</ele>
        <time>2013-05-11T14:40:06Z</time>
      </trkpt>
      <trkpt lat="44.45719" lon="5.61068">
        <ele>1434.8000488281</ele>
        <time>2013-05-11T14:40:07Z</time>
      </trkpt>
      <trkpt lat="44.45715" lon="5.6108">
        <ele>1434.1999511719</ele>
        <time>2013-05-11T14:40:09Z</time>
      </trkpt>
      <trkpt lat="44.45713" lon="5.61086">
        <ele>1433.8000488281</ele>
        <time>2013-05-11T14:40:10Z</time>
      </trkpt>
      <trkpt lat="44.45705" lon="5.61104">
        <ele>1433.8000488281</ele>
        <time>2013-05-11T14:40:13Z</time>
      </trkpt>
      <trkpt lat="44.45691" lon="5.61132">
        <ele>1433.8000488281</ele>
        <time>2013-05-11T14:40:19Z</time>
      </trkpt>
      <trkpt lat="44.4569" lon="5.61134">
        <ele>1433.8000488281</ele>
        <time>2013-05-11T14:40:20Z</time>
      </trkpt>
      <trkpt lat="44.45679" lon="5.6114">
        <ele>1432.8000488281</ele>
        <time>2013-05-11T14:40:27Z</time>
      </trkpt>
      <trkpt lat="44.45664" lon="5.61156">
        <ele>1430.5999755859</ele>
        <time>2013-05-11T14:40:34Z</time>
      </trkpt>
      <trkpt lat="44.45655" lon="5.61159">
        <ele>1429.8000488281</ele>
        <time>2013-05-11T14:40:37Z</time>
      </trkpt>
      <trkpt lat="44.45647" lon="5.61161">
        <ele>1429</ele>
        <time>2013-05-11T14:40:40Z</time>
      </trkpt>
      <trkpt lat="44.45638" lon="5.61166">
        <ele>1426.1999511719</ele>
        <time>2013-05-11T14:40:44Z</time>
      </trkpt>
      <trkpt lat="44.45632" lon="5.61172">
        <ele>1425.1999511719</ele>
        <time>2013-05-11T14:40:47Z</time>
      </trkpt>
      <trkpt lat="44.45629" lon="5.61173">
        <ele>1423.8000488281</ele>
        <time>2013-05-11T14:40:48Z</time>
      </trkpt>
      <trkpt lat="44.45619" lon="5.61178">
        <ele>1423</ele>
        <time>2013-05-11T14:40:52Z</time>
      </trkpt>
      <trkpt lat="44.45609" lon="5.61183">
        <ele>1419.1999511719</ele>
        <time>2013-05-11T14:41:01Z</time>
      </trkpt>
      <trkpt lat="44.45602" lon="5.61194">
        <ele>1419.1999511719</ele>
        <time>2013-05-11T14:41:16Z</time>
      </trkpt>
      <trkpt lat="44.45595" lon="5.61209">
        <ele>1419.1999511719</ele>
        <time>2013-05-11T14:41:24Z</time>
      </trkpt>
      <trkpt lat="44.45589" lon="5.61231">
        <ele>1419.1999511719</ele>
        <time>2013-05-11T14:41:33Z</time>
      </trkpt>
      <trkpt lat="44.45591" lon="5.61277">
        <ele>1419.1999511719</ele>
        <time>2013-05-11T14:41:40Z</time>
      </trkpt>
      <trkpt lat="44.45593" lon="5.61295">
        <ele>1419.1999511719</ele>
        <time>2013-05-11T14:41:44Z</time>
      </trkpt>
      <trkpt lat="44.45598" lon="5.61315">
        <ele>1419.1999511719</ele>
        <time>2013-05-11T14:41:49Z</time>
      </trkpt>
      <trkpt lat="44.45597" lon="5.61326">
        <ele>1418.8000488281</ele>
        <time>2013-05-11T14:41:52Z</time>
      </trkpt>
      <trkpt lat="44.45593" lon="5.61335">
        <ele>1418.4000244141</ele>
        <time>2013-05-11T14:41:55Z</time>
      </trkpt>
      <trkpt lat="44.45589" lon="5.61349">
        <ele>1416.8000488281</ele>
        <time>2013-05-11T14:41:58Z</time>
      </trkpt>
      <trkpt lat="44.45587" lon="5.61359">
        <ele>1416.8000488281</ele>
        <time>2013-05-11T14:42:00Z</time>
      </trkpt>
      <trkpt lat="44.45586" lon="5.61363">
        <ele>1414.5999755859</ele>
        <time>2013-05-11T14:42:01Z</time>
      </trkpt>
      <trkpt lat="44.45578" lon="5.61379">
        <ele>1413.4000244141</ele>
        <time>2013-05-11T14:42:04Z</time>
      </trkpt>
      <trkpt lat="44.45575" lon="5.61388">
        <ele>1413.4000244141</ele>
        <time>2013-05-11T14:42:05Z</time>
      </trkpt>
      <trkpt lat="44.45569" lon="5.61398">
        <ele>1412.1999511719</ele>
        <time>2013-05-11T14:42:07Z</time>
      </trkpt>
      <trkpt lat="44.45564" lon="5.61406">
        <ele>1412.1999511719</ele>
        <time>2013-05-11T14:42:09Z</time>
      </trkpt>
      <trkpt lat="44.4556" lon="5.61418">
        <ele>1409.1999511719</ele>
        <time>2013-05-11T14:42:11Z</time>
      </trkpt>
      <trkpt lat="44.45555" lon="5.61432">
        <ele>1406.5999755859</ele>
        <time>2013-05-11T14:42:14Z</time>
      </trkpt>
      <trkpt lat="44.4555" lon="5.61443">
        <ele>1402.4000244141</ele>
        <time>2013-05-11T14:42:17Z</time>
      </trkpt>
      <trkpt lat="44.45546" lon="5.6146">
        <ele>1402.4000244141</ele>
        <time>2013-05-11T14:42:20Z</time>
      </trkpt>
      <trkpt lat="44.45535" lon="5.61472">
        <ele>1401.8000488281</ele>
        <time>2013-05-11T14:42:24Z</time>
      </trkpt>
      <trkpt lat="44.45529" lon="5.61479">
        <ele>1399.8000488281</ele>
        <time>2013-05-11T14:42:27Z</time>
      </trkpt>
      <trkpt lat="44.45524" lon="5.6149">
        <ele>1398.5999755859</ele>
        <time>2013-05-11T14:42:30Z</time>
      </trkpt>
      <trkpt lat="44.45516" lon="5.61496">
        <ele>1397.4000244141</ele>
        <time>2013-05-11T14:42:33Z</time>
      </trkpt>
      <trkpt lat="44.45508" lon="5.61504">
        <ele>1395.8000488281</ele>
        <time>2013-05-11T14:42:35Z</time>
      </trkpt>
      <trkpt lat="44.45506" lon="5.61527">
        <ele>1392</ele>
        <time>2013-05-11T14:42:37Z</time>
      </trkpt>
      <trkpt lat="44.45505" lon="5.61538">
        <ele>1392</ele>
        <time>2013-05-11T14:42:39Z</time>
      </trkpt>
      <trkpt lat="44.45505" lon="5.61543">
        <ele>1388.8000488281</ele>
        <time>2013-05-11T14:42:40Z</time>
      </trkpt>
      <trkpt lat="44.45499" lon="5.61556">
        <ele>1387.4000244141</ele>
        <time>2013-05-11T14:42:43Z</time>
      </trkpt>
      <trkpt lat="44.45497" lon="5.6156">
        <ele>1387.4000244141</ele>
        <time>2013-05-11T14:42:44Z</time>
      </trkpt>
      <trkpt lat="44.45488" lon="5.61566">
        <ele>1381</ele>
        <time>2013-05-11T14:42:50Z</time>
      </trkpt>
      <trkpt lat="44.45478" lon="5.61575">
        <ele>1378</ele>
        <time>2013-05-11T14:42:53Z</time>
      </trkpt>
      <trkpt lat="44.45468" lon="5.61577">
        <ele>1376.4000244141</ele>
        <time>2013-05-11T14:42:56Z</time>
      </trkpt>
      <trkpt lat="44.45458" lon="5.61584">
        <ele>1375</ele>
        <time>2013-05-11T14:42:59Z</time>
      </trkpt>
      <trkpt lat="44.45451" lon="5.61591">
        <ele>1373.5999755859</ele>
        <time>2013-05-11T14:43:01Z</time>
      </trkpt>
      <trkpt lat="44.45442" lon="5.61595">
        <ele>1371.1999511719</ele>
        <time>2013-05-11T14:43:03Z</time>
      </trkpt>
      <trkpt lat="44.45424" lon="5.616">
        <ele>1370</ele>
        <time>2013-05-11T14:43:06Z</time>
      </trkpt>
      <trkpt lat="44.45415" lon="5.61605">
        <ele>1370</ele>
        <time>2013-05-11T14:43:07Z</time>
      </trkpt>
      <trkpt lat="44.45409" lon="5.6161">
        <ele>1369</ele>
        <time>2013-05-11T14:43:08Z</time>
      </trkpt>
      <trkpt lat="44.454" lon="5.61619">
        <ele>1366.5999755859</ele>
        <time>2013-05-11T14:43:10Z</time>
      </trkpt>
      <trkpt lat="44.45398" lon="5.61623">
        <ele>1366.5999755859</ele>
        <time>2013-05-11T14:43:11Z</time>
      </trkpt>
      <trkpt lat="44.45385" lon="5.61625">
        <ele>1363.1999511719</ele>
        <time>2013-05-11T14:43:16Z</time>
      </trkpt>
      <trkpt lat="44.4538" lon="5.61625">
        <ele>1362</ele>
        <time>2013-05-11T14:43:18Z</time>
      </trkpt>
      <trkpt lat="44.45346" lon="5.6163">
        <ele>1351.8000488281</ele>
        <time>2013-05-11T14:44:59Z</time>
      </trkpt>
      <trkpt lat="44.45319" lon="5.61641">
        <ele>1351.8000488281</ele>
        <time>2013-05-11T14:45:05Z</time>
      </trkpt>
      <trkpt lat="44.45301" lon="5.61642">
        <ele>1351.8000488281</ele>
        <time>2013-05-11T14:45:10Z</time>
      </trkpt>
      <trkpt lat="44.45295" lon="5.61654">
        <ele>1351.8000488281</ele>
        <time>2013-05-11T14:45:17Z</time>
      </trkpt>
      <trkpt lat="44.45289" lon="5.61661">
        <ele>1351.8000488281</ele>
        <time>2013-05-11T14:45:22Z</time>
      </trkpt>
      <trkpt lat="44.45281" lon="5.61688">
        <ele>1351.8000488281</ele>
        <time>2013-05-11T14:45:31Z</time>
      </trkpt>
      <trkpt lat="44.4528" lon="5.61691">
        <ele>1351.1999511719</ele>
        <time>2013-05-11T14:45:32Z</time>
      </trkpt>
      <trkpt lat="44.4528" lon="5.61698">
        <ele>1350.1999511719</ele>
        <time>2013-05-11T14:45:34Z</time>
      </trkpt>
      <trkpt lat="44.45279" lon="5.61708">
        <ele>1349.4000244141</ele>
        <time>2013-05-11T14:45:37Z</time>
      </trkpt>
      <trkpt lat="44.45278" lon="5.61711">
        <ele>1349.4000244141</ele>
        <time>2013-05-11T14:45:38Z</time>
      </trkpt>
      <trkpt lat="44.45276" lon="5.61724">
        <ele>1347.4000244141</ele>
        <time>2013-05-11T14:45:42Z</time>
      </trkpt>
      <trkpt lat="44.45275" lon="5.61733">
        <ele>1346.8000488281</ele>
        <time>2013-05-11T14:45:45Z</time>
      </trkpt>
      <trkpt lat="44.45269" lon="5.61757">
        <ele>1346.8000488281</ele>
        <time>2013-05-11T14:45:52Z</time>
      </trkpt>
      <trkpt lat="44.45261" lon="5.61782">
        <ele>1346.8000488281</ele>
        <time>2013-05-11T14:45:58Z</time>
      </trkpt>
      <trkpt lat="44.4526" lon="5.61809">
        <ele>1346.1999511719</ele>
        <time>2013-05-11T14:46:04Z</time>
      </trkpt>
      <trkpt lat="44.45258" lon="5.61821">
        <ele>1345.4000244141</ele>
        <time>2013-05-11T14:46:07Z</time>
      </trkpt>
      <trkpt lat="44.45253" lon="5.6183">
        <ele>1344.5999755859</ele>
        <time>2013-05-11T14:46:10Z</time>
      </trkpt>
      <trkpt lat="44.4525" lon="5.61834">
        <ele>1343.8000488281</ele>
        <time>2013-05-11T14:46:11Z</time>
      </trkpt>
      <trkpt lat="44.45242" lon="5.6185">
        <ele>1342.8000488281</ele>
        <time>2013-05-11T14:46:14Z</time>
      </trkpt>
      <trkpt lat="44.45234" lon="5.61862">
        <ele>1342</ele>
        <time>2013-05-11T14:46:16Z</time>
      </trkpt>
      <trkpt lat="44.45222" lon="5.61881">
        <ele>1341.1999511719</ele>
        <time>2013-05-11T14:46:19Z</time>
      </trkpt>
      <trkpt lat="44.45214" lon="5.6189">
        <ele>1341.1999511719</ele>
        <time>2013-05-11T14:46:21Z</time>
      </trkpt>
      <trkpt lat="44.45208" lon="5.61898">
        <ele>1340.5999755859</ele>
        <time>2013-05-11T14:46:23Z</time>
      </trkpt>
      <trkpt lat="44.45201" lon="5.61919">
        <ele>1340.5999755859</ele>
        <time>2013-05-11T14:46:26Z</time>
      </trkpt>
      <trkpt lat="44.452" lon="5.61927">
        <ele>1340</ele>
        <time>2013-05-11T14:46:27Z</time>
      </trkpt>
      <trkpt lat="44.45198" lon="5.61938">
        <ele>1338.5999755859</ele>
        <time>2013-05-11T14:46:29Z</time>
      </trkpt>
      <trkpt lat="44.45196" lon="5.61941">
        <ele>1338.5999755859</ele>
        <time>2013-05-11T14:46:30Z</time>
      </trkpt>
      <trkpt lat="44.4519" lon="5.61954">
        <ele>1337.8000488281</ele>
        <time>2013-05-11T14:46:33Z</time>
      </trkpt>
      <trkpt lat="44.45186" lon="5.61962">
        <ele>1337.1999511719</ele>
        <time>2013-05-11T14:46:35Z</time>
      </trkpt>
      <trkpt lat="44.45171" lon="5.61989">
        <ele>1336.4000244141</ele>
        <time>2013-05-11T14:46:42Z</time>
      </trkpt>
      <trkpt lat="44.45166" lon="5.62022">
        <ele>1336.4000244141</ele>
        <time>2013-05-11T14:46:46Z</time>
      </trkpt>
      <trkpt lat="44.4515" lon="5.62067">
        <ele>1336.4000244141</ele>
        <time>2013-05-11T14:46:52Z</time>
      </trkpt>
      <trkpt lat="44.45144" lon="5.62088">
        <ele>1335.8000488281</ele>
        <time>2013-05-11T14:46:55Z</time>
      </trkpt>
      <trkpt lat="44.45139" lon="5.62111">
        <ele>1335.1999511719</ele>
        <time>2013-05-11T14:46:58Z</time>
      </trkpt>
      <trkpt lat="44.45136" lon="5.62123">
        <ele>1333</ele>
        <time>2013-05-11T14:47:00Z</time>
      </trkpt>
      <trkpt lat="44.45134" lon="5.62146">
        <ele>1330.4000244141</ele>
        <time>2013-05-11T14:47:04Z</time>
      </trkpt>
      <trkpt lat="44.45131" lon="5.62159">
        <ele>1327.5999755859</ele>
        <time>2013-05-11T14:47:07Z</time>
      </trkpt>
      <trkpt lat="44.45126" lon="5.62183">
        <ele>1326.1999511719</ele>
        <time>2013-05-11T14:47:11Z</time>
      </trkpt>
      <trkpt lat="44.45118" lon="5.62211">
        <ele>1325.1999511719</ele>
        <time>2013-05-11T14:47:16Z</time>
      </trkpt>
      <trkpt lat="44.45114" lon="5.62221">
        <ele>1325.1999511719</ele>
        <time>2013-05-11T14:47:18Z</time>
      </trkpt>
      <trkpt lat="44.45108" lon="5.62245">
        <ele>1322</ele>
        <time>2013-05-11T14:47:23Z</time>
      </trkpt>
      <trkpt lat="44.45108" lon="5.62259">
        <ele>1320</ele>
        <time>2013-05-11T14:47:25Z</time>
      </trkpt>
      <trkpt lat="44.4511" lon="5.62265">
        <ele>1320</ele>
        <time>2013-05-11T14:47:26Z</time>
      </trkpt>
      <trkpt lat="44.45122" lon="5.62285">
        <ele>1320</ele>
        <time>2013-05-11T14:47:30Z</time>
      </trkpt>
      <trkpt lat="44.45134" lon="5.62294">
        <ele>1314.5999755859</ele>
        <time>2013-05-11T14:47:34Z</time>
      </trkpt>
      <trkpt lat="44.45139" lon="5.62302">
        <ele>1311.1999511719</ele>
        <time>2013-05-11T14:47:36Z</time>
      </trkpt>
      <trkpt lat="44.45145" lon="5.62311">
        <ele>1307.8000488281</ele>
        <time>2013-05-11T14:47:39Z</time>
      </trkpt>
      <trkpt lat="44.45152" lon="5.6232">
        <ele>1301.8000488281</ele>
        <time>2013-05-11T14:47:44Z</time>
      </trkpt>
      <trkpt lat="44.45157" lon="5.62333">
        <ele>1297</ele>
        <time>2013-05-11T14:47:49Z</time>
      </trkpt>
      <trkpt lat="44.45157" lon="5.6234">
        <ele>1295.1999511719</ele>
        <time>2013-05-11T14:47:53Z</time>
      </trkpt>
      <trkpt lat="44.4516" lon="5.62346">
        <ele>1293.5999755859</ele>
        <time>2013-05-11T14:47:57Z</time>
      </trkpt>
      <trkpt lat="44.45164" lon="5.62353">
        <ele>1293.5999755859</ele>
        <time>2013-05-11T14:48:03Z</time>
      </trkpt>
      <trkpt lat="44.4518" lon="5.62364">
        <ele>1293.5999755859</ele>
        <time>2013-05-11T14:48:14Z</time>
      </trkpt>
      <trkpt lat="44.45184" lon="5.62368">
        <ele>1293.5999755859</ele>
        <time>2013-05-11T14:48:18Z</time>
      </trkpt>
      <trkpt lat="44.45186" lon="5.62372">
        <ele>1293.5999755859</ele>
        <time>2013-05-11T14:48:20Z</time>
      </trkpt>
      <trkpt lat="44.4519" lon="5.62382">
        <ele>1293.5999755859</ele>
        <time>2013-05-11T14:48:25Z</time>
      </trkpt>
      <trkpt lat="44.45195" lon="5.62392">
        <ele>1293.5999755859</ele>
        <time>2013-05-11T14:48:30Z</time>
      </trkpt>
      <trkpt lat="44.45203" lon="5.62409">
        <ele>1293.5999755859</ele>
        <time>2013-05-11T14:48:34Z</time>
      </trkpt>
      <trkpt lat="44.4521" lon="5.62438">
        <ele>1291.4000244141</ele>
        <time>2013-05-11T14:48:40Z</time>
      </trkpt>
      <trkpt lat="44.45211" lon="5.62441">
        <ele>1291.4000244141</ele>
        <time>2013-05-11T14:48:41Z</time>
      </trkpt>
      <trkpt lat="44.45221" lon="5.62443">
        <ele>1285</ele>
        <time>2013-05-11T14:48:44Z</time>
      </trkpt>
      <trkpt lat="44.45229" lon="5.62453">
        <ele>1274</ele>
        <time>2013-05-11T14:48:49Z</time>
      </trkpt>
      <trkpt lat="44.45233" lon="5.62456">
        <ele>1272.8000488281</ele>
        <time>2013-05-11T14:48:51Z</time>
      </trkpt>
      <trkpt lat="44.45236" lon="5.62461">
        <ele>1271.5999755859</ele>
        <time>2013-05-11T14:48:53Z</time>
      </trkpt>
      <trkpt lat="44.45243" lon="5.6247">
        <ele>1270.4000244141</ele>
        <time>2013-05-11T14:48:56Z</time>
      </trkpt>
      <trkpt lat="44.45244" lon="5.62472">
        <ele>1269.1999511719</ele>
        <time>2013-05-11T14:48:57Z</time>
      </trkpt>
      <trkpt lat="44.4525" lon="5.62475">
        <ele>1266.8000488281</ele>
        <time>2013-05-11T14:49:01Z</time>
      </trkpt>
      <trkpt lat="44.45249" lon="5.62477">
        <ele>1265.8000488281</ele>
        <time>2013-05-11T14:49:04Z</time>
      </trkpt>
      <trkpt lat="44.4525" lon="5.62482">
        <ele>1264.8000488281</ele>
        <time>2013-05-11T14:49:06Z</time>
      </trkpt>
      <trkpt lat="44.45251" lon="5.62484">
        <ele>1263.5999755859</ele>
        <time>2013-05-11T14:49:08Z</time>
      </trkpt>
      <trkpt lat="44.45265" lon="5.62507">
        <ele>1262.5999755859</ele>
        <time>2013-05-11T14:49:39Z</time>
      </trkpt>
      <trkpt lat="44.4527" lon="5.6251">
        <ele>1262.5999755859</ele>
        <time>2013-05-11T14:49:44Z</time>
      </trkpt>
      <trkpt lat="44.45275" lon="5.62508">
        <ele>1262</ele>
        <time>2013-05-11T14:49:46Z</time>
      </trkpt>
      <trkpt lat="44.45283" lon="5.62506">
        <ele>1260.8000488281</ele>
        <time>2013-05-11T14:49:49Z</time>
      </trkpt>
      <trkpt lat="44.45291" lon="5.62499">
        <ele>1259</ele>
        <time>2013-05-11T14:49:54Z</time>
      </trkpt>
      <trkpt lat="44.45297" lon="5.62486">
        <ele>1257</ele>
        <time>2013-05-11T14:49:58Z</time>
      </trkpt>
      <trkpt lat="44.45302" lon="5.62483">
        <ele>1255.8000488281</ele>
        <time>2013-05-11T14:50:01Z</time>
      </trkpt>
      <trkpt lat="44.45309" lon="5.62494">
        <ele>1253.1999511719</ele>
        <time>2013-05-11T14:50:05Z</time>
      </trkpt>
      <trkpt lat="44.45313" lon="5.62501">
        <ele>1251.8000488281</ele>
        <time>2013-05-11T14:50:08Z</time>
      </trkpt>
      <trkpt lat="44.45324" lon="5.62516">
        <ele>1247.4000244141</ele>
        <time>2013-05-11T14:50:12Z</time>
      </trkpt>
      <trkpt lat="44.45327" lon="5.62523">
        <ele>1246.1999511719</ele>
        <time>2013-05-11T14:50:15Z</time>
      </trkpt>
      <trkpt lat="44.45331" lon="5.62529">
        <ele>1242.1999511719</ele>
        <time>2013-05-11T14:50:20Z</time>
      </trkpt>
      <trkpt lat="44.45336" lon="5.6253">
        <ele>1237.8000488281</ele>
        <time>2013-05-11T14:50:29Z</time>
      </trkpt>
      <trkpt lat="44.45339" lon="5.62542">
        <ele>1236</ele>
        <time>2013-05-11T14:50:40Z</time>
      </trkpt>
      <trkpt lat="44.45338" lon="5.62554">
        <ele>1236</ele>
        <time>2013-05-11T14:50:43Z</time>
      </trkpt>
      <trkpt lat="44.45338" lon="5.62583">
        <ele>1235.5999755859</ele>
        <time>2013-05-11T14:50:48Z</time>
      </trkpt>
      <trkpt lat="44.4534" lon="5.62599">
        <ele>1235.1999511719</ele>
        <time>2013-05-11T14:50:51Z</time>
      </trkpt>
      <trkpt lat="44.4534" lon="5.62608">
        <ele>1234.8000488281</ele>
        <time>2013-05-11T14:50:53Z</time>
      </trkpt>
      <trkpt lat="44.4534" lon="5.62618">
        <ele>1234.4000244141</ele>
        <time>2013-05-11T14:50:55Z</time>
      </trkpt>
      <trkpt lat="44.45337" lon="5.62641">
        <ele>1233.5999755859</ele>
        <time>2013-05-11T14:50:58Z</time>
      </trkpt>
      <trkpt lat="44.45337" lon="5.62658">
        <ele>1232</ele>
        <time>2013-05-11T14:51:00Z</time>
      </trkpt>
      <trkpt lat="44.45332" lon="5.62677">
        <ele>1231</ele>
        <time>2013-05-11T14:51:02Z</time>
      </trkpt>
      <trkpt lat="44.45331" lon="5.62696">
        <ele>1231</ele>
        <time>2013-05-11T14:51:04Z</time>
      </trkpt>
      <trkpt lat="44.45332" lon="5.62707">
        <ele>1229</ele>
        <time>2013-05-11T14:51:05Z</time>
      </trkpt>
      <trkpt lat="44.45337" lon="5.62716">
        <ele>1229</ele>
        <time>2013-05-11T14:51:06Z</time>
      </trkpt>
      <trkpt lat="44.45378" lon="5.62735">
        <ele>1228.1999511719</ele>
        <time>2013-05-11T14:51:08Z</time>
      </trkpt>
      <trkpt lat="44.4539" lon="5.62756">
        <ele>1227.1999511719</ele>
        <time>2013-05-11T14:51:10Z</time>
      </trkpt>
      <trkpt lat="44.45398" lon="5.62776">
        <ele>1227.1999511719</ele>
        <time>2013-05-11T14:51:12Z</time>
      </trkpt>
      <trkpt lat="44.45401" lon="5.62784">
        <ele>1226</ele>
        <time>2013-05-11T14:51:13Z</time>
      </trkpt>
      <trkpt lat="44.454" lon="5.62795">
        <ele>1226</ele>
        <time>2013-05-11T14:51:14Z</time>
      </trkpt>
      <trkpt lat="44.45401" lon="5.62803">
        <ele>1224.5999755859</ele>
        <time>2013-05-11T14:51:15Z</time>
      </trkpt>
      <trkpt lat="44.45405" lon="5.62813">
        <ele>1224.5999755859</ele>
        <time>2013-05-11T14:51:16Z</time>
      </trkpt>
      <trkpt lat="44.45406" lon="5.62824">
        <ele>1223</ele>
        <time>2013-05-11T14:51:17Z</time>
      </trkpt>
      <trkpt lat="44.45417" lon="5.62846">
        <ele>1223</ele>
        <time>2013-05-11T14:51:19Z</time>
      </trkpt>
      <trkpt lat="44.4542" lon="5.62856">
        <ele>1219.5999755859</ele>
        <time>2013-05-11T14:51:20Z</time>
      </trkpt>
      <trkpt lat="44.45424" lon="5.6288">
        <ele>1219.5999755859</ele>
        <time>2013-05-11T14:51:22Z</time>
      </trkpt>
      <trkpt lat="44.45425" lon="5.62891">
        <ele>1216.1999511719</ele>
        <time>2013-05-11T14:51:23Z</time>
      </trkpt>
      <trkpt lat="44.45423" lon="5.62918">
        <ele>1214.5999755859</ele>
        <time>2013-05-11T14:51:25Z</time>
      </trkpt>
      <trkpt lat="44.45419" lon="5.62947">
        <ele>1213.1999511719</ele>
        <time>2013-05-11T14:51:28Z</time>
      </trkpt>
      <trkpt lat="44.45419" lon="5.62957">
        <ele>1213.1999511719</ele>
        <time>2013-05-11T14:51:29Z</time>
      </trkpt>
      <trkpt lat="44.45418" lon="5.6297">
        <ele>1211.5999755859</ele>
        <time>2013-05-11T14:51:30Z</time>
      </trkpt>
      <trkpt lat="44.45421" lon="5.63001">
        <ele>1210</ele>
        <time>2013-05-11T14:51:33Z</time>
      </trkpt>
      <trkpt lat="44.45428" lon="5.63014">
        <ele>1210</ele>
        <time>2013-05-11T14:51:34Z</time>
      </trkpt>
      <trkpt lat="44.45431" lon="5.63024">
        <ele>1208.5999755859</ele>
        <time>2013-05-11T14:51:35Z</time>
      </trkpt>
      <trkpt lat="44.45444" lon="5.63044">
        <ele>1207</ele>
        <time>2013-05-11T14:51:38Z</time>
      </trkpt>
      <trkpt lat="44.45449" lon="5.63059">
        <ele>1207</ele>
        <time>2013-05-11T14:51:40Z</time>
      </trkpt>
      <trkpt lat="44.4545" lon="5.63066">
        <ele>1205.4000244141</ele>
        <time>2013-05-11T14:51:41Z</time>
      </trkpt>
      <trkpt lat="44.45449" lon="5.63078">
        <ele>1204</ele>
        <time>2013-05-11T14:51:43Z</time>
      </trkpt>
      <trkpt lat="44.45449" lon="5.63083">
        <ele>1204</ele>
        <time>2013-05-11T14:51:44Z</time>
      </trkpt>
      <trkpt lat="44.45446" lon="5.63109">
        <ele>1202.4000244141</ele>
        <time>2013-05-11T14:51:48Z</time>
      </trkpt>
      <trkpt lat="44.45447" lon="5.63116">
        <ele>1202.4000244141</ele>
        <time>2013-05-11T14:51:49Z</time>
      </trkpt>
      <trkpt lat="44.45447" lon="5.63125">
        <ele>1202</ele>
        <time>2013-05-11T14:51:50Z</time>
      </trkpt>
      <trkpt lat="44.45444" lon="5.63146">
        <ele>1202</ele>
        <time>2013-05-11T14:51:53Z</time>
      </trkpt>
      <trkpt lat="44.45441" lon="5.63155">
        <ele>1201.4000244141</ele>
        <time>2013-05-11T14:51:54Z</time>
      </trkpt>
      <trkpt lat="44.45431" lon="5.63181">
        <ele>1200</ele>
        <time>2013-05-11T14:51:57Z</time>
      </trkpt>
      <trkpt lat="44.45419" lon="5.63212">
        <ele>1198.5999755859</ele>
        <time>2013-05-11T14:52:01Z</time>
      </trkpt>
      <trkpt lat="44.45414" lon="5.63232">
        <ele>1198.5999755859</ele>
        <time>2013-05-11T14:52:03Z</time>
      </trkpt>
      <trkpt lat="44.454" lon="5.63271">
        <ele>1197.8000488281</ele>
        <time>2013-05-11T14:52:09Z</time>
      </trkpt>
      <trkpt lat="44.45397" lon="5.63284">
        <ele>1197.8000488281</ele>
        <time>2013-05-11T14:52:11Z</time>
      </trkpt>
      <trkpt lat="44.45393" lon="5.6331">
        <ele>1197.8000488281</ele>
        <time>2013-05-11T14:52:14Z</time>
      </trkpt>
      <trkpt lat="44.45386" lon="5.63351">
        <ele>1197.8000488281</ele>
        <time>2013-05-11T14:52:19Z</time>
      </trkpt>
      <trkpt lat="44.45387" lon="5.63363">
        <ele>1197.8000488281</ele>
        <time>2013-05-11T14:52:20Z</time>
      </trkpt>
      <trkpt lat="44.45393" lon="5.63393">
        <ele>1197.8000488281</ele>
        <time>2013-05-11T14:52:23Z</time>
      </trkpt>
      <trkpt lat="44.45398" lon="5.63411">
        <ele>1197.8000488281</ele>
        <time>2013-05-11T14:52:25Z</time>
      </trkpt>
      <trkpt lat="44.45403" lon="5.63452">
        <ele>1197.8000488281</ele>
        <time>2013-05-11T14:52:30Z</time>
      </trkpt>
      <trkpt lat="44.45417" lon="5.635">
        <ele>1197.8000488281</ele>
        <time>2013-05-11T14:52:35Z</time>
      </trkpt>
      <trkpt lat="44.45433" lon="5.63525">
        <ele>1197.8000488281</ele>
        <time>2013-05-11T14:52:38Z</time>
      </trkpt>
      <trkpt lat="44.45434" lon="5.63538">
        <ele>1197.8000488281</ele>
        <time>2013-05-11T14:52:39Z</time>
      </trkpt>
      <trkpt lat="44.45435" lon="5.63549">
        <ele>1197.8000488281</ele>
        <time>2013-05-11T14:52:40Z</time>
      </trkpt>
      <trkpt lat="44.45438" lon="5.63558">
        <ele>1197.4000244141</ele>
        <time>2013-05-11T14:52:41Z</time>
      </trkpt>
      <trkpt lat="44.45442" lon="5.63566">
        <ele>1197.4000244141</ele>
        <time>2013-05-11T14:52:42Z</time>
      </trkpt>
      <trkpt lat="44.45448" lon="5.63575">
        <ele>1196.1999511719</ele>
        <time>2013-05-11T14:52:43Z</time>
      </trkpt>
      <trkpt lat="44.45459" lon="5.63594">
        <ele>1195.5999755859</ele>
        <time>2013-05-11T14:52:45Z</time>
      </trkpt>
      <trkpt lat="44.45475" lon="5.63625">
        <ele>1194.4000244141</ele>
        <time>2013-05-11T14:52:48Z</time>
      </trkpt>
      <trkpt lat="44.45486" lon="5.63647">
        <ele>1193.4000244141</ele>
        <time>2013-05-11T14:52:50Z</time>
      </trkpt>
      <trkpt lat="44.45493" lon="5.63658">
        <ele>1192</ele>
        <time>2013-05-11T14:52:51Z</time>
      </trkpt>
      <trkpt lat="44.45505" lon="5.63682">
        <ele>1190.8000488281</ele>
        <time>2013-05-11T14:52:53Z</time>
      </trkpt>
      <trkpt lat="44.45521" lon="5.63718">
        <ele>1189.1999511719</ele>
        <time>2013-05-11T14:52:56Z</time>
      </trkpt>
      <trkpt lat="44.45527" lon="5.63729">
        <ele>1187.4000244141</ele>
        <time>2013-05-11T14:52:57Z</time>
      </trkpt>
      <trkpt lat="44.45532" lon="5.63738">
        <ele>1185.5999755859</ele>
        <time>2013-05-11T14:52:58Z</time>
      </trkpt>
      <trkpt lat="44.45536" lon="5.63748">
        <ele>1185.5999755859</ele>
        <time>2013-05-11T14:52:59Z</time>
      </trkpt>
      <trkpt lat="44.4554" lon="5.63758">
        <ele>1182.1999511719</ele>
        <time>2013-05-11T14:53:00Z</time>
      </trkpt>
      <trkpt lat="44.45543" lon="5.63781">
        <ele>1180.8000488281</ele>
        <time>2013-05-11T14:53:02Z</time>
      </trkpt>
      <trkpt lat="44.45542" lon="5.63802">
        <ele>1179.4000244141</ele>
        <time>2013-05-11T14:53:04Z</time>
      </trkpt>
      <trkpt lat="44.45534" lon="5.63814">
        <ele>1177.8000488281</ele>
        <time>2013-05-11T14:53:05Z</time>
      </trkpt>
      <trkpt lat="44.45525" lon="5.63836">
        <ele>1175</ele>
        <time>2013-05-11T14:53:07Z</time>
      </trkpt>
      <trkpt lat="44.45515" lon="5.63856">
        <ele>1173.5999755859</ele>
        <time>2013-05-11T14:53:09Z</time>
      </trkpt>
      <trkpt lat="44.45511" lon="5.63864">
        <ele>1172.1999511719</ele>
        <time>2013-05-11T14:53:10Z</time>
      </trkpt>
      <trkpt lat="44.45508" lon="5.63877">
        <ele>1172.1999511719</ele>
        <time>2013-05-11T14:53:11Z</time>
      </trkpt>
      <trkpt lat="44.45507" lon="5.63888">
        <ele>1169.8000488281</ele>
        <time>2013-05-11T14:53:12Z</time>
      </trkpt>
      <trkpt lat="44.45505" lon="5.63915">
        <ele>1168.4000244141</ele>
        <time>2013-05-11T14:53:14Z</time>
      </trkpt>
      <trkpt lat="44.45502" lon="5.63943">
        <ele>1167</ele>
        <time>2013-05-11T14:53:16Z</time>
      </trkpt>
      <trkpt lat="44.45502" lon="5.63955">
        <ele>1165.4000244141</ele>
        <time>2013-05-11T14:53:17Z</time>
      </trkpt>
      <trkpt lat="44.455" lon="5.63978">
        <ele>1162.1999511719</ele>
        <time>2013-05-11T14:53:19Z</time>
      </trkpt>
      <trkpt lat="44.45497" lon="5.64002">
        <ele>1160.5999755859</ele>
        <time>2013-05-11T14:53:21Z</time>
      </trkpt>
      <trkpt lat="44.45495" lon="5.64014">
        <ele>1158.8000488281</ele>
        <time>2013-05-11T14:53:22Z</time>
      </trkpt>
      <trkpt lat="44.45492" lon="5.64041">
        <ele>1155.4000244141</ele>
        <time>2013-05-11T14:53:24Z</time>
      </trkpt>
      <trkpt lat="44.45492" lon="5.64065">
        <ele>1153.5999755859</ele>
        <time>2013-05-11T14:53:26Z</time>
      </trkpt>
      <trkpt lat="44.45492" lon="5.64089">
        <ele>1150.5999755859</ele>
        <time>2013-05-11T14:53:28Z</time>
      </trkpt>
      <trkpt lat="44.4549" lon="5.64114">
        <ele>1149</ele>
        <time>2013-05-11T14:53:30Z</time>
      </trkpt>
      <trkpt lat="44.45486" lon="5.64138">
        <ele>1147.1999511719</ele>
        <time>2013-05-11T14:53:32Z</time>
      </trkpt>
      <trkpt lat="44.4548" lon="5.64148">
        <ele>1145.5999755859</ele>
        <time>2013-05-11T14:53:33Z</time>
      </trkpt>
      <trkpt lat="44.45475" lon="5.64159">
        <ele>1145.5999755859</ele>
        <time>2013-05-11T14:53:34Z</time>
      </trkpt>
      <trkpt lat="44.45467" lon="5.64173">
        <ele>1142</ele>
        <time>2013-05-11T14:53:35Z</time>
      </trkpt>
      <trkpt lat="44.45451" lon="5.64198">
        <ele>1140.1999511719</ele>
        <time>2013-05-11T14:53:37Z</time>
      </trkpt>
      <trkpt lat="44.45444" lon="5.6421">
        <ele>1138.5999755859</ele>
        <time>2013-05-11T14:53:38Z</time>
      </trkpt>
      <trkpt lat="44.4543" lon="5.64233">
        <ele>1135.1999511719</ele>
        <time>2013-05-11T14:53:40Z</time>
      </trkpt>
      <trkpt lat="44.45417" lon="5.64253">
        <ele>1134</ele>
        <time>2013-05-11T14:53:42Z</time>
      </trkpt>
      <trkpt lat="44.45407" lon="5.64268">
        <ele>1132.4000244141</ele>
        <time>2013-05-11T14:53:44Z</time>
      </trkpt>
      <trkpt lat="44.45403" lon="5.64276">
        <ele>1130.8000488281</ele>
        <time>2013-05-11T14:53:45Z</time>
      </trkpt>
      <trkpt lat="44.45396" lon="5.64297">
        <ele>1127.5999755859</ele>
        <time>2013-05-11T14:53:47Z</time>
      </trkpt>
      <trkpt lat="44.45393" lon="5.64319">
        <ele>1126</ele>
        <time>2013-05-11T14:53:49Z</time>
      </trkpt>
      <trkpt lat="44.45392" lon="5.6433">
        <ele>1124.1999511719</ele>
        <time>2013-05-11T14:53:50Z</time>
      </trkpt>
      <trkpt lat="44.45391" lon="5.64356">
        <ele>1120.8000488281</ele>
        <time>2013-05-11T14:53:52Z</time>
      </trkpt>
      <trkpt lat="44.45391" lon="5.64369">
        <ele>1120.8000488281</ele>
        <time>2013-05-11T14:53:53Z</time>
      </trkpt>
      <trkpt lat="44.45389" lon="5.64383">
        <ele>1119</ele>
        <time>2013-05-11T14:53:54Z</time>
      </trkpt>
      <trkpt lat="44.45388" lon="5.64396">
        <ele>1117</ele>
        <time>2013-05-11T14:53:55Z</time>
      </trkpt>
      <trkpt lat="44.45385" lon="5.6442">
        <ele>1113</ele>
        <time>2013-05-11T14:53:57Z</time>
      </trkpt>
      <trkpt lat="44.45385" lon="5.6443">
        <ele>1113</ele>
        <time>2013-05-11T14:53:58Z</time>
      </trkpt>
      <trkpt lat="44.45384" lon="5.6444">
        <ele>1111.1999511719</ele>
        <time>2013-05-11T14:53:59Z</time>
      </trkpt>
      <trkpt lat="44.45384" lon="5.6446">
        <ele>1109.1999511719</ele>
        <time>2013-05-11T14:54:01Z</time>
      </trkpt>
      <trkpt lat="44.45383" lon="5.64488">
        <ele>1102.8000488281</ele>
        <time>2013-05-11T14:54:04Z</time>
      </trkpt>
      <trkpt lat="44.45383" lon="5.64499">
        <ele>1102.8000488281</ele>
        <time>2013-05-11T14:54:05Z</time>
      </trkpt>
      <trkpt lat="44.45385" lon="5.64524">
        <ele>1100.8000488281</ele>
        <time>2013-05-11T14:54:07Z</time>
      </trkpt>
      <trkpt lat="44.45382" lon="5.64543">
        <ele>1098.8000488281</ele>
        <time>2013-05-11T14:54:09Z</time>
      </trkpt>
      <trkpt lat="44.45372" lon="5.64558">
        <ele>1096.5999755859</ele>
        <time>2013-05-11T14:54:11Z</time>
      </trkpt>
      <trkpt lat="44.45367" lon="5.64564">
        <ele>1096.5999755859</ele>
        <time>2013-05-11T14:54:12Z</time>
      </trkpt>
      <trkpt lat="44.45356" lon="5.64574">
        <ele>1094.4000244141</ele>
        <time>2013-05-11T14:54:14Z</time>
      </trkpt>
      <trkpt lat="44.45353" lon="5.64583">
        <ele>1090</ele>
        <time>2013-05-11T14:54:17Z</time>
      </trkpt>
      <trkpt lat="44.45355" lon="5.64594">
        <ele>1083.8000488281</ele>
        <time>2013-05-11T14:54:21Z</time>
      </trkpt>
      <trkpt lat="44.45354" lon="5.64603">
        <ele>1082.1999511719</ele>
        <time>2013-05-11T14:54:24Z</time>
      </trkpt>
      <trkpt lat="44.45353" lon="5.64612">
        <ele>1081.4000244141</ele>
        <time>2013-05-11T14:54:26Z</time>
      </trkpt>
      <trkpt lat="44.45351" lon="5.64622">
        <ele>1081.4000244141</ele>
        <time>2013-05-11T14:54:28Z</time>
      </trkpt>
      <trkpt lat="44.45343" lon="5.64657">
        <ele>1081.4000244141</ele>
        <time>2013-05-11T14:54:33Z</time>
      </trkpt>
      <trkpt lat="44.45343" lon="5.64665">
        <ele>1081.4000244141</ele>
        <time>2013-05-11T14:54:34Z</time>
      </trkpt>
      <trkpt lat="44.4534" lon="5.64691">
        <ele>1081.4000244141</ele>
        <time>2013-05-11T14:54:37Z</time>
      </trkpt>
      <trkpt lat="44.45326" lon="5.64733">
        <ele>1081.4000244141</ele>
        <time>2013-05-11T14:54:42Z</time>
      </trkpt>
      <trkpt lat="44.45325" lon="5.64742">
        <ele>1081.4000244141</ele>
        <time>2013-05-11T14:54:43Z</time>
      </trkpt>
      <trkpt lat="44.45321" lon="5.64774">
        <ele>1081.4000244141</ele>
        <time>2013-05-11T14:54:46Z</time>
      </trkpt>
      <trkpt lat="44.45321" lon="5.64787">
        <ele>1080.8000488281</ele>
        <time>2013-05-11T14:54:47Z</time>
      </trkpt>
      <trkpt lat="44.45325" lon="5.64808">
        <ele>1079.8000488281</ele>
        <time>2013-05-11T14:54:49Z</time>
      </trkpt>
      <trkpt lat="44.45334" lon="5.64816">
        <ele>1077.4000244141</ele>
        <time>2013-05-11T14:54:51Z</time>
      </trkpt>
      <trkpt lat="44.45349" lon="5.64822">
        <ele>1076</ele>
        <time>2013-05-11T14:54:53Z</time>
      </trkpt>
      <trkpt lat="44.45354" lon="5.64825">
        <ele>1076</ele>
        <time>2013-05-11T14:54:54Z</time>
      </trkpt>
      <trkpt lat="44.45357" lon="5.64832">
        <ele>1074.5999755859</ele>
        <time>2013-05-11T14:54:55Z</time>
      </trkpt>
      <trkpt lat="44.45359" lon="5.64855">
        <ele>1070</ele>
        <time>2013-05-11T14:54:58Z</time>
      </trkpt>
      <trkpt lat="44.45356" lon="5.64862">
        <ele>1070</ele>
        <time>2013-05-11T14:54:59Z</time>
      </trkpt>
      <trkpt lat="44.45347" lon="5.64869">
        <ele>1068.5999755859</ele>
        <time>2013-05-11T14:55:00Z</time>
      </trkpt>
      <trkpt lat="44.4534" lon="5.64874">
        <ele>1067</ele>
        <time>2013-05-11T14:55:01Z</time>
      </trkpt>
      <trkpt lat="44.45327" lon="5.64885">
        <ele>1064.8000488281</ele>
        <time>2013-05-11T14:55:03Z</time>
      </trkpt>
      <trkpt lat="44.45324" lon="5.64894">
        <ele>1064.8000488281</ele>
        <time>2013-05-11T14:55:04Z</time>
      </trkpt>
      <trkpt lat="44.45322" lon="5.64905">
        <ele>1063.5999755859</ele>
        <time>2013-05-11T14:55:05Z</time>
      </trkpt>
      <trkpt lat="44.45316" lon="5.64926">
        <ele>1062.4000244141</ele>
        <time>2013-05-11T14:55:07Z</time>
      </trkpt>
      <trkpt lat="44.45312" lon="5.64938">
        <ele>1061</ele>
        <time>2013-05-11T14:55:08Z</time>
      </trkpt>
      <trkpt lat="44.45306" lon="5.64951">
        <ele>1061</ele>
        <time>2013-05-11T14:55:09Z</time>
      </trkpt>
      <trkpt lat="44.45303" lon="5.64963">
        <ele>1058.4000244141</ele>
        <time>2013-05-11T14:55:10Z</time>
      </trkpt>
      <trkpt lat="44.45301" lon="5.64991">
        <ele>1057</ele>
        <time>2013-05-11T14:55:12Z</time>
      </trkpt>
      <trkpt lat="44.45305" lon="5.65021">
        <ele>1057</ele>
        <time>2013-05-11T14:55:14Z</time>
      </trkpt>
      <trkpt lat="44.45306" lon="5.65037">
        <ele>1054</ele>
        <time>2013-05-11T14:55:15Z</time>
      </trkpt>
      <trkpt lat="44.4531" lon="5.65066">
        <ele>1052.4000244141</ele>
        <time>2013-05-11T14:55:17Z</time>
      </trkpt>
      <trkpt lat="44.45313" lon="5.65096">
        <ele>1050.8000488281</ele>
        <time>2013-05-11T14:55:19Z</time>
      </trkpt>
      <trkpt lat="44.45313" lon="5.65111">
        <ele>1049.1999511719</ele>
        <time>2013-05-11T14:55:20Z</time>
      </trkpt>
      <trkpt lat="44.45314" lon="5.65145">
        <ele>1045.8000488281</ele>
        <time>2013-05-11T14:55:22Z</time>
      </trkpt>
      <trkpt lat="44.45316" lon="5.65164">
        <ele>1045.8000488281</ele>
        <time>2013-05-11T14:55:23Z</time>
      </trkpt>
      <trkpt lat="44.45319" lon="5.6518">
        <ele>1044</ele>
        <time>2013-05-11T14:55:24Z</time>
      </trkpt>
      <trkpt lat="44.45321" lon="5.65195">
        <ele>1042.4000244141</ele>
        <time>2013-05-11T14:55:25Z</time>
      </trkpt>
      <trkpt lat="44.45322" lon="5.65222">
        <ele>1039.5999755859</ele>
        <time>2013-05-11T14:55:27Z</time>
      </trkpt>
      <trkpt lat="44.45325" lon="5.65246">
        <ele>1038.1999511719</ele>
        <time>2013-05-11T14:55:29Z</time>
      </trkpt>
      <trkpt lat="44.45326" lon="5.65257">
        <ele>1037.1999511719</ele>
        <time>2013-05-11T14:55:30Z</time>
      </trkpt>
      <trkpt lat="44.45325" lon="5.65281">
        <ele>1035.1999511719</ele>
        <time>2013-05-11T14:55:32Z</time>
      </trkpt>
      <trkpt lat="44.45321" lon="5.65304">
        <ele>1034</ele>
        <time>2013-05-11T14:55:34Z</time>
      </trkpt>
      <trkpt lat="44.45313" lon="5.65326">
        <ele>1033.4000244141</ele>
        <time>2013-05-11T14:55:36Z</time>
      </trkpt>
      <trkpt lat="44.45309" lon="5.65336">
        <ele>1032.5999755859</ele>
        <time>2013-05-11T14:55:37Z</time>
      </trkpt>
      <trkpt lat="44.45306" lon="5.65346">
        <ele>1032.5999755859</ele>
        <time>2013-05-11T14:55:38Z</time>
      </trkpt>
      <trkpt lat="44.45302" lon="5.65358">
        <ele>1031.1999511719</ele>
        <time>2013-05-11T14:55:39Z</time>
      </trkpt>
      <trkpt lat="44.45296" lon="5.65367">
        <ele>1031.1999511719</ele>
        <time>2013-05-11T14:55:40Z</time>
      </trkpt>
      <trkpt lat="44.4529" lon="5.65376">
        <ele>1031.1999511719</ele>
        <time>2013-05-11T14:55:41Z</time>
      </trkpt>
      <trkpt lat="44.45283" lon="5.65386">
        <ele>1029.8000488281</ele>
        <time>2013-05-11T14:55:42Z</time>
      </trkpt>
      <trkpt lat="44.45273" lon="5.65406">
        <ele>1027.4000244141</ele>
        <time>2013-05-11T14:55:44Z</time>
      </trkpt>
      <trkpt lat="44.45272" lon="5.65418">
        <ele>1027.4000244141</ele>
        <time>2013-05-11T14:55:45Z</time>
      </trkpt>
      <trkpt lat="44.45272" lon="5.65429">
        <ele>1026</ele>
        <time>2013-05-11T14:55:46Z</time>
      </trkpt>
      <trkpt lat="44.45275" lon="5.65441">
        <ele>1024.8000488281</ele>
        <time>2013-05-11T14:55:47Z</time>
      </trkpt>
      <trkpt lat="44.4528" lon="5.6545">
        <ele>1024.8000488281</ele>
        <time>2013-05-11T14:55:48Z</time>
      </trkpt>
      <trkpt lat="44.45289" lon="5.65463">
        <ele>1022.200012207</ele>
        <time>2013-05-11T14:55:49Z</time>
      </trkpt>
      <trkpt lat="44.45294" lon="5.65475">
        <ele>1022.200012207</ele>
        <time>2013-05-11T14:55:50Z</time>
      </trkpt>
      <trkpt lat="44.45298" lon="5.65489">
        <ele>1021.200012207</ele>
        <time>2013-05-11T14:55:51Z</time>
      </trkpt>
      <trkpt lat="44.45302" lon="5.65502">
        <ele>1020</ele>
        <time>2013-05-11T14:55:52Z</time>
      </trkpt>
      <trkpt lat="44.4531" lon="5.65525">
        <ele>1017.5999755859</ele>
        <time>2013-05-11T14:55:54Z</time>
      </trkpt>
      <trkpt lat="44.45314" lon="5.65546">
        <ele>1016.4000244141</ele>
        <time>2013-05-11T14:55:56Z</time>
      </trkpt>
      <trkpt lat="44.45312" lon="5.65557">
        <ele>1015.4000244141</ele>
        <time>2013-05-11T14:55:57Z</time>
      </trkpt>
      <trkpt lat="44.45306" lon="5.65579">
        <ele>1013</ele>
        <time>2013-05-11T14:55:59Z</time>
      </trkpt>
      <trkpt lat="44.45295" lon="5.65601">
        <ele>1012</ele>
        <time>2013-05-11T14:56:01Z</time>
      </trkpt>
      <trkpt lat="44.45287" lon="5.65624">
        <ele>1012</ele>
        <time>2013-05-11T14:56:03Z</time>
      </trkpt>
      <trkpt lat="44.45286" lon="5.65637">
        <ele>1010</ele>
        <time>2013-05-11T14:56:04Z</time>
      </trkpt>
      <trkpt lat="44.45288" lon="5.65651">
        <ele>1010</ele>
        <time>2013-05-11T14:56:05Z</time>
      </trkpt>
      <trkpt lat="44.4529" lon="5.65664">
        <ele>1008.799987793</ele>
        <time>2013-05-11T14:56:06Z</time>
      </trkpt>
      <trkpt lat="44.45304" lon="5.65691">
        <ele>1008.799987793</ele>
        <time>2013-05-11T14:56:08Z</time>
      </trkpt>
      <trkpt lat="44.45311" lon="5.65704">
        <ele>1006.4000244141</ele>
        <time>2013-05-11T14:56:09Z</time>
      </trkpt>
      <trkpt lat="44.45323" lon="5.65728">
        <ele>1003.4000244141</ele>
        <time>2013-05-11T14:56:11Z</time>
      </trkpt>
      <trkpt lat="44.45345" lon="5.65764">
        <ele>1000.5999755859</ele>
        <time>2013-05-11T14:56:14Z</time>
      </trkpt>
      <trkpt lat="44.45359" lon="5.65787">
        <ele>998</ele>
        <time>2013-05-11T14:56:16Z</time>
      </trkpt>
      <trkpt lat="44.45378" lon="5.65821">
        <ele>995.59997558594</ele>
        <time>2013-05-11T14:56:19Z</time>
      </trkpt>
      <trkpt lat="44.45382" lon="5.65834">
        <ele>995.59997558594</ele>
        <time>2013-05-11T14:56:20Z</time>
      </trkpt>
      <trkpt lat="44.45383" lon="5.65848">
        <ele>994</ele>
        <time>2013-05-11T14:56:21Z</time>
      </trkpt>
      <trkpt lat="44.45385" lon="5.65877">
        <ele>994</ele>
        <time>2013-05-11T14:56:23Z</time>
      </trkpt>
      <trkpt lat="44.45388" lon="5.65891">
        <ele>992</ele>
        <time>2013-05-11T14:56:24Z</time>
      </trkpt>
      <trkpt lat="44.45395" lon="5.65921">
        <ele>989.79998779297</ele>
        <time>2013-05-11T14:56:26Z</time>
      </trkpt>
      <trkpt lat="44.45398" lon="5.65937">
        <ele>989.79998779297</ele>
        <time>2013-05-11T14:56:27Z</time>
      </trkpt>
      <trkpt lat="44.45401" lon="5.65952">
        <ele>988.59997558594</ele>
        <time>2013-05-11T14:56:28Z</time>
      </trkpt>
      <trkpt lat="44.45406" lon="5.65966">
        <ele>988.59997558594</ele>
        <time>2013-05-11T14:56:29Z</time>
      </trkpt>
      <trkpt lat="44.45418" lon="5.65995">
        <ele>986.40002441406</ele>
        <time>2013-05-11T14:56:31Z</time>
      </trkpt>
      <trkpt lat="44.45433" lon="5.66021">
        <ele>984</ele>
        <time>2013-05-11T14:56:33Z</time>
      </trkpt>
      <trkpt lat="44.45447" lon="5.66046">
        <ele>982.79998779297</ele>
        <time>2013-05-11T14:56:35Z</time>
      </trkpt>
      <trkpt lat="44.45451" lon="5.66058">
        <ele>981.59997558594</ele>
        <time>2013-05-11T14:56:36Z</time>
      </trkpt>
      <trkpt lat="44.45457" lon="5.66086">
        <ele>979</ele>
        <time>2013-05-11T14:56:38Z</time>
      </trkpt>
      <trkpt lat="44.45457" lon="5.66111">
        <ele>977.79998779297</ele>
        <time>2013-05-11T14:56:41Z</time>
      </trkpt>
      <trkpt lat="44.45451" lon="5.66121">
        <ele>975.20001220703</ele>
        <time>2013-05-11T14:56:43Z</time>
      </trkpt>
      <trkpt lat="44.45446" lon="5.66121">
        <ele>975.20001220703</ele>
        <time>2013-05-11T14:56:44Z</time>
      </trkpt>
      <trkpt lat="44.45428" lon="5.66113">
        <ele>972.79998779297</ele>
        <time>2013-05-11T14:56:47Z</time>
      </trkpt>
      <trkpt lat="44.45423" lon="5.66109">
        <ele>972.79998779297</ele>
        <time>2013-05-11T14:56:48Z</time>
      </trkpt>
      <trkpt lat="44.45408" lon="5.66111">
        <ele>972.40002441406</ele>
        <time>2013-05-11T14:56:50Z</time>
      </trkpt>
      <trkpt lat="44.45395" lon="5.66123">
        <ele>972</ele>
        <time>2013-05-11T14:56:52Z</time>
      </trkpt>
      <trkpt lat="44.45387" lon="5.66139">
        <ele>972</ele>
        <time>2013-05-11T14:56:54Z</time>
      </trkpt>
      <trkpt lat="44.45382" lon="5.66148">
        <ele>971</ele>
        <time>2013-05-11T14:56:55Z</time>
      </trkpt>
      <trkpt lat="44.45378" lon="5.66169">
        <ele>969.79998779297</ele>
        <time>2013-05-11T14:56:57Z</time>
      </trkpt>
      <trkpt lat="44.45379" lon="5.66182">
        <ele>969.79998779297</ele>
        <time>2013-05-11T14:56:58Z</time>
      </trkpt>
      <trkpt lat="44.45383" lon="5.66191">
        <ele>969.20001220703</ele>
        <time>2013-05-11T14:56:59Z</time>
      </trkpt>
      <trkpt lat="44.45388" lon="5.66202">
        <ele>968.59997558594</ele>
        <time>2013-05-11T14:57:00Z</time>
      </trkpt>
      <trkpt lat="44.45392" lon="5.66225">
        <ele>967.59997558594</ele>
        <time>2013-05-11T14:57:02Z</time>
      </trkpt>
      <trkpt lat="44.45392" lon="5.66238">
        <ele>967.59997558594</ele>
        <time>2013-05-11T14:57:03Z</time>
      </trkpt>
      <trkpt lat="44.45389" lon="5.6625">
        <ele>966.79998779297</ele>
        <time>2013-05-11T14:57:04Z</time>
      </trkpt>
      <trkpt lat="44.45385" lon="5.66274">
        <ele>966.79998779297</ele>
        <time>2013-05-11T14:57:06Z</time>
      </trkpt>
      <trkpt lat="44.45383" lon="5.66286">
        <ele>965.40002441406</ele>
        <time>2013-05-11T14:57:07Z</time>
      </trkpt>
      <trkpt lat="44.45379" lon="5.66309">
        <ele>964.20001220703</ele>
        <time>2013-05-11T14:57:09Z</time>
      </trkpt>
      <trkpt lat="44.45374" lon="5.66331">
        <ele>963.59997558594</ele>
        <time>2013-05-11T14:57:11Z</time>
      </trkpt>
      <trkpt lat="44.45374" lon="5.66348">
        <ele>962.79998779297</ele>
        <time>2013-05-11T14:57:13Z</time>
      </trkpt>
      <trkpt lat="44.4538" lon="5.66353">
        <ele>961</ele>
        <time>2013-05-11T14:57:14Z</time>
      </trkpt>
      <trkpt lat="44.45395" lon="5.66348">
        <ele>960</ele>
        <time>2013-05-11T14:57:16Z</time>
      </trkpt>
      <trkpt lat="44.45402" lon="5.6634">
        <ele>960</ele>
        <time>2013-05-11T14:57:17Z</time>
      </trkpt>
      <trkpt lat="44.45407" lon="5.66332">
        <ele>958.79998779297</ele>
        <time>2013-05-11T14:57:18Z</time>
      </trkpt>
      <trkpt lat="44.45412" lon="5.66323">
        <ele>957.79998779297</ele>
        <time>2013-05-11T14:57:19Z</time>
      </trkpt>
      <trkpt lat="44.45422" lon="5.66303">
        <ele>956.79998779297</ele>
        <time>2013-05-11T14:57:21Z</time>
      </trkpt>
      <trkpt lat="44.45427" lon="5.66292">
        <ele>956</ele>
        <time>2013-05-11T14:57:22Z</time>
      </trkpt>
      <trkpt lat="44.4544" lon="5.66258">
        <ele>954.79998779297</ele>
        <time>2013-05-11T14:57:25Z</time>
      </trkpt>
      <trkpt lat="44.4545" lon="5.66239">
        <ele>953.20001220703</ele>
        <time>2013-05-11T14:57:27Z</time>
      </trkpt>
      <trkpt lat="44.45466" lon="5.66235">
        <ele>952.20001220703</ele>
        <time>2013-05-11T14:57:29Z</time>
      </trkpt>
      <trkpt lat="44.45491" lon="5.66234">
        <ele>950.20001220703</ele>
        <time>2013-05-11T14:57:32Z</time>
      </trkpt>
      <trkpt lat="44.45497" lon="5.66225">
        <ele>950.20001220703</ele>
        <time>2013-05-11T14:57:33Z</time>
      </trkpt>
      <trkpt lat="44.45502" lon="5.66216">
        <ele>947.79998779297</ele>
        <time>2013-05-11T14:57:34Z</time>
      </trkpt>
      <trkpt lat="44.45509" lon="5.66194">
        <ele>946.59997558594</ele>
        <time>2013-05-11T14:57:36Z</time>
      </trkpt>
      <trkpt lat="44.45514" lon="5.66183">
        <ele>945.79998779297</ele>
        <time>2013-05-11T14:57:37Z</time>
      </trkpt>
      <trkpt lat="44.4552" lon="5.66158">
        <ele>944</ele>
        <time>2013-05-11T14:57:39Z</time>
      </trkpt>
      <trkpt lat="44.45527" lon="5.66135">
        <ele>943.20001220703</ele>
        <time>2013-05-11T14:57:41Z</time>
      </trkpt>
      <trkpt lat="44.4553" lon="5.66125">
        <ele>943.20001220703</ele>
        <time>2013-05-11T14:57:42Z</time>
      </trkpt>
      <trkpt lat="44.45535" lon="5.6612">
        <ele>943.20001220703</ele>
        <time>2013-05-11T14:57:43Z</time>
      </trkpt>
      <trkpt lat="44.4554" lon="5.6612">
        <ele>941.59997558594</ele>
        <time>2013-05-11T14:57:44Z</time>
      </trkpt>
      <trkpt lat="44.45549" lon="5.66137">
        <ele>940</ele>
        <time>2013-05-11T14:57:46Z</time>
      </trkpt>
      <trkpt lat="44.45549" lon="5.6616">
        <ele>939</ele>
        <time>2013-05-11T14:57:48Z</time>
      </trkpt>
      <trkpt lat="44.45548" lon="5.66172">
        <ele>938.40002441406</ele>
        <time>2013-05-11T14:57:49Z</time>
      </trkpt>
      <trkpt lat="44.45545" lon="5.66199">
        <ele>937.20001220703</ele>
        <time>2013-05-11T14:57:51Z</time>
      </trkpt>
      <trkpt lat="44.45544" lon="5.66213">
        <ele>937.20001220703</ele>
        <time>2013-05-11T14:57:52Z</time>
      </trkpt>
      <trkpt lat="44.45543" lon="5.66229">
        <ele>935.59997558594</ele>
        <time>2013-05-11T14:57:53Z</time>
      </trkpt>
      <trkpt lat="44.45544" lon="5.66278">
        <ele>933.20001220703</ele>
        <time>2013-05-11T14:57:56Z</time>
      </trkpt>
      <trkpt lat="44.45544" lon="5.66306">
        <ele>932</ele>
        <time>2013-05-11T14:57:58Z</time>
      </trkpt>
      <trkpt lat="44.45541" lon="5.66317">
        <ele>930.79998779297</ele>
        <time>2013-05-11T14:57:59Z</time>
      </trkpt>
      <trkpt lat="44.45528" lon="5.66336">
        <ele>930.79998779297</ele>
        <time>2013-05-11T14:58:01Z</time>
      </trkpt>
      <trkpt lat="44.45522" lon="5.66347">
        <ele>928.20001220703</ele>
        <time>2013-05-11T14:58:02Z</time>
      </trkpt>
      <trkpt lat="44.45515" lon="5.66375">
        <ele>925.20001220703</ele>
        <time>2013-05-11T14:58:04Z</time>
      </trkpt>
      <trkpt lat="44.4551" lon="5.66405">
        <ele>923.79998779297</ele>
        <time>2013-05-11T14:58:06Z</time>
      </trkpt>
      <trkpt lat="44.45509" lon="5.66417">
        <ele>922.40002441406</ele>
        <time>2013-05-11T14:58:07Z</time>
      </trkpt>
      <trkpt lat="44.4551" lon="5.66436">
        <ele>919.40002441406</ele>
        <time>2013-05-11T14:58:09Z</time>
      </trkpt>
      <trkpt lat="44.45517" lon="5.66443">
        <ele>919.40002441406</ele>
        <time>2013-05-11T14:58:10Z</time>
      </trkpt>
      <trkpt lat="44.45523" lon="5.66447">
        <ele>916.59997558594</ele>
        <time>2013-05-11T14:58:11Z</time>
      </trkpt>
      <trkpt lat="44.45538" lon="5.66451">
        <ele>915.40002441406</ele>
        <time>2013-05-11T14:58:13Z</time>
      </trkpt>
      <trkpt lat="44.45546" lon="5.66452">
        <ele>914.20001220703</ele>
        <time>2013-05-11T14:58:14Z</time>
      </trkpt>
      <trkpt lat="44.45562" lon="5.66449">
        <ele>913.20001220703</ele>
        <time>2013-05-11T14:58:16Z</time>
      </trkpt>
      <trkpt lat="44.45573" lon="5.66426">
        <ele>911.59997558594</ele>
        <time>2013-05-11T14:58:19Z</time>
      </trkpt>
      <trkpt lat="44.45575" lon="5.66416">
        <ele>910.79998779297</ele>
        <time>2013-05-11T14:58:20Z</time>
      </trkpt>
      <trkpt lat="44.45578" lon="5.66393">
        <ele>909.20001220703</ele>
        <time>2013-05-11T14:58:22Z</time>
      </trkpt>
      <trkpt lat="44.45585" lon="5.66367">
        <ele>908.20001220703</ele>
        <time>2013-05-11T14:58:24Z</time>
      </trkpt>
      <trkpt lat="44.45592" lon="5.6634">
        <ele>907.20001220703</ele>
        <time>2013-05-11T14:58:26Z</time>
      </trkpt>
      <trkpt lat="44.45594" lon="5.66328">
        <ele>906</ele>
        <time>2013-05-11T14:58:27Z</time>
      </trkpt>
      <trkpt lat="44.45597" lon="5.66318">
        <ele>906</ele>
        <time>2013-05-11T14:58:28Z</time>
      </trkpt>
      <trkpt lat="44.45604" lon="5.66312">
        <ele>903.59997558594</ele>
        <time>2013-05-11T14:58:30Z</time>
      </trkpt>
      <trkpt lat="44.45612" lon="5.66321">
        <ele>902.59997558594</ele>
        <time>2013-05-11T14:58:32Z</time>
      </trkpt>
      <trkpt lat="44.4561" lon="5.6634">
        <ele>900.59997558594</ele>
        <time>2013-05-11T14:58:34Z</time>
      </trkpt>
      <trkpt lat="44.45605" lon="5.6636">
        <ele>899</ele>
        <time>2013-05-11T14:58:36Z</time>
      </trkpt>
      <trkpt lat="44.45602" lon="5.66371">
        <ele>899</ele>
        <time>2013-05-11T14:58:37Z</time>
      </trkpt>
      <trkpt lat="44.456" lon="5.66383">
        <ele>898.40002441406</ele>
        <time>2013-05-11T14:58:38Z</time>
      </trkpt>
      <trkpt lat="44.45598" lon="5.66394">
        <ele>897.79998779297</ele>
        <time>2013-05-11T14:58:39Z</time>
      </trkpt>
      <trkpt lat="44.45595" lon="5.66419">
        <ele>896.59997558594</ele>
        <time>2013-05-11T14:58:41Z</time>
      </trkpt>
      <trkpt lat="44.45594" lon="5.66433">
        <ele>896.59997558594</ele>
        <time>2013-05-11T14:58:42Z</time>
      </trkpt>
      <trkpt lat="44.45594" lon="5.66448">
        <ele>895.79998779297</ele>
        <time>2013-05-11T14:58:43Z</time>
      </trkpt>
      <trkpt lat="44.45594" lon="5.66477">
        <ele>895.40002441406</ele>
        <time>2013-05-11T14:58:45Z</time>
      </trkpt>
      <trkpt lat="44.45592" lon="5.66492">
        <ele>894.79998779297</ele>
        <time>2013-05-11T14:58:46Z</time>
      </trkpt>
      <trkpt lat="44.45591" lon="5.66507">
        <ele>894.79998779297</ele>
        <time>2013-05-11T14:58:47Z</time>
      </trkpt>
      <trkpt lat="44.45589" lon="5.66521">
        <ele>894.20001220703</ele>
        <time>2013-05-11T14:58:48Z</time>
      </trkpt>
      <trkpt lat="44.4558" lon="5.66547">
        <ele>893.20001220703</ele>
        <time>2013-05-11T14:58:50Z</time>
      </trkpt>
      <trkpt lat="44.45575" lon="5.66557">
        <ele>893.20001220703</ele>
        <time>2013-05-11T14:58:51Z</time>
      </trkpt>
      <trkpt lat="44.45559" lon="5.66576">
        <ele>891.20001220703</ele>
        <time>2013-05-11T14:58:53Z</time>
      </trkpt>
      <trkpt lat="44.45553" lon="5.66584">
        <ele>891.20001220703</ele>
        <time>2013-05-11T14:58:54Z</time>
      </trkpt>
      <trkpt lat="44.4555" lon="5.66595">
        <ele>890</ele>
        <time>2013-05-11T14:58:55Z</time>
      </trkpt>
      <trkpt lat="44.45551" lon="5.66606">
        <ele>890</ele>
        <time>2013-05-11T14:58:56Z</time>
      </trkpt>
      <trkpt lat="44.45552" lon="5.66617">
        <ele>888.79998779297</ele>
        <time>2013-05-11T14:58:57Z</time>
      </trkpt>
      <trkpt lat="44.45563" lon="5.66634">
        <ele>888.79998779297</ele>
        <time>2013-05-11T14:58:59Z</time>
      </trkpt>
      <trkpt lat="44.4557" lon="5.66635">
        <ele>886.79998779297</ele>
        <time>2013-05-11T14:59:00Z</time>
      </trkpt>
      <trkpt lat="44.45581" lon="5.66621">
        <ele>885.40002441406</ele>
        <time>2013-05-11T14:59:02Z</time>
      </trkpt>
      <trkpt lat="44.45583" lon="5.6661">
        <ele>885.40002441406</ele>
        <time>2013-05-11T14:59:03Z</time>
      </trkpt>
      <trkpt lat="44.45596" lon="5.66597">
        <ele>883</ele>
        <time>2013-05-11T14:59:05Z</time>
      </trkpt>
      <trkpt lat="44.45605" lon="5.66596">
        <ele>883</ele>
        <time>2013-05-11T14:59:06Z</time>
      </trkpt>
      <trkpt lat="44.45613" lon="5.66594">
        <ele>880.40002441406</ele>
        <time>2013-05-11T14:59:07Z</time>
      </trkpt>
      <trkpt lat="44.45624" lon="5.66591">
        <ele>878.40002441406</ele>
        <time>2013-05-11T14:59:09Z</time>
      </trkpt>
      <trkpt lat="44.45629" lon="5.66605">
        <ele>877.59997558594</ele>
        <time>2013-05-11T14:59:11Z</time>
      </trkpt>
      <trkpt lat="44.45625" lon="5.66616">
        <ele>876.59997558594</ele>
        <time>2013-05-11T14:59:12Z</time>
      </trkpt>
      <trkpt lat="44.45617" lon="5.66631">
        <ele>874.79998779297</ele>
        <time>2013-05-11T14:59:14Z</time>
      </trkpt>
      <trkpt lat="44.45604" lon="5.66638">
        <ele>874.79998779297</ele>
        <time>2013-05-11T14:59:15Z</time>
      </trkpt>
      <trkpt lat="44.45596" lon="5.66644">
        <ele>873</ele>
        <time>2013-05-11T14:59:16Z</time>
      </trkpt>
      <trkpt lat="44.45581" lon="5.66654">
        <ele>872</ele>
        <time>2013-05-11T14:59:18Z</time>
      </trkpt>
      <trkpt lat="44.45578" lon="5.6666">
        <ele>871.20001220703</ele>
        <time>2013-05-11T14:59:19Z</time>
      </trkpt>
      <trkpt lat="44.45583" lon="5.66676">
        <ele>869.20001220703</ele>
        <time>2013-05-11T14:59:21Z</time>
      </trkpt>
      <trkpt lat="44.45603" lon="5.66676">
        <ele>867</ele>
        <time>2013-05-11T14:59:23Z</time>
      </trkpt>
      <trkpt lat="44.45622" lon="5.66674">
        <ele>866</ele>
        <time>2013-05-11T14:59:25Z</time>
      </trkpt>
      <trkpt lat="44.45631" lon="5.66679">
        <ele>865</ele>
        <time>2013-05-11T14:59:26Z</time>
      </trkpt>
      <trkpt lat="44.45641" lon="5.66686">
        <ele>865</ele>
        <time>2013-05-11T14:59:27Z</time>
      </trkpt>
      <trkpt lat="44.45649" lon="5.66695">
        <ele>863</ele>
        <time>2013-05-11T14:59:28Z</time>
      </trkpt>
      <trkpt lat="44.45662" lon="5.66718">
        <ele>860.59997558594</ele>
        <time>2013-05-11T14:59:30Z</time>
      </trkpt>
      <trkpt lat="44.45676" lon="5.66749">
        <ele>859.20001220703</ele>
        <time>2013-05-11T14:59:32Z</time>
      </trkpt>
      <trkpt lat="44.45682" lon="5.66765">
        <ele>857.40002441406</ele>
        <time>2013-05-11T14:59:33Z</time>
      </trkpt>
      <trkpt lat="44.45693" lon="5.66789">
        <ele>853.59997558594</ele>
        <time>2013-05-11T14:59:35Z</time>
      </trkpt>
      <trkpt lat="44.457" lon="5.66793">
        <ele>853.59997558594</ele>
        <time>2013-05-11T14:59:36Z</time>
      </trkpt>
      <trkpt lat="44.45716" lon="5.66793">
        <ele>850.20001220703</ele>
        <time>2013-05-11T14:59:38Z</time>
      </trkpt>
      <trkpt lat="44.45721" lon="5.66796">
        <ele>848.59997558594</ele>
        <time>2013-05-11T14:59:39Z</time>
      </trkpt>
      <trkpt lat="44.4572" lon="5.66801">
        <ele>847</ele>
        <time>2013-05-11T14:59:40Z</time>
      </trkpt>
      <trkpt lat="44.45721" lon="5.66808">
        <ele>847</ele>
        <time>2013-05-11T14:59:41Z</time>
      </trkpt>
      <trkpt lat="44.45722" lon="5.66815">
        <ele>845</ele>
        <time>2013-05-11T14:59:42Z</time>
      </trkpt>
      <trkpt lat="44.45712" lon="5.66837">
        <ele>844.20001220703</ele>
        <time>2013-05-11T14:59:44Z</time>
      </trkpt>
      <trkpt lat="44.4571" lon="5.66847">
        <ele>844.20001220703</ele>
        <time>2013-05-11T14:59:45Z</time>
      </trkpt>
      <trkpt lat="44.45707" lon="5.66858">
        <ele>843.40002441406</ele>
        <time>2013-05-11T14:59:46Z</time>
      </trkpt>
      <trkpt lat="44.45706" lon="5.66872">
        <ele>842.79998779297</ele>
        <time>2013-05-11T14:59:47Z</time>
      </trkpt>
      <trkpt lat="44.45703" lon="5.66902">
        <ele>842</ele>
        <time>2013-05-11T14:59:49Z</time>
      </trkpt>
      <trkpt lat="44.45702" lon="5.66917">
        <ele>841</ele>
        <time>2013-05-11T14:59:50Z</time>
      </trkpt>
      <trkpt lat="44.45702" lon="5.66947">
        <ele>839.79998779297</ele>
        <time>2013-05-11T14:59:52Z</time>
      </trkpt>
      <trkpt lat="44.45703" lon="5.66962">
        <ele>838.40002441406</ele>
        <time>2013-05-11T14:59:53Z</time>
      </trkpt>
      <trkpt lat="44.45707" lon="5.66993">
        <ele>835.59997558594</ele>
        <time>2013-05-11T14:59:55Z</time>
      </trkpt>
      <trkpt lat="44.45711" lon="5.67025">
        <ele>834.40002441406</ele>
        <time>2013-05-11T14:59:57Z</time>
      </trkpt>
      <trkpt lat="44.45722" lon="5.67037">
        <ele>833</ele>
        <time>2013-05-11T14:59:58Z</time>
      </trkpt>
      <trkpt lat="44.45736" lon="5.67046">
        <ele>833</ele>
        <time>2013-05-11T14:59:59Z</time>
      </trkpt>
      <trkpt lat="44.45743" lon="5.67059">
        <ele>830.40002441406</ele>
        <time>2013-05-11T15:00:00Z</time>
      </trkpt>
      <trkpt lat="44.45749" lon="5.67092">
        <ele>829</ele>
        <time>2013-05-11T15:00:02Z</time>
      </trkpt>
      <trkpt lat="44.45749" lon="5.67108">
        <ele>827.79998779297</ele>
        <time>2013-05-11T15:00:03Z</time>
      </trkpt>
      <trkpt lat="44.45753" lon="5.67122">
        <ele>826.40002441406</ele>
        <time>2013-05-11T15:00:04Z</time>
      </trkpt>
      <trkpt lat="44.45742" lon="5.67134">
        <ele>825.20001220703</ele>
        <time>2013-05-11T15:00:05Z</time>
      </trkpt>
      <trkpt lat="44.4574" lon="5.67145">
        <ele>825.20001220703</ele>
        <time>2013-05-11T15:00:06Z</time>
      </trkpt>
      <trkpt lat="44.4574" lon="5.67156">
        <ele>824</ele>
        <time>2013-05-11T15:00:07Z</time>
      </trkpt>
      <trkpt lat="44.45744" lon="5.67168">
        <ele>822.79998779297</ele>
        <time>2013-05-11T15:00:08Z</time>
      </trkpt>
      <trkpt lat="44.45746" lon="5.67178">
        <ele>821.79998779297</ele>
        <time>2013-05-11T15:00:09Z</time>
      </trkpt>
      <trkpt lat="44.45749" lon="5.6719">
        <ele>820.79998779297</ele>
        <time>2013-05-11T15:00:10Z</time>
      </trkpt>
      <trkpt lat="44.45752" lon="5.67204">
        <ele>819.79998779297</ele>
        <time>2013-05-11T15:00:11Z</time>
      </trkpt>
      <trkpt lat="44.45751" lon="5.67234">
        <ele>819</ele>
        <time>2013-05-11T15:00:13Z</time>
      </trkpt>
      <trkpt lat="44.45749" lon="5.67249">
        <ele>818</ele>
        <time>2013-05-11T15:00:14Z</time>
      </trkpt>
      <trkpt lat="44.45739" lon="5.67266">
        <ele>817</ele>
        <time>2013-05-11T15:00:15Z</time>
      </trkpt>
      <trkpt lat="44.45732" lon="5.6728">
        <ele>816</ele>
        <time>2013-05-11T15:00:16Z</time>
      </trkpt>
      <trkpt lat="44.4573" lon="5.67293">
        <ele>814.79998779297</ele>
        <time>2013-05-11T15:00:17Z</time>
      </trkpt>
      <trkpt lat="44.45729" lon="5.67319">
        <ele>813.59997558594</ele>
        <time>2013-05-11T15:00:19Z</time>
      </trkpt>
      <trkpt lat="44.45732" lon="5.67334">
        <ele>812.59997558594</ele>
        <time>2013-05-11T15:00:20Z</time>
      </trkpt>
      <trkpt lat="44.45737" lon="5.67347">
        <ele>811.40002441406</ele>
        <time>2013-05-11T15:00:21Z</time>
      </trkpt>
      <trkpt lat="44.45744" lon="5.6736">
        <ele>810.40002441406</ele>
        <time>2013-05-11T15:00:22Z</time>
      </trkpt>
      <trkpt lat="44.45752" lon="5.67372">
        <ele>809.59997558594</ele>
        <time>2013-05-11T15:00:23Z</time>
      </trkpt>
      <trkpt lat="44.45757" lon="5.67397">
        <ele>808.59997558594</ele>
        <time>2013-05-11T15:00:25Z</time>
      </trkpt>
      <trkpt lat="44.45766" lon="5.6741">
        <ele>807.79998779297</ele>
        <time>2013-05-11T15:00:26Z</time>
      </trkpt>
      <trkpt lat="44.45777" lon="5.67422">
        <ele>807</ele>
        <time>2013-05-11T15:00:27Z</time>
      </trkpt>
      <trkpt lat="44.45779" lon="5.67437">
        <ele>806.40002441406</ele>
        <time>2013-05-11T15:00:28Z</time>
      </trkpt>
      <trkpt lat="44.4578" lon="5.67451">
        <ele>805.59997558594</ele>
        <time>2013-05-11T15:00:29Z</time>
      </trkpt>
      <trkpt lat="44.45777" lon="5.67478">
        <ele>804.79998779297</ele>
        <time>2013-05-11T15:00:31Z</time>
      </trkpt>
      <trkpt lat="44.45777" lon="5.67493">
        <ele>804.20001220703</ele>
        <time>2013-05-11T15:00:32Z</time>
      </trkpt>
      <trkpt lat="44.45777" lon="5.67506">
        <ele>803.40002441406</ele>
        <time>2013-05-11T15:00:33Z</time>
      </trkpt>
      <trkpt lat="44.45778" lon="5.6752">
        <ele>802.59997558594</ele>
        <time>2013-05-11T15:00:34Z</time>
      </trkpt>
      <trkpt lat="44.45779" lon="5.67536">
        <ele>802</ele>
        <time>2013-05-11T15:00:35Z</time>
      </trkpt>
      <trkpt lat="44.45775" lon="5.67568">
        <ele>801.20001220703</ele>
        <time>2013-05-11T15:00:37Z</time>
      </trkpt>
      <trkpt lat="44.45774" lon="5.67582">
        <ele>800.40002441406</ele>
        <time>2013-05-11T15:00:38Z</time>
      </trkpt>
      <trkpt lat="44.45774" lon="5.67596">
        <ele>799.79998779297</ele>
        <time>2013-05-11T15:00:39Z</time>
      </trkpt>
      <trkpt lat="44.45773" lon="5.6761">
        <ele>799.20001220703</ele>
        <time>2013-05-11T15:00:40Z</time>
      </trkpt>
      <trkpt lat="44.45772" lon="5.67624">
        <ele>798.59997558594</ele>
        <time>2013-05-11T15:00:41Z</time>
      </trkpt>
      <trkpt lat="44.45764" lon="5.67674">
        <ele>798</ele>
        <time>2013-05-11T15:00:44Z</time>
      </trkpt>
      <trkpt lat="44.45756" lon="5.67692">
        <ele>797.20001220703</ele>
        <time>2013-05-11T15:00:45Z</time>
      </trkpt>
      <trkpt lat="44.45749" lon="5.67708">
        <ele>796.20001220703</ele>
        <time>2013-05-11T15:00:46Z</time>
      </trkpt>
      <trkpt lat="44.45745" lon="5.67722">
        <ele>795.20001220703</ele>
        <time>2013-05-11T15:00:47Z</time>
      </trkpt>
      <trkpt lat="44.45736" lon="5.67736">
        <ele>795.20001220703</ele>
        <time>2013-05-11T15:00:48Z</time>
      </trkpt>
      <trkpt lat="44.45728" lon="5.67752">
        <ele>794.20001220703</ele>
        <time>2013-05-11T15:00:49Z</time>
      </trkpt>
      <trkpt lat="44.45717" lon="5.67785">
        <ele>793.20001220703</ele>
        <time>2013-05-11T15:00:51Z</time>
      </trkpt>
      <trkpt lat="44.45712" lon="5.678">
        <ele>792.20001220703</ele>
        <time>2013-05-11T15:00:52Z</time>
      </trkpt>
      <trkpt lat="44.45707" lon="5.67815">
        <ele>791.40002441406</ele>
        <time>2013-05-11T15:00:53Z</time>
      </trkpt>
      <trkpt lat="44.45696" lon="5.67843">
        <ele>790.59997558594</ele>
        <time>2013-05-11T15:00:55Z</time>
      </trkpt>
      <trkpt lat="44.45686" lon="5.67852">
        <ele>790.59997558594</ele>
        <time>2013-05-11T15:00:56Z</time>
      </trkpt>
      <trkpt lat="44.45678" lon="5.67861">
        <ele>789.59997558594</ele>
        <time>2013-05-11T15:00:57Z</time>
      </trkpt>
      <trkpt lat="44.45664" lon="5.67879">
        <ele>788.59997558594</ele>
        <time>2013-05-11T15:00:59Z</time>
      </trkpt>
      <trkpt lat="44.45665" lon="5.67894">
        <ele>786.40002441406</ele>
        <time>2013-05-11T15:01:00Z</time>
      </trkpt>
      <trkpt lat="44.45658" lon="5.67923">
        <ele>785.40002441406</ele>
        <time>2013-05-11T15:01:02Z</time>
      </trkpt>
      <trkpt lat="44.45658" lon="5.67938">
        <ele>784.59997558594</ele>
        <time>2013-05-11T15:01:03Z</time>
      </trkpt>
      <trkpt lat="44.45664" lon="5.67968">
        <ele>782.40002441406</ele>
        <time>2013-05-11T15:01:05Z</time>
      </trkpt>
      <trkpt lat="44.45673" lon="5.68002">
        <ele>781.40002441406</ele>
        <time>2013-05-11T15:01:07Z</time>
      </trkpt>
      <trkpt lat="44.45678" lon="5.68018">
        <ele>780.20001220703</ele>
        <time>2013-05-11T15:01:08Z</time>
      </trkpt>
      <trkpt lat="44.45682" lon="5.68033">
        <ele>779.20001220703</ele>
        <time>2013-05-11T15:01:09Z</time>
      </trkpt>
      <trkpt lat="44.4569" lon="5.68068">
        <ele>778</ele>
        <time>2013-05-11T15:01:11Z</time>
      </trkpt>
      <trkpt lat="44.45694" lon="5.68084">
        <ele>778</ele>
        <time>2013-05-11T15:01:12Z</time>
      </trkpt>
      <trkpt lat="44.45696" lon="5.68101">
        <ele>776.79998779297</ele>
        <time>2013-05-11T15:01:13Z</time>
      </trkpt>
      <trkpt lat="44.45697" lon="5.68119">
        <ele>775.40002441406</ele>
        <time>2013-05-11T15:01:14Z</time>
      </trkpt>
      <trkpt lat="44.45698" lon="5.68135">
        <ele>774</ele>
        <time>2013-05-11T15:01:15Z</time>
      </trkpt>
      <trkpt lat="44.45698" lon="5.6815">
        <ele>772.79998779297</ele>
        <time>2013-05-11T15:01:16Z</time>
      </trkpt>
      <trkpt lat="44.45696" lon="5.68166">
        <ele>771.79998779297</ele>
        <time>2013-05-11T15:01:17Z</time>
      </trkpt>
      <trkpt lat="44.45695" lon="5.68182">
        <ele>770.59997558594</ele>
        <time>2013-05-11T15:01:18Z</time>
      </trkpt>
      <trkpt lat="44.45694" lon="5.68216">
        <ele>769.59997558594</ele>
        <time>2013-05-11T15:01:20Z</time>
      </trkpt>
      <trkpt lat="44.45691" lon="5.68233">
        <ele>768.59997558594</ele>
        <time>2013-05-11T15:01:21Z</time>
      </trkpt>
      <trkpt lat="44.45689" lon="5.68249">
        <ele>767.79998779297</ele>
        <time>2013-05-11T15:01:22Z</time>
      </trkpt>
      <trkpt lat="44.45686" lon="5.68265">
        <ele>766.79998779297</ele>
        <time>2013-05-11T15:01:23Z</time>
      </trkpt>
      <trkpt lat="44.45676" lon="5.68281">
        <ele>765.79998779297</ele>
        <time>2013-05-11T15:01:24Z</time>
      </trkpt>
      <trkpt lat="44.45659" lon="5.68308">
        <ele>765.20001220703</ele>
        <time>2013-05-11T15:01:26Z</time>
      </trkpt>
      <trkpt lat="44.45653" lon="5.68321">
        <ele>764.59997558594</ele>
        <time>2013-05-11T15:01:27Z</time>
      </trkpt>
      <trkpt lat="44.45648" lon="5.68336">
        <ele>763.79998779297</ele>
        <time>2013-05-11T15:01:28Z</time>
      </trkpt>
      <trkpt lat="44.45642" lon="5.6835">
        <ele>763.20001220703</ele>
        <time>2013-05-11T15:01:29Z</time>
      </trkpt>
      <trkpt lat="44.45634" lon="5.68362">
        <ele>763.20001220703</ele>
        <time>2013-05-11T15:01:30Z</time>
      </trkpt>
      <trkpt lat="44.45626" lon="5.68375">
        <ele>762.59997558594</ele>
        <time>2013-05-11T15:01:31Z</time>
      </trkpt>
      <trkpt lat="44.45618" lon="5.68387">
        <ele>762</ele>
        <time>2013-05-11T15:01:32Z</time>
      </trkpt>
      <trkpt lat="44.45609" lon="5.68398">
        <ele>761.59997558594</ele>
        <time>2013-05-11T15:01:33Z</time>
      </trkpt>
      <trkpt lat="44.45594" lon="5.68423">
        <ele>761.20001220703</ele>
        <time>2013-05-11T15:01:35Z</time>
      </trkpt>
      <trkpt lat="44.45583" lon="5.68452">
        <ele>760.40002441406</ele>
        <time>2013-05-11T15:01:37Z</time>
      </trkpt>
      <trkpt lat="44.45577" lon="5.68467">
        <ele>759.79998779297</ele>
        <time>2013-05-11T15:01:38Z</time>
      </trkpt>
      <trkpt lat="44.45572" lon="5.68481">
        <ele>759</ele>
        <time>2013-05-11T15:01:39Z</time>
      </trkpt>
      <trkpt lat="44.45561" lon="5.68499">
        <ele>759</ele>
        <time>2013-05-11T15:01:41Z</time>
      </trkpt>
      <trkpt lat="44.45555" lon="5.68513">
        <ele>758.20001220703</ele>
        <time>2013-05-11T15:01:42Z</time>
      </trkpt>
      <trkpt lat="44.4555" lon="5.68528">
        <ele>757.20001220703</ele>
        <time>2013-05-11T15:01:43Z</time>
      </trkpt>
      <trkpt lat="44.45548" lon="5.68543">
        <ele>756.20001220703</ele>
        <time>2013-05-11T15:01:44Z</time>
      </trkpt>
      <trkpt lat="44.45547" lon="5.68557">
        <ele>755.20001220703</ele>
        <time>2013-05-11T15:01:45Z</time>
      </trkpt>
      <trkpt lat="44.4555" lon="5.6857">
        <ele>754.20001220703</ele>
        <time>2013-05-11T15:01:46Z</time>
      </trkpt>
      <trkpt lat="44.4556" lon="5.68596">
        <ele>753.40002441406</ele>
        <time>2013-05-11T15:01:48Z</time>
      </trkpt>
      <trkpt lat="44.45565" lon="5.68609">
        <ele>752.79998779297</ele>
        <time>2013-05-11T15:01:49Z</time>
      </trkpt>
      <trkpt lat="44.4557" lon="5.68623">
        <ele>752</ele>
        <time>2013-05-11T15:01:50Z</time>
      </trkpt>
      <trkpt lat="44.45575" lon="5.68638">
        <ele>751.20001220703</ele>
        <time>2013-05-11T15:01:51Z</time>
      </trkpt>
      <trkpt lat="44.45575" lon="5.6865">
        <ele>750.20001220703</ele>
        <time>2013-05-11T15:01:52Z</time>
      </trkpt>
      <trkpt lat="44.45578" lon="5.68662">
        <ele>750.20001220703</ele>
        <time>2013-05-11T15:01:53Z</time>
      </trkpt>
      <trkpt lat="44.45578" lon="5.68672">
        <ele>749.40002441406</ele>
        <time>2013-05-11T15:01:54Z</time>
      </trkpt>
      <trkpt lat="44.45576" lon="5.68682">
        <ele>748.40002441406</ele>
        <time>2013-05-11T15:01:55Z</time>
      </trkpt>
      <trkpt lat="44.45569" lon="5.68691">
        <ele>747.59997558594</ele>
        <time>2013-05-11T15:01:56Z</time>
      </trkpt>
      <trkpt lat="44.4556" lon="5.68702">
        <ele>746.59997558594</ele>
        <time>2013-05-11T15:01:57Z</time>
      </trkpt>
      <trkpt lat="44.45555" lon="5.68713">
        <ele>746.59997558594</ele>
        <time>2013-05-11T15:01:58Z</time>
      </trkpt>
      <trkpt lat="44.45554" lon="5.68724">
        <ele>745.59997558594</ele>
        <time>2013-05-11T15:01:59Z</time>
      </trkpt>
      <trkpt lat="44.45552" lon="5.68751">
        <ele>744.79998779297</ele>
        <time>2013-05-11T15:02:01Z</time>
      </trkpt>
      <trkpt lat="44.45554" lon="5.68764">
        <ele>743.59997558594</ele>
        <time>2013-05-11T15:02:02Z</time>
      </trkpt>
      <trkpt lat="44.45556" lon="5.68777">
        <ele>742.59997558594</ele>
        <time>2013-05-11T15:02:03Z</time>
      </trkpt>
      <trkpt lat="44.45558" lon="5.68791">
        <ele>741.59997558594</ele>
        <time>2013-05-11T15:02:04Z</time>
      </trkpt>
      <trkpt lat="44.45558" lon="5.68807">
        <ele>740.79998779297</ele>
        <time>2013-05-11T15:02:05Z</time>
      </trkpt>
      <trkpt lat="44.45557" lon="5.68823">
        <ele>739.79998779297</ele>
        <time>2013-05-11T15:02:06Z</time>
      </trkpt>
      <trkpt lat="44.45555" lon="5.68837">
        <ele>739.79998779297</ele>
        <time>2013-05-11T15:02:07Z</time>
      </trkpt>
      <trkpt lat="44.45554" lon="5.68852">
        <ele>738.79998779297</ele>
        <time>2013-05-11T15:02:08Z</time>
      </trkpt>
      <trkpt lat="44.45553" lon="5.68866">
        <ele>738</ele>
        <time>2013-05-11T15:02:09Z</time>
      </trkpt>
      <trkpt lat="44.45555" lon="5.68882">
        <ele>737.20001220703</ele>
        <time>2013-05-11T15:02:10Z</time>
      </trkpt>
      <trkpt lat="44.45557" lon="5.68898">
        <ele>735.79998779297</ele>
        <time>2013-05-11T15:02:11Z</time>
      </trkpt>
      <trkpt lat="44.4556" lon="5.6893">
        <ele>735</ele>
        <time>2013-05-11T15:02:13Z</time>
      </trkpt>
      <trkpt lat="44.45558" lon="5.6896">
        <ele>733.59997558594</ele>
        <time>2013-05-11T15:02:15Z</time>
      </trkpt>
      <trkpt lat="44.45554" lon="5.6899">
        <ele>732.79998779297</ele>
        <time>2013-05-11T15:02:17Z</time>
      </trkpt>
      <trkpt lat="44.45552" lon="5.69005">
        <ele>732.20001220703</ele>
        <time>2013-05-11T15:02:18Z</time>
      </trkpt>
      <trkpt lat="44.45545" lon="5.69048">
        <ele>730.79998779297</ele>
        <time>2013-05-11T15:02:21Z</time>
      </trkpt>
      <trkpt lat="44.45542" lon="5.69061">
        <ele>730.79998779297</ele>
        <time>2013-05-11T15:02:22Z</time>
      </trkpt>
      <trkpt lat="44.45538" lon="5.69074">
        <ele>730</ele>
        <time>2013-05-11T15:02:23Z</time>
      </trkpt>
      <trkpt lat="44.45531" lon="5.69084">
        <ele>729</ele>
        <time>2013-05-11T15:02:24Z</time>
      </trkpt>
      <trkpt lat="44.45527" lon="5.69096">
        <ele>728.20001220703</ele>
        <time>2013-05-11T15:02:25Z</time>
      </trkpt>
      <trkpt lat="44.45517" lon="5.69136">
        <ele>726.79998779297</ele>
        <time>2013-05-11T15:02:28Z</time>
      </trkpt>
      <trkpt lat="44.4551" lon="5.69163">
        <ele>726.40002441406</ele>
        <time>2013-05-11T15:02:30Z</time>
      </trkpt>
      <trkpt lat="44.45506" lon="5.69173">
        <ele>725.79998779297</ele>
        <time>2013-05-11T15:02:31Z</time>
      </trkpt>
      <trkpt lat="44.45498" lon="5.6918">
        <ele>725.20001220703</ele>
        <time>2013-05-11T15:02:32Z</time>
      </trkpt>
      <trkpt lat="44.45489" lon="5.69187">
        <ele>724.59997558594</ele>
        <time>2013-05-11T15:02:33Z</time>
      </trkpt>
      <trkpt lat="44.45473" lon="5.69203">
        <ele>723.59997558594</ele>
        <time>2013-05-11T15:02:35Z</time>
      </trkpt>
      <trkpt lat="44.4546" lon="5.69223">
        <ele>723</ele>
        <time>2013-05-11T15:02:37Z</time>
      </trkpt>
      <trkpt lat="44.45455" lon="5.69234">
        <ele>722.40002441406</ele>
        <time>2013-05-11T15:02:38Z</time>
      </trkpt>
      <trkpt lat="44.45454" lon="5.69248">
        <ele>722</ele>
        <time>2013-05-11T15:02:39Z</time>
      </trkpt>
      <trkpt lat="44.45452" lon="5.69262">
        <ele>721.40002441406</ele>
        <time>2013-05-11T15:02:40Z</time>
      </trkpt>
      <trkpt lat="44.45449" lon="5.69286">
        <ele>721</ele>
        <time>2013-05-11T15:02:42Z</time>
      </trkpt>
      <trkpt lat="44.45446" lon="5.69296">
        <ele>720.40002441406</ele>
        <time>2013-05-11T15:02:43Z</time>
      </trkpt>
      <trkpt lat="44.45438" lon="5.69306">
        <ele>720</ele>
        <time>2013-05-11T15:02:45Z</time>
      </trkpt>
      <trkpt lat="44.45427" lon="5.69313">
        <ele>719.40002441406</ele>
        <time>2013-05-11T15:02:47Z</time>
      </trkpt>
      <trkpt lat="44.45424" lon="5.69326">
        <ele>718.59997558594</ele>
        <time>2013-05-11T15:02:49Z</time>
      </trkpt>
      <trkpt lat="44.45424" lon="5.69331">
        <ele>718.20001220703</ele>
        <time>2013-05-11T15:02:50Z</time>
      </trkpt>
      <trkpt lat="44.45415" lon="5.69334">
        <ele>717.40002441406</ele>
        <time>2013-05-11T15:02:53Z</time>
      </trkpt>
      <trkpt lat="44.45409" lon="5.69332">
        <ele>717.40002441406</ele>
        <time>2013-05-11T15:02:54Z</time>
      </trkpt>
      <trkpt lat="44.45372" lon="5.69324">
        <ele>717.40002441406</ele>
        <time>2013-05-11T15:02:59Z</time>
      </trkpt>
      <trkpt lat="44.4533" lon="5.69321">
        <ele>717.40002441406</ele>
        <time>2013-05-11T15:03:05Z</time>
      </trkpt>
      <trkpt lat="44.45324" lon="5.69322">
        <ele>717.40002441406</ele>
        <time>2013-05-11T15:03:06Z</time>
      </trkpt>
      <trkpt lat="44.45312" lon="5.69326">
        <ele>717.40002441406</ele>
        <time>2013-05-11T15:03:08Z</time>
      </trkpt>
      <trkpt lat="44.45308" lon="5.69325">
        <ele>717.40002441406</ele>
        <time>2013-05-11T15:03:09Z</time>
      </trkpt>
      <trkpt lat="44.45299" lon="5.69323">
        <ele>716.59997558594</ele>
        <time>2013-05-11T15:03:14Z</time>
      </trkpt>
      <trkpt lat="44.45298" lon="5.6932">
        <ele>715.20001220703</ele>
        <time>2013-05-11T15:03:29Z</time>
      </trkpt>
      <trkpt lat="44.45294" lon="5.69321">
        <ele>715.20001220703</ele>
        <time>2013-05-11T15:03:44Z</time>
      </trkpt>
      <trkpt lat="44.45301" lon="5.69324">
        <ele>715.20001220703</ele>
        <time>2013-05-11T15:06:38Z</time>
      </trkpt>
      <trkpt lat="44.45311" lon="5.69327">
        <ele>715.20001220703</ele>
        <time>2013-05-11T15:07:23Z</time>
      </trkpt>
      <trkpt lat="44.45322" lon="5.69326">
        <ele>715.20001220703</ele>
        <time>2013-05-11T15:07:36Z</time>
      </trkpt>
      <trkpt lat="44.4534" lon="5.69333">
        <ele>715.20001220703</ele>
        <time>2013-05-11T15:08:27Z</time>
      </trkpt>
      <trkpt lat="44.45358" lon="5.69335">
        <ele>715.20001220703</ele>
        <time>2013-05-11T15:08:54Z</time>
      </trkpt>
      <trkpt lat="44.45365" lon="5.69333">
        <ele>715.20001220703</ele>
        <time>2013-05-11T15:09:02Z</time>
      </trkpt>
      <trkpt lat="44.45372" lon="5.69327">
        <ele>715.20001220703</ele>
        <time>2013-05-11T15:09:11Z</time>
      </trkpt>
      <trkpt lat="44.45371" lon="5.69319">
        <ele>715.20001220703</ele>
        <time>2013-05-11T15:09:18Z</time>
      </trkpt>
      <trkpt lat="44.45364" lon="5.69314">
        <ele>715.59997558594</ele>
        <time>2013-05-11T15:09:25Z</time>
      </trkpt>
      <trkpt lat="44.45358" lon="5.69309">
        <ele>717.20001220703</ele>
        <time>2013-05-11T15:09:35Z</time>
      </trkpt>
      <trkpt lat="44.4535" lon="5.69306">
        <ele>719.40002441406</ele>
        <time>2013-05-11T15:09:47Z</time>
      </trkpt>
      <trkpt lat="44.45351" lon="5.69301">
        <ele>719.79998779297</ele>
        <time>2013-05-11T15:09:57Z</time>
      </trkpt>
      <trkpt lat="44.45353" lon="5.69299">
        <ele>720.59997558594</ele>
        <time>2013-05-11T15:09:59Z</time>
      </trkpt>
      <trkpt lat="44.45362" lon="5.69288">
        <ele>722</ele>
        <time>2013-05-11T15:10:12Z</time>
      </trkpt>
      <trkpt lat="44.45368" lon="5.69277">
        <ele>723.59997558594</ele>
        <time>2013-05-11T15:10:24Z</time>
      </trkpt>
      <trkpt lat="44.4537" lon="5.69275">
        <ele>725</ele>
        <time>2013-05-11T15:10:27Z</time>
      </trkpt>
      <trkpt lat="44.45377" lon="5.69264">
        <ele>726.20001220703</ele>
        <time>2013-05-11T15:10:38Z</time>
      </trkpt>
      <trkpt lat="44.4538" lon="5.69259">
        <ele>728</ele>
        <time>2013-05-11T15:10:42Z</time>
      </trkpt>
      <trkpt lat="44.45385" lon="5.69249">
        <ele>728</ele>
        <time>2013-05-11T15:10:51Z</time>
      </trkpt>
      <trkpt lat="44.4539" lon="5.69239">
        <ele>728</ele>
        <time>2013-05-11T15:11:02Z</time>
      </trkpt>
      <trkpt lat="44.45394" lon="5.69237">
        <ele>728.40002441406</ele>
        <time>2013-05-11T15:11:06Z</time>
      </trkpt>
      <trkpt lat="44.45399" lon="5.69227">
        <ele>730</ele>
        <time>2013-05-11T15:11:14Z</time>
      </trkpt>
      <trkpt lat="44.45402" lon="5.69216">
        <ele>731</ele>
        <time>2013-05-11T15:11:21Z</time>
      </trkpt>
      <trkpt lat="44.45404" lon="5.69209">
        <ele>732.59997558594</ele>
        <time>2013-05-11T15:11:25Z</time>
      </trkpt>
      <trkpt lat="44.45408" lon="5.69194">
        <ele>732.59997558594</ele>
        <time>2013-05-11T15:11:36Z</time>
      </trkpt>
      <trkpt lat="44.45411" lon="5.69185">
        <ele>732.59997558594</ele>
        <time>2013-05-11T15:11:44Z</time>
      </trkpt>
      <trkpt lat="44.45414" lon="5.6918">
        <ele>733</ele>
        <time>2013-05-11T15:11:47Z</time>
      </trkpt>
      <trkpt lat="44.4542" lon="5.69162">
        <ele>735</ele>
        <time>2013-05-11T15:12:00Z</time>
      </trkpt>
      <trkpt lat="44.45421" lon="5.69159">
        <ele>735.59997558594</ele>
        <time>2013-05-11T15:12:03Z</time>
      </trkpt>
      <trkpt lat="44.45427" lon="5.69149">
        <ele>737.59997558594</ele>
        <time>2013-05-11T15:12:10Z</time>
      </trkpt>
      <trkpt lat="44.45416" lon="5.69143">
        <ele>737.59997558594</ele>
        <time>2013-05-11T15:12:33Z</time>
      </trkpt>
      <trkpt lat="44.45411" lon="5.69151">
        <ele>739.40002441406</ele>
        <time>2013-05-11T15:12:39Z</time>
      </trkpt>
      <trkpt lat="44.45409" lon="5.69152">
        <ele>739.79998779297</ele>
        <time>2013-05-11T15:12:40Z</time>
      </trkpt>
      <trkpt lat="44.45396" lon="5.69167">
        <ele>740.40002441406</ele>
        <time>2013-05-11T15:12:53Z</time>
      </trkpt>
      <trkpt lat="44.4539" lon="5.6917">
        <ele>741.20001220703</ele>
        <time>2013-05-11T15:12:57Z</time>
      </trkpt>
      <trkpt lat="44.45388" lon="5.69172">
        <ele>741.59997558594</ele>
        <time>2013-05-11T15:12:59Z</time>
      </trkpt>
      <trkpt lat="44.45378" lon="5.69182">
        <ele>742.40002441406</ele>
        <time>2013-05-11T15:13:07Z</time>
      </trkpt>
      <trkpt lat="44.45371" lon="5.69192">
        <ele>744.40002441406</ele>
        <time>2013-05-11T15:13:16Z</time>
      </trkpt>
      <trkpt lat="44.4537" lon="5.69194">
        <ele>744.79998779297</ele>
        <time>2013-05-11T15:13:17Z</time>
      </trkpt>
      <trkpt lat="44.45365" lon="5.69207">
        <ele>746.20001220703</ele>
        <time>2013-05-11T15:13:27Z</time>
      </trkpt>
      <trkpt lat="44.45364" lon="5.69212">
        <ele>746.59997558594</ele>
        <time>2013-05-11T15:13:31Z</time>
      </trkpt>
      <trkpt lat="44.45358" lon="5.69226">
        <ele>748.79998779297</ele>
        <time>2013-05-11T15:13:43Z</time>
      </trkpt>
      <trkpt lat="44.45356" lon="5.6923">
        <ele>750.40002441406</ele>
        <time>2013-05-11T15:13:48Z</time>
      </trkpt>
      <trkpt lat="44.45347" lon="5.69238">
        <ele>751.20001220703</ele>
        <time>2013-05-11T15:13:56Z</time>
      </trkpt>
      <trkpt lat="44.45343" lon="5.69241">
        <ele>752.20001220703</ele>
        <time>2013-05-11T15:13:58Z</time>
      </trkpt>
      <trkpt lat="44.45339" lon="5.69242">
        <ele>752.59997558594</ele>
        <time>2013-05-11T15:14:00Z</time>
      </trkpt>
      <trkpt lat="44.45329" lon="5.69249">
        <ele>753.40002441406</ele>
        <time>2013-05-11T15:14:08Z</time>
      </trkpt>
      <trkpt lat="44.45327" lon="5.6925">
        <ele>754.59997558594</ele>
        <time>2013-05-11T15:14:10Z</time>
      </trkpt>
      <trkpt lat="44.45319" lon="5.69254">
        <ele>755</ele>
        <time>2013-05-11T15:14:18Z</time>
      </trkpt>
      <trkpt lat="44.45309" lon="5.69261">
        <ele>756.59997558594</ele>
        <time>2013-05-11T15:14:28Z</time>
      </trkpt>
      <trkpt lat="44.45298" lon="5.69271">
        <ele>758.59997558594</ele>
        <time>2013-05-11T15:14:37Z</time>
      </trkpt>
      <trkpt lat="44.45288" lon="5.69278">
        <ele>758.59997558594</ele>
        <time>2013-05-11T15:14:46Z</time>
      </trkpt>
      <trkpt lat="44.4528" lon="5.69282">
        <ele>758.59997558594</ele>
        <time>2013-05-11T15:14:54Z</time>
      </trkpt>
      <trkpt lat="44.45267" lon="5.69288">
        <ele>760.79998779297</ele>
        <time>2013-05-11T15:15:05Z</time>
      </trkpt>
      <trkpt lat="44.45258" lon="5.69289">
        <ele>761.59997558594</ele>
        <time>2013-05-11T15:15:11Z</time>
      </trkpt>
      <trkpt lat="44.45255" lon="5.6929">
        <ele>762.79998779297</ele>
        <time>2013-05-11T15:15:14Z</time>
      </trkpt>
      <trkpt lat="44.45247" lon="5.69292">
        <ele>762.79998779297</ele>
        <time>2013-05-11T15:15:20Z</time>
      </trkpt>
      <trkpt lat="44.45239" lon="5.69294">
        <ele>764.59997558594</ele>
        <time>2013-05-11T15:15:25Z</time>
      </trkpt>
      <trkpt lat="44.45226" lon="5.6929">
        <ele>765</ele>
        <time>2013-05-11T15:15:31Z</time>
      </trkpt>
      <trkpt lat="44.45212" lon="5.69292">
        <ele>765</ele>
        <time>2013-05-11T15:15:40Z</time>
      </trkpt>
      <trkpt lat="44.45205" lon="5.69295">
        <ele>765.40002441406</ele>
        <time>2013-05-11T15:15:46Z</time>
      </trkpt>
      <trkpt lat="44.45199" lon="5.69297">
        <ele>766.20001220703</ele>
        <time>2013-05-11T15:15:49Z</time>
      </trkpt>
      <trkpt lat="44.45191" lon="5.69303">
        <ele>767.20001220703</ele>
        <time>2013-05-11T15:15:56Z</time>
      </trkpt>
      <trkpt lat="44.45181" lon="5.6931">
        <ele>767.20001220703</ele>
        <time>2013-05-11T15:16:03Z</time>
      </trkpt>
      <trkpt lat="44.45177" lon="5.69312">
        <ele>767.59997558594</ele>
        <time>2013-05-11T15:16:05Z</time>
      </trkpt>
      <trkpt lat="44.45158" lon="5.69322">
        <ele>769.20001220703</ele>
        <time>2013-05-11T15:16:18Z</time>
      </trkpt>
      <trkpt lat="44.45148" lon="5.69328">
        <ele>769.20001220703</ele>
        <time>2013-05-11T15:16:25Z</time>
      </trkpt>
      <trkpt lat="44.45138" lon="5.6933">
        <ele>771.40002441406</ele>
        <time>2013-05-11T15:16:31Z</time>
      </trkpt>
      <trkpt lat="44.45124" lon="5.69334">
        <ele>771.40002441406</ele>
        <time>2013-05-11T15:16:38Z</time>
      </trkpt>
      <trkpt lat="44.4512" lon="5.69335">
        <ele>772.59997558594</ele>
        <time>2013-05-11T15:16:40Z</time>
      </trkpt>
      <trkpt lat="44.45108" lon="5.6934">
        <ele>773.40002441406</ele>
        <time>2013-05-11T15:16:47Z</time>
      </trkpt>
      <trkpt lat="44.45094" lon="5.69343">
        <ele>773.40002441406</ele>
        <time>2013-05-11T15:16:54Z</time>
      </trkpt>
      <trkpt lat="44.45088" lon="5.69343">
        <ele>774.20001220703</ele>
        <time>2013-05-11T15:16:57Z</time>
      </trkpt>
      <trkpt lat="44.45079" lon="5.69346">
        <ele>775.59997558594</ele>
        <time>2013-05-11T15:17:03Z</time>
      </trkpt>
      <trkpt lat="44.45074" lon="5.69353">
        <ele>775.59997558594</ele>
        <time>2013-05-11T15:17:10Z</time>
      </trkpt>
      <trkpt lat="44.45069" lon="5.69355">
        <ele>776</ele>
        <time>2013-05-11T15:17:13Z</time>
      </trkpt>
      <trkpt lat="44.45045" lon="5.69364">
        <ele>778.20001220703</ele>
        <time>2013-05-11T15:17:27Z</time>
      </trkpt>
      <trkpt lat="44.45049" lon="5.69372">
        <ele>780</ele>
        <time>2013-05-11T15:17:34Z</time>
      </trkpt>
      <trkpt lat="44.45039" lon="5.69377">
        <ele>780</ele>
        <time>2013-05-11T15:17:41Z</time>
      </trkpt>
      <trkpt lat="44.45033" lon="5.69381">
        <ele>780.79998779297</ele>
        <time>2013-05-11T15:17:46Z</time>
      </trkpt>
      <trkpt lat="44.4503" lon="5.69383">
        <ele>781.59997558594</ele>
        <time>2013-05-11T15:17:48Z</time>
      </trkpt>
      <trkpt lat="44.45024" lon="5.69394">
        <ele>782</ele>
        <time>2013-05-11T15:17:57Z</time>
      </trkpt>
      <trkpt lat="44.45019" lon="5.69398">
        <ele>784.40002441406</ele>
        <time>2013-05-11T15:18:03Z</time>
      </trkpt>
      <trkpt lat="44.45012" lon="5.69403">
        <ele>785.20001220703</ele>
        <time>2013-05-11T15:18:10Z</time>
      </trkpt>
      <trkpt lat="44.45008" lon="5.69405">
        <ele>786</ele>
        <time>2013-05-11T15:18:12Z</time>
      </trkpt>
      <trkpt lat="44.44998" lon="5.69411">
        <ele>786.59997558594</ele>
        <time>2013-05-11T15:18:21Z</time>
      </trkpt>
      <trkpt lat="44.44987" lon="5.69412">
        <ele>787.79998779297</ele>
        <time>2013-05-11T15:18:29Z</time>
      </trkpt>
      <trkpt lat="44.44979" lon="5.69418">
        <ele>788.59997558594</ele>
        <time>2013-05-11T15:18:36Z</time>
      </trkpt>
      <trkpt lat="44.44969" lon="5.6942">
        <ele>789</ele>
        <time>2013-05-11T15:18:41Z</time>
      </trkpt>
      <trkpt lat="44.44967" lon="5.69422">
        <ele>789.40002441406</ele>
        <time>2013-05-11T15:18:43Z</time>
      </trkpt>
      <trkpt lat="44.44958" lon="5.69428">
        <ele>790.79998779297</ele>
        <time>2013-05-11T15:18:51Z</time>
      </trkpt>
      <trkpt lat="44.44954" lon="5.69432">
        <ele>792</ele>
        <time>2013-05-11T15:18:56Z</time>
      </trkpt>
      <trkpt lat="44.44945" lon="5.69434">
        <ele>792.79998779297</ele>
        <time>2013-05-11T15:19:02Z</time>
      </trkpt>
      <trkpt lat="44.44934" lon="5.69442">
        <ele>792.79998779297</ele>
        <time>2013-05-11T15:19:15Z</time>
      </trkpt>
      <trkpt lat="44.44927" lon="5.69447">
        <ele>792.79998779297</ele>
        <time>2013-05-11T15:19:19Z</time>
      </trkpt>
      <trkpt lat="44.44924" lon="5.69451">
        <ele>792.79998779297</ele>
        <time>2013-05-11T15:19:22Z</time>
      </trkpt>
      <trkpt lat="44.44919" lon="5.69452">
        <ele>794.20001220703</ele>
        <time>2013-05-11T15:19:24Z</time>
      </trkpt>
      <trkpt lat="44.44909" lon="5.69464">
        <ele>795</ele>
        <time>2013-05-11T15:19:37Z</time>
      </trkpt>
      <trkpt lat="44.44906" lon="5.6947">
        <ele>796.40002441406</ele>
        <time>2013-05-11T15:19:44Z</time>
      </trkpt>
      <trkpt lat="44.44899" lon="5.69473">
        <ele>797.20001220703</ele>
        <time>2013-05-11T15:19:47Z</time>
      </trkpt>
      <trkpt lat="44.44893" lon="5.6948">
        <ele>798</ele>
        <time>2013-05-11T15:19:53Z</time>
      </trkpt>
      <trkpt lat="44.44889" lon="5.69485">
        <ele>799.20001220703</ele>
        <time>2013-05-11T15:19:56Z</time>
      </trkpt>
      <trkpt lat="44.44883" lon="5.69494">
        <ele>799.59997558594</ele>
        <time>2013-05-11T15:20:03Z</time>
      </trkpt>
      <trkpt lat="44.4488" lon="5.69499">
        <ele>801.40002441406</ele>
        <time>2013-05-11T15:20:07Z</time>
      </trkpt>
      <trkpt lat="44.44873" lon="5.69509">
        <ele>801.40002441406</ele>
        <time>2013-05-11T15:20:14Z</time>
      </trkpt>
      <trkpt lat="44.44867" lon="5.69517">
        <ele>801.79998779297</ele>
        <time>2013-05-11T15:20:20Z</time>
      </trkpt>
      <trkpt lat="44.44863" lon="5.69522">
        <ele>803.59997558594</ele>
        <time>2013-05-11T15:20:25Z</time>
      </trkpt>
      <trkpt lat="44.44865" lon="5.69532">
        <ele>804.20001220703</ele>
        <time>2013-05-11T15:20:31Z</time>
      </trkpt>
      <trkpt lat="44.44859" lon="5.69537">
        <ele>806</ele>
        <time>2013-05-11T15:20:35Z</time>
      </trkpt>
      <trkpt lat="44.44847" lon="5.69543">
        <ele>806</ele>
        <time>2013-05-11T15:20:42Z</time>
      </trkpt>
      <trkpt lat="44.44815" lon="5.69549">
        <ele>806.40002441406</ele>
        <time>2013-05-11T15:20:50Z</time>
      </trkpt>
      <trkpt lat="44.44809" lon="5.6955">
        <ele>807.59997558594</ele>
        <time>2013-05-11T15:20:54Z</time>
      </trkpt>
      <trkpt lat="44.44798" lon="5.69547">
        <ele>808.40002441406</ele>
        <time>2013-05-11T15:21:03Z</time>
      </trkpt>
      <trkpt lat="44.44791" lon="5.69532">
        <ele>810</ele>
        <time>2013-05-11T15:21:14Z</time>
      </trkpt>
      <trkpt lat="44.44795" lon="5.69522">
        <ele>810.59997558594</ele>
        <time>2013-05-11T15:21:20Z</time>
      </trkpt>
      <trkpt lat="44.44796" lon="5.69519">
        <ele>811.40002441406</ele>
        <time>2013-05-11T15:21:22Z</time>
      </trkpt>
      <trkpt lat="44.44802" lon="5.69501">
        <ele>812.40002441406</ele>
        <time>2013-05-11T15:21:32Z</time>
      </trkpt>
      <trkpt lat="44.44806" lon="5.69492">
        <ele>812.40002441406</ele>
        <time>2013-05-11T15:21:38Z</time>
      </trkpt>
      <trkpt lat="44.44808" lon="5.69489">
        <ele>812.79998779297</ele>
        <time>2013-05-11T15:21:40Z</time>
      </trkpt>
      <trkpt lat="44.44811" lon="5.69485">
        <ele>814.20001220703</ele>
        <time>2013-05-11T15:21:43Z</time>
      </trkpt>
      <trkpt lat="44.4482" lon="5.69478">
        <ele>814.59997558594</ele>
        <time>2013-05-11T15:21:49Z</time>
      </trkpt>
      <trkpt lat="44.44821" lon="5.69478">
        <ele>815</ele>
        <time>2013-05-11T15:21:50Z</time>
      </trkpt>
      <trkpt lat="44.44839" lon="5.69464">
        <ele>816.79998779297</ele>
        <time>2013-05-11T15:22:04Z</time>
      </trkpt>
      <trkpt lat="44.44845" lon="5.69457">
        <ele>817.20001220703</ele>
        <time>2013-05-11T15:22:10Z</time>
      </trkpt>
      <trkpt lat="44.44855" lon="5.69446">
        <ele>818.79998779297</ele>
        <time>2013-05-11T15:22:21Z</time>
      </trkpt>
      <trkpt lat="44.44859" lon="5.69438">
        <ele>821.20001220703</ele>
        <time>2013-05-11T15:22:26Z</time>
      </trkpt>
      <trkpt lat="44.44861" lon="5.69434">
        <ele>821.20001220703</ele>
        <time>2013-05-11T15:22:28Z</time>
      </trkpt>
      <trkpt lat="44.44864" lon="5.69416">
        <ele>821.20001220703</ele>
        <time>2013-05-11T15:22:36Z</time>
      </trkpt>
      <trkpt lat="44.44864" lon="5.69409">
        <ele>821.20001220703</ele>
        <time>2013-05-11T15:22:40Z</time>
      </trkpt>
      <trkpt lat="44.44867" lon="5.69398">
        <ele>823.40002441406</ele>
        <time>2013-05-11T15:22:48Z</time>
      </trkpt>
      <trkpt lat="44.44874" lon="5.69387">
        <ele>823.79998779297</ele>
        <time>2013-05-11T15:22:57Z</time>
      </trkpt>
      <trkpt lat="44.4488" lon="5.69373">
        <ele>825.59997558594</ele>
        <time>2013-05-11T15:23:07Z</time>
      </trkpt>
      <trkpt lat="44.44882" lon="5.69369">
        <ele>826</ele>
        <time>2013-05-11T15:23:10Z</time>
      </trkpt>
      <trkpt lat="44.44886" lon="5.69356">
        <ele>827.59997558594</ele>
        <time>2013-05-11T15:23:20Z</time>
      </trkpt>
      <trkpt lat="44.44894" lon="5.69341">
        <ele>828</ele>
        <time>2013-05-11T15:23:28Z</time>
      </trkpt>
      <trkpt lat="44.44895" lon="5.69339">
        <ele>828.40002441406</ele>
        <time>2013-05-11T15:23:29Z</time>
      </trkpt>
      <trkpt lat="44.44902" lon="5.69328">
        <ele>829.59997558594</ele>
        <time>2013-05-11T15:23:37Z</time>
      </trkpt>
      <trkpt lat="44.44905" lon="5.69314">
        <ele>830</ele>
        <time>2013-05-11T15:23:46Z</time>
      </trkpt>
      <trkpt lat="44.44906" lon="5.69308">
        <ele>831.40002441406</ele>
        <time>2013-05-11T15:23:49Z</time>
      </trkpt>
      <trkpt lat="44.4491" lon="5.69291">
        <ele>831.79998779297</ele>
        <time>2013-05-11T15:24:03Z</time>
      </trkpt>
      <trkpt lat="44.44912" lon="5.69284">
        <ele>832.20001220703</ele>
        <time>2013-05-11T15:24:07Z</time>
      </trkpt>
      <trkpt lat="44.44913" lon="5.6928">
        <ele>833.40002441406</ele>
        <time>2013-05-11T15:24:10Z</time>
      </trkpt>
      <trkpt lat="44.44921" lon="5.69266">
        <ele>833.79998779297</ele>
        <time>2013-05-11T15:24:22Z</time>
      </trkpt>
      <trkpt lat="44.44924" lon="5.69258">
        <ele>834.59997558594</ele>
        <time>2013-05-11T15:24:27Z</time>
      </trkpt>
      <trkpt lat="44.44928" lon="5.69248">
        <ele>836</ele>
        <time>2013-05-11T15:24:33Z</time>
      </trkpt>
      <trkpt lat="44.44931" lon="5.69235">
        <ele>836.40002441406</ele>
        <time>2013-05-11T15:24:41Z</time>
      </trkpt>
      <trkpt lat="44.44933" lon="5.6923">
        <ele>837.59997558594</ele>
        <time>2013-05-11T15:24:44Z</time>
      </trkpt>
      <trkpt lat="44.44937" lon="5.69215">
        <ele>838.40002441406</ele>
        <time>2013-05-11T15:24:54Z</time>
      </trkpt>
      <trkpt lat="44.44938" lon="5.6921">
        <ele>839.59997558594</ele>
        <time>2013-05-11T15:24:57Z</time>
      </trkpt>
      <trkpt lat="44.44941" lon="5.69194">
        <ele>840.40002441406</ele>
        <time>2013-05-11T15:25:07Z</time>
      </trkpt>
      <trkpt lat="44.44942" lon="5.69189">
        <ele>842</ele>
        <time>2013-05-11T15:25:11Z</time>
      </trkpt>
      <trkpt lat="44.44947" lon="5.69171">
        <ele>842</ele>
        <time>2013-05-11T15:25:23Z</time>
      </trkpt>
      <trkpt lat="44.44948" lon="5.69166">
        <ele>842.59997558594</ele>
        <time>2013-05-11T15:25:25Z</time>
      </trkpt>
      <trkpt lat="44.4495" lon="5.69161">
        <ele>844.20001220703</ele>
        <time>2013-05-11T15:25:29Z</time>
      </trkpt>
      <trkpt lat="44.44954" lon="5.69152">
        <ele>844.20001220703</ele>
        <time>2013-05-11T15:25:34Z</time>
      </trkpt>
      <trkpt lat="44.44957" lon="5.69144">
        <ele>844.59997558594</ele>
        <time>2013-05-11T15:25:40Z</time>
      </trkpt>
      <trkpt lat="44.44958" lon="5.69139">
        <ele>845.79998779297</ele>
        <time>2013-05-11T15:25:44Z</time>
      </trkpt>
      <trkpt lat="44.44966" lon="5.69131">
        <ele>846.20001220703</ele>
        <time>2013-05-11T15:25:53Z</time>
      </trkpt>
      <trkpt lat="44.4497" lon="5.69128">
        <ele>846.79998779297</ele>
        <time>2013-05-11T15:25:57Z</time>
      </trkpt>
      <trkpt lat="44.4497" lon="5.69126">
        <ele>847.20001220703</ele>
        <time>2013-05-11T15:25:58Z</time>
      </trkpt>
      <trkpt lat="44.44972" lon="5.6912">
        <ele>848.40002441406</ele>
        <time>2013-05-11T15:26:01Z</time>
      </trkpt>
      <trkpt lat="44.44976" lon="5.69105">
        <ele>848.79998779297</ele>
        <time>2013-05-11T15:26:10Z</time>
      </trkpt>
      <trkpt lat="44.44978" lon="5.69099">
        <ele>850.59997558594</ele>
        <time>2013-05-11T15:26:14Z</time>
      </trkpt>
      <trkpt lat="44.44982" lon="5.69086">
        <ele>850.59997558594</ele>
        <time>2013-05-11T15:26:22Z</time>
      </trkpt>
      <trkpt lat="44.44986" lon="5.69072">
        <ele>851</ele>
        <time>2013-05-11T15:26:30Z</time>
      </trkpt>
      <trkpt lat="44.44988" lon="5.69066">
        <ele>852.59997558594</ele>
        <time>2013-05-11T15:26:33Z</time>
      </trkpt>
      <trkpt lat="44.44991" lon="5.69052">
        <ele>853</ele>
        <time>2013-05-11T15:26:42Z</time>
      </trkpt>
      <trkpt lat="44.44991" lon="5.69047">
        <ele>853.40002441406</ele>
        <time>2013-05-11T15:26:45Z</time>
      </trkpt>
      <trkpt lat="44.44991" lon="5.69035">
        <ele>855</ele>
        <time>2013-05-11T15:26:52Z</time>
      </trkpt>
      <trkpt lat="44.44989" lon="5.6903">
        <ele>855</ele>
        <time>2013-05-11T15:26:55Z</time>
      </trkpt>
      <trkpt lat="44.44988" lon="5.69023">
        <ele>855</ele>
        <time>2013-05-11T15:26:59Z</time>
      </trkpt>
      <trkpt lat="44.44987" lon="5.6902">
        <ele>855.79998779297</ele>
        <time>2013-05-11T15:27:01Z</time>
      </trkpt>
      <trkpt lat="44.44983" lon="5.69009">
        <ele>857.20001220703</ele>
        <time>2013-05-11T15:27:08Z</time>
      </trkpt>
      <trkpt lat="44.44975" lon="5.68998">
        <ele>857.20001220703</ele>
        <time>2013-05-11T15:27:15Z</time>
      </trkpt>
      <trkpt lat="44.4497" lon="5.68993">
        <ele>857.59997558594</ele>
        <time>2013-05-11T15:27:19Z</time>
      </trkpt>
      <trkpt lat="44.44966" lon="5.6899">
        <ele>858.79998779297</ele>
        <time>2013-05-11T15:27:23Z</time>
      </trkpt>
      <trkpt lat="44.44954" lon="5.68984">
        <ele>859.59997558594</ele>
        <time>2013-05-11T15:27:34Z</time>
      </trkpt>
      <trkpt lat="44.44949" lon="5.68984">
        <ele>861.20001220703</ele>
        <time>2013-05-11T15:27:38Z</time>
      </trkpt>
      <trkpt lat="44.44936" lon="5.68982">
        <ele>861.20001220703</ele>
        <time>2013-05-11T15:27:51Z</time>
      </trkpt>
      <trkpt lat="44.44934" lon="5.68979">
        <ele>862</ele>
        <time>2013-05-11T15:27:53Z</time>
      </trkpt>
      <trkpt lat="44.44935" lon="5.68962">
        <ele>863.79998779297</ele>
        <time>2013-05-11T15:28:06Z</time>
      </trkpt>
      <trkpt lat="44.44936" lon="5.68958">
        <ele>865</ele>
        <time>2013-05-11T15:28:09Z</time>
      </trkpt>
      <trkpt lat="44.44936" lon="5.6894">
        <ele>865.40002441406</ele>
        <time>2013-05-11T15:28:19Z</time>
      </trkpt>
      <trkpt lat="44.44938" lon="5.68927">
        <ele>866</ele>
        <time>2013-05-11T15:28:26Z</time>
      </trkpt>
      <trkpt lat="44.44946" lon="5.68905">
        <ele>867.59997558594</ele>
        <time>2013-05-11T15:28:39Z</time>
      </trkpt>
      <trkpt lat="44.44951" lon="5.68898">
        <ele>868</ele>
        <time>2013-05-11T15:28:44Z</time>
      </trkpt>
      <trkpt lat="44.44961" lon="5.68876">
        <ele>869.59997558594</ele>
        <time>2013-05-11T15:28:57Z</time>
      </trkpt>
      <trkpt lat="44.44963" lon="5.68857">
        <ele>869.59997558594</ele>
        <time>2013-05-11T15:29:05Z</time>
      </trkpt>
      <trkpt lat="44.44962" lon="5.68833">
        <ele>869.59997558594</ele>
        <time>2013-05-11T15:29:14Z</time>
      </trkpt>
      <trkpt lat="44.44965" lon="5.68808">
        <ele>869.59997558594</ele>
        <time>2013-05-11T15:29:24Z</time>
      </trkpt>
      <trkpt lat="44.44971" lon="5.68788">
        <ele>869.59997558594</ele>
        <time>2013-05-11T15:29:32Z</time>
      </trkpt>
      <trkpt lat="44.44976" lon="5.68778">
        <ele>871.20001220703</ele>
        <time>2013-05-11T15:29:37Z</time>
      </trkpt>
      <trkpt lat="44.44979" lon="5.68768">
        <ele>873.20001220703</ele>
        <time>2013-05-11T15:29:42Z</time>
      </trkpt>
      <trkpt lat="44.44981" lon="5.68763">
        <ele>874.20001220703</ele>
        <time>2013-05-11T15:29:44Z</time>
      </trkpt>
      <trkpt lat="44.44985" lon="5.68751">
        <ele>874.59997558594</ele>
        <time>2013-05-11T15:29:50Z</time>
      </trkpt>
      <trkpt lat="44.44986" lon="5.6875">
        <ele>874.59997558594</ele>
        <time>2013-05-11T15:29:51Z</time>
      </trkpt>
      <trkpt lat="44.44993" lon="5.68732">
        <ele>876.20001220703</ele>
        <time>2013-05-11T15:30:01Z</time>
      </trkpt>
      <trkpt lat="44.45" lon="5.68716">
        <ele>877.20001220703</ele>
        <time>2013-05-11T15:30:12Z</time>
      </trkpt>
      <trkpt lat="44.45006" lon="5.68704">
        <ele>878.79998779297</ele>
        <time>2013-05-11T15:30:20Z</time>
      </trkpt>
      <trkpt lat="44.45009" lon="5.68699">
        <ele>880.79998779297</ele>
        <time>2013-05-11T15:30:24Z</time>
      </trkpt>
      <trkpt lat="44.45016" lon="5.68683">
        <ele>881.20001220703</ele>
        <time>2013-05-11T15:30:35Z</time>
      </trkpt>
      <trkpt lat="44.45018" lon="5.68679">
        <ele>882.59997558594</ele>
        <time>2013-05-11T15:30:38Z</time>
      </trkpt>
      <trkpt lat="44.45022" lon="5.68668">
        <ele>883</ele>
        <time>2013-05-11T15:30:49Z</time>
      </trkpt>
      <trkpt lat="44.45026" lon="5.68656">
        <ele>885</ele>
        <time>2013-05-11T15:30:59Z</time>
      </trkpt>
      <trkpt lat="44.45027" lon="5.68648">
        <ele>886</ele>
        <time>2013-05-11T15:31:04Z</time>
      </trkpt>
      <trkpt lat="44.45027" lon="5.68638">
        <ele>887.40002441406</ele>
        <time>2013-05-11T15:31:11Z</time>
      </trkpt>
      <trkpt lat="44.45025" lon="5.68623">
        <ele>887.79998779297</ele>
        <time>2013-05-11T15:31:29Z</time>
      </trkpt>
      <trkpt lat="44.45021" lon="5.68609">
        <ele>889.40002441406</ele>
        <time>2013-05-11T15:31:44Z</time>
      </trkpt>
      <trkpt lat="44.4502" lon="5.68604">
        <ele>891.59997558594</ele>
        <time>2013-05-11T15:31:49Z</time>
      </trkpt>
      <trkpt lat="44.45018" lon="5.68597">
        <ele>892</ele>
        <time>2013-05-11T15:31:56Z</time>
      </trkpt>
      <trkpt lat="44.45015" lon="5.68581">
        <ele>894</ele>
        <time>2013-05-11T15:32:11Z</time>
      </trkpt>
      <trkpt lat="44.45015" lon="5.6857">
        <ele>894</ele>
        <time>2013-05-11T15:32:21Z</time>
      </trkpt>
      <trkpt lat="44.45014" lon="5.68556">
        <ele>894</ele>
        <time>2013-05-11T15:32:28Z</time>
      </trkpt>
      <trkpt lat="44.45014" lon="5.6854">
        <ele>894</ele>
        <time>2013-05-11T15:32:35Z</time>
      </trkpt>
      <trkpt lat="44.45008" lon="5.68527">
        <ele>894</ele>
        <time>2013-05-11T15:32:42Z</time>
      </trkpt>
      <trkpt lat="44.45002" lon="5.68511">
        <ele>894</ele>
        <time>2013-05-11T15:32:48Z</time>
      </trkpt>
      <trkpt lat="44.44996" lon="5.68493">
        <ele>894</ele>
        <time>2013-05-11T15:32:55Z</time>
      </trkpt>
      <trkpt lat="44.44995" lon="5.68485">
        <ele>894.40002441406</ele>
        <time>2013-05-11T15:32:58Z</time>
      </trkpt>
      <trkpt lat="44.44993" lon="5.68479">
        <ele>895.20001220703</ele>
        <time>2013-05-11T15:33:01Z</time>
      </trkpt>
      <trkpt lat="44.44977" lon="5.68448">
        <ele>896</ele>
        <time>2013-05-11T15:33:13Z</time>
      </trkpt>
      <trkpt lat="44.44961" lon="5.68441">
        <ele>896</ele>
        <time>2013-05-11T15:33:19Z</time>
      </trkpt>
      <trkpt lat="44.44946" lon="5.68433">
        <ele>896</ele>
        <time>2013-05-11T15:33:27Z</time>
      </trkpt>
      <trkpt lat="44.44933" lon="5.68426">
        <ele>896</ele>
        <time>2013-05-11T15:33:33Z</time>
      </trkpt>
      <trkpt lat="44.44923" lon="5.68423">
        <ele>896</ele>
        <time>2013-05-11T15:33:41Z</time>
      </trkpt>
      <trkpt lat="44.44918" lon="5.68414">
        <ele>896.59997558594</ele>
        <time>2013-05-11T15:33:47Z</time>
      </trkpt>
      <trkpt lat="44.44912" lon="5.684">
        <ele>898.40002441406</ele>
        <time>2013-05-11T15:33:57Z</time>
      </trkpt>
      <trkpt lat="44.4491" lon="5.68396">
        <ele>898.40002441406</ele>
        <time>2013-05-11T15:34:03Z</time>
      </trkpt>
      <trkpt lat="44.44909" lon="5.68389">
        <ele>900.40002441406</ele>
        <time>2013-05-11T15:34:09Z</time>
      </trkpt>
      <trkpt lat="44.44904" lon="5.68379">
        <ele>902</ele>
        <time>2013-05-11T15:34:24Z</time>
      </trkpt>
      <trkpt lat="44.44898" lon="5.68374">
        <ele>903</ele>
        <time>2013-05-11T15:34:36Z</time>
      </trkpt>
      <trkpt lat="44.4489" lon="5.68368">
        <ele>905.20001220703</ele>
        <time>2013-05-11T15:34:50Z</time>
      </trkpt>
      <trkpt lat="44.44889" lon="5.68368">
        <ele>905.59997558594</ele>
        <time>2013-05-11T15:34:51Z</time>
      </trkpt>
      <trkpt lat="44.44873" lon="5.68366">
        <ele>907.20001220703</ele>
        <time>2013-05-11T15:35:13Z</time>
      </trkpt>
      <trkpt lat="44.44866" lon="5.68364">
        <ele>909</ele>
        <time>2013-05-11T15:35:22Z</time>
      </trkpt>
      <trkpt lat="44.44859" lon="5.68365">
        <ele>910.79998779297</ele>
        <time>2013-05-11T15:35:33Z</time>
      </trkpt>
      <trkpt lat="44.44854" lon="5.6837">
        <ele>913.59997558594</ele>
        <time>2013-05-11T15:35:47Z</time>
      </trkpt>
      <trkpt lat="44.44849" lon="5.68377">
        <ele>914</ele>
        <time>2013-05-11T15:35:57Z</time>
      </trkpt>
      <trkpt lat="44.44845" lon="5.68385">
        <ele>916</ele>
        <time>2013-05-11T15:36:09Z</time>
      </trkpt>
      <trkpt lat="44.44841" lon="5.68392">
        <ele>917.79998779297</ele>
        <time>2013-05-11T15:36:18Z</time>
      </trkpt>
      <trkpt lat="44.44839" lon="5.68396">
        <ele>918.59997558594</ele>
        <time>2013-05-11T15:36:23Z</time>
      </trkpt>
      <trkpt lat="44.44834" lon="5.68407">
        <ele>920</ele>
        <time>2013-05-11T15:36:37Z</time>
      </trkpt>
      <trkpt lat="44.44831" lon="5.6841">
        <ele>920.40002441406</ele>
        <time>2013-05-11T15:36:41Z</time>
      </trkpt>
      <trkpt lat="44.4483" lon="5.68411">
        <ele>921.79998779297</ele>
        <time>2013-05-11T15:36:43Z</time>
      </trkpt>
      <trkpt lat="44.44816" lon="5.68416">
        <ele>922.59997558594</ele>
        <time>2013-05-11T15:36:57Z</time>
      </trkpt>
      <trkpt lat="44.44803" lon="5.68412">
        <ele>924.20001220703</ele>
        <time>2013-05-11T15:37:12Z</time>
      </trkpt>
      <trkpt lat="44.44788" lon="5.6841">
        <ele>924.20001220703</ele>
        <time>2013-05-11T15:37:25Z</time>
      </trkpt>
      <trkpt lat="44.44774" lon="5.68426">
        <ele>926.79998779297</ele>
        <time>2013-05-11T15:37:44Z</time>
      </trkpt>
      <trkpt lat="44.4477" lon="5.68431">
        <ele>928</ele>
        <time>2013-05-11T15:37:48Z</time>
      </trkpt>
      <trkpt lat="44.44764" lon="5.68448">
        <ele>928.40002441406</ele>
        <time>2013-05-11T15:38:00Z</time>
      </trkpt>
      <trkpt lat="44.44762" lon="5.68452">
        <ele>929.20001220703</ele>
        <time>2013-05-11T15:38:04Z</time>
      </trkpt>
      <trkpt lat="44.44759" lon="5.68461">
        <ele>930.59997558594</ele>
        <time>2013-05-11T15:38:23Z</time>
      </trkpt>
      <trkpt lat="44.4475" lon="5.68472">
        <ele>934.20001220703</ele>
        <time>2013-05-11T15:41:19Z</time>
      </trkpt>
      <trkpt lat="44.44749" lon="5.68474">
        <ele>934.59997558594</ele>
        <time>2013-05-11T15:41:20Z</time>
      </trkpt>
      <trkpt lat="44.44741" lon="5.6848">
        <ele>935</ele>
        <time>2013-05-11T15:41:27Z</time>
      </trkpt>
      <trkpt lat="44.4474" lon="5.68482">
        <ele>935.79998779297</ele>
        <time>2013-05-11T15:41:29Z</time>
      </trkpt>
      <trkpt lat="44.4473" lon="5.68491">
        <ele>936.59997558594</ele>
        <time>2013-05-11T15:41:41Z</time>
      </trkpt>
      <trkpt lat="44.44718" lon="5.68498">
        <ele>938.79998779297</ele>
        <time>2013-05-11T15:41:53Z</time>
      </trkpt>
      <trkpt lat="44.44714" lon="5.68502">
        <ele>939.20001220703</ele>
        <time>2013-05-11T15:41:59Z</time>
      </trkpt>
      <trkpt lat="44.44709" lon="5.68509">
        <ele>940.79998779297</ele>
        <time>2013-05-11T15:42:08Z</time>
      </trkpt>
      <trkpt lat="44.44699" lon="5.68515">
        <ele>940.79998779297</ele>
        <time>2013-05-11T15:42:22Z</time>
      </trkpt>
      <trkpt lat="44.44688" lon="5.68519">
        <ele>941.20001220703</ele>
        <time>2013-05-11T15:42:32Z</time>
      </trkpt>
      <trkpt lat="44.44687" lon="5.6852">
        <ele>941.59997558594</ele>
        <time>2013-05-11T15:42:34Z</time>
      </trkpt>
      <trkpt lat="44.44668" lon="5.68535">
        <ele>943</ele>
        <time>2013-05-11T15:42:54Z</time>
      </trkpt>
      <trkpt lat="44.44657" lon="5.68542">
        <ele>943.40002441406</ele>
        <time>2013-05-11T15:43:02Z</time>
      </trkpt>
      <trkpt lat="44.44649" lon="5.68547">
        <ele>945</ele>
        <time>2013-05-11T15:43:07Z</time>
      </trkpt>
      <trkpt lat="44.44638" lon="5.68554">
        <ele>945</ele>
        <time>2013-05-11T15:43:14Z</time>
      </trkpt>
      <trkpt lat="44.44628" lon="5.68557">
        <ele>945</ele>
        <time>2013-05-11T15:43:20Z</time>
      </trkpt>
      <trkpt lat="44.44617" lon="5.68558">
        <ele>945</ele>
        <time>2013-05-11T15:43:27Z</time>
      </trkpt>
      <trkpt lat="44.44598" lon="5.68556">
        <ele>945</ele>
        <time>2013-05-11T15:43:36Z</time>
      </trkpt>
      <trkpt lat="44.44587" lon="5.68557">
        <ele>947.40002441406</ele>
        <time>2013-05-11T15:43:47Z</time>
      </trkpt>
      <trkpt lat="44.44583" lon="5.6856">
        <ele>949.20001220703</ele>
        <time>2013-05-11T15:43:52Z</time>
      </trkpt>
      <trkpt lat="44.4458" lon="5.68563">
        <ele>949.20001220703</ele>
        <time>2013-05-11T15:43:55Z</time>
      </trkpt>
      <trkpt lat="44.44569" lon="5.68568">
        <ele>950.40002441406</ele>
        <time>2013-05-11T15:44:03Z</time>
      </trkpt>
      <trkpt lat="44.44565" lon="5.6857">
        <ele>951.20001220703</ele>
        <time>2013-05-11T15:44:06Z</time>
      </trkpt>
      <trkpt lat="44.44556" lon="5.68573">
        <ele>951.59997558594</ele>
        <time>2013-05-11T15:44:15Z</time>
      </trkpt>
      <trkpt lat="44.4455" lon="5.68577">
        <ele>953.79998779297</ele>
        <time>2013-05-11T15:44:27Z</time>
      </trkpt>
      <trkpt lat="44.44549" lon="5.6858">
        <ele>955.59997558594</ele>
        <time>2013-05-11T15:44:32Z</time>
      </trkpt>
      <trkpt lat="44.44548" lon="5.6859">
        <ele>958.20001220703</ele>
        <time>2013-05-11T15:44:44Z</time>
      </trkpt>
      <trkpt lat="44.44554" lon="5.68607">
        <ele>960.40002441406</ele>
        <time>2013-05-11T15:44:58Z</time>
      </trkpt>
      <trkpt lat="44.44555" lon="5.68611">
        <ele>961.59997558594</ele>
        <time>2013-05-11T15:45:01Z</time>
      </trkpt>
      <trkpt lat="44.44555" lon="5.68623">
        <ele>962.20001220703</ele>
        <time>2013-05-11T15:45:12Z</time>
      </trkpt>
      <trkpt lat="44.44553" lon="5.68634">
        <ele>962.20001220703</ele>
        <time>2013-05-11T15:45:23Z</time>
      </trkpt>
      <trkpt lat="44.44551" lon="5.6864">
        <ele>964.20001220703</ele>
        <time>2013-05-11T15:45:28Z</time>
      </trkpt>
      <trkpt lat="44.4455" lon="5.68646">
        <ele>964.20001220703</ele>
        <time>2013-05-11T15:45:34Z</time>
      </trkpt>
      <trkpt lat="44.44548" lon="5.68651">
        <ele>965.20001220703</ele>
        <time>2013-05-11T15:45:38Z</time>
      </trkpt>
      <trkpt lat="44.4454" lon="5.68662">
        <ele>966.40002441406</ele>
        <time>2013-05-11T15:45:48Z</time>
      </trkpt>
      <trkpt lat="44.44538" lon="5.68668">
        <ele>966.79998779297</ele>
        <time>2013-05-11T15:45:53Z</time>
      </trkpt>
      <trkpt lat="44.44538" lon="5.68671">
        <ele>968</ele>
        <time>2013-05-11T15:45:56Z</time>
      </trkpt>
      <trkpt lat="44.44537" lon="5.68683">
        <ele>969.20001220703</ele>
        <time>2013-05-11T15:46:07Z</time>
      </trkpt>
      <trkpt lat="44.4454" lon="5.68693">
        <ele>971</ele>
        <time>2013-05-11T15:46:15Z</time>
      </trkpt>
      <trkpt lat="44.4454" lon="5.68694">
        <ele>971.40002441406</ele>
        <time>2013-05-11T15:46:16Z</time>
      </trkpt>
      <trkpt lat="44.44541" lon="5.68706">
        <ele>973</ele>
        <time>2013-05-11T15:46:26Z</time>
      </trkpt>
      <trkpt lat="44.44541" lon="5.6871">
        <ele>974.20001220703</ele>
        <time>2013-05-11T15:46:29Z</time>
      </trkpt>
      <trkpt lat="44.44543" lon="5.68733">
        <ele>975</ele>
        <time>2013-05-11T15:46:41Z</time>
      </trkpt>
      <trkpt lat="44.44545" lon="5.68741">
        <ele>976.59997558594</ele>
        <time>2013-05-11T15:46:45Z</time>
      </trkpt>
      <trkpt lat="44.44541" lon="5.68753">
        <ele>976.59997558594</ele>
        <time>2013-05-11T15:46:54Z</time>
      </trkpt>
      <trkpt lat="44.44539" lon="5.68762">
        <ele>977</ele>
        <time>2013-05-11T15:47:00Z</time>
      </trkpt>
      <trkpt lat="44.44521" lon="5.68779">
        <ele>979</ele>
        <time>2013-05-11T15:47:14Z</time>
      </trkpt>
      <trkpt lat="44.44511" lon="5.68794">
        <ele>979</ele>
        <time>2013-05-11T15:47:22Z</time>
      </trkpt>
      <trkpt lat="44.44498" lon="5.6881">
        <ele>979</ele>
        <time>2013-05-11T15:47:28Z</time>
      </trkpt>
      <trkpt lat="44.4449" lon="5.68827">
        <ele>979</ele>
        <time>2013-05-11T15:47:33Z</time>
      </trkpt>
      <trkpt lat="44.44471" lon="5.68852">
        <ele>979</ele>
        <time>2013-05-11T15:47:39Z</time>
      </trkpt>
      <trkpt lat="44.44462" lon="5.68865">
        <ele>979</ele>
        <time>2013-05-11T15:47:44Z</time>
      </trkpt>
      <trkpt lat="44.4445" lon="5.68879">
        <ele>979</ele>
        <time>2013-05-11T15:47:51Z</time>
      </trkpt>
      <trkpt lat="44.44445" lon="5.68886">
        <ele>979.40002441406</ele>
        <time>2013-05-11T15:47:54Z</time>
      </trkpt>
      <trkpt lat="44.44442" lon="5.6889">
        <ele>980.20001220703</ele>
        <time>2013-05-11T15:47:56Z</time>
      </trkpt>
      <trkpt lat="44.44438" lon="5.68895">
        <ele>981</ele>
        <time>2013-05-11T15:47:58Z</time>
      </trkpt>
      <trkpt lat="44.44433" lon="5.689">
        <ele>981</ele>
        <time>2013-05-11T15:48:00Z</time>
      </trkpt>
      <trkpt lat="44.44428" lon="5.68911">
        <ele>981</ele>
        <time>2013-05-11T15:48:03Z</time>
      </trkpt>
      <trkpt lat="44.44413" lon="5.68932">
        <ele>981</ele>
        <time>2013-05-11T15:48:11Z</time>
      </trkpt>
      <trkpt lat="44.44403" lon="5.6895">
        <ele>981</ele>
        <time>2013-05-11T15:48:19Z</time>
      </trkpt>
      <trkpt lat="44.44398" lon="5.68959">
        <ele>981</ele>
        <time>2013-05-11T15:48:24Z</time>
      </trkpt>
      <trkpt lat="44.44395" lon="5.68963">
        <ele>981.40002441406</ele>
        <time>2013-05-11T15:48:28Z</time>
      </trkpt>
      <trkpt lat="44.44392" lon="5.68971">
        <ele>983</ele>
        <time>2013-05-11T15:48:33Z</time>
      </trkpt>
      <trkpt lat="44.44387" lon="5.6898">
        <ele>983.40002441406</ele>
        <time>2013-05-11T15:48:40Z</time>
      </trkpt>
      <trkpt lat="44.44386" lon="5.68981">
        <ele>984</ele>
        <time>2013-05-11T15:48:41Z</time>
      </trkpt>
      <trkpt lat="44.4438" lon="5.68989">
        <ele>985.59997558594</ele>
        <time>2013-05-11T15:48:48Z</time>
      </trkpt>
      <trkpt lat="44.44379" lon="5.6899">
        <ele>986.40002441406</ele>
        <time>2013-05-11T15:48:50Z</time>
      </trkpt>
      <trkpt lat="44.44367" lon="5.69">
        <ele>987.20001220703</ele>
        <time>2013-05-11T15:48:58Z</time>
      </trkpt>
      <trkpt lat="44.44358" lon="5.69007">
        <ele>987.20001220703</ele>
        <time>2013-05-11T15:49:06Z</time>
      </trkpt>
      <trkpt lat="44.44356" lon="5.6901">
        <ele>988</ele>
        <time>2013-05-11T15:49:10Z</time>
      </trkpt>
      <trkpt lat="44.44347" lon="5.6902">
        <ele>989.20001220703</ele>
        <time>2013-05-11T15:49:21Z</time>
      </trkpt>
      <trkpt lat="44.44337" lon="5.69023">
        <ele>989.59997558594</ele>
        <time>2013-05-11T15:49:27Z</time>
      </trkpt>
      <trkpt lat="44.44323" lon="5.69033">
        <ele>991.40002441406</ele>
        <time>2013-05-11T15:49:37Z</time>
      </trkpt>
      <trkpt lat="44.44309" lon="5.69045">
        <ele>991.40002441406</ele>
        <time>2013-05-11T15:49:45Z</time>
      </trkpt>
      <trkpt lat="44.44302" lon="5.69058">
        <ele>991.40002441406</ele>
        <time>2013-05-11T15:49:50Z</time>
      </trkpt>
      <trkpt lat="44.44302" lon="5.69071">
        <ele>991.40002441406</ele>
        <time>2013-05-11T15:49:55Z</time>
      </trkpt>
      <trkpt lat="44.443" lon="5.69074">
        <ele>993.20001220703</ele>
        <time>2013-05-11T15:50:05Z</time>
      </trkpt>
      <trkpt lat="44.4428" lon="5.69107">
        <ele>998</ele>
        <time>2013-05-11T15:51:05Z</time>
      </trkpt>
      <trkpt lat="44.44273" lon="5.69127">
        <ele>998.40002441406</ele>
        <time>2013-05-11T15:51:12Z</time>
      </trkpt>
      <trkpt lat="44.44266" lon="5.69134">
        <ele>999.79998779297</ele>
        <time>2013-05-11T15:51:15Z</time>
      </trkpt>
      <trkpt lat="44.44251" lon="5.6915">
        <ele>1000.200012207</ele>
        <time>2013-05-11T15:51:23Z</time>
      </trkpt>
      <trkpt lat="44.44245" lon="5.69154">
        <ele>1001</ele>
        <time>2013-05-11T15:51:27Z</time>
      </trkpt>
      <trkpt lat="44.44238" lon="5.69161">
        <ele>1002.200012207</ele>
        <time>2013-05-11T15:51:31Z</time>
      </trkpt>
      <trkpt lat="44.4423" lon="5.69171">
        <ele>1002.200012207</ele>
        <time>2013-05-11T15:51:39Z</time>
      </trkpt>
      <trkpt lat="44.44219" lon="5.69181">
        <ele>1002.5999755859</ele>
        <time>2013-05-11T15:51:47Z</time>
      </trkpt>
      <trkpt lat="44.44213" lon="5.69191">
        <ele>1004.4000244141</ele>
        <time>2013-05-11T15:51:54Z</time>
      </trkpt>
      <trkpt lat="44.44202" lon="5.69203">
        <ele>1004.4000244141</ele>
        <time>2013-05-11T15:52:03Z</time>
      </trkpt>
      <trkpt lat="44.44194" lon="5.69216">
        <ele>1004.4000244141</ele>
        <time>2013-05-11T15:52:09Z</time>
      </trkpt>
      <trkpt lat="44.44189" lon="5.69218">
        <ele>1004.799987793</ele>
        <time>2013-05-11T15:52:13Z</time>
      </trkpt>
      <trkpt lat="44.44189" lon="5.69221">
        <ele>1006.799987793</ele>
        <time>2013-05-11T15:52:17Z</time>
      </trkpt>
      <trkpt lat="44.44178" lon="5.69229">
        <ele>1007.200012207</ele>
        <time>2013-05-11T15:52:33Z</time>
      </trkpt>
      <trkpt lat="44.44176" lon="5.6923">
        <ele>1007.799987793</ele>
        <time>2013-05-11T15:52:35Z</time>
      </trkpt>
      <trkpt lat="44.44174" lon="5.69228">
        <ele>1009.200012207</ele>
        <time>2013-05-11T15:52:47Z</time>
      </trkpt>
      <trkpt lat="44.4417" lon="5.69224">
        <ele>1010.799987793</ele>
        <time>2013-05-11T15:52:52Z</time>
      </trkpt>
      <trkpt lat="44.44159" lon="5.69222">
        <ele>1011.200012207</ele>
        <time>2013-05-11T15:53:10Z</time>
      </trkpt>
      <trkpt lat="44.44145" lon="5.69239">
        <ele>1013.4000244141</ele>
        <time>2013-05-11T15:53:39Z</time>
      </trkpt>
      <trkpt lat="44.44138" lon="5.69245">
        <ele>1013.4000244141</ele>
        <time>2013-05-11T15:53:50Z</time>
      </trkpt>
      <trkpt lat="44.4413" lon="5.69251">
        <ele>1015.4000244141</ele>
        <time>2013-05-11T15:53:59Z</time>
      </trkpt>
      <trkpt lat="44.44129" lon="5.69252">
        <ele>1015.4000244141</ele>
        <time>2013-05-11T15:54:05Z</time>
      </trkpt>
      <trkpt lat="44.4412" lon="5.6926">
        <ele>1015.4000244141</ele>
        <time>2013-05-11T15:54:13Z</time>
      </trkpt>
      <trkpt lat="44.44107" lon="5.69268">
        <ele>1015.4000244141</ele>
        <time>2013-05-11T15:54:21Z</time>
      </trkpt>
      <trkpt lat="44.44091" lon="5.69273">
        <ele>1015.4000244141</ele>
        <time>2013-05-11T15:54:29Z</time>
      </trkpt>
      <trkpt lat="44.4409" lon="5.69274">
        <ele>1015.799987793</ele>
        <time>2013-05-11T15:54:30Z</time>
      </trkpt>
      <trkpt lat="44.44081" lon="5.69281">
        <ele>1017.4000244141</ele>
        <time>2013-05-11T15:54:35Z</time>
      </trkpt>
      <trkpt lat="44.44069" lon="5.69294">
        <ele>1017.4000244141</ele>
        <time>2013-05-11T15:54:43Z</time>
      </trkpt>
      <trkpt lat="44.44058" lon="5.69297">
        <ele>1017.4000244141</ele>
        <time>2013-05-11T15:54:51Z</time>
      </trkpt>
      <trkpt lat="44.44046" lon="5.69298">
        <ele>1019.799987793</ele>
        <time>2013-05-11T15:55:00Z</time>
      </trkpt>
      <trkpt lat="44.44036" lon="5.69303">
        <ele>1019.799987793</ele>
        <time>2013-05-11T15:55:07Z</time>
      </trkpt>
      <trkpt lat="44.44022" lon="5.6931">
        <ele>1019.799987793</ele>
        <time>2013-05-11T15:55:15Z</time>
      </trkpt>
      <trkpt lat="44.44009" lon="5.69316">
        <ele>1019.799987793</ele>
        <time>2013-05-11T15:55:24Z</time>
      </trkpt>
      <trkpt lat="44.44" lon="5.69319">
        <ele>1021.799987793</ele>
        <time>2013-05-11T15:55:31Z</time>
      </trkpt>
      <trkpt lat="44.43987" lon="5.69323">
        <ele>1022.200012207</ele>
        <time>2013-05-11T15:55:40Z</time>
      </trkpt>
      <trkpt lat="44.43979" lon="5.69324">
        <ele>1023.799987793</ele>
        <time>2013-05-11T15:55:47Z</time>
      </trkpt>
      <trkpt lat="44.43966" lon="5.69331">
        <ele>1024.1999511719</ele>
        <time>2013-05-11T15:55:58Z</time>
      </trkpt>
      <trkpt lat="44.43957" lon="5.69336">
        <ele>1026</ele>
        <time>2013-05-11T15:56:06Z</time>
      </trkpt>
      <trkpt lat="44.43932" lon="5.69342">
        <ele>1026</ele>
        <time>2013-05-11T15:56:18Z</time>
      </trkpt>
      <trkpt lat="44.43926" lon="5.69344">
        <ele>1026.4000244141</ele>
        <time>2013-05-11T15:56:22Z</time>
      </trkpt>
      <trkpt lat="44.4392" lon="5.69345">
        <ele>1027.8000488281</ele>
        <time>2013-05-11T15:56:25Z</time>
      </trkpt>
      <trkpt lat="44.43905" lon="5.69352">
        <ele>1028.4000244141</ele>
        <time>2013-05-11T15:56:33Z</time>
      </trkpt>
      <trkpt lat="44.439" lon="5.69355">
        <ele>1028.4000244141</ele>
        <time>2013-05-11T15:56:38Z</time>
      </trkpt>
      <trkpt lat="44.4389" lon="5.69361">
        <ele>1028.4000244141</ele>
        <time>2013-05-11T15:56:43Z</time>
      </trkpt>
      <trkpt lat="44.43875" lon="5.69366">
        <ele>1028.4000244141</ele>
        <time>2013-05-11T15:56:50Z</time>
      </trkpt>
      <trkpt lat="44.43865" lon="5.69364">
        <ele>1028.4000244141</ele>
        <time>2013-05-11T15:56:56Z</time>
      </trkpt>
      <trkpt lat="44.43855" lon="5.69367">
        <ele>1028.4000244141</ele>
        <time>2013-05-11T15:57:03Z</time>
      </trkpt>
      <trkpt lat="44.4384" lon="5.69374">
        <ele>1028.8000488281</ele>
        <time>2013-05-11T15:57:11Z</time>
      </trkpt>
      <trkpt lat="44.43836" lon="5.69376">
        <ele>1029.1999511719</ele>
        <time>2013-05-11T15:57:12Z</time>
      </trkpt>
      <trkpt lat="44.4383" lon="5.69377">
        <ele>1030.1999511719</ele>
        <time>2013-05-11T15:57:14Z</time>
      </trkpt>
      <trkpt lat="44.43819" lon="5.69386">
        <ele>1030.5999755859</ele>
        <time>2013-05-11T15:57:19Z</time>
      </trkpt>
      <trkpt lat="44.43801" lon="5.69397">
        <ele>1030.5999755859</ele>
        <time>2013-05-11T15:57:25Z</time>
      </trkpt>
      <trkpt lat="44.43798" lon="5.69398">
        <ele>1030.5999755859</ele>
        <time>2013-05-11T15:57:26Z</time>
      </trkpt>
      <trkpt lat="44.43796" lon="5.69402">
        <ele>1030.5999755859</ele>
        <time>2013-05-11T15:57:30Z</time>
      </trkpt>
      <trkpt lat="44.43796" lon="5.69398">
        <ele>1030.5999755859</ele>
        <time>2013-05-11T15:58:30Z</time>
      </trkpt>
      <trkpt lat="44.4379" lon="5.69386">
        <ele>1030.5999755859</ele>
        <time>2013-05-11T15:58:33Z</time>
      </trkpt>
      <trkpt lat="44.43788" lon="5.69373">
        <ele>1030.5999755859</ele>
        <time>2013-05-11T15:58:35Z</time>
      </trkpt>
      <trkpt lat="44.43789" lon="5.69359">
        <ele>1030.5999755859</ele>
        <time>2013-05-11T15:58:37Z</time>
      </trkpt>
      <trkpt lat="44.43792" lon="5.6934">
        <ele>1030.5999755859</ele>
        <time>2013-05-11T15:58:39Z</time>
      </trkpt>
      <trkpt lat="44.43795" lon="5.69319">
        <ele>1029.8000488281</ele>
        <time>2013-05-11T15:58:41Z</time>
      </trkpt>
      <trkpt lat="44.43797" lon="5.69308">
        <ele>1029.1999511719</ele>
        <time>2013-05-11T15:58:42Z</time>
      </trkpt>
      <trkpt lat="44.43799" lon="5.69297">
        <ele>1028.8000488281</ele>
        <time>2013-05-11T15:58:43Z</time>
      </trkpt>
      <trkpt lat="44.43805" lon="5.69277">
        <ele>1027.8000488281</ele>
        <time>2013-05-11T15:58:45Z</time>
      </trkpt>
      <trkpt lat="44.43808" lon="5.69267">
        <ele>1027.4000244141</ele>
        <time>2013-05-11T15:58:46Z</time>
      </trkpt>
      <trkpt lat="44.43811" lon="5.69257">
        <ele>1027</ele>
        <time>2013-05-11T15:58:47Z</time>
      </trkpt>
      <trkpt lat="44.43815" lon="5.69247">
        <ele>1026.5999755859</ele>
        <time>2013-05-11T15:58:48Z</time>
      </trkpt>
      <trkpt lat="44.43818" lon="5.69238">
        <ele>1026.1999511719</ele>
        <time>2013-05-11T15:58:49Z</time>
      </trkpt>
      <trkpt lat="44.43825" lon="5.6922">
        <ele>1025.8000488281</ele>
        <time>2013-05-11T15:58:51Z</time>
      </trkpt>
      <trkpt lat="44.43828" lon="5.6921">
        <ele>1025.4000244141</ele>
        <time>2013-05-11T15:58:52Z</time>
      </trkpt>
      <trkpt lat="44.4383" lon="5.69198">
        <ele>1025.4000244141</ele>
        <time>2013-05-11T15:58:53Z</time>
      </trkpt>
      <trkpt lat="44.43832" lon="5.69188">
        <ele>1024.4000244141</ele>
        <time>2013-05-11T15:58:54Z</time>
      </trkpt>
      <trkpt lat="44.43834" lon="5.69176">
        <ele>1023.799987793</ele>
        <time>2013-05-11T15:58:55Z</time>
      </trkpt>
      <trkpt lat="44.43835" lon="5.69164">
        <ele>1023.200012207</ele>
        <time>2013-05-11T15:58:56Z</time>
      </trkpt>
      <trkpt lat="44.43837" lon="5.69153">
        <ele>1022.5999755859</ele>
        <time>2013-05-11T15:58:57Z</time>
      </trkpt>
      <trkpt lat="44.43837" lon="5.69129">
        <ele>1021.200012207</ele>
        <time>2013-05-11T15:58:59Z</time>
      </trkpt>
      <trkpt lat="44.43837" lon="5.69118">
        <ele>1020.5999755859</ele>
        <time>2013-05-11T15:59:00Z</time>
      </trkpt>
      <trkpt lat="44.43837" lon="5.69107">
        <ele>1020</ele>
        <time>2013-05-11T15:59:01Z</time>
      </trkpt>
      <trkpt lat="44.43838" lon="5.69096">
        <ele>1019.4000244141</ele>
        <time>2013-05-11T15:59:02Z</time>
      </trkpt>
      <trkpt lat="44.43839" lon="5.69073">
        <ele>1018</ele>
        <time>2013-05-11T15:59:04Z</time>
      </trkpt>
      <trkpt lat="44.43839" lon="5.69061">
        <ele>1017.200012207</ele>
        <time>2013-05-11T15:59:05Z</time>
      </trkpt>
      <trkpt lat="44.43841" lon="5.6904">
        <ele>1015.4000244141</ele>
        <time>2013-05-11T15:59:07Z</time>
      </trkpt>
      <trkpt lat="44.4384" lon="5.69033">
        <ele>1014.4000244141</ele>
        <time>2013-05-11T15:59:08Z</time>
      </trkpt>
      <trkpt lat="44.43833" lon="5.69028">
        <ele>1013.5999755859</ele>
        <time>2013-05-11T15:59:09Z</time>
      </trkpt>
      <trkpt lat="44.43827" lon="5.69029">
        <ele>1012.5999755859</ele>
        <time>2013-05-11T15:59:10Z</time>
      </trkpt>
      <trkpt lat="44.43821" lon="5.69032">
        <ele>1011.799987793</ele>
        <time>2013-05-11T15:59:11Z</time>
      </trkpt>
      <trkpt lat="44.43821" lon="5.6904">
        <ele>1011</ele>
        <time>2013-05-11T15:59:12Z</time>
      </trkpt>
      <trkpt lat="44.43821" lon="5.69058">
        <ele>1009.4000244141</ele>
        <time>2013-05-11T15:59:14Z</time>
      </trkpt>
      <trkpt lat="44.4382" lon="5.69068">
        <ele>1008.799987793</ele>
        <time>2013-05-11T15:59:15Z</time>
      </trkpt>
      <trkpt lat="44.43811" lon="5.69084">
        <ele>1007.4000244141</ele>
        <time>2013-05-11T15:59:17Z</time>
      </trkpt>
      <trkpt lat="44.43807" lon="5.69092">
        <ele>1006.5999755859</ele>
        <time>2013-05-11T15:59:18Z</time>
      </trkpt>
      <trkpt lat="44.43795" lon="5.69109">
        <ele>1006</ele>
        <time>2013-05-11T15:59:20Z</time>
      </trkpt>
      <trkpt lat="44.4379" lon="5.69118">
        <ele>1004.200012207</ele>
        <time>2013-05-11T15:59:21Z</time>
      </trkpt>
      <trkpt lat="44.43785" lon="5.69126">
        <ele>1003.4000244141</ele>
        <time>2013-05-11T15:59:22Z</time>
      </trkpt>
      <trkpt lat="44.4378" lon="5.69136">
        <ele>1002.4000244141</ele>
        <time>2013-05-11T15:59:23Z</time>
      </trkpt>
      <trkpt lat="44.43775" lon="5.69145">
        <ele>1001.4000244141</ele>
        <time>2013-05-11T15:59:24Z</time>
      </trkpt>
      <trkpt lat="44.43769" lon="5.69156">
        <ele>1000.4000244141</ele>
        <time>2013-05-11T15:59:25Z</time>
      </trkpt>
      <trkpt lat="44.43764" lon="5.69166">
        <ele>999.40002441406</ele>
        <time>2013-05-11T15:59:26Z</time>
      </trkpt>
      <trkpt lat="44.4376" lon="5.69176">
        <ele>998.20001220703</ele>
        <time>2013-05-11T15:59:27Z</time>
      </trkpt>
      <trkpt lat="44.43756" lon="5.69187">
        <ele>997.20001220703</ele>
        <time>2013-05-11T15:59:28Z</time>
      </trkpt>
      <trkpt lat="44.43752" lon="5.69195">
        <ele>996</ele>
        <time>2013-05-11T15:59:29Z</time>
      </trkpt>
      <trkpt lat="44.43747" lon="5.69198">
        <ele>996</ele>
        <time>2013-05-11T15:59:30Z</time>
      </trkpt>
      <trkpt lat="44.43738" lon="5.69191">
        <ele>991.59997558594</ele>
        <time>2013-05-11T15:59:33Z</time>
      </trkpt>
      <trkpt lat="44.43738" lon="5.6918">
        <ele>991.59997558594</ele>
        <time>2013-05-11T15:59:34Z</time>
      </trkpt>
      <trkpt lat="44.43737" lon="5.69161">
        <ele>989.79998779297</ele>
        <time>2013-05-11T15:59:36Z</time>
      </trkpt>
      <trkpt lat="44.43737" lon="5.69151">
        <ele>988.79998779297</ele>
        <time>2013-05-11T15:59:37Z</time>
      </trkpt>
      <trkpt lat="44.43737" lon="5.69141">
        <ele>988</ele>
        <time>2013-05-11T15:59:38Z</time>
      </trkpt>
      <trkpt lat="44.4373" lon="5.69107">
        <ele>987</ele>
        <time>2013-05-11T15:59:41Z</time>
      </trkpt>
      <trkpt lat="44.43726" lon="5.69095">
        <ele>986.40002441406</ele>
        <time>2013-05-11T15:59:42Z</time>
      </trkpt>
      <trkpt lat="44.43723" lon="5.69084">
        <ele>986.40002441406</ele>
        <time>2013-05-11T15:59:43Z</time>
      </trkpt>
      <trkpt lat="44.43716" lon="5.69071">
        <ele>985.59997558594</ele>
        <time>2013-05-11T15:59:45Z</time>
      </trkpt>
      <trkpt lat="44.4371" lon="5.69068">
        <ele>983.59997558594</ele>
        <time>2013-05-11T15:59:46Z</time>
      </trkpt>
      <trkpt lat="44.43702" lon="5.69076">
        <ele>982.59997558594</ele>
        <time>2013-05-11T15:59:48Z</time>
      </trkpt>
      <trkpt lat="44.43705" lon="5.69093">
        <ele>982.59997558594</ele>
        <time>2013-05-11T15:59:50Z</time>
      </trkpt>
      <trkpt lat="44.43708" lon="5.69102">
        <ele>980.59997558594</ele>
        <time>2013-05-11T15:59:51Z</time>
      </trkpt>
      <trkpt lat="44.4371" lon="5.69113">
        <ele>979.59997558594</ele>
        <time>2013-05-11T15:59:52Z</time>
      </trkpt>
      <trkpt lat="44.4371" lon="5.69123">
        <ele>978.59997558594</ele>
        <time>2013-05-11T15:59:53Z</time>
      </trkpt>
      <trkpt lat="44.43708" lon="5.69132">
        <ele>977.59997558594</ele>
        <time>2013-05-11T15:59:54Z</time>
      </trkpt>
      <trkpt lat="44.43705" lon="5.69141">
        <ele>976.59997558594</ele>
        <time>2013-05-11T15:59:55Z</time>
      </trkpt>
      <trkpt lat="44.43699" lon="5.6916">
        <ele>975</ele>
        <time>2013-05-11T15:59:57Z</time>
      </trkpt>
      <trkpt lat="44.43694" lon="5.69168">
        <ele>974.20001220703</ele>
        <time>2013-05-11T15:59:58Z</time>
      </trkpt>
      <trkpt lat="44.43686" lon="5.69183">
        <ele>972.79998779297</ele>
        <time>2013-05-11T16:00:00Z</time>
      </trkpt>
      <trkpt lat="44.43682" lon="5.69191">
        <ele>972</ele>
        <time>2013-05-11T16:00:01Z</time>
      </trkpt>
      <trkpt lat="44.43679" lon="5.69199">
        <ele>971.20001220703</ele>
        <time>2013-05-11T16:00:02Z</time>
      </trkpt>
      <trkpt lat="44.43675" lon="5.69207">
        <ele>970.40002441406</ele>
        <time>2013-05-11T16:00:03Z</time>
      </trkpt>
      <trkpt lat="44.43673" lon="5.69217">
        <ele>970.40002441406</ele>
        <time>2013-05-11T16:00:04Z</time>
      </trkpt>
      <trkpt lat="44.4367" lon="5.69226">
        <ele>969</ele>
        <time>2013-05-11T16:00:05Z</time>
      </trkpt>
      <trkpt lat="44.43666" lon="5.69236">
        <ele>968.20001220703</ele>
        <time>2013-05-11T16:00:06Z</time>
      </trkpt>
      <trkpt lat="44.43662" lon="5.69245">
        <ele>967.40002441406</ele>
        <time>2013-05-11T16:00:07Z</time>
      </trkpt>
      <trkpt lat="44.43658" lon="5.69255">
        <ele>966.59997558594</ele>
        <time>2013-05-11T16:00:08Z</time>
      </trkpt>
      <trkpt lat="44.43652" lon="5.69275">
        <ele>965.20001220703</ele>
        <time>2013-05-11T16:00:10Z</time>
      </trkpt>
      <trkpt lat="44.43649" lon="5.69286">
        <ele>964.40002441406</ele>
        <time>2013-05-11T16:00:11Z</time>
      </trkpt>
      <trkpt lat="44.43647" lon="5.69295">
        <ele>963.59997558594</ele>
        <time>2013-05-11T16:00:12Z</time>
      </trkpt>
      <trkpt lat="44.43645" lon="5.69302">
        <ele>962.59997558594</ele>
        <time>2013-05-11T16:00:13Z</time>
      </trkpt>
      <trkpt lat="44.43637" lon="5.69316">
        <ele>961</ele>
        <time>2013-05-11T16:00:15Z</time>
      </trkpt>
      <trkpt lat="44.43633" lon="5.69322">
        <ele>960</ele>
        <time>2013-05-11T16:00:16Z</time>
      </trkpt>
      <trkpt lat="44.43628" lon="5.69328">
        <ele>959.59997558594</ele>
        <time>2013-05-11T16:00:17Z</time>
      </trkpt>
      <trkpt lat="44.43625" lon="5.69334">
        <ele>959</ele>
        <time>2013-05-11T16:00:18Z</time>
      </trkpt>
      <trkpt lat="44.43621" lon="5.69341">
        <ele>958.40002441406</ele>
        <time>2013-05-11T16:00:19Z</time>
      </trkpt>
      <trkpt lat="44.43617" lon="5.69348">
        <ele>957.79998779297</ele>
        <time>2013-05-11T16:00:20Z</time>
      </trkpt>
      <trkpt lat="44.43614" lon="5.69355">
        <ele>957</ele>
        <time>2013-05-11T16:00:21Z</time>
      </trkpt>
      <trkpt lat="44.43613" lon="5.69361">
        <ele>956.40002441406</ele>
        <time>2013-05-11T16:00:22Z</time>
      </trkpt>
      <trkpt lat="44.43613" lon="5.69384">
        <ele>954.20001220703</ele>
        <time>2013-05-11T16:00:25Z</time>
      </trkpt>
      <trkpt lat="44.43613" lon="5.69392">
        <ele>953.40002441406</ele>
        <time>2013-05-11T16:00:26Z</time>
      </trkpt>
      <trkpt lat="44.43608" lon="5.694">
        <ele>952.59997558594</ele>
        <time>2013-05-11T16:00:27Z</time>
      </trkpt>
      <trkpt lat="44.43604" lon="5.69406">
        <ele>952</ele>
        <time>2013-05-11T16:00:28Z</time>
      </trkpt>
      <trkpt lat="44.43596" lon="5.69413">
        <ele>950.20001220703</ele>
        <time>2013-05-11T16:00:30Z</time>
      </trkpt>
      <trkpt lat="44.43584" lon="5.69411">
        <ele>948.59997558594</ele>
        <time>2013-05-11T16:00:32Z</time>
      </trkpt>
      <trkpt lat="44.43579" lon="5.69406">
        <ele>947.79998779297</ele>
        <time>2013-05-11T16:00:33Z</time>
      </trkpt>
      <trkpt lat="44.43576" lon="5.69398">
        <ele>947</ele>
        <time>2013-05-11T16:00:34Z</time>
      </trkpt>
      <trkpt lat="44.43577" lon="5.6939">
        <ele>946.20001220703</ele>
        <time>2013-05-11T16:00:35Z</time>
      </trkpt>
      <trkpt lat="44.43579" lon="5.69371">
        <ele>945</ele>
        <time>2013-05-11T16:00:37Z</time>
      </trkpt>
      <trkpt lat="44.43582" lon="5.69363">
        <ele>944.40002441406</ele>
        <time>2013-05-11T16:00:38Z</time>
      </trkpt>
      <trkpt lat="44.43583" lon="5.69353">
        <ele>944</ele>
        <time>2013-05-11T16:00:39Z</time>
      </trkpt>
      <trkpt lat="44.43584" lon="5.69343">
        <ele>943.40002441406</ele>
        <time>2013-05-11T16:00:40Z</time>
      </trkpt>
      <trkpt lat="44.43584" lon="5.69332">
        <ele>942.79998779297</ele>
        <time>2013-05-11T16:00:41Z</time>
      </trkpt>
      <trkpt lat="44.43585" lon="5.6932">
        <ele>942.40002441406</ele>
        <time>2013-05-11T16:00:42Z</time>
      </trkpt>
      <trkpt lat="44.43586" lon="5.69309">
        <ele>941.79998779297</ele>
        <time>2013-05-11T16:00:43Z</time>
      </trkpt>
      <trkpt lat="44.43587" lon="5.69297">
        <ele>941.20001220703</ele>
        <time>2013-05-11T16:00:44Z</time>
      </trkpt>
      <trkpt lat="44.43589" lon="5.69288">
        <ele>940.59997558594</ele>
        <time>2013-05-11T16:00:45Z</time>
      </trkpt>
      <trkpt lat="44.43591" lon="5.6928">
        <ele>939.79998779297</ele>
        <time>2013-05-11T16:00:46Z</time>
      </trkpt>
      <trkpt lat="44.43594" lon="5.69273">
        <ele>939</ele>
        <time>2013-05-11T16:00:47Z</time>
      </trkpt>
      <trkpt lat="44.43595" lon="5.69266">
        <ele>938</ele>
        <time>2013-05-11T16:00:48Z</time>
      </trkpt>
      <trkpt lat="44.43594" lon="5.69257">
        <ele>937.20001220703</ele>
        <time>2013-05-11T16:00:49Z</time>
      </trkpt>
      <trkpt lat="44.43591" lon="5.69249">
        <ele>936.40002441406</ele>
        <time>2013-05-11T16:00:50Z</time>
      </trkpt>
      <trkpt lat="44.43586" lon="5.69241">
        <ele>935.79998779297</ele>
        <time>2013-05-11T16:00:51Z</time>
      </trkpt>
      <trkpt lat="44.43581" lon="5.69233">
        <ele>935.79998779297</ele>
        <time>2013-05-11T16:00:52Z</time>
      </trkpt>
      <trkpt lat="44.43574" lon="5.69214">
        <ele>935.79998779297</ele>
        <time>2013-05-11T16:00:54Z</time>
      </trkpt>
      <trkpt lat="44.4357" lon="5.69201">
        <ele>935.79998779297</ele>
        <time>2013-05-11T16:00:56Z</time>
      </trkpt>
      <trkpt lat="44.43562" lon="5.69224">
        <ele>934.79998779297</ele>
        <time>2013-05-11T16:01:00Z</time>
      </trkpt>
      <trkpt lat="44.43562" lon="5.69233">
        <ele>934.79998779297</ele>
        <time>2013-05-11T16:01:01Z</time>
      </trkpt>
      <trkpt lat="44.43562" lon="5.69243">
        <ele>934.79998779297</ele>
        <time>2013-05-11T16:01:02Z</time>
      </trkpt>
      <trkpt lat="44.43562" lon="5.69271">
        <ele>934.79998779297</ele>
        <time>2013-05-11T16:01:05Z</time>
      </trkpt>
      <trkpt lat="44.43559" lon="5.6928">
        <ele>934.79998779297</ele>
        <time>2013-05-11T16:01:06Z</time>
      </trkpt>
      <trkpt lat="44.43546" lon="5.69307">
        <ele>930.79998779297</ele>
        <time>2013-05-11T16:01:09Z</time>
      </trkpt>
      <trkpt lat="44.43533" lon="5.69331">
        <ele>930.79998779297</ele>
        <time>2013-05-11T16:01:12Z</time>
      </trkpt>
      <trkpt lat="44.4352" lon="5.69344">
        <ele>930.79998779297</ele>
        <time>2013-05-11T16:01:14Z</time>
      </trkpt>
      <trkpt lat="44.43503" lon="5.69384">
        <ele>927.79998779297</ele>
        <time>2013-05-11T16:01:18Z</time>
      </trkpt>
      <trkpt lat="44.43501" lon="5.69396">
        <ele>927.79998779297</ele>
        <time>2013-05-11T16:01:19Z</time>
      </trkpt>
      <trkpt lat="44.43466" lon="5.69453">
        <ele>927.79998779297</ele>
        <time>2013-05-11T16:01:25Z</time>
      </trkpt>
      <trkpt lat="44.43459" lon="5.69457">
        <ele>924.20001220703</ele>
        <time>2013-05-11T16:01:26Z</time>
      </trkpt>
      <trkpt lat="44.43444" lon="5.69462">
        <ele>916.59997558594</ele>
        <time>2013-05-11T16:01:28Z</time>
      </trkpt>
      <trkpt lat="44.43438" lon="5.69463">
        <ele>912.79998779297</ele>
        <time>2013-05-11T16:01:29Z</time>
      </trkpt>
      <trkpt lat="44.4343" lon="5.69464">
        <ele>912.79998779297</ele>
        <time>2013-05-11T16:01:30Z</time>
      </trkpt>
      <trkpt lat="44.43416" lon="5.69472">
        <ele>905</ele>
        <time>2013-05-11T16:01:32Z</time>
      </trkpt>
      <trkpt lat="44.43409" lon="5.69475">
        <ele>902.79998779297</ele>
        <time>2013-05-11T16:01:33Z</time>
      </trkpt>
      <trkpt lat="44.43393" lon="5.69477">
        <ele>900</ele>
        <time>2013-05-11T16:01:35Z</time>
      </trkpt>
      <trkpt lat="44.43378" lon="5.69479">
        <ele>897.40002441406</ele>
        <time>2013-05-11T16:01:37Z</time>
      </trkpt>
      <trkpt lat="44.43371" lon="5.69482">
        <ele>896.20001220703</ele>
        <time>2013-05-11T16:01:38Z</time>
      </trkpt>
      <trkpt lat="44.43363" lon="5.69486">
        <ele>895.20001220703</ele>
        <time>2013-05-11T16:01:39Z</time>
      </trkpt>
      <trkpt lat="44.43355" lon="5.6949">
        <ele>894.20001220703</ele>
        <time>2013-05-11T16:01:40Z</time>
      </trkpt>
      <trkpt lat="44.43347" lon="5.69493">
        <ele>893.20001220703</ele>
        <time>2013-05-11T16:01:41Z</time>
      </trkpt>
      <trkpt lat="44.43335" lon="5.69498">
        <ele>891.40002441406</ele>
        <time>2013-05-11T16:01:43Z</time>
      </trkpt>
      <trkpt lat="44.43329" lon="5.69502">
        <ele>890.40002441406</ele>
        <time>2013-05-11T16:01:44Z</time>
      </trkpt>
      <trkpt lat="44.43315" lon="5.69515">
        <ele>888.59997558594</ele>
        <time>2013-05-11T16:01:46Z</time>
      </trkpt>
      <trkpt lat="44.43307" lon="5.69522">
        <ele>887.59997558594</ele>
        <time>2013-05-11T16:01:47Z</time>
      </trkpt>
      <trkpt lat="44.43294" lon="5.69535">
        <ele>885.79998779297</ele>
        <time>2013-05-11T16:01:49Z</time>
      </trkpt>
      <trkpt lat="44.4329" lon="5.6954">
        <ele>885</ele>
        <time>2013-05-11T16:01:50Z</time>
      </trkpt>
      <trkpt lat="44.43282" lon="5.69555">
        <ele>883.20001220703</ele>
        <time>2013-05-11T16:01:52Z</time>
      </trkpt>
      <trkpt lat="44.43278" lon="5.69565">
        <ele>882.40002441406</ele>
        <time>2013-05-11T16:01:53Z</time>
      </trkpt>
      <trkpt lat="44.43269" lon="5.69584">
        <ele>880.79998779297</ele>
        <time>2013-05-11T16:01:55Z</time>
      </trkpt>
      <trkpt lat="44.43265" lon="5.69591">
        <ele>880</ele>
        <time>2013-05-11T16:01:56Z</time>
      </trkpt>
      <trkpt lat="44.43252" lon="5.69616">
        <ele>879.20001220703</ele>
        <time>2013-05-11T16:02:00Z</time>
      </trkpt>
      <trkpt lat="44.43249" lon="5.69624">
        <ele>877.20001220703</ele>
        <time>2013-05-11T16:02:01Z</time>
      </trkpt>
      <trkpt lat="44.43246" lon="5.69632">
        <ele>876.20001220703</ele>
        <time>2013-05-11T16:02:02Z</time>
      </trkpt>
      <trkpt lat="44.43242" lon="5.6964">
        <ele>875.20001220703</ele>
        <time>2013-05-11T16:02:03Z</time>
      </trkpt>
      <trkpt lat="44.43237" lon="5.69647">
        <ele>874</ele>
        <time>2013-05-11T16:02:04Z</time>
      </trkpt>
      <trkpt lat="44.43228" lon="5.69661">
        <ele>872.79998779297</ele>
        <time>2013-05-11T16:02:06Z</time>
      </trkpt>
      <trkpt lat="44.43224" lon="5.69671">
        <ele>870.59997558594</ele>
        <time>2013-05-11T16:02:07Z</time>
      </trkpt>
      <trkpt lat="44.4322" lon="5.69681">
        <ele>869.59997558594</ele>
        <time>2013-05-11T16:02:08Z</time>
      </trkpt>
      <trkpt lat="44.43217" lon="5.69691">
        <ele>868.59997558594</ele>
        <time>2013-05-11T16:02:09Z</time>
      </trkpt>
      <trkpt lat="44.43208" lon="5.69725">
        <ele>866.20001220703</ele>
        <time>2013-05-11T16:02:12Z</time>
      </trkpt>
      <trkpt lat="44.43204" lon="5.69735">
        <ele>864.79998779297</ele>
        <time>2013-05-11T16:02:13Z</time>
      </trkpt>
      <trkpt lat="44.43199" lon="5.69744">
        <ele>863.20001220703</ele>
        <time>2013-05-11T16:02:14Z</time>
      </trkpt>
      <trkpt lat="44.43188" lon="5.69761">
        <ele>861.79998779297</ele>
        <time>2013-05-11T16:02:16Z</time>
      </trkpt>
      <trkpt lat="44.43174" lon="5.69775">
        <ele>860.59997558594</ele>
        <time>2013-05-11T16:02:18Z</time>
      </trkpt>
      <trkpt lat="44.43166" lon="5.69782">
        <ele>858.40002441406</ele>
        <time>2013-05-11T16:02:19Z</time>
      </trkpt>
      <trkpt lat="44.43157" lon="5.69789">
        <ele>857.20001220703</ele>
        <time>2013-05-11T16:02:20Z</time>
      </trkpt>
      <trkpt lat="44.43148" lon="5.69797">
        <ele>855.79998779297</ele>
        <time>2013-05-11T16:02:21Z</time>
      </trkpt>
      <trkpt lat="44.4314" lon="5.69804">
        <ele>854.59997558594</ele>
        <time>2013-05-11T16:02:22Z</time>
      </trkpt>
      <trkpt lat="44.43123" lon="5.69818">
        <ele>851.59997558594</ele>
        <time>2013-05-11T16:02:24Z</time>
      </trkpt>
      <trkpt lat="44.43114" lon="5.69826">
        <ele>850</ele>
        <time>2013-05-11T16:02:25Z</time>
      </trkpt>
      <trkpt lat="44.43105" lon="5.69835">
        <ele>848.40002441406</ele>
        <time>2013-05-11T16:02:26Z</time>
      </trkpt>
      <trkpt lat="44.43097" lon="5.69843">
        <ele>847</ele>
        <time>2013-05-11T16:02:27Z</time>
      </trkpt>
      <trkpt lat="44.43081" lon="5.69854">
        <ele>844.20001220703</ele>
        <time>2013-05-11T16:02:29Z</time>
      </trkpt>
      <trkpt lat="44.43074" lon="5.69857">
        <ele>842.79998779297</ele>
        <time>2013-05-11T16:02:30Z</time>
      </trkpt>
      <trkpt lat="44.43067" lon="5.69859">
        <ele>841.40002441406</ele>
        <time>2013-05-11T16:02:31Z</time>
      </trkpt>
      <trkpt lat="44.4306" lon="5.69861">
        <ele>840</ele>
        <time>2013-05-11T16:02:32Z</time>
      </trkpt>
      <trkpt lat="44.43046" lon="5.6987">
        <ele>837.59997558594</ele>
        <time>2013-05-11T16:02:34Z</time>
      </trkpt>
      <trkpt lat="44.43039" lon="5.69878">
        <ele>836.40002441406</ele>
        <time>2013-05-11T16:02:35Z</time>
      </trkpt>
      <trkpt lat="44.43032" lon="5.69887">
        <ele>835</ele>
        <time>2013-05-11T16:02:36Z</time>
      </trkpt>
      <trkpt lat="44.43026" lon="5.69894">
        <ele>833.59997558594</ele>
        <time>2013-05-11T16:02:37Z</time>
      </trkpt>
      <trkpt lat="44.43017" lon="5.69899">
        <ele>832.40002441406</ele>
        <time>2013-05-11T16:02:38Z</time>
      </trkpt>
      <trkpt lat="44.43001" lon="5.69909">
        <ele>831</ele>
        <time>2013-05-11T16:02:40Z</time>
      </trkpt>
      <trkpt lat="44.42994" lon="5.69914">
        <ele>828.59997558594</ele>
        <time>2013-05-11T16:02:41Z</time>
      </trkpt>
      <trkpt lat="44.42987" lon="5.69921">
        <ele>827.20001220703</ele>
        <time>2013-05-11T16:02:42Z</time>
      </trkpt>
      <trkpt lat="44.42982" lon="5.6993">
        <ele>826</ele>
        <time>2013-05-11T16:02:43Z</time>
      </trkpt>
      <trkpt lat="44.42976" lon="5.6994">
        <ele>824.59997558594</ele>
        <time>2013-05-11T16:02:44Z</time>
      </trkpt>
      <trkpt lat="44.42966" lon="5.69961">
        <ele>823.40002441406</ele>
        <time>2013-05-11T16:02:46Z</time>
      </trkpt>
      <trkpt lat="44.4296" lon="5.69973">
        <ele>821</ele>
        <time>2013-05-11T16:02:47Z</time>
      </trkpt>
      <trkpt lat="44.42955" lon="5.69984">
        <ele>819.79998779297</ele>
        <time>2013-05-11T16:02:48Z</time>
      </trkpt>
      <trkpt lat="44.4295" lon="5.69996">
        <ele>818.40002441406</ele>
        <time>2013-05-11T16:02:49Z</time>
      </trkpt>
      <trkpt lat="44.42944" lon="5.70009">
        <ele>817</ele>
        <time>2013-05-11T16:02:50Z</time>
      </trkpt>
      <trkpt lat="44.42933" lon="5.70033">
        <ele>814.20001220703</ele>
        <time>2013-05-11T16:02:52Z</time>
      </trkpt>
      <trkpt lat="44.42927" lon="5.70045">
        <ele>812.79998779297</ele>
        <time>2013-05-11T16:02:53Z</time>
      </trkpt>
      <trkpt lat="44.42921" lon="5.70056">
        <ele>811.20001220703</ele>
        <time>2013-05-11T16:02:54Z</time>
      </trkpt>
      <trkpt lat="44.42914" lon="5.70066">
        <ele>810</ele>
        <time>2013-05-11T16:02:55Z</time>
      </trkpt>
      <trkpt lat="44.429" lon="5.70087">
        <ele>808.59997558594</ele>
        <time>2013-05-11T16:02:57Z</time>
      </trkpt>
      <trkpt lat="44.42894" lon="5.70097">
        <ele>806.40002441406</ele>
        <time>2013-05-11T16:02:58Z</time>
      </trkpt>
      <trkpt lat="44.42887" lon="5.70107">
        <ele>805.20001220703</ele>
        <time>2013-05-11T16:02:59Z</time>
      </trkpt>
      <trkpt lat="44.42883" lon="5.70117">
        <ele>804.20001220703</ele>
        <time>2013-05-11T16:03:00Z</time>
      </trkpt>
      <trkpt lat="44.42874" lon="5.7014">
        <ele>803.20001220703</ele>
        <time>2013-05-11T16:03:02Z</time>
      </trkpt>
      <trkpt lat="44.42871" lon="5.70151">
        <ele>801.20001220703</ele>
        <time>2013-05-11T16:03:03Z</time>
      </trkpt>
      <trkpt lat="44.42868" lon="5.70161">
        <ele>800.40002441406</ele>
        <time>2013-05-11T16:03:04Z</time>
      </trkpt>
      <trkpt lat="44.42866" lon="5.70171">
        <ele>799.59997558594</ele>
        <time>2013-05-11T16:03:05Z</time>
      </trkpt>
      <trkpt lat="44.42862" lon="5.70189">
        <ele>798.79998779297</ele>
        <time>2013-05-11T16:03:07Z</time>
      </trkpt>
      <trkpt lat="44.42862" lon="5.70199">
        <ele>797.20001220703</ele>
        <time>2013-05-11T16:03:08Z</time>
      </trkpt>
      <trkpt lat="44.42861" lon="5.7021">
        <ele>796.20001220703</ele>
        <time>2013-05-11T16:03:09Z</time>
      </trkpt>
      <trkpt lat="44.42861" lon="5.70219">
        <ele>795.40002441406</ele>
        <time>2013-05-11T16:03:10Z</time>
      </trkpt>
      <trkpt lat="44.42863" lon="5.70227">
        <ele>794.40002441406</ele>
        <time>2013-05-11T16:03:11Z</time>
      </trkpt>
      <trkpt lat="44.42865" lon="5.70234">
        <ele>794.40002441406</ele>
        <time>2013-05-11T16:03:12Z</time>
      </trkpt>
      <trkpt lat="44.42866" lon="5.70242">
        <ele>791.40002441406</ele>
        <time>2013-05-11T16:03:14Z</time>
      </trkpt>
      <trkpt lat="44.42864" lon="5.70239">
        <ele>789.59997558594</ele>
        <time>2013-05-11T16:12:17Z</time>
      </trkpt>
      <trkpt lat="44.42852" lon="5.70222">
        <ele>789.20001220703</ele>
        <time>2013-05-11T16:13:08Z</time>
      </trkpt>
      <trkpt lat="44.42851" lon="5.70219">
        <ele>788.79998779297</ele>
        <time>2013-05-11T16:13:09Z</time>
      </trkpt>
      <trkpt lat="44.42849" lon="5.70216">
        <ele>788.40002441406</ele>
        <time>2013-05-11T16:13:10Z</time>
      </trkpt>
      <trkpt lat="44.42845" lon="5.7021">
        <ele>787.20001220703</ele>
        <time>2013-05-11T16:13:14Z</time>
      </trkpt>
      <trkpt lat="44.42839" lon="5.70199">
        <ele>785</ele>
        <time>2013-05-11T16:13:18Z</time>
      </trkpt>
      <trkpt lat="44.42831" lon="5.70182">
        <ele>784.59997558594</ele>
        <time>2013-05-11T16:13:22Z</time>
      </trkpt>
      <trkpt lat="44.4283" lon="5.70177">
        <ele>784.20001220703</ele>
        <time>2013-05-11T16:13:23Z</time>
      </trkpt>
      <trkpt lat="44.4283" lon="5.70169">
        <ele>784.20001220703</ele>
        <time>2013-05-11T16:13:24Z</time>
      </trkpt>
      <trkpt lat="44.42833" lon="5.70155">
        <ele>783.79998779297</ele>
        <time>2013-05-11T16:13:26Z</time>
      </trkpt>
      <trkpt lat="44.42833" lon="5.7015">
        <ele>782.79998779297</ele>
        <time>2013-05-11T16:13:27Z</time>
      </trkpt>
      <trkpt lat="44.42829" lon="5.70143">
        <ele>782.40002441406</ele>
        <time>2013-05-11T16:13:29Z</time>
      </trkpt>
      <trkpt lat="44.42821" lon="5.70152">
        <ele>781.79998779297</ele>
        <time>2013-05-11T16:13:30Z</time>
      </trkpt>
      <trkpt lat="44.42818" lon="5.70158">
        <ele>781.20001220703</ele>
        <time>2013-05-11T16:13:31Z</time>
      </trkpt>
      <trkpt lat="44.42816" lon="5.70167">
        <ele>779.79998779297</ele>
        <time>2013-05-11T16:13:32Z</time>
      </trkpt>
      <trkpt lat="44.42814" lon="5.70175">
        <ele>779</ele>
        <time>2013-05-11T16:13:33Z</time>
      </trkpt>
      <trkpt lat="44.42811" lon="5.70184">
        <ele>778.59997558594</ele>
        <time>2013-05-11T16:13:34Z</time>
      </trkpt>
      <trkpt lat="44.42805" lon="5.70204">
        <ele>778</ele>
        <time>2013-05-11T16:13:36Z</time>
      </trkpt>
      <trkpt lat="44.42805" lon="5.70213">
        <ele>776.40002441406</ele>
        <time>2013-05-11T16:13:37Z</time>
      </trkpt>
      <trkpt lat="44.42805" lon="5.70223">
        <ele>775.59997558594</ele>
        <time>2013-05-11T16:13:38Z</time>
      </trkpt>
      <trkpt lat="44.42806" lon="5.70232">
        <ele>774.59997558594</ele>
        <time>2013-05-11T16:13:39Z</time>
      </trkpt>
      <trkpt lat="44.42809" lon="5.70254">
        <ele>773.40002441406</ele>
        <time>2013-05-11T16:13:41Z</time>
      </trkpt>
      <trkpt lat="44.42812" lon="5.70265">
        <ele>771</ele>
        <time>2013-05-11T16:13:42Z</time>
      </trkpt>
      <trkpt lat="44.42813" lon="5.70275">
        <ele>769.79998779297</ele>
        <time>2013-05-11T16:13:43Z</time>
      </trkpt>
      <trkpt lat="44.42815" lon="5.70284">
        <ele>768.59997558594</ele>
        <time>2013-05-11T16:13:44Z</time>
      </trkpt>
      <trkpt lat="44.42819" lon="5.70292">
        <ele>768.59997558594</ele>
        <time>2013-05-11T16:13:45Z</time>
      </trkpt>
      <trkpt lat="44.42825" lon="5.703">
        <ele>767.20001220703</ele>
        <time>2013-05-11T16:13:46Z</time>
      </trkpt>
      <trkpt lat="44.4283" lon="5.70308">
        <ele>766</ele>
        <time>2013-05-11T16:13:47Z</time>
      </trkpt>
      <trkpt lat="44.42835" lon="5.70316">
        <ele>763.59997558594</ele>
        <time>2013-05-11T16:13:48Z</time>
      </trkpt>
      <trkpt lat="44.42835" lon="5.70326">
        <ele>762.40002441406</ele>
        <time>2013-05-11T16:13:49Z</time>
      </trkpt>
      <trkpt lat="44.42834" lon="5.70338">
        <ele>761.40002441406</ele>
        <time>2013-05-11T16:13:50Z</time>
      </trkpt>
      <trkpt lat="44.42836" lon="5.70362">
        <ele>760.20001220703</ele>
        <time>2013-05-11T16:13:52Z</time>
      </trkpt>
      <trkpt lat="44.42839" lon="5.70376">
        <ele>757.79998779297</ele>
        <time>2013-05-11T16:13:53Z</time>
      </trkpt>
      <trkpt lat="44.42842" lon="5.70388">
        <ele>756.59997558594</ele>
        <time>2013-05-11T16:13:54Z</time>
      </trkpt>
      <trkpt lat="44.42844" lon="5.704">
        <ele>755.20001220703</ele>
        <time>2013-05-11T16:13:55Z</time>
      </trkpt>
      <trkpt lat="44.42845" lon="5.70411">
        <ele>755.20001220703</ele>
        <time>2013-05-11T16:13:56Z</time>
      </trkpt>
      <trkpt lat="44.42846" lon="5.70421">
        <ele>753.79998779297</ele>
        <time>2013-05-11T16:13:57Z</time>
      </trkpt>
      <trkpt lat="44.42848" lon="5.70431">
        <ele>751.40002441406</ele>
        <time>2013-05-11T16:13:58Z</time>
      </trkpt>
      <trkpt lat="44.42851" lon="5.70441">
        <ele>750.20001220703</ele>
        <time>2013-05-11T16:13:59Z</time>
      </trkpt>
      <trkpt lat="44.42853" lon="5.7045">
        <ele>749.20001220703</ele>
        <time>2013-05-11T16:14:00Z</time>
      </trkpt>
      <trkpt lat="44.42846" lon="5.70469">
        <ele>748</ele>
        <time>2013-05-11T16:14:02Z</time>
      </trkpt>
      <trkpt lat="44.4284" lon="5.7048">
        <ele>747</ele>
        <time>2013-05-11T16:14:03Z</time>
      </trkpt>
      <trkpt lat="44.42836" lon="5.7049">
        <ele>745.20001220703</ele>
        <time>2013-05-11T16:14:04Z</time>
      </trkpt>
      <trkpt lat="44.42831" lon="5.70502">
        <ele>744.40002441406</ele>
        <time>2013-05-11T16:14:05Z</time>
      </trkpt>
      <trkpt lat="44.4283" lon="5.70515">
        <ele>743.40002441406</ele>
        <time>2013-05-11T16:14:06Z</time>
      </trkpt>
      <trkpt lat="44.42825" lon="5.70543">
        <ele>742.20001220703</ele>
        <time>2013-05-11T16:14:08Z</time>
      </trkpt>
      <trkpt lat="44.42823" lon="5.70557">
        <ele>741.40002441406</ele>
        <time>2013-05-11T16:14:09Z</time>
      </trkpt>
      <trkpt lat="44.42822" lon="5.70572">
        <ele>740.59997558594</ele>
        <time>2013-05-11T16:14:10Z</time>
      </trkpt>
      <trkpt lat="44.42818" lon="5.70605">
        <ele>739.59997558594</ele>
        <time>2013-05-11T16:14:12Z</time>
      </trkpt>
      <trkpt lat="44.42816" lon="5.70622">
        <ele>737.40002441406</ele>
        <time>2013-05-11T16:14:13Z</time>
      </trkpt>
      <trkpt lat="44.42815" lon="5.70639">
        <ele>736.40002441406</ele>
        <time>2013-05-11T16:14:14Z</time>
      </trkpt>
      <trkpt lat="44.42813" lon="5.70656">
        <ele>735.20001220703</ele>
        <time>2013-05-11T16:14:15Z</time>
      </trkpt>
      <trkpt lat="44.42809" lon="5.70706">
        <ele>734</ele>
        <time>2013-05-11T16:14:18Z</time>
      </trkpt>
      <trkpt lat="44.42807" lon="5.70722">
        <ele>732.79998779297</ele>
        <time>2013-05-11T16:14:19Z</time>
      </trkpt>
      <trkpt lat="44.42806" lon="5.70739">
        <ele>731.59997558594</ele>
        <time>2013-05-11T16:14:20Z</time>
      </trkpt>
      <trkpt lat="44.42803" lon="5.70754">
        <ele>730.20001220703</ele>
        <time>2013-05-11T16:14:21Z</time>
      </trkpt>
      <trkpt lat="44.42801" lon="5.70768">
        <ele>729</ele>
        <time>2013-05-11T16:14:22Z</time>
      </trkpt>
      <trkpt lat="44.42796" lon="5.70782">
        <ele>727.59997558594</ele>
        <time>2013-05-11T16:14:23Z</time>
      </trkpt>
      <trkpt lat="44.42792" lon="5.70799">
        <ele>726.59997558594</ele>
        <time>2013-05-11T16:14:24Z</time>
      </trkpt>
      <trkpt lat="44.42789" lon="5.70814">
        <ele>725.40002441406</ele>
        <time>2013-05-11T16:14:25Z</time>
      </trkpt>
      <trkpt lat="44.42788" lon="5.7083">
        <ele>724.40002441406</ele>
        <time>2013-05-11T16:14:26Z</time>
      </trkpt>
      <trkpt lat="44.42786" lon="5.70845">
        <ele>723.20001220703</ele>
        <time>2013-05-11T16:14:27Z</time>
      </trkpt>
      <trkpt lat="44.42786" lon="5.70857">
        <ele>722.20001220703</ele>
        <time>2013-05-11T16:14:28Z</time>
      </trkpt>
      <trkpt lat="44.42783" lon="5.70867">
        <ele>721</ele>
        <time>2013-05-11T16:14:29Z</time>
      </trkpt>
      <trkpt lat="44.42778" lon="5.70877">
        <ele>720</ele>
        <time>2013-05-11T16:14:30Z</time>
      </trkpt>
      <trkpt lat="44.42773" lon="5.70887">
        <ele>719</ele>
        <time>2013-05-11T16:14:31Z</time>
      </trkpt>
      <trkpt lat="44.42768" lon="5.70899">
        <ele>718</ele>
        <time>2013-05-11T16:14:32Z</time>
      </trkpt>
      <trkpt lat="44.42764" lon="5.70913">
        <ele>716.79998779297</ele>
        <time>2013-05-11T16:14:33Z</time>
      </trkpt>
      <trkpt lat="44.4276" lon="5.70927">
        <ele>715.79998779297</ele>
        <time>2013-05-11T16:14:34Z</time>
      </trkpt>
      <trkpt lat="44.42756" lon="5.70941">
        <ele>714.79998779297</ele>
        <time>2013-05-11T16:14:35Z</time>
      </trkpt>
      <trkpt lat="44.42752" lon="5.70955">
        <ele>713.59997558594</ele>
        <time>2013-05-11T16:14:36Z</time>
      </trkpt>
      <trkpt lat="44.42751" lon="5.70969">
        <ele>712.59997558594</ele>
        <time>2013-05-11T16:14:37Z</time>
      </trkpt>
      <trkpt lat="44.42751" lon="5.70983">
        <ele>711.59997558594</ele>
        <time>2013-05-11T16:14:38Z</time>
      </trkpt>
      <trkpt lat="44.42752" lon="5.70998">
        <ele>710.79998779297</ele>
        <time>2013-05-11T16:14:39Z</time>
      </trkpt>
      <trkpt lat="44.42754" lon="5.71013">
        <ele>709.79998779297</ele>
        <time>2013-05-11T16:14:40Z</time>
      </trkpt>
      <trkpt lat="44.42755" lon="5.71028">
        <ele>708.79998779297</ele>
        <time>2013-05-11T16:14:41Z</time>
      </trkpt>
      <trkpt lat="44.42756" lon="5.71041">
        <ele>708</ele>
        <time>2013-05-11T16:14:42Z</time>
      </trkpt>
      <trkpt lat="44.42757" lon="5.71054">
        <ele>706.79998779297</ele>
        <time>2013-05-11T16:14:43Z</time>
      </trkpt>
      <trkpt lat="44.42758" lon="5.71067">
        <ele>705.79998779297</ele>
        <time>2013-05-11T16:14:44Z</time>
      </trkpt>
      <trkpt lat="44.42759" lon="5.71081">
        <ele>704.79998779297</ele>
        <time>2013-05-11T16:14:45Z</time>
      </trkpt>
      <trkpt lat="44.42759" lon="5.71093">
        <ele>703.79998779297</ele>
        <time>2013-05-11T16:14:46Z</time>
      </trkpt>
      <trkpt lat="44.42759" lon="5.71102">
        <ele>702.79998779297</ele>
        <time>2013-05-11T16:14:47Z</time>
      </trkpt>
      <trkpt lat="44.42755" lon="5.71115">
        <ele>700.79998779297</ele>
        <time>2013-05-11T16:14:49Z</time>
      </trkpt>
      <trkpt lat="44.42749" lon="5.71126">
        <ele>699</ele>
        <time>2013-05-11T16:14:51Z</time>
      </trkpt>
      <trkpt lat="44.4275" lon="5.71134">
        <ele>698</ele>
        <time>2013-05-11T16:14:52Z</time>
      </trkpt>
      <trkpt lat="44.42752" lon="5.71142">
        <ele>697.20001220703</ele>
        <time>2013-05-11T16:14:53Z</time>
      </trkpt>
      <trkpt lat="44.42757" lon="5.71156">
        <ele>695.59997558594</ele>
        <time>2013-05-11T16:14:55Z</time>
      </trkpt>
      <trkpt lat="44.4276" lon="5.71162">
        <ele>695.20001220703</ele>
        <time>2013-05-11T16:14:56Z</time>
      </trkpt>
      <trkpt lat="44.42768" lon="5.71176">
        <ele>694.40002441406</ele>
        <time>2013-05-11T16:14:58Z</time>
      </trkpt>
      <trkpt lat="44.42772" lon="5.71183">
        <ele>694</ele>
        <time>2013-05-11T16:14:59Z</time>
      </trkpt>
      <trkpt lat="44.42775" lon="5.71191">
        <ele>693.40002441406</ele>
        <time>2013-05-11T16:15:00Z</time>
      </trkpt>
      <trkpt lat="44.42783" lon="5.71213">
        <ele>693.40002441406</ele>
        <time>2013-05-11T16:15:03Z</time>
      </trkpt>
      <trkpt lat="44.42789" lon="5.71228">
        <ele>693.40002441406</ele>
        <time>2013-05-11T16:15:05Z</time>
      </trkpt>
      <trkpt lat="44.42794" lon="5.71244">
        <ele>693</ele>
        <time>2013-05-11T16:15:07Z</time>
      </trkpt>
      <trkpt lat="44.42796" lon="5.71252">
        <ele>692.59997558594</ele>
        <time>2013-05-11T16:15:08Z</time>
      </trkpt>
      <trkpt lat="44.42799" lon="5.71267">
        <ele>691.79998779297</ele>
        <time>2013-05-11T16:15:10Z</time>
      </trkpt>
      <trkpt lat="44.42801" lon="5.71275">
        <ele>691.40002441406</ele>
        <time>2013-05-11T16:15:11Z</time>
      </trkpt>
      <trkpt lat="44.42802" lon="5.71282">
        <ele>691.40002441406</ele>
        <time>2013-05-11T16:15:12Z</time>
      </trkpt>
      <trkpt lat="44.42807" lon="5.71308">
        <ele>691</ele>
        <time>2013-05-11T16:15:16Z</time>
      </trkpt>
      <trkpt lat="44.42809" lon="5.71313">
        <ele>690.59997558594</ele>
        <time>2013-05-11T16:15:17Z</time>
      </trkpt>
      <trkpt lat="44.42811" lon="5.71318">
        <ele>690.20001220703</ele>
        <time>2013-05-11T16:15:18Z</time>
      </trkpt>
      <trkpt lat="44.42812" lon="5.71322">
        <ele>689.79998779297</ele>
        <time>2013-05-11T16:15:19Z</time>
      </trkpt>
      <trkpt lat="44.42816" lon="5.71345">
        <ele>689.40002441406</ele>
        <time>2013-05-11T16:15:23Z</time>
      </trkpt>
      <trkpt lat="44.42818" lon="5.71362">
        <ele>689.40002441406</ele>
        <time>2013-05-11T16:15:26Z</time>
      </trkpt>
      <trkpt lat="44.42825" lon="5.7138">
        <ele>689.40002441406</ele>
        <time>2013-05-11T16:15:29Z</time>
      </trkpt>
      <trkpt lat="44.42831" lon="5.71395">
        <ele>688.79998779297</ele>
        <time>2013-05-11T16:15:31Z</time>
      </trkpt>
      <trkpt lat="44.42833" lon="5.71403">
        <ele>688.40002441406</ele>
        <time>2013-05-11T16:15:32Z</time>
      </trkpt>
      <trkpt lat="44.42835" lon="5.71412">
        <ele>687.59997558594</ele>
        <time>2013-05-11T16:15:33Z</time>
      </trkpt>
      <trkpt lat="44.4284" lon="5.71427">
        <ele>687</ele>
        <time>2013-05-11T16:15:35Z</time>
      </trkpt>
      <trkpt lat="44.42841" lon="5.71435">
        <ele>686</ele>
        <time>2013-05-11T16:15:36Z</time>
      </trkpt>
      <trkpt lat="44.42841" lon="5.71442">
        <ele>686</ele>
        <time>2013-05-11T16:15:37Z</time>
      </trkpt>
      <trkpt lat="44.42842" lon="5.71453">
        <ele>683</ele>
        <time>2013-05-11T16:15:39Z</time>
      </trkpt>
      <trkpt lat="44.42845" lon="5.71462">
        <ele>682</ele>
        <time>2013-05-11T16:15:41Z</time>
      </trkpt>
      <trkpt lat="44.42842" lon="5.71471">
        <ele>681.40002441406</ele>
        <time>2013-05-11T16:15:45Z</time>
      </trkpt>
      <trkpt lat="44.4284" lon="5.71479">
        <ele>681.40002441406</ele>
        <time>2013-05-11T16:15:47Z</time>
      </trkpt>
      <trkpt lat="44.42836" lon="5.71491">
        <ele>681.40002441406</ele>
        <time>2013-05-11T16:15:50Z</time>
      </trkpt>
      <trkpt lat="44.42836" lon="5.71503">
        <ele>679.79998779297</ele>
        <time>2013-05-11T16:15:54Z</time>
      </trkpt>
      <trkpt lat="44.42838" lon="5.71516">
        <ele>678.59997558594</ele>
        <time>2013-05-11T16:15:56Z</time>
      </trkpt>
      <trkpt lat="44.42842" lon="5.71521">
        <ele>678</ele>
        <time>2013-05-11T16:15:57Z</time>
      </trkpt>
      <trkpt lat="44.4285" lon="5.71532">
        <ele>677.20001220703</ele>
        <time>2013-05-11T16:15:59Z</time>
      </trkpt>
      <trkpt lat="44.42855" lon="5.7154">
        <ele>677.20001220703</ele>
        <time>2013-05-11T16:16:02Z</time>
      </trkpt>
      <trkpt lat="44.42862" lon="5.71549">
        <ele>677.20001220703</ele>
        <time>2013-05-11T16:16:06Z</time>
      </trkpt>
      <trkpt lat="44.42867" lon="5.71557">
        <ele>677.20001220703</ele>
        <time>2013-05-11T16:16:08Z</time>
      </trkpt>
      <trkpt lat="44.42868" lon="5.71561">
        <ele>677.20001220703</ele>
        <time>2013-05-11T16:16:09Z</time>
      </trkpt>
      <trkpt lat="44.42872" lon="5.71575">
        <ele>677.20001220703</ele>
        <time>2013-05-11T16:16:12Z</time>
      </trkpt>
      <trkpt lat="44.42876" lon="5.71599">
        <ele>677.20001220703</ele>
        <time>2013-05-11T16:16:16Z</time>
      </trkpt>
      <trkpt lat="44.42883" lon="5.71627">
        <ele>677.20001220703</ele>
        <time>2013-05-11T16:16:20Z</time>
      </trkpt>
      <trkpt lat="44.42884" lon="5.71632">
        <ele>676.59997558594</ele>
        <time>2013-05-11T16:16:21Z</time>
      </trkpt>
      <trkpt lat="44.42888" lon="5.71641">
        <ele>675.20001220703</ele>
        <time>2013-05-11T16:16:23Z</time>
      </trkpt>
      <trkpt lat="44.42891" lon="5.71645">
        <ele>674.40002441406</ele>
        <time>2013-05-11T16:16:24Z</time>
      </trkpt>
      <trkpt lat="44.42898" lon="5.71655">
        <ele>673.79998779297</ele>
        <time>2013-05-11T16:16:26Z</time>
      </trkpt>
      <trkpt lat="44.42912" lon="5.71679">
        <ele>673.40002441406</ele>
        <time>2013-05-11T16:16:30Z</time>
      </trkpt>
      <trkpt lat="44.42915" lon="5.71686">
        <ele>673</ele>
        <time>2013-05-11T16:16:31Z</time>
      </trkpt>
      <trkpt lat="44.42926" lon="5.71689">
        <ele>672.59997558594</ele>
        <time>2013-05-11T16:16:32Z</time>
      </trkpt>
      <trkpt lat="44.42927" lon="5.71694">
        <ele>671.59997558594</ele>
        <time>2013-05-11T16:16:33Z</time>
      </trkpt>
      <trkpt lat="44.42926" lon="5.717">
        <ele>670.40002441406</ele>
        <time>2013-05-11T16:16:35Z</time>
      </trkpt>
      <trkpt lat="44.42917" lon="5.71705">
        <ele>669.79998779297</ele>
        <time>2013-05-11T16:16:36Z</time>
      </trkpt>
      <trkpt lat="44.42905" lon="5.71711">
        <ele>669.20001220703</ele>
        <time>2013-05-11T16:16:44Z</time>
      </trkpt>
      <trkpt lat="44.429" lon="5.71715">
        <ele>668</ele>
        <time>2013-05-11T16:16:49Z</time>
      </trkpt>
      <trkpt lat="44.42893" lon="5.71724">
        <ele>667.20001220703</ele>
        <time>2013-05-11T16:16:55Z</time>
      </trkpt>
      <trkpt lat="44.42888" lon="5.71726">
        <ele>667.20001220703</ele>
        <time>2013-05-11T16:17:02Z</time>
      </trkpt>
      <trkpt lat="44.42886" lon="5.71717">
        <ele>667.20001220703</ele>
        <time>2013-05-11T16:17:15Z</time>
      </trkpt>
    </trkseg>
  </trk>
</gpx>